<?xml version="1.0" encoding="UTF-8" standalone="no" ?>
<gpx xmlns="http://www.topografix.com/GPX/1/1" xmlns:xsi="http://www.w3.org/2001/XMLSchema-instance" xsi:schemaLocation="http://www.topografix.com/GPX/1/1 http://www.topografix.com/GPX/1/1/gpx.xsd" version="1.1" creator="VisuGPX - https://www.visugpx.com">
  <metadata>
    <name>tour de l'aiguille large depuis  caf Maljasset </name>
    <desc><![CDATA[
tour de l'aiguille  large  depuis  le  refuge CAF  du Maljasset

séjour  CAF  Saint Laurent du Var 17 fev 2020

descente   dans les mélèzes  mémorable !!! ]]></desc>
  </metadata>
  <trk>
    <name><![CDATA[Saint-Paul-sur-Ubaye Ascension]]></name>
    <trkseg>
      <trkpt lat="44.59253" lon="6.84497">
        <ele>1899</ele>
        <time>2020-02-17T07:53:24.000Z</time>
      </trkpt>
      <trkpt lat="44.59252" lon="6.84504">
        <ele>1899</ele>
        <time>2020-02-17T07:53:30.000Z</time>
      </trkpt>
      <trkpt lat="44.5925" lon="6.84515">
        <ele>1901</ele>
        <time>2020-02-17T07:53:35.000Z</time>
      </trkpt>
      <trkpt lat="44.5925" lon="6.84525">
        <ele>1898</ele>
        <time>2020-02-17T07:53:43.000Z</time>
      </trkpt>
      <trkpt lat="44.59248" lon="6.84538">
        <ele>1898</ele>
        <time>2020-02-17T07:53:53.000Z</time>
      </trkpt>
      <trkpt lat="44.59248" lon="6.84539">
        <ele>1898</ele>
        <time>2020-02-17T07:53:54.000Z</time>
      </trkpt>
      <trkpt lat="44.59248" lon="6.84544">
        <ele>1898</ele>
        <time>2020-02-17T07:53:59.000Z</time>
      </trkpt>
      <trkpt lat="44.59247" lon="6.84545">
        <ele>1898</ele>
        <time>2020-02-17T07:54:00.000Z</time>
      </trkpt>
      <trkpt lat="44.59247" lon="6.84546">
        <ele>1898</ele>
        <time>2020-02-17T07:54:01.000Z</time>
      </trkpt>
      <trkpt lat="44.59245" lon="6.84556">
        <ele>1899</ele>
        <time>2020-02-17T07:54:09.000Z</time>
      </trkpt>
      <trkpt lat="44.59244" lon="6.8457">
        <ele>1899</ele>
        <time>2020-02-17T07:54:20.000Z</time>
      </trkpt>
      <trkpt lat="44.59243" lon="6.84573">
        <ele>1899</ele>
        <time>2020-02-17T07:54:23.000Z</time>
      </trkpt>
      <trkpt lat="44.59243" lon="6.84574">
        <ele>1899</ele>
        <time>2020-02-17T07:54:24.000Z</time>
      </trkpt>
      <trkpt lat="44.59242" lon="6.8458">
        <ele>1899</ele>
        <time>2020-02-17T07:54:30.000Z</time>
      </trkpt>
      <trkpt lat="44.59241" lon="6.84583">
        <ele>1900</ele>
        <time>2020-02-17T07:54:33.000Z</time>
      </trkpt>
      <trkpt lat="44.59239" lon="6.84591">
        <ele>1901</ele>
        <time>2020-02-17T07:54:40.000Z</time>
      </trkpt>
      <trkpt lat="44.59238" lon="6.84598">
        <ele>1901</ele>
        <time>2020-02-17T07:54:45.000Z</time>
      </trkpt>
      <trkpt lat="44.59238" lon="6.84599">
        <ele>1901</ele>
        <time>2020-02-17T07:54:46.000Z</time>
      </trkpt>
      <trkpt lat="44.59236" lon="6.84611">
        <ele>1901</ele>
        <time>2020-02-17T07:54:55.000Z</time>
      </trkpt>
      <trkpt lat="44.59236" lon="6.84613">
        <ele>1901</ele>
        <time>2020-02-17T07:54:57.000Z</time>
      </trkpt>
      <trkpt lat="44.59236" lon="6.84615">
        <ele>1901</ele>
        <time>2020-02-17T07:54:58.000Z</time>
      </trkpt>
      <trkpt lat="44.59233" lon="6.84624">
        <ele>1902</ele>
        <time>2020-02-17T07:55:05.000Z</time>
      </trkpt>
      <trkpt lat="44.59234" lon="6.8464">
        <ele>1902</ele>
        <time>2020-02-17T07:55:17.000Z</time>
      </trkpt>
      <trkpt lat="44.59231" lon="6.8465">
        <ele>1902</ele>
        <time>2020-02-17T07:55:26.000Z</time>
      </trkpt>
      <trkpt lat="44.59229" lon="6.84655">
        <ele>1903</ele>
        <time>2020-02-17T07:55:30.000Z</time>
      </trkpt>
      <trkpt lat="44.5923" lon="6.84656">
        <ele>1903</ele>
        <time>2020-02-17T07:55:31.000Z</time>
      </trkpt>
      <trkpt lat="44.5923" lon="6.8466">
        <ele>1903</ele>
        <time>2020-02-17T07:55:35.000Z</time>
      </trkpt>
      <trkpt lat="44.59229" lon="6.84666">
        <ele>1903</ele>
        <time>2020-02-17T07:55:39.000Z</time>
      </trkpt>
      <trkpt lat="44.59229" lon="6.84668">
        <ele>1905</ele>
        <time>2020-02-17T07:55:40.000Z</time>
      </trkpt>
      <trkpt lat="44.59229" lon="6.84669">
        <ele>1905</ele>
        <time>2020-02-17T07:55:41.000Z</time>
      </trkpt>
      <trkpt lat="44.59228" lon="6.84675">
        <ele>1905</ele>
        <time>2020-02-17T07:55:45.000Z</time>
      </trkpt>
      <trkpt lat="44.5923" lon="6.84689">
        <ele>1905</ele>
        <time>2020-02-17T07:55:54.000Z</time>
      </trkpt>
      <trkpt lat="44.5923" lon="6.84691">
        <ele>1905</ele>
        <time>2020-02-17T07:55:55.000Z</time>
      </trkpt>
      <trkpt lat="44.59231" lon="6.84692">
        <ele>1905</ele>
        <time>2020-02-17T07:55:56.000Z</time>
      </trkpt>
      <trkpt lat="44.59234" lon="6.84706">
        <ele>1905</ele>
        <time>2020-02-17T07:56:07.000Z</time>
      </trkpt>
      <trkpt lat="44.59236" lon="6.84713">
        <ele>1905</ele>
        <time>2020-02-17T07:56:12.000Z</time>
      </trkpt>
      <trkpt lat="44.59236" lon="6.84715">
        <ele>1905</ele>
        <time>2020-02-17T07:56:14.000Z</time>
      </trkpt>
      <trkpt lat="44.59237" lon="6.84717">
        <ele>1905</ele>
        <time>2020-02-17T07:56:15.000Z</time>
      </trkpt>
      <trkpt lat="44.59239" lon="6.84723">
        <ele>1905</ele>
        <time>2020-02-17T07:56:19.000Z</time>
      </trkpt>
      <trkpt lat="44.5924" lon="6.84734">
        <ele>1905</ele>
        <time>2020-02-17T07:56:27.000Z</time>
      </trkpt>
      <trkpt lat="44.59251" lon="6.84761">
        <ele>1907</ele>
        <time>2020-02-17T07:56:49.000Z</time>
      </trkpt>
      <trkpt lat="44.59255" lon="6.84773">
        <ele>1908</ele>
        <time>2020-02-17T07:57:00.000Z</time>
      </trkpt>
      <trkpt lat="44.59258" lon="6.84782">
        <ele>1908</ele>
        <time>2020-02-17T07:57:07.000Z</time>
      </trkpt>
      <trkpt lat="44.59258" lon="6.84783">
        <ele>1908</ele>
        <time>2020-02-17T07:57:08.000Z</time>
      </trkpt>
      <trkpt lat="44.59263" lon="6.84791">
        <ele>1908</ele>
        <time>2020-02-17T07:57:15.000Z</time>
      </trkpt>
      <trkpt lat="44.59267" lon="6.84796">
        <ele>1909</ele>
        <time>2020-02-17T07:57:20.000Z</time>
      </trkpt>
      <trkpt lat="44.59267" lon="6.84797">
        <ele>1909</ele>
        <time>2020-02-17T07:57:21.000Z</time>
      </trkpt>
      <trkpt lat="44.59267" lon="6.84799">
        <ele>1909</ele>
        <time>2020-02-17T07:57:22.000Z</time>
      </trkpt>
      <trkpt lat="44.59267" lon="6.848">
        <ele>1909</ele>
        <time>2020-02-17T07:57:23.000Z</time>
      </trkpt>
      <trkpt lat="44.5927" lon="6.84811">
        <ele>1908</ele>
        <time>2020-02-17T07:57:31.000Z</time>
      </trkpt>
      <trkpt lat="44.59275" lon="6.8482">
        <ele>1908</ele>
        <time>2020-02-17T07:57:39.000Z</time>
      </trkpt>
      <trkpt lat="44.59279" lon="6.84847">
        <ele>1908</ele>
        <time>2020-02-17T07:57:58.000Z</time>
      </trkpt>
      <trkpt lat="44.5928" lon="6.84853">
        <ele>1908</ele>
        <time>2020-02-17T07:58:03.000Z</time>
      </trkpt>
      <trkpt lat="44.59283" lon="6.84869">
        <ele>1908</ele>
        <time>2020-02-17T07:58:17.000Z</time>
      </trkpt>
      <trkpt lat="44.59285" lon="6.84878">
        <ele>1908</ele>
        <time>2020-02-17T07:58:24.000Z</time>
      </trkpt>
      <trkpt lat="44.59286" lon="6.84882">
        <ele>1908</ele>
        <time>2020-02-17T07:58:28.000Z</time>
      </trkpt>
      <trkpt lat="44.59286" lon="6.84884">
        <ele>1908</ele>
        <time>2020-02-17T07:58:30.000Z</time>
      </trkpt>
      <trkpt lat="44.59286" lon="6.84888">
        <ele>1908</ele>
        <time>2020-02-17T07:58:33.000Z</time>
      </trkpt>
      <trkpt lat="44.59285" lon="6.8489">
        <ele>1908</ele>
        <time>2020-02-17T07:58:35.000Z</time>
      </trkpt>
      <trkpt lat="44.59286" lon="6.84891">
        <ele>1908</ele>
        <time>2020-02-17T07:58:36.000Z</time>
      </trkpt>
      <trkpt lat="44.59285" lon="6.84892">
        <ele>1908</ele>
        <time>2020-02-17T07:58:37.000Z</time>
      </trkpt>
      <trkpt lat="44.59285" lon="6.84893">
        <ele>1908</ele>
        <time>2020-02-17T07:58:39.000Z</time>
      </trkpt>
      <trkpt lat="44.59286" lon="6.84896">
        <ele>1908</ele>
        <time>2020-02-17T07:58:42.000Z</time>
      </trkpt>
      <trkpt lat="44.59287" lon="6.84901">
        <ele>1908</ele>
        <time>2020-02-17T07:58:49.000Z</time>
      </trkpt>
      <trkpt lat="44.59288" lon="6.84902">
        <ele>1908</ele>
        <time>2020-02-17T07:58:50.000Z</time>
      </trkpt>
      <trkpt lat="44.59294" lon="6.84914">
        <ele>1908</ele>
        <time>2020-02-17T07:59:01.000Z</time>
      </trkpt>
      <trkpt lat="44.59296" lon="6.84919">
        <ele>1908</ele>
        <time>2020-02-17T07:59:05.000Z</time>
      </trkpt>
      <trkpt lat="44.59298" lon="6.84925">
        <ele>1908</ele>
        <time>2020-02-17T07:59:09.000Z</time>
      </trkpt>
      <trkpt lat="44.59298" lon="6.84927">
        <ele>1908</ele>
        <time>2020-02-17T07:59:10.000Z</time>
      </trkpt>
      <trkpt lat="44.59312" lon="6.8495">
        <ele>1908</ele>
        <time>2020-02-17T07:59:30.000Z</time>
      </trkpt>
      <trkpt lat="44.59314" lon="6.84952">
        <ele>1908</ele>
        <time>2020-02-17T07:59:33.000Z</time>
      </trkpt>
      <trkpt lat="44.59315" lon="6.84953">
        <ele>1908</ele>
        <time>2020-02-17T07:59:34.000Z</time>
      </trkpt>
      <trkpt lat="44.59318" lon="6.84958">
        <ele>1908</ele>
        <time>2020-02-17T07:59:39.000Z</time>
      </trkpt>
      <trkpt lat="44.59318" lon="6.8496">
        <ele>1908</ele>
        <time>2020-02-17T07:59:41.000Z</time>
      </trkpt>
      <trkpt lat="44.59319" lon="6.84961">
        <ele>1908</ele>
        <time>2020-02-17T07:59:42.000Z</time>
      </trkpt>
      <trkpt lat="44.59321" lon="6.84964">
        <ele>1908</ele>
        <time>2020-02-17T07:59:45.000Z</time>
      </trkpt>
      <trkpt lat="44.59322" lon="6.84965">
        <ele>1908</ele>
        <time>2020-02-17T07:59:46.000Z</time>
      </trkpt>
      <trkpt lat="44.59324" lon="6.84968">
        <ele>1908</ele>
        <time>2020-02-17T07:59:49.000Z</time>
      </trkpt>
      <trkpt lat="44.59325" lon="6.84969">
        <ele>1908</ele>
        <time>2020-02-17T07:59:50.000Z</time>
      </trkpt>
      <trkpt lat="44.59329" lon="6.84974">
        <ele>1908</ele>
        <time>2020-02-17T07:59:55.000Z</time>
      </trkpt>
      <trkpt lat="44.59331" lon="6.84975">
        <ele>1908</ele>
        <time>2020-02-17T07:59:57.000Z</time>
      </trkpt>
      <trkpt lat="44.59333" lon="6.84978">
        <ele>1908</ele>
        <time>2020-02-17T08:00:00.000Z</time>
      </trkpt>
      <trkpt lat="44.59333" lon="6.8498">
        <ele>1908</ele>
        <time>2020-02-17T08:00:01.000Z</time>
      </trkpt>
      <trkpt lat="44.59334" lon="6.84982">
        <ele>1911</ele>
        <time>2020-02-17T08:00:03.000Z</time>
      </trkpt>
      <trkpt lat="44.59334" lon="6.84983">
        <ele>1911</ele>
        <time>2020-02-17T08:00:04.000Z</time>
      </trkpt>
      <trkpt lat="44.59338" lon="6.84989">
        <ele>1911</ele>
        <time>2020-02-17T08:00:09.000Z</time>
      </trkpt>
      <trkpt lat="44.59343" lon="6.85">
        <ele>1910</ele>
        <time>2020-02-17T08:00:18.000Z</time>
      </trkpt>
      <trkpt lat="44.59343" lon="6.85001">
        <ele>1910</ele>
        <time>2020-02-17T08:00:19.000Z</time>
      </trkpt>
      <trkpt lat="44.59344" lon="6.85003">
        <ele>1910</ele>
        <time>2020-02-17T08:00:21.000Z</time>
      </trkpt>
      <trkpt lat="44.59346" lon="6.85005">
        <ele>1910</ele>
        <time>2020-02-17T08:00:23.000Z</time>
      </trkpt>
      <trkpt lat="44.59349" lon="6.8501">
        <ele>1911</ele>
        <time>2020-02-17T08:00:28.000Z</time>
      </trkpt>
      <trkpt lat="44.59353" lon="6.8502">
        <ele>1912</ele>
        <time>2020-02-17T08:00:37.000Z</time>
      </trkpt>
      <trkpt lat="44.59354" lon="6.85022">
        <ele>1912</ele>
        <time>2020-02-17T08:00:39.000Z</time>
      </trkpt>
      <trkpt lat="44.59357" lon="6.85026">
        <ele>1912</ele>
        <time>2020-02-17T08:00:43.000Z</time>
      </trkpt>
      <trkpt lat="44.59359" lon="6.8503">
        <ele>1912</ele>
        <time>2020-02-17T08:00:47.000Z</time>
      </trkpt>
      <trkpt lat="44.5936" lon="6.85033">
        <ele>1912</ele>
        <time>2020-02-17T08:00:49.000Z</time>
      </trkpt>
      <trkpt lat="44.59361" lon="6.85037">
        <ele>1912</ele>
        <time>2020-02-17T08:00:53.000Z</time>
      </trkpt>
      <trkpt lat="44.59362" lon="6.85039">
        <ele>1912</ele>
        <time>2020-02-17T08:00:55.000Z</time>
      </trkpt>
      <trkpt lat="44.59365" lon="6.85042">
        <ele>1912</ele>
        <time>2020-02-17T08:00:59.000Z</time>
      </trkpt>
      <trkpt lat="44.59365" lon="6.85043">
        <ele>1912</ele>
        <time>2020-02-17T08:01:00.000Z</time>
      </trkpt>
      <trkpt lat="44.59368" lon="6.85048">
        <ele>1913</ele>
        <time>2020-02-17T08:01:05.000Z</time>
      </trkpt>
      <trkpt lat="44.59369" lon="6.8505">
        <ele>1913</ele>
        <time>2020-02-17T08:01:07.000Z</time>
      </trkpt>
      <trkpt lat="44.5937" lon="6.85051">
        <ele>1913</ele>
        <time>2020-02-17T08:01:08.000Z</time>
      </trkpt>
      <trkpt lat="44.59372" lon="6.85053">
        <ele>1913</ele>
        <time>2020-02-17T08:01:11.000Z</time>
      </trkpt>
      <trkpt lat="44.59373" lon="6.85054">
        <ele>1913</ele>
        <time>2020-02-17T08:01:13.000Z</time>
      </trkpt>
      <trkpt lat="44.59376" lon="6.8506">
        <ele>1913</ele>
        <time>2020-02-17T08:01:23.000Z</time>
      </trkpt>
      <trkpt lat="44.59378" lon="6.85062">
        <ele>1913</ele>
        <time>2020-02-17T08:01:25.000Z</time>
      </trkpt>
      <trkpt lat="44.59382" lon="6.85069">
        <ele>1913</ele>
        <time>2020-02-17T08:01:31.000Z</time>
      </trkpt>
      <trkpt lat="44.59384" lon="6.8507">
        <ele>1913</ele>
        <time>2020-02-17T08:01:33.000Z</time>
      </trkpt>
      <trkpt lat="44.59387" lon="6.85074">
        <ele>1913</ele>
        <time>2020-02-17T08:01:37.000Z</time>
      </trkpt>
      <trkpt lat="44.59389" lon="6.85076">
        <ele>1913</ele>
        <time>2020-02-17T08:01:40.000Z</time>
      </trkpt>
      <trkpt lat="44.59389" lon="6.85076">
        <ele>1913</ele>
        <time>2020-02-17T08:01:41.000Z</time>
      </trkpt>
      <trkpt lat="44.59389" lon="6.85076">
        <ele>1913</ele>
        <time>2020-02-17T08:01:42.000Z</time>
      </trkpt>
      <trkpt lat="44.59389" lon="6.85077">
        <ele>1913</ele>
        <time>2020-02-17T08:01:44.000Z</time>
      </trkpt>
      <trkpt lat="44.59389" lon="6.85077">
        <ele>1913</ele>
        <time>2020-02-17T08:01:46.000Z</time>
      </trkpt>
      <trkpt lat="44.59389" lon="6.85077">
        <ele>1913</ele>
        <time>2020-02-17T08:01:48.000Z</time>
      </trkpt>
      <trkpt lat="44.59389" lon="6.85077">
        <ele>1913</ele>
        <time>2020-02-17T08:01:52.000Z</time>
      </trkpt>
      <trkpt lat="44.59389" lon="6.85076">
        <ele>1913</ele>
        <time>2020-02-17T08:01:59.000Z</time>
      </trkpt>
      <trkpt lat="44.59398" lon="6.85078">
        <ele>1914</ele>
        <time>2020-02-17T08:02:02.000Z</time>
      </trkpt>
      <trkpt lat="44.59401" lon="6.85078">
        <ele>1914</ele>
        <time>2020-02-17T08:02:06.000Z</time>
      </trkpt>
      <trkpt lat="44.59402" lon="6.85078">
        <ele>1914</ele>
        <time>2020-02-17T08:02:10.000Z</time>
      </trkpt>
      <trkpt lat="44.59402" lon="6.85077">
        <ele>1914</ele>
        <time>2020-02-17T08:02:20.000Z</time>
      </trkpt>
      <trkpt lat="44.59402" lon="6.85076">
        <ele>1914</ele>
        <time>2020-02-17T08:02:21.000Z</time>
      </trkpt>
      <trkpt lat="44.59402" lon="6.85076">
        <ele>1914</ele>
        <time>2020-02-17T08:02:22.000Z</time>
      </trkpt>
      <trkpt lat="44.59402" lon="6.85076">
        <ele>1914</ele>
        <time>2020-02-17T08:02:23.000Z</time>
      </trkpt>
      <trkpt lat="44.59402" lon="6.85076">
        <ele>1914</ele>
        <time>2020-02-17T08:02:24.000Z</time>
      </trkpt>
      <trkpt lat="44.59402" lon="6.85076">
        <ele>1914</ele>
        <time>2020-02-17T08:02:25.000Z</time>
      </trkpt>
      <trkpt lat="44.59403" lon="6.85076">
        <ele>1914</ele>
        <time>2020-02-17T08:02:29.000Z</time>
      </trkpt>
      <trkpt lat="44.59403" lon="6.85077">
        <ele>1914</ele>
        <time>2020-02-17T08:02:33.000Z</time>
      </trkpt>
      <trkpt lat="44.59403" lon="6.85076">
        <ele>1914</ele>
        <time>2020-02-17T08:02:40.000Z</time>
      </trkpt>
      <trkpt lat="44.59402" lon="6.85076">
        <ele>1914</ele>
        <time>2020-02-17T08:02:57.000Z</time>
      </trkpt>
      <trkpt lat="44.594" lon="6.85075">
        <ele>1914</ele>
        <time>2020-02-17T08:03:05.000Z</time>
      </trkpt>
      <trkpt lat="44.594" lon="6.85076">
        <ele>1914</ele>
        <time>2020-02-17T08:03:06.000Z</time>
      </trkpt>
      <trkpt lat="44.59399" lon="6.85076">
        <ele>1914</ele>
        <time>2020-02-17T08:03:09.000Z</time>
      </trkpt>
      <trkpt lat="44.59399" lon="6.85076">
        <ele>1914</ele>
        <time>2020-02-17T08:03:11.000Z</time>
      </trkpt>
      <trkpt lat="44.594" lon="6.85076">
        <ele>1914</ele>
        <time>2020-02-17T08:03:12.000Z</time>
      </trkpt>
      <trkpt lat="44.594" lon="6.85076">
        <ele>1914</ele>
        <time>2020-02-17T08:03:13.000Z</time>
      </trkpt>
      <trkpt lat="44.594" lon="6.85076">
        <ele>1914</ele>
        <time>2020-02-17T08:03:14.000Z</time>
      </trkpt>
      <trkpt lat="44.59399" lon="6.85076">
        <ele>1914</ele>
        <time>2020-02-17T08:03:16.000Z</time>
      </trkpt>
      <trkpt lat="44.59398" lon="6.85076">
        <ele>1914</ele>
        <time>2020-02-17T08:03:17.000Z</time>
      </trkpt>
      <trkpt lat="44.59395" lon="6.85076">
        <ele>1914</ele>
        <time>2020-02-17T08:03:24.000Z</time>
      </trkpt>
      <trkpt lat="44.59395" lon="6.85079">
        <ele>1914</ele>
        <time>2020-02-17T08:03:37.000Z</time>
      </trkpt>
      <trkpt lat="44.59396" lon="6.8508">
        <ele>1914</ele>
        <time>2020-02-17T08:03:41.000Z</time>
      </trkpt>
      <trkpt lat="44.59398" lon="6.85079">
        <ele>1914</ele>
        <time>2020-02-17T08:03:49.000Z</time>
      </trkpt>
      <trkpt lat="44.59399" lon="6.8508">
        <ele>1914</ele>
        <time>2020-02-17T08:03:55.000Z</time>
      </trkpt>
      <trkpt lat="44.594" lon="6.8508">
        <ele>1914</ele>
        <time>2020-02-17T08:03:56.000Z</time>
      </trkpt>
      <trkpt lat="44.59401" lon="6.85081">
        <ele>1914</ele>
        <time>2020-02-17T08:03:57.000Z</time>
      </trkpt>
      <trkpt lat="44.59402" lon="6.85082">
        <ele>1914</ele>
        <time>2020-02-17T08:03:58.000Z</time>
      </trkpt>
      <trkpt lat="44.59403" lon="6.85083">
        <ele>1914</ele>
        <time>2020-02-17T08:03:59.000Z</time>
      </trkpt>
      <trkpt lat="44.59403" lon="6.85083">
        <ele>1914</ele>
        <time>2020-02-17T08:04:02.000Z</time>
      </trkpt>
      <trkpt lat="44.59407" lon="6.85087">
        <ele>1914</ele>
        <time>2020-02-17T08:04:08.000Z</time>
      </trkpt>
      <trkpt lat="44.59409" lon="6.8509">
        <ele>1914</ele>
        <time>2020-02-17T08:04:11.000Z</time>
      </trkpt>
      <trkpt lat="44.59411" lon="6.85092">
        <ele>1914</ele>
        <time>2020-02-17T08:04:15.000Z</time>
      </trkpt>
      <trkpt lat="44.5941" lon="6.85097">
        <ele>1914</ele>
        <time>2020-02-17T08:04:19.000Z</time>
      </trkpt>
      <trkpt lat="44.59413" lon="6.85103">
        <ele>1914</ele>
        <time>2020-02-17T08:04:23.000Z</time>
      </trkpt>
      <trkpt lat="44.59417" lon="6.85111">
        <ele>1920</ele>
        <time>2020-02-17T08:04:28.000Z</time>
      </trkpt>
      <trkpt lat="44.59426" lon="6.85126">
        <ele>1921</ele>
        <time>2020-02-17T08:04:40.000Z</time>
      </trkpt>
      <trkpt lat="44.59431" lon="6.85133">
        <ele>1921</ele>
        <time>2020-02-17T08:04:46.000Z</time>
      </trkpt>
      <trkpt lat="44.59435" lon="6.85138">
        <ele>1921</ele>
        <time>2020-02-17T08:04:51.000Z</time>
      </trkpt>
      <trkpt lat="44.59438" lon="6.85141">
        <ele>1921</ele>
        <time>2020-02-17T08:04:54.000Z</time>
      </trkpt>
      <trkpt lat="44.59438" lon="6.85141">
        <ele>1921</ele>
        <time>2020-02-17T08:04:56.000Z</time>
      </trkpt>
      <trkpt lat="44.59437" lon="6.85142">
        <ele>1921</ele>
        <time>2020-02-17T08:04:58.000Z</time>
      </trkpt>
      <trkpt lat="44.5944" lon="6.85146">
        <ele>1921</ele>
        <time>2020-02-17T08:05:04.000Z</time>
      </trkpt>
      <trkpt lat="44.5944" lon="6.85149">
        <ele>1921</ele>
        <time>2020-02-17T08:05:06.000Z</time>
      </trkpt>
      <trkpt lat="44.59442" lon="6.85151">
        <ele>1921</ele>
        <time>2020-02-17T08:05:08.000Z</time>
      </trkpt>
      <trkpt lat="44.59443" lon="6.85153">
        <ele>1921</ele>
        <time>2020-02-17T08:05:10.000Z</time>
      </trkpt>
      <trkpt lat="44.59443" lon="6.85154">
        <ele>1921</ele>
        <time>2020-02-17T08:05:11.000Z</time>
      </trkpt>
      <trkpt lat="44.59442" lon="6.85161">
        <ele>1920</ele>
        <time>2020-02-17T08:05:18.000Z</time>
      </trkpt>
      <trkpt lat="44.5944" lon="6.85166">
        <ele>1920</ele>
        <time>2020-02-17T08:05:21.000Z</time>
      </trkpt>
      <trkpt lat="44.59439" lon="6.85168">
        <ele>1917</ele>
        <time>2020-02-17T08:05:23.000Z</time>
      </trkpt>
      <trkpt lat="44.59439" lon="6.8517">
        <ele>1917</ele>
        <time>2020-02-17T08:05:24.000Z</time>
      </trkpt>
      <trkpt lat="44.59438" lon="6.85174">
        <ele>1917</ele>
        <time>2020-02-17T08:05:27.000Z</time>
      </trkpt>
      <trkpt lat="44.59436" lon="6.85178">
        <ele>1917</ele>
        <time>2020-02-17T08:05:30.000Z</time>
      </trkpt>
      <trkpt lat="44.59436" lon="6.8518">
        <ele>1917</ele>
        <time>2020-02-17T08:05:31.000Z</time>
      </trkpt>
      <trkpt lat="44.59432" lon="6.85193">
        <ele>1917</ele>
        <time>2020-02-17T08:05:41.000Z</time>
      </trkpt>
      <trkpt lat="44.59431" lon="6.85195">
        <ele>1917</ele>
        <time>2020-02-17T08:05:43.000Z</time>
      </trkpt>
      <trkpt lat="44.59429" lon="6.85198">
        <ele>1917</ele>
        <time>2020-02-17T08:05:45.000Z</time>
      </trkpt>
      <trkpt lat="44.59428" lon="6.85199">
        <ele>1917</ele>
        <time>2020-02-17T08:05:46.000Z</time>
      </trkpt>
      <trkpt lat="44.59424" lon="6.85208">
        <ele>1917</ele>
        <time>2020-02-17T08:05:55.000Z</time>
      </trkpt>
      <trkpt lat="44.59423" lon="6.8521">
        <ele>1917</ele>
        <time>2020-02-17T08:05:57.000Z</time>
      </trkpt>
      <trkpt lat="44.59419" lon="6.85215">
        <ele>1917</ele>
        <time>2020-02-17T08:06:03.000Z</time>
      </trkpt>
      <trkpt lat="44.59408" lon="6.85227">
        <ele>1915</ele>
        <time>2020-02-17T08:06:13.000Z</time>
      </trkpt>
      <trkpt lat="44.59402" lon="6.85234">
        <ele>1915</ele>
        <time>2020-02-17T08:06:20.000Z</time>
      </trkpt>
      <trkpt lat="44.59401" lon="6.85236">
        <ele>1915</ele>
        <time>2020-02-17T08:06:23.000Z</time>
      </trkpt>
      <trkpt lat="44.594" lon="6.85237">
        <ele>1915</ele>
        <time>2020-02-17T08:06:25.000Z</time>
      </trkpt>
      <trkpt lat="44.59396" lon="6.85241">
        <ele>1916</ele>
        <time>2020-02-17T08:06:32.000Z</time>
      </trkpt>
      <trkpt lat="44.59396" lon="6.85242">
        <ele>1916</ele>
        <time>2020-02-17T08:06:34.000Z</time>
      </trkpt>
      <trkpt lat="44.59391" lon="6.85247">
        <ele>1916</ele>
        <time>2020-02-17T08:06:41.000Z</time>
      </trkpt>
      <trkpt lat="44.59389" lon="6.85249">
        <ele>1916</ele>
        <time>2020-02-17T08:06:43.000Z</time>
      </trkpt>
      <trkpt lat="44.59388" lon="6.85251">
        <ele>1919</ele>
        <time>2020-02-17T08:06:45.000Z</time>
      </trkpt>
      <trkpt lat="44.59386" lon="6.85255">
        <ele>1920</ele>
        <time>2020-02-17T08:06:49.000Z</time>
      </trkpt>
      <trkpt lat="44.59384" lon="6.8526">
        <ele>1920</ele>
        <time>2020-02-17T08:06:56.000Z</time>
      </trkpt>
      <trkpt lat="44.59383" lon="6.8526">
        <ele>1920</ele>
        <time>2020-02-17T08:06:57.000Z</time>
      </trkpt>
      <trkpt lat="44.59382" lon="6.85262">
        <ele>1920</ele>
        <time>2020-02-17T08:06:59.000Z</time>
      </trkpt>
      <trkpt lat="44.59381" lon="6.85264">
        <ele>1920</ele>
        <time>2020-02-17T08:07:01.000Z</time>
      </trkpt>
      <trkpt lat="44.59379" lon="6.85269">
        <ele>1920</ele>
        <time>2020-02-17T08:07:07.000Z</time>
      </trkpt>
      <trkpt lat="44.59378" lon="6.85271">
        <ele>1920</ele>
        <time>2020-02-17T08:07:08.000Z</time>
      </trkpt>
      <trkpt lat="44.59377" lon="6.85272">
        <ele>1920</ele>
        <time>2020-02-17T08:07:09.000Z</time>
      </trkpt>
      <trkpt lat="44.59377" lon="6.85273">
        <ele>1921</ele>
        <time>2020-02-17T08:07:11.000Z</time>
      </trkpt>
      <trkpt lat="44.59377" lon="6.85274">
        <ele>1921</ele>
        <time>2020-02-17T08:07:12.000Z</time>
      </trkpt>
      <trkpt lat="44.59377" lon="6.85274">
        <ele>1921</ele>
        <time>2020-02-17T08:07:13.000Z</time>
      </trkpt>
      <trkpt lat="44.59374" lon="6.85278">
        <ele>1921</ele>
        <time>2020-02-17T08:07:21.000Z</time>
      </trkpt>
      <trkpt lat="44.59373" lon="6.85282">
        <ele>1921</ele>
        <time>2020-02-17T08:07:25.000Z</time>
      </trkpt>
      <trkpt lat="44.59372" lon="6.85285">
        <ele>1921</ele>
        <time>2020-02-17T08:07:29.000Z</time>
      </trkpt>
      <trkpt lat="44.59369" lon="6.85304">
        <ele>1922</ele>
        <time>2020-02-17T08:07:44.000Z</time>
      </trkpt>
      <trkpt lat="44.59369" lon="6.85307">
        <ele>1922</ele>
        <time>2020-02-17T08:07:46.000Z</time>
      </trkpt>
      <trkpt lat="44.59364" lon="6.85315">
        <ele>1923</ele>
        <time>2020-02-17T08:07:56.000Z</time>
      </trkpt>
      <trkpt lat="44.59362" lon="6.85323">
        <ele>1923</ele>
        <time>2020-02-17T08:08:05.000Z</time>
      </trkpt>
      <trkpt lat="44.59361" lon="6.85324">
        <ele>1923</ele>
        <time>2020-02-17T08:08:06.000Z</time>
      </trkpt>
      <trkpt lat="44.59358" lon="6.8533">
        <ele>1923</ele>
        <time>2020-02-17T08:08:14.000Z</time>
      </trkpt>
      <trkpt lat="44.59357" lon="6.85332">
        <ele>1923</ele>
        <time>2020-02-17T08:08:16.000Z</time>
      </trkpt>
      <trkpt lat="44.59357" lon="6.85333">
        <ele>1923</ele>
        <time>2020-02-17T08:08:17.000Z</time>
      </trkpt>
      <trkpt lat="44.59356" lon="6.85334">
        <ele>1927</ele>
        <time>2020-02-17T08:08:18.000Z</time>
      </trkpt>
      <trkpt lat="44.59354" lon="6.85341">
        <ele>1927</ele>
        <time>2020-02-17T08:08:25.000Z</time>
      </trkpt>
      <trkpt lat="44.59354" lon="6.85344">
        <ele>1928</ele>
        <time>2020-02-17T08:08:27.000Z</time>
      </trkpt>
      <trkpt lat="44.59354" lon="6.85345">
        <ele>1928</ele>
        <time>2020-02-17T08:08:28.000Z</time>
      </trkpt>
      <trkpt lat="44.59354" lon="6.85348">
        <ele>1928</ele>
        <time>2020-02-17T08:08:30.000Z</time>
      </trkpt>
      <trkpt lat="44.59351" lon="6.85355">
        <ele>1928</ele>
        <time>2020-02-17T08:08:37.000Z</time>
      </trkpt>
      <trkpt lat="44.5935" lon="6.8536">
        <ele>1928</ele>
        <time>2020-02-17T08:08:42.000Z</time>
      </trkpt>
      <trkpt lat="44.59349" lon="6.85363">
        <ele>1929</ele>
        <time>2020-02-17T08:08:45.000Z</time>
      </trkpt>
      <trkpt lat="44.59347" lon="6.85367">
        <ele>1929</ele>
        <time>2020-02-17T08:08:50.000Z</time>
      </trkpt>
      <trkpt lat="44.59346" lon="6.8537">
        <ele>1929</ele>
        <time>2020-02-17T08:08:53.000Z</time>
      </trkpt>
      <trkpt lat="44.59345" lon="6.85371">
        <ele>1929</ele>
        <time>2020-02-17T08:08:55.000Z</time>
      </trkpt>
      <trkpt lat="44.59345" lon="6.85373">
        <ele>1929</ele>
        <time>2020-02-17T08:08:57.000Z</time>
      </trkpt>
      <trkpt lat="44.59345" lon="6.85374">
        <ele>1929</ele>
        <time>2020-02-17T08:08:58.000Z</time>
      </trkpt>
      <trkpt lat="44.59342" lon="6.85384">
        <ele>1930</ele>
        <time>2020-02-17T08:09:09.000Z</time>
      </trkpt>
      <trkpt lat="44.59341" lon="6.85385">
        <ele>1930</ele>
        <time>2020-02-17T08:09:10.000Z</time>
      </trkpt>
      <trkpt lat="44.59341" lon="6.85387">
        <ele>1930</ele>
        <time>2020-02-17T08:09:11.000Z</time>
      </trkpt>
      <trkpt lat="44.59337" lon="6.85392">
        <ele>1931</ele>
        <time>2020-02-17T08:09:16.000Z</time>
      </trkpt>
      <trkpt lat="44.59336" lon="6.85396">
        <ele>1931</ele>
        <time>2020-02-17T08:09:19.000Z</time>
      </trkpt>
      <trkpt lat="44.59335" lon="6.85399">
        <ele>1931</ele>
        <time>2020-02-17T08:09:22.000Z</time>
      </trkpt>
      <trkpt lat="44.59335" lon="6.85401">
        <ele>1931</ele>
        <time>2020-02-17T08:09:24.000Z</time>
      </trkpt>
      <trkpt lat="44.59335" lon="6.85402">
        <ele>1931</ele>
        <time>2020-02-17T08:09:25.000Z</time>
      </trkpt>
      <trkpt lat="44.59332" lon="6.85406">
        <ele>1932</ele>
        <time>2020-02-17T08:09:29.000Z</time>
      </trkpt>
      <trkpt lat="44.59331" lon="6.85407">
        <ele>1932</ele>
        <time>2020-02-17T08:09:30.000Z</time>
      </trkpt>
      <trkpt lat="44.5933" lon="6.85409">
        <ele>1932</ele>
        <time>2020-02-17T08:09:32.000Z</time>
      </trkpt>
      <trkpt lat="44.59327" lon="6.85415">
        <ele>1933</ele>
        <time>2020-02-17T08:09:40.000Z</time>
      </trkpt>
      <trkpt lat="44.59327" lon="6.8542">
        <ele>1935</ele>
        <time>2020-02-17T08:09:45.000Z</time>
      </trkpt>
      <trkpt lat="44.59326" lon="6.85422">
        <ele>1935</ele>
        <time>2020-02-17T08:09:47.000Z</time>
      </trkpt>
      <trkpt lat="44.59325" lon="6.85423">
        <ele>1936</ele>
        <time>2020-02-17T08:09:48.000Z</time>
      </trkpt>
      <trkpt lat="44.59325" lon="6.85424">
        <ele>1936</ele>
        <time>2020-02-17T08:09:49.000Z</time>
      </trkpt>
      <trkpt lat="44.59325" lon="6.85425">
        <ele>1936</ele>
        <time>2020-02-17T08:09:50.000Z</time>
      </trkpt>
      <trkpt lat="44.59324" lon="6.85427">
        <ele>1937</ele>
        <time>2020-02-17T08:09:52.000Z</time>
      </trkpt>
      <trkpt lat="44.59325" lon="6.85437">
        <ele>1938</ele>
        <time>2020-02-17T08:10:01.000Z</time>
      </trkpt>
      <trkpt lat="44.59325" lon="6.85438">
        <ele>1938</ele>
        <time>2020-02-17T08:10:02.000Z</time>
      </trkpt>
      <trkpt lat="44.59317" lon="6.85447">
        <ele>1939</ele>
        <time>2020-02-17T08:10:15.000Z</time>
      </trkpt>
      <trkpt lat="44.59311" lon="6.85457">
        <ele>1941</ele>
        <time>2020-02-17T08:10:28.000Z</time>
      </trkpt>
      <trkpt lat="44.59307" lon="6.85465">
        <ele>1941</ele>
        <time>2020-02-17T08:10:35.000Z</time>
      </trkpt>
      <trkpt lat="44.59306" lon="6.85469">
        <ele>1941</ele>
        <time>2020-02-17T08:10:41.000Z</time>
      </trkpt>
      <trkpt lat="44.59304" lon="6.85475">
        <ele>1942</ele>
        <time>2020-02-17T08:10:48.000Z</time>
      </trkpt>
      <trkpt lat="44.59304" lon="6.85483">
        <ele>1942</ele>
        <time>2020-02-17T08:10:56.000Z</time>
      </trkpt>
      <trkpt lat="44.59304" lon="6.85485">
        <ele>1942</ele>
        <time>2020-02-17T08:10:58.000Z</time>
      </trkpt>
      <trkpt lat="44.59303" lon="6.85489">
        <ele>1943</ele>
        <time>2020-02-17T08:11:02.000Z</time>
      </trkpt>
      <trkpt lat="44.59303" lon="6.85496">
        <ele>1943</ele>
        <time>2020-02-17T08:11:10.000Z</time>
      </trkpt>
      <trkpt lat="44.59303" lon="6.85503">
        <ele>1947</ele>
        <time>2020-02-17T08:11:17.000Z</time>
      </trkpt>
      <trkpt lat="44.59301" lon="6.85511">
        <ele>1948</ele>
        <time>2020-02-17T08:11:25.000Z</time>
      </trkpt>
      <trkpt lat="44.59289" lon="6.85514">
        <ele>1950</ele>
        <time>2020-02-17T08:11:35.000Z</time>
      </trkpt>
      <trkpt lat="44.59284" lon="6.85513">
        <ele>1950</ele>
        <time>2020-02-17T08:11:44.000Z</time>
      </trkpt>
      <trkpt lat="44.59285" lon="6.85511">
        <ele>1950</ele>
        <time>2020-02-17T08:11:48.000Z</time>
      </trkpt>
      <trkpt lat="44.59288" lon="6.85511">
        <ele>1950</ele>
        <time>2020-02-17T08:11:53.000Z</time>
      </trkpt>
      <trkpt lat="44.5929" lon="6.85511">
        <ele>1949</ele>
        <time>2020-02-17T08:11:58.000Z</time>
      </trkpt>
      <trkpt lat="44.59289" lon="6.85511">
        <ele>1950</ele>
        <time>2020-02-17T08:12:01.000Z</time>
      </trkpt>
      <trkpt lat="44.59287" lon="6.85512">
        <ele>1950</ele>
        <time>2020-02-17T08:12:07.000Z</time>
      </trkpt>
      <trkpt lat="44.59286" lon="6.85511">
        <ele>1950</ele>
        <time>2020-02-17T08:12:12.000Z</time>
      </trkpt>
      <trkpt lat="44.59286" lon="6.85511">
        <ele>1950</ele>
        <time>2020-02-17T08:12:13.000Z</time>
      </trkpt>
      <trkpt lat="44.59288" lon="6.85511">
        <ele>1950</ele>
        <time>2020-02-17T08:12:17.000Z</time>
      </trkpt>
      <trkpt lat="44.59289" lon="6.85511">
        <ele>1950</ele>
        <time>2020-02-17T08:12:25.000Z</time>
      </trkpt>
      <trkpt lat="44.59292" lon="6.85509">
        <ele>1949</ele>
        <time>2020-02-17T08:12:32.000Z</time>
      </trkpt>
      <trkpt lat="44.59292" lon="6.85509">
        <ele>1949</ele>
        <time>2020-02-17T08:12:35.000Z</time>
      </trkpt>
      <trkpt lat="44.59292" lon="6.85509">
        <ele>1949</ele>
        <time>2020-02-17T08:12:37.000Z</time>
      </trkpt>
      <trkpt lat="44.5929" lon="6.85511">
        <ele>1949</ele>
        <time>2020-02-17T08:12:39.000Z</time>
      </trkpt>
      <trkpt lat="44.5929" lon="6.85513">
        <ele>1949</ele>
        <time>2020-02-17T08:12:43.000Z</time>
      </trkpt>
      <trkpt lat="44.5929" lon="6.85513">
        <ele>1949</ele>
        <time>2020-02-17T08:12:48.000Z</time>
      </trkpt>
      <trkpt lat="44.59289" lon="6.85512">
        <ele>1950</ele>
        <time>2020-02-17T08:12:50.000Z</time>
      </trkpt>
      <trkpt lat="44.59288" lon="6.85514">
        <ele>1950</ele>
        <time>2020-02-17T08:12:52.000Z</time>
      </trkpt>
      <trkpt lat="44.59286" lon="6.85512">
        <ele>1950</ele>
        <time>2020-02-17T08:13:00.000Z</time>
      </trkpt>
      <trkpt lat="44.59288" lon="6.85511">
        <ele>1950</ele>
        <time>2020-02-17T08:13:03.000Z</time>
      </trkpt>
      <trkpt lat="44.5929" lon="6.85511">
        <ele>1949</ele>
        <time>2020-02-17T08:13:07.000Z</time>
      </trkpt>
      <trkpt lat="44.59286" lon="6.85509">
        <ele>1950</ele>
        <time>2020-02-17T08:13:18.000Z</time>
      </trkpt>
      <trkpt lat="44.59286" lon="6.85509">
        <ele>1950</ele>
        <time>2020-02-17T08:13:22.000Z</time>
      </trkpt>
      <trkpt lat="44.59287" lon="6.85508">
        <ele>1950</ele>
        <time>2020-02-17T08:13:27.000Z</time>
      </trkpt>
      <trkpt lat="44.59284" lon="6.85508">
        <ele>1950</ele>
        <time>2020-02-17T08:13:32.000Z</time>
      </trkpt>
      <trkpt lat="44.5928" lon="6.85511">
        <ele>1951</ele>
        <time>2020-02-17T08:13:35.000Z</time>
      </trkpt>
      <trkpt lat="44.59281" lon="6.85511">
        <ele>1951</ele>
        <time>2020-02-17T08:13:37.000Z</time>
      </trkpt>
      <trkpt lat="44.59282" lon="6.8551">
        <ele>1950</ele>
        <time>2020-02-17T08:13:38.000Z</time>
      </trkpt>
      <trkpt lat="44.59283" lon="6.85509">
        <ele>1950</ele>
        <time>2020-02-17T08:13:39.000Z</time>
      </trkpt>
      <trkpt lat="44.59285" lon="6.85506">
        <ele>1950</ele>
        <time>2020-02-17T08:13:41.000Z</time>
      </trkpt>
      <trkpt lat="44.59285" lon="6.85507">
        <ele>1950</ele>
        <time>2020-02-17T08:13:43.000Z</time>
      </trkpt>
      <trkpt lat="44.59288" lon="6.85508">
        <ele>1950</ele>
        <time>2020-02-17T08:13:48.000Z</time>
      </trkpt>
      <trkpt lat="44.59288" lon="6.85509">
        <ele>1950</ele>
        <time>2020-02-17T08:13:49.000Z</time>
      </trkpt>
      <trkpt lat="44.59288" lon="6.85509">
        <ele>1950</ele>
        <time>2020-02-17T08:13:50.000Z</time>
      </trkpt>
      <trkpt lat="44.59288" lon="6.8551">
        <ele>1950</ele>
        <time>2020-02-17T08:14:04.000Z</time>
      </trkpt>
      <trkpt lat="44.5929" lon="6.85512">
        <ele>1949</ele>
        <time>2020-02-17T08:14:14.000Z</time>
      </trkpt>
      <trkpt lat="44.5929" lon="6.85512">
        <ele>1949</ele>
        <time>2020-02-17T08:14:15.000Z</time>
      </trkpt>
      <trkpt lat="44.59289" lon="6.8551">
        <ele>1950</ele>
        <time>2020-02-17T08:14:25.000Z</time>
      </trkpt>
      <trkpt lat="44.59288" lon="6.85511">
        <ele>1950</ele>
        <time>2020-02-17T08:14:31.000Z</time>
      </trkpt>
      <trkpt lat="44.59285" lon="6.85512">
        <ele>1950</ele>
        <time>2020-02-17T08:14:37.000Z</time>
      </trkpt>
      <trkpt lat="44.59276" lon="6.85516">
        <ele>1951</ele>
        <time>2020-02-17T08:14:41.000Z</time>
      </trkpt>
      <trkpt lat="44.59276" lon="6.85517">
        <ele>1951</ele>
        <time>2020-02-17T08:14:43.000Z</time>
      </trkpt>
      <trkpt lat="44.59276" lon="6.85516">
        <ele>1951</ele>
        <time>2020-02-17T08:14:44.000Z</time>
      </trkpt>
      <trkpt lat="44.59277" lon="6.85515">
        <ele>1951</ele>
        <time>2020-02-17T08:14:46.000Z</time>
      </trkpt>
      <trkpt lat="44.59277" lon="6.85515">
        <ele>1951</ele>
        <time>2020-02-17T08:14:47.000Z</time>
      </trkpt>
      <trkpt lat="44.59277" lon="6.85515">
        <ele>1951</ele>
        <time>2020-02-17T08:14:48.000Z</time>
      </trkpt>
      <trkpt lat="44.59276" lon="6.85516">
        <ele>1951</ele>
        <time>2020-02-17T08:14:49.000Z</time>
      </trkpt>
      <trkpt lat="44.59276" lon="6.85517">
        <ele>1951</ele>
        <time>2020-02-17T08:14:50.000Z</time>
      </trkpt>
      <trkpt lat="44.59276" lon="6.85517">
        <ele>1951</ele>
        <time>2020-02-17T08:14:51.000Z</time>
      </trkpt>
      <trkpt lat="44.59269" lon="6.85523">
        <ele>1952</ele>
        <time>2020-02-17T08:14:53.000Z</time>
      </trkpt>
      <trkpt lat="44.59268" lon="6.85525">
        <ele>1952</ele>
        <time>2020-02-17T08:14:54.000Z</time>
      </trkpt>
      <trkpt lat="44.59273" lon="6.85524">
        <ele>1951</ele>
        <time>2020-02-17T08:14:58.000Z</time>
      </trkpt>
      <trkpt lat="44.5927" lon="6.85529">
        <ele>1952</ele>
        <time>2020-02-17T08:14:59.000Z</time>
      </trkpt>
      <trkpt lat="44.59275" lon="6.85527">
        <ele>1951</ele>
        <time>2020-02-17T08:15:03.000Z</time>
      </trkpt>
      <trkpt lat="44.59276" lon="6.85528">
        <ele>1951</ele>
        <time>2020-02-17T08:15:06.000Z</time>
      </trkpt>
      <trkpt lat="44.59277" lon="6.8553">
        <ele>1951</ele>
        <time>2020-02-17T08:15:10.000Z</time>
      </trkpt>
      <trkpt lat="44.59276" lon="6.85531">
        <ele>1951</ele>
        <time>2020-02-17T08:15:11.000Z</time>
      </trkpt>
      <trkpt lat="44.59281" lon="6.85526">
        <ele>1951</ele>
        <time>2020-02-17T08:15:14.000Z</time>
      </trkpt>
      <trkpt lat="44.59283" lon="6.85524">
        <ele>1950</ele>
        <time>2020-02-17T08:15:16.000Z</time>
      </trkpt>
      <trkpt lat="44.59286" lon="6.85521">
        <ele>1950</ele>
        <time>2020-02-17T08:15:18.000Z</time>
      </trkpt>
      <trkpt lat="44.59283" lon="6.85518">
        <ele>1950</ele>
        <time>2020-02-17T08:15:24.000Z</time>
      </trkpt>
      <trkpt lat="44.59283" lon="6.85518">
        <ele>1950</ele>
        <time>2020-02-17T08:15:25.000Z</time>
      </trkpt>
      <trkpt lat="44.59282" lon="6.85518">
        <ele>1950</ele>
        <time>2020-02-17T08:15:28.000Z</time>
      </trkpt>
      <trkpt lat="44.59285" lon="6.85507">
        <ele>1950</ele>
        <time>2020-02-17T08:15:46.000Z</time>
      </trkpt>
      <trkpt lat="44.59287" lon="6.85511">
        <ele>1950</ele>
        <time>2020-02-17T08:15:50.000Z</time>
      </trkpt>
      <trkpt lat="44.59287" lon="6.85513">
        <ele>1950</ele>
        <time>2020-02-17T08:15:53.000Z</time>
      </trkpt>
      <trkpt lat="44.59286" lon="6.85514">
        <ele>1950</ele>
        <time>2020-02-17T08:15:54.000Z</time>
      </trkpt>
      <trkpt lat="44.59276" lon="6.85523">
        <ele>1951</ele>
        <time>2020-02-17T08:16:01.000Z</time>
      </trkpt>
      <trkpt lat="44.59279" lon="6.85521">
        <ele>1951</ele>
        <time>2020-02-17T08:16:04.000Z</time>
      </trkpt>
      <trkpt lat="44.59281" lon="6.8552">
        <ele>1951</ele>
        <time>2020-02-17T08:16:06.000Z</time>
      </trkpt>
      <trkpt lat="44.59282" lon="6.85518">
        <ele>1950</ele>
        <time>2020-02-17T08:16:10.000Z</time>
      </trkpt>
      <trkpt lat="44.59283" lon="6.85518">
        <ele>1950</ele>
        <time>2020-02-17T08:16:11.000Z</time>
      </trkpt>
      <trkpt lat="44.59283" lon="6.85518">
        <ele>1950</ele>
        <time>2020-02-17T08:16:13.000Z</time>
      </trkpt>
      <trkpt lat="44.59283" lon="6.85519">
        <ele>1950</ele>
        <time>2020-02-17T08:16:14.000Z</time>
      </trkpt>
      <trkpt lat="44.59284" lon="6.8552">
        <ele>1950</ele>
        <time>2020-02-17T08:16:16.000Z</time>
      </trkpt>
      <trkpt lat="44.59285" lon="6.8552">
        <ele>1950</ele>
        <time>2020-02-17T08:16:18.000Z</time>
      </trkpt>
      <trkpt lat="44.59283" lon="6.85523">
        <ele>1950</ele>
        <time>2020-02-17T08:16:20.000Z</time>
      </trkpt>
      <trkpt lat="44.59283" lon="6.85525">
        <ele>1950</ele>
        <time>2020-02-17T08:16:22.000Z</time>
      </trkpt>
      <trkpt lat="44.59283" lon="6.85526">
        <ele>1950</ele>
        <time>2020-02-17T08:16:23.000Z</time>
      </trkpt>
      <trkpt lat="44.59283" lon="6.85527">
        <ele>1950</ele>
        <time>2020-02-17T08:16:25.000Z</time>
      </trkpt>
      <trkpt lat="44.59281" lon="6.8553">
        <ele>1951</ele>
        <time>2020-02-17T08:16:26.000Z</time>
      </trkpt>
      <trkpt lat="44.59279" lon="6.85534">
        <ele>1951</ele>
        <time>2020-02-17T08:16:27.000Z</time>
      </trkpt>
      <trkpt lat="44.59275" lon="6.85538">
        <ele>1951</ele>
        <time>2020-02-17T08:16:30.000Z</time>
      </trkpt>
      <trkpt lat="44.59275" lon="6.85539">
        <ele>1951</ele>
        <time>2020-02-17T08:16:31.000Z</time>
      </trkpt>
      <trkpt lat="44.59275" lon="6.85541">
        <ele>1951</ele>
        <time>2020-02-17T08:16:32.000Z</time>
      </trkpt>
      <trkpt lat="44.59274" lon="6.85543">
        <ele>1951</ele>
        <time>2020-02-17T08:16:33.000Z</time>
      </trkpt>
      <trkpt lat="44.59274" lon="6.85544">
        <ele>1951</ele>
        <time>2020-02-17T08:16:34.000Z</time>
      </trkpt>
      <trkpt lat="44.59273" lon="6.85545">
        <ele>1951</ele>
        <time>2020-02-17T08:16:35.000Z</time>
      </trkpt>
      <trkpt lat="44.59279" lon="6.85548">
        <ele>1951</ele>
        <time>2020-02-17T08:16:44.000Z</time>
      </trkpt>
      <trkpt lat="44.59278" lon="6.85549">
        <ele>1951</ele>
        <time>2020-02-17T08:16:48.000Z</time>
      </trkpt>
      <trkpt lat="44.59276" lon="6.8555">
        <ele>1951</ele>
        <time>2020-02-17T08:16:51.000Z</time>
      </trkpt>
      <trkpt lat="44.59276" lon="6.8555">
        <ele>1951</ele>
        <time>2020-02-17T08:16:53.000Z</time>
      </trkpt>
      <trkpt lat="44.59276" lon="6.85553">
        <ele>1952</ele>
        <time>2020-02-17T08:16:58.000Z</time>
      </trkpt>
      <trkpt lat="44.59276" lon="6.85554">
        <ele>1952</ele>
        <time>2020-02-17T08:16:59.000Z</time>
      </trkpt>
      <trkpt lat="44.59275" lon="6.85555">
        <ele>1952</ele>
        <time>2020-02-17T08:17:01.000Z</time>
      </trkpt>
      <trkpt lat="44.59274" lon="6.85557">
        <ele>1952</ele>
        <time>2020-02-17T08:17:02.000Z</time>
      </trkpt>
      <trkpt lat="44.59274" lon="6.85557">
        <ele>1952</ele>
        <time>2020-02-17T08:17:03.000Z</time>
      </trkpt>
      <trkpt lat="44.59274" lon="6.85558">
        <ele>1952</ele>
        <time>2020-02-17T08:17:04.000Z</time>
      </trkpt>
      <trkpt lat="44.59271" lon="6.85564">
        <ele>1953</ele>
        <time>2020-02-17T08:17:10.000Z</time>
      </trkpt>
      <trkpt lat="44.59271" lon="6.85565">
        <ele>1953</ele>
        <time>2020-02-17T08:17:11.000Z</time>
      </trkpt>
      <trkpt lat="44.5927" lon="6.85566">
        <ele>1953</ele>
        <time>2020-02-17T08:17:12.000Z</time>
      </trkpt>
      <trkpt lat="44.59269" lon="6.8557">
        <ele>1953</ele>
        <time>2020-02-17T08:17:17.000Z</time>
      </trkpt>
      <trkpt lat="44.59268" lon="6.85572">
        <ele>1954</ele>
        <time>2020-02-17T08:17:20.000Z</time>
      </trkpt>
      <trkpt lat="44.59264" lon="6.85575">
        <ele>1955</ele>
        <time>2020-02-17T08:17:24.000Z</time>
      </trkpt>
      <trkpt lat="44.59263" lon="6.85575">
        <ele>1955</ele>
        <time>2020-02-17T08:17:25.000Z</time>
      </trkpt>
      <trkpt lat="44.5926" lon="6.8558">
        <ele>1956</ele>
        <time>2020-02-17T08:17:31.000Z</time>
      </trkpt>
      <trkpt lat="44.5926" lon="6.85583">
        <ele>1956</ele>
        <time>2020-02-17T08:17:36.000Z</time>
      </trkpt>
      <trkpt lat="44.5926" lon="6.85584">
        <ele>1957</ele>
        <time>2020-02-17T08:17:37.000Z</time>
      </trkpt>
      <trkpt lat="44.5926" lon="6.85587">
        <ele>1957</ele>
        <time>2020-02-17T08:17:40.000Z</time>
      </trkpt>
      <trkpt lat="44.59259" lon="6.85589">
        <ele>1957</ele>
        <time>2020-02-17T08:17:41.000Z</time>
      </trkpt>
      <trkpt lat="44.59259" lon="6.8559">
        <ele>1957</ele>
        <time>2020-02-17T08:17:42.000Z</time>
      </trkpt>
      <trkpt lat="44.59259" lon="6.85591">
        <ele>1957</ele>
        <time>2020-02-17T08:17:43.000Z</time>
      </trkpt>
      <trkpt lat="44.5926" lon="6.85594">
        <ele>1957</ele>
        <time>2020-02-17T08:17:46.000Z</time>
      </trkpt>
      <trkpt lat="44.59261" lon="6.856">
        <ele>1956</ele>
        <time>2020-02-17T08:17:53.000Z</time>
      </trkpt>
      <trkpt lat="44.59255" lon="6.85607">
        <ele>1956</ele>
        <time>2020-02-17T08:18:04.000Z</time>
      </trkpt>
      <trkpt lat="44.5925" lon="6.8561">
        <ele>1969</ele>
        <time>2020-02-17T08:18:09.000Z</time>
      </trkpt>
      <trkpt lat="44.59245" lon="6.85614">
        <ele>1970</ele>
        <time>2020-02-17T08:18:14.000Z</time>
      </trkpt>
      <trkpt lat="44.59244" lon="6.85614">
        <ele>1970</ele>
        <time>2020-02-17T08:18:15.000Z</time>
      </trkpt>
      <trkpt lat="44.59243" lon="6.85615">
        <ele>1970</ele>
        <time>2020-02-17T08:18:17.000Z</time>
      </trkpt>
      <trkpt lat="44.59242" lon="6.85615">
        <ele>1970</ele>
        <time>2020-02-17T08:18:18.000Z</time>
      </trkpt>
      <trkpt lat="44.59241" lon="6.85617">
        <ele>1970</ele>
        <time>2020-02-17T08:18:21.000Z</time>
      </trkpt>
      <trkpt lat="44.5924" lon="6.85617">
        <ele>1971</ele>
        <time>2020-02-17T08:18:22.000Z</time>
      </trkpt>
      <trkpt lat="44.59239" lon="6.85618">
        <ele>1971</ele>
        <time>2020-02-17T08:18:23.000Z</time>
      </trkpt>
      <trkpt lat="44.59237" lon="6.8562">
        <ele>1971</ele>
        <time>2020-02-17T08:18:26.000Z</time>
      </trkpt>
      <trkpt lat="44.59236" lon="6.85622">
        <ele>1971</ele>
        <time>2020-02-17T08:18:28.000Z</time>
      </trkpt>
      <trkpt lat="44.59231" lon="6.85623">
        <ele>1972</ele>
        <time>2020-02-17T08:18:33.000Z</time>
      </trkpt>
      <trkpt lat="44.5922" lon="6.85631">
        <ele>1974</ele>
        <time>2020-02-17T08:18:44.000Z</time>
      </trkpt>
      <trkpt lat="44.59219" lon="6.85632">
        <ele>1974</ele>
        <time>2020-02-17T08:18:46.000Z</time>
      </trkpt>
      <trkpt lat="44.59219" lon="6.85633">
        <ele>1974</ele>
        <time>2020-02-17T08:18:47.000Z</time>
      </trkpt>
      <trkpt lat="44.59218" lon="6.85639">
        <ele>1974</ele>
        <time>2020-02-17T08:18:52.000Z</time>
      </trkpt>
      <trkpt lat="44.59218" lon="6.85642">
        <ele>1974</ele>
        <time>2020-02-17T08:18:56.000Z</time>
      </trkpt>
      <trkpt lat="44.59217" lon="6.85645">
        <ele>1974</ele>
        <time>2020-02-17T08:19:01.000Z</time>
      </trkpt>
      <trkpt lat="44.59216" lon="6.85646">
        <ele>1974</ele>
        <time>2020-02-17T08:19:03.000Z</time>
      </trkpt>
      <trkpt lat="44.59215" lon="6.85647">
        <ele>1974</ele>
        <time>2020-02-17T08:19:04.000Z</time>
      </trkpt>
      <trkpt lat="44.59215" lon="6.85652">
        <ele>1974</ele>
        <time>2020-02-17T08:19:09.000Z</time>
      </trkpt>
      <trkpt lat="44.59214" lon="6.85654">
        <ele>1974</ele>
        <time>2020-02-17T08:19:11.000Z</time>
      </trkpt>
      <trkpt lat="44.59214" lon="6.85655">
        <ele>1974</ele>
        <time>2020-02-17T08:19:12.000Z</time>
      </trkpt>
      <trkpt lat="44.59214" lon="6.85655">
        <ele>1974</ele>
        <time>2020-02-17T08:19:13.000Z</time>
      </trkpt>
      <trkpt lat="44.59213" lon="6.85656">
        <ele>1975</ele>
        <time>2020-02-17T08:19:14.000Z</time>
      </trkpt>
      <trkpt lat="44.59207" lon="6.85663">
        <ele>1976</ele>
        <time>2020-02-17T08:19:21.000Z</time>
      </trkpt>
      <trkpt lat="44.59205" lon="6.85669">
        <ele>1978</ele>
        <time>2020-02-17T08:19:32.000Z</time>
      </trkpt>
      <trkpt lat="44.592" lon="6.85674">
        <ele>1979</ele>
        <time>2020-02-17T08:19:42.000Z</time>
      </trkpt>
      <trkpt lat="44.59191" lon="6.85683">
        <ele>1981</ele>
        <time>2020-02-17T08:19:52.000Z</time>
      </trkpt>
      <trkpt lat="44.59189" lon="6.85685">
        <ele>1981</ele>
        <time>2020-02-17T08:19:54.000Z</time>
      </trkpt>
      <trkpt lat="44.59187" lon="6.8569">
        <ele>1981</ele>
        <time>2020-02-17T08:20:00.000Z</time>
      </trkpt>
      <trkpt lat="44.59186" lon="6.85694">
        <ele>1981</ele>
        <time>2020-02-17T08:20:07.000Z</time>
      </trkpt>
      <trkpt lat="44.59183" lon="6.85698">
        <ele>1981</ele>
        <time>2020-02-17T08:20:13.000Z</time>
      </trkpt>
      <trkpt lat="44.59182" lon="6.85704">
        <ele>1981</ele>
        <time>2020-02-17T08:20:19.000Z</time>
      </trkpt>
      <trkpt lat="44.59181" lon="6.85709">
        <ele>1981</ele>
        <time>2020-02-17T08:20:25.000Z</time>
      </trkpt>
      <trkpt lat="44.59182" lon="6.85711">
        <ele>1981</ele>
        <time>2020-02-17T08:20:27.000Z</time>
      </trkpt>
      <trkpt lat="44.59183" lon="6.85715">
        <ele>1981</ele>
        <time>2020-02-17T08:20:33.000Z</time>
      </trkpt>
      <trkpt lat="44.59184" lon="6.85717">
        <ele>1981</ele>
        <time>2020-02-17T08:20:35.000Z</time>
      </trkpt>
      <trkpt lat="44.59183" lon="6.85718">
        <ele>1981</ele>
        <time>2020-02-17T08:20:36.000Z</time>
      </trkpt>
      <trkpt lat="44.59184" lon="6.8572">
        <ele>1981</ele>
        <time>2020-02-17T08:20:38.000Z</time>
      </trkpt>
      <trkpt lat="44.59184" lon="6.85726">
        <ele>1981</ele>
        <time>2020-02-17T08:20:45.000Z</time>
      </trkpt>
      <trkpt lat="44.59183" lon="6.85729">
        <ele>1982</ele>
        <time>2020-02-17T08:20:49.000Z</time>
      </trkpt>
      <trkpt lat="44.59181" lon="6.8573">
        <ele>1982</ele>
        <time>2020-02-17T08:20:51.000Z</time>
      </trkpt>
      <trkpt lat="44.59181" lon="6.8573">
        <ele>1982</ele>
        <time>2020-02-17T08:20:52.000Z</time>
      </trkpt>
      <trkpt lat="44.5918" lon="6.8573">
        <ele>1982</ele>
        <time>2020-02-17T08:20:53.000Z</time>
      </trkpt>
      <trkpt lat="44.59177" lon="6.85733">
        <ele>1983</ele>
        <time>2020-02-17T08:20:58.000Z</time>
      </trkpt>
      <trkpt lat="44.59174" lon="6.85734">
        <ele>1983</ele>
        <time>2020-02-17T08:21:01.000Z</time>
      </trkpt>
      <trkpt lat="44.59173" lon="6.85733">
        <ele>1983</ele>
        <time>2020-02-17T08:21:02.000Z</time>
      </trkpt>
      <trkpt lat="44.59169" lon="6.85731">
        <ele>1983</ele>
        <time>2020-02-17T08:21:03.000Z</time>
      </trkpt>
      <trkpt lat="44.59161" lon="6.85721">
        <ele>1999</ele>
        <time>2020-02-17T08:21:12.000Z</time>
      </trkpt>
      <trkpt lat="44.59158" lon="6.8571">
        <ele>2000</ele>
        <time>2020-02-17T08:21:22.000Z</time>
      </trkpt>
      <trkpt lat="44.59158" lon="6.85707">
        <ele>2000</ele>
        <time>2020-02-17T08:21:24.000Z</time>
      </trkpt>
      <trkpt lat="44.59158" lon="6.85705">
        <ele>2000</ele>
        <time>2020-02-17T08:21:27.000Z</time>
      </trkpt>
      <trkpt lat="44.59159" lon="6.85703">
        <ele>2000</ele>
        <time>2020-02-17T08:21:30.000Z</time>
      </trkpt>
      <trkpt lat="44.59156" lon="6.85691">
        <ele>1999</ele>
        <time>2020-02-17T08:21:37.000Z</time>
      </trkpt>
      <trkpt lat="44.59157" lon="6.85689">
        <ele>1998</ele>
        <time>2020-02-17T08:21:39.000Z</time>
      </trkpt>
      <trkpt lat="44.59157" lon="6.8568">
        <ele>1996</ele>
        <time>2020-02-17T08:21:45.000Z</time>
      </trkpt>
      <trkpt lat="44.59161" lon="6.85675">
        <ele>1994</ele>
        <time>2020-02-17T08:21:48.000Z</time>
      </trkpt>
      <trkpt lat="44.5916" lon="6.85669">
        <ele>1992</ele>
        <time>2020-02-17T08:21:52.000Z</time>
      </trkpt>
      <trkpt lat="44.5916" lon="6.85667">
        <ele>1991</ele>
        <time>2020-02-17T08:21:54.000Z</time>
      </trkpt>
      <trkpt lat="44.59159" lon="6.85664">
        <ele>1992</ele>
        <time>2020-02-17T08:21:56.000Z</time>
      </trkpt>
      <trkpt lat="44.59159" lon="6.85663">
        <ele>1992</ele>
        <time>2020-02-17T08:21:57.000Z</time>
      </trkpt>
      <trkpt lat="44.59162" lon="6.85659">
        <ele>1992</ele>
        <time>2020-02-17T08:22:01.000Z</time>
      </trkpt>
      <trkpt lat="44.59165" lon="6.85655">
        <ele>1993</ele>
        <time>2020-02-17T08:22:05.000Z</time>
      </trkpt>
      <trkpt lat="44.59165" lon="6.85654">
        <ele>1993</ele>
        <time>2020-02-17T08:22:06.000Z</time>
      </trkpt>
      <trkpt lat="44.59167" lon="6.8565">
        <ele>1983</ele>
        <time>2020-02-17T08:22:11.000Z</time>
      </trkpt>
      <trkpt lat="44.59169" lon="6.85648">
        <ele>1983</ele>
        <time>2020-02-17T08:22:14.000Z</time>
      </trkpt>
      <trkpt lat="44.59173" lon="6.85646">
        <ele>1982</ele>
        <time>2020-02-17T08:22:17.000Z</time>
      </trkpt>
      <trkpt lat="44.59174" lon="6.85644">
        <ele>1982</ele>
        <time>2020-02-17T08:22:18.000Z</time>
      </trkpt>
      <trkpt lat="44.59176" lon="6.85642">
        <ele>1981</ele>
        <time>2020-02-17T08:22:21.000Z</time>
      </trkpt>
      <trkpt lat="44.59177" lon="6.85641">
        <ele>1981</ele>
        <time>2020-02-17T08:22:22.000Z</time>
      </trkpt>
      <trkpt lat="44.59179" lon="6.85637">
        <ele>1981</ele>
        <time>2020-02-17T08:22:26.000Z</time>
      </trkpt>
      <trkpt lat="44.5918" lon="6.85636">
        <ele>1981</ele>
        <time>2020-02-17T08:22:27.000Z</time>
      </trkpt>
      <trkpt lat="44.59181" lon="6.85635">
        <ele>1980</ele>
        <time>2020-02-17T08:22:28.000Z</time>
      </trkpt>
      <trkpt lat="44.59183" lon="6.8563">
        <ele>1980</ele>
        <time>2020-02-17T08:22:33.000Z</time>
      </trkpt>
      <trkpt lat="44.59184" lon="6.85629">
        <ele>1980</ele>
        <time>2020-02-17T08:22:34.000Z</time>
      </trkpt>
      <trkpt lat="44.59187" lon="6.85626">
        <ele>1980</ele>
        <time>2020-02-17T08:22:38.000Z</time>
      </trkpt>
      <trkpt lat="44.59188" lon="6.85625">
        <ele>1980</ele>
        <time>2020-02-17T08:22:39.000Z</time>
      </trkpt>
      <trkpt lat="44.59188" lon="6.85623">
        <ele>1980</ele>
        <time>2020-02-17T08:22:42.000Z</time>
      </trkpt>
      <trkpt lat="44.59189" lon="6.85623">
        <ele>1980</ele>
        <time>2020-02-17T08:22:43.000Z</time>
      </trkpt>
      <trkpt lat="44.59188" lon="6.85623">
        <ele>1980</ele>
        <time>2020-02-17T08:22:44.000Z</time>
      </trkpt>
      <trkpt lat="44.59186" lon="6.85623">
        <ele>1980</ele>
        <time>2020-02-17T08:22:49.000Z</time>
      </trkpt>
      <trkpt lat="44.59185" lon="6.85626">
        <ele>1980</ele>
        <time>2020-02-17T08:22:51.000Z</time>
      </trkpt>
      <trkpt lat="44.59188" lon="6.85634">
        <ele>1979</ele>
        <time>2020-02-17T08:22:59.000Z</time>
      </trkpt>
      <trkpt lat="44.59201" lon="6.85634">
        <ele>1977</ele>
        <time>2020-02-17T08:23:02.000Z</time>
      </trkpt>
      <trkpt lat="44.59211" lon="6.85638">
        <ele>1975</ele>
        <time>2020-02-17T08:23:07.000Z</time>
      </trkpt>
      <trkpt lat="44.59202" lon="6.85646">
        <ele>1977</ele>
        <time>2020-02-17T08:23:18.000Z</time>
      </trkpt>
      <trkpt lat="44.59184" lon="6.85649">
        <ele>1981</ele>
        <time>2020-02-17T08:23:27.000Z</time>
      </trkpt>
      <trkpt lat="44.5918" lon="6.85651">
        <ele>1982</ele>
        <time>2020-02-17T08:23:28.000Z</time>
      </trkpt>
      <trkpt lat="44.59172" lon="6.85653">
        <ele>1983</ele>
        <time>2020-02-17T08:23:31.000Z</time>
      </trkpt>
      <trkpt lat="44.59152" lon="6.85663">
        <ele>1994</ele>
        <time>2020-02-17T08:23:39.000Z</time>
      </trkpt>
      <trkpt lat="44.5915" lon="6.85666">
        <ele>1995</ele>
        <time>2020-02-17T08:23:42.000Z</time>
      </trkpt>
      <trkpt lat="44.5914" lon="6.85675">
        <ele>2001</ele>
        <time>2020-02-17T08:23:50.000Z</time>
      </trkpt>
      <trkpt lat="44.59141" lon="6.85677">
        <ele>2001</ele>
        <time>2020-02-17T08:23:54.000Z</time>
      </trkpt>
      <trkpt lat="44.59141" lon="6.85678">
        <ele>2001</ele>
        <time>2020-02-17T08:23:56.000Z</time>
      </trkpt>
      <trkpt lat="44.59141" lon="6.85679">
        <ele>2001</ele>
        <time>2020-02-17T08:23:57.000Z</time>
      </trkpt>
      <trkpt lat="44.59138" lon="6.85684">
        <ele>2002</ele>
        <time>2020-02-17T08:24:03.000Z</time>
      </trkpt>
      <trkpt lat="44.59136" lon="6.85686">
        <ele>2003</ele>
        <time>2020-02-17T08:24:05.000Z</time>
      </trkpt>
      <trkpt lat="44.59138" lon="6.85687">
        <ele>2002</ele>
        <time>2020-02-17T08:24:07.000Z</time>
      </trkpt>
      <trkpt lat="44.59143" lon="6.85686">
        <ele>2001</ele>
        <time>2020-02-17T08:24:09.000Z</time>
      </trkpt>
      <trkpt lat="44.59148" lon="6.85685">
        <ele>2000</ele>
        <time>2020-02-17T08:24:11.000Z</time>
      </trkpt>
      <trkpt lat="44.59156" lon="6.85688">
        <ele>1998</ele>
        <time>2020-02-17T08:24:18.000Z</time>
      </trkpt>
      <trkpt lat="44.59147" lon="6.85695">
        <ele>2001</ele>
        <time>2020-02-17T08:24:23.000Z</time>
      </trkpt>
      <trkpt lat="44.59134" lon="6.85703">
        <ele>2004</ele>
        <time>2020-02-17T08:24:27.000Z</time>
      </trkpt>
      <trkpt lat="44.59129" lon="6.85706">
        <ele>2005</ele>
        <time>2020-02-17T08:24:29.000Z</time>
      </trkpt>
      <trkpt lat="44.59118" lon="6.85714">
        <ele>2008</ele>
        <time>2020-02-17T08:24:36.000Z</time>
      </trkpt>
      <trkpt lat="44.59117" lon="6.85717">
        <ele>2008</ele>
        <time>2020-02-17T08:24:38.000Z</time>
      </trkpt>
      <trkpt lat="44.59117" lon="6.85719">
        <ele>2008</ele>
        <time>2020-02-17T08:24:40.000Z</time>
      </trkpt>
      <trkpt lat="44.59118" lon="6.85721">
        <ele>2008</ele>
        <time>2020-02-17T08:24:45.000Z</time>
      </trkpt>
      <trkpt lat="44.59114" lon="6.85729">
        <ele>2010</ele>
        <time>2020-02-17T08:24:54.000Z</time>
      </trkpt>
      <trkpt lat="44.59112" lon="6.85732">
        <ele>2010</ele>
        <time>2020-02-17T08:24:56.000Z</time>
      </trkpt>
      <trkpt lat="44.59109" lon="6.85735">
        <ele>2011</ele>
        <time>2020-02-17T08:24:58.000Z</time>
      </trkpt>
      <trkpt lat="44.59108" lon="6.85736">
        <ele>2012</ele>
        <time>2020-02-17T08:24:59.000Z</time>
      </trkpt>
      <trkpt lat="44.59104" lon="6.85741">
        <ele>2014</ele>
        <time>2020-02-17T08:25:03.000Z</time>
      </trkpt>
      <trkpt lat="44.591" lon="6.85747">
        <ele>2017</ele>
        <time>2020-02-17T08:25:07.000Z</time>
      </trkpt>
      <trkpt lat="44.59099" lon="6.8575">
        <ele>2017</ele>
        <time>2020-02-17T08:25:09.000Z</time>
      </trkpt>
      <trkpt lat="44.59103" lon="6.85751">
        <ele>2019</ele>
        <time>2020-02-17T08:25:12.000Z</time>
      </trkpt>
      <trkpt lat="44.59106" lon="6.85752">
        <ele>2017</ele>
        <time>2020-02-17T08:25:14.000Z</time>
      </trkpt>
      <trkpt lat="44.59116" lon="6.85753">
        <ele>2014</ele>
        <time>2020-02-17T08:25:17.000Z</time>
      </trkpt>
      <trkpt lat="44.5912" lon="6.85753">
        <ele>2012</ele>
        <time>2020-02-17T08:25:19.000Z</time>
      </trkpt>
      <trkpt lat="44.5912" lon="6.85754">
        <ele>2013</ele>
        <time>2020-02-17T08:25:20.000Z</time>
      </trkpt>
      <trkpt lat="44.59116" lon="6.85759">
        <ele>2014</ele>
        <time>2020-02-17T08:25:23.000Z</time>
      </trkpt>
      <trkpt lat="44.59112" lon="6.85764">
        <ele>2015</ele>
        <time>2020-02-17T08:25:26.000Z</time>
      </trkpt>
      <trkpt lat="44.5911" lon="6.85768">
        <ele>2015</ele>
        <time>2020-02-17T08:25:31.000Z</time>
      </trkpt>
      <trkpt lat="44.59116" lon="6.8577">
        <ele>2014</ele>
        <time>2020-02-17T08:25:35.000Z</time>
      </trkpt>
      <trkpt lat="44.59116" lon="6.85775">
        <ele>2014</ele>
        <time>2020-02-17T08:25:40.000Z</time>
      </trkpt>
      <trkpt lat="44.59114" lon="6.85778">
        <ele>2014</ele>
        <time>2020-02-17T08:25:43.000Z</time>
      </trkpt>
      <trkpt lat="44.59118" lon="6.85779">
        <ele>2013</ele>
        <time>2020-02-17T08:25:46.000Z</time>
      </trkpt>
      <trkpt lat="44.59118" lon="6.8578">
        <ele>2013</ele>
        <time>2020-02-17T08:25:47.000Z</time>
      </trkpt>
      <trkpt lat="44.59116" lon="6.85786">
        <ele>2014</ele>
        <time>2020-02-17T08:25:53.000Z</time>
      </trkpt>
      <trkpt lat="44.59118" lon="6.85789">
        <ele>2014</ele>
        <time>2020-02-17T08:25:57.000Z</time>
      </trkpt>
      <trkpt lat="44.5912" lon="6.85794">
        <ele>2014</ele>
        <time>2020-02-17T08:26:01.000Z</time>
      </trkpt>
      <trkpt lat="44.59123" lon="6.85798">
        <ele>2013</ele>
        <time>2020-02-17T08:26:07.000Z</time>
      </trkpt>
      <trkpt lat="44.59125" lon="6.85799">
        <ele>2013</ele>
        <time>2020-02-17T08:26:09.000Z</time>
      </trkpt>
      <trkpt lat="44.59126" lon="6.858">
        <ele>2013</ele>
        <time>2020-02-17T08:26:11.000Z</time>
      </trkpt>
      <trkpt lat="44.59126" lon="6.85801">
        <ele>2013</ele>
        <time>2020-02-17T08:26:12.000Z</time>
      </trkpt>
      <trkpt lat="44.5913" lon="6.85805">
        <ele>2012</ele>
        <time>2020-02-17T08:26:18.000Z</time>
      </trkpt>
      <trkpt lat="44.59133" lon="6.8581">
        <ele>2012</ele>
        <time>2020-02-17T08:26:25.000Z</time>
      </trkpt>
      <trkpt lat="44.59132" lon="6.85812">
        <ele>2012</ele>
        <time>2020-02-17T08:26:27.000Z</time>
      </trkpt>
      <trkpt lat="44.59134" lon="6.85813">
        <ele>2012</ele>
        <time>2020-02-17T08:26:30.000Z</time>
      </trkpt>
      <trkpt lat="44.59136" lon="6.85816">
        <ele>2011</ele>
        <time>2020-02-17T08:26:34.000Z</time>
      </trkpt>
      <trkpt lat="44.59137" lon="6.85822">
        <ele>2011</ele>
        <time>2020-02-17T08:26:43.000Z</time>
      </trkpt>
      <trkpt lat="44.59134" lon="6.85832">
        <ele>2012</ele>
        <time>2020-02-17T08:26:53.000Z</time>
      </trkpt>
      <trkpt lat="44.59135" lon="6.85839">
        <ele>2020</ele>
        <time>2020-02-17T08:27:00.000Z</time>
      </trkpt>
      <trkpt lat="44.59126" lon="6.85856">
        <ele>2023</ele>
        <time>2020-02-17T08:27:10.000Z</time>
      </trkpt>
      <trkpt lat="44.5913" lon="6.85859">
        <ele>2023</ele>
        <time>2020-02-17T08:27:17.000Z</time>
      </trkpt>
      <trkpt lat="44.5913" lon="6.85864">
        <ele>2023</ele>
        <time>2020-02-17T08:27:24.000Z</time>
      </trkpt>
      <trkpt lat="44.59129" lon="6.85869">
        <ele>2024</ele>
        <time>2020-02-17T08:27:31.000Z</time>
      </trkpt>
      <trkpt lat="44.59128" lon="6.85869">
        <ele>2024</ele>
        <time>2020-02-17T08:27:33.000Z</time>
      </trkpt>
      <trkpt lat="44.59128" lon="6.85872">
        <ele>2024</ele>
        <time>2020-02-17T08:27:48.000Z</time>
      </trkpt>
      <trkpt lat="44.59129" lon="6.85871">
        <ele>2024</ele>
        <time>2020-02-17T08:27:50.000Z</time>
      </trkpt>
      <trkpt lat="44.59129" lon="6.85876">
        <ele>2025</ele>
        <time>2020-02-17T08:27:56.000Z</time>
      </trkpt>
      <trkpt lat="44.59129" lon="6.85877">
        <ele>2025</ele>
        <time>2020-02-17T08:27:57.000Z</time>
      </trkpt>
      <trkpt lat="44.59127" lon="6.85881">
        <ele>2025</ele>
        <time>2020-02-17T08:28:02.000Z</time>
      </trkpt>
      <trkpt lat="44.59124" lon="6.85885">
        <ele>2026</ele>
        <time>2020-02-17T08:28:07.000Z</time>
      </trkpt>
      <trkpt lat="44.59121" lon="6.85889">
        <ele>2027</ele>
        <time>2020-02-17T08:28:10.000Z</time>
      </trkpt>
      <trkpt lat="44.5912" lon="6.85889">
        <ele>2027</ele>
        <time>2020-02-17T08:28:11.000Z</time>
      </trkpt>
      <trkpt lat="44.5912" lon="6.8589">
        <ele>2027</ele>
        <time>2020-02-17T08:28:12.000Z</time>
      </trkpt>
      <trkpt lat="44.59118" lon="6.85892">
        <ele>2028</ele>
        <time>2020-02-17T08:28:15.000Z</time>
      </trkpt>
      <trkpt lat="44.5911" lon="6.859">
        <ele>2030</ele>
        <time>2020-02-17T08:28:25.000Z</time>
      </trkpt>
      <trkpt lat="44.59106" lon="6.85905">
        <ele>2031</ele>
        <time>2020-02-17T08:28:29.000Z</time>
      </trkpt>
      <trkpt lat="44.59106" lon="6.85909">
        <ele>2032</ele>
        <time>2020-02-17T08:28:34.000Z</time>
      </trkpt>
      <trkpt lat="44.59105" lon="6.8591">
        <ele>2032</ele>
        <time>2020-02-17T08:28:35.000Z</time>
      </trkpt>
      <trkpt lat="44.59104" lon="6.85912">
        <ele>2032</ele>
        <time>2020-02-17T08:28:36.000Z</time>
      </trkpt>
      <trkpt lat="44.59103" lon="6.85913">
        <ele>2033</ele>
        <time>2020-02-17T08:28:38.000Z</time>
      </trkpt>
      <trkpt lat="44.59101" lon="6.85914">
        <ele>2033</ele>
        <time>2020-02-17T08:28:41.000Z</time>
      </trkpt>
      <trkpt lat="44.591" lon="6.85914">
        <ele>2034</ele>
        <time>2020-02-17T08:28:46.000Z</time>
      </trkpt>
      <trkpt lat="44.59095" lon="6.85915">
        <ele>2036</ele>
        <time>2020-02-17T08:28:50.000Z</time>
      </trkpt>
      <trkpt lat="44.59087" lon="6.85919">
        <ele>2042</ele>
        <time>2020-02-17T08:28:58.000Z</time>
      </trkpt>
      <trkpt lat="44.59083" lon="6.8592">
        <ele>2044</ele>
        <time>2020-02-17T08:29:02.000Z</time>
      </trkpt>
      <trkpt lat="44.59075" lon="6.85918">
        <ele>2046</ele>
        <time>2020-02-17T08:29:12.000Z</time>
      </trkpt>
      <trkpt lat="44.59075" lon="6.85917">
        <ele>2046</ele>
        <time>2020-02-17T08:29:13.000Z</time>
      </trkpt>
      <trkpt lat="44.59075" lon="6.85917">
        <ele>2042</ele>
        <time>2020-02-17T08:29:14.000Z</time>
      </trkpt>
      <trkpt lat="44.59071" lon="6.85912">
        <ele>2042</ele>
        <time>2020-02-17T08:29:22.000Z</time>
      </trkpt>
      <trkpt lat="44.59071" lon="6.85911">
        <ele>2042</ele>
        <time>2020-02-17T08:29:23.000Z</time>
      </trkpt>
      <trkpt lat="44.5907" lon="6.8591">
        <ele>2042</ele>
        <time>2020-02-17T08:29:24.000Z</time>
      </trkpt>
      <trkpt lat="44.59069" lon="6.8591">
        <ele>2042</ele>
        <time>2020-02-17T08:29:25.000Z</time>
      </trkpt>
      <trkpt lat="44.59067" lon="6.8591">
        <ele>2042</ele>
        <time>2020-02-17T08:29:27.000Z</time>
      </trkpt>
      <trkpt lat="44.59065" lon="6.85907">
        <ele>2042</ele>
        <time>2020-02-17T08:29:31.000Z</time>
      </trkpt>
      <trkpt lat="44.5906" lon="6.85905">
        <ele>2042</ele>
        <time>2020-02-17T08:29:35.000Z</time>
      </trkpt>
      <trkpt lat="44.59059" lon="6.85903">
        <ele>2042</ele>
        <time>2020-02-17T08:29:38.000Z</time>
      </trkpt>
      <trkpt lat="44.59059" lon="6.85902">
        <ele>2042</ele>
        <time>2020-02-17T08:29:39.000Z</time>
      </trkpt>
      <trkpt lat="44.59059" lon="6.85901">
        <ele>2042</ele>
        <time>2020-02-17T08:29:40.000Z</time>
      </trkpt>
      <trkpt lat="44.59058" lon="6.85901">
        <ele>2042</ele>
        <time>2020-02-17T08:29:41.000Z</time>
      </trkpt>
      <trkpt lat="44.59054" lon="6.85895">
        <ele>2042</ele>
        <time>2020-02-17T08:29:47.000Z</time>
      </trkpt>
      <trkpt lat="44.59055" lon="6.85895">
        <ele>2042</ele>
        <time>2020-02-17T08:29:49.000Z</time>
      </trkpt>
      <trkpt lat="44.59054" lon="6.85893">
        <ele>2042</ele>
        <time>2020-02-17T08:29:52.000Z</time>
      </trkpt>
      <trkpt lat="44.59054" lon="6.85892">
        <ele>2042</ele>
        <time>2020-02-17T08:29:53.000Z</time>
      </trkpt>
      <trkpt lat="44.59054" lon="6.85892">
        <ele>2042</ele>
        <time>2020-02-17T08:29:54.000Z</time>
      </trkpt>
      <trkpt lat="44.59048" lon="6.85902">
        <ele>2042</ele>
        <time>2020-02-17T08:30:12.000Z</time>
      </trkpt>
      <trkpt lat="44.59044" lon="6.85899">
        <ele>2043</ele>
        <time>2020-02-17T08:30:16.000Z</time>
      </trkpt>
      <trkpt lat="44.59043" lon="6.85897">
        <ele>2043</ele>
        <time>2020-02-17T08:30:17.000Z</time>
      </trkpt>
      <trkpt lat="44.59041" lon="6.85893">
        <ele>2042</ele>
        <time>2020-02-17T08:30:21.000Z</time>
      </trkpt>
      <trkpt lat="44.59037" lon="6.85888">
        <ele>2042</ele>
        <time>2020-02-17T08:30:27.000Z</time>
      </trkpt>
      <trkpt lat="44.59036" lon="6.85887">
        <ele>2042</ele>
        <time>2020-02-17T08:30:29.000Z</time>
      </trkpt>
      <trkpt lat="44.59034" lon="6.85885">
        <ele>2042</ele>
        <time>2020-02-17T08:30:32.000Z</time>
      </trkpt>
      <trkpt lat="44.59034" lon="6.85885">
        <ele>2042</ele>
        <time>2020-02-17T08:30:33.000Z</time>
      </trkpt>
      <trkpt lat="44.59031" lon="6.85883">
        <ele>2043</ele>
        <time>2020-02-17T08:30:37.000Z</time>
      </trkpt>
      <trkpt lat="44.5903" lon="6.85883">
        <ele>2043</ele>
        <time>2020-02-17T08:30:39.000Z</time>
      </trkpt>
      <trkpt lat="44.59029" lon="6.85882">
        <ele>2043</ele>
        <time>2020-02-17T08:30:40.000Z</time>
      </trkpt>
      <trkpt lat="44.59028" lon="6.85882">
        <ele>2043</ele>
        <time>2020-02-17T08:30:41.000Z</time>
      </trkpt>
      <trkpt lat="44.59027" lon="6.85881">
        <ele>2043</ele>
        <time>2020-02-17T08:30:42.000Z</time>
      </trkpt>
      <trkpt lat="44.59025" lon="6.85877">
        <ele>2043</ele>
        <time>2020-02-17T08:30:46.000Z</time>
      </trkpt>
      <trkpt lat="44.59024" lon="6.85877">
        <ele>2043</ele>
        <time>2020-02-17T08:30:47.000Z</time>
      </trkpt>
      <trkpt lat="44.59021" lon="6.85876">
        <ele>2043</ele>
        <time>2020-02-17T08:30:50.000Z</time>
      </trkpt>
      <trkpt lat="44.5902" lon="6.85875">
        <ele>2043</ele>
        <time>2020-02-17T08:30:52.000Z</time>
      </trkpt>
      <trkpt lat="44.59019" lon="6.85875">
        <ele>2043</ele>
        <time>2020-02-17T08:30:54.000Z</time>
      </trkpt>
      <trkpt lat="44.59003" lon="6.85878">
        <ele>2043</ele>
        <time>2020-02-17T08:30:57.000Z</time>
      </trkpt>
      <trkpt lat="44.59001" lon="6.85878">
        <ele>2043</ele>
        <time>2020-02-17T08:30:59.000Z</time>
      </trkpt>
      <trkpt lat="44.58998" lon="6.85878">
        <ele>2049</ele>
        <time>2020-02-17T08:31:03.000Z</time>
      </trkpt>
      <trkpt lat="44.58991" lon="6.8588">
        <ele>2049</ele>
        <time>2020-02-17T08:31:11.000Z</time>
      </trkpt>
      <trkpt lat="44.58987" lon="6.85882">
        <ele>2049</ele>
        <time>2020-02-17T08:31:17.000Z</time>
      </trkpt>
      <trkpt lat="44.58986" lon="6.85886">
        <ele>2049</ele>
        <time>2020-02-17T08:31:24.000Z</time>
      </trkpt>
      <trkpt lat="44.58984" lon="6.85888">
        <ele>2050</ele>
        <time>2020-02-17T08:31:26.000Z</time>
      </trkpt>
      <trkpt lat="44.5898" lon="6.85891">
        <ele>2050</ele>
        <time>2020-02-17T08:31:33.000Z</time>
      </trkpt>
      <trkpt lat="44.58976" lon="6.85896">
        <ele>2050</ele>
        <time>2020-02-17T08:31:41.000Z</time>
      </trkpt>
      <trkpt lat="44.58967" lon="6.85901">
        <ele>2050</ele>
        <time>2020-02-17T08:31:49.000Z</time>
      </trkpt>
      <trkpt lat="44.58962" lon="6.85905">
        <ele>2051</ele>
        <time>2020-02-17T08:31:56.000Z</time>
      </trkpt>
      <trkpt lat="44.58956" lon="6.85909">
        <ele>2051</ele>
        <time>2020-02-17T08:32:05.000Z</time>
      </trkpt>
      <trkpt lat="44.58951" lon="6.85916">
        <ele>2052</ele>
        <time>2020-02-17T08:32:13.000Z</time>
      </trkpt>
      <trkpt lat="44.58949" lon="6.85916">
        <ele>2052</ele>
        <time>2020-02-17T08:32:16.000Z</time>
      </trkpt>
      <trkpt lat="44.58943" lon="6.85915">
        <ele>2052</ele>
        <time>2020-02-17T08:32:23.000Z</time>
      </trkpt>
      <trkpt lat="44.58941" lon="6.85916">
        <ele>2052</ele>
        <time>2020-02-17T08:32:26.000Z</time>
      </trkpt>
      <trkpt lat="44.58937" lon="6.85921">
        <ele>2060</ele>
        <time>2020-02-17T08:32:33.000Z</time>
      </trkpt>
      <trkpt lat="44.58935" lon="6.85921">
        <ele>2060</ele>
        <time>2020-02-17T08:32:36.000Z</time>
      </trkpt>
      <trkpt lat="44.58932" lon="6.8591">
        <ele>2053</ele>
        <time>2020-02-17T08:32:55.000Z</time>
      </trkpt>
      <trkpt lat="44.58931" lon="6.85909">
        <ele>2053</ele>
        <time>2020-02-17T08:32:57.000Z</time>
      </trkpt>
      <trkpt lat="44.58929" lon="6.85907">
        <ele>2053</ele>
        <time>2020-02-17T08:32:59.000Z</time>
      </trkpt>
      <trkpt lat="44.58929" lon="6.85907">
        <ele>2053</ele>
        <time>2020-02-17T08:33:01.000Z</time>
      </trkpt>
      <trkpt lat="44.58929" lon="6.85905">
        <ele>2053</ele>
        <time>2020-02-17T08:33:03.000Z</time>
      </trkpt>
      <trkpt lat="44.58935" lon="6.85911">
        <ele>2053</ele>
        <time>2020-02-17T08:33:07.000Z</time>
      </trkpt>
      <trkpt lat="44.58933" lon="6.8591">
        <ele>2053</ele>
        <time>2020-02-17T08:33:15.000Z</time>
      </trkpt>
      <trkpt lat="44.58933" lon="6.8591">
        <ele>2053</ele>
        <time>2020-02-17T08:33:19.000Z</time>
      </trkpt>
      <trkpt lat="44.58934" lon="6.8591">
        <ele>2053</ele>
        <time>2020-02-17T08:33:20.000Z</time>
      </trkpt>
      <trkpt lat="44.58933" lon="6.8591">
        <ele>2053</ele>
        <time>2020-02-17T08:33:21.000Z</time>
      </trkpt>
      <trkpt lat="44.58933" lon="6.8591">
        <ele>2053</ele>
        <time>2020-02-17T08:33:25.000Z</time>
      </trkpt>
      <trkpt lat="44.58932" lon="6.85909">
        <ele>2053</ele>
        <time>2020-02-17T08:33:29.000Z</time>
      </trkpt>
      <trkpt lat="44.58931" lon="6.8591">
        <ele>2053</ele>
        <time>2020-02-17T08:33:33.000Z</time>
      </trkpt>
      <trkpt lat="44.58931" lon="6.85908">
        <ele>2053</ele>
        <time>2020-02-17T08:33:43.000Z</time>
      </trkpt>
      <trkpt lat="44.58927" lon="6.85906">
        <ele>2053</ele>
        <time>2020-02-17T08:33:49.000Z</time>
      </trkpt>
      <trkpt lat="44.5893" lon="6.85906">
        <ele>2053</ele>
        <time>2020-02-17T08:33:57.000Z</time>
      </trkpt>
      <trkpt lat="44.58932" lon="6.85909">
        <ele>2053</ele>
        <time>2020-02-17T08:33:59.000Z</time>
      </trkpt>
      <trkpt lat="44.58934" lon="6.85911">
        <ele>2053</ele>
        <time>2020-02-17T08:34:02.000Z</time>
      </trkpt>
      <trkpt lat="44.58934" lon="6.85911">
        <ele>2053</ele>
        <time>2020-02-17T08:34:03.000Z</time>
      </trkpt>
      <trkpt lat="44.58932" lon="6.85913">
        <ele>2053</ele>
        <time>2020-02-17T08:34:08.000Z</time>
      </trkpt>
      <trkpt lat="44.58933" lon="6.85913">
        <ele>2053</ele>
        <time>2020-02-17T08:34:10.000Z</time>
      </trkpt>
      <trkpt lat="44.58933" lon="6.85913">
        <ele>2053</ele>
        <time>2020-02-17T08:34:11.000Z</time>
      </trkpt>
      <trkpt lat="44.58927" lon="6.8591">
        <ele>2054</ele>
        <time>2020-02-17T08:34:28.000Z</time>
      </trkpt>
      <trkpt lat="44.58928" lon="6.85911">
        <ele>2054</ele>
        <time>2020-02-17T08:34:29.000Z</time>
      </trkpt>
      <trkpt lat="44.58929" lon="6.85913">
        <ele>2054</ele>
        <time>2020-02-17T08:34:30.000Z</time>
      </trkpt>
      <trkpt lat="44.5893" lon="6.85913">
        <ele>2054</ele>
        <time>2020-02-17T08:34:31.000Z</time>
      </trkpt>
      <trkpt lat="44.58932" lon="6.85915">
        <ele>2053</ele>
        <time>2020-02-17T08:34:33.000Z</time>
      </trkpt>
      <trkpt lat="44.58934" lon="6.85914">
        <ele>2053</ele>
        <time>2020-02-17T08:34:55.000Z</time>
      </trkpt>
      <trkpt lat="44.58934" lon="6.85914">
        <ele>2053</ele>
        <time>2020-02-17T08:34:57.000Z</time>
      </trkpt>
      <trkpt lat="44.58934" lon="6.85914">
        <ele>2053</ele>
        <time>2020-02-17T08:34:58.000Z</time>
      </trkpt>
      <trkpt lat="44.58934" lon="6.85914">
        <ele>2053</ele>
        <time>2020-02-17T08:35:05.000Z</time>
      </trkpt>
      <trkpt lat="44.58934" lon="6.85915">
        <ele>2053</ele>
        <time>2020-02-17T08:35:09.000Z</time>
      </trkpt>
      <trkpt lat="44.58937" lon="6.85918">
        <ele>2060</ele>
        <time>2020-02-17T08:35:13.000Z</time>
      </trkpt>
      <trkpt lat="44.58938" lon="6.85918">
        <ele>2060</ele>
        <time>2020-02-17T08:35:14.000Z</time>
      </trkpt>
      <trkpt lat="44.58938" lon="6.85918">
        <ele>2060</ele>
        <time>2020-02-17T08:35:15.000Z</time>
      </trkpt>
      <trkpt lat="44.58938" lon="6.85918">
        <ele>2060</ele>
        <time>2020-02-17T08:35:18.000Z</time>
      </trkpt>
      <trkpt lat="44.58939" lon="6.85918">
        <ele>2060</ele>
        <time>2020-02-17T08:35:22.000Z</time>
      </trkpt>
      <trkpt lat="44.58938" lon="6.85918">
        <ele>2060</ele>
        <time>2020-02-17T08:35:26.000Z</time>
      </trkpt>
      <trkpt lat="44.58938" lon="6.85917">
        <ele>2060</ele>
        <time>2020-02-17T08:35:28.000Z</time>
      </trkpt>
      <trkpt lat="44.58937" lon="6.85917">
        <ele>2060</ele>
        <time>2020-02-17T08:35:30.000Z</time>
      </trkpt>
      <trkpt lat="44.58937" lon="6.85917">
        <ele>2060</ele>
        <time>2020-02-17T08:35:31.000Z</time>
      </trkpt>
      <trkpt lat="44.58937" lon="6.85917">
        <ele>2060</ele>
        <time>2020-02-17T08:35:32.000Z</time>
      </trkpt>
      <trkpt lat="44.58936" lon="6.85917">
        <ele>2059</ele>
        <time>2020-02-17T08:35:33.000Z</time>
      </trkpt>
      <trkpt lat="44.58936" lon="6.85917">
        <ele>2059</ele>
        <time>2020-02-17T08:35:34.000Z</time>
      </trkpt>
      <trkpt lat="44.58936" lon="6.85914">
        <ele>2053</ele>
        <time>2020-02-17T08:35:43.000Z</time>
      </trkpt>
      <trkpt lat="44.58935" lon="6.85913">
        <ele>2053</ele>
        <time>2020-02-17T08:35:44.000Z</time>
      </trkpt>
      <trkpt lat="44.58937" lon="6.85912">
        <ele>2053</ele>
        <time>2020-02-17T08:35:53.000Z</time>
      </trkpt>
      <trkpt lat="44.58937" lon="6.8591">
        <ele>2053</ele>
        <time>2020-02-17T08:35:57.000Z</time>
      </trkpt>
      <trkpt lat="44.58933" lon="6.8591">
        <ele>2053</ele>
        <time>2020-02-17T08:36:01.000Z</time>
      </trkpt>
      <trkpt lat="44.58932" lon="6.8591">
        <ele>2053</ele>
        <time>2020-02-17T08:36:02.000Z</time>
      </trkpt>
      <trkpt lat="44.58931" lon="6.85909">
        <ele>2053</ele>
        <time>2020-02-17T08:36:03.000Z</time>
      </trkpt>
      <trkpt lat="44.5893" lon="6.85908">
        <ele>2053</ele>
        <time>2020-02-17T08:36:07.000Z</time>
      </trkpt>
      <trkpt lat="44.5893" lon="6.85908">
        <ele>2053</ele>
        <time>2020-02-17T08:36:08.000Z</time>
      </trkpt>
      <trkpt lat="44.58929" lon="6.85908">
        <ele>2053</ele>
        <time>2020-02-17T08:36:09.000Z</time>
      </trkpt>
      <trkpt lat="44.58928" lon="6.85907">
        <ele>2053</ele>
        <time>2020-02-17T08:36:10.000Z</time>
      </trkpt>
      <trkpt lat="44.58927" lon="6.85906">
        <ele>2053</ele>
        <time>2020-02-17T08:36:12.000Z</time>
      </trkpt>
      <trkpt lat="44.58926" lon="6.85906">
        <ele>2053</ele>
        <time>2020-02-17T08:36:13.000Z</time>
      </trkpt>
      <trkpt lat="44.58927" lon="6.85906">
        <ele>2053</ele>
        <time>2020-02-17T08:36:16.000Z</time>
      </trkpt>
      <trkpt lat="44.58928" lon="6.85908">
        <ele>2053</ele>
        <time>2020-02-17T08:36:18.000Z</time>
      </trkpt>
      <trkpt lat="44.58931" lon="6.8591">
        <ele>2053</ele>
        <time>2020-02-17T08:36:24.000Z</time>
      </trkpt>
      <trkpt lat="44.58932" lon="6.85911">
        <ele>2053</ele>
        <time>2020-02-17T08:36:28.000Z</time>
      </trkpt>
      <trkpt lat="44.58933" lon="6.85914">
        <ele>2053</ele>
        <time>2020-02-17T08:36:35.000Z</time>
      </trkpt>
      <trkpt lat="44.58933" lon="6.85914">
        <ele>2053</ele>
        <time>2020-02-17T08:36:38.000Z</time>
      </trkpt>
      <trkpt lat="44.58933" lon="6.85915">
        <ele>2053</ele>
        <time>2020-02-17T08:36:42.000Z</time>
      </trkpt>
      <trkpt lat="44.58936" lon="6.85918">
        <ele>2059</ele>
        <time>2020-02-17T08:36:44.000Z</time>
      </trkpt>
      <trkpt lat="44.58933" lon="6.85916">
        <ele>2053</ele>
        <time>2020-02-17T08:36:48.000Z</time>
      </trkpt>
      <trkpt lat="44.58932" lon="6.85915">
        <ele>2053</ele>
        <time>2020-02-17T08:36:49.000Z</time>
      </trkpt>
      <trkpt lat="44.58932" lon="6.85914">
        <ele>2053</ele>
        <time>2020-02-17T08:36:52.000Z</time>
      </trkpt>
      <trkpt lat="44.58932" lon="6.85914">
        <ele>2053</ele>
        <time>2020-02-17T08:36:53.000Z</time>
      </trkpt>
      <trkpt lat="44.58932" lon="6.85914">
        <ele>2053</ele>
        <time>2020-02-17T08:36:54.000Z</time>
      </trkpt>
      <trkpt lat="44.58933" lon="6.85912">
        <ele>2053</ele>
        <time>2020-02-17T08:36:59.000Z</time>
      </trkpt>
      <trkpt lat="44.58935" lon="6.85913">
        <ele>2053</ele>
        <time>2020-02-17T08:37:07.000Z</time>
      </trkpt>
      <trkpt lat="44.58935" lon="6.85913">
        <ele>2053</ele>
        <time>2020-02-17T08:37:09.000Z</time>
      </trkpt>
      <trkpt lat="44.58935" lon="6.85914">
        <ele>2053</ele>
        <time>2020-02-17T08:37:13.000Z</time>
      </trkpt>
      <trkpt lat="44.58935" lon="6.85914">
        <ele>2053</ele>
        <time>2020-02-17T08:37:15.000Z</time>
      </trkpt>
      <trkpt lat="44.58935" lon="6.85913">
        <ele>2053</ele>
        <time>2020-02-17T08:37:23.000Z</time>
      </trkpt>
      <trkpt lat="44.58934" lon="6.85913">
        <ele>2053</ele>
        <time>2020-02-17T08:37:26.000Z</time>
      </trkpt>
      <trkpt lat="44.58934" lon="6.85913">
        <ele>2053</ele>
        <time>2020-02-17T08:37:29.000Z</time>
      </trkpt>
      <trkpt lat="44.58934" lon="6.85912">
        <ele>2053</ele>
        <time>2020-02-17T08:37:30.000Z</time>
      </trkpt>
      <trkpt lat="44.58933" lon="6.85912">
        <ele>2053</ele>
        <time>2020-02-17T08:37:32.000Z</time>
      </trkpt>
      <trkpt lat="44.58932" lon="6.8591">
        <ele>2053</ele>
        <time>2020-02-17T08:37:52.000Z</time>
      </trkpt>
      <trkpt lat="44.58932" lon="6.85909">
        <ele>2053</ele>
        <time>2020-02-17T08:37:56.000Z</time>
      </trkpt>
      <trkpt lat="44.58933" lon="6.85909">
        <ele>2053</ele>
        <time>2020-02-17T08:37:58.000Z</time>
      </trkpt>
      <trkpt lat="44.58932" lon="6.85909">
        <ele>2053</ele>
        <time>2020-02-17T08:38:00.000Z</time>
      </trkpt>
      <trkpt lat="44.58932" lon="6.85909">
        <ele>2053</ele>
        <time>2020-02-17T08:38:01.000Z</time>
      </trkpt>
      <trkpt lat="44.58931" lon="6.85909">
        <ele>2053</ele>
        <time>2020-02-17T08:38:02.000Z</time>
      </trkpt>
      <trkpt lat="44.5893" lon="6.85909">
        <ele>2053</ele>
        <time>2020-02-17T08:38:07.000Z</time>
      </trkpt>
      <trkpt lat="44.5893" lon="6.8591">
        <ele>2053</ele>
        <time>2020-02-17T08:38:13.000Z</time>
      </trkpt>
      <trkpt lat="44.5893" lon="6.85909">
        <ele>2053</ele>
        <time>2020-02-17T08:38:18.000Z</time>
      </trkpt>
      <trkpt lat="44.58929" lon="6.85909">
        <ele>2053</ele>
        <time>2020-02-17T08:38:22.000Z</time>
      </trkpt>
      <trkpt lat="44.5893" lon="6.85911">
        <ele>2053</ele>
        <time>2020-02-17T08:38:27.000Z</time>
      </trkpt>
      <trkpt lat="44.58932" lon="6.85911">
        <ele>2053</ele>
        <time>2020-02-17T08:38:30.000Z</time>
      </trkpt>
      <trkpt lat="44.58931" lon="6.85922">
        <ele>2059</ele>
        <time>2020-02-17T08:38:41.000Z</time>
      </trkpt>
      <trkpt lat="44.58926" lon="6.85933">
        <ele>2060</ele>
        <time>2020-02-17T08:38:46.000Z</time>
      </trkpt>
      <trkpt lat="44.58922" lon="6.85945">
        <ele>2062</ele>
        <time>2020-02-17T08:38:54.000Z</time>
      </trkpt>
      <trkpt lat="44.58921" lon="6.85946">
        <ele>2062</ele>
        <time>2020-02-17T08:38:57.000Z</time>
      </trkpt>
      <trkpt lat="44.58921" lon="6.85946">
        <ele>2062</ele>
        <time>2020-02-17T08:38:58.000Z</time>
      </trkpt>
      <trkpt lat="44.58921" lon="6.85945">
        <ele>2062</ele>
        <time>2020-02-17T08:38:59.000Z</time>
      </trkpt>
      <trkpt lat="44.5892" lon="6.85945">
        <ele>2062</ele>
        <time>2020-02-17T08:39:00.000Z</time>
      </trkpt>
      <trkpt lat="44.5892" lon="6.85943">
        <ele>2062</ele>
        <time>2020-02-17T08:39:01.000Z</time>
      </trkpt>
      <trkpt lat="44.5892" lon="6.85942">
        <ele>2061</ele>
        <time>2020-02-17T08:39:02.000Z</time>
      </trkpt>
      <trkpt lat="44.5892" lon="6.8594">
        <ele>2061</ele>
        <time>2020-02-17T08:39:03.000Z</time>
      </trkpt>
      <trkpt lat="44.58919" lon="6.85938">
        <ele>2061</ele>
        <time>2020-02-17T08:39:05.000Z</time>
      </trkpt>
      <trkpt lat="44.58918" lon="6.85935">
        <ele>2060</ele>
        <time>2020-02-17T08:39:08.000Z</time>
      </trkpt>
      <trkpt lat="44.58918" lon="6.85933">
        <ele>2060</ele>
        <time>2020-02-17T08:39:10.000Z</time>
      </trkpt>
      <trkpt lat="44.58917" lon="6.85928">
        <ele>2059</ele>
        <time>2020-02-17T08:39:13.000Z</time>
      </trkpt>
      <trkpt lat="44.58917" lon="6.85927">
        <ele>2059</ele>
        <time>2020-02-17T08:39:14.000Z</time>
      </trkpt>
      <trkpt lat="44.58917" lon="6.85924">
        <ele>2060</ele>
        <time>2020-02-17T08:39:16.000Z</time>
      </trkpt>
      <trkpt lat="44.58915" lon="6.85922">
        <ele>2059</ele>
        <time>2020-02-17T08:39:19.000Z</time>
      </trkpt>
      <trkpt lat="44.58914" lon="6.85921">
        <ele>2059</ele>
        <time>2020-02-17T08:39:21.000Z</time>
      </trkpt>
      <trkpt lat="44.58911" lon="6.8592">
        <ele>2059</ele>
        <time>2020-02-17T08:39:24.000Z</time>
      </trkpt>
      <trkpt lat="44.58911" lon="6.85919">
        <ele>2059</ele>
        <time>2020-02-17T08:39:25.000Z</time>
      </trkpt>
      <trkpt lat="44.58907" lon="6.85917">
        <ele>2060</ele>
        <time>2020-02-17T08:39:29.000Z</time>
      </trkpt>
      <trkpt lat="44.58901" lon="6.85913">
        <ele>2059</ele>
        <time>2020-02-17T08:39:36.000Z</time>
      </trkpt>
      <trkpt lat="44.58895" lon="6.85907">
        <ele>2060</ele>
        <time>2020-02-17T08:39:43.000Z</time>
      </trkpt>
      <trkpt lat="44.58893" lon="6.85906">
        <ele>2060</ele>
        <time>2020-02-17T08:39:45.000Z</time>
      </trkpt>
      <trkpt lat="44.58891" lon="6.85905">
        <ele>2060</ele>
        <time>2020-02-17T08:39:48.000Z</time>
      </trkpt>
      <trkpt lat="44.5889" lon="6.85905">
        <ele>2060</ele>
        <time>2020-02-17T08:39:49.000Z</time>
      </trkpt>
      <trkpt lat="44.58889" lon="6.85904">
        <ele>2060</ele>
        <time>2020-02-17T08:39:50.000Z</time>
      </trkpt>
      <trkpt lat="44.58888" lon="6.85903">
        <ele>2061</ele>
        <time>2020-02-17T08:39:51.000Z</time>
      </trkpt>
      <trkpt lat="44.58886" lon="6.85903">
        <ele>2061</ele>
        <time>2020-02-17T08:39:53.000Z</time>
      </trkpt>
      <trkpt lat="44.58882" lon="6.859">
        <ele>2061</ele>
        <time>2020-02-17T08:39:57.000Z</time>
      </trkpt>
      <trkpt lat="44.58881" lon="6.859">
        <ele>2061</ele>
        <time>2020-02-17T08:39:58.000Z</time>
      </trkpt>
      <trkpt lat="44.58878" lon="6.85897">
        <ele>2062</ele>
        <time>2020-02-17T08:40:01.000Z</time>
      </trkpt>
      <trkpt lat="44.58876" lon="6.85895">
        <ele>2062</ele>
        <time>2020-02-17T08:40:04.000Z</time>
      </trkpt>
      <trkpt lat="44.58872" lon="6.85892">
        <ele>2062</ele>
        <time>2020-02-17T08:40:10.000Z</time>
      </trkpt>
      <trkpt lat="44.58869" lon="6.85891">
        <ele>2062</ele>
        <time>2020-02-17T08:40:14.000Z</time>
      </trkpt>
      <trkpt lat="44.58868" lon="6.8589">
        <ele>2063</ele>
        <time>2020-02-17T08:40:15.000Z</time>
      </trkpt>
      <trkpt lat="44.58866" lon="6.85889">
        <ele>2063</ele>
        <time>2020-02-17T08:40:17.000Z</time>
      </trkpt>
      <trkpt lat="44.58861" lon="6.85887">
        <ele>2063</ele>
        <time>2020-02-17T08:40:25.000Z</time>
      </trkpt>
      <trkpt lat="44.58859" lon="6.85887">
        <ele>2063</ele>
        <time>2020-02-17T08:40:28.000Z</time>
      </trkpt>
      <trkpt lat="44.58854" lon="6.8589">
        <ele>2064</ele>
        <time>2020-02-17T08:40:34.000Z</time>
      </trkpt>
      <trkpt lat="44.58852" lon="6.8589">
        <ele>2064</ele>
        <time>2020-02-17T08:40:38.000Z</time>
      </trkpt>
      <trkpt lat="44.58851" lon="6.8589">
        <ele>2064</ele>
        <time>2020-02-17T08:40:40.000Z</time>
      </trkpt>
      <trkpt lat="44.5885" lon="6.8589">
        <ele>2064</ele>
        <time>2020-02-17T08:40:41.000Z</time>
      </trkpt>
      <trkpt lat="44.58849" lon="6.8589">
        <ele>2064</ele>
        <time>2020-02-17T08:40:43.000Z</time>
      </trkpt>
      <trkpt lat="44.58846" lon="6.85887">
        <ele>2064</ele>
        <time>2020-02-17T08:40:49.000Z</time>
      </trkpt>
      <trkpt lat="44.58839" lon="6.85886">
        <ele>2065</ele>
        <time>2020-02-17T08:40:55.000Z</time>
      </trkpt>
      <trkpt lat="44.58837" lon="6.85885">
        <ele>2065</ele>
        <time>2020-02-17T08:40:57.000Z</time>
      </trkpt>
      <trkpt lat="44.58836" lon="6.85885">
        <ele>2065</ele>
        <time>2020-02-17T08:40:58.000Z</time>
      </trkpt>
      <trkpt lat="44.58834" lon="6.85886">
        <ele>2065</ele>
        <time>2020-02-17T08:41:01.000Z</time>
      </trkpt>
      <trkpt lat="44.58828" lon="6.85886">
        <ele>2074</ele>
        <time>2020-02-17T08:41:08.000Z</time>
      </trkpt>
      <trkpt lat="44.58827" lon="6.85887">
        <ele>2075</ele>
        <time>2020-02-17T08:41:09.000Z</time>
      </trkpt>
      <trkpt lat="44.58825" lon="6.85887">
        <ele>2075</ele>
        <time>2020-02-17T08:41:11.000Z</time>
      </trkpt>
      <trkpt lat="44.58824" lon="6.85885">
        <ele>2075</ele>
        <time>2020-02-17T08:41:14.000Z</time>
      </trkpt>
      <trkpt lat="44.58823" lon="6.85885">
        <ele>2075</ele>
        <time>2020-02-17T08:41:15.000Z</time>
      </trkpt>
      <trkpt lat="44.58821" lon="6.85885">
        <ele>2075</ele>
        <time>2020-02-17T08:41:19.000Z</time>
      </trkpt>
      <trkpt lat="44.5882" lon="6.85886">
        <ele>2075</ele>
        <time>2020-02-17T08:41:20.000Z</time>
      </trkpt>
      <trkpt lat="44.58816" lon="6.85888">
        <ele>2075</ele>
        <time>2020-02-17T08:41:25.000Z</time>
      </trkpt>
      <trkpt lat="44.58815" lon="6.85887">
        <ele>2075</ele>
        <time>2020-02-17T08:41:27.000Z</time>
      </trkpt>
      <trkpt lat="44.58812" lon="6.85886">
        <ele>2076</ele>
        <time>2020-02-17T08:41:31.000Z</time>
      </trkpt>
      <trkpt lat="44.58811" lon="6.85886">
        <ele>2076</ele>
        <time>2020-02-17T08:41:33.000Z</time>
      </trkpt>
      <trkpt lat="44.58809" lon="6.85886">
        <ele>2076</ele>
        <time>2020-02-17T08:41:36.000Z</time>
      </trkpt>
      <trkpt lat="44.58806" lon="6.85884">
        <ele>2076</ele>
        <time>2020-02-17T08:41:41.000Z</time>
      </trkpt>
      <trkpt lat="44.58803" lon="6.85882">
        <ele>2076</ele>
        <time>2020-02-17T08:41:44.000Z</time>
      </trkpt>
      <trkpt lat="44.58798" lon="6.85876">
        <ele>2077</ele>
        <time>2020-02-17T08:41:51.000Z</time>
      </trkpt>
      <trkpt lat="44.58796" lon="6.85876">
        <ele>2077</ele>
        <time>2020-02-17T08:41:53.000Z</time>
      </trkpt>
      <trkpt lat="44.58796" lon="6.85876">
        <ele>2077</ele>
        <time>2020-02-17T08:41:54.000Z</time>
      </trkpt>
      <trkpt lat="44.58793" lon="6.85876">
        <ele>2077</ele>
        <time>2020-02-17T08:41:58.000Z</time>
      </trkpt>
      <trkpt lat="44.5879" lon="6.85877">
        <ele>2077</ele>
        <time>2020-02-17T08:42:02.000Z</time>
      </trkpt>
      <trkpt lat="44.58789" lon="6.85877">
        <ele>2078</ele>
        <time>2020-02-17T08:42:03.000Z</time>
      </trkpt>
      <trkpt lat="44.58788" lon="6.85878">
        <ele>2078</ele>
        <time>2020-02-17T08:42:05.000Z</time>
      </trkpt>
      <trkpt lat="44.58782" lon="6.85881">
        <ele>2078</ele>
        <time>2020-02-17T08:42:12.000Z</time>
      </trkpt>
      <trkpt lat="44.58779" lon="6.85883">
        <ele>2079</ele>
        <time>2020-02-17T08:42:17.000Z</time>
      </trkpt>
      <trkpt lat="44.58777" lon="6.85883">
        <ele>2079</ele>
        <time>2020-02-17T08:42:20.000Z</time>
      </trkpt>
      <trkpt lat="44.58775" lon="6.85884">
        <ele>2079</ele>
        <time>2020-02-17T08:42:22.000Z</time>
      </trkpt>
      <trkpt lat="44.58765" lon="6.85873">
        <ele>2080</ele>
        <time>2020-02-17T08:42:33.000Z</time>
      </trkpt>
      <trkpt lat="44.58764" lon="6.85869">
        <ele>2080</ele>
        <time>2020-02-17T08:42:35.000Z</time>
      </trkpt>
      <trkpt lat="44.58762" lon="6.85868">
        <ele>2080</ele>
        <time>2020-02-17T08:42:36.000Z</time>
      </trkpt>
      <trkpt lat="44.58757" lon="6.85863">
        <ele>2080</ele>
        <time>2020-02-17T08:42:42.000Z</time>
      </trkpt>
      <trkpt lat="44.58756" lon="6.85866">
        <ele>2080</ele>
        <time>2020-02-17T08:42:45.000Z</time>
      </trkpt>
      <trkpt lat="44.58755" lon="6.85867">
        <ele>2080</ele>
        <time>2020-02-17T08:42:48.000Z</time>
      </trkpt>
      <trkpt lat="44.58751" lon="6.85866">
        <ele>2080</ele>
        <time>2020-02-17T08:42:56.000Z</time>
      </trkpt>
      <trkpt lat="44.58744" lon="6.85866">
        <ele>2091</ele>
        <time>2020-02-17T08:43:04.000Z</time>
      </trkpt>
      <trkpt lat="44.58742" lon="6.85864">
        <ele>2091</ele>
        <time>2020-02-17T08:43:06.000Z</time>
      </trkpt>
      <trkpt lat="44.58742" lon="6.85864">
        <ele>2091</ele>
        <time>2020-02-17T08:43:07.000Z</time>
      </trkpt>
      <trkpt lat="44.58739" lon="6.85862">
        <ele>2091</ele>
        <time>2020-02-17T08:43:10.000Z</time>
      </trkpt>
      <trkpt lat="44.58737" lon="6.85859">
        <ele>2091</ele>
        <time>2020-02-17T08:43:32.000Z</time>
      </trkpt>
      <trkpt lat="44.58733" lon="6.85856">
        <ele>2091</ele>
        <time>2020-02-17T08:43:37.000Z</time>
      </trkpt>
      <trkpt lat="44.58733" lon="6.85856">
        <ele>2091</ele>
        <time>2020-02-17T08:43:38.000Z</time>
      </trkpt>
      <trkpt lat="44.58732" lon="6.85856">
        <ele>2091</ele>
        <time>2020-02-17T08:43:39.000Z</time>
      </trkpt>
      <trkpt lat="44.5873" lon="6.85855">
        <ele>2092</ele>
        <time>2020-02-17T08:43:43.000Z</time>
      </trkpt>
      <trkpt lat="44.58729" lon="6.85855">
        <ele>2092</ele>
        <time>2020-02-17T08:43:44.000Z</time>
      </trkpt>
      <trkpt lat="44.58726" lon="6.85858">
        <ele>2092</ele>
        <time>2020-02-17T08:43:51.000Z</time>
      </trkpt>
      <trkpt lat="44.58726" lon="6.85858">
        <ele>2092</ele>
        <time>2020-02-17T08:43:53.000Z</time>
      </trkpt>
      <trkpt lat="44.58726" lon="6.85863">
        <ele>2093</ele>
        <time>2020-02-17T08:43:59.000Z</time>
      </trkpt>
      <trkpt lat="44.58725" lon="6.85871">
        <ele>2093</ele>
        <time>2020-02-17T08:44:08.000Z</time>
      </trkpt>
      <trkpt lat="44.58717" lon="6.85874">
        <ele>2094</ele>
        <time>2020-02-17T08:44:18.000Z</time>
      </trkpt>
      <trkpt lat="44.58717" lon="6.85874">
        <ele>2094</ele>
        <time>2020-02-17T08:44:19.000Z</time>
      </trkpt>
      <trkpt lat="44.58715" lon="6.85873">
        <ele>2095</ele>
        <time>2020-02-17T08:44:21.000Z</time>
      </trkpt>
      <trkpt lat="44.58713" lon="6.85872">
        <ele>2095</ele>
        <time>2020-02-17T08:44:25.000Z</time>
      </trkpt>
      <trkpt lat="44.58711" lon="6.85868">
        <ele>2095</ele>
        <time>2020-02-17T08:44:31.000Z</time>
      </trkpt>
      <trkpt lat="44.5871" lon="6.85867">
        <ele>2095</ele>
        <time>2020-02-17T08:44:32.000Z</time>
      </trkpt>
      <trkpt lat="44.58707" lon="6.85866">
        <ele>2095</ele>
        <time>2020-02-17T08:44:43.000Z</time>
      </trkpt>
      <trkpt lat="44.58706" lon="6.85866">
        <ele>2095</ele>
        <time>2020-02-17T08:44:44.000Z</time>
      </trkpt>
      <trkpt lat="44.58706" lon="6.85868">
        <ele>2096</ele>
        <time>2020-02-17T08:44:48.000Z</time>
      </trkpt>
      <trkpt lat="44.58705" lon="6.85869">
        <ele>2096</ele>
        <time>2020-02-17T08:44:50.000Z</time>
      </trkpt>
      <trkpt lat="44.58704" lon="6.8587">
        <ele>2096</ele>
        <time>2020-02-17T08:44:52.000Z</time>
      </trkpt>
      <trkpt lat="44.58703" lon="6.85871">
        <ele>2096</ele>
        <time>2020-02-17T08:44:54.000Z</time>
      </trkpt>
      <trkpt lat="44.58702" lon="6.85871">
        <ele>2096</ele>
        <time>2020-02-17T08:44:57.000Z</time>
      </trkpt>
      <trkpt lat="44.58701" lon="6.85871">
        <ele>2096</ele>
        <time>2020-02-17T08:44:59.000Z</time>
      </trkpt>
      <trkpt lat="44.58696" lon="6.85874">
        <ele>2097</ele>
        <time>2020-02-17T08:45:05.000Z</time>
      </trkpt>
      <trkpt lat="44.58691" lon="6.85874">
        <ele>2097</ele>
        <time>2020-02-17T08:45:12.000Z</time>
      </trkpt>
      <trkpt lat="44.58687" lon="6.85871">
        <ele>2098</ele>
        <time>2020-02-17T08:45:19.000Z</time>
      </trkpt>
      <trkpt lat="44.58685" lon="6.85867">
        <ele>2098</ele>
        <time>2020-02-17T08:45:22.000Z</time>
      </trkpt>
      <trkpt lat="44.58686" lon="6.85863">
        <ele>2098</ele>
        <time>2020-02-17T08:45:25.000Z</time>
      </trkpt>
      <trkpt lat="44.58686" lon="6.85861">
        <ele>2098</ele>
        <time>2020-02-17T08:45:27.000Z</time>
      </trkpt>
      <trkpt lat="44.58684" lon="6.85855">
        <ele>2098</ele>
        <time>2020-02-17T08:45:34.000Z</time>
      </trkpt>
      <trkpt lat="44.58678" lon="6.85853">
        <ele>2099</ele>
        <time>2020-02-17T08:45:41.000Z</time>
      </trkpt>
      <trkpt lat="44.58676" lon="6.85853">
        <ele>2099</ele>
        <time>2020-02-17T08:45:44.000Z</time>
      </trkpt>
      <trkpt lat="44.58676" lon="6.85854">
        <ele>2099</ele>
        <time>2020-02-17T08:45:45.000Z</time>
      </trkpt>
      <trkpt lat="44.58673" lon="6.85854">
        <ele>2099</ele>
        <time>2020-02-17T08:45:48.000Z</time>
      </trkpt>
      <trkpt lat="44.5867" lon="6.85853">
        <ele>2099</ele>
        <time>2020-02-17T08:45:53.000Z</time>
      </trkpt>
      <trkpt lat="44.58669" lon="6.85852">
        <ele>2100</ele>
        <time>2020-02-17T08:45:56.000Z</time>
      </trkpt>
      <trkpt lat="44.58669" lon="6.85852">
        <ele>2100</ele>
        <time>2020-02-17T08:45:57.000Z</time>
      </trkpt>
      <trkpt lat="44.58668" lon="6.85852">
        <ele>2100</ele>
        <time>2020-02-17T08:46:00.000Z</time>
      </trkpt>
      <trkpt lat="44.58666" lon="6.85852">
        <ele>2107</ele>
        <time>2020-02-17T08:46:03.000Z</time>
      </trkpt>
      <trkpt lat="44.58664" lon="6.85853">
        <ele>2107</ele>
        <time>2020-02-17T08:46:05.000Z</time>
      </trkpt>
      <trkpt lat="44.5866" lon="6.85851">
        <ele>2107</ele>
        <time>2020-02-17T08:46:09.000Z</time>
      </trkpt>
      <trkpt lat="44.58655" lon="6.85851">
        <ele>2107</ele>
        <time>2020-02-17T08:46:18.000Z</time>
      </trkpt>
      <trkpt lat="44.58648" lon="6.8585">
        <ele>2108</ele>
        <time>2020-02-17T08:46:28.000Z</time>
      </trkpt>
      <trkpt lat="44.58639" lon="6.85852">
        <ele>2109</ele>
        <time>2020-02-17T08:46:41.000Z</time>
      </trkpt>
      <trkpt lat="44.58638" lon="6.85851">
        <ele>2109</ele>
        <time>2020-02-17T08:46:43.000Z</time>
      </trkpt>
      <trkpt lat="44.58636" lon="6.85848">
        <ele>2109</ele>
        <time>2020-02-17T08:46:48.000Z</time>
      </trkpt>
      <trkpt lat="44.58636" lon="6.85848">
        <ele>2109</ele>
        <time>2020-02-17T08:46:49.000Z</time>
      </trkpt>
      <trkpt lat="44.58636" lon="6.85848">
        <ele>2109</ele>
        <time>2020-02-17T08:46:50.000Z</time>
      </trkpt>
      <trkpt lat="44.58631" lon="6.85849">
        <ele>2109</ele>
        <time>2020-02-17T08:46:59.000Z</time>
      </trkpt>
      <trkpt lat="44.58629" lon="6.85849">
        <ele>2109</ele>
        <time>2020-02-17T08:47:05.000Z</time>
      </trkpt>
      <trkpt lat="44.58626" lon="6.85854">
        <ele>2110</ele>
        <time>2020-02-17T08:47:13.000Z</time>
      </trkpt>
      <trkpt lat="44.58626" lon="6.85861">
        <ele>2110</ele>
        <time>2020-02-17T08:47:22.000Z</time>
      </trkpt>
      <trkpt lat="44.58625" lon="6.85864">
        <ele>2110</ele>
        <time>2020-02-17T08:47:28.000Z</time>
      </trkpt>
      <trkpt lat="44.58624" lon="6.85865">
        <ele>2110</ele>
        <time>2020-02-17T08:47:32.000Z</time>
      </trkpt>
      <trkpt lat="44.58621" lon="6.85866">
        <ele>2111</ele>
        <time>2020-02-17T08:47:36.000Z</time>
      </trkpt>
      <trkpt lat="44.58619" lon="6.85866">
        <ele>2111</ele>
        <time>2020-02-17T08:47:38.000Z</time>
      </trkpt>
      <trkpt lat="44.58615" lon="6.85867">
        <ele>2111</ele>
        <time>2020-02-17T08:47:42.000Z</time>
      </trkpt>
      <trkpt lat="44.58614" lon="6.85869">
        <ele>2111</ele>
        <time>2020-02-17T08:47:45.000Z</time>
      </trkpt>
      <trkpt lat="44.58611" lon="6.85872">
        <ele>2112</ele>
        <time>2020-02-17T08:47:53.000Z</time>
      </trkpt>
      <trkpt lat="44.58607" lon="6.85876">
        <ele>2112</ele>
        <time>2020-02-17T08:48:01.000Z</time>
      </trkpt>
      <trkpt lat="44.58604" lon="6.85878">
        <ele>2113</ele>
        <time>2020-02-17T08:48:09.000Z</time>
      </trkpt>
      <trkpt lat="44.586" lon="6.85882">
        <ele>2114</ele>
        <time>2020-02-17T08:48:18.000Z</time>
      </trkpt>
      <trkpt lat="44.58599" lon="6.85886">
        <ele>2114</ele>
        <time>2020-02-17T08:48:25.000Z</time>
      </trkpt>
      <trkpt lat="44.58597" lon="6.85891">
        <ele>2115</ele>
        <time>2020-02-17T08:48:31.000Z</time>
      </trkpt>
      <trkpt lat="44.58595" lon="6.85896">
        <ele>2117</ele>
        <time>2020-02-17T08:48:38.000Z</time>
      </trkpt>
      <trkpt lat="44.58591" lon="6.85897">
        <ele>2117</ele>
        <time>2020-02-17T08:48:48.000Z</time>
      </trkpt>
      <trkpt lat="44.5859" lon="6.85899">
        <ele>2118</ele>
        <time>2020-02-17T08:48:55.000Z</time>
      </trkpt>
      <trkpt lat="44.58586" lon="6.85903">
        <ele>2120</ele>
        <time>2020-02-17T08:49:02.000Z</time>
      </trkpt>
      <trkpt lat="44.58582" lon="6.85901">
        <ele>2124</ele>
        <time>2020-02-17T08:49:10.000Z</time>
      </trkpt>
      <trkpt lat="44.5858" lon="6.85902">
        <ele>2124</ele>
        <time>2020-02-17T08:49:16.000Z</time>
      </trkpt>
      <trkpt lat="44.58576" lon="6.85905">
        <ele>2124</ele>
        <time>2020-02-17T08:49:24.000Z</time>
      </trkpt>
      <trkpt lat="44.5857" lon="6.85909">
        <ele>2124</ele>
        <time>2020-02-17T08:49:33.000Z</time>
      </trkpt>
      <trkpt lat="44.58564" lon="6.85913">
        <ele>2124</ele>
        <time>2020-02-17T08:49:43.000Z</time>
      </trkpt>
      <trkpt lat="44.5856" lon="6.85913">
        <ele>2124</ele>
        <time>2020-02-17T08:49:51.000Z</time>
      </trkpt>
      <trkpt lat="44.5856" lon="6.85914">
        <ele>2125</ele>
        <time>2020-02-17T08:49:55.000Z</time>
      </trkpt>
      <trkpt lat="44.58558" lon="6.85912">
        <ele>2124</ele>
        <time>2020-02-17T08:50:02.000Z</time>
      </trkpt>
      <trkpt lat="44.58558" lon="6.85912">
        <ele>2124</ele>
        <time>2020-02-17T08:50:03.000Z</time>
      </trkpt>
      <trkpt lat="44.58558" lon="6.85912">
        <ele>2124</ele>
        <time>2020-02-17T08:50:05.000Z</time>
      </trkpt>
      <trkpt lat="44.58557" lon="6.85915">
        <ele>2125</ele>
        <time>2020-02-17T08:50:09.000Z</time>
      </trkpt>
      <trkpt lat="44.58556" lon="6.85916">
        <ele>2125</ele>
        <time>2020-02-17T08:50:11.000Z</time>
      </trkpt>
      <trkpt lat="44.58555" lon="6.85918">
        <ele>2139</ele>
        <time>2020-02-17T08:50:16.000Z</time>
      </trkpt>
      <trkpt lat="44.58552" lon="6.85925">
        <ele>2140</ele>
        <time>2020-02-17T08:50:28.000Z</time>
      </trkpt>
      <trkpt lat="44.58552" lon="6.85929">
        <ele>2141</ele>
        <time>2020-02-17T08:50:38.000Z</time>
      </trkpt>
      <trkpt lat="44.58552" lon="6.85929">
        <ele>2141</ele>
        <time>2020-02-17T08:50:41.000Z</time>
      </trkpt>
      <trkpt lat="44.58552" lon="6.85929">
        <ele>2141</ele>
        <time>2020-02-17T08:50:43.000Z</time>
      </trkpt>
      <trkpt lat="44.58552" lon="6.85929">
        <ele>2140</ele>
        <time>2020-02-17T08:50:44.000Z</time>
      </trkpt>
      <trkpt lat="44.58553" lon="6.85928">
        <ele>2140</ele>
        <time>2020-02-17T08:50:46.000Z</time>
      </trkpt>
      <trkpt lat="44.58553" lon="6.85925">
        <ele>2140</ele>
        <time>2020-02-17T08:50:51.000Z</time>
      </trkpt>
      <trkpt lat="44.58553" lon="6.85925">
        <ele>2140</ele>
        <time>2020-02-17T08:50:52.000Z</time>
      </trkpt>
      <trkpt lat="44.58553" lon="6.85924">
        <ele>2140</ele>
        <time>2020-02-17T08:50:53.000Z</time>
      </trkpt>
      <trkpt lat="44.58553" lon="6.85922">
        <ele>2140</ele>
        <time>2020-02-17T08:51:00.000Z</time>
      </trkpt>
      <trkpt lat="44.58552" lon="6.85923">
        <ele>2140</ele>
        <time>2020-02-17T08:51:04.000Z</time>
      </trkpt>
      <trkpt lat="44.58552" lon="6.85921">
        <ele>2140</ele>
        <time>2020-02-17T08:51:12.000Z</time>
      </trkpt>
      <trkpt lat="44.58552" lon="6.85921">
        <ele>2140</ele>
        <time>2020-02-17T08:51:13.000Z</time>
      </trkpt>
      <trkpt lat="44.58552" lon="6.8592">
        <ele>2140</ele>
        <time>2020-02-17T08:51:17.000Z</time>
      </trkpt>
      <trkpt lat="44.58551" lon="6.85921">
        <ele>2140</ele>
        <time>2020-02-17T08:51:37.000Z</time>
      </trkpt>
      <trkpt lat="44.58551" lon="6.85921">
        <ele>2140</ele>
        <time>2020-02-17T08:51:52.000Z</time>
      </trkpt>
      <trkpt lat="44.58551" lon="6.85921">
        <ele>2140</ele>
        <time>2020-02-17T08:51:55.000Z</time>
      </trkpt>
      <trkpt lat="44.58554" lon="6.85918">
        <ele>2139</ele>
        <time>2020-02-17T08:52:07.000Z</time>
      </trkpt>
      <trkpt lat="44.58556" lon="6.85917">
        <ele>2125</ele>
        <time>2020-02-17T08:52:28.000Z</time>
      </trkpt>
      <trkpt lat="44.58556" lon="6.85916">
        <ele>2125</ele>
        <time>2020-02-17T08:52:31.000Z</time>
      </trkpt>
      <trkpt lat="44.58556" lon="6.85916">
        <ele>2125</ele>
        <time>2020-02-17T08:52:35.000Z</time>
      </trkpt>
      <trkpt lat="44.58556" lon="6.85915">
        <ele>2125</ele>
        <time>2020-02-17T08:52:41.000Z</time>
      </trkpt>
      <trkpt lat="44.58556" lon="6.85915">
        <ele>2125</ele>
        <time>2020-02-17T08:52:42.000Z</time>
      </trkpt>
      <trkpt lat="44.58556" lon="6.85914">
        <ele>2125</ele>
        <time>2020-02-17T08:52:44.000Z</time>
      </trkpt>
      <trkpt lat="44.58556" lon="6.85914">
        <ele>2125</ele>
        <time>2020-02-17T08:52:45.000Z</time>
      </trkpt>
      <trkpt lat="44.58555" lon="6.85912">
        <ele>2125</ele>
        <time>2020-02-17T08:52:53.000Z</time>
      </trkpt>
      <trkpt lat="44.58555" lon="6.85912">
        <ele>2125</ele>
        <time>2020-02-17T08:52:54.000Z</time>
      </trkpt>
      <trkpt lat="44.58555" lon="6.85911">
        <ele>2125</ele>
        <time>2020-02-17T08:52:59.000Z</time>
      </trkpt>
      <trkpt lat="44.58555" lon="6.85911">
        <ele>2125</ele>
        <time>2020-02-17T08:53:01.000Z</time>
      </trkpt>
      <trkpt lat="44.58555" lon="6.85911">
        <ele>2125</ele>
        <time>2020-02-17T08:53:02.000Z</time>
      </trkpt>
      <trkpt lat="44.58555" lon="6.85911">
        <ele>2125</ele>
        <time>2020-02-17T08:53:03.000Z</time>
      </trkpt>
      <trkpt lat="44.58555" lon="6.85911">
        <ele>2125</ele>
        <time>2020-02-17T08:53:04.000Z</time>
      </trkpt>
      <trkpt lat="44.58554" lon="6.8591">
        <ele>2125</ele>
        <time>2020-02-17T08:53:06.000Z</time>
      </trkpt>
      <trkpt lat="44.58554" lon="6.85908">
        <ele>2124</ele>
        <time>2020-02-17T08:53:11.000Z</time>
      </trkpt>
      <trkpt lat="44.58555" lon="6.85909">
        <ele>2124</ele>
        <time>2020-02-17T08:53:23.000Z</time>
      </trkpt>
      <trkpt lat="44.58555" lon="6.85911">
        <ele>2125</ele>
        <time>2020-02-17T08:53:25.000Z</time>
      </trkpt>
      <trkpt lat="44.58551" lon="6.85926">
        <ele>2140</ele>
        <time>2020-02-17T08:53:36.000Z</time>
      </trkpt>
      <trkpt lat="44.58551" lon="6.85932">
        <ele>2141</ele>
        <time>2020-02-17T08:53:41.000Z</time>
      </trkpt>
      <trkpt lat="44.58551" lon="6.85932">
        <ele>2141</ele>
        <time>2020-02-17T08:53:44.000Z</time>
      </trkpt>
      <trkpt lat="44.58552" lon="6.85933">
        <ele>2141</ele>
        <time>2020-02-17T08:53:48.000Z</time>
      </trkpt>
      <trkpt lat="44.58552" lon="6.85933">
        <ele>2141</ele>
        <time>2020-02-17T08:53:49.000Z</time>
      </trkpt>
      <trkpt lat="44.58555" lon="6.85934">
        <ele>2141</ele>
        <time>2020-02-17T08:53:56.000Z</time>
      </trkpt>
      <trkpt lat="44.58556" lon="6.85934">
        <ele>2141</ele>
        <time>2020-02-17T08:53:58.000Z</time>
      </trkpt>
      <trkpt lat="44.58555" lon="6.85936">
        <ele>2141</ele>
        <time>2020-02-17T08:54:04.000Z</time>
      </trkpt>
      <trkpt lat="44.58554" lon="6.85936">
        <ele>2141</ele>
        <time>2020-02-17T08:54:06.000Z</time>
      </trkpt>
      <trkpt lat="44.58553" lon="6.85935">
        <ele>2141</ele>
        <time>2020-02-17T08:54:08.000Z</time>
      </trkpt>
      <trkpt lat="44.58553" lon="6.85935">
        <ele>2141</ele>
        <time>2020-02-17T08:54:09.000Z</time>
      </trkpt>
      <trkpt lat="44.58552" lon="6.85929">
        <ele>2141</ele>
        <time>2020-02-17T08:54:21.000Z</time>
      </trkpt>
      <trkpt lat="44.58552" lon="6.85928">
        <ele>2141</ele>
        <time>2020-02-17T08:54:34.000Z</time>
      </trkpt>
      <trkpt lat="44.58551" lon="6.85927">
        <ele>2141</ele>
        <time>2020-02-17T08:54:37.000Z</time>
      </trkpt>
      <trkpt lat="44.58551" lon="6.85927">
        <ele>2140</ele>
        <time>2020-02-17T08:54:39.000Z</time>
      </trkpt>
      <trkpt lat="44.58551" lon="6.85927">
        <ele>2141</ele>
        <time>2020-02-17T08:54:40.000Z</time>
      </trkpt>
      <trkpt lat="44.5855" lon="6.85927">
        <ele>2141</ele>
        <time>2020-02-17T08:54:43.000Z</time>
      </trkpt>
      <trkpt lat="44.58551" lon="6.85928">
        <ele>2141</ele>
        <time>2020-02-17T08:54:46.000Z</time>
      </trkpt>
      <trkpt lat="44.58551" lon="6.85928">
        <ele>2141</ele>
        <time>2020-02-17T08:54:48.000Z</time>
      </trkpt>
      <trkpt lat="44.58551" lon="6.85928">
        <ele>2141</ele>
        <time>2020-02-17T08:54:49.000Z</time>
      </trkpt>
      <trkpt lat="44.5855" lon="6.85928">
        <ele>2141</ele>
        <time>2020-02-17T08:54:50.000Z</time>
      </trkpt>
      <trkpt lat="44.58551" lon="6.85929">
        <ele>2141</ele>
        <time>2020-02-17T08:54:51.000Z</time>
      </trkpt>
      <trkpt lat="44.58551" lon="6.85929">
        <ele>2141</ele>
        <time>2020-02-17T08:54:59.000Z</time>
      </trkpt>
      <trkpt lat="44.58551" lon="6.8593">
        <ele>2141</ele>
        <time>2020-02-17T08:55:03.000Z</time>
      </trkpt>
      <trkpt lat="44.58551" lon="6.8593">
        <ele>2141</ele>
        <time>2020-02-17T08:55:04.000Z</time>
      </trkpt>
      <trkpt lat="44.58551" lon="6.85931">
        <ele>2141</ele>
        <time>2020-02-17T08:55:05.000Z</time>
      </trkpt>
      <trkpt lat="44.58551" lon="6.85932">
        <ele>2141</ele>
        <time>2020-02-17T08:55:07.000Z</time>
      </trkpt>
      <trkpt lat="44.58552" lon="6.85932">
        <ele>2141</ele>
        <time>2020-02-17T08:55:08.000Z</time>
      </trkpt>
      <trkpt lat="44.58552" lon="6.85933">
        <ele>2141</ele>
        <time>2020-02-17T08:55:09.000Z</time>
      </trkpt>
      <trkpt lat="44.58552" lon="6.85933">
        <ele>2141</ele>
        <time>2020-02-17T08:55:11.000Z</time>
      </trkpt>
      <trkpt lat="44.58553" lon="6.85933">
        <ele>2141</ele>
        <time>2020-02-17T08:55:14.000Z</time>
      </trkpt>
      <trkpt lat="44.58553" lon="6.85932">
        <ele>2141</ele>
        <time>2020-02-17T08:55:15.000Z</time>
      </trkpt>
      <trkpt lat="44.58553" lon="6.85932">
        <ele>2141</ele>
        <time>2020-02-17T08:55:16.000Z</time>
      </trkpt>
      <trkpt lat="44.58553" lon="6.85931">
        <ele>2141</ele>
        <time>2020-02-17T08:55:18.000Z</time>
      </trkpt>
      <trkpt lat="44.58552" lon="6.85932">
        <ele>2141</ele>
        <time>2020-02-17T08:55:20.000Z</time>
      </trkpt>
      <trkpt lat="44.58552" lon="6.85932">
        <ele>2141</ele>
        <time>2020-02-17T08:55:21.000Z</time>
      </trkpt>
      <trkpt lat="44.58553" lon="6.85932">
        <ele>2141</ele>
        <time>2020-02-17T08:55:24.000Z</time>
      </trkpt>
      <trkpt lat="44.58552" lon="6.85929">
        <ele>2141</ele>
        <time>2020-02-17T08:55:32.000Z</time>
      </trkpt>
      <trkpt lat="44.58549" lon="6.85927">
        <ele>2141</ele>
        <time>2020-02-17T08:55:41.000Z</time>
      </trkpt>
      <trkpt lat="44.58548" lon="6.85928">
        <ele>2141</ele>
        <time>2020-02-17T08:55:46.000Z</time>
      </trkpt>
      <trkpt lat="44.58549" lon="6.85929">
        <ele>2141</ele>
        <time>2020-02-17T08:55:50.000Z</time>
      </trkpt>
      <trkpt lat="44.58549" lon="6.85929">
        <ele>2141</ele>
        <time>2020-02-17T08:55:51.000Z</time>
      </trkpt>
      <trkpt lat="44.58549" lon="6.85929">
        <ele>2141</ele>
        <time>2020-02-17T08:55:52.000Z</time>
      </trkpt>
      <trkpt lat="44.58545" lon="6.8593">
        <ele>2142</ele>
        <time>2020-02-17T08:56:05.000Z</time>
      </trkpt>
      <trkpt lat="44.58542" lon="6.8593">
        <ele>2142</ele>
        <time>2020-02-17T08:56:10.000Z</time>
      </trkpt>
      <trkpt lat="44.5854" lon="6.8593">
        <ele>2143</ele>
        <time>2020-02-17T08:56:14.000Z</time>
      </trkpt>
      <trkpt lat="44.58539" lon="6.8593">
        <ele>2143</ele>
        <time>2020-02-17T08:56:16.000Z</time>
      </trkpt>
      <trkpt lat="44.58537" lon="6.85928">
        <ele>2143</ele>
        <time>2020-02-17T08:56:21.000Z</time>
      </trkpt>
      <trkpt lat="44.58534" lon="6.85928">
        <ele>2143</ele>
        <time>2020-02-17T08:56:26.000Z</time>
      </trkpt>
      <trkpt lat="44.58533" lon="6.85929">
        <ele>2143</ele>
        <time>2020-02-17T08:56:30.000Z</time>
      </trkpt>
      <trkpt lat="44.58532" lon="6.85929">
        <ele>2143</ele>
        <time>2020-02-17T08:56:32.000Z</time>
      </trkpt>
      <trkpt lat="44.58531" lon="6.85929">
        <ele>2143</ele>
        <time>2020-02-17T08:56:34.000Z</time>
      </trkpt>
      <trkpt lat="44.5853" lon="6.85929">
        <ele>2143</ele>
        <time>2020-02-17T08:56:37.000Z</time>
      </trkpt>
      <trkpt lat="44.58531" lon="6.85929">
        <ele>2143</ele>
        <time>2020-02-17T08:56:49.000Z</time>
      </trkpt>
      <trkpt lat="44.58531" lon="6.8593">
        <ele>2143</ele>
        <time>2020-02-17T08:56:53.000Z</time>
      </trkpt>
      <trkpt lat="44.58534" lon="6.85935">
        <ele>2144</ele>
        <time>2020-02-17T08:57:07.000Z</time>
      </trkpt>
      <trkpt lat="44.58534" lon="6.85935">
        <ele>2144</ele>
        <time>2020-02-17T08:57:10.000Z</time>
      </trkpt>
      <trkpt lat="44.58534" lon="6.85936">
        <ele>2144</ele>
        <time>2020-02-17T08:57:13.000Z</time>
      </trkpt>
      <trkpt lat="44.58535" lon="6.85936">
        <ele>2144</ele>
        <time>2020-02-17T08:57:25.000Z</time>
      </trkpt>
      <trkpt lat="44.58534" lon="6.85936">
        <ele>2144</ele>
        <time>2020-02-17T08:57:28.000Z</time>
      </trkpt>
      <trkpt lat="44.58532" lon="6.85937">
        <ele>2144</ele>
        <time>2020-02-17T08:57:37.000Z</time>
      </trkpt>
      <trkpt lat="44.58532" lon="6.85937">
        <ele>2144</ele>
        <time>2020-02-17T08:57:40.000Z</time>
      </trkpt>
      <trkpt lat="44.58533" lon="6.85937">
        <ele>2144</ele>
        <time>2020-02-17T08:57:42.000Z</time>
      </trkpt>
      <trkpt lat="44.58534" lon="6.85937">
        <ele>2144</ele>
        <time>2020-02-17T08:57:43.000Z</time>
      </trkpt>
      <trkpt lat="44.58535" lon="6.85936">
        <ele>2144</ele>
        <time>2020-02-17T08:57:44.000Z</time>
      </trkpt>
      <trkpt lat="44.58536" lon="6.85936">
        <ele>2144</ele>
        <time>2020-02-17T08:57:46.000Z</time>
      </trkpt>
      <trkpt lat="44.58547" lon="6.8594">
        <ele>2143</ele>
        <time>2020-02-17T08:58:18.000Z</time>
      </trkpt>
      <trkpt lat="44.58547" lon="6.85941">
        <ele>2143</ele>
        <time>2020-02-17T08:58:20.000Z</time>
      </trkpt>
      <trkpt lat="44.58547" lon="6.85941">
        <ele>2143</ele>
        <time>2020-02-17T08:58:21.000Z</time>
      </trkpt>
      <trkpt lat="44.58546" lon="6.85941">
        <ele>2143</ele>
        <time>2020-02-17T08:58:23.000Z</time>
      </trkpt>
      <trkpt lat="44.58532" lon="6.85938">
        <ele>2144</ele>
        <time>2020-02-17T08:58:36.000Z</time>
      </trkpt>
      <trkpt lat="44.58532" lon="6.85938">
        <ele>2144</ele>
        <time>2020-02-17T08:58:37.000Z</time>
      </trkpt>
      <trkpt lat="44.58531" lon="6.85938">
        <ele>2144</ele>
        <time>2020-02-17T08:58:38.000Z</time>
      </trkpt>
      <trkpt lat="44.5853" lon="6.85938">
        <ele>2144</ele>
        <time>2020-02-17T08:58:39.000Z</time>
      </trkpt>
      <trkpt lat="44.58529" lon="6.85939">
        <ele>2144</ele>
        <time>2020-02-17T08:58:47.000Z</time>
      </trkpt>
      <trkpt lat="44.58529" lon="6.85938">
        <ele>2144</ele>
        <time>2020-02-17T08:58:55.000Z</time>
      </trkpt>
      <trkpt lat="44.58529" lon="6.85938">
        <ele>2144</ele>
        <time>2020-02-17T08:58:57.000Z</time>
      </trkpt>
      <trkpt lat="44.58529" lon="6.85939">
        <ele>2144</ele>
        <time>2020-02-17T08:59:01.000Z</time>
      </trkpt>
      <trkpt lat="44.58529" lon="6.85939">
        <ele>2144</ele>
        <time>2020-02-17T08:59:04.000Z</time>
      </trkpt>
      <trkpt lat="44.58528" lon="6.85939">
        <ele>2145</ele>
        <time>2020-02-17T08:59:08.000Z</time>
      </trkpt>
      <trkpt lat="44.58528" lon="6.85939">
        <ele>2145</ele>
        <time>2020-02-17T08:59:09.000Z</time>
      </trkpt>
      <trkpt lat="44.58528" lon="6.85939">
        <ele>2145</ele>
        <time>2020-02-17T08:59:11.000Z</time>
      </trkpt>
      <trkpt lat="44.58528" lon="6.85939">
        <ele>2144</ele>
        <time>2020-02-17T08:59:15.000Z</time>
      </trkpt>
      <trkpt lat="44.58528" lon="6.85938">
        <ele>2144</ele>
        <time>2020-02-17T08:59:17.000Z</time>
      </trkpt>
      <trkpt lat="44.58528" lon="6.85938">
        <ele>2144</ele>
        <time>2020-02-17T08:59:19.000Z</time>
      </trkpt>
      <trkpt lat="44.58528" lon="6.85938">
        <ele>2144</ele>
        <time>2020-02-17T08:59:33.000Z</time>
      </trkpt>
      <trkpt lat="44.58528" lon="6.85938">
        <ele>2144</ele>
        <time>2020-02-17T08:59:34.000Z</time>
      </trkpt>
      <trkpt lat="44.58528" lon="6.85938">
        <ele>2144</ele>
        <time>2020-02-17T08:59:35.000Z</time>
      </trkpt>
      <trkpt lat="44.58528" lon="6.85939">
        <ele>2144</ele>
        <time>2020-02-17T08:59:36.000Z</time>
      </trkpt>
      <trkpt lat="44.58527" lon="6.85938">
        <ele>2144</ele>
        <time>2020-02-17T08:59:38.000Z</time>
      </trkpt>
      <trkpt lat="44.58527" lon="6.85938">
        <ele>2144</ele>
        <time>2020-02-17T08:59:39.000Z</time>
      </trkpt>
      <trkpt lat="44.58527" lon="6.85937">
        <ele>2144</ele>
        <time>2020-02-17T08:59:43.000Z</time>
      </trkpt>
      <trkpt lat="44.58526" lon="6.85938">
        <ele>2144</ele>
        <time>2020-02-17T08:59:46.000Z</time>
      </trkpt>
      <trkpt lat="44.58524" lon="6.85938">
        <ele>2145</ele>
        <time>2020-02-17T08:59:56.000Z</time>
      </trkpt>
      <trkpt lat="44.58525" lon="6.85938">
        <ele>2145</ele>
        <time>2020-02-17T08:59:59.000Z</time>
      </trkpt>
      <trkpt lat="44.58525" lon="6.85939">
        <ele>2145</ele>
        <time>2020-02-17T09:00:01.000Z</time>
      </trkpt>
      <trkpt lat="44.58526" lon="6.85941">
        <ele>2145</ele>
        <time>2020-02-17T09:00:04.000Z</time>
      </trkpt>
      <trkpt lat="44.58526" lon="6.85942">
        <ele>2145</ele>
        <time>2020-02-17T09:00:07.000Z</time>
      </trkpt>
      <trkpt lat="44.58529" lon="6.85945">
        <ele>2145</ele>
        <time>2020-02-17T09:00:12.000Z</time>
      </trkpt>
      <trkpt lat="44.58529" lon="6.85945">
        <ele>2145</ele>
        <time>2020-02-17T09:00:13.000Z</time>
      </trkpt>
      <trkpt lat="44.5853" lon="6.85944">
        <ele>2145</ele>
        <time>2020-02-17T09:00:20.000Z</time>
      </trkpt>
      <trkpt lat="44.58529" lon="6.85944">
        <ele>2145</ele>
        <time>2020-02-17T09:00:23.000Z</time>
      </trkpt>
      <trkpt lat="44.58526" lon="6.85943">
        <ele>2145</ele>
        <time>2020-02-17T09:00:33.000Z</time>
      </trkpt>
      <trkpt lat="44.58525" lon="6.85943">
        <ele>2145</ele>
        <time>2020-02-17T09:00:37.000Z</time>
      </trkpt>
      <trkpt lat="44.58523" lon="6.85943">
        <ele>2145</ele>
        <time>2020-02-17T09:00:42.000Z</time>
      </trkpt>
      <trkpt lat="44.58521" lon="6.85944">
        <ele>2146</ele>
        <time>2020-02-17T09:00:49.000Z</time>
      </trkpt>
      <trkpt lat="44.58518" lon="6.85944">
        <ele>2146</ele>
        <time>2020-02-17T09:00:56.000Z</time>
      </trkpt>
      <trkpt lat="44.58515" lon="6.85942">
        <ele>2145</ele>
        <time>2020-02-17T09:01:06.000Z</time>
      </trkpt>
      <trkpt lat="44.58514" lon="6.85941">
        <ele>2145</ele>
        <time>2020-02-17T09:01:16.000Z</time>
      </trkpt>
      <trkpt lat="44.58511" lon="6.8594">
        <ele>2145</ele>
        <time>2020-02-17T09:01:24.000Z</time>
      </trkpt>
      <trkpt lat="44.5851" lon="6.8594">
        <ele>2145</ele>
        <time>2020-02-17T09:01:34.000Z</time>
      </trkpt>
      <trkpt lat="44.58508" lon="6.85941">
        <ele>2145</ele>
        <time>2020-02-17T09:01:40.000Z</time>
      </trkpt>
      <trkpt lat="44.58507" lon="6.8594">
        <ele>2145</ele>
        <time>2020-02-17T09:01:45.000Z</time>
      </trkpt>
      <trkpt lat="44.58504" lon="6.85938">
        <ele>2145</ele>
        <time>2020-02-17T09:01:51.000Z</time>
      </trkpt>
      <trkpt lat="44.58503" lon="6.85938">
        <ele>2145</ele>
        <time>2020-02-17T09:01:53.000Z</time>
      </trkpt>
      <trkpt lat="44.58502" lon="6.85938">
        <ele>2145</ele>
        <time>2020-02-17T09:01:54.000Z</time>
      </trkpt>
      <trkpt lat="44.585" lon="6.85939">
        <ele>2145</ele>
        <time>2020-02-17T09:01:58.000Z</time>
      </trkpt>
      <trkpt lat="44.585" lon="6.85939">
        <ele>2145</ele>
        <time>2020-02-17T09:01:59.000Z</time>
      </trkpt>
      <trkpt lat="44.58497" lon="6.8594">
        <ele>2151</ele>
        <time>2020-02-17T09:02:03.000Z</time>
      </trkpt>
      <trkpt lat="44.58496" lon="6.8594">
        <ele>2151</ele>
        <time>2020-02-17T09:02:05.000Z</time>
      </trkpt>
      <trkpt lat="44.58494" lon="6.8594">
        <ele>2152</ele>
        <time>2020-02-17T09:02:09.000Z</time>
      </trkpt>
      <trkpt lat="44.58494" lon="6.8594">
        <ele>2152</ele>
        <time>2020-02-17T09:02:10.000Z</time>
      </trkpt>
      <trkpt lat="44.58492" lon="6.8594">
        <ele>2152</ele>
        <time>2020-02-17T09:02:14.000Z</time>
      </trkpt>
      <trkpt lat="44.5849" lon="6.8594">
        <ele>2152</ele>
        <time>2020-02-17T09:02:17.000Z</time>
      </trkpt>
      <trkpt lat="44.58489" lon="6.8594">
        <ele>2152</ele>
        <time>2020-02-17T09:02:18.000Z</time>
      </trkpt>
      <trkpt lat="44.58488" lon="6.85941">
        <ele>2153</ele>
        <time>2020-02-17T09:02:20.000Z</time>
      </trkpt>
      <trkpt lat="44.58488" lon="6.85942">
        <ele>2153</ele>
        <time>2020-02-17T09:02:21.000Z</time>
      </trkpt>
      <trkpt lat="44.58487" lon="6.85942">
        <ele>2153</ele>
        <time>2020-02-17T09:02:22.000Z</time>
      </trkpt>
      <trkpt lat="44.58486" lon="6.85943">
        <ele>2153</ele>
        <time>2020-02-17T09:02:23.000Z</time>
      </trkpt>
      <trkpt lat="44.58483" lon="6.85943">
        <ele>2154</ele>
        <time>2020-02-17T09:02:26.000Z</time>
      </trkpt>
      <trkpt lat="44.5848" lon="6.85944">
        <ele>2154</ele>
        <time>2020-02-17T09:02:31.000Z</time>
      </trkpt>
      <trkpt lat="44.58479" lon="6.85943">
        <ele>2154</ele>
        <time>2020-02-17T09:02:32.000Z</time>
      </trkpt>
      <trkpt lat="44.58478" lon="6.85944">
        <ele>2154</ele>
        <time>2020-02-17T09:02:33.000Z</time>
      </trkpt>
      <trkpt lat="44.58478" lon="6.85944">
        <ele>2154</ele>
        <time>2020-02-17T09:02:34.000Z</time>
      </trkpt>
      <trkpt lat="44.58477" lon="6.85944">
        <ele>2155</ele>
        <time>2020-02-17T09:02:36.000Z</time>
      </trkpt>
      <trkpt lat="44.58476" lon="6.85945">
        <ele>2155</ele>
        <time>2020-02-17T09:02:38.000Z</time>
      </trkpt>
      <trkpt lat="44.58473" lon="6.85947">
        <ele>2155</ele>
        <time>2020-02-17T09:02:43.000Z</time>
      </trkpt>
      <trkpt lat="44.58471" lon="6.85946">
        <ele>2156</ele>
        <time>2020-02-17T09:02:46.000Z</time>
      </trkpt>
      <trkpt lat="44.58469" lon="6.85946">
        <ele>2156</ele>
        <time>2020-02-17T09:02:50.000Z</time>
      </trkpt>
      <trkpt lat="44.58464" lon="6.85943">
        <ele>2156</ele>
        <time>2020-02-17T09:02:57.000Z</time>
      </trkpt>
      <trkpt lat="44.58463" lon="6.85943">
        <ele>2156</ele>
        <time>2020-02-17T09:02:58.000Z</time>
      </trkpt>
      <trkpt lat="44.58458" lon="6.85941">
        <ele>2156</ele>
        <time>2020-02-17T09:03:04.000Z</time>
      </trkpt>
      <trkpt lat="44.58455" lon="6.85942">
        <ele>2156</ele>
        <time>2020-02-17T09:03:10.000Z</time>
      </trkpt>
      <trkpt lat="44.58453" lon="6.85942">
        <ele>2156</ele>
        <time>2020-02-17T09:03:12.000Z</time>
      </trkpt>
      <trkpt lat="44.58452" lon="6.85942">
        <ele>2156</ele>
        <time>2020-02-17T09:03:14.000Z</time>
      </trkpt>
      <trkpt lat="44.58449" lon="6.85942">
        <ele>2156</ele>
        <time>2020-02-17T09:03:18.000Z</time>
      </trkpt>
      <trkpt lat="44.58447" lon="6.85943">
        <ele>2156</ele>
        <time>2020-02-17T09:03:21.000Z</time>
      </trkpt>
      <trkpt lat="44.58443" lon="6.85945">
        <ele>2157</ele>
        <time>2020-02-17T09:03:26.000Z</time>
      </trkpt>
      <trkpt lat="44.58442" lon="6.85946">
        <ele>2157</ele>
        <time>2020-02-17T09:03:28.000Z</time>
      </trkpt>
      <trkpt lat="44.58441" lon="6.85945">
        <ele>2157</ele>
        <time>2020-02-17T09:03:30.000Z</time>
      </trkpt>
      <trkpt lat="44.58442" lon="6.85945">
        <ele>2157</ele>
        <time>2020-02-17T09:03:45.000Z</time>
      </trkpt>
      <trkpt lat="44.58443" lon="6.85945">
        <ele>2157</ele>
        <time>2020-02-17T09:03:47.000Z</time>
      </trkpt>
      <trkpt lat="44.58444" lon="6.85945">
        <ele>2157</ele>
        <time>2020-02-17T09:03:51.000Z</time>
      </trkpt>
      <trkpt lat="44.58443" lon="6.85945">
        <ele>2157</ele>
        <time>2020-02-17T09:03:56.000Z</time>
      </trkpt>
      <trkpt lat="44.58443" lon="6.85945">
        <ele>2157</ele>
        <time>2020-02-17T09:03:59.000Z</time>
      </trkpt>
      <trkpt lat="44.58442" lon="6.85944">
        <ele>2157</ele>
        <time>2020-02-17T09:04:03.000Z</time>
      </trkpt>
      <trkpt lat="44.58442" lon="6.85944">
        <ele>2157</ele>
        <time>2020-02-17T09:04:04.000Z</time>
      </trkpt>
      <trkpt lat="44.58441" lon="6.85944">
        <ele>2157</ele>
        <time>2020-02-17T09:04:06.000Z</time>
      </trkpt>
      <trkpt lat="44.58441" lon="6.85944">
        <ele>2157</ele>
        <time>2020-02-17T09:04:16.000Z</time>
      </trkpt>
      <trkpt lat="44.58442" lon="6.85943">
        <ele>2157</ele>
        <time>2020-02-17T09:04:20.000Z</time>
      </trkpt>
      <trkpt lat="44.58442" lon="6.85943">
        <ele>2157</ele>
        <time>2020-02-17T09:04:21.000Z</time>
      </trkpt>
      <trkpt lat="44.58442" lon="6.85943">
        <ele>2157</ele>
        <time>2020-02-17T09:04:22.000Z</time>
      </trkpt>
      <trkpt lat="44.58442" lon="6.85943">
        <ele>2156</ele>
        <time>2020-02-17T09:04:23.000Z</time>
      </trkpt>
      <trkpt lat="44.58442" lon="6.85943">
        <ele>2156</ele>
        <time>2020-02-17T09:04:24.000Z</time>
      </trkpt>
      <trkpt lat="44.58442" lon="6.85943">
        <ele>2156</ele>
        <time>2020-02-17T09:04:25.000Z</time>
      </trkpt>
      <trkpt lat="44.58441" lon="6.85944">
        <ele>2157</ele>
        <time>2020-02-17T09:04:39.000Z</time>
      </trkpt>
      <trkpt lat="44.58441" lon="6.85944">
        <ele>2157</ele>
        <time>2020-02-17T09:04:42.000Z</time>
      </trkpt>
      <trkpt lat="44.58441" lon="6.85944">
        <ele>2157</ele>
        <time>2020-02-17T09:04:44.000Z</time>
      </trkpt>
      <trkpt lat="44.58441" lon="6.85944">
        <ele>2157</ele>
        <time>2020-02-17T09:04:45.000Z</time>
      </trkpt>
      <trkpt lat="44.58441" lon="6.85944">
        <ele>2157</ele>
        <time>2020-02-17T09:04:47.000Z</time>
      </trkpt>
      <trkpt lat="44.58437" lon="6.85944">
        <ele>2157</ele>
        <time>2020-02-17T09:04:55.000Z</time>
      </trkpt>
      <trkpt lat="44.58437" lon="6.85945">
        <ele>2157</ele>
        <time>2020-02-17T09:04:59.000Z</time>
      </trkpt>
      <trkpt lat="44.58436" lon="6.85945">
        <ele>2157</ele>
        <time>2020-02-17T09:05:01.000Z</time>
      </trkpt>
      <trkpt lat="44.58435" lon="6.85945">
        <ele>2157</ele>
        <time>2020-02-17T09:05:03.000Z</time>
      </trkpt>
      <trkpt lat="44.58433" lon="6.85946">
        <ele>2157</ele>
        <time>2020-02-17T09:05:06.000Z</time>
      </trkpt>
      <trkpt lat="44.58435" lon="6.85946">
        <ele>2157</ele>
        <time>2020-02-17T09:05:09.000Z</time>
      </trkpt>
      <trkpt lat="44.58435" lon="6.85945">
        <ele>2157</ele>
        <time>2020-02-17T09:05:10.000Z</time>
      </trkpt>
      <trkpt lat="44.58435" lon="6.85945">
        <ele>2157</ele>
        <time>2020-02-17T09:05:11.000Z</time>
      </trkpt>
      <trkpt lat="44.58438" lon="6.85944">
        <ele>2157</ele>
        <time>2020-02-17T09:05:13.000Z</time>
      </trkpt>
      <trkpt lat="44.58439" lon="6.85944">
        <ele>2157</ele>
        <time>2020-02-17T09:05:17.000Z</time>
      </trkpt>
      <trkpt lat="44.58441" lon="6.85943">
        <ele>2156</ele>
        <time>2020-02-17T09:05:27.000Z</time>
      </trkpt>
      <trkpt lat="44.58441" lon="6.85942">
        <ele>2156</ele>
        <time>2020-02-17T09:05:29.000Z</time>
      </trkpt>
      <trkpt lat="44.58441" lon="6.85941">
        <ele>2156</ele>
        <time>2020-02-17T09:05:36.000Z</time>
      </trkpt>
      <trkpt lat="44.58441" lon="6.85941">
        <ele>2156</ele>
        <time>2020-02-17T09:05:40.000Z</time>
      </trkpt>
      <trkpt lat="44.58442" lon="6.85941">
        <ele>2156</ele>
        <time>2020-02-17T09:05:47.000Z</time>
      </trkpt>
      <trkpt lat="44.58442" lon="6.85941">
        <ele>2156</ele>
        <time>2020-02-17T09:05:52.000Z</time>
      </trkpt>
      <trkpt lat="44.58441" lon="6.85942">
        <ele>2156</ele>
        <time>2020-02-17T09:05:54.000Z</time>
      </trkpt>
      <trkpt lat="44.58441" lon="6.85942">
        <ele>2156</ele>
        <time>2020-02-17T09:05:55.000Z</time>
      </trkpt>
      <trkpt lat="44.58441" lon="6.85941">
        <ele>2156</ele>
        <time>2020-02-17T09:06:00.000Z</time>
      </trkpt>
      <trkpt lat="44.58441" lon="6.85941">
        <ele>2156</ele>
        <time>2020-02-17T09:06:01.000Z</time>
      </trkpt>
      <trkpt lat="44.58441" lon="6.85941">
        <ele>2156</ele>
        <time>2020-02-17T09:06:03.000Z</time>
      </trkpt>
      <trkpt lat="44.5844" lon="6.85941">
        <ele>2156</ele>
        <time>2020-02-17T09:06:09.000Z</time>
      </trkpt>
      <trkpt lat="44.5844" lon="6.85941">
        <ele>2156</ele>
        <time>2020-02-17T09:06:11.000Z</time>
      </trkpt>
      <trkpt lat="44.58441" lon="6.85941">
        <ele>2156</ele>
        <time>2020-02-17T09:06:14.000Z</time>
      </trkpt>
      <trkpt lat="44.58441" lon="6.85941">
        <ele>2156</ele>
        <time>2020-02-17T09:06:19.000Z</time>
      </trkpt>
      <trkpt lat="44.58441" lon="6.85942">
        <ele>2156</ele>
        <time>2020-02-17T09:06:20.000Z</time>
      </trkpt>
      <trkpt lat="44.58441" lon="6.85942">
        <ele>2156</ele>
        <time>2020-02-17T09:06:21.000Z</time>
      </trkpt>
      <trkpt lat="44.58441" lon="6.85942">
        <ele>2156</ele>
        <time>2020-02-17T09:06:22.000Z</time>
      </trkpt>
      <trkpt lat="44.58441" lon="6.85943">
        <ele>2156</ele>
        <time>2020-02-17T09:06:24.000Z</time>
      </trkpt>
      <trkpt lat="44.58442" lon="6.85943">
        <ele>2156</ele>
        <time>2020-02-17T09:06:26.000Z</time>
      </trkpt>
      <trkpt lat="44.58441" lon="6.85944">
        <ele>2157</ele>
        <time>2020-02-17T09:06:32.000Z</time>
      </trkpt>
      <trkpt lat="44.58441" lon="6.85945">
        <ele>2157</ele>
        <time>2020-02-17T09:06:33.000Z</time>
      </trkpt>
      <trkpt lat="44.58442" lon="6.85947">
        <ele>2157</ele>
        <time>2020-02-17T09:06:40.000Z</time>
      </trkpt>
      <trkpt lat="44.58443" lon="6.85946">
        <ele>2157</ele>
        <time>2020-02-17T09:06:42.000Z</time>
      </trkpt>
      <trkpt lat="44.58441" lon="6.85945">
        <ele>2157</ele>
        <time>2020-02-17T09:06:45.000Z</time>
      </trkpt>
      <trkpt lat="44.58441" lon="6.85945">
        <ele>2157</ele>
        <time>2020-02-17T09:06:47.000Z</time>
      </trkpt>
      <trkpt lat="44.5844" lon="6.85945">
        <ele>2157</ele>
        <time>2020-02-17T09:06:51.000Z</time>
      </trkpt>
      <trkpt lat="44.58441" lon="6.85944">
        <ele>2157</ele>
        <time>2020-02-17T09:06:56.000Z</time>
      </trkpt>
      <trkpt lat="44.5844" lon="6.85943">
        <ele>2156</ele>
        <time>2020-02-17T09:07:00.000Z</time>
      </trkpt>
      <trkpt lat="44.58441" lon="6.85944">
        <ele>2157</ele>
        <time>2020-02-17T09:07:03.000Z</time>
      </trkpt>
      <trkpt lat="44.58441" lon="6.85944">
        <ele>2157</ele>
        <time>2020-02-17T09:07:06.000Z</time>
      </trkpt>
      <trkpt lat="44.58442" lon="6.85944">
        <ele>2157</ele>
        <time>2020-02-17T09:07:07.000Z</time>
      </trkpt>
      <trkpt lat="44.58438" lon="6.85945">
        <ele>2157</ele>
        <time>2020-02-17T09:07:18.000Z</time>
      </trkpt>
      <trkpt lat="44.58439" lon="6.85945">
        <ele>2157</ele>
        <time>2020-02-17T09:07:21.000Z</time>
      </trkpt>
      <trkpt lat="44.58439" lon="6.85945">
        <ele>2157</ele>
        <time>2020-02-17T09:07:22.000Z</time>
      </trkpt>
      <trkpt lat="44.58439" lon="6.85945">
        <ele>2157</ele>
        <time>2020-02-17T09:07:23.000Z</time>
      </trkpt>
      <trkpt lat="44.58439" lon="6.85945">
        <ele>2157</ele>
        <time>2020-02-17T09:07:24.000Z</time>
      </trkpt>
      <trkpt lat="44.58442" lon="6.8594">
        <ele>2156</ele>
        <time>2020-02-17T09:07:31.000Z</time>
      </trkpt>
      <trkpt lat="44.58441" lon="6.8594">
        <ele>2156</ele>
        <time>2020-02-17T09:07:56.000Z</time>
      </trkpt>
      <trkpt lat="44.58441" lon="6.85941">
        <ele>2156</ele>
        <time>2020-02-17T09:07:57.000Z</time>
      </trkpt>
      <trkpt lat="44.58441" lon="6.8594">
        <ele>2156</ele>
        <time>2020-02-17T09:07:58.000Z</time>
      </trkpt>
      <trkpt lat="44.5844" lon="6.8594">
        <ele>2156</ele>
        <time>2020-02-17T09:08:00.000Z</time>
      </trkpt>
      <trkpt lat="44.5844" lon="6.8594">
        <ele>2156</ele>
        <time>2020-02-17T09:08:01.000Z</time>
      </trkpt>
      <trkpt lat="44.5844" lon="6.8594">
        <ele>2156</ele>
        <time>2020-02-17T09:08:03.000Z</time>
      </trkpt>
      <trkpt lat="44.5844" lon="6.85941">
        <ele>2156</ele>
        <time>2020-02-17T09:08:04.000Z</time>
      </trkpt>
      <trkpt lat="44.5844" lon="6.85944">
        <ele>2157</ele>
        <time>2020-02-17T09:08:20.000Z</time>
      </trkpt>
      <trkpt lat="44.58441" lon="6.85945">
        <ele>2157</ele>
        <time>2020-02-17T09:08:22.000Z</time>
      </trkpt>
      <trkpt lat="44.58441" lon="6.85944">
        <ele>2157</ele>
        <time>2020-02-17T09:08:27.000Z</time>
      </trkpt>
      <trkpt lat="44.58441" lon="6.85944">
        <ele>2157</ele>
        <time>2020-02-17T09:08:30.000Z</time>
      </trkpt>
      <trkpt lat="44.58441" lon="6.85944">
        <ele>2157</ele>
        <time>2020-02-17T09:08:32.000Z</time>
      </trkpt>
      <trkpt lat="44.5844" lon="6.85941">
        <ele>2156</ele>
        <time>2020-02-17T09:08:46.000Z</time>
      </trkpt>
      <trkpt lat="44.5844" lon="6.85942">
        <ele>2156</ele>
        <time>2020-02-17T09:08:50.000Z</time>
      </trkpt>
      <trkpt lat="44.5844" lon="6.85944">
        <ele>2157</ele>
        <time>2020-02-17T09:08:54.000Z</time>
      </trkpt>
      <trkpt lat="44.5844" lon="6.85945">
        <ele>2157</ele>
        <time>2020-02-17T09:09:04.000Z</time>
      </trkpt>
      <trkpt lat="44.5844" lon="6.85943">
        <ele>2157</ele>
        <time>2020-02-17T09:09:22.000Z</time>
      </trkpt>
      <trkpt lat="44.5844" lon="6.85943">
        <ele>2157</ele>
        <time>2020-02-17T09:09:24.000Z</time>
      </trkpt>
      <trkpt lat="44.5844" lon="6.85942">
        <ele>2156</ele>
        <time>2020-02-17T09:09:41.000Z</time>
      </trkpt>
      <trkpt lat="44.58441" lon="6.85943">
        <ele>2156</ele>
        <time>2020-02-17T09:09:46.000Z</time>
      </trkpt>
      <trkpt lat="44.58441" lon="6.85944">
        <ele>2157</ele>
        <time>2020-02-17T09:09:57.000Z</time>
      </trkpt>
      <trkpt lat="44.58442" lon="6.85946">
        <ele>2157</ele>
        <time>2020-02-17T09:10:01.000Z</time>
      </trkpt>
      <trkpt lat="44.58442" lon="6.85946">
        <ele>2157</ele>
        <time>2020-02-17T09:10:02.000Z</time>
      </trkpt>
      <trkpt lat="44.58442" lon="6.85946">
        <ele>2157</ele>
        <time>2020-02-17T09:10:03.000Z</time>
      </trkpt>
      <trkpt lat="44.58442" lon="6.85946">
        <ele>2157</ele>
        <time>2020-02-17T09:10:04.000Z</time>
      </trkpt>
      <trkpt lat="44.58442" lon="6.85946">
        <ele>2157</ele>
        <time>2020-02-17T09:10:05.000Z</time>
      </trkpt>
      <trkpt lat="44.58442" lon="6.85945">
        <ele>2157</ele>
        <time>2020-02-17T09:10:07.000Z</time>
      </trkpt>
      <trkpt lat="44.58441" lon="6.85946">
        <ele>2157</ele>
        <time>2020-02-17T09:10:12.000Z</time>
      </trkpt>
      <trkpt lat="44.58441" lon="6.85946">
        <ele>2157</ele>
        <time>2020-02-17T09:10:14.000Z</time>
      </trkpt>
      <trkpt lat="44.5844" lon="6.85943">
        <ele>2156</ele>
        <time>2020-02-17T09:10:25.000Z</time>
      </trkpt>
      <trkpt lat="44.5844" lon="6.85944">
        <ele>2157</ele>
        <time>2020-02-17T09:10:39.000Z</time>
      </trkpt>
      <trkpt lat="44.5844" lon="6.85943">
        <ele>2157</ele>
        <time>2020-02-17T09:10:42.000Z</time>
      </trkpt>
      <trkpt lat="44.58441" lon="6.85944">
        <ele>2157</ele>
        <time>2020-02-17T09:10:47.000Z</time>
      </trkpt>
      <trkpt lat="44.58441" lon="6.85944">
        <ele>2157</ele>
        <time>2020-02-17T09:10:48.000Z</time>
      </trkpt>
      <trkpt lat="44.58441" lon="6.85943">
        <ele>2157</ele>
        <time>2020-02-17T09:10:49.000Z</time>
      </trkpt>
      <trkpt lat="44.58441" lon="6.85943">
        <ele>2157</ele>
        <time>2020-02-17T09:10:51.000Z</time>
      </trkpt>
      <trkpt lat="44.58441" lon="6.85944">
        <ele>2157</ele>
        <time>2020-02-17T09:10:53.000Z</time>
      </trkpt>
      <trkpt lat="44.58441" lon="6.85945">
        <ele>2157</ele>
        <time>2020-02-17T09:10:57.000Z</time>
      </trkpt>
      <trkpt lat="44.58441" lon="6.85944">
        <ele>2157</ele>
        <time>2020-02-17T09:11:00.000Z</time>
      </trkpt>
      <trkpt lat="44.5844" lon="6.85944">
        <ele>2157</ele>
        <time>2020-02-17T09:11:06.000Z</time>
      </trkpt>
      <trkpt lat="44.58441" lon="6.85942">
        <ele>2156</ele>
        <time>2020-02-17T09:11:23.000Z</time>
      </trkpt>
      <trkpt lat="44.58441" lon="6.85943">
        <ele>2156</ele>
        <time>2020-02-17T09:11:31.000Z</time>
      </trkpt>
      <trkpt lat="44.58441" lon="6.85944">
        <ele>2157</ele>
        <time>2020-02-17T09:11:41.000Z</time>
      </trkpt>
      <trkpt lat="44.58441" lon="6.85943">
        <ele>2157</ele>
        <time>2020-02-17T09:11:42.000Z</time>
      </trkpt>
      <trkpt lat="44.5844" lon="6.85943">
        <ele>2157</ele>
        <time>2020-02-17T09:11:44.000Z</time>
      </trkpt>
      <trkpt lat="44.5844" lon="6.85943">
        <ele>2156</ele>
        <time>2020-02-17T09:11:46.000Z</time>
      </trkpt>
      <trkpt lat="44.5844" lon="6.85943">
        <ele>2156</ele>
        <time>2020-02-17T09:11:49.000Z</time>
      </trkpt>
      <trkpt lat="44.5844" lon="6.85943">
        <ele>2156</ele>
        <time>2020-02-17T09:11:51.000Z</time>
      </trkpt>
      <trkpt lat="44.5844" lon="6.85943">
        <ele>2156</ele>
        <time>2020-02-17T09:11:54.000Z</time>
      </trkpt>
      <trkpt lat="44.5844" lon="6.85943">
        <ele>2156</ele>
        <time>2020-02-17T09:11:58.000Z</time>
      </trkpt>
      <trkpt lat="44.5844" lon="6.85943">
        <ele>2157</ele>
        <time>2020-02-17T09:12:02.000Z</time>
      </trkpt>
      <trkpt lat="44.58441" lon="6.85945">
        <ele>2157</ele>
        <time>2020-02-17T09:12:15.000Z</time>
      </trkpt>
      <trkpt lat="44.5844" lon="6.85943">
        <ele>2157</ele>
        <time>2020-02-17T09:12:16.000Z</time>
      </trkpt>
      <trkpt lat="44.58439" lon="6.85942">
        <ele>2156</ele>
        <time>2020-02-17T09:12:18.000Z</time>
      </trkpt>
      <trkpt lat="44.58439" lon="6.85941">
        <ele>2156</ele>
        <time>2020-02-17T09:12:20.000Z</time>
      </trkpt>
      <trkpt lat="44.58439" lon="6.8594">
        <ele>2156</ele>
        <time>2020-02-17T09:12:21.000Z</time>
      </trkpt>
      <trkpt lat="44.5844" lon="6.85941">
        <ele>2156</ele>
        <time>2020-02-17T09:12:34.000Z</time>
      </trkpt>
      <trkpt lat="44.58439" lon="6.85941">
        <ele>2156</ele>
        <time>2020-02-17T09:12:37.000Z</time>
      </trkpt>
      <trkpt lat="44.58441" lon="6.85942">
        <ele>2156</ele>
        <time>2020-02-17T09:12:48.000Z</time>
      </trkpt>
      <trkpt lat="44.58441" lon="6.85942">
        <ele>2156</ele>
        <time>2020-02-17T09:12:49.000Z</time>
      </trkpt>
      <trkpt lat="44.58441" lon="6.85942">
        <ele>2156</ele>
        <time>2020-02-17T09:12:51.000Z</time>
      </trkpt>
      <trkpt lat="44.58441" lon="6.85942">
        <ele>2156</ele>
        <time>2020-02-17T09:12:52.000Z</time>
      </trkpt>
      <trkpt lat="44.5844" lon="6.85942">
        <ele>2156</ele>
        <time>2020-02-17T09:12:54.000Z</time>
      </trkpt>
      <trkpt lat="44.5844" lon="6.85942">
        <ele>2156</ele>
        <time>2020-02-17T09:12:56.000Z</time>
      </trkpt>
      <trkpt lat="44.58439" lon="6.85942">
        <ele>2156</ele>
        <time>2020-02-17T09:12:58.000Z</time>
      </trkpt>
      <trkpt lat="44.58439" lon="6.85943">
        <ele>2156</ele>
        <time>2020-02-17T09:13:00.000Z</time>
      </trkpt>
      <trkpt lat="44.58439" lon="6.85944">
        <ele>2157</ele>
        <time>2020-02-17T09:13:02.000Z</time>
      </trkpt>
      <trkpt lat="44.5844" lon="6.85944">
        <ele>2157</ele>
        <time>2020-02-17T09:13:08.000Z</time>
      </trkpt>
      <trkpt lat="44.5844" lon="6.85944">
        <ele>2157</ele>
        <time>2020-02-17T09:13:10.000Z</time>
      </trkpt>
      <trkpt lat="44.58439" lon="6.85943">
        <ele>2156</ele>
        <time>2020-02-17T09:13:13.000Z</time>
      </trkpt>
      <trkpt lat="44.5844" lon="6.85944">
        <ele>2157</ele>
        <time>2020-02-17T09:13:20.000Z</time>
      </trkpt>
      <trkpt lat="44.58441" lon="6.85944">
        <ele>2157</ele>
        <time>2020-02-17T09:13:24.000Z</time>
      </trkpt>
      <trkpt lat="44.5844" lon="6.85944">
        <ele>2157</ele>
        <time>2020-02-17T09:13:27.000Z</time>
      </trkpt>
      <trkpt lat="44.58441" lon="6.85943">
        <ele>2157</ele>
        <time>2020-02-17T09:13:31.000Z</time>
      </trkpt>
      <trkpt lat="44.5844" lon="6.85943">
        <ele>2156</ele>
        <time>2020-02-17T09:13:34.000Z</time>
      </trkpt>
      <trkpt lat="44.58441" lon="6.85942">
        <ele>2156</ele>
        <time>2020-02-17T09:13:37.000Z</time>
      </trkpt>
      <trkpt lat="44.58441" lon="6.85942">
        <ele>2156</ele>
        <time>2020-02-17T09:13:45.000Z</time>
      </trkpt>
      <trkpt lat="44.58441" lon="6.85942">
        <ele>2156</ele>
        <time>2020-02-17T09:13:47.000Z</time>
      </trkpt>
      <trkpt lat="44.58441" lon="6.85943">
        <ele>2157</ele>
        <time>2020-02-17T09:13:51.000Z</time>
      </trkpt>
      <trkpt lat="44.58441" lon="6.85944">
        <ele>2157</ele>
        <time>2020-02-17T09:13:54.000Z</time>
      </trkpt>
      <trkpt lat="44.58441" lon="6.85944">
        <ele>2157</ele>
        <time>2020-02-17T09:13:58.000Z</time>
      </trkpt>
      <trkpt lat="44.58438" lon="6.85947">
        <ele>2157</ele>
        <time>2020-02-17T09:14:08.000Z</time>
      </trkpt>
      <trkpt lat="44.58437" lon="6.85947">
        <ele>2157</ele>
        <time>2020-02-17T09:14:09.000Z</time>
      </trkpt>
      <trkpt lat="44.58433" lon="6.85948">
        <ele>2157</ele>
        <time>2020-02-17T09:14:15.000Z</time>
      </trkpt>
      <trkpt lat="44.58431" lon="6.8595">
        <ele>2158</ele>
        <time>2020-02-17T09:14:18.000Z</time>
      </trkpt>
      <trkpt lat="44.58429" lon="6.85952">
        <ele>2158</ele>
        <time>2020-02-17T09:14:21.000Z</time>
      </trkpt>
      <trkpt lat="44.58426" lon="6.85954">
        <ele>2158</ele>
        <time>2020-02-17T09:14:24.000Z</time>
      </trkpt>
      <trkpt lat="44.58424" lon="6.85955">
        <ele>2159</ele>
        <time>2020-02-17T09:14:28.000Z</time>
      </trkpt>
      <trkpt lat="44.58422" lon="6.85956">
        <ele>2159</ele>
        <time>2020-02-17T09:14:31.000Z</time>
      </trkpt>
      <trkpt lat="44.5842" lon="6.85957">
        <ele>2159</ele>
        <time>2020-02-17T09:14:33.000Z</time>
      </trkpt>
      <trkpt lat="44.58416" lon="6.8596">
        <ele>2159</ele>
        <time>2020-02-17T09:14:39.000Z</time>
      </trkpt>
      <trkpt lat="44.58414" lon="6.85961">
        <ele>2159</ele>
        <time>2020-02-17T09:14:41.000Z</time>
      </trkpt>
      <trkpt lat="44.5841" lon="6.85965">
        <ele>2160</ele>
        <time>2020-02-17T09:14:48.000Z</time>
      </trkpt>
      <trkpt lat="44.58396" lon="6.85976">
        <ele>2161</ele>
        <time>2020-02-17T09:15:13.000Z</time>
      </trkpt>
      <trkpt lat="44.58392" lon="6.85979">
        <ele>2161</ele>
        <time>2020-02-17T09:15:22.000Z</time>
      </trkpt>
      <trkpt lat="44.58391" lon="6.8598">
        <ele>2161</ele>
        <time>2020-02-17T09:15:23.000Z</time>
      </trkpt>
      <trkpt lat="44.58388" lon="6.85981">
        <ele>2161</ele>
        <time>2020-02-17T09:15:27.000Z</time>
      </trkpt>
      <trkpt lat="44.58386" lon="6.85982">
        <ele>2161</ele>
        <time>2020-02-17T09:15:30.000Z</time>
      </trkpt>
      <trkpt lat="44.58386" lon="6.85983">
        <ele>2161</ele>
        <time>2020-02-17T09:15:31.000Z</time>
      </trkpt>
      <trkpt lat="44.58384" lon="6.85985">
        <ele>2161</ele>
        <time>2020-02-17T09:15:34.000Z</time>
      </trkpt>
      <trkpt lat="44.58382" lon="6.85987">
        <ele>2161</ele>
        <time>2020-02-17T09:15:37.000Z</time>
      </trkpt>
      <trkpt lat="44.5838" lon="6.85989">
        <ele>2161</ele>
        <time>2020-02-17T09:15:40.000Z</time>
      </trkpt>
      <trkpt lat="44.58379" lon="6.85989">
        <ele>2161</ele>
        <time>2020-02-17T09:15:41.000Z</time>
      </trkpt>
      <trkpt lat="44.58379" lon="6.8599">
        <ele>2161</ele>
        <time>2020-02-17T09:15:42.000Z</time>
      </trkpt>
      <trkpt lat="44.58378" lon="6.8599">
        <ele>2161</ele>
        <time>2020-02-17T09:15:43.000Z</time>
      </trkpt>
      <trkpt lat="44.58374" lon="6.85993">
        <ele>2161</ele>
        <time>2020-02-17T09:15:51.000Z</time>
      </trkpt>
      <trkpt lat="44.58374" lon="6.85993">
        <ele>2161</ele>
        <time>2020-02-17T09:15:52.000Z</time>
      </trkpt>
      <trkpt lat="44.58372" lon="6.85995">
        <ele>2161</ele>
        <time>2020-02-17T09:15:55.000Z</time>
      </trkpt>
      <trkpt lat="44.5837" lon="6.85998">
        <ele>2161</ele>
        <time>2020-02-17T09:16:00.000Z</time>
      </trkpt>
      <trkpt lat="44.58369" lon="6.85999">
        <ele>2161</ele>
        <time>2020-02-17T09:16:02.000Z</time>
      </trkpt>
      <trkpt lat="44.58368" lon="6.86">
        <ele>2161</ele>
        <time>2020-02-17T09:16:03.000Z</time>
      </trkpt>
      <trkpt lat="44.58364" lon="6.86002">
        <ele>2171</ele>
        <time>2020-02-17T09:16:08.000Z</time>
      </trkpt>
      <trkpt lat="44.58364" lon="6.86003">
        <ele>2171</ele>
        <time>2020-02-17T09:16:09.000Z</time>
      </trkpt>
      <trkpt lat="44.58363" lon="6.86003">
        <ele>2171</ele>
        <time>2020-02-17T09:16:10.000Z</time>
      </trkpt>
      <trkpt lat="44.58362" lon="6.86004">
        <ele>2171</ele>
        <time>2020-02-17T09:16:11.000Z</time>
      </trkpt>
      <trkpt lat="44.58359" lon="6.86006">
        <ele>2171</ele>
        <time>2020-02-17T09:16:15.000Z</time>
      </trkpt>
      <trkpt lat="44.58354" lon="6.86007">
        <ele>2170</ele>
        <time>2020-02-17T09:16:20.000Z</time>
      </trkpt>
      <trkpt lat="44.5835" lon="6.86008">
        <ele>2169</ele>
        <time>2020-02-17T09:16:25.000Z</time>
      </trkpt>
      <trkpt lat="44.58348" lon="6.86008">
        <ele>2169</ele>
        <time>2020-02-17T09:16:29.000Z</time>
      </trkpt>
      <trkpt lat="44.58346" lon="6.86008">
        <ele>2168</ele>
        <time>2020-02-17T09:16:34.000Z</time>
      </trkpt>
      <trkpt lat="44.58344" lon="6.86009">
        <ele>2168</ele>
        <time>2020-02-17T09:16:36.000Z</time>
      </trkpt>
      <trkpt lat="44.58343" lon="6.86011">
        <ele>2168</ele>
        <time>2020-02-17T09:16:38.000Z</time>
      </trkpt>
      <trkpt lat="44.58329" lon="6.86015">
        <ele>2169</ele>
        <time>2020-02-17T09:16:58.000Z</time>
      </trkpt>
      <trkpt lat="44.58327" lon="6.86015">
        <ele>2169</ele>
        <time>2020-02-17T09:17:01.000Z</time>
      </trkpt>
      <trkpt lat="44.58323" lon="6.86015">
        <ele>2169</ele>
        <time>2020-02-17T09:17:07.000Z</time>
      </trkpt>
      <trkpt lat="44.5832" lon="6.86017">
        <ele>2170</ele>
        <time>2020-02-17T09:17:12.000Z</time>
      </trkpt>
      <trkpt lat="44.58314" lon="6.86021">
        <ele>2171</ele>
        <time>2020-02-17T09:17:23.000Z</time>
      </trkpt>
      <trkpt lat="44.58306" lon="6.86026">
        <ele>2173</ele>
        <time>2020-02-17T09:17:35.000Z</time>
      </trkpt>
      <trkpt lat="44.58297" lon="6.86029">
        <ele>2174</ele>
        <time>2020-02-17T09:17:50.000Z</time>
      </trkpt>
      <trkpt lat="44.5829" lon="6.86032">
        <ele>2174</ele>
        <time>2020-02-17T09:17:59.000Z</time>
      </trkpt>
      <trkpt lat="44.58288" lon="6.86033">
        <ele>2175</ele>
        <time>2020-02-17T09:18:03.000Z</time>
      </trkpt>
      <trkpt lat="44.58287" lon="6.86034">
        <ele>2175</ele>
        <time>2020-02-17T09:18:05.000Z</time>
      </trkpt>
      <trkpt lat="44.58284" lon="6.86036">
        <ele>2175</ele>
        <time>2020-02-17T09:18:09.000Z</time>
      </trkpt>
      <trkpt lat="44.58281" lon="6.8604">
        <ele>2175</ele>
        <time>2020-02-17T09:18:17.000Z</time>
      </trkpt>
      <trkpt lat="44.58276" lon="6.86043">
        <ele>2176</ele>
        <time>2020-02-17T09:18:26.000Z</time>
      </trkpt>
      <trkpt lat="44.58275" lon="6.86043">
        <ele>2176</ele>
        <time>2020-02-17T09:18:28.000Z</time>
      </trkpt>
      <trkpt lat="44.58271" lon="6.86044">
        <ele>2176</ele>
        <time>2020-02-17T09:18:34.000Z</time>
      </trkpt>
      <trkpt lat="44.58269" lon="6.86043">
        <ele>2176</ele>
        <time>2020-02-17T09:18:37.000Z</time>
      </trkpt>
      <trkpt lat="44.58267" lon="6.86038">
        <ele>2176</ele>
        <time>2020-02-17T09:18:40.000Z</time>
      </trkpt>
      <trkpt lat="44.58267" lon="6.86037">
        <ele>2176</ele>
        <time>2020-02-17T09:18:41.000Z</time>
      </trkpt>
      <trkpt lat="44.58267" lon="6.86031">
        <ele>2175</ele>
        <time>2020-02-17T09:18:46.000Z</time>
      </trkpt>
      <trkpt lat="44.58266" lon="6.86029">
        <ele>2175</ele>
        <time>2020-02-17T09:18:48.000Z</time>
      </trkpt>
      <trkpt lat="44.58265" lon="6.86024">
        <ele>2175</ele>
        <time>2020-02-17T09:18:53.000Z</time>
      </trkpt>
      <trkpt lat="44.58261" lon="6.86018">
        <ele>2175</ele>
        <time>2020-02-17T09:19:01.000Z</time>
      </trkpt>
      <trkpt lat="44.58258" lon="6.86015">
        <ele>2174</ele>
        <time>2020-02-17T09:19:07.000Z</time>
      </trkpt>
      <trkpt lat="44.58254" lon="6.86014">
        <ele>2174</ele>
        <time>2020-02-17T09:19:12.000Z</time>
      </trkpt>
      <trkpt lat="44.58253" lon="6.86013">
        <ele>2174</ele>
        <time>2020-02-17T09:19:14.000Z</time>
      </trkpt>
      <trkpt lat="44.58246" lon="6.86007">
        <ele>2179</ele>
        <time>2020-02-17T09:19:22.000Z</time>
      </trkpt>
      <trkpt lat="44.58245" lon="6.86003">
        <ele>2178</ele>
        <time>2020-02-17T09:19:25.000Z</time>
      </trkpt>
      <trkpt lat="44.58242" lon="6.85997">
        <ele>2174</ele>
        <time>2020-02-17T09:19:33.000Z</time>
      </trkpt>
      <trkpt lat="44.58241" lon="6.85994">
        <ele>2174</ele>
        <time>2020-02-17T09:19:36.000Z</time>
      </trkpt>
      <trkpt lat="44.58239" lon="6.8599">
        <ele>2174</ele>
        <time>2020-02-17T09:19:40.000Z</time>
      </trkpt>
      <trkpt lat="44.58238" lon="6.85986">
        <ele>2174</ele>
        <time>2020-02-17T09:19:45.000Z</time>
      </trkpt>
      <trkpt lat="44.58236" lon="6.85983">
        <ele>2174</ele>
        <time>2020-02-17T09:19:51.000Z</time>
      </trkpt>
      <trkpt lat="44.58236" lon="6.85982">
        <ele>2174</ele>
        <time>2020-02-17T09:19:52.000Z</time>
      </trkpt>
      <trkpt lat="44.58234" lon="6.85979">
        <ele>2174</ele>
        <time>2020-02-17T09:19:56.000Z</time>
      </trkpt>
      <trkpt lat="44.58232" lon="6.85977">
        <ele>2174</ele>
        <time>2020-02-17T09:19:59.000Z</time>
      </trkpt>
      <trkpt lat="44.58231" lon="6.85976">
        <ele>2174</ele>
        <time>2020-02-17T09:20:00.000Z</time>
      </trkpt>
      <trkpt lat="44.58229" lon="6.85975">
        <ele>2174</ele>
        <time>2020-02-17T09:20:04.000Z</time>
      </trkpt>
      <trkpt lat="44.58228" lon="6.85974">
        <ele>2174</ele>
        <time>2020-02-17T09:20:06.000Z</time>
      </trkpt>
      <trkpt lat="44.58225" lon="6.85971">
        <ele>2174</ele>
        <time>2020-02-17T09:20:13.000Z</time>
      </trkpt>
      <trkpt lat="44.58223" lon="6.85969">
        <ele>2174</ele>
        <time>2020-02-17T09:20:17.000Z</time>
      </trkpt>
      <trkpt lat="44.58215" lon="6.85961">
        <ele>2174</ele>
        <time>2020-02-17T09:20:28.000Z</time>
      </trkpt>
      <trkpt lat="44.58207" lon="6.85958">
        <ele>2174</ele>
        <time>2020-02-17T09:20:45.000Z</time>
      </trkpt>
      <trkpt lat="44.58203" lon="6.85956">
        <ele>2174</ele>
        <time>2020-02-17T09:20:51.000Z</time>
      </trkpt>
      <trkpt lat="44.58201" lon="6.85956">
        <ele>2174</ele>
        <time>2020-02-17T09:20:56.000Z</time>
      </trkpt>
      <trkpt lat="44.582" lon="6.85955">
        <ele>2174</ele>
        <time>2020-02-17T09:20:57.000Z</time>
      </trkpt>
      <trkpt lat="44.58197" lon="6.85954">
        <ele>2174</ele>
        <time>2020-02-17T09:21:01.000Z</time>
      </trkpt>
      <trkpt lat="44.58186" lon="6.85949">
        <ele>2174</ele>
        <time>2020-02-17T09:21:16.000Z</time>
      </trkpt>
      <trkpt lat="44.58186" lon="6.85949">
        <ele>2173</ele>
        <time>2020-02-17T09:21:17.000Z</time>
      </trkpt>
      <trkpt lat="44.58185" lon="6.85948">
        <ele>2173</ele>
        <time>2020-02-17T09:21:18.000Z</time>
      </trkpt>
      <trkpt lat="44.58173" lon="6.85945">
        <ele>2173</ele>
        <time>2020-02-17T09:21:36.000Z</time>
      </trkpt>
      <trkpt lat="44.58168" lon="6.85942">
        <ele>2172</ele>
        <time>2020-02-17T09:21:45.000Z</time>
      </trkpt>
      <trkpt lat="44.58163" lon="6.85941">
        <ele>2178</ele>
        <time>2020-02-17T09:21:55.000Z</time>
      </trkpt>
      <trkpt lat="44.58163" lon="6.85942">
        <ele>2178</ele>
        <time>2020-02-17T09:21:57.000Z</time>
      </trkpt>
      <trkpt lat="44.58163" lon="6.85942">
        <ele>2178</ele>
        <time>2020-02-17T09:22:08.000Z</time>
      </trkpt>
      <trkpt lat="44.58163" lon="6.85942">
        <ele>2178</ele>
        <time>2020-02-17T09:22:10.000Z</time>
      </trkpt>
      <trkpt lat="44.58163" lon="6.85942">
        <ele>2178</ele>
        <time>2020-02-17T09:22:11.000Z</time>
      </trkpt>
      <trkpt lat="44.58165" lon="6.85942">
        <ele>2178</ele>
        <time>2020-02-17T09:22:18.000Z</time>
      </trkpt>
      <trkpt lat="44.58164" lon="6.85942">
        <ele>2178</ele>
        <time>2020-02-17T09:22:29.000Z</time>
      </trkpt>
      <trkpt lat="44.58163" lon="6.85943">
        <ele>2178</ele>
        <time>2020-02-17T09:22:35.000Z</time>
      </trkpt>
      <trkpt lat="44.58162" lon="6.85943">
        <ele>2179</ele>
        <time>2020-02-17T09:22:37.000Z</time>
      </trkpt>
      <trkpt lat="44.58162" lon="6.85944">
        <ele>2179</ele>
        <time>2020-02-17T09:22:41.000Z</time>
      </trkpt>
      <trkpt lat="44.58162" lon="6.85943">
        <ele>2179</ele>
        <time>2020-02-17T09:22:46.000Z</time>
      </trkpt>
      <trkpt lat="44.58162" lon="6.85942">
        <ele>2178</ele>
        <time>2020-02-17T09:22:47.000Z</time>
      </trkpt>
      <trkpt lat="44.58162" lon="6.85941">
        <ele>2178</ele>
        <time>2020-02-17T09:22:55.000Z</time>
      </trkpt>
      <trkpt lat="44.58162" lon="6.85941">
        <ele>2178</ele>
        <time>2020-02-17T09:22:57.000Z</time>
      </trkpt>
      <trkpt lat="44.58162" lon="6.8594">
        <ele>2178</ele>
        <time>2020-02-17T09:23:01.000Z</time>
      </trkpt>
      <trkpt lat="44.58162" lon="6.85941">
        <ele>2178</ele>
        <time>2020-02-17T09:23:03.000Z</time>
      </trkpt>
      <trkpt lat="44.58162" lon="6.8594">
        <ele>2178</ele>
        <time>2020-02-17T09:23:04.000Z</time>
      </trkpt>
      <trkpt lat="44.58158" lon="6.85936">
        <ele>2176</ele>
        <time>2020-02-17T09:23:10.000Z</time>
      </trkpt>
      <trkpt lat="44.58158" lon="6.85936">
        <ele>2176</ele>
        <time>2020-02-17T09:23:11.000Z</time>
      </trkpt>
      <trkpt lat="44.58158" lon="6.85936">
        <ele>2176</ele>
        <time>2020-02-17T09:23:13.000Z</time>
      </trkpt>
      <trkpt lat="44.58159" lon="6.85936">
        <ele>2176</ele>
        <time>2020-02-17T09:23:18.000Z</time>
      </trkpt>
      <trkpt lat="44.58161" lon="6.85936">
        <ele>2176</ele>
        <time>2020-02-17T09:23:21.000Z</time>
      </trkpt>
      <trkpt lat="44.5816" lon="6.85935">
        <ele>2176</ele>
        <time>2020-02-17T09:23:25.000Z</time>
      </trkpt>
      <trkpt lat="44.58161" lon="6.85936">
        <ele>2176</ele>
        <time>2020-02-17T09:23:26.000Z</time>
      </trkpt>
      <trkpt lat="44.58162" lon="6.85937">
        <ele>2177</ele>
        <time>2020-02-17T09:23:33.000Z</time>
      </trkpt>
      <trkpt lat="44.58162" lon="6.85938">
        <ele>2177</ele>
        <time>2020-02-17T09:23:34.000Z</time>
      </trkpt>
      <trkpt lat="44.58163" lon="6.85938">
        <ele>2177</ele>
        <time>2020-02-17T09:23:35.000Z</time>
      </trkpt>
      <trkpt lat="44.58157" lon="6.85937">
        <ele>2177</ele>
        <time>2020-02-17T09:23:50.000Z</time>
      </trkpt>
      <trkpt lat="44.58156" lon="6.85937">
        <ele>2177</ele>
        <time>2020-02-17T09:23:51.000Z</time>
      </trkpt>
      <trkpt lat="44.58155" lon="6.85937">
        <ele>2177</ele>
        <time>2020-02-17T09:23:52.000Z</time>
      </trkpt>
      <trkpt lat="44.58155" lon="6.85937">
        <ele>2177</ele>
        <time>2020-02-17T09:23:54.000Z</time>
      </trkpt>
      <trkpt lat="44.58154" lon="6.85937">
        <ele>2177</ele>
        <time>2020-02-17T09:23:58.000Z</time>
      </trkpt>
      <trkpt lat="44.58156" lon="6.85937">
        <ele>2177</ele>
        <time>2020-02-17T09:24:00.000Z</time>
      </trkpt>
      <trkpt lat="44.58158" lon="6.85937">
        <ele>2177</ele>
        <time>2020-02-17T09:24:02.000Z</time>
      </trkpt>
      <trkpt lat="44.58159" lon="6.85938">
        <ele>2177</ele>
        <time>2020-02-17T09:24:04.000Z</time>
      </trkpt>
      <trkpt lat="44.58159" lon="6.85938">
        <ele>2177</ele>
        <time>2020-02-17T09:24:06.000Z</time>
      </trkpt>
      <trkpt lat="44.58158" lon="6.8594">
        <ele>2178</ele>
        <time>2020-02-17T09:24:16.000Z</time>
      </trkpt>
      <trkpt lat="44.58158" lon="6.8594">
        <ele>2178</ele>
        <time>2020-02-17T09:24:17.000Z</time>
      </trkpt>
      <trkpt lat="44.58157" lon="6.85938">
        <ele>2177</ele>
        <time>2020-02-17T09:24:23.000Z</time>
      </trkpt>
      <trkpt lat="44.5816" lon="6.85941">
        <ele>2178</ele>
        <time>2020-02-17T09:24:29.000Z</time>
      </trkpt>
      <trkpt lat="44.58161" lon="6.85941">
        <ele>2178</ele>
        <time>2020-02-17T09:24:30.000Z</time>
      </trkpt>
      <trkpt lat="44.58161" lon="6.85943">
        <ele>2179</ele>
        <time>2020-02-17T09:24:37.000Z</time>
      </trkpt>
      <trkpt lat="44.58161" lon="6.85944">
        <ele>2179</ele>
        <time>2020-02-17T09:24:40.000Z</time>
      </trkpt>
      <trkpt lat="44.58161" lon="6.85944">
        <ele>2179</ele>
        <time>2020-02-17T09:24:44.000Z</time>
      </trkpt>
      <trkpt lat="44.58162" lon="6.85945">
        <ele>2179</ele>
        <time>2020-02-17T09:24:46.000Z</time>
      </trkpt>
      <trkpt lat="44.58162" lon="6.85944">
        <ele>2179</ele>
        <time>2020-02-17T09:24:47.000Z</time>
      </trkpt>
      <trkpt lat="44.58162" lon="6.85944">
        <ele>2179</ele>
        <time>2020-02-17T09:24:48.000Z</time>
      </trkpt>
      <trkpt lat="44.58162" lon="6.85944">
        <ele>2179</ele>
        <time>2020-02-17T09:24:49.000Z</time>
      </trkpt>
      <trkpt lat="44.58162" lon="6.85943">
        <ele>2179</ele>
        <time>2020-02-17T09:24:50.000Z</time>
      </trkpt>
      <trkpt lat="44.58162" lon="6.85942">
        <ele>2178</ele>
        <time>2020-02-17T09:24:51.000Z</time>
      </trkpt>
      <trkpt lat="44.58162" lon="6.85942">
        <ele>2178</ele>
        <time>2020-02-17T09:24:52.000Z</time>
      </trkpt>
      <trkpt lat="44.58161" lon="6.85939">
        <ele>2177</ele>
        <time>2020-02-17T09:24:53.000Z</time>
      </trkpt>
      <trkpt lat="44.58159" lon="6.85939">
        <ele>2177</ele>
        <time>2020-02-17T09:24:57.000Z</time>
      </trkpt>
      <trkpt lat="44.5816" lon="6.85939">
        <ele>2177</ele>
        <time>2020-02-17T09:24:58.000Z</time>
      </trkpt>
      <trkpt lat="44.58161" lon="6.85942">
        <ele>2178</ele>
        <time>2020-02-17T09:25:00.000Z</time>
      </trkpt>
      <trkpt lat="44.58162" lon="6.85943">
        <ele>2179</ele>
        <time>2020-02-17T09:25:04.000Z</time>
      </trkpt>
      <trkpt lat="44.58162" lon="6.85944">
        <ele>2179</ele>
        <time>2020-02-17T09:25:06.000Z</time>
      </trkpt>
      <trkpt lat="44.58162" lon="6.85944">
        <ele>2179</ele>
        <time>2020-02-17T09:25:07.000Z</time>
      </trkpt>
      <trkpt lat="44.58163" lon="6.85943">
        <ele>2179</ele>
        <time>2020-02-17T09:25:13.000Z</time>
      </trkpt>
      <trkpt lat="44.58162" lon="6.85942">
        <ele>2178</ele>
        <time>2020-02-17T09:25:18.000Z</time>
      </trkpt>
      <trkpt lat="44.58162" lon="6.85942">
        <ele>2178</ele>
        <time>2020-02-17T09:25:20.000Z</time>
      </trkpt>
      <trkpt lat="44.58162" lon="6.85942">
        <ele>2178</ele>
        <time>2020-02-17T09:25:21.000Z</time>
      </trkpt>
      <trkpt lat="44.58164" lon="6.85942">
        <ele>2178</ele>
        <time>2020-02-17T09:25:30.000Z</time>
      </trkpt>
      <trkpt lat="44.58162" lon="6.85941">
        <ele>2178</ele>
        <time>2020-02-17T09:25:49.000Z</time>
      </trkpt>
      <trkpt lat="44.58162" lon="6.85941">
        <ele>2178</ele>
        <time>2020-02-17T09:25:52.000Z</time>
      </trkpt>
      <trkpt lat="44.58162" lon="6.85941">
        <ele>2178</ele>
        <time>2020-02-17T09:25:53.000Z</time>
      </trkpt>
      <trkpt lat="44.58162" lon="6.85941">
        <ele>2178</ele>
        <time>2020-02-17T09:25:54.000Z</time>
      </trkpt>
      <trkpt lat="44.58162" lon="6.85941">
        <ele>2178</ele>
        <time>2020-02-17T09:25:56.000Z</time>
      </trkpt>
      <trkpt lat="44.58162" lon="6.8594">
        <ele>2178</ele>
        <time>2020-02-17T09:25:58.000Z</time>
      </trkpt>
      <trkpt lat="44.58162" lon="6.8594">
        <ele>2178</ele>
        <time>2020-02-17T09:26:00.000Z</time>
      </trkpt>
      <trkpt lat="44.58162" lon="6.85941">
        <ele>2178</ele>
        <time>2020-02-17T09:26:02.000Z</time>
      </trkpt>
      <trkpt lat="44.58162" lon="6.8594">
        <ele>2178</ele>
        <time>2020-02-17T09:26:09.000Z</time>
      </trkpt>
      <trkpt lat="44.58162" lon="6.8594">
        <ele>2178</ele>
        <time>2020-02-17T09:26:10.000Z</time>
      </trkpt>
      <trkpt lat="44.58162" lon="6.8594">
        <ele>2178</ele>
        <time>2020-02-17T09:26:12.000Z</time>
      </trkpt>
      <trkpt lat="44.58162" lon="6.8594">
        <ele>2177</ele>
        <time>2020-02-17T09:26:17.000Z</time>
      </trkpt>
      <trkpt lat="44.58162" lon="6.8594">
        <ele>2177</ele>
        <time>2020-02-17T09:26:19.000Z</time>
      </trkpt>
      <trkpt lat="44.58162" lon="6.8594">
        <ele>2177</ele>
        <time>2020-02-17T09:26:21.000Z</time>
      </trkpt>
      <trkpt lat="44.58162" lon="6.8594">
        <ele>2178</ele>
        <time>2020-02-17T09:26:23.000Z</time>
      </trkpt>
      <trkpt lat="44.58162" lon="6.8594">
        <ele>2178</ele>
        <time>2020-02-17T09:26:26.000Z</time>
      </trkpt>
      <trkpt lat="44.58161" lon="6.8594">
        <ele>2178</ele>
        <time>2020-02-17T09:26:42.000Z</time>
      </trkpt>
      <trkpt lat="44.58161" lon="6.8594">
        <ele>2178</ele>
        <time>2020-02-17T09:26:43.000Z</time>
      </trkpt>
      <trkpt lat="44.5816" lon="6.8594">
        <ele>2178</ele>
        <time>2020-02-17T09:26:50.000Z</time>
      </trkpt>
      <trkpt lat="44.58159" lon="6.8594">
        <ele>2178</ele>
        <time>2020-02-17T09:26:52.000Z</time>
      </trkpt>
      <trkpt lat="44.58159" lon="6.8594">
        <ele>2178</ele>
        <time>2020-02-17T09:26:53.000Z</time>
      </trkpt>
      <trkpt lat="44.58158" lon="6.85939">
        <ele>2178</ele>
        <time>2020-02-17T09:26:56.000Z</time>
      </trkpt>
      <trkpt lat="44.58157" lon="6.85939">
        <ele>2178</ele>
        <time>2020-02-17T09:26:58.000Z</time>
      </trkpt>
      <trkpt lat="44.58156" lon="6.8594">
        <ele>2178</ele>
        <time>2020-02-17T09:27:00.000Z</time>
      </trkpt>
      <trkpt lat="44.58155" lon="6.8594">
        <ele>2178</ele>
        <time>2020-02-17T09:27:01.000Z</time>
      </trkpt>
      <trkpt lat="44.58154" lon="6.85939">
        <ele>2178</ele>
        <time>2020-02-17T09:27:03.000Z</time>
      </trkpt>
      <trkpt lat="44.58153" lon="6.85939">
        <ele>2178</ele>
        <time>2020-02-17T09:27:05.000Z</time>
      </trkpt>
      <trkpt lat="44.58151" lon="6.85939">
        <ele>2179</ele>
        <time>2020-02-17T09:27:07.000Z</time>
      </trkpt>
      <trkpt lat="44.58149" lon="6.85939">
        <ele>2179</ele>
        <time>2020-02-17T09:27:09.000Z</time>
      </trkpt>
      <trkpt lat="44.58148" lon="6.85939">
        <ele>2179</ele>
        <time>2020-02-17T09:27:10.000Z</time>
      </trkpt>
      <trkpt lat="44.58146" lon="6.85939">
        <ele>2179</ele>
        <time>2020-02-17T09:27:13.000Z</time>
      </trkpt>
      <trkpt lat="44.58145" lon="6.85939">
        <ele>2179</ele>
        <time>2020-02-17T09:27:14.000Z</time>
      </trkpt>
      <trkpt lat="44.58142" lon="6.85939">
        <ele>2180</ele>
        <time>2020-02-17T09:27:18.000Z</time>
      </trkpt>
      <trkpt lat="44.5814" lon="6.85939">
        <ele>2180</ele>
        <time>2020-02-17T09:27:20.000Z</time>
      </trkpt>
      <trkpt lat="44.58138" lon="6.85939">
        <ele>2180</ele>
        <time>2020-02-17T09:27:23.000Z</time>
      </trkpt>
      <trkpt lat="44.58134" lon="6.85938">
        <ele>2181</ele>
        <time>2020-02-17T09:27:28.000Z</time>
      </trkpt>
      <trkpt lat="44.5813" lon="6.85939">
        <ele>2181</ele>
        <time>2020-02-17T09:27:32.000Z</time>
      </trkpt>
      <trkpt lat="44.5813" lon="6.85939">
        <ele>2181</ele>
        <time>2020-02-17T09:27:33.000Z</time>
      </trkpt>
      <trkpt lat="44.58127" lon="6.85939">
        <ele>2181</ele>
        <time>2020-02-17T09:27:36.000Z</time>
      </trkpt>
      <trkpt lat="44.58125" lon="6.85939">
        <ele>2181</ele>
        <time>2020-02-17T09:27:38.000Z</time>
      </trkpt>
      <trkpt lat="44.58122" lon="6.85939">
        <ele>2182</ele>
        <time>2020-02-17T09:27:41.000Z</time>
      </trkpt>
      <trkpt lat="44.5812" lon="6.85939">
        <ele>2182</ele>
        <time>2020-02-17T09:27:44.000Z</time>
      </trkpt>
      <trkpt lat="44.58116" lon="6.85942">
        <ele>2182</ele>
        <time>2020-02-17T09:27:51.000Z</time>
      </trkpt>
      <trkpt lat="44.58115" lon="6.85943">
        <ele>2182</ele>
        <time>2020-02-17T09:27:54.000Z</time>
      </trkpt>
      <trkpt lat="44.58109" lon="6.85944">
        <ele>2183</ele>
        <time>2020-02-17T09:28:02.000Z</time>
      </trkpt>
      <trkpt lat="44.58096" lon="6.85949">
        <ele>2184</ele>
        <time>2020-02-17T09:28:20.000Z</time>
      </trkpt>
      <trkpt lat="44.58092" lon="6.8595">
        <ele>2184</ele>
        <time>2020-02-17T09:28:25.000Z</time>
      </trkpt>
      <trkpt lat="44.58085" lon="6.8595">
        <ele>2184</ele>
        <time>2020-02-17T09:28:33.000Z</time>
      </trkpt>
      <trkpt lat="44.58081" lon="6.85951">
        <ele>2190</ele>
        <time>2020-02-17T09:28:38.000Z</time>
      </trkpt>
      <trkpt lat="44.58071" lon="6.85953">
        <ele>2191</ele>
        <time>2020-02-17T09:28:53.000Z</time>
      </trkpt>
      <trkpt lat="44.58064" lon="6.85954">
        <ele>2192</ele>
        <time>2020-02-17T09:29:02.000Z</time>
      </trkpt>
      <trkpt lat="44.58057" lon="6.85955">
        <ele>2192</ele>
        <time>2020-02-17T09:29:12.000Z</time>
      </trkpt>
      <trkpt lat="44.58048" lon="6.85954">
        <ele>2193</ele>
        <time>2020-02-17T09:29:23.000Z</time>
      </trkpt>
      <trkpt lat="44.58037" lon="6.85953">
        <ele>2193</ele>
        <time>2020-02-17T09:29:36.000Z</time>
      </trkpt>
      <trkpt lat="44.58031" lon="6.85954">
        <ele>2194</ele>
        <time>2020-02-17T09:29:46.000Z</time>
      </trkpt>
      <trkpt lat="44.58027" lon="6.85953">
        <ele>2194</ele>
        <time>2020-02-17T09:29:56.000Z</time>
      </trkpt>
      <trkpt lat="44.58021" lon="6.85952">
        <ele>2194</ele>
        <time>2020-02-17T09:30:05.000Z</time>
      </trkpt>
      <trkpt lat="44.58016" lon="6.85953">
        <ele>2194</ele>
        <time>2020-02-17T09:30:16.000Z</time>
      </trkpt>
      <trkpt lat="44.5801" lon="6.85956">
        <ele>2195</ele>
        <time>2020-02-17T09:30:24.000Z</time>
      </trkpt>
      <trkpt lat="44.58005" lon="6.85956">
        <ele>2195</ele>
        <time>2020-02-17T09:30:31.000Z</time>
      </trkpt>
      <trkpt lat="44.57999" lon="6.85957">
        <ele>2200</ele>
        <time>2020-02-17T09:30:40.000Z</time>
      </trkpt>
      <trkpt lat="44.57993" lon="6.8596">
        <ele>2201</ele>
        <time>2020-02-17T09:30:52.000Z</time>
      </trkpt>
      <trkpt lat="44.5799" lon="6.85962">
        <ele>2201</ele>
        <time>2020-02-17T09:30:59.000Z</time>
      </trkpt>
      <trkpt lat="44.5799" lon="6.85962">
        <ele>2201</ele>
        <time>2020-02-17T09:31:00.000Z</time>
      </trkpt>
      <trkpt lat="44.57988" lon="6.85963">
        <ele>2201</ele>
        <time>2020-02-17T09:31:03.000Z</time>
      </trkpt>
      <trkpt lat="44.57984" lon="6.85963">
        <ele>2201</ele>
        <time>2020-02-17T09:31:10.000Z</time>
      </trkpt>
      <trkpt lat="44.57979" lon="6.85964">
        <ele>2201</ele>
        <time>2020-02-17T09:31:19.000Z</time>
      </trkpt>
      <trkpt lat="44.57972" lon="6.85965">
        <ele>2202</ele>
        <time>2020-02-17T09:31:30.000Z</time>
      </trkpt>
      <trkpt lat="44.57968" lon="6.85967">
        <ele>2202</ele>
        <time>2020-02-17T09:31:38.000Z</time>
      </trkpt>
      <trkpt lat="44.57962" lon="6.85971">
        <ele>2202</ele>
        <time>2020-02-17T09:31:48.000Z</time>
      </trkpt>
      <trkpt lat="44.57956" lon="6.85975">
        <ele>2203</ele>
        <time>2020-02-17T09:31:58.000Z</time>
      </trkpt>
      <trkpt lat="44.57951" lon="6.85978">
        <ele>2203</ele>
        <time>2020-02-17T09:32:10.000Z</time>
      </trkpt>
      <trkpt lat="44.5795" lon="6.85978">
        <ele>2203</ele>
        <time>2020-02-17T09:32:12.000Z</time>
      </trkpt>
      <trkpt lat="44.57947" lon="6.8598">
        <ele>2203</ele>
        <time>2020-02-17T09:32:23.000Z</time>
      </trkpt>
      <trkpt lat="44.57947" lon="6.8598">
        <ele>2204</ele>
        <time>2020-02-17T09:32:24.000Z</time>
      </trkpt>
      <trkpt lat="44.57946" lon="6.85981">
        <ele>2204</ele>
        <time>2020-02-17T09:32:25.000Z</time>
      </trkpt>
      <trkpt lat="44.57945" lon="6.85983">
        <ele>2204</ele>
        <time>2020-02-17T09:32:28.000Z</time>
      </trkpt>
      <trkpt lat="44.57945" lon="6.85983">
        <ele>2204</ele>
        <time>2020-02-17T09:32:30.000Z</time>
      </trkpt>
      <trkpt lat="44.57943" lon="6.85985">
        <ele>2204</ele>
        <time>2020-02-17T09:32:37.000Z</time>
      </trkpt>
      <trkpt lat="44.57941" lon="6.85987">
        <ele>2204</ele>
        <time>2020-02-17T09:32:39.000Z</time>
      </trkpt>
      <trkpt lat="44.57939" lon="6.85989">
        <ele>2204</ele>
        <time>2020-02-17T09:32:41.000Z</time>
      </trkpt>
      <trkpt lat="44.57935" lon="6.85991">
        <ele>2205</ele>
        <time>2020-02-17T09:32:46.000Z</time>
      </trkpt>
      <trkpt lat="44.57932" lon="6.85993">
        <ele>2205</ele>
        <time>2020-02-17T09:32:49.000Z</time>
      </trkpt>
      <trkpt lat="44.57928" lon="6.85995">
        <ele>2206</ele>
        <time>2020-02-17T09:32:55.000Z</time>
      </trkpt>
      <trkpt lat="44.57924" lon="6.85997">
        <ele>2206</ele>
        <time>2020-02-17T09:33:01.000Z</time>
      </trkpt>
      <trkpt lat="44.57924" lon="6.85998">
        <ele>2207</ele>
        <time>2020-02-17T09:33:02.000Z</time>
      </trkpt>
      <trkpt lat="44.5792" lon="6.86001">
        <ele>2210</ele>
        <time>2020-02-17T09:33:08.000Z</time>
      </trkpt>
      <trkpt lat="44.57919" lon="6.86002">
        <ele>2210</ele>
        <time>2020-02-17T09:33:10.000Z</time>
      </trkpt>
      <trkpt lat="44.57916" lon="6.86007">
        <ele>2212</ele>
        <time>2020-02-17T09:33:17.000Z</time>
      </trkpt>
      <trkpt lat="44.57915" lon="6.86008">
        <ele>2213</ele>
        <time>2020-02-17T09:33:18.000Z</time>
      </trkpt>
      <trkpt lat="44.57913" lon="6.8601">
        <ele>2214</ele>
        <time>2020-02-17T09:33:24.000Z</time>
      </trkpt>
      <trkpt lat="44.57912" lon="6.8601">
        <ele>2214</ele>
        <time>2020-02-17T09:33:25.000Z</time>
      </trkpt>
      <trkpt lat="44.5791" lon="6.86011">
        <ele>2215</ele>
        <time>2020-02-17T09:33:30.000Z</time>
      </trkpt>
      <trkpt lat="44.57909" lon="6.86012">
        <ele>2215</ele>
        <time>2020-02-17T09:33:31.000Z</time>
      </trkpt>
      <trkpt lat="44.57909" lon="6.86012">
        <ele>2215</ele>
        <time>2020-02-17T09:33:32.000Z</time>
      </trkpt>
      <trkpt lat="44.57908" lon="6.86013">
        <ele>2216</ele>
        <time>2020-02-17T09:33:34.000Z</time>
      </trkpt>
      <trkpt lat="44.57908" lon="6.86013">
        <ele>2216</ele>
        <time>2020-02-17T09:33:35.000Z</time>
      </trkpt>
      <trkpt lat="44.57907" lon="6.86013">
        <ele>2216</ele>
        <time>2020-02-17T09:33:36.000Z</time>
      </trkpt>
      <trkpt lat="44.57904" lon="6.86016">
        <ele>2217</ele>
        <time>2020-02-17T09:33:43.000Z</time>
      </trkpt>
      <trkpt lat="44.57903" lon="6.86017">
        <ele>2218</ele>
        <time>2020-02-17T09:33:46.000Z</time>
      </trkpt>
      <trkpt lat="44.57901" lon="6.86018">
        <ele>2218</ele>
        <time>2020-02-17T09:33:50.000Z</time>
      </trkpt>
      <trkpt lat="44.57897" lon="6.86022">
        <ele>2219</ele>
        <time>2020-02-17T09:33:58.000Z</time>
      </trkpt>
      <trkpt lat="44.57895" lon="6.86024">
        <ele>2220</ele>
        <time>2020-02-17T09:34:03.000Z</time>
      </trkpt>
      <trkpt lat="44.57894" lon="6.86025">
        <ele>2220</ele>
        <time>2020-02-17T09:34:05.000Z</time>
      </trkpt>
      <trkpt lat="44.57893" lon="6.86025">
        <ele>2220</ele>
        <time>2020-02-17T09:34:06.000Z</time>
      </trkpt>
      <trkpt lat="44.5789" lon="6.86028">
        <ele>2221</ele>
        <time>2020-02-17T09:34:12.000Z</time>
      </trkpt>
      <trkpt lat="44.57889" lon="6.86028">
        <ele>2221</ele>
        <time>2020-02-17T09:34:13.000Z</time>
      </trkpt>
      <trkpt lat="44.57888" lon="6.86029">
        <ele>2222</ele>
        <time>2020-02-17T09:34:16.000Z</time>
      </trkpt>
      <trkpt lat="44.57885" lon="6.86034">
        <ele>2222</ele>
        <time>2020-02-17T09:34:23.000Z</time>
      </trkpt>
      <trkpt lat="44.57885" lon="6.86035">
        <ele>2223</ele>
        <time>2020-02-17T09:34:24.000Z</time>
      </trkpt>
      <trkpt lat="44.57885" lon="6.86036">
        <ele>2223</ele>
        <time>2020-02-17T09:34:26.000Z</time>
      </trkpt>
      <trkpt lat="44.57881" lon="6.86042">
        <ele>2224</ele>
        <time>2020-02-17T09:34:38.000Z</time>
      </trkpt>
      <trkpt lat="44.57881" lon="6.86043">
        <ele>2224</ele>
        <time>2020-02-17T09:34:40.000Z</time>
      </trkpt>
      <trkpt lat="44.57875" lon="6.86052">
        <ele>2225</ele>
        <time>2020-02-17T09:34:51.000Z</time>
      </trkpt>
      <trkpt lat="44.57875" lon="6.86053">
        <ele>2225</ele>
        <time>2020-02-17T09:34:52.000Z</time>
      </trkpt>
      <trkpt lat="44.57872" lon="6.86056">
        <ele>2226</ele>
        <time>2020-02-17T09:34:58.000Z</time>
      </trkpt>
      <trkpt lat="44.57869" lon="6.86061">
        <ele>2226</ele>
        <time>2020-02-17T09:35:06.000Z</time>
      </trkpt>
      <trkpt lat="44.57867" lon="6.86065">
        <ele>2227</ele>
        <time>2020-02-17T09:35:13.000Z</time>
      </trkpt>
      <trkpt lat="44.57861" lon="6.86072">
        <ele>2227</ele>
        <time>2020-02-17T09:35:25.000Z</time>
      </trkpt>
      <trkpt lat="44.57861" lon="6.86072">
        <ele>2227</ele>
        <time>2020-02-17T09:35:26.000Z</time>
      </trkpt>
      <trkpt lat="44.57856" lon="6.86075">
        <ele>2228</ele>
        <time>2020-02-17T09:35:33.000Z</time>
      </trkpt>
      <trkpt lat="44.57852" lon="6.8608">
        <ele>2228</ele>
        <time>2020-02-17T09:35:41.000Z</time>
      </trkpt>
      <trkpt lat="44.57852" lon="6.86081">
        <ele>2229</ele>
        <time>2020-02-17T09:35:42.000Z</time>
      </trkpt>
      <trkpt lat="44.57845" lon="6.86084">
        <ele>2238</ele>
        <time>2020-02-17T09:35:53.000Z</time>
      </trkpt>
      <trkpt lat="44.57841" lon="6.86091">
        <ele>2238</ele>
        <time>2020-02-17T09:36:05.000Z</time>
      </trkpt>
      <trkpt lat="44.57838" lon="6.86094">
        <ele>2239</ele>
        <time>2020-02-17T09:36:11.000Z</time>
      </trkpt>
      <trkpt lat="44.57837" lon="6.86095">
        <ele>2239</ele>
        <time>2020-02-17T09:36:15.000Z</time>
      </trkpt>
      <trkpt lat="44.57832" lon="6.86097">
        <ele>2239</ele>
        <time>2020-02-17T09:36:24.000Z</time>
      </trkpt>
      <trkpt lat="44.5783" lon="6.86098">
        <ele>2240</ele>
        <time>2020-02-17T09:36:27.000Z</time>
      </trkpt>
      <trkpt lat="44.57827" lon="6.86102">
        <ele>2241</ele>
        <time>2020-02-17T09:36:33.000Z</time>
      </trkpt>
      <trkpt lat="44.57826" lon="6.86102">
        <ele>2241</ele>
        <time>2020-02-17T09:36:38.000Z</time>
      </trkpt>
      <trkpt lat="44.57825" lon="6.86102">
        <ele>2241</ele>
        <time>2020-02-17T09:36:40.000Z</time>
      </trkpt>
      <trkpt lat="44.57822" lon="6.86103">
        <ele>2242</ele>
        <time>2020-02-17T09:36:46.000Z</time>
      </trkpt>
      <trkpt lat="44.57821" lon="6.86104">
        <ele>2242</ele>
        <time>2020-02-17T09:36:47.000Z</time>
      </trkpt>
      <trkpt lat="44.57818" lon="6.86105">
        <ele>2243</ele>
        <time>2020-02-17T09:36:53.000Z</time>
      </trkpt>
      <trkpt lat="44.57814" lon="6.86108">
        <ele>2244</ele>
        <time>2020-02-17T09:37:01.000Z</time>
      </trkpt>
      <trkpt lat="44.5781" lon="6.8611">
        <ele>2245</ele>
        <time>2020-02-17T09:37:11.000Z</time>
      </trkpt>
      <trkpt lat="44.57807" lon="6.86113">
        <ele>2246</ele>
        <time>2020-02-17T09:37:19.000Z</time>
      </trkpt>
      <trkpt lat="44.57802" lon="6.86116">
        <ele>2246</ele>
        <time>2020-02-17T09:37:27.000Z</time>
      </trkpt>
      <trkpt lat="44.57798" lon="6.86121">
        <ele>2247</ele>
        <time>2020-02-17T09:37:37.000Z</time>
      </trkpt>
      <trkpt lat="44.57796" lon="6.86123">
        <ele>2248</ele>
        <time>2020-02-17T09:37:44.000Z</time>
      </trkpt>
      <trkpt lat="44.57793" lon="6.86127">
        <ele>2249</ele>
        <time>2020-02-17T09:37:51.000Z</time>
      </trkpt>
      <trkpt lat="44.57789" lon="6.8613">
        <ele>2249</ele>
        <time>2020-02-17T09:37:59.000Z</time>
      </trkpt>
      <trkpt lat="44.57784" lon="6.86133">
        <ele>2250</ele>
        <time>2020-02-17T09:38:11.000Z</time>
      </trkpt>
      <trkpt lat="44.57786" lon="6.86132">
        <ele>2250</ele>
        <time>2020-02-17T09:38:23.000Z</time>
      </trkpt>
      <trkpt lat="44.57784" lon="6.8613">
        <ele>2249</ele>
        <time>2020-02-17T09:38:27.000Z</time>
      </trkpt>
      <trkpt lat="44.57783" lon="6.86128">
        <ele>2249</ele>
        <time>2020-02-17T09:38:29.000Z</time>
      </trkpt>
      <trkpt lat="44.57783" lon="6.86128">
        <ele>2249</ele>
        <time>2020-02-17T09:38:31.000Z</time>
      </trkpt>
      <trkpt lat="44.57783" lon="6.86129">
        <ele>2249</ele>
        <time>2020-02-17T09:38:36.000Z</time>
      </trkpt>
      <trkpt lat="44.57783" lon="6.86129">
        <ele>2249</ele>
        <time>2020-02-17T09:38:37.000Z</time>
      </trkpt>
      <trkpt lat="44.57783" lon="6.86129">
        <ele>2249</ele>
        <time>2020-02-17T09:38:40.000Z</time>
      </trkpt>
      <trkpt lat="44.57783" lon="6.86129">
        <ele>2249</ele>
        <time>2020-02-17T09:38:42.000Z</time>
      </trkpt>
      <trkpt lat="44.57784" lon="6.8613">
        <ele>2249</ele>
        <time>2020-02-17T09:38:49.000Z</time>
      </trkpt>
      <trkpt lat="44.57783" lon="6.8613">
        <ele>2249</ele>
        <time>2020-02-17T09:38:51.000Z</time>
      </trkpt>
      <trkpt lat="44.57783" lon="6.86131">
        <ele>2249</ele>
        <time>2020-02-17T09:38:57.000Z</time>
      </trkpt>
      <trkpt lat="44.57784" lon="6.8613">
        <ele>2249</ele>
        <time>2020-02-17T09:39:06.000Z</time>
      </trkpt>
      <trkpt lat="44.57784" lon="6.8613">
        <ele>2249</ele>
        <time>2020-02-17T09:39:12.000Z</time>
      </trkpt>
      <trkpt lat="44.57784" lon="6.8613">
        <ele>2249</ele>
        <time>2020-02-17T09:39:14.000Z</time>
      </trkpt>
      <trkpt lat="44.57784" lon="6.86132">
        <ele>2250</ele>
        <time>2020-02-17T09:39:23.000Z</time>
      </trkpt>
      <trkpt lat="44.57784" lon="6.86132">
        <ele>2250</ele>
        <time>2020-02-17T09:39:24.000Z</time>
      </trkpt>
      <trkpt lat="44.57784" lon="6.86132">
        <ele>2250</ele>
        <time>2020-02-17T09:39:25.000Z</time>
      </trkpt>
      <trkpt lat="44.57783" lon="6.86132">
        <ele>2250</ele>
        <time>2020-02-17T09:39:32.000Z</time>
      </trkpt>
      <trkpt lat="44.5778" lon="6.8613">
        <ele>2249</ele>
        <time>2020-02-17T09:39:37.000Z</time>
      </trkpt>
      <trkpt lat="44.57777" lon="6.86128">
        <ele>2249</ele>
        <time>2020-02-17T09:39:42.000Z</time>
      </trkpt>
      <trkpt lat="44.57777" lon="6.86127">
        <ele>2249</ele>
        <time>2020-02-17T09:39:45.000Z</time>
      </trkpt>
      <trkpt lat="44.57777" lon="6.86126">
        <ele>2249</ele>
        <time>2020-02-17T09:39:47.000Z</time>
      </trkpt>
      <trkpt lat="44.57777" lon="6.86127">
        <ele>2249</ele>
        <time>2020-02-17T09:39:53.000Z</time>
      </trkpt>
      <trkpt lat="44.57776" lon="6.86127">
        <ele>2249</ele>
        <time>2020-02-17T09:39:54.000Z</time>
      </trkpt>
      <trkpt lat="44.57775" lon="6.86127">
        <ele>2249</ele>
        <time>2020-02-17T09:39:56.000Z</time>
      </trkpt>
      <trkpt lat="44.57774" lon="6.86128">
        <ele>2249</ele>
        <time>2020-02-17T09:39:58.000Z</time>
      </trkpt>
      <trkpt lat="44.57774" lon="6.86129">
        <ele>2249</ele>
        <time>2020-02-17T09:39:59.000Z</time>
      </trkpt>
      <trkpt lat="44.57773" lon="6.8613">
        <ele>2250</ele>
        <time>2020-02-17T09:40:01.000Z</time>
      </trkpt>
      <trkpt lat="44.57777" lon="6.8613">
        <ele>2249</ele>
        <time>2020-02-17T09:40:16.000Z</time>
      </trkpt>
      <trkpt lat="44.57778" lon="6.86129">
        <ele>2249</ele>
        <time>2020-02-17T09:40:20.000Z</time>
      </trkpt>
      <trkpt lat="44.5778" lon="6.86129">
        <ele>2249</ele>
        <time>2020-02-17T09:40:23.000Z</time>
      </trkpt>
      <trkpt lat="44.57781" lon="6.86128">
        <ele>2249</ele>
        <time>2020-02-17T09:40:26.000Z</time>
      </trkpt>
      <trkpt lat="44.5778" lon="6.86128">
        <ele>2249</ele>
        <time>2020-02-17T09:40:27.000Z</time>
      </trkpt>
      <trkpt lat="44.57778" lon="6.86129">
        <ele>2249</ele>
        <time>2020-02-17T09:40:55.000Z</time>
      </trkpt>
      <trkpt lat="44.57778" lon="6.8613">
        <ele>2249</ele>
        <time>2020-02-17T09:40:57.000Z</time>
      </trkpt>
      <trkpt lat="44.57777" lon="6.8613">
        <ele>2250</ele>
        <time>2020-02-17T09:40:59.000Z</time>
      </trkpt>
      <trkpt lat="44.57775" lon="6.86132">
        <ele>2250</ele>
        <time>2020-02-17T09:41:04.000Z</time>
      </trkpt>
      <trkpt lat="44.57778" lon="6.86131">
        <ele>2250</ele>
        <time>2020-02-17T09:41:14.000Z</time>
      </trkpt>
      <trkpt lat="44.57778" lon="6.86131">
        <ele>2250</ele>
        <time>2020-02-17T09:41:15.000Z</time>
      </trkpt>
      <trkpt lat="44.57778" lon="6.86131">
        <ele>2250</ele>
        <time>2020-02-17T09:41:17.000Z</time>
      </trkpt>
      <trkpt lat="44.57779" lon="6.86131">
        <ele>2250</ele>
        <time>2020-02-17T09:41:18.000Z</time>
      </trkpt>
      <trkpt lat="44.5778" lon="6.86131">
        <ele>2250</ele>
        <time>2020-02-17T09:41:19.000Z</time>
      </trkpt>
      <trkpt lat="44.57779" lon="6.86131">
        <ele>2250</ele>
        <time>2020-02-17T09:41:21.000Z</time>
      </trkpt>
      <trkpt lat="44.57779" lon="6.86134">
        <ele>2250</ele>
        <time>2020-02-17T09:41:26.000Z</time>
      </trkpt>
      <trkpt lat="44.57775" lon="6.86143">
        <ele>2252</ele>
        <time>2020-02-17T09:41:32.000Z</time>
      </trkpt>
      <trkpt lat="44.57774" lon="6.86145">
        <ele>2252</ele>
        <time>2020-02-17T09:41:34.000Z</time>
      </trkpt>
      <trkpt lat="44.5777" lon="6.86152">
        <ele>2254</ele>
        <time>2020-02-17T09:41:40.000Z</time>
      </trkpt>
      <trkpt lat="44.5777" lon="6.86153">
        <ele>2254</ele>
        <time>2020-02-17T09:41:41.000Z</time>
      </trkpt>
      <trkpt lat="44.57769" lon="6.86153">
        <ele>2254</ele>
        <time>2020-02-17T09:41:42.000Z</time>
      </trkpt>
      <trkpt lat="44.57768" lon="6.86154">
        <ele>2255</ele>
        <time>2020-02-17T09:41:43.000Z</time>
      </trkpt>
      <trkpt lat="44.57767" lon="6.86157">
        <ele>2255</ele>
        <time>2020-02-17T09:41:46.000Z</time>
      </trkpt>
      <trkpt lat="44.57765" lon="6.86162">
        <ele>2257</ele>
        <time>2020-02-17T09:41:50.000Z</time>
      </trkpt>
      <trkpt lat="44.57763" lon="6.86164">
        <ele>2257</ele>
        <time>2020-02-17T09:41:53.000Z</time>
      </trkpt>
      <trkpt lat="44.57762" lon="6.86165">
        <ele>2258</ele>
        <time>2020-02-17T09:41:54.000Z</time>
      </trkpt>
      <trkpt lat="44.57761" lon="6.86165">
        <ele>2258</ele>
        <time>2020-02-17T09:41:55.000Z</time>
      </trkpt>
      <trkpt lat="44.57759" lon="6.86166">
        <ele>2259</ele>
        <time>2020-02-17T09:41:58.000Z</time>
      </trkpt>
      <trkpt lat="44.57756" lon="6.86168">
        <ele>2265</ele>
        <time>2020-02-17T09:42:02.000Z</time>
      </trkpt>
      <trkpt lat="44.57754" lon="6.86169">
        <ele>2265</ele>
        <time>2020-02-17T09:42:04.000Z</time>
      </trkpt>
      <trkpt lat="44.57753" lon="6.8617">
        <ele>2265</ele>
        <time>2020-02-17T09:42:06.000Z</time>
      </trkpt>
      <trkpt lat="44.5775" lon="6.86173">
        <ele>2264</ele>
        <time>2020-02-17T09:42:10.000Z</time>
      </trkpt>
      <trkpt lat="44.57749" lon="6.86177">
        <ele>2264</ele>
        <time>2020-02-17T09:42:14.000Z</time>
      </trkpt>
      <trkpt lat="44.57744" lon="6.86183">
        <ele>2265</ele>
        <time>2020-02-17T09:42:23.000Z</time>
      </trkpt>
      <trkpt lat="44.57743" lon="6.86184">
        <ele>2265</ele>
        <time>2020-02-17T09:42:25.000Z</time>
      </trkpt>
      <trkpt lat="44.5774" lon="6.86186">
        <ele>2265</ele>
        <time>2020-02-17T09:42:32.000Z</time>
      </trkpt>
      <trkpt lat="44.57738" lon="6.86188">
        <ele>2265</ele>
        <time>2020-02-17T09:42:37.000Z</time>
      </trkpt>
      <trkpt lat="44.57732" lon="6.86193">
        <ele>2266</ele>
        <time>2020-02-17T09:42:46.000Z</time>
      </trkpt>
      <trkpt lat="44.57728" lon="6.862">
        <ele>2266</ele>
        <time>2020-02-17T09:43:00.000Z</time>
      </trkpt>
      <trkpt lat="44.57724" lon="6.86203">
        <ele>2267</ele>
        <time>2020-02-17T09:43:07.000Z</time>
      </trkpt>
      <trkpt lat="44.57724" lon="6.86204">
        <ele>2267</ele>
        <time>2020-02-17T09:43:08.000Z</time>
      </trkpt>
      <trkpt lat="44.5772" lon="6.86211">
        <ele>2267</ele>
        <time>2020-02-17T09:43:17.000Z</time>
      </trkpt>
      <trkpt lat="44.57721" lon="6.86219">
        <ele>2268</ele>
        <time>2020-02-17T09:43:27.000Z</time>
      </trkpt>
      <trkpt lat="44.57718" lon="6.86223">
        <ele>2269</ele>
        <time>2020-02-17T09:43:33.000Z</time>
      </trkpt>
      <trkpt lat="44.57713" lon="6.8623">
        <ele>2269</ele>
        <time>2020-02-17T09:43:42.000Z</time>
      </trkpt>
      <trkpt lat="44.5771" lon="6.86234">
        <ele>2269</ele>
        <time>2020-02-17T09:43:49.000Z</time>
      </trkpt>
      <trkpt lat="44.57707" lon="6.86238">
        <ele>2269</ele>
        <time>2020-02-17T09:43:58.000Z</time>
      </trkpt>
      <trkpt lat="44.57703" lon="6.86242">
        <ele>2268</ele>
        <time>2020-02-17T09:44:06.000Z</time>
      </trkpt>
      <trkpt lat="44.57695" lon="6.86242">
        <ele>2268</ele>
        <time>2020-02-17T09:44:16.000Z</time>
      </trkpt>
      <trkpt lat="44.57686" lon="6.8625">
        <ele>2267</ele>
        <time>2020-02-17T09:44:32.000Z</time>
      </trkpt>
      <trkpt lat="44.57684" lon="6.86253">
        <ele>2275</ele>
        <time>2020-02-17T09:44:36.000Z</time>
      </trkpt>
      <trkpt lat="44.57675" lon="6.8626">
        <ele>2274</ele>
        <time>2020-02-17T09:44:49.000Z</time>
      </trkpt>
      <trkpt lat="44.5767" lon="6.86263">
        <ele>2274</ele>
        <time>2020-02-17T09:44:59.000Z</time>
      </trkpt>
      <trkpt lat="44.57667" lon="6.86266">
        <ele>2275</ele>
        <time>2020-02-17T09:45:03.000Z</time>
      </trkpt>
      <trkpt lat="44.57664" lon="6.86268">
        <ele>2268</ele>
        <time>2020-02-17T09:45:06.000Z</time>
      </trkpt>
      <trkpt lat="44.57664" lon="6.8627">
        <ele>2269</ele>
        <time>2020-02-17T09:45:07.000Z</time>
      </trkpt>
      <trkpt lat="44.5766" lon="6.86276">
        <ele>2269</ele>
        <time>2020-02-17T09:45:13.000Z</time>
      </trkpt>
      <trkpt lat="44.5766" lon="6.86276">
        <ele>2269</ele>
        <time>2020-02-17T09:45:14.000Z</time>
      </trkpt>
      <trkpt lat="44.57659" lon="6.86277">
        <ele>2269</ele>
        <time>2020-02-17T09:45:15.000Z</time>
      </trkpt>
      <trkpt lat="44.57655" lon="6.86283">
        <ele>2270</ele>
        <time>2020-02-17T09:45:22.000Z</time>
      </trkpt>
      <trkpt lat="44.57654" lon="6.86283">
        <ele>2270</ele>
        <time>2020-02-17T09:45:23.000Z</time>
      </trkpt>
      <trkpt lat="44.57651" lon="6.86285">
        <ele>2270</ele>
        <time>2020-02-17T09:45:27.000Z</time>
      </trkpt>
      <trkpt lat="44.5765" lon="6.86286">
        <ele>2270</ele>
        <time>2020-02-17T09:45:28.000Z</time>
      </trkpt>
      <trkpt lat="44.57649" lon="6.86286">
        <ele>2270</ele>
        <time>2020-02-17T09:45:30.000Z</time>
      </trkpt>
      <trkpt lat="44.57648" lon="6.86287">
        <ele>2270</ele>
        <time>2020-02-17T09:45:32.000Z</time>
      </trkpt>
      <trkpt lat="44.57641" lon="6.86294">
        <ele>2270</ele>
        <time>2020-02-17T09:45:43.000Z</time>
      </trkpt>
      <trkpt lat="44.57639" lon="6.86297">
        <ele>2270</ele>
        <time>2020-02-17T09:45:47.000Z</time>
      </trkpt>
      <trkpt lat="44.57638" lon="6.86299">
        <ele>2270</ele>
        <time>2020-02-17T09:45:49.000Z</time>
      </trkpt>
      <trkpt lat="44.57635" lon="6.86307">
        <ele>2271</ele>
        <time>2020-02-17T09:45:57.000Z</time>
      </trkpt>
      <trkpt lat="44.57635" lon="6.86308">
        <ele>2271</ele>
        <time>2020-02-17T09:45:58.000Z</time>
      </trkpt>
      <trkpt lat="44.57633" lon="6.86311">
        <ele>2271</ele>
        <time>2020-02-17T09:46:01.000Z</time>
      </trkpt>
      <trkpt lat="44.57632" lon="6.86314">
        <ele>2271</ele>
        <time>2020-02-17T09:46:04.000Z</time>
      </trkpt>
      <trkpt lat="44.5763" lon="6.86318">
        <ele>2271</ele>
        <time>2020-02-17T09:46:09.000Z</time>
      </trkpt>
      <trkpt lat="44.57629" lon="6.86319">
        <ele>2271</ele>
        <time>2020-02-17T09:46:11.000Z</time>
      </trkpt>
      <trkpt lat="44.57628" lon="6.8632">
        <ele>2271</ele>
        <time>2020-02-17T09:46:12.000Z</time>
      </trkpt>
      <trkpt lat="44.57627" lon="6.86322">
        <ele>2271</ele>
        <time>2020-02-17T09:46:14.000Z</time>
      </trkpt>
      <trkpt lat="44.57626" lon="6.86324">
        <ele>2271</ele>
        <time>2020-02-17T09:46:16.000Z</time>
      </trkpt>
      <trkpt lat="44.57624" lon="6.86326">
        <ele>2271</ele>
        <time>2020-02-17T09:46:18.000Z</time>
      </trkpt>
      <trkpt lat="44.57624" lon="6.86329">
        <ele>2271</ele>
        <time>2020-02-17T09:46:20.000Z</time>
      </trkpt>
      <trkpt lat="44.57622" lon="6.86332">
        <ele>2271</ele>
        <time>2020-02-17T09:46:23.000Z</time>
      </trkpt>
      <trkpt lat="44.57621" lon="6.86336">
        <ele>2281</ele>
        <time>2020-02-17T09:46:26.000Z</time>
      </trkpt>
      <trkpt lat="44.57615" lon="6.86345">
        <ele>2281</ele>
        <time>2020-02-17T09:46:35.000Z</time>
      </trkpt>
      <trkpt lat="44.57614" lon="6.86349">
        <ele>2281</ele>
        <time>2020-02-17T09:46:39.000Z</time>
      </trkpt>
      <trkpt lat="44.57611" lon="6.8635">
        <ele>2280</ele>
        <time>2020-02-17T09:46:59.000Z</time>
      </trkpt>
      <trkpt lat="44.57612" lon="6.86349">
        <ele>2280</ele>
        <time>2020-02-17T09:47:04.000Z</time>
      </trkpt>
      <trkpt lat="44.57612" lon="6.86349">
        <ele>2280</ele>
        <time>2020-02-17T09:47:06.000Z</time>
      </trkpt>
      <trkpt lat="44.57614" lon="6.8635">
        <ele>2281</ele>
        <time>2020-02-17T09:47:12.000Z</time>
      </trkpt>
      <trkpt lat="44.57614" lon="6.8635">
        <ele>2281</ele>
        <time>2020-02-17T09:47:13.000Z</time>
      </trkpt>
      <trkpt lat="44.57614" lon="6.8635">
        <ele>2281</ele>
        <time>2020-02-17T09:47:17.000Z</time>
      </trkpt>
      <trkpt lat="44.57613" lon="6.86348">
        <ele>2280</ele>
        <time>2020-02-17T09:47:19.000Z</time>
      </trkpt>
      <trkpt lat="44.57612" lon="6.86346">
        <ele>2280</ele>
        <time>2020-02-17T09:47:23.000Z</time>
      </trkpt>
      <trkpt lat="44.57612" lon="6.86345">
        <ele>2280</ele>
        <time>2020-02-17T09:47:26.000Z</time>
      </trkpt>
      <trkpt lat="44.57612" lon="6.86344">
        <ele>2280</ele>
        <time>2020-02-17T09:47:41.000Z</time>
      </trkpt>
      <trkpt lat="44.57612" lon="6.86343">
        <ele>2280</ele>
        <time>2020-02-17T09:47:43.000Z</time>
      </trkpt>
      <trkpt lat="44.57612" lon="6.86343">
        <ele>2280</ele>
        <time>2020-02-17T09:47:44.000Z</time>
      </trkpt>
      <trkpt lat="44.57611" lon="6.86343">
        <ele>2280</ele>
        <time>2020-02-17T09:47:45.000Z</time>
      </trkpt>
      <trkpt lat="44.57611" lon="6.86342">
        <ele>2280</ele>
        <time>2020-02-17T09:47:47.000Z</time>
      </trkpt>
      <trkpt lat="44.57612" lon="6.86344">
        <ele>2280</ele>
        <time>2020-02-17T09:47:52.000Z</time>
      </trkpt>
      <trkpt lat="44.57612" lon="6.86347">
        <ele>2280</ele>
        <time>2020-02-17T09:47:57.000Z</time>
      </trkpt>
      <trkpt lat="44.5761" lon="6.86347">
        <ele>2280</ele>
        <time>2020-02-17T09:47:59.000Z</time>
      </trkpt>
      <trkpt lat="44.57607" lon="6.86345">
        <ele>2279</ele>
        <time>2020-02-17T09:48:02.000Z</time>
      </trkpt>
      <trkpt lat="44.57606" lon="6.86344">
        <ele>2279</ele>
        <time>2020-02-17T09:48:05.000Z</time>
      </trkpt>
      <trkpt lat="44.57607" lon="6.86346">
        <ele>2279</ele>
        <time>2020-02-17T09:48:09.000Z</time>
      </trkpt>
      <trkpt lat="44.57608" lon="6.86347">
        <ele>2280</ele>
        <time>2020-02-17T09:48:11.000Z</time>
      </trkpt>
      <trkpt lat="44.57611" lon="6.86349">
        <ele>2280</ele>
        <time>2020-02-17T09:48:15.000Z</time>
      </trkpt>
      <trkpt lat="44.57612" lon="6.86348">
        <ele>2280</ele>
        <time>2020-02-17T09:48:17.000Z</time>
      </trkpt>
      <trkpt lat="44.57613" lon="6.86348">
        <ele>2280</ele>
        <time>2020-02-17T09:48:20.000Z</time>
      </trkpt>
      <trkpt lat="44.57613" lon="6.86348">
        <ele>2280</ele>
        <time>2020-02-17T09:48:23.000Z</time>
      </trkpt>
      <trkpt lat="44.57612" lon="6.86347">
        <ele>2280</ele>
        <time>2020-02-17T09:48:25.000Z</time>
      </trkpt>
      <trkpt lat="44.57611" lon="6.86346">
        <ele>2280</ele>
        <time>2020-02-17T09:48:28.000Z</time>
      </trkpt>
      <trkpt lat="44.57611" lon="6.86346">
        <ele>2280</ele>
        <time>2020-02-17T09:48:32.000Z</time>
      </trkpt>
      <trkpt lat="44.57611" lon="6.86346">
        <ele>2280</ele>
        <time>2020-02-17T09:48:34.000Z</time>
      </trkpt>
      <trkpt lat="44.5761" lon="6.86346">
        <ele>2280</ele>
        <time>2020-02-17T09:48:35.000Z</time>
      </trkpt>
      <trkpt lat="44.5761" lon="6.86346">
        <ele>2280</ele>
        <time>2020-02-17T09:48:36.000Z</time>
      </trkpt>
      <trkpt lat="44.57611" lon="6.86346">
        <ele>2280</ele>
        <time>2020-02-17T09:48:41.000Z</time>
      </trkpt>
      <trkpt lat="44.57611" lon="6.86346">
        <ele>2280</ele>
        <time>2020-02-17T09:48:42.000Z</time>
      </trkpt>
      <trkpt lat="44.57611" lon="6.86347">
        <ele>2280</ele>
        <time>2020-02-17T09:48:44.000Z</time>
      </trkpt>
      <trkpt lat="44.57612" lon="6.86346">
        <ele>2280</ele>
        <time>2020-02-17T09:48:52.000Z</time>
      </trkpt>
      <trkpt lat="44.57612" lon="6.86346">
        <ele>2280</ele>
        <time>2020-02-17T09:48:54.000Z</time>
      </trkpt>
      <trkpt lat="44.57612" lon="6.86346">
        <ele>2280</ele>
        <time>2020-02-17T09:48:56.000Z</time>
      </trkpt>
      <trkpt lat="44.57612" lon="6.86346">
        <ele>2280</ele>
        <time>2020-02-17T09:49:01.000Z</time>
      </trkpt>
      <trkpt lat="44.57613" lon="6.86346">
        <ele>2280</ele>
        <time>2020-02-17T09:49:02.000Z</time>
      </trkpt>
      <trkpt lat="44.57613" lon="6.86347">
        <ele>2280</ele>
        <time>2020-02-17T09:49:04.000Z</time>
      </trkpt>
      <trkpt lat="44.57614" lon="6.86348">
        <ele>2281</ele>
        <time>2020-02-17T09:49:07.000Z</time>
      </trkpt>
      <trkpt lat="44.57613" lon="6.86347">
        <ele>2280</ele>
        <time>2020-02-17T09:49:13.000Z</time>
      </trkpt>
      <trkpt lat="44.57612" lon="6.86346">
        <ele>2280</ele>
        <time>2020-02-17T09:49:19.000Z</time>
      </trkpt>
      <trkpt lat="44.57612" lon="6.86346">
        <ele>2280</ele>
        <time>2020-02-17T09:49:22.000Z</time>
      </trkpt>
      <trkpt lat="44.57612" lon="6.86347">
        <ele>2280</ele>
        <time>2020-02-17T09:49:25.000Z</time>
      </trkpt>
      <trkpt lat="44.57614" lon="6.86347">
        <ele>2280</ele>
        <time>2020-02-17T09:49:28.000Z</time>
      </trkpt>
      <trkpt lat="44.57614" lon="6.86347">
        <ele>2281</ele>
        <time>2020-02-17T09:49:29.000Z</time>
      </trkpt>
      <trkpt lat="44.57615" lon="6.86347">
        <ele>2281</ele>
        <time>2020-02-17T09:49:34.000Z</time>
      </trkpt>
      <trkpt lat="44.57615" lon="6.86347">
        <ele>2281</ele>
        <time>2020-02-17T09:49:35.000Z</time>
      </trkpt>
      <trkpt lat="44.57614" lon="6.86346">
        <ele>2280</ele>
        <time>2020-02-17T09:49:41.000Z</time>
      </trkpt>
      <trkpt lat="44.57614" lon="6.86346">
        <ele>2280</ele>
        <time>2020-02-17T09:49:42.000Z</time>
      </trkpt>
      <trkpt lat="44.57614" lon="6.86346">
        <ele>2280</ele>
        <time>2020-02-17T09:49:43.000Z</time>
      </trkpt>
      <trkpt lat="44.57613" lon="6.86346">
        <ele>2280</ele>
        <time>2020-02-17T09:49:44.000Z</time>
      </trkpt>
      <trkpt lat="44.57613" lon="6.86346">
        <ele>2280</ele>
        <time>2020-02-17T09:49:45.000Z</time>
      </trkpt>
      <trkpt lat="44.57612" lon="6.86347">
        <ele>2280</ele>
        <time>2020-02-17T09:49:47.000Z</time>
      </trkpt>
      <trkpt lat="44.57611" lon="6.86349">
        <ele>2280</ele>
        <time>2020-02-17T09:49:50.000Z</time>
      </trkpt>
      <trkpt lat="44.5761" lon="6.86349">
        <ele>2280</ele>
        <time>2020-02-17T09:49:51.000Z</time>
      </trkpt>
      <trkpt lat="44.5761" lon="6.8635">
        <ele>2280</ele>
        <time>2020-02-17T09:49:52.000Z</time>
      </trkpt>
      <trkpt lat="44.5761" lon="6.86349">
        <ele>2280</ele>
        <time>2020-02-17T09:49:53.000Z</time>
      </trkpt>
      <trkpt lat="44.57611" lon="6.8635">
        <ele>2280</ele>
        <time>2020-02-17T09:49:56.000Z</time>
      </trkpt>
      <trkpt lat="44.57611" lon="6.8635">
        <ele>2280</ele>
        <time>2020-02-17T09:49:58.000Z</time>
      </trkpt>
      <trkpt lat="44.57611" lon="6.8635">
        <ele>2280</ele>
        <time>2020-02-17T09:49:59.000Z</time>
      </trkpt>
      <trkpt lat="44.57611" lon="6.86351">
        <ele>2280</ele>
        <time>2020-02-17T09:50:01.000Z</time>
      </trkpt>
      <trkpt lat="44.57612" lon="6.86351">
        <ele>2281</ele>
        <time>2020-02-17T09:50:04.000Z</time>
      </trkpt>
      <trkpt lat="44.57611" lon="6.86351">
        <ele>2281</ele>
        <time>2020-02-17T09:50:05.000Z</time>
      </trkpt>
      <trkpt lat="44.57611" lon="6.86351">
        <ele>2280</ele>
        <time>2020-02-17T09:50:09.000Z</time>
      </trkpt>
      <trkpt lat="44.57611" lon="6.8635">
        <ele>2280</ele>
        <time>2020-02-17T09:50:13.000Z</time>
      </trkpt>
      <trkpt lat="44.57611" lon="6.8635">
        <ele>2280</ele>
        <time>2020-02-17T09:50:14.000Z</time>
      </trkpt>
      <trkpt lat="44.5761" lon="6.86351">
        <ele>2280</ele>
        <time>2020-02-17T09:50:17.000Z</time>
      </trkpt>
      <trkpt lat="44.5761" lon="6.8635">
        <ele>2280</ele>
        <time>2020-02-17T09:50:18.000Z</time>
      </trkpt>
      <trkpt lat="44.57611" lon="6.8635">
        <ele>2280</ele>
        <time>2020-02-17T09:50:19.000Z</time>
      </trkpt>
      <trkpt lat="44.57611" lon="6.86349">
        <ele>2280</ele>
        <time>2020-02-17T09:50:22.000Z</time>
      </trkpt>
      <trkpt lat="44.57609" lon="6.86349">
        <ele>2280</ele>
        <time>2020-02-17T09:50:33.000Z</time>
      </trkpt>
      <trkpt lat="44.5761" lon="6.86347">
        <ele>2280</ele>
        <time>2020-02-17T09:50:38.000Z</time>
      </trkpt>
      <trkpt lat="44.57611" lon="6.86347">
        <ele>2280</ele>
        <time>2020-02-17T09:50:47.000Z</time>
      </trkpt>
      <trkpt lat="44.57612" lon="6.86348">
        <ele>2280</ele>
        <time>2020-02-17T09:50:51.000Z</time>
      </trkpt>
      <trkpt lat="44.57613" lon="6.8635">
        <ele>2281</ele>
        <time>2020-02-17T09:50:57.000Z</time>
      </trkpt>
      <trkpt lat="44.57611" lon="6.86348">
        <ele>2280</ele>
        <time>2020-02-17T09:51:02.000Z</time>
      </trkpt>
      <trkpt lat="44.5761" lon="6.86348">
        <ele>2280</ele>
        <time>2020-02-17T09:51:04.000Z</time>
      </trkpt>
      <trkpt lat="44.5761" lon="6.86346">
        <ele>2280</ele>
        <time>2020-02-17T09:51:09.000Z</time>
      </trkpt>
      <trkpt lat="44.57609" lon="6.86346">
        <ele>2280</ele>
        <time>2020-02-17T09:51:10.000Z</time>
      </trkpt>
      <trkpt lat="44.57609" lon="6.86347">
        <ele>2280</ele>
        <time>2020-02-17T09:51:11.000Z</time>
      </trkpt>
      <trkpt lat="44.5761" lon="6.86346">
        <ele>2280</ele>
        <time>2020-02-17T09:51:13.000Z</time>
      </trkpt>
      <trkpt lat="44.5761" lon="6.86346">
        <ele>2280</ele>
        <time>2020-02-17T09:51:14.000Z</time>
      </trkpt>
      <trkpt lat="44.57612" lon="6.86343">
        <ele>2280</ele>
        <time>2020-02-17T09:51:18.000Z</time>
      </trkpt>
      <trkpt lat="44.57612" lon="6.86342">
        <ele>2280</ele>
        <time>2020-02-17T09:51:19.000Z</time>
      </trkpt>
      <trkpt lat="44.57612" lon="6.86341">
        <ele>2280</ele>
        <time>2020-02-17T09:51:20.000Z</time>
      </trkpt>
      <trkpt lat="44.57611" lon="6.86341">
        <ele>2280</ele>
        <time>2020-02-17T09:51:21.000Z</time>
      </trkpt>
      <trkpt lat="44.57608" lon="6.8634">
        <ele>2279</ele>
        <time>2020-02-17T09:51:25.000Z</time>
      </trkpt>
      <trkpt lat="44.57607" lon="6.8634">
        <ele>2279</ele>
        <time>2020-02-17T09:51:27.000Z</time>
      </trkpt>
      <trkpt lat="44.57606" lon="6.86339">
        <ele>2278</ele>
        <time>2020-02-17T09:51:29.000Z</time>
      </trkpt>
      <trkpt lat="44.57607" lon="6.86341">
        <ele>2279</ele>
        <time>2020-02-17T09:51:31.000Z</time>
      </trkpt>
      <trkpt lat="44.57608" lon="6.86342">
        <ele>2279</ele>
        <time>2020-02-17T09:51:32.000Z</time>
      </trkpt>
      <trkpt lat="44.57609" lon="6.86342">
        <ele>2279</ele>
        <time>2020-02-17T09:51:33.000Z</time>
      </trkpt>
      <trkpt lat="44.57612" lon="6.86346">
        <ele>2280</ele>
        <time>2020-02-17T09:51:36.000Z</time>
      </trkpt>
      <trkpt lat="44.57614" lon="6.86347">
        <ele>2280</ele>
        <time>2020-02-17T09:51:38.000Z</time>
      </trkpt>
      <trkpt lat="44.57614" lon="6.86347">
        <ele>2280</ele>
        <time>2020-02-17T09:51:40.000Z</time>
      </trkpt>
      <trkpt lat="44.57613" lon="6.86348">
        <ele>2280</ele>
        <time>2020-02-17T09:51:43.000Z</time>
      </trkpt>
      <trkpt lat="44.57613" lon="6.86348">
        <ele>2280</ele>
        <time>2020-02-17T09:51:44.000Z</time>
      </trkpt>
      <trkpt lat="44.57612" lon="6.86349">
        <ele>2280</ele>
        <time>2020-02-17T09:51:48.000Z</time>
      </trkpt>
      <trkpt lat="44.57612" lon="6.86349">
        <ele>2280</ele>
        <time>2020-02-17T09:51:49.000Z</time>
      </trkpt>
      <trkpt lat="44.57612" lon="6.8635">
        <ele>2281</ele>
        <time>2020-02-17T09:51:50.000Z</time>
      </trkpt>
      <trkpt lat="44.57613" lon="6.8635">
        <ele>2281</ele>
        <time>2020-02-17T09:51:52.000Z</time>
      </trkpt>
      <trkpt lat="44.57614" lon="6.8635">
        <ele>2281</ele>
        <time>2020-02-17T09:51:53.000Z</time>
      </trkpt>
      <trkpt lat="44.57615" lon="6.8635">
        <ele>2281</ele>
        <time>2020-02-17T09:51:54.000Z</time>
      </trkpt>
      <trkpt lat="44.57615" lon="6.86352">
        <ele>2281</ele>
        <time>2020-02-17T09:51:57.000Z</time>
      </trkpt>
      <trkpt lat="44.57614" lon="6.86353">
        <ele>2281</ele>
        <time>2020-02-17T09:51:58.000Z</time>
      </trkpt>
      <trkpt lat="44.57614" lon="6.86353">
        <ele>2281</ele>
        <time>2020-02-17T09:51:59.000Z</time>
      </trkpt>
      <trkpt lat="44.5761" lon="6.8636">
        <ele>2281</ele>
        <time>2020-02-17T09:52:08.000Z</time>
      </trkpt>
      <trkpt lat="44.57609" lon="6.86364">
        <ele>2282</ele>
        <time>2020-02-17T09:52:11.000Z</time>
      </trkpt>
      <trkpt lat="44.57608" lon="6.86364">
        <ele>2282</ele>
        <time>2020-02-17T09:52:12.000Z</time>
      </trkpt>
      <trkpt lat="44.57608" lon="6.86365">
        <ele>2282</ele>
        <time>2020-02-17T09:52:13.000Z</time>
      </trkpt>
      <trkpt lat="44.57606" lon="6.86377">
        <ele>2283</ele>
        <time>2020-02-17T09:52:22.000Z</time>
      </trkpt>
      <trkpt lat="44.57605" lon="6.86384">
        <ele>2283</ele>
        <time>2020-02-17T09:52:26.000Z</time>
      </trkpt>
      <trkpt lat="44.57606" lon="6.86389">
        <ele>2284</ele>
        <time>2020-02-17T09:52:30.000Z</time>
      </trkpt>
      <trkpt lat="44.57602" lon="6.86402">
        <ele>2284</ele>
        <time>2020-02-17T09:52:42.000Z</time>
      </trkpt>
      <trkpt lat="44.576" lon="6.86411">
        <ele>2285</ele>
        <time>2020-02-17T09:52:49.000Z</time>
      </trkpt>
      <trkpt lat="44.57595" lon="6.86416">
        <ele>2284</ele>
        <time>2020-02-17T09:52:55.000Z</time>
      </trkpt>
      <trkpt lat="44.57594" lon="6.86418">
        <ele>2289</ele>
        <time>2020-02-17T09:52:58.000Z</time>
      </trkpt>
      <trkpt lat="44.5759" lon="6.86421">
        <ele>2288</ele>
        <time>2020-02-17T09:53:03.000Z</time>
      </trkpt>
      <trkpt lat="44.57589" lon="6.86421">
        <ele>2288</ele>
        <time>2020-02-17T09:53:04.000Z</time>
      </trkpt>
      <trkpt lat="44.57587" lon="6.86423">
        <ele>2288</ele>
        <time>2020-02-17T09:53:06.000Z</time>
      </trkpt>
      <trkpt lat="44.57586" lon="6.86424">
        <ele>2288</ele>
        <time>2020-02-17T09:53:08.000Z</time>
      </trkpt>
      <trkpt lat="44.57585" lon="6.86425">
        <ele>2289</ele>
        <time>2020-02-17T09:53:10.000Z</time>
      </trkpt>
      <trkpt lat="44.57584" lon="6.86425">
        <ele>2289</ele>
        <time>2020-02-17T09:53:11.000Z</time>
      </trkpt>
      <trkpt lat="44.57582" lon="6.86427">
        <ele>2286</ele>
        <time>2020-02-17T09:53:14.000Z</time>
      </trkpt>
      <trkpt lat="44.57579" lon="6.8643">
        <ele>2287</ele>
        <time>2020-02-17T09:53:19.000Z</time>
      </trkpt>
      <trkpt lat="44.57578" lon="6.86431">
        <ele>2287</ele>
        <time>2020-02-17T09:53:21.000Z</time>
      </trkpt>
      <trkpt lat="44.57578" lon="6.86432">
        <ele>2287</ele>
        <time>2020-02-17T09:53:22.000Z</time>
      </trkpt>
      <trkpt lat="44.57576" lon="6.86436">
        <ele>2288</ele>
        <time>2020-02-17T09:53:32.000Z</time>
      </trkpt>
      <trkpt lat="44.57576" lon="6.86437">
        <ele>2288</ele>
        <time>2020-02-17T09:53:33.000Z</time>
      </trkpt>
      <trkpt lat="44.57574" lon="6.86441">
        <ele>2289</ele>
        <time>2020-02-17T09:53:40.000Z</time>
      </trkpt>
      <trkpt lat="44.5757" lon="6.86447">
        <ele>2289</ele>
        <time>2020-02-17T09:53:49.000Z</time>
      </trkpt>
      <trkpt lat="44.57569" lon="6.86448">
        <ele>2290</ele>
        <time>2020-02-17T09:53:53.000Z</time>
      </trkpt>
      <trkpt lat="44.57568" lon="6.86447">
        <ele>2289</ele>
        <time>2020-02-17T09:54:15.000Z</time>
      </trkpt>
      <trkpt lat="44.57569" lon="6.86448">
        <ele>2290</ele>
        <time>2020-02-17T09:54:18.000Z</time>
      </trkpt>
      <trkpt lat="44.57565" lon="6.86455">
        <ele>2290</ele>
        <time>2020-02-17T09:54:27.000Z</time>
      </trkpt>
      <trkpt lat="44.57564" lon="6.8646">
        <ele>2291</ele>
        <time>2020-02-17T09:54:32.000Z</time>
      </trkpt>
      <trkpt lat="44.57563" lon="6.86463">
        <ele>2291</ele>
        <time>2020-02-17T09:54:34.000Z</time>
      </trkpt>
      <trkpt lat="44.57563" lon="6.86464">
        <ele>2291</ele>
        <time>2020-02-17T09:54:35.000Z</time>
      </trkpt>
      <trkpt lat="44.57563" lon="6.86466">
        <ele>2292</ele>
        <time>2020-02-17T09:54:37.000Z</time>
      </trkpt>
      <trkpt lat="44.57562" lon="6.86471">
        <ele>2292</ele>
        <time>2020-02-17T09:54:48.000Z</time>
      </trkpt>
      <trkpt lat="44.57559" lon="6.86475">
        <ele>2293</ele>
        <time>2020-02-17T09:54:53.000Z</time>
      </trkpt>
      <trkpt lat="44.57558" lon="6.86478">
        <ele>2293</ele>
        <time>2020-02-17T09:54:56.000Z</time>
      </trkpt>
      <trkpt lat="44.57556" lon="6.86484">
        <ele>2293</ele>
        <time>2020-02-17T09:55:03.000Z</time>
      </trkpt>
      <trkpt lat="44.57553" lon="6.86488">
        <ele>2294</ele>
        <time>2020-02-17T09:55:11.000Z</time>
      </trkpt>
      <trkpt lat="44.57552" lon="6.86492">
        <ele>2294</ele>
        <time>2020-02-17T09:55:16.000Z</time>
      </trkpt>
      <trkpt lat="44.57551" lon="6.86495">
        <ele>2294</ele>
        <time>2020-02-17T09:55:19.000Z</time>
      </trkpt>
      <trkpt lat="44.57549" lon="6.86501">
        <ele>2306</ele>
        <time>2020-02-17T09:55:28.000Z</time>
      </trkpt>
      <trkpt lat="44.57547" lon="6.86506">
        <ele>2306</ele>
        <time>2020-02-17T09:55:36.000Z</time>
      </trkpt>
      <trkpt lat="44.57547" lon="6.8651">
        <ele>2307</ele>
        <time>2020-02-17T09:55:42.000Z</time>
      </trkpt>
      <trkpt lat="44.57544" lon="6.86514">
        <ele>2307</ele>
        <time>2020-02-17T09:55:49.000Z</time>
      </trkpt>
      <trkpt lat="44.57543" lon="6.86517">
        <ele>2307</ele>
        <time>2020-02-17T09:55:56.000Z</time>
      </trkpt>
      <trkpt lat="44.5754" lon="6.86522">
        <ele>2308</ele>
        <time>2020-02-17T09:56:04.000Z</time>
      </trkpt>
      <trkpt lat="44.57539" lon="6.86522">
        <ele>2308</ele>
        <time>2020-02-17T09:56:12.000Z</time>
      </trkpt>
      <trkpt lat="44.57537" lon="6.86526">
        <ele>2308</ele>
        <time>2020-02-17T09:56:20.000Z</time>
      </trkpt>
      <trkpt lat="44.57536" lon="6.86527">
        <ele>2308</ele>
        <time>2020-02-17T09:56:23.000Z</time>
      </trkpt>
      <trkpt lat="44.57535" lon="6.86529">
        <ele>2309</ele>
        <time>2020-02-17T09:56:26.000Z</time>
      </trkpt>
      <trkpt lat="44.57534" lon="6.86529">
        <ele>2309</ele>
        <time>2020-02-17T09:56:28.000Z</time>
      </trkpt>
      <trkpt lat="44.57537" lon="6.86527">
        <ele>2308</ele>
        <time>2020-02-17T09:56:41.000Z</time>
      </trkpt>
      <trkpt lat="44.57537" lon="6.86527">
        <ele>2308</ele>
        <time>2020-02-17T09:56:44.000Z</time>
      </trkpt>
      <trkpt lat="44.57538" lon="6.86526">
        <ele>2308</ele>
        <time>2020-02-17T09:56:48.000Z</time>
      </trkpt>
      <trkpt lat="44.57538" lon="6.86526">
        <ele>2308</ele>
        <time>2020-02-17T09:56:50.000Z</time>
      </trkpt>
      <trkpt lat="44.57538" lon="6.86526">
        <ele>2308</ele>
        <time>2020-02-17T09:56:53.000Z</time>
      </trkpt>
      <trkpt lat="44.57538" lon="6.86527">
        <ele>2308</ele>
        <time>2020-02-17T09:56:56.000Z</time>
      </trkpt>
      <trkpt lat="44.57537" lon="6.86527">
        <ele>2308</ele>
        <time>2020-02-17T09:56:58.000Z</time>
      </trkpt>
      <trkpt lat="44.57537" lon="6.86527">
        <ele>2308</ele>
        <time>2020-02-17T09:57:00.000Z</time>
      </trkpt>
      <trkpt lat="44.57536" lon="6.86526">
        <ele>2308</ele>
        <time>2020-02-17T09:57:03.000Z</time>
      </trkpt>
      <trkpt lat="44.57537" lon="6.86524">
        <ele>2308</ele>
        <time>2020-02-17T09:57:08.000Z</time>
      </trkpt>
      <trkpt lat="44.57537" lon="6.86524">
        <ele>2308</ele>
        <time>2020-02-17T09:57:10.000Z</time>
      </trkpt>
      <trkpt lat="44.57537" lon="6.86529">
        <ele>2309</ele>
        <time>2020-02-17T09:57:36.000Z</time>
      </trkpt>
      <trkpt lat="44.57535" lon="6.86531">
        <ele>2309</ele>
        <time>2020-02-17T09:57:42.000Z</time>
      </trkpt>
      <trkpt lat="44.57535" lon="6.86531">
        <ele>2309</ele>
        <time>2020-02-17T09:57:43.000Z</time>
      </trkpt>
      <trkpt lat="44.57535" lon="6.86532">
        <ele>2309</ele>
        <time>2020-02-17T09:57:44.000Z</time>
      </trkpt>
      <trkpt lat="44.57536" lon="6.8653">
        <ele>2309</ele>
        <time>2020-02-17T09:57:48.000Z</time>
      </trkpt>
      <trkpt lat="44.57536" lon="6.86529">
        <ele>2309</ele>
        <time>2020-02-17T09:57:53.000Z</time>
      </trkpt>
      <trkpt lat="44.57534" lon="6.86531">
        <ele>2309</ele>
        <time>2020-02-17T09:57:55.000Z</time>
      </trkpt>
      <trkpt lat="44.57533" lon="6.86533">
        <ele>2309</ele>
        <time>2020-02-17T09:57:58.000Z</time>
      </trkpt>
      <trkpt lat="44.57532" lon="6.86533">
        <ele>2309</ele>
        <time>2020-02-17T09:58:00.000Z</time>
      </trkpt>
      <trkpt lat="44.57527" lon="6.86536">
        <ele>2309</ele>
        <time>2020-02-17T09:58:09.000Z</time>
      </trkpt>
      <trkpt lat="44.57525" lon="6.86539">
        <ele>2310</ele>
        <time>2020-02-17T09:58:13.000Z</time>
      </trkpt>
      <trkpt lat="44.57524" lon="6.86541">
        <ele>2310</ele>
        <time>2020-02-17T09:58:15.000Z</time>
      </trkpt>
      <trkpt lat="44.57523" lon="6.86543">
        <ele>2310</ele>
        <time>2020-02-17T09:58:19.000Z</time>
      </trkpt>
      <trkpt lat="44.57521" lon="6.86545">
        <ele>2311</ele>
        <time>2020-02-17T09:58:22.000Z</time>
      </trkpt>
      <trkpt lat="44.5752" lon="6.86548">
        <ele>2311</ele>
        <time>2020-02-17T09:58:26.000Z</time>
      </trkpt>
      <trkpt lat="44.57517" lon="6.86552">
        <ele>2312</ele>
        <time>2020-02-17T09:58:32.000Z</time>
      </trkpt>
      <trkpt lat="44.57514" lon="6.86555">
        <ele>2312</ele>
        <time>2020-02-17T09:58:39.000Z</time>
      </trkpt>
      <trkpt lat="44.57514" lon="6.86556">
        <ele>2313</ele>
        <time>2020-02-17T09:58:41.000Z</time>
      </trkpt>
      <trkpt lat="44.57511" lon="6.8656">
        <ele>2313</ele>
        <time>2020-02-17T09:58:50.000Z</time>
      </trkpt>
      <trkpt lat="44.57509" lon="6.86563">
        <ele>2314</ele>
        <time>2020-02-17T09:58:57.000Z</time>
      </trkpt>
      <trkpt lat="44.57509" lon="6.86563">
        <ele>2314</ele>
        <time>2020-02-17T09:58:59.000Z</time>
      </trkpt>
      <trkpt lat="44.57507" lon="6.8657">
        <ele>2316</ele>
        <time>2020-02-17T09:59:09.000Z</time>
      </trkpt>
      <trkpt lat="44.57504" lon="6.86575">
        <ele>2317</ele>
        <time>2020-02-17T09:59:16.000Z</time>
      </trkpt>
      <trkpt lat="44.57503" lon="6.8658">
        <ele>2318</ele>
        <time>2020-02-17T09:59:25.000Z</time>
      </trkpt>
      <trkpt lat="44.57502" lon="6.86584">
        <ele>2321</ele>
        <time>2020-02-17T09:59:31.000Z</time>
      </trkpt>
      <trkpt lat="44.57501" lon="6.86587">
        <ele>2321</ele>
        <time>2020-02-17T09:59:38.000Z</time>
      </trkpt>
      <trkpt lat="44.575" lon="6.86591">
        <ele>2322</ele>
        <time>2020-02-17T09:59:50.000Z</time>
      </trkpt>
      <trkpt lat="44.57499" lon="6.86594">
        <ele>2323</ele>
        <time>2020-02-17T09:59:58.000Z</time>
      </trkpt>
      <trkpt lat="44.57495" lon="6.86602">
        <ele>2324</ele>
        <time>2020-02-17T10:00:06.000Z</time>
      </trkpt>
      <trkpt lat="44.57495" lon="6.86605">
        <ele>2325</ele>
        <time>2020-02-17T10:00:12.000Z</time>
      </trkpt>
      <trkpt lat="44.57494" lon="6.86611">
        <ele>2326</ele>
        <time>2020-02-17T10:00:22.000Z</time>
      </trkpt>
      <trkpt lat="44.57493" lon="6.86615">
        <ele>2326</ele>
        <time>2020-02-17T10:00:28.000Z</time>
      </trkpt>
      <trkpt lat="44.5749" lon="6.86622">
        <ele>2327</ele>
        <time>2020-02-17T10:00:34.000Z</time>
      </trkpt>
      <trkpt lat="44.5749" lon="6.86622">
        <ele>2327</ele>
        <time>2020-02-17T10:00:35.000Z</time>
      </trkpt>
      <trkpt lat="44.57487" lon="6.86628">
        <ele>2328</ele>
        <time>2020-02-17T10:00:40.000Z</time>
      </trkpt>
      <trkpt lat="44.57487" lon="6.8663">
        <ele>2328</ele>
        <time>2020-02-17T10:00:42.000Z</time>
      </trkpt>
      <trkpt lat="44.57486" lon="6.86633">
        <ele>2328</ele>
        <time>2020-02-17T10:00:44.000Z</time>
      </trkpt>
      <trkpt lat="44.57485" lon="6.86634">
        <ele>2328</ele>
        <time>2020-02-17T10:00:46.000Z</time>
      </trkpt>
      <trkpt lat="44.57485" lon="6.86635">
        <ele>2328</ele>
        <time>2020-02-17T10:00:47.000Z</time>
      </trkpt>
      <trkpt lat="44.57484" lon="6.86637">
        <ele>2329</ele>
        <time>2020-02-17T10:00:50.000Z</time>
      </trkpt>
      <trkpt lat="44.57484" lon="6.86638">
        <ele>2329</ele>
        <time>2020-02-17T10:00:51.000Z</time>
      </trkpt>
      <trkpt lat="44.57483" lon="6.86639">
        <ele>2329</ele>
        <time>2020-02-17T10:00:56.000Z</time>
      </trkpt>
      <trkpt lat="44.57484" lon="6.8664">
        <ele>2329</ele>
        <time>2020-02-17T10:01:03.000Z</time>
      </trkpt>
      <trkpt lat="44.57483" lon="6.86646">
        <ele>2330</ele>
        <time>2020-02-17T10:01:10.000Z</time>
      </trkpt>
      <trkpt lat="44.57481" lon="6.86654">
        <ele>2330</ele>
        <time>2020-02-17T10:01:19.000Z</time>
      </trkpt>
      <trkpt lat="44.57482" lon="6.8666">
        <ele>2331</ele>
        <time>2020-02-17T10:01:27.000Z</time>
      </trkpt>
      <trkpt lat="44.57481" lon="6.86666">
        <ele>2331</ele>
        <time>2020-02-17T10:01:34.000Z</time>
      </trkpt>
      <trkpt lat="44.5748" lon="6.86671">
        <ele>2339</ele>
        <time>2020-02-17T10:01:39.000Z</time>
      </trkpt>
      <trkpt lat="44.5748" lon="6.86673">
        <ele>2339</ele>
        <time>2020-02-17T10:01:41.000Z</time>
      </trkpt>
      <trkpt lat="44.5748" lon="6.86674">
        <ele>2339</ele>
        <time>2020-02-17T10:01:44.000Z</time>
      </trkpt>
      <trkpt lat="44.57477" lon="6.86679">
        <ele>2340</ele>
        <time>2020-02-17T10:01:53.000Z</time>
      </trkpt>
      <trkpt lat="44.57476" lon="6.86683">
        <ele>2341</ele>
        <time>2020-02-17T10:02:00.000Z</time>
      </trkpt>
      <trkpt lat="44.57472" lon="6.86688">
        <ele>2342</ele>
        <time>2020-02-17T10:02:06.000Z</time>
      </trkpt>
      <trkpt lat="44.57471" lon="6.86693">
        <ele>2342</ele>
        <time>2020-02-17T10:02:15.000Z</time>
      </trkpt>
      <trkpt lat="44.57468" lon="6.86697">
        <ele>2343</ele>
        <time>2020-02-17T10:02:22.000Z</time>
      </trkpt>
      <trkpt lat="44.57462" lon="6.86701">
        <ele>2343</ele>
        <time>2020-02-17T10:02:43.000Z</time>
      </trkpt>
      <trkpt lat="44.57462" lon="6.86701">
        <ele>2343</ele>
        <time>2020-02-17T10:02:46.000Z</time>
      </trkpt>
      <trkpt lat="44.57462" lon="6.86702">
        <ele>2343</ele>
        <time>2020-02-17T10:02:48.000Z</time>
      </trkpt>
      <trkpt lat="44.57462" lon="6.86703">
        <ele>2343</ele>
        <time>2020-02-17T10:02:49.000Z</time>
      </trkpt>
      <trkpt lat="44.57461" lon="6.86704">
        <ele>2344</ele>
        <time>2020-02-17T10:02:52.000Z</time>
      </trkpt>
      <trkpt lat="44.5746" lon="6.86706">
        <ele>2344</ele>
        <time>2020-02-17T10:02:54.000Z</time>
      </trkpt>
      <trkpt lat="44.5746" lon="6.86707">
        <ele>2344</ele>
        <time>2020-02-17T10:02:55.000Z</time>
      </trkpt>
      <trkpt lat="44.57455" lon="6.86712">
        <ele>2344</ele>
        <time>2020-02-17T10:03:03.000Z</time>
      </trkpt>
      <trkpt lat="44.5745" lon="6.86718">
        <ele>2345</ele>
        <time>2020-02-17T10:03:11.000Z</time>
      </trkpt>
      <trkpt lat="44.57449" lon="6.86719">
        <ele>2345</ele>
        <time>2020-02-17T10:03:15.000Z</time>
      </trkpt>
      <trkpt lat="44.57448" lon="6.8672">
        <ele>2345</ele>
        <time>2020-02-17T10:03:17.000Z</time>
      </trkpt>
      <trkpt lat="44.57447" lon="6.86721">
        <ele>2345</ele>
        <time>2020-02-17T10:03:18.000Z</time>
      </trkpt>
      <trkpt lat="44.57442" lon="6.86725">
        <ele>2345</ele>
        <time>2020-02-17T10:03:27.000Z</time>
      </trkpt>
      <trkpt lat="44.5744" lon="6.86725">
        <ele>2345</ele>
        <time>2020-02-17T10:03:29.000Z</time>
      </trkpt>
      <trkpt lat="44.5744" lon="6.86726">
        <ele>2345</ele>
        <time>2020-02-17T10:03:30.000Z</time>
      </trkpt>
      <trkpt lat="44.57439" lon="6.86725">
        <ele>2345</ele>
        <time>2020-02-17T10:03:31.000Z</time>
      </trkpt>
      <trkpt lat="44.57437" lon="6.86726">
        <ele>2345</ele>
        <time>2020-02-17T10:03:33.000Z</time>
      </trkpt>
      <trkpt lat="44.57436" lon="6.86727">
        <ele>2345</ele>
        <time>2020-02-17T10:03:34.000Z</time>
      </trkpt>
      <trkpt lat="44.57431" lon="6.8673">
        <ele>2346</ele>
        <time>2020-02-17T10:03:40.000Z</time>
      </trkpt>
      <trkpt lat="44.57428" lon="6.86732">
        <ele>2346</ele>
        <time>2020-02-17T10:03:43.000Z</time>
      </trkpt>
      <trkpt lat="44.57423" lon="6.86734">
        <ele>2346</ele>
        <time>2020-02-17T10:03:50.000Z</time>
      </trkpt>
      <trkpt lat="44.57418" lon="6.86736">
        <ele>2346</ele>
        <time>2020-02-17T10:03:56.000Z</time>
      </trkpt>
      <trkpt lat="44.57415" lon="6.86735">
        <ele>2344</ele>
        <time>2020-02-17T10:04:00.000Z</time>
      </trkpt>
      <trkpt lat="44.57411" lon="6.86734">
        <ele>2344</ele>
        <time>2020-02-17T10:04:08.000Z</time>
      </trkpt>
      <trkpt lat="44.57408" lon="6.86733">
        <ele>2344</ele>
        <time>2020-02-17T10:04:13.000Z</time>
      </trkpt>
      <trkpt lat="44.57405" lon="6.86741">
        <ele>2344</ele>
        <time>2020-02-17T10:04:25.000Z</time>
      </trkpt>
      <trkpt lat="44.57404" lon="6.86742">
        <ele>2344</ele>
        <time>2020-02-17T10:04:28.000Z</time>
      </trkpt>
      <trkpt lat="44.57402" lon="6.86746">
        <ele>2344</ele>
        <time>2020-02-17T10:04:33.000Z</time>
      </trkpt>
      <trkpt lat="44.57401" lon="6.86747">
        <ele>2344</ele>
        <time>2020-02-17T10:04:34.000Z</time>
      </trkpt>
      <trkpt lat="44.574" lon="6.86747">
        <ele>2344</ele>
        <time>2020-02-17T10:04:40.000Z</time>
      </trkpt>
      <trkpt lat="44.57401" lon="6.86746">
        <ele>2344</ele>
        <time>2020-02-17T10:04:49.000Z</time>
      </trkpt>
      <trkpt lat="44.57402" lon="6.86745">
        <ele>2344</ele>
        <time>2020-02-17T10:04:52.000Z</time>
      </trkpt>
      <trkpt lat="44.57403" lon="6.86744">
        <ele>2344</ele>
        <time>2020-02-17T10:04:55.000Z</time>
      </trkpt>
      <trkpt lat="44.57403" lon="6.86744">
        <ele>2344</ele>
        <time>2020-02-17T10:04:57.000Z</time>
      </trkpt>
      <trkpt lat="44.57403" lon="6.86744">
        <ele>2344</ele>
        <time>2020-02-17T10:05:00.000Z</time>
      </trkpt>
      <trkpt lat="44.57403" lon="6.86744">
        <ele>2344</ele>
        <time>2020-02-17T10:05:09.000Z</time>
      </trkpt>
      <trkpt lat="44.57402" lon="6.86743">
        <ele>2344</ele>
        <time>2020-02-17T10:05:12.000Z</time>
      </trkpt>
      <trkpt lat="44.57402" lon="6.86743">
        <ele>2344</ele>
        <time>2020-02-17T10:05:16.000Z</time>
      </trkpt>
      <trkpt lat="44.57402" lon="6.86742">
        <ele>2344</ele>
        <time>2020-02-17T10:05:21.000Z</time>
      </trkpt>
      <trkpt lat="44.57402" lon="6.86743">
        <ele>2344</ele>
        <time>2020-02-17T10:05:22.000Z</time>
      </trkpt>
      <trkpt lat="44.57403" lon="6.86743">
        <ele>2344</ele>
        <time>2020-02-17T10:05:26.000Z</time>
      </trkpt>
      <trkpt lat="44.57404" lon="6.86745">
        <ele>2345</ele>
        <time>2020-02-17T10:05:32.000Z</time>
      </trkpt>
      <trkpt lat="44.57402" lon="6.86748">
        <ele>2345</ele>
        <time>2020-02-17T10:05:34.000Z</time>
      </trkpt>
      <trkpt lat="44.57401" lon="6.86749">
        <ele>2344</ele>
        <time>2020-02-17T10:05:35.000Z</time>
      </trkpt>
      <trkpt lat="44.57401" lon="6.86751">
        <ele>2350</ele>
        <time>2020-02-17T10:05:36.000Z</time>
      </trkpt>
      <trkpt lat="44.574" lon="6.86752">
        <ele>2350</ele>
        <time>2020-02-17T10:05:39.000Z</time>
      </trkpt>
      <trkpt lat="44.57399" lon="6.86748">
        <ele>2344</ele>
        <time>2020-02-17T10:05:49.000Z</time>
      </trkpt>
      <trkpt lat="44.57398" lon="6.86748">
        <ele>2344</ele>
        <time>2020-02-17T10:05:57.000Z</time>
      </trkpt>
      <trkpt lat="44.574" lon="6.86746">
        <ele>2344</ele>
        <time>2020-02-17T10:06:06.000Z</time>
      </trkpt>
      <trkpt lat="44.574" lon="6.86745">
        <ele>2344</ele>
        <time>2020-02-17T10:06:12.000Z</time>
      </trkpt>
      <trkpt lat="44.574" lon="6.86746">
        <ele>2344</ele>
        <time>2020-02-17T10:06:16.000Z</time>
      </trkpt>
      <trkpt lat="44.57399" lon="6.86746">
        <ele>2344</ele>
        <time>2020-02-17T10:06:17.000Z</time>
      </trkpt>
      <trkpt lat="44.57399" lon="6.86746">
        <ele>2344</ele>
        <time>2020-02-17T10:06:18.000Z</time>
      </trkpt>
      <trkpt lat="44.57399" lon="6.86747">
        <ele>2344</ele>
        <time>2020-02-17T10:06:20.000Z</time>
      </trkpt>
      <trkpt lat="44.57399" lon="6.86747">
        <ele>2344</ele>
        <time>2020-02-17T10:06:21.000Z</time>
      </trkpt>
      <trkpt lat="44.57397" lon="6.86749">
        <ele>2344</ele>
        <time>2020-02-17T10:06:28.000Z</time>
      </trkpt>
      <trkpt lat="44.57397" lon="6.86749">
        <ele>2344</ele>
        <time>2020-02-17T10:06:29.000Z</time>
      </trkpt>
      <trkpt lat="44.57398" lon="6.86748">
        <ele>2344</ele>
        <time>2020-02-17T10:06:33.000Z</time>
      </trkpt>
      <trkpt lat="44.57398" lon="6.86747">
        <ele>2344</ele>
        <time>2020-02-17T10:06:34.000Z</time>
      </trkpt>
      <trkpt lat="44.57398" lon="6.86747">
        <ele>2344</ele>
        <time>2020-02-17T10:06:35.000Z</time>
      </trkpt>
      <trkpt lat="44.57398" lon="6.86747">
        <ele>2344</ele>
        <time>2020-02-17T10:06:36.000Z</time>
      </trkpt>
      <trkpt lat="44.57398" lon="6.86748">
        <ele>2344</ele>
        <time>2020-02-17T10:06:38.000Z</time>
      </trkpt>
      <trkpt lat="44.57398" lon="6.86747">
        <ele>2344</ele>
        <time>2020-02-17T10:06:41.000Z</time>
      </trkpt>
      <trkpt lat="44.57398" lon="6.86747">
        <ele>2344</ele>
        <time>2020-02-17T10:06:42.000Z</time>
      </trkpt>
      <trkpt lat="44.57396" lon="6.86749">
        <ele>2344</ele>
        <time>2020-02-17T10:06:48.000Z</time>
      </trkpt>
      <trkpt lat="44.57396" lon="6.8675">
        <ele>2344</ele>
        <time>2020-02-17T10:06:50.000Z</time>
      </trkpt>
      <trkpt lat="44.57396" lon="6.8675">
        <ele>2350</ele>
        <time>2020-02-17T10:06:51.000Z</time>
      </trkpt>
      <trkpt lat="44.57396" lon="6.86751">
        <ele>2350</ele>
        <time>2020-02-17T10:06:53.000Z</time>
      </trkpt>
      <trkpt lat="44.57396" lon="6.86751">
        <ele>2350</ele>
        <time>2020-02-17T10:06:55.000Z</time>
      </trkpt>
      <trkpt lat="44.57396" lon="6.86754">
        <ele>2350</ele>
        <time>2020-02-17T10:07:00.000Z</time>
      </trkpt>
      <trkpt lat="44.57395" lon="6.86755">
        <ele>2350</ele>
        <time>2020-02-17T10:07:01.000Z</time>
      </trkpt>
      <trkpt lat="44.57394" lon="6.86757">
        <ele>2350</ele>
        <time>2020-02-17T10:07:03.000Z</time>
      </trkpt>
      <trkpt lat="44.57394" lon="6.86758">
        <ele>2350</ele>
        <time>2020-02-17T10:07:05.000Z</time>
      </trkpt>
      <trkpt lat="44.57392" lon="6.8676">
        <ele>2350</ele>
        <time>2020-02-17T10:07:17.000Z</time>
      </trkpt>
      <trkpt lat="44.57392" lon="6.8676">
        <ele>2350</ele>
        <time>2020-02-17T10:07:19.000Z</time>
      </trkpt>
      <trkpt lat="44.5739" lon="6.86761">
        <ele>2351</ele>
        <time>2020-02-17T10:07:25.000Z</time>
      </trkpt>
      <trkpt lat="44.57389" lon="6.86763">
        <ele>2351</ele>
        <time>2020-02-17T10:07:27.000Z</time>
      </trkpt>
      <trkpt lat="44.57387" lon="6.86766">
        <ele>2351</ele>
        <time>2020-02-17T10:07:29.000Z</time>
      </trkpt>
      <trkpt lat="44.57386" lon="6.86767">
        <ele>2351</ele>
        <time>2020-02-17T10:07:31.000Z</time>
      </trkpt>
      <trkpt lat="44.57385" lon="6.86768">
        <ele>2351</ele>
        <time>2020-02-17T10:07:32.000Z</time>
      </trkpt>
      <trkpt lat="44.57382" lon="6.8677">
        <ele>2351</ele>
        <time>2020-02-17T10:07:35.000Z</time>
      </trkpt>
      <trkpt lat="44.57381" lon="6.86772">
        <ele>2351</ele>
        <time>2020-02-17T10:07:36.000Z</time>
      </trkpt>
      <trkpt lat="44.5738" lon="6.86773">
        <ele>2351</ele>
        <time>2020-02-17T10:07:37.000Z</time>
      </trkpt>
      <trkpt lat="44.57373" lon="6.8678">
        <ele>2351</ele>
        <time>2020-02-17T10:07:45.000Z</time>
      </trkpt>
      <trkpt lat="44.5737" lon="6.86782">
        <ele>2351</ele>
        <time>2020-02-17T10:07:49.000Z</time>
      </trkpt>
      <trkpt lat="44.57369" lon="6.86783">
        <ele>2351</ele>
        <time>2020-02-17T10:07:50.000Z</time>
      </trkpt>
      <trkpt lat="44.57362" lon="6.86788">
        <ele>2351</ele>
        <time>2020-02-17T10:08:00.000Z</time>
      </trkpt>
      <trkpt lat="44.57358" lon="6.86792">
        <ele>2352</ele>
        <time>2020-02-17T10:08:04.000Z</time>
      </trkpt>
      <trkpt lat="44.57354" lon="6.86798">
        <ele>2352</ele>
        <time>2020-02-17T10:08:11.000Z</time>
      </trkpt>
      <trkpt lat="44.57347" lon="6.86805">
        <ele>2353</ele>
        <time>2020-02-17T10:08:22.000Z</time>
      </trkpt>
      <trkpt lat="44.57327" lon="6.86819">
        <ele>2350</ele>
        <time>2020-02-17T10:08:39.000Z</time>
      </trkpt>
      <trkpt lat="44.57326" lon="6.86819">
        <ele>2350</ele>
        <time>2020-02-17T10:08:40.000Z</time>
      </trkpt>
      <trkpt lat="44.57324" lon="6.86821">
        <ele>2350</ele>
        <time>2020-02-17T10:08:42.000Z</time>
      </trkpt>
      <trkpt lat="44.57316" lon="6.86826">
        <ele>2350</ele>
        <time>2020-02-17T10:08:51.000Z</time>
      </trkpt>
      <trkpt lat="44.57303" lon="6.86832">
        <ele>2349</ele>
        <time>2020-02-17T10:09:03.000Z</time>
      </trkpt>
      <trkpt lat="44.57295" lon="6.86835">
        <ele>2358</ele>
        <time>2020-02-17T10:09:11.000Z</time>
      </trkpt>
      <trkpt lat="44.57286" lon="6.86845">
        <ele>2358</ele>
        <time>2020-02-17T10:09:19.000Z</time>
      </trkpt>
      <trkpt lat="44.57282" lon="6.86847">
        <ele>2357</ele>
        <time>2020-02-17T10:09:23.000Z</time>
      </trkpt>
      <trkpt lat="44.57281" lon="6.86847">
        <ele>2357</ele>
        <time>2020-02-17T10:09:24.000Z</time>
      </trkpt>
      <trkpt lat="44.57266" lon="6.86857">
        <ele>2357</ele>
        <time>2020-02-17T10:09:39.000Z</time>
      </trkpt>
      <trkpt lat="44.57263" lon="6.86861">
        <ele>2358</ele>
        <time>2020-02-17T10:09:43.000Z</time>
      </trkpt>
      <trkpt lat="44.57259" lon="6.86863">
        <ele>2358</ele>
        <time>2020-02-17T10:09:48.000Z</time>
      </trkpt>
      <trkpt lat="44.57257" lon="6.86865">
        <ele>2358</ele>
        <time>2020-02-17T10:09:50.000Z</time>
      </trkpt>
      <trkpt lat="44.57256" lon="6.86865">
        <ele>2358</ele>
        <time>2020-02-17T10:09:51.000Z</time>
      </trkpt>
      <trkpt lat="44.57252" lon="6.86868">
        <ele>2358</ele>
        <time>2020-02-17T10:09:57.000Z</time>
      </trkpt>
      <trkpt lat="44.57247" lon="6.86872">
        <ele>2352</ele>
        <time>2020-02-17T10:10:03.000Z</time>
      </trkpt>
      <trkpt lat="44.57243" lon="6.86874">
        <ele>2352</ele>
        <time>2020-02-17T10:10:08.000Z</time>
      </trkpt>
      <trkpt lat="44.57236" lon="6.8688">
        <ele>2353</ele>
        <time>2020-02-17T10:10:16.000Z</time>
      </trkpt>
      <trkpt lat="44.57235" lon="6.86881">
        <ele>2353</ele>
        <time>2020-02-17T10:10:17.000Z</time>
      </trkpt>
      <trkpt lat="44.57232" lon="6.86885">
        <ele>2353</ele>
        <time>2020-02-17T10:10:21.000Z</time>
      </trkpt>
      <trkpt lat="44.57229" lon="6.86888">
        <ele>2353</ele>
        <time>2020-02-17T10:10:27.000Z</time>
      </trkpt>
      <trkpt lat="44.57225" lon="6.86891">
        <ele>2353</ele>
        <time>2020-02-17T10:10:31.000Z</time>
      </trkpt>
      <trkpt lat="44.57225" lon="6.86891">
        <ele>2353</ele>
        <time>2020-02-17T10:10:32.000Z</time>
      </trkpt>
      <trkpt lat="44.5722" lon="6.86894">
        <ele>2353</ele>
        <time>2020-02-17T10:10:39.000Z</time>
      </trkpt>
      <trkpt lat="44.57219" lon="6.86895">
        <ele>2353</ele>
        <time>2020-02-17T10:10:41.000Z</time>
      </trkpt>
      <trkpt lat="44.57218" lon="6.86896">
        <ele>2353</ele>
        <time>2020-02-17T10:10:42.000Z</time>
      </trkpt>
      <trkpt lat="44.57215" lon="6.86899">
        <ele>2353</ele>
        <time>2020-02-17T10:10:46.000Z</time>
      </trkpt>
      <trkpt lat="44.57211" lon="6.86902">
        <ele>2353</ele>
        <time>2020-02-17T10:10:53.000Z</time>
      </trkpt>
      <trkpt lat="44.57207" lon="6.86906">
        <ele>2352</ele>
        <time>2020-02-17T10:10:58.000Z</time>
      </trkpt>
      <trkpt lat="44.57202" lon="6.86911">
        <ele>2352</ele>
        <time>2020-02-17T10:11:03.000Z</time>
      </trkpt>
      <trkpt lat="44.57197" lon="6.86916">
        <ele>2352</ele>
        <time>2020-02-17T10:11:11.000Z</time>
      </trkpt>
      <trkpt lat="44.57195" lon="6.86918">
        <ele>2361</ele>
        <time>2020-02-17T10:11:14.000Z</time>
      </trkpt>
      <trkpt lat="44.57193" lon="6.8692">
        <ele>2360</ele>
        <time>2020-02-17T10:11:17.000Z</time>
      </trkpt>
      <trkpt lat="44.57187" lon="6.86925">
        <ele>2360</ele>
        <time>2020-02-17T10:11:25.000Z</time>
      </trkpt>
      <trkpt lat="44.57186" lon="6.86926">
        <ele>2360</ele>
        <time>2020-02-17T10:11:26.000Z</time>
      </trkpt>
      <trkpt lat="44.57185" lon="6.86927">
        <ele>2359</ele>
        <time>2020-02-17T10:11:29.000Z</time>
      </trkpt>
      <trkpt lat="44.57181" lon="6.86931">
        <ele>2359</ele>
        <time>2020-02-17T10:11:35.000Z</time>
      </trkpt>
      <trkpt lat="44.57181" lon="6.86932">
        <ele>2359</ele>
        <time>2020-02-17T10:11:36.000Z</time>
      </trkpt>
      <trkpt lat="44.5718" lon="6.86934">
        <ele>2360</ele>
        <time>2020-02-17T10:11:37.000Z</time>
      </trkpt>
      <trkpt lat="44.5718" lon="6.86934">
        <ele>2360</ele>
        <time>2020-02-17T10:11:38.000Z</time>
      </trkpt>
      <trkpt lat="44.57178" lon="6.86936">
        <ele>2360</ele>
        <time>2020-02-17T10:11:42.000Z</time>
      </trkpt>
      <trkpt lat="44.57177" lon="6.86937">
        <ele>2360</ele>
        <time>2020-02-17T10:11:43.000Z</time>
      </trkpt>
      <trkpt lat="44.57176" lon="6.86937">
        <ele>2360</ele>
        <time>2020-02-17T10:11:48.000Z</time>
      </trkpt>
      <trkpt lat="44.57171" lon="6.86942">
        <ele>2361</ele>
        <time>2020-02-17T10:11:57.000Z</time>
      </trkpt>
      <trkpt lat="44.57168" lon="6.86945">
        <ele>2361</ele>
        <time>2020-02-17T10:12:03.000Z</time>
      </trkpt>
      <trkpt lat="44.57168" lon="6.86944">
        <ele>2361</ele>
        <time>2020-02-17T10:12:04.000Z</time>
      </trkpt>
      <trkpt lat="44.57167" lon="6.86945">
        <ele>2361</ele>
        <time>2020-02-17T10:12:05.000Z</time>
      </trkpt>
      <trkpt lat="44.57165" lon="6.86946">
        <ele>2356</ele>
        <time>2020-02-17T10:12:10.000Z</time>
      </trkpt>
      <trkpt lat="44.57158" lon="6.86955">
        <ele>2357</ele>
        <time>2020-02-17T10:12:21.000Z</time>
      </trkpt>
      <trkpt lat="44.57157" lon="6.86957">
        <ele>2357</ele>
        <time>2020-02-17T10:12:23.000Z</time>
      </trkpt>
      <trkpt lat="44.57154" lon="6.8696">
        <ele>2358</ele>
        <time>2020-02-17T10:12:25.000Z</time>
      </trkpt>
      <trkpt lat="44.57154" lon="6.86961">
        <ele>2358</ele>
        <time>2020-02-17T10:12:26.000Z</time>
      </trkpt>
      <trkpt lat="44.5715" lon="6.86965">
        <ele>2358</ele>
        <time>2020-02-17T10:12:35.000Z</time>
      </trkpt>
      <trkpt lat="44.57141" lon="6.86974">
        <ele>2359</ele>
        <time>2020-02-17T10:12:46.000Z</time>
      </trkpt>
      <trkpt lat="44.5714" lon="6.86975">
        <ele>2359</ele>
        <time>2020-02-17T10:12:48.000Z</time>
      </trkpt>
      <trkpt lat="44.57139" lon="6.86975">
        <ele>2359</ele>
        <time>2020-02-17T10:12:49.000Z</time>
      </trkpt>
      <trkpt lat="44.57137" lon="6.86977">
        <ele>2359</ele>
        <time>2020-02-17T10:12:52.000Z</time>
      </trkpt>
      <trkpt lat="44.57134" lon="6.86981">
        <ele>2359</ele>
        <time>2020-02-17T10:12:55.000Z</time>
      </trkpt>
      <trkpt lat="44.57127" lon="6.86986">
        <ele>2359</ele>
        <time>2020-02-17T10:13:05.000Z</time>
      </trkpt>
      <trkpt lat="44.57125" lon="6.86989">
        <ele>2360</ele>
        <time>2020-02-17T10:13:08.000Z</time>
      </trkpt>
      <trkpt lat="44.57124" lon="6.86989">
        <ele>2360</ele>
        <time>2020-02-17T10:13:09.000Z</time>
      </trkpt>
      <trkpt lat="44.57124" lon="6.8699">
        <ele>2360</ele>
        <time>2020-02-17T10:13:10.000Z</time>
      </trkpt>
      <trkpt lat="44.57117" lon="6.86998">
        <ele>2360</ele>
        <time>2020-02-17T10:13:20.000Z</time>
      </trkpt>
      <trkpt lat="44.57109" lon="6.87003">
        <ele>2370</ele>
        <time>2020-02-17T10:13:31.000Z</time>
      </trkpt>
      <trkpt lat="44.57108" lon="6.87004">
        <ele>2370</ele>
        <time>2020-02-17T10:13:32.000Z</time>
      </trkpt>
      <trkpt lat="44.57103" lon="6.87007">
        <ele>2370</ele>
        <time>2020-02-17T10:13:39.000Z</time>
      </trkpt>
      <trkpt lat="44.57102" lon="6.87007">
        <ele>2370</ele>
        <time>2020-02-17T10:13:40.000Z</time>
      </trkpt>
      <trkpt lat="44.571" lon="6.87009">
        <ele>2370</ele>
        <time>2020-02-17T10:13:45.000Z</time>
      </trkpt>
      <trkpt lat="44.571" lon="6.8701">
        <ele>2369</ele>
        <time>2020-02-17T10:13:46.000Z</time>
      </trkpt>
      <trkpt lat="44.57096" lon="6.87012">
        <ele>2369</ele>
        <time>2020-02-17T10:13:54.000Z</time>
      </trkpt>
      <trkpt lat="44.57094" lon="6.87015">
        <ele>2369</ele>
        <time>2020-02-17T10:13:58.000Z</time>
      </trkpt>
      <trkpt lat="44.57093" lon="6.87016">
        <ele>2370</ele>
        <time>2020-02-17T10:14:00.000Z</time>
      </trkpt>
      <trkpt lat="44.57093" lon="6.87016">
        <ele>2370</ele>
        <time>2020-02-17T10:14:01.000Z</time>
      </trkpt>
      <trkpt lat="44.57091" lon="6.87017">
        <ele>2370</ele>
        <time>2020-02-17T10:14:03.000Z</time>
      </trkpt>
      <trkpt lat="44.57085" lon="6.87024">
        <ele>2371</ele>
        <time>2020-02-17T10:14:12.000Z</time>
      </trkpt>
      <trkpt lat="44.57081" lon="6.87028">
        <ele>2369</ele>
        <time>2020-02-17T10:14:17.000Z</time>
      </trkpt>
      <trkpt lat="44.57079" lon="6.8703">
        <ele>2369</ele>
        <time>2020-02-17T10:14:20.000Z</time>
      </trkpt>
      <trkpt lat="44.57078" lon="6.87032">
        <ele>2370</ele>
        <time>2020-02-17T10:14:23.000Z</time>
      </trkpt>
      <trkpt lat="44.57073" lon="6.87038">
        <ele>2371</ele>
        <time>2020-02-17T10:14:37.000Z</time>
      </trkpt>
      <trkpt lat="44.57071" lon="6.8704">
        <ele>2371</ele>
        <time>2020-02-17T10:14:40.000Z</time>
      </trkpt>
      <trkpt lat="44.5707" lon="6.87041">
        <ele>2371</ele>
        <time>2020-02-17T10:14:41.000Z</time>
      </trkpt>
      <trkpt lat="44.57069" lon="6.87041">
        <ele>2371</ele>
        <time>2020-02-17T10:14:42.000Z</time>
      </trkpt>
      <trkpt lat="44.57068" lon="6.87042">
        <ele>2371</ele>
        <time>2020-02-17T10:14:44.000Z</time>
      </trkpt>
      <trkpt lat="44.5706" lon="6.8705">
        <ele>2372</ele>
        <time>2020-02-17T10:14:54.000Z</time>
      </trkpt>
      <trkpt lat="44.57047" lon="6.87062">
        <ele>2373</ele>
        <time>2020-02-17T10:15:14.000Z</time>
      </trkpt>
      <trkpt lat="44.57042" lon="6.87066">
        <ele>2373</ele>
        <time>2020-02-17T10:15:21.000Z</time>
      </trkpt>
      <trkpt lat="44.5704" lon="6.87068">
        <ele>2373</ele>
        <time>2020-02-17T10:15:25.000Z</time>
      </trkpt>
      <trkpt lat="44.57038" lon="6.8707">
        <ele>2373</ele>
        <time>2020-02-17T10:15:27.000Z</time>
      </trkpt>
      <trkpt lat="44.57031" lon="6.87076">
        <ele>2374</ele>
        <time>2020-02-17T10:15:35.000Z</time>
      </trkpt>
      <trkpt lat="44.57026" lon="6.87079">
        <ele>2374</ele>
        <time>2020-02-17T10:15:40.000Z</time>
      </trkpt>
      <trkpt lat="44.57005" lon="6.87076">
        <ele>2375</ele>
        <time>2020-02-17T10:16:04.000Z</time>
      </trkpt>
      <trkpt lat="44.57004" lon="6.87074">
        <ele>2375</ele>
        <time>2020-02-17T10:16:06.000Z</time>
      </trkpt>
      <trkpt lat="44.57002" lon="6.87073">
        <ele>2375</ele>
        <time>2020-02-17T10:16:08.000Z</time>
      </trkpt>
      <trkpt lat="44.57002" lon="6.87072">
        <ele>2375</ele>
        <time>2020-02-17T10:16:09.000Z</time>
      </trkpt>
      <trkpt lat="44.56999" lon="6.87072">
        <ele>2374</ele>
        <time>2020-02-17T10:16:12.000Z</time>
      </trkpt>
      <trkpt lat="44.56997" lon="6.87071">
        <ele>2374</ele>
        <time>2020-02-17T10:16:16.000Z</time>
      </trkpt>
      <trkpt lat="44.56991" lon="6.87069">
        <ele>2373</ele>
        <time>2020-02-17T10:16:23.000Z</time>
      </trkpt>
      <trkpt lat="44.56987" lon="6.87071">
        <ele>2373</ele>
        <time>2020-02-17T10:16:28.000Z</time>
      </trkpt>
      <trkpt lat="44.56987" lon="6.8707">
        <ele>2373</ele>
        <time>2020-02-17T10:16:29.000Z</time>
      </trkpt>
      <trkpt lat="44.56986" lon="6.87072">
        <ele>2373</ele>
        <time>2020-02-17T10:16:31.000Z</time>
      </trkpt>
      <trkpt lat="44.56988" lon="6.87068">
        <ele>2373</ele>
        <time>2020-02-17T10:16:42.000Z</time>
      </trkpt>
      <trkpt lat="44.56988" lon="6.87069">
        <ele>2373</ele>
        <time>2020-02-17T10:16:47.000Z</time>
      </trkpt>
      <trkpt lat="44.56988" lon="6.87069">
        <ele>2373</ele>
        <time>2020-02-17T10:16:56.000Z</time>
      </trkpt>
      <trkpt lat="44.56987" lon="6.8707">
        <ele>2373</ele>
        <time>2020-02-17T10:16:58.000Z</time>
      </trkpt>
      <trkpt lat="44.56986" lon="6.8707">
        <ele>2373</ele>
        <time>2020-02-17T10:17:00.000Z</time>
      </trkpt>
      <trkpt lat="44.5698" lon="6.87068">
        <ele>2372</ele>
        <time>2020-02-17T10:17:06.000Z</time>
      </trkpt>
      <trkpt lat="44.56979" lon="6.87068">
        <ele>2372</ele>
        <time>2020-02-17T10:17:08.000Z</time>
      </trkpt>
      <trkpt lat="44.56974" lon="6.87068">
        <ele>2372</ele>
        <time>2020-02-17T10:17:12.000Z</time>
      </trkpt>
      <trkpt lat="44.56972" lon="6.87067">
        <ele>2371</ele>
        <time>2020-02-17T10:17:17.000Z</time>
      </trkpt>
      <trkpt lat="44.56969" lon="6.87066">
        <ele>2371</ele>
        <time>2020-02-17T10:17:23.000Z</time>
      </trkpt>
      <trkpt lat="44.56956" lon="6.87068">
        <ele>2371</ele>
        <time>2020-02-17T10:17:38.000Z</time>
      </trkpt>
      <trkpt lat="44.56953" lon="6.87068">
        <ele>2371</ele>
        <time>2020-02-17T10:17:41.000Z</time>
      </trkpt>
      <trkpt lat="44.56952" lon="6.87068">
        <ele>2371</ele>
        <time>2020-02-17T10:17:42.000Z</time>
      </trkpt>
      <trkpt lat="44.56949" lon="6.87068">
        <ele>2371</ele>
        <time>2020-02-17T10:17:44.000Z</time>
      </trkpt>
      <trkpt lat="44.56948" lon="6.87068">
        <ele>2371</ele>
        <time>2020-02-17T10:17:45.000Z</time>
      </trkpt>
      <trkpt lat="44.56943" lon="6.87071">
        <ele>2371</ele>
        <time>2020-02-17T10:17:51.000Z</time>
      </trkpt>
      <trkpt lat="44.56941" lon="6.87072">
        <ele>2371</ele>
        <time>2020-02-17T10:17:53.000Z</time>
      </trkpt>
      <trkpt lat="44.56939" lon="6.87073">
        <ele>2371</ele>
        <time>2020-02-17T10:17:55.000Z</time>
      </trkpt>
      <trkpt lat="44.56929" lon="6.87073">
        <ele>2371</ele>
        <time>2020-02-17T10:18:01.000Z</time>
      </trkpt>
      <trkpt lat="44.56922" lon="6.87074">
        <ele>2372</ele>
        <time>2020-02-17T10:18:06.000Z</time>
      </trkpt>
      <trkpt lat="44.5692" lon="6.87075">
        <ele>2372</ele>
        <time>2020-02-17T10:18:08.000Z</time>
      </trkpt>
      <trkpt lat="44.56916" lon="6.87072">
        <ele>2372</ele>
        <time>2020-02-17T10:18:13.000Z</time>
      </trkpt>
      <trkpt lat="44.56913" lon="6.87069">
        <ele>2372</ele>
        <time>2020-02-17T10:18:17.000Z</time>
      </trkpt>
      <trkpt lat="44.56911" lon="6.87067">
        <ele>2372</ele>
        <time>2020-02-17T10:18:20.000Z</time>
      </trkpt>
      <trkpt lat="44.56909" lon="6.87067">
        <ele>2372</ele>
        <time>2020-02-17T10:18:23.000Z</time>
      </trkpt>
      <trkpt lat="44.56898" lon="6.87063">
        <ele>2372</ele>
        <time>2020-02-17T10:18:35.000Z</time>
      </trkpt>
      <trkpt lat="44.56896" lon="6.87061">
        <ele>2372</ele>
        <time>2020-02-17T10:18:38.000Z</time>
      </trkpt>
      <trkpt lat="44.56889" lon="6.87058">
        <ele>2372</ele>
        <time>2020-02-17T10:18:46.000Z</time>
      </trkpt>
      <trkpt lat="44.56884" lon="6.87057">
        <ele>2372</ele>
        <time>2020-02-17T10:18:51.000Z</time>
      </trkpt>
      <trkpt lat="44.56878" lon="6.87056">
        <ele>2372</ele>
        <time>2020-02-17T10:18:57.000Z</time>
      </trkpt>
      <trkpt lat="44.56875" lon="6.87054">
        <ele>2372</ele>
        <time>2020-02-17T10:19:02.000Z</time>
      </trkpt>
      <trkpt lat="44.5687" lon="6.87053">
        <ele>2372</ele>
        <time>2020-02-17T10:19:10.000Z</time>
      </trkpt>
      <trkpt lat="44.56868" lon="6.87052">
        <ele>2372</ele>
        <time>2020-02-17T10:19:12.000Z</time>
      </trkpt>
      <trkpt lat="44.56867" lon="6.87051">
        <ele>2372</ele>
        <time>2020-02-17T10:19:13.000Z</time>
      </trkpt>
      <trkpt lat="44.56867" lon="6.87051">
        <ele>2372</ele>
        <time>2020-02-17T10:19:14.000Z</time>
      </trkpt>
      <trkpt lat="44.56861" lon="6.87047">
        <ele>2372</ele>
        <time>2020-02-17T10:19:19.000Z</time>
      </trkpt>
      <trkpt lat="44.56859" lon="6.87046">
        <ele>2372</ele>
        <time>2020-02-17T10:19:21.000Z</time>
      </trkpt>
      <trkpt lat="44.56854" lon="6.87043">
        <ele>2372</ele>
        <time>2020-02-17T10:19:25.000Z</time>
      </trkpt>
      <trkpt lat="44.56844" lon="6.87038">
        <ele>2372</ele>
        <time>2020-02-17T10:19:31.000Z</time>
      </trkpt>
      <trkpt lat="44.56838" lon="6.87038">
        <ele>2372</ele>
        <time>2020-02-17T10:19:34.000Z</time>
      </trkpt>
      <trkpt lat="44.56836" lon="6.87038">
        <ele>2372</ele>
        <time>2020-02-17T10:19:36.000Z</time>
      </trkpt>
      <trkpt lat="44.5683" lon="6.87037">
        <ele>2372</ele>
        <time>2020-02-17T10:19:40.000Z</time>
      </trkpt>
      <trkpt lat="44.56829" lon="6.87037">
        <ele>2372</ele>
        <time>2020-02-17T10:19:41.000Z</time>
      </trkpt>
      <trkpt lat="44.56827" lon="6.87037">
        <ele>2372</ele>
        <time>2020-02-17T10:19:42.000Z</time>
      </trkpt>
      <trkpt lat="44.56825" lon="6.87036">
        <ele>2372</ele>
        <time>2020-02-17T10:19:45.000Z</time>
      </trkpt>
      <trkpt lat="44.56822" lon="6.87035">
        <ele>2372</ele>
        <time>2020-02-17T10:19:48.000Z</time>
      </trkpt>
      <trkpt lat="44.56821" lon="6.87033">
        <ele>2372</ele>
        <time>2020-02-17T10:19:51.000Z</time>
      </trkpt>
      <trkpt lat="44.56817" lon="6.87027">
        <ele>2371</ele>
        <time>2020-02-17T10:19:57.000Z</time>
      </trkpt>
      <trkpt lat="44.56813" lon="6.87015">
        <ele>2371</ele>
        <time>2020-02-17T10:20:08.000Z</time>
      </trkpt>
      <trkpt lat="44.56813" lon="6.87013">
        <ele>2371</ele>
        <time>2020-02-17T10:20:10.000Z</time>
      </trkpt>
      <trkpt lat="44.56817" lon="6.8701">
        <ele>2371</ele>
        <time>2020-02-17T10:20:21.000Z</time>
      </trkpt>
      <trkpt lat="44.56817" lon="6.87011">
        <ele>2371</ele>
        <time>2020-02-17T10:20:25.000Z</time>
      </trkpt>
      <trkpt lat="44.56815" lon="6.8701">
        <ele>2371</ele>
        <time>2020-02-17T10:20:36.000Z</time>
      </trkpt>
      <trkpt lat="44.56815" lon="6.87011">
        <ele>2371</ele>
        <time>2020-02-17T10:20:49.000Z</time>
      </trkpt>
      <trkpt lat="44.56815" lon="6.8701">
        <ele>2371</ele>
        <time>2020-02-17T10:20:51.000Z</time>
      </trkpt>
      <trkpt lat="44.56815" lon="6.87011">
        <ele>2371</ele>
        <time>2020-02-17T10:20:55.000Z</time>
      </trkpt>
      <trkpt lat="44.56815" lon="6.87011">
        <ele>2371</ele>
        <time>2020-02-17T10:20:58.000Z</time>
      </trkpt>
      <trkpt lat="44.56815" lon="6.87011">
        <ele>2371</ele>
        <time>2020-02-17T10:21:05.000Z</time>
      </trkpt>
      <trkpt lat="44.56813" lon="6.87008">
        <ele>2371</ele>
        <time>2020-02-17T10:21:20.000Z</time>
      </trkpt>
      <trkpt lat="44.56813" lon="6.87007">
        <ele>2371</ele>
        <time>2020-02-17T10:21:23.000Z</time>
      </trkpt>
      <trkpt lat="44.56812" lon="6.87008">
        <ele>2371</ele>
        <time>2020-02-17T10:21:30.000Z</time>
      </trkpt>
      <trkpt lat="44.56821" lon="6.87012">
        <ele>2370</ele>
        <time>2020-02-17T10:21:36.000Z</time>
      </trkpt>
      <trkpt lat="44.56821" lon="6.87015">
        <ele>2371</ele>
        <time>2020-02-17T10:21:45.000Z</time>
      </trkpt>
      <trkpt lat="44.5682" lon="6.87016">
        <ele>2371</ele>
        <time>2020-02-17T10:21:48.000Z</time>
      </trkpt>
      <trkpt lat="44.5682" lon="6.87016">
        <ele>2371</ele>
        <time>2020-02-17T10:21:49.000Z</time>
      </trkpt>
      <trkpt lat="44.5682" lon="6.87015">
        <ele>2371</ele>
        <time>2020-02-17T10:21:51.000Z</time>
      </trkpt>
      <trkpt lat="44.56822" lon="6.8701">
        <ele>2370</ele>
        <time>2020-02-17T10:22:01.000Z</time>
      </trkpt>
      <trkpt lat="44.56821" lon="6.8701">
        <ele>2370</ele>
        <time>2020-02-17T10:22:08.000Z</time>
      </trkpt>
      <trkpt lat="44.5682" lon="6.87009">
        <ele>2370</ele>
        <time>2020-02-17T10:22:15.000Z</time>
      </trkpt>
      <trkpt lat="44.5682" lon="6.87009">
        <ele>2370</ele>
        <time>2020-02-17T10:22:16.000Z</time>
      </trkpt>
      <trkpt lat="44.5682" lon="6.8701">
        <ele>2370</ele>
        <time>2020-02-17T10:22:17.000Z</time>
      </trkpt>
      <trkpt lat="44.5682" lon="6.87011">
        <ele>2370</ele>
        <time>2020-02-17T10:22:19.000Z</time>
      </trkpt>
      <trkpt lat="44.5682" lon="6.87011">
        <ele>2370</ele>
        <time>2020-02-17T10:22:21.000Z</time>
      </trkpt>
      <trkpt lat="44.56819" lon="6.87011">
        <ele>2370</ele>
        <time>2020-02-17T10:22:24.000Z</time>
      </trkpt>
      <trkpt lat="44.56818" lon="6.87011">
        <ele>2370</ele>
        <time>2020-02-17T10:22:28.000Z</time>
      </trkpt>
      <trkpt lat="44.56817" lon="6.87011">
        <ele>2371</ele>
        <time>2020-02-17T10:22:30.000Z</time>
      </trkpt>
      <trkpt lat="44.56818" lon="6.87011">
        <ele>2371</ele>
        <time>2020-02-17T10:22:31.000Z</time>
      </trkpt>
      <trkpt lat="44.56818" lon="6.87012">
        <ele>2371</ele>
        <time>2020-02-17T10:22:33.000Z</time>
      </trkpt>
      <trkpt lat="44.56818" lon="6.87012">
        <ele>2371</ele>
        <time>2020-02-17T10:22:36.000Z</time>
      </trkpt>
      <trkpt lat="44.56818" lon="6.87011">
        <ele>2371</ele>
        <time>2020-02-17T10:22:38.000Z</time>
      </trkpt>
      <trkpt lat="44.56818" lon="6.8701">
        <ele>2370</ele>
        <time>2020-02-17T10:22:43.000Z</time>
      </trkpt>
      <trkpt lat="44.56818" lon="6.87011">
        <ele>2370</ele>
        <time>2020-02-17T10:22:49.000Z</time>
      </trkpt>
      <trkpt lat="44.56818" lon="6.87011">
        <ele>2370</ele>
        <time>2020-02-17T10:22:50.000Z</time>
      </trkpt>
      <trkpt lat="44.56818" lon="6.87011">
        <ele>2371</ele>
        <time>2020-02-17T10:22:52.000Z</time>
      </trkpt>
      <trkpt lat="44.56819" lon="6.87012">
        <ele>2371</ele>
        <time>2020-02-17T10:22:53.000Z</time>
      </trkpt>
      <trkpt lat="44.56819" lon="6.87012">
        <ele>2371</ele>
        <time>2020-02-17T10:22:57.000Z</time>
      </trkpt>
      <trkpt lat="44.56819" lon="6.8701">
        <ele>2370</ele>
        <time>2020-02-17T10:23:00.000Z</time>
      </trkpt>
      <trkpt lat="44.56822" lon="6.87007">
        <ele>2370</ele>
        <time>2020-02-17T10:23:07.000Z</time>
      </trkpt>
      <trkpt lat="44.56824" lon="6.87005">
        <ele>2370</ele>
        <time>2020-02-17T10:23:13.000Z</time>
      </trkpt>
      <trkpt lat="44.56825" lon="6.87005">
        <ele>2370</ele>
        <time>2020-02-17T10:23:16.000Z</time>
      </trkpt>
      <trkpt lat="44.56826" lon="6.87006">
        <ele>2370</ele>
        <time>2020-02-17T10:23:17.000Z</time>
      </trkpt>
      <trkpt lat="44.56825" lon="6.87006">
        <ele>2370</ele>
        <time>2020-02-17T10:23:20.000Z</time>
      </trkpt>
      <trkpt lat="44.56825" lon="6.87006">
        <ele>2370</ele>
        <time>2020-02-17T10:23:28.000Z</time>
      </trkpt>
      <trkpt lat="44.56825" lon="6.87006">
        <ele>2370</ele>
        <time>2020-02-17T10:23:30.000Z</time>
      </trkpt>
      <trkpt lat="44.56825" lon="6.87006">
        <ele>2370</ele>
        <time>2020-02-17T10:23:34.000Z</time>
      </trkpt>
      <trkpt lat="44.56825" lon="6.87006">
        <ele>2370</ele>
        <time>2020-02-17T10:23:35.000Z</time>
      </trkpt>
      <trkpt lat="44.56824" lon="6.87007">
        <ele>2370</ele>
        <time>2020-02-17T10:23:40.000Z</time>
      </trkpt>
      <trkpt lat="44.56823" lon="6.87007">
        <ele>2370</ele>
        <time>2020-02-17T10:23:41.000Z</time>
      </trkpt>
      <trkpt lat="44.56823" lon="6.87007">
        <ele>2370</ele>
        <time>2020-02-17T10:23:42.000Z</time>
      </trkpt>
      <trkpt lat="44.56821" lon="6.87008">
        <ele>2370</ele>
        <time>2020-02-17T10:23:45.000Z</time>
      </trkpt>
      <trkpt lat="44.56821" lon="6.87008">
        <ele>2370</ele>
        <time>2020-02-17T10:23:46.000Z</time>
      </trkpt>
      <trkpt lat="44.56821" lon="6.87009">
        <ele>2370</ele>
        <time>2020-02-17T10:23:50.000Z</time>
      </trkpt>
      <trkpt lat="44.5682" lon="6.87005">
        <ele>2370</ele>
        <time>2020-02-17T10:23:51.000Z</time>
      </trkpt>
      <trkpt lat="44.56818" lon="6.87004">
        <ele>2370</ele>
        <time>2020-02-17T10:23:54.000Z</time>
      </trkpt>
      <trkpt lat="44.56818" lon="6.87005">
        <ele>2370</ele>
        <time>2020-02-17T10:23:55.000Z</time>
      </trkpt>
      <trkpt lat="44.56817" lon="6.87005">
        <ele>2370</ele>
        <time>2020-02-17T10:23:57.000Z</time>
      </trkpt>
      <trkpt lat="44.56816" lon="6.87007">
        <ele>2370</ele>
        <time>2020-02-17T10:24:05.000Z</time>
      </trkpt>
      <trkpt lat="44.56815" lon="6.87007">
        <ele>2370</ele>
        <time>2020-02-17T10:24:11.000Z</time>
      </trkpt>
      <trkpt lat="44.56814" lon="6.87009">
        <ele>2371</ele>
        <time>2020-02-17T10:24:15.000Z</time>
      </trkpt>
      <trkpt lat="44.56815" lon="6.8701">
        <ele>2371</ele>
        <time>2020-02-17T10:24:21.000Z</time>
      </trkpt>
      <trkpt lat="44.56815" lon="6.8701">
        <ele>2371</ele>
        <time>2020-02-17T10:24:28.000Z</time>
      </trkpt>
      <trkpt lat="44.56816" lon="6.87011">
        <ele>2371</ele>
        <time>2020-02-17T10:24:31.000Z</time>
      </trkpt>
      <trkpt lat="44.56816" lon="6.87011">
        <ele>2371</ele>
        <time>2020-02-17T10:24:33.000Z</time>
      </trkpt>
      <trkpt lat="44.56817" lon="6.87011">
        <ele>2371</ele>
        <time>2020-02-17T10:24:36.000Z</time>
      </trkpt>
      <trkpt lat="44.56818" lon="6.87012">
        <ele>2371</ele>
        <time>2020-02-17T10:24:43.000Z</time>
      </trkpt>
      <trkpt lat="44.56817" lon="6.87013">
        <ele>2371</ele>
        <time>2020-02-17T10:24:47.000Z</time>
      </trkpt>
      <trkpt lat="44.56817" lon="6.87014">
        <ele>2371</ele>
        <time>2020-02-17T10:24:54.000Z</time>
      </trkpt>
      <trkpt lat="44.56817" lon="6.87015">
        <ele>2371</ele>
        <time>2020-02-17T10:24:55.000Z</time>
      </trkpt>
      <trkpt lat="44.56819" lon="6.87018">
        <ele>2371</ele>
        <time>2020-02-17T10:25:01.000Z</time>
      </trkpt>
      <trkpt lat="44.5682" lon="6.87016">
        <ele>2371</ele>
        <time>2020-02-17T10:25:16.000Z</time>
      </trkpt>
      <trkpt lat="44.5682" lon="6.87016">
        <ele>2371</ele>
        <time>2020-02-17T10:25:19.000Z</time>
      </trkpt>
      <trkpt lat="44.56821" lon="6.87012">
        <ele>2370</ele>
        <time>2020-02-17T10:25:35.000Z</time>
      </trkpt>
      <trkpt lat="44.56821" lon="6.87006">
        <ele>2370</ele>
        <time>2020-02-17T10:25:44.000Z</time>
      </trkpt>
      <trkpt lat="44.56821" lon="6.87006">
        <ele>2370</ele>
        <time>2020-02-17T10:25:45.000Z</time>
      </trkpt>
      <trkpt lat="44.56821" lon="6.87006">
        <ele>2370</ele>
        <time>2020-02-17T10:25:47.000Z</time>
      </trkpt>
      <trkpt lat="44.56821" lon="6.87007">
        <ele>2370</ele>
        <time>2020-02-17T10:25:52.000Z</time>
      </trkpt>
      <trkpt lat="44.5682" lon="6.8701">
        <ele>2370</ele>
        <time>2020-02-17T10:26:00.000Z</time>
      </trkpt>
      <trkpt lat="44.56821" lon="6.87011">
        <ele>2370</ele>
        <time>2020-02-17T10:26:02.000Z</time>
      </trkpt>
      <trkpt lat="44.56821" lon="6.87011">
        <ele>2370</ele>
        <time>2020-02-17T10:26:03.000Z</time>
      </trkpt>
      <trkpt lat="44.5682" lon="6.87012">
        <ele>2370</ele>
        <time>2020-02-17T10:26:05.000Z</time>
      </trkpt>
      <trkpt lat="44.5682" lon="6.87012">
        <ele>2371</ele>
        <time>2020-02-17T10:26:08.000Z</time>
      </trkpt>
      <trkpt lat="44.5682" lon="6.87013">
        <ele>2371</ele>
        <time>2020-02-17T10:26:14.000Z</time>
      </trkpt>
      <trkpt lat="44.56819" lon="6.87013">
        <ele>2371</ele>
        <time>2020-02-17T10:26:28.000Z</time>
      </trkpt>
      <trkpt lat="44.56819" lon="6.87014">
        <ele>2371</ele>
        <time>2020-02-17T10:26:29.000Z</time>
      </trkpt>
      <trkpt lat="44.56819" lon="6.87015">
        <ele>2371</ele>
        <time>2020-02-17T10:26:32.000Z</time>
      </trkpt>
      <trkpt lat="44.56819" lon="6.87015">
        <ele>2371</ele>
        <time>2020-02-17T10:26:33.000Z</time>
      </trkpt>
      <trkpt lat="44.56818" lon="6.87014">
        <ele>2371</ele>
        <time>2020-02-17T10:26:37.000Z</time>
      </trkpt>
      <trkpt lat="44.56818" lon="6.87013">
        <ele>2371</ele>
        <time>2020-02-17T10:26:39.000Z</time>
      </trkpt>
      <trkpt lat="44.56818" lon="6.87012">
        <ele>2371</ele>
        <time>2020-02-17T10:26:40.000Z</time>
      </trkpt>
      <trkpt lat="44.56818" lon="6.87012">
        <ele>2371</ele>
        <time>2020-02-17T10:26:42.000Z</time>
      </trkpt>
      <trkpt lat="44.56819" lon="6.87012">
        <ele>2371</ele>
        <time>2020-02-17T10:26:46.000Z</time>
      </trkpt>
      <trkpt lat="44.56819" lon="6.87012">
        <ele>2371</ele>
        <time>2020-02-17T10:26:47.000Z</time>
      </trkpt>
      <trkpt lat="44.56819" lon="6.87012">
        <ele>2371</ele>
        <time>2020-02-17T10:26:49.000Z</time>
      </trkpt>
      <trkpt lat="44.5682" lon="6.87012">
        <ele>2371</ele>
        <time>2020-02-17T10:26:51.000Z</time>
      </trkpt>
      <trkpt lat="44.5682" lon="6.87012">
        <ele>2371</ele>
        <time>2020-02-17T10:26:52.000Z</time>
      </trkpt>
      <trkpt lat="44.5682" lon="6.87012">
        <ele>2371</ele>
        <time>2020-02-17T10:26:55.000Z</time>
      </trkpt>
      <trkpt lat="44.5682" lon="6.87012">
        <ele>2371</ele>
        <time>2020-02-17T10:26:56.000Z</time>
      </trkpt>
      <trkpt lat="44.56819" lon="6.87013">
        <ele>2371</ele>
        <time>2020-02-17T10:27:03.000Z</time>
      </trkpt>
      <trkpt lat="44.56819" lon="6.87013">
        <ele>2371</ele>
        <time>2020-02-17T10:27:04.000Z</time>
      </trkpt>
      <trkpt lat="44.56819" lon="6.87013">
        <ele>2371</ele>
        <time>2020-02-17T10:27:06.000Z</time>
      </trkpt>
      <trkpt lat="44.56819" lon="6.87013">
        <ele>2371</ele>
        <time>2020-02-17T10:27:15.000Z</time>
      </trkpt>
      <trkpt lat="44.56819" lon="6.87013">
        <ele>2371</ele>
        <time>2020-02-17T10:27:19.000Z</time>
      </trkpt>
      <trkpt lat="44.56819" lon="6.87013">
        <ele>2371</ele>
        <time>2020-02-17T10:27:20.000Z</time>
      </trkpt>
      <trkpt lat="44.56818" lon="6.87013">
        <ele>2371</ele>
        <time>2020-02-17T10:27:22.000Z</time>
      </trkpt>
      <trkpt lat="44.56818" lon="6.87013">
        <ele>2371</ele>
        <time>2020-02-17T10:27:23.000Z</time>
      </trkpt>
      <trkpt lat="44.56818" lon="6.87013">
        <ele>2371</ele>
        <time>2020-02-17T10:27:33.000Z</time>
      </trkpt>
      <trkpt lat="44.56818" lon="6.87014">
        <ele>2371</ele>
        <time>2020-02-17T10:27:35.000Z</time>
      </trkpt>
      <trkpt lat="44.56818" lon="6.87014">
        <ele>2371</ele>
        <time>2020-02-17T10:27:37.000Z</time>
      </trkpt>
      <trkpt lat="44.56818" lon="6.87017">
        <ele>2371</ele>
        <time>2020-02-17T10:27:45.000Z</time>
      </trkpt>
      <trkpt lat="44.56819" lon="6.87018">
        <ele>2371</ele>
        <time>2020-02-17T10:27:53.000Z</time>
      </trkpt>
      <trkpt lat="44.56821" lon="6.87023">
        <ele>2371</ele>
        <time>2020-02-17T10:28:16.000Z</time>
      </trkpt>
      <trkpt lat="44.56819" lon="6.87009">
        <ele>2370</ele>
        <time>2020-02-17T10:28:27.000Z</time>
      </trkpt>
      <trkpt lat="44.5682" lon="6.8701">
        <ele>2370</ele>
        <time>2020-02-17T10:28:33.000Z</time>
      </trkpt>
      <trkpt lat="44.56821" lon="6.87019">
        <ele>2371</ele>
        <time>2020-02-17T10:28:45.000Z</time>
      </trkpt>
      <trkpt lat="44.5682" lon="6.87018">
        <ele>2371</ele>
        <time>2020-02-17T10:28:49.000Z</time>
      </trkpt>
      <trkpt lat="44.5682" lon="6.87017">
        <ele>2371</ele>
        <time>2020-02-17T10:28:50.000Z</time>
      </trkpt>
      <trkpt lat="44.5682" lon="6.87016">
        <ele>2371</ele>
        <time>2020-02-17T10:28:52.000Z</time>
      </trkpt>
      <trkpt lat="44.5682" lon="6.87023">
        <ele>2371</ele>
        <time>2020-02-17T10:28:55.000Z</time>
      </trkpt>
      <trkpt lat="44.5682" lon="6.87025">
        <ele>2371</ele>
        <time>2020-02-17T10:28:56.000Z</time>
      </trkpt>
      <trkpt lat="44.56821" lon="6.87025">
        <ele>2371</ele>
        <time>2020-02-17T10:29:03.000Z</time>
      </trkpt>
      <trkpt lat="44.56819" lon="6.87014">
        <ele>2371</ele>
        <time>2020-02-17T10:29:07.000Z</time>
      </trkpt>
      <trkpt lat="44.56819" lon="6.87017">
        <ele>2371</ele>
        <time>2020-02-17T10:29:09.000Z</time>
      </trkpt>
      <trkpt lat="44.56821" lon="6.87017">
        <ele>2371</ele>
        <time>2020-02-17T10:29:12.000Z</time>
      </trkpt>
      <trkpt lat="44.56821" lon="6.87016">
        <ele>2371</ele>
        <time>2020-02-17T10:29:13.000Z</time>
      </trkpt>
      <trkpt lat="44.56822" lon="6.87015">
        <ele>2371</ele>
        <time>2020-02-17T10:29:14.000Z</time>
      </trkpt>
      <trkpt lat="44.56822" lon="6.87015">
        <ele>2371</ele>
        <time>2020-02-17T10:29:15.000Z</time>
      </trkpt>
      <trkpt lat="44.56823" lon="6.87016">
        <ele>2371</ele>
        <time>2020-02-17T10:29:16.000Z</time>
      </trkpt>
      <trkpt lat="44.56823" lon="6.87016">
        <ele>2371</ele>
        <time>2020-02-17T10:29:17.000Z</time>
      </trkpt>
      <trkpt lat="44.56823" lon="6.87018">
        <ele>2371</ele>
        <time>2020-02-17T10:29:19.000Z</time>
      </trkpt>
      <trkpt lat="44.56823" lon="6.87015">
        <ele>2371</ele>
        <time>2020-02-17T10:29:29.000Z</time>
      </trkpt>
      <trkpt lat="44.56823" lon="6.87016">
        <ele>2371</ele>
        <time>2020-02-17T10:29:30.000Z</time>
      </trkpt>
      <trkpt lat="44.56823" lon="6.87017">
        <ele>2371</ele>
        <time>2020-02-17T10:29:31.000Z</time>
      </trkpt>
      <trkpt lat="44.56823" lon="6.87017">
        <ele>2371</ele>
        <time>2020-02-17T10:29:32.000Z</time>
      </trkpt>
      <trkpt lat="44.56823" lon="6.87018">
        <ele>2371</ele>
        <time>2020-02-17T10:29:33.000Z</time>
      </trkpt>
      <trkpt lat="44.56822" lon="6.87018">
        <ele>2371</ele>
        <time>2020-02-17T10:29:34.000Z</time>
      </trkpt>
      <trkpt lat="44.56822" lon="6.87015">
        <ele>2371</ele>
        <time>2020-02-17T10:29:36.000Z</time>
      </trkpt>
      <trkpt lat="44.56822" lon="6.87012">
        <ele>2370</ele>
        <time>2020-02-17T10:29:38.000Z</time>
      </trkpt>
      <trkpt lat="44.56823" lon="6.87011">
        <ele>2370</ele>
        <time>2020-02-17T10:29:39.000Z</time>
      </trkpt>
      <trkpt lat="44.56823" lon="6.8701">
        <ele>2370</ele>
        <time>2020-02-17T10:29:40.000Z</time>
      </trkpt>
      <trkpt lat="44.56822" lon="6.87009">
        <ele>2370</ele>
        <time>2020-02-17T10:29:43.000Z</time>
      </trkpt>
      <trkpt lat="44.56821" lon="6.87011">
        <ele>2370</ele>
        <time>2020-02-17T10:29:45.000Z</time>
      </trkpt>
      <trkpt lat="44.5682" lon="6.87012">
        <ele>2370</ele>
        <time>2020-02-17T10:29:47.000Z</time>
      </trkpt>
      <trkpt lat="44.5682" lon="6.87012">
        <ele>2370</ele>
        <time>2020-02-17T10:29:48.000Z</time>
      </trkpt>
      <trkpt lat="44.5682" lon="6.87012">
        <ele>2371</ele>
        <time>2020-02-17T10:29:49.000Z</time>
      </trkpt>
      <trkpt lat="44.5682" lon="6.87012">
        <ele>2371</ele>
        <time>2020-02-17T10:29:50.000Z</time>
      </trkpt>
      <trkpt lat="44.56819" lon="6.87012">
        <ele>2371</ele>
        <time>2020-02-17T10:29:53.000Z</time>
      </trkpt>
      <trkpt lat="44.56819" lon="6.87012">
        <ele>2371</ele>
        <time>2020-02-17T10:29:54.000Z</time>
      </trkpt>
      <trkpt lat="44.56818" lon="6.87013">
        <ele>2371</ele>
        <time>2020-02-17T10:29:59.000Z</time>
      </trkpt>
      <trkpt lat="44.56818" lon="6.87011">
        <ele>2371</ele>
        <time>2020-02-17T10:30:01.000Z</time>
      </trkpt>
      <trkpt lat="44.56818" lon="6.87011">
        <ele>2371</ele>
        <time>2020-02-17T10:30:02.000Z</time>
      </trkpt>
      <trkpt lat="44.56818" lon="6.87011">
        <ele>2371</ele>
        <time>2020-02-17T10:30:03.000Z</time>
      </trkpt>
      <trkpt lat="44.56818" lon="6.87011">
        <ele>2371</ele>
        <time>2020-02-17T10:30:16.000Z</time>
      </trkpt>
      <trkpt lat="44.56818" lon="6.87012">
        <ele>2371</ele>
        <time>2020-02-17T10:30:17.000Z</time>
      </trkpt>
      <trkpt lat="44.56817" lon="6.87012">
        <ele>2371</ele>
        <time>2020-02-17T10:30:18.000Z</time>
      </trkpt>
      <trkpt lat="44.56817" lon="6.87014">
        <ele>2371</ele>
        <time>2020-02-17T10:30:21.000Z</time>
      </trkpt>
      <trkpt lat="44.56817" lon="6.87015">
        <ele>2371</ele>
        <time>2020-02-17T10:30:27.000Z</time>
      </trkpt>
      <trkpt lat="44.56816" lon="6.87015">
        <ele>2371</ele>
        <time>2020-02-17T10:30:34.000Z</time>
      </trkpt>
      <trkpt lat="44.56817" lon="6.87013">
        <ele>2371</ele>
        <time>2020-02-17T10:30:36.000Z</time>
      </trkpt>
      <trkpt lat="44.56817" lon="6.87013">
        <ele>2371</ele>
        <time>2020-02-17T10:31:09.000Z</time>
      </trkpt>
      <trkpt lat="44.56816" lon="6.87012">
        <ele>2371</ele>
        <time>2020-02-17T10:31:15.000Z</time>
      </trkpt>
      <trkpt lat="44.56817" lon="6.87011">
        <ele>2371</ele>
        <time>2020-02-17T10:31:21.000Z</time>
      </trkpt>
      <trkpt lat="44.56817" lon="6.87016">
        <ele>2371</ele>
        <time>2020-02-17T10:31:42.000Z</time>
      </trkpt>
      <trkpt lat="44.56817" lon="6.87015">
        <ele>2371</ele>
        <time>2020-02-17T10:31:44.000Z</time>
      </trkpt>
      <trkpt lat="44.56817" lon="6.87015">
        <ele>2371</ele>
        <time>2020-02-17T10:31:45.000Z</time>
      </trkpt>
      <trkpt lat="44.56816" lon="6.87015">
        <ele>2371</ele>
        <time>2020-02-17T10:31:47.000Z</time>
      </trkpt>
      <trkpt lat="44.56817" lon="6.87013">
        <ele>2371</ele>
        <time>2020-02-17T10:31:52.000Z</time>
      </trkpt>
      <trkpt lat="44.56817" lon="6.87012">
        <ele>2371</ele>
        <time>2020-02-17T10:31:55.000Z</time>
      </trkpt>
      <trkpt lat="44.56817" lon="6.87012">
        <ele>2371</ele>
        <time>2020-02-17T10:31:56.000Z</time>
      </trkpt>
      <trkpt lat="44.56817" lon="6.87012">
        <ele>2371</ele>
        <time>2020-02-17T10:31:57.000Z</time>
      </trkpt>
      <trkpt lat="44.56817" lon="6.87012">
        <ele>2371</ele>
        <time>2020-02-17T10:31:58.000Z</time>
      </trkpt>
      <trkpt lat="44.56818" lon="6.87012">
        <ele>2371</ele>
        <time>2020-02-17T10:32:02.000Z</time>
      </trkpt>
      <trkpt lat="44.56817" lon="6.87012">
        <ele>2371</ele>
        <time>2020-02-17T10:32:04.000Z</time>
      </trkpt>
      <trkpt lat="44.56817" lon="6.87012">
        <ele>2371</ele>
        <time>2020-02-17T10:32:07.000Z</time>
      </trkpt>
      <trkpt lat="44.56817" lon="6.87012">
        <ele>2371</ele>
        <time>2020-02-17T10:32:13.000Z</time>
      </trkpt>
      <trkpt lat="44.56818" lon="6.87012">
        <ele>2371</ele>
        <time>2020-02-17T10:32:15.000Z</time>
      </trkpt>
      <trkpt lat="44.56818" lon="6.87012">
        <ele>2371</ele>
        <time>2020-02-17T10:32:16.000Z</time>
      </trkpt>
      <trkpt lat="44.56816" lon="6.87014">
        <ele>2371</ele>
        <time>2020-02-17T10:32:27.000Z</time>
      </trkpt>
      <trkpt lat="44.56813" lon="6.87013">
        <ele>2371</ele>
        <time>2020-02-17T10:32:45.000Z</time>
      </trkpt>
      <trkpt lat="44.56814" lon="6.87012">
        <ele>2371</ele>
        <time>2020-02-17T10:32:55.000Z</time>
      </trkpt>
      <trkpt lat="44.56815" lon="6.87013">
        <ele>2371</ele>
        <time>2020-02-17T10:33:04.000Z</time>
      </trkpt>
      <trkpt lat="44.56815" lon="6.87013">
        <ele>2371</ele>
        <time>2020-02-17T10:33:05.000Z</time>
      </trkpt>
      <trkpt lat="44.56815" lon="6.87011">
        <ele>2371</ele>
        <time>2020-02-17T10:33:12.000Z</time>
      </trkpt>
      <trkpt lat="44.56816" lon="6.87011">
        <ele>2371</ele>
        <time>2020-02-17T10:33:13.000Z</time>
      </trkpt>
      <trkpt lat="44.56816" lon="6.87011">
        <ele>2371</ele>
        <time>2020-02-17T10:33:14.000Z</time>
      </trkpt>
      <trkpt lat="44.56816" lon="6.87011">
        <ele>2371</ele>
        <time>2020-02-17T10:33:15.000Z</time>
      </trkpt>
      <trkpt lat="44.56816" lon="6.87011">
        <ele>2371</ele>
        <time>2020-02-17T10:33:17.000Z</time>
      </trkpt>
      <trkpt lat="44.56816" lon="6.87011">
        <ele>2371</ele>
        <time>2020-02-17T10:33:18.000Z</time>
      </trkpt>
      <trkpt lat="44.56815" lon="6.87011">
        <ele>2371</ele>
        <time>2020-02-17T10:33:21.000Z</time>
      </trkpt>
      <trkpt lat="44.56814" lon="6.87013">
        <ele>2371</ele>
        <time>2020-02-17T10:33:23.000Z</time>
      </trkpt>
      <trkpt lat="44.56813" lon="6.87012">
        <ele>2371</ele>
        <time>2020-02-17T10:33:26.000Z</time>
      </trkpt>
      <trkpt lat="44.56812" lon="6.87013">
        <ele>2371</ele>
        <time>2020-02-17T10:33:27.000Z</time>
      </trkpt>
      <trkpt lat="44.56812" lon="6.87013">
        <ele>2371</ele>
        <time>2020-02-17T10:33:33.000Z</time>
      </trkpt>
      <trkpt lat="44.56814" lon="6.87012">
        <ele>2371</ele>
        <time>2020-02-17T10:33:44.000Z</time>
      </trkpt>
      <trkpt lat="44.56814" lon="6.87012">
        <ele>2371</ele>
        <time>2020-02-17T10:33:45.000Z</time>
      </trkpt>
      <trkpt lat="44.56814" lon="6.87012">
        <ele>2371</ele>
        <time>2020-02-17T10:33:46.000Z</time>
      </trkpt>
      <trkpt lat="44.56814" lon="6.87012">
        <ele>2371</ele>
        <time>2020-02-17T10:33:47.000Z</time>
      </trkpt>
      <trkpt lat="44.56813" lon="6.87012">
        <ele>2371</ele>
        <time>2020-02-17T10:33:55.000Z</time>
      </trkpt>
      <trkpt lat="44.56814" lon="6.87011">
        <ele>2371</ele>
        <time>2020-02-17T10:34:01.000Z</time>
      </trkpt>
      <trkpt lat="44.56814" lon="6.87012">
        <ele>2371</ele>
        <time>2020-02-17T10:34:06.000Z</time>
      </trkpt>
      <trkpt lat="44.56814" lon="6.87012">
        <ele>2371</ele>
        <time>2020-02-17T10:34:08.000Z</time>
      </trkpt>
      <trkpt lat="44.56814" lon="6.87012">
        <ele>2371</ele>
        <time>2020-02-17T10:34:11.000Z</time>
      </trkpt>
      <trkpt lat="44.56814" lon="6.87011">
        <ele>2371</ele>
        <time>2020-02-17T10:34:14.000Z</time>
      </trkpt>
      <trkpt lat="44.56813" lon="6.87012">
        <ele>2371</ele>
        <time>2020-02-17T10:34:15.000Z</time>
      </trkpt>
      <trkpt lat="44.56813" lon="6.87012">
        <ele>2371</ele>
        <time>2020-02-17T10:34:16.000Z</time>
      </trkpt>
      <trkpt lat="44.56813" lon="6.87012">
        <ele>2371</ele>
        <time>2020-02-17T10:34:17.000Z</time>
      </trkpt>
      <trkpt lat="44.56812" lon="6.87012">
        <ele>2371</ele>
        <time>2020-02-17T10:34:18.000Z</time>
      </trkpt>
      <trkpt lat="44.56812" lon="6.87012">
        <ele>2371</ele>
        <time>2020-02-17T10:34:19.000Z</time>
      </trkpt>
      <trkpt lat="44.56814" lon="6.87009">
        <ele>2371</ele>
        <time>2020-02-17T10:34:20.000Z</time>
      </trkpt>
      <trkpt lat="44.56814" lon="6.87009">
        <ele>2371</ele>
        <time>2020-02-17T10:34:23.000Z</time>
      </trkpt>
      <trkpt lat="44.56813" lon="6.87009">
        <ele>2371</ele>
        <time>2020-02-17T10:34:30.000Z</time>
      </trkpt>
      <trkpt lat="44.56813" lon="6.8701">
        <ele>2371</ele>
        <time>2020-02-17T10:34:34.000Z</time>
      </trkpt>
      <trkpt lat="44.56813" lon="6.87009">
        <ele>2371</ele>
        <time>2020-02-17T10:34:36.000Z</time>
      </trkpt>
      <trkpt lat="44.56813" lon="6.87009">
        <ele>2371</ele>
        <time>2020-02-17T10:34:43.000Z</time>
      </trkpt>
      <trkpt lat="44.56813" lon="6.87009">
        <ele>2371</ele>
        <time>2020-02-17T10:34:47.000Z</time>
      </trkpt>
      <trkpt lat="44.56812" lon="6.8701">
        <ele>2371</ele>
        <time>2020-02-17T10:34:53.000Z</time>
      </trkpt>
      <trkpt lat="44.56812" lon="6.87011">
        <ele>2371</ele>
        <time>2020-02-17T10:34:55.000Z</time>
      </trkpt>
      <trkpt lat="44.56811" lon="6.87012">
        <ele>2371</ele>
        <time>2020-02-17T10:35:05.000Z</time>
      </trkpt>
      <trkpt lat="44.5681" lon="6.87012">
        <ele>2371</ele>
        <time>2020-02-17T10:35:06.000Z</time>
      </trkpt>
      <trkpt lat="44.5681" lon="6.87011">
        <ele>2371</ele>
        <time>2020-02-17T10:35:08.000Z</time>
      </trkpt>
      <trkpt lat="44.5681" lon="6.87012">
        <ele>2371</ele>
        <time>2020-02-17T10:35:13.000Z</time>
      </trkpt>
      <trkpt lat="44.5681" lon="6.87011">
        <ele>2371</ele>
        <time>2020-02-17T10:35:17.000Z</time>
      </trkpt>
      <trkpt lat="44.56809" lon="6.87011">
        <ele>2371</ele>
        <time>2020-02-17T10:35:19.000Z</time>
      </trkpt>
      <trkpt lat="44.56807" lon="6.87009">
        <ele>2371</ele>
        <time>2020-02-17T10:35:26.000Z</time>
      </trkpt>
      <trkpt lat="44.56808" lon="6.87002">
        <ele>2371</ele>
        <time>2020-02-17T10:35:31.000Z</time>
      </trkpt>
      <trkpt lat="44.56808" lon="6.86998">
        <ele>2368</ele>
        <time>2020-02-17T10:35:33.000Z</time>
      </trkpt>
      <trkpt lat="44.56807" lon="6.86993">
        <ele>2367</ele>
        <time>2020-02-17T10:35:35.000Z</time>
      </trkpt>
      <trkpt lat="44.56803" lon="6.86984">
        <ele>2367</ele>
        <time>2020-02-17T10:35:40.000Z</time>
      </trkpt>
      <trkpt lat="44.56802" lon="6.86982">
        <ele>2367</ele>
        <time>2020-02-17T10:35:42.000Z</time>
      </trkpt>
      <trkpt lat="44.56802" lon="6.86981">
        <ele>2367</ele>
        <time>2020-02-17T10:35:43.000Z</time>
      </trkpt>
      <trkpt lat="44.56802" lon="6.86978">
        <ele>2367</ele>
        <time>2020-02-17T10:35:45.000Z</time>
      </trkpt>
      <trkpt lat="44.56801" lon="6.86975">
        <ele>2367</ele>
        <time>2020-02-17T10:35:47.000Z</time>
      </trkpt>
      <trkpt lat="44.568" lon="6.86972">
        <ele>2367</ele>
        <time>2020-02-17T10:35:50.000Z</time>
      </trkpt>
      <trkpt lat="44.56798" lon="6.86969">
        <ele>2367</ele>
        <time>2020-02-17T10:35:52.000Z</time>
      </trkpt>
      <trkpt lat="44.56794" lon="6.86962">
        <ele>2367</ele>
        <time>2020-02-17T10:35:59.000Z</time>
      </trkpt>
      <trkpt lat="44.56793" lon="6.86959">
        <ele>2367</ele>
        <time>2020-02-17T10:36:02.000Z</time>
      </trkpt>
      <trkpt lat="44.56793" lon="6.86959">
        <ele>2367</ele>
        <time>2020-02-17T10:36:04.000Z</time>
      </trkpt>
      <trkpt lat="44.56792" lon="6.86957">
        <ele>2367</ele>
        <time>2020-02-17T10:36:10.000Z</time>
      </trkpt>
      <trkpt lat="44.56791" lon="6.86955">
        <ele>2367</ele>
        <time>2020-02-17T10:36:13.000Z</time>
      </trkpt>
      <trkpt lat="44.5679" lon="6.86953">
        <ele>2367</ele>
        <time>2020-02-17T10:36:19.000Z</time>
      </trkpt>
      <trkpt lat="44.56785" lon="6.86954">
        <ele>2367</ele>
        <time>2020-02-17T10:36:23.000Z</time>
      </trkpt>
      <trkpt lat="44.56778" lon="6.86954">
        <ele>2367</ele>
        <time>2020-02-17T10:36:28.000Z</time>
      </trkpt>
      <trkpt lat="44.56761" lon="6.86959">
        <ele>2367</ele>
        <time>2020-02-17T10:36:41.000Z</time>
      </trkpt>
      <trkpt lat="44.56751" lon="6.86961">
        <ele>2367</ele>
        <time>2020-02-17T10:36:54.000Z</time>
      </trkpt>
      <trkpt lat="44.56749" lon="6.86963">
        <ele>2374</ele>
        <time>2020-02-17T10:36:56.000Z</time>
      </trkpt>
      <trkpt lat="44.56746" lon="6.86964">
        <ele>2374</ele>
        <time>2020-02-17T10:36:58.000Z</time>
      </trkpt>
      <trkpt lat="44.56744" lon="6.86965">
        <ele>2374</ele>
        <time>2020-02-17T10:37:00.000Z</time>
      </trkpt>
      <trkpt lat="44.56743" lon="6.86965">
        <ele>2374</ele>
        <time>2020-02-17T10:37:01.000Z</time>
      </trkpt>
      <trkpt lat="44.56742" lon="6.86966">
        <ele>2374</ele>
        <time>2020-02-17T10:37:02.000Z</time>
      </trkpt>
      <trkpt lat="44.56743" lon="6.86965">
        <ele>2374</ele>
        <time>2020-02-17T10:37:03.000Z</time>
      </trkpt>
      <trkpt lat="44.56741" lon="6.86966">
        <ele>2374</ele>
        <time>2020-02-17T10:37:05.000Z</time>
      </trkpt>
      <trkpt lat="44.56735" lon="6.86968">
        <ele>2374</ele>
        <time>2020-02-17T10:37:11.000Z</time>
      </trkpt>
      <trkpt lat="44.56729" lon="6.8697">
        <ele>2375</ele>
        <time>2020-02-17T10:37:16.000Z</time>
      </trkpt>
      <trkpt lat="44.5672" lon="6.8697">
        <ele>2376</ele>
        <time>2020-02-17T10:37:27.000Z</time>
      </trkpt>
      <trkpt lat="44.5672" lon="6.86965">
        <ele>2376</ele>
        <time>2020-02-17T10:37:31.000Z</time>
      </trkpt>
      <trkpt lat="44.56717" lon="6.86956">
        <ele>2376</ele>
        <time>2020-02-17T10:37:36.000Z</time>
      </trkpt>
      <trkpt lat="44.56717" lon="6.86955">
        <ele>2376</ele>
        <time>2020-02-17T10:37:37.000Z</time>
      </trkpt>
      <trkpt lat="44.56718" lon="6.86953">
        <ele>2376</ele>
        <time>2020-02-17T10:37:39.000Z</time>
      </trkpt>
      <trkpt lat="44.56718" lon="6.86948">
        <ele>2376</ele>
        <time>2020-02-17T10:37:42.000Z</time>
      </trkpt>
      <trkpt lat="44.56715" lon="6.86936">
        <ele>2377</ele>
        <time>2020-02-17T10:37:51.000Z</time>
      </trkpt>
      <trkpt lat="44.56716" lon="6.86933">
        <ele>2377</ele>
        <time>2020-02-17T10:37:54.000Z</time>
      </trkpt>
      <trkpt lat="44.56721" lon="6.8693">
        <ele>2376</ele>
        <time>2020-02-17T10:37:57.000Z</time>
      </trkpt>
      <trkpt lat="44.56721" lon="6.8692">
        <ele>2376</ele>
        <time>2020-02-17T10:38:03.000Z</time>
      </trkpt>
      <trkpt lat="44.56724" lon="6.86915">
        <ele>2381</ele>
        <time>2020-02-17T10:38:09.000Z</time>
      </trkpt>
      <trkpt lat="44.56722" lon="6.86906">
        <ele>2382</ele>
        <time>2020-02-17T10:38:16.000Z</time>
      </trkpt>
      <trkpt lat="44.56721" lon="6.86902">
        <ele>2382</ele>
        <time>2020-02-17T10:38:20.000Z</time>
      </trkpt>
      <trkpt lat="44.56721" lon="6.86894">
        <ele>2383</ele>
        <time>2020-02-17T10:38:28.000Z</time>
      </trkpt>
      <trkpt lat="44.56722" lon="6.8689">
        <ele>2384</ele>
        <time>2020-02-17T10:38:31.000Z</time>
      </trkpt>
      <trkpt lat="44.56723" lon="6.86889">
        <ele>2384</ele>
        <time>2020-02-17T10:38:33.000Z</time>
      </trkpt>
      <trkpt lat="44.56724" lon="6.86887">
        <ele>2384</ele>
        <time>2020-02-17T10:38:35.000Z</time>
      </trkpt>
      <trkpt lat="44.56724" lon="6.86887">
        <ele>2384</ele>
        <time>2020-02-17T10:38:36.000Z</time>
      </trkpt>
      <trkpt lat="44.56729" lon="6.86883">
        <ele>2384</ele>
        <time>2020-02-17T10:38:43.000Z</time>
      </trkpt>
      <trkpt lat="44.5673" lon="6.86882">
        <ele>2383</ele>
        <time>2020-02-17T10:38:45.000Z</time>
      </trkpt>
      <trkpt lat="44.5673" lon="6.86877">
        <ele>2384</ele>
        <time>2020-02-17T10:38:52.000Z</time>
      </trkpt>
      <trkpt lat="44.56732" lon="6.86874">
        <ele>2384</ele>
        <time>2020-02-17T10:38:56.000Z</time>
      </trkpt>
      <trkpt lat="44.56734" lon="6.86871">
        <ele>2384</ele>
        <time>2020-02-17T10:39:01.000Z</time>
      </trkpt>
      <trkpt lat="44.56737" lon="6.86862">
        <ele>2385</ele>
        <time>2020-02-17T10:39:12.000Z</time>
      </trkpt>
      <trkpt lat="44.56741" lon="6.86856">
        <ele>2385</ele>
        <time>2020-02-17T10:39:22.000Z</time>
      </trkpt>
      <trkpt lat="44.56742" lon="6.86845">
        <ele>2385</ele>
        <time>2020-02-17T10:39:33.000Z</time>
      </trkpt>
      <trkpt lat="44.56754" lon="6.8684">
        <ele>2379</ele>
        <time>2020-02-17T10:39:49.000Z</time>
      </trkpt>
      <trkpt lat="44.56756" lon="6.86834">
        <ele>2380</ele>
        <time>2020-02-17T10:39:59.000Z</time>
      </trkpt>
      <trkpt lat="44.56756" lon="6.86825">
        <ele>2384</ele>
        <time>2020-02-17T10:40:09.000Z</time>
      </trkpt>
      <trkpt lat="44.56761" lon="6.86817">
        <ele>2385</ele>
        <time>2020-02-17T10:40:20.000Z</time>
      </trkpt>
      <trkpt lat="44.56766" lon="6.86811">
        <ele>2386</ele>
        <time>2020-02-17T10:40:31.000Z</time>
      </trkpt>
      <trkpt lat="44.56767" lon="6.8681">
        <ele>2386</ele>
        <time>2020-02-17T10:40:41.000Z</time>
      </trkpt>
      <trkpt lat="44.56759" lon="6.8681">
        <ele>2387</ele>
        <time>2020-02-17T10:40:50.000Z</time>
      </trkpt>
      <trkpt lat="44.56758" lon="6.86809">
        <ele>2387</ele>
        <time>2020-02-17T10:40:51.000Z</time>
      </trkpt>
      <trkpt lat="44.56757" lon="6.86809">
        <ele>2387</ele>
        <time>2020-02-17T10:40:52.000Z</time>
      </trkpt>
      <trkpt lat="44.56754" lon="6.86806">
        <ele>2387</ele>
        <time>2020-02-17T10:40:59.000Z</time>
      </trkpt>
      <trkpt lat="44.56755" lon="6.86806">
        <ele>2387</ele>
        <time>2020-02-17T10:41:00.000Z</time>
      </trkpt>
      <trkpt lat="44.56761" lon="6.8681">
        <ele>2386</ele>
        <time>2020-02-17T10:41:11.000Z</time>
      </trkpt>
      <trkpt lat="44.56767" lon="6.86813">
        <ele>2386</ele>
        <time>2020-02-17T10:41:25.000Z</time>
      </trkpt>
      <trkpt lat="44.56767" lon="6.86812">
        <ele>2386</ele>
        <time>2020-02-17T10:41:26.000Z</time>
      </trkpt>
      <trkpt lat="44.56767" lon="6.86812">
        <ele>2386</ele>
        <time>2020-02-17T10:41:27.000Z</time>
      </trkpt>
      <trkpt lat="44.56764" lon="6.86812">
        <ele>2386</ele>
        <time>2020-02-17T10:41:29.000Z</time>
      </trkpt>
      <trkpt lat="44.5676" lon="6.86813">
        <ele>2386</ele>
        <time>2020-02-17T10:41:33.000Z</time>
      </trkpt>
      <trkpt lat="44.56758" lon="6.86814">
        <ele>2386</ele>
        <time>2020-02-17T10:41:34.000Z</time>
      </trkpt>
      <trkpt lat="44.56757" lon="6.86814">
        <ele>2386</ele>
        <time>2020-02-17T10:41:35.000Z</time>
      </trkpt>
      <trkpt lat="44.5675" lon="6.86812">
        <ele>2386</ele>
        <time>2020-02-17T10:41:40.000Z</time>
      </trkpt>
      <trkpt lat="44.56746" lon="6.86809">
        <ele>2399</ele>
        <time>2020-02-17T10:41:43.000Z</time>
      </trkpt>
      <trkpt lat="44.56738" lon="6.86806">
        <ele>2402</ele>
        <time>2020-02-17T10:41:49.000Z</time>
      </trkpt>
      <trkpt lat="44.56728" lon="6.86804">
        <ele>2404</ele>
        <time>2020-02-17T10:41:57.000Z</time>
      </trkpt>
      <trkpt lat="44.56727" lon="6.86805">
        <ele>2404</ele>
        <time>2020-02-17T10:41:58.000Z</time>
      </trkpt>
      <trkpt lat="44.56725" lon="6.86807">
        <ele>2404</ele>
        <time>2020-02-17T10:42:02.000Z</time>
      </trkpt>
      <trkpt lat="44.56731" lon="6.86802">
        <ele>2404</ele>
        <time>2020-02-17T10:42:05.000Z</time>
      </trkpt>
      <trkpt lat="44.56737" lon="6.86799">
        <ele>2404</ele>
        <time>2020-02-17T10:42:11.000Z</time>
      </trkpt>
      <trkpt lat="44.56738" lon="6.86798">
        <ele>2404</ele>
        <time>2020-02-17T10:42:12.000Z</time>
      </trkpt>
      <trkpt lat="44.56738" lon="6.86797">
        <ele>2404</ele>
        <time>2020-02-17T10:42:13.000Z</time>
      </trkpt>
      <trkpt lat="44.56738" lon="6.86796">
        <ele>2405</ele>
        <time>2020-02-17T10:42:14.000Z</time>
      </trkpt>
      <trkpt lat="44.56743" lon="6.86792">
        <ele>2405</ele>
        <time>2020-02-17T10:42:22.000Z</time>
      </trkpt>
      <trkpt lat="44.56744" lon="6.86791">
        <ele>2405</ele>
        <time>2020-02-17T10:42:24.000Z</time>
      </trkpt>
      <trkpt lat="44.56745" lon="6.86783">
        <ele>2407</ele>
        <time>2020-02-17T10:42:32.000Z</time>
      </trkpt>
      <trkpt lat="44.56747" lon="6.86783">
        <ele>2407</ele>
        <time>2020-02-17T10:42:34.000Z</time>
      </trkpt>
      <trkpt lat="44.56751" lon="6.8678">
        <ele>2394</ele>
        <time>2020-02-17T10:42:40.000Z</time>
      </trkpt>
      <trkpt lat="44.56753" lon="6.86779">
        <ele>2394</ele>
        <time>2020-02-17T10:42:41.000Z</time>
      </trkpt>
      <trkpt lat="44.56762" lon="6.86781">
        <ele>2392</ele>
        <time>2020-02-17T10:42:46.000Z</time>
      </trkpt>
      <trkpt lat="44.56766" lon="6.86782">
        <ele>2392</ele>
        <time>2020-02-17T10:42:49.000Z</time>
      </trkpt>
      <trkpt lat="44.56767" lon="6.86781">
        <ele>2392</ele>
        <time>2020-02-17T10:42:51.000Z</time>
      </trkpt>
      <trkpt lat="44.56767" lon="6.8678">
        <ele>2392</ele>
        <time>2020-02-17T10:42:53.000Z</time>
      </trkpt>
      <trkpt lat="44.56768" lon="6.86776">
        <ele>2393</ele>
        <time>2020-02-17T10:43:02.000Z</time>
      </trkpt>
      <trkpt lat="44.56768" lon="6.86762">
        <ele>2396</ele>
        <time>2020-02-17T10:43:14.000Z</time>
      </trkpt>
      <trkpt lat="44.5677" lon="6.86751">
        <ele>2397</ele>
        <time>2020-02-17T10:43:27.000Z</time>
      </trkpt>
      <trkpt lat="44.56774" lon="6.8675">
        <ele>2410</ele>
        <time>2020-02-17T10:43:31.000Z</time>
      </trkpt>
      <trkpt lat="44.5678" lon="6.86743">
        <ele>2411</ele>
        <time>2020-02-17T10:43:46.000Z</time>
      </trkpt>
      <trkpt lat="44.56781" lon="6.86744">
        <ele>2410</ele>
        <time>2020-02-17T10:43:56.000Z</time>
      </trkpt>
      <trkpt lat="44.56782" lon="6.86748">
        <ele>2410</ele>
        <time>2020-02-17T10:44:04.000Z</time>
      </trkpt>
      <trkpt lat="44.56781" lon="6.86743">
        <ele>2410</ele>
        <time>2020-02-17T10:44:08.000Z</time>
      </trkpt>
      <trkpt lat="44.56781" lon="6.86741">
        <ele>2411</ele>
        <time>2020-02-17T10:44:10.000Z</time>
      </trkpt>
      <trkpt lat="44.56781" lon="6.86739">
        <ele>2411</ele>
        <time>2020-02-17T10:44:14.000Z</time>
      </trkpt>
      <trkpt lat="44.56783" lon="6.86739">
        <ele>2411</ele>
        <time>2020-02-17T10:44:19.000Z</time>
      </trkpt>
      <trkpt lat="44.56783" lon="6.86738">
        <ele>2411</ele>
        <time>2020-02-17T10:44:24.000Z</time>
      </trkpt>
      <trkpt lat="44.56783" lon="6.86736">
        <ele>2411</ele>
        <time>2020-02-17T10:44:27.000Z</time>
      </trkpt>
      <trkpt lat="44.5678" lon="6.86733">
        <ele>2411</ele>
        <time>2020-02-17T10:44:34.000Z</time>
      </trkpt>
      <trkpt lat="44.56775" lon="6.86739">
        <ele>2411</ele>
        <time>2020-02-17T10:44:44.000Z</time>
      </trkpt>
      <trkpt lat="44.5678" lon="6.86743">
        <ele>2410</ele>
        <time>2020-02-17T10:44:51.000Z</time>
      </trkpt>
      <trkpt lat="44.56784" lon="6.86744">
        <ele>2410</ele>
        <time>2020-02-17T10:44:54.000Z</time>
      </trkpt>
      <trkpt lat="44.56784" lon="6.86744">
        <ele>2410</ele>
        <time>2020-02-17T10:44:59.000Z</time>
      </trkpt>
      <trkpt lat="44.56782" lon="6.8674">
        <ele>2411</ele>
        <time>2020-02-17T10:45:08.000Z</time>
      </trkpt>
      <trkpt lat="44.56782" lon="6.86741">
        <ele>2410</ele>
        <time>2020-02-17T10:45:11.000Z</time>
      </trkpt>
      <trkpt lat="44.56776" lon="6.86742">
        <ele>2411</ele>
        <time>2020-02-17T10:45:16.000Z</time>
      </trkpt>
      <trkpt lat="44.56773" lon="6.86742">
        <ele>2411</ele>
        <time>2020-02-17T10:45:18.000Z</time>
      </trkpt>
      <trkpt lat="44.5677" lon="6.86743">
        <ele>2411</ele>
        <time>2020-02-17T10:45:21.000Z</time>
      </trkpt>
      <trkpt lat="44.56769" lon="6.86742">
        <ele>2411</ele>
        <time>2020-02-17T10:45:23.000Z</time>
      </trkpt>
      <trkpt lat="44.56766" lon="6.8674">
        <ele>2411</ele>
        <time>2020-02-17T10:45:26.000Z</time>
      </trkpt>
      <trkpt lat="44.56763" lon="6.86737">
        <ele>2412</ele>
        <time>2020-02-17T10:45:29.000Z</time>
      </trkpt>
      <trkpt lat="44.5676" lon="6.86736">
        <ele>2412</ele>
        <time>2020-02-17T10:45:33.000Z</time>
      </trkpt>
      <trkpt lat="44.56755" lon="6.86738">
        <ele>2411</ele>
        <time>2020-02-17T10:45:40.000Z</time>
      </trkpt>
      <trkpt lat="44.56754" lon="6.86738">
        <ele>2411</ele>
        <time>2020-02-17T10:45:41.000Z</time>
      </trkpt>
      <trkpt lat="44.56751" lon="6.86739">
        <ele>2411</ele>
        <time>2020-02-17T10:45:46.000Z</time>
      </trkpt>
      <trkpt lat="44.56747" lon="6.8674">
        <ele>2421</ele>
        <time>2020-02-17T10:45:52.000Z</time>
      </trkpt>
      <trkpt lat="44.56745" lon="6.86742">
        <ele>2420</ele>
        <time>2020-02-17T10:45:54.000Z</time>
      </trkpt>
      <trkpt lat="44.56744" lon="6.86742">
        <ele>2420</ele>
        <time>2020-02-17T10:45:56.000Z</time>
      </trkpt>
      <trkpt lat="44.56744" lon="6.8674">
        <ele>2422</ele>
        <time>2020-02-17T10:45:59.000Z</time>
      </trkpt>
      <trkpt lat="44.56748" lon="6.86742">
        <ele>2419</ele>
        <time>2020-02-17T10:46:06.000Z</time>
      </trkpt>
      <trkpt lat="44.56751" lon="6.8674">
        <ele>2411</ele>
        <time>2020-02-17T10:46:10.000Z</time>
      </trkpt>
      <trkpt lat="44.56752" lon="6.86738">
        <ele>2411</ele>
        <time>2020-02-17T10:46:12.000Z</time>
      </trkpt>
      <trkpt lat="44.56753" lon="6.86736">
        <ele>2412</ele>
        <time>2020-02-17T10:46:15.000Z</time>
      </trkpt>
      <trkpt lat="44.56755" lon="6.86734">
        <ele>2412</ele>
        <time>2020-02-17T10:46:17.000Z</time>
      </trkpt>
      <trkpt lat="44.56756" lon="6.86733">
        <ele>2412</ele>
        <time>2020-02-17T10:46:19.000Z</time>
      </trkpt>
      <trkpt lat="44.56756" lon="6.86731">
        <ele>2413</ele>
        <time>2020-02-17T10:46:21.000Z</time>
      </trkpt>
      <trkpt lat="44.56758" lon="6.86729">
        <ele>2413</ele>
        <time>2020-02-17T10:46:23.000Z</time>
      </trkpt>
      <trkpt lat="44.56758" lon="6.86727">
        <ele>2413</ele>
        <time>2020-02-17T10:46:25.000Z</time>
      </trkpt>
      <trkpt lat="44.56759" lon="6.86726">
        <ele>2413</ele>
        <time>2020-02-17T10:46:27.000Z</time>
      </trkpt>
      <trkpt lat="44.56759" lon="6.86723">
        <ele>2414</ele>
        <time>2020-02-17T10:46:29.000Z</time>
      </trkpt>
      <trkpt lat="44.5676" lon="6.8672">
        <ele>2415</ele>
        <time>2020-02-17T10:46:32.000Z</time>
      </trkpt>
      <trkpt lat="44.5676" lon="6.86719">
        <ele>2415</ele>
        <time>2020-02-17T10:46:33.000Z</time>
      </trkpt>
      <trkpt lat="44.56761" lon="6.86717">
        <ele>2415</ele>
        <time>2020-02-17T10:46:36.000Z</time>
      </trkpt>
      <trkpt lat="44.56762" lon="6.86716">
        <ele>2415</ele>
        <time>2020-02-17T10:46:39.000Z</time>
      </trkpt>
      <trkpt lat="44.56767" lon="6.86713">
        <ele>2416</ele>
        <time>2020-02-17T10:46:45.000Z</time>
      </trkpt>
      <trkpt lat="44.5677" lon="6.86705">
        <ele>2417</ele>
        <time>2020-02-17T10:46:52.000Z</time>
      </trkpt>
      <trkpt lat="44.56771" lon="6.86702">
        <ele>2418</ele>
        <time>2020-02-17T10:46:56.000Z</time>
      </trkpt>
      <trkpt lat="44.56772" lon="6.86701">
        <ele>2418</ele>
        <time>2020-02-17T10:46:57.000Z</time>
      </trkpt>
      <trkpt lat="44.56779" lon="6.86697">
        <ele>2418</ele>
        <time>2020-02-17T10:47:05.000Z</time>
      </trkpt>
      <trkpt lat="44.56781" lon="6.86695">
        <ele>2417</ele>
        <time>2020-02-17T10:47:07.000Z</time>
      </trkpt>
      <trkpt lat="44.56784" lon="6.86692">
        <ele>2418</ele>
        <time>2020-02-17T10:47:12.000Z</time>
      </trkpt>
      <trkpt lat="44.56784" lon="6.86691">
        <ele>2418</ele>
        <time>2020-02-17T10:47:14.000Z</time>
      </trkpt>
      <trkpt lat="44.56785" lon="6.86687">
        <ele>2418</ele>
        <time>2020-02-17T10:47:21.000Z</time>
      </trkpt>
      <trkpt lat="44.56786" lon="6.86686">
        <ele>2418</ele>
        <time>2020-02-17T10:47:22.000Z</time>
      </trkpt>
      <trkpt lat="44.56795" lon="6.86685">
        <ele>2417</ele>
        <time>2020-02-17T10:47:30.000Z</time>
      </trkpt>
      <trkpt lat="44.56797" lon="6.86679">
        <ele>2417</ele>
        <time>2020-02-17T10:47:39.000Z</time>
      </trkpt>
      <trkpt lat="44.56797" lon="6.86673">
        <ele>2418</ele>
        <time>2020-02-17T10:47:48.000Z</time>
      </trkpt>
      <trkpt lat="44.56796" lon="6.86665">
        <ele>2434</ele>
        <time>2020-02-17T10:47:56.000Z</time>
      </trkpt>
      <trkpt lat="44.56796" lon="6.86657">
        <ele>2435</ele>
        <time>2020-02-17T10:48:06.000Z</time>
      </trkpt>
      <trkpt lat="44.568" lon="6.86654">
        <ele>2434</ele>
        <time>2020-02-17T10:48:24.000Z</time>
      </trkpt>
      <trkpt lat="44.56801" lon="6.86653">
        <ele>2434</ele>
        <time>2020-02-17T10:48:27.000Z</time>
      </trkpt>
      <trkpt lat="44.56801" lon="6.86652">
        <ele>2434</ele>
        <time>2020-02-17T10:48:28.000Z</time>
      </trkpt>
      <trkpt lat="44.56801" lon="6.8665">
        <ele>2434</ele>
        <time>2020-02-17T10:48:29.000Z</time>
      </trkpt>
      <trkpt lat="44.56801" lon="6.86648">
        <ele>2435</ele>
        <time>2020-02-17T10:48:31.000Z</time>
      </trkpt>
      <trkpt lat="44.56802" lon="6.86647">
        <ele>2435</ele>
        <time>2020-02-17T10:48:33.000Z</time>
      </trkpt>
      <trkpt lat="44.56804" lon="6.86641">
        <ele>2435</ele>
        <time>2020-02-17T10:48:37.000Z</time>
      </trkpt>
      <trkpt lat="44.56804" lon="6.86638">
        <ele>2435</ele>
        <time>2020-02-17T10:48:39.000Z</time>
      </trkpt>
      <trkpt lat="44.56807" lon="6.86632">
        <ele>2436</ele>
        <time>2020-02-17T10:48:44.000Z</time>
      </trkpt>
      <trkpt lat="44.56803" lon="6.86613">
        <ele>2439</ele>
        <time>2020-02-17T10:48:54.000Z</time>
      </trkpt>
      <trkpt lat="44.56803" lon="6.8661">
        <ele>2440</ele>
        <time>2020-02-17T10:48:57.000Z</time>
      </trkpt>
      <trkpt lat="44.56807" lon="6.86601">
        <ele>2439</ele>
        <time>2020-02-17T10:49:05.000Z</time>
      </trkpt>
      <trkpt lat="44.56809" lon="6.86587">
        <ele>2439</ele>
        <time>2020-02-17T10:49:14.000Z</time>
      </trkpt>
      <trkpt lat="44.56809" lon="6.86582">
        <ele>2451</ele>
        <time>2020-02-17T10:49:19.000Z</time>
      </trkpt>
      <trkpt lat="44.56812" lon="6.86579">
        <ele>2450</ele>
        <time>2020-02-17T10:49:23.000Z</time>
      </trkpt>
      <trkpt lat="44.56814" lon="6.86575">
        <ele>2450</ele>
        <time>2020-02-17T10:49:27.000Z</time>
      </trkpt>
      <trkpt lat="44.56819" lon="6.86568">
        <ele>2449</ele>
        <time>2020-02-17T10:49:34.000Z</time>
      </trkpt>
      <trkpt lat="44.56819" lon="6.86566">
        <ele>2450</ele>
        <time>2020-02-17T10:49:36.000Z</time>
      </trkpt>
      <trkpt lat="44.5682" lon="6.86564">
        <ele>2450</ele>
        <time>2020-02-17T10:49:38.000Z</time>
      </trkpt>
      <trkpt lat="44.56821" lon="6.86562">
        <ele>2451</ele>
        <time>2020-02-17T10:49:40.000Z</time>
      </trkpt>
      <trkpt lat="44.56825" lon="6.8656">
        <ele>2450</ele>
        <time>2020-02-17T10:49:45.000Z</time>
      </trkpt>
      <trkpt lat="44.56827" lon="6.8656">
        <ele>2450</ele>
        <time>2020-02-17T10:49:46.000Z</time>
      </trkpt>
      <trkpt lat="44.56827" lon="6.8656">
        <ele>2450</ele>
        <time>2020-02-17T10:49:47.000Z</time>
      </trkpt>
      <trkpt lat="44.56828" lon="6.86559">
        <ele>2450</ele>
        <time>2020-02-17T10:49:48.000Z</time>
      </trkpt>
      <trkpt lat="44.56828" lon="6.86559">
        <ele>2450</ele>
        <time>2020-02-17T10:49:49.000Z</time>
      </trkpt>
      <trkpt lat="44.56831" lon="6.86552">
        <ele>2452</ele>
        <time>2020-02-17T10:49:58.000Z</time>
      </trkpt>
      <trkpt lat="44.56831" lon="6.86551">
        <ele>2452</ele>
        <time>2020-02-17T10:50:00.000Z</time>
      </trkpt>
      <trkpt lat="44.56831" lon="6.86548">
        <ele>2453</ele>
        <time>2020-02-17T10:50:03.000Z</time>
      </trkpt>
      <trkpt lat="44.56832" lon="6.86547">
        <ele>2453</ele>
        <time>2020-02-17T10:50:05.000Z</time>
      </trkpt>
      <trkpt lat="44.56835" lon="6.8654">
        <ele>2435</ele>
        <time>2020-02-17T10:50:15.000Z</time>
      </trkpt>
      <trkpt lat="44.56839" lon="6.86534">
        <ele>2435</ele>
        <time>2020-02-17T10:50:25.000Z</time>
      </trkpt>
      <trkpt lat="44.56837" lon="6.86524">
        <ele>2437</ele>
        <time>2020-02-17T10:50:34.000Z</time>
      </trkpt>
      <trkpt lat="44.56832" lon="6.86509">
        <ele>2451</ele>
        <time>2020-02-17T10:50:46.000Z</time>
      </trkpt>
      <trkpt lat="44.56829" lon="6.86496">
        <ele>2453</ele>
        <time>2020-02-17T10:50:56.000Z</time>
      </trkpt>
      <trkpt lat="44.56828" lon="6.8649">
        <ele>2457</ele>
        <time>2020-02-17T10:51:02.000Z</time>
      </trkpt>
      <trkpt lat="44.56829" lon="6.86481">
        <ele>2462</ele>
        <time>2020-02-17T10:51:14.000Z</time>
      </trkpt>
      <trkpt lat="44.5683" lon="6.86476">
        <ele>2463</ele>
        <time>2020-02-17T10:51:20.000Z</time>
      </trkpt>
      <trkpt lat="44.5683" lon="6.86464">
        <ele>2466</ele>
        <time>2020-02-17T10:51:36.000Z</time>
      </trkpt>
      <trkpt lat="44.56828" lon="6.86455">
        <ele>2468</ele>
        <time>2020-02-17T10:51:45.000Z</time>
      </trkpt>
      <trkpt lat="44.56826" lon="6.86449">
        <ele>2468</ele>
        <time>2020-02-17T10:51:56.000Z</time>
      </trkpt>
      <trkpt lat="44.56832" lon="6.86447">
        <ele>2468</ele>
        <time>2020-02-17T10:52:18.000Z</time>
      </trkpt>
      <trkpt lat="44.56831" lon="6.86447">
        <ele>2468</ele>
        <time>2020-02-17T10:52:21.000Z</time>
      </trkpt>
      <trkpt lat="44.56832" lon="6.86447">
        <ele>2468</ele>
        <time>2020-02-17T10:52:22.000Z</time>
      </trkpt>
      <trkpt lat="44.56832" lon="6.86448">
        <ele>2467</ele>
        <time>2020-02-17T10:52:25.000Z</time>
      </trkpt>
      <trkpt lat="44.56835" lon="6.86454">
        <ele>2446</ele>
        <time>2020-02-17T10:52:38.000Z</time>
      </trkpt>
      <trkpt lat="44.56834" lon="6.86453">
        <ele>2446</ele>
        <time>2020-02-17T10:52:42.000Z</time>
      </trkpt>
      <trkpt lat="44.56834" lon="6.86453">
        <ele>2446</ele>
        <time>2020-02-17T10:52:44.000Z</time>
      </trkpt>
      <trkpt lat="44.5683" lon="6.86447">
        <ele>2468</ele>
        <time>2020-02-17T10:52:53.000Z</time>
      </trkpt>
      <trkpt lat="44.56828" lon="6.86446">
        <ele>2468</ele>
        <time>2020-02-17T10:53:01.000Z</time>
      </trkpt>
      <trkpt lat="44.56827" lon="6.86444">
        <ele>2468</ele>
        <time>2020-02-17T10:53:04.000Z</time>
      </trkpt>
      <trkpt lat="44.56827" lon="6.86438">
        <ele>2467</ele>
        <time>2020-02-17T10:53:15.000Z</time>
      </trkpt>
      <trkpt lat="44.56828" lon="6.86434">
        <ele>2466</ele>
        <time>2020-02-17T10:53:21.000Z</time>
      </trkpt>
      <trkpt lat="44.56828" lon="6.86432">
        <ele>2466</ele>
        <time>2020-02-17T10:53:23.000Z</time>
      </trkpt>
      <trkpt lat="44.56828" lon="6.86429">
        <ele>2465</ele>
        <time>2020-02-17T10:53:29.000Z</time>
      </trkpt>
      <trkpt lat="44.56828" lon="6.86427">
        <ele>2465</ele>
        <time>2020-02-17T10:53:31.000Z</time>
      </trkpt>
      <trkpt lat="44.56826" lon="6.86424">
        <ele>2465</ele>
        <time>2020-02-17T10:53:33.000Z</time>
      </trkpt>
      <trkpt lat="44.56826" lon="6.86421">
        <ele>2464</ele>
        <time>2020-02-17T10:53:36.000Z</time>
      </trkpt>
      <trkpt lat="44.56826" lon="6.8642">
        <ele>2464</ele>
        <time>2020-02-17T10:53:38.000Z</time>
      </trkpt>
      <trkpt lat="44.56826" lon="6.86418">
        <ele>2463</ele>
        <time>2020-02-17T10:53:40.000Z</time>
      </trkpt>
      <trkpt lat="44.56826" lon="6.86416">
        <ele>2465</ele>
        <time>2020-02-17T10:53:43.000Z</time>
      </trkpt>
      <trkpt lat="44.56826" lon="6.86416">
        <ele>2465</ele>
        <time>2020-02-17T10:53:44.000Z</time>
      </trkpt>
      <trkpt lat="44.56828" lon="6.86413">
        <ele>2464</ele>
        <time>2020-02-17T10:53:47.000Z</time>
      </trkpt>
      <trkpt lat="44.56827" lon="6.86408">
        <ele>2467</ele>
        <time>2020-02-17T10:53:54.000Z</time>
      </trkpt>
      <trkpt lat="44.56828" lon="6.86403">
        <ele>2469</ele>
        <time>2020-02-17T10:54:01.000Z</time>
      </trkpt>
      <trkpt lat="44.56828" lon="6.86402">
        <ele>2470</ele>
        <time>2020-02-17T10:54:02.000Z</time>
      </trkpt>
      <trkpt lat="44.56832" lon="6.86399">
        <ele>2470</ele>
        <time>2020-02-17T10:54:08.000Z</time>
      </trkpt>
      <trkpt lat="44.56834" lon="6.86402">
        <ele>2456</ele>
        <time>2020-02-17T10:54:14.000Z</time>
      </trkpt>
      <trkpt lat="44.56832" lon="6.86403">
        <ele>2468</ele>
        <time>2020-02-17T10:54:24.000Z</time>
      </trkpt>
      <trkpt lat="44.56834" lon="6.86401">
        <ele>2456</ele>
        <time>2020-02-17T10:54:31.000Z</time>
      </trkpt>
      <trkpt lat="44.56836" lon="6.864">
        <ele>2456</ele>
        <time>2020-02-17T10:54:35.000Z</time>
      </trkpt>
      <trkpt lat="44.56832" lon="6.86401">
        <ele>2470</ele>
        <time>2020-02-17T10:54:42.000Z</time>
      </trkpt>
      <trkpt lat="44.56831" lon="6.86402">
        <ele>2469</ele>
        <time>2020-02-17T10:54:43.000Z</time>
      </trkpt>
      <trkpt lat="44.56831" lon="6.86405">
        <ele>2468</ele>
        <time>2020-02-17T10:54:46.000Z</time>
      </trkpt>
      <trkpt lat="44.56829" lon="6.86405">
        <ele>2468</ele>
        <time>2020-02-17T10:54:49.000Z</time>
      </trkpt>
      <trkpt lat="44.56832" lon="6.86399">
        <ele>2470</ele>
        <time>2020-02-17T10:55:01.000Z</time>
      </trkpt>
      <trkpt lat="44.56831" lon="6.86394">
        <ele>2472</ele>
        <time>2020-02-17T10:55:06.000Z</time>
      </trkpt>
      <trkpt lat="44.56832" lon="6.8639">
        <ele>2473</ele>
        <time>2020-02-17T10:55:10.000Z</time>
      </trkpt>
      <trkpt lat="44.5683" lon="6.8639">
        <ele>2473</ele>
        <time>2020-02-17T10:55:24.000Z</time>
      </trkpt>
      <trkpt lat="44.56828" lon="6.86393">
        <ele>2473</ele>
        <time>2020-02-17T10:55:28.000Z</time>
      </trkpt>
      <trkpt lat="44.56827" lon="6.86396">
        <ele>2472</ele>
        <time>2020-02-17T10:55:36.000Z</time>
      </trkpt>
      <trkpt lat="44.56827" lon="6.86396">
        <ele>2472</ele>
        <time>2020-02-17T10:55:38.000Z</time>
      </trkpt>
      <trkpt lat="44.5682" lon="6.86394">
        <ele>2474</ele>
        <time>2020-02-17T10:55:52.000Z</time>
      </trkpt>
      <trkpt lat="44.5682" lon="6.8639">
        <ele>2475</ele>
        <time>2020-02-17T10:56:01.000Z</time>
      </trkpt>
      <trkpt lat="44.5682" lon="6.86388">
        <ele>2475</ele>
        <time>2020-02-17T10:56:03.000Z</time>
      </trkpt>
      <trkpt lat="44.56821" lon="6.86387">
        <ele>2475</ele>
        <time>2020-02-17T10:56:05.000Z</time>
      </trkpt>
      <trkpt lat="44.56821" lon="6.86386">
        <ele>2476</ele>
        <time>2020-02-17T10:56:06.000Z</time>
      </trkpt>
      <trkpt lat="44.56821" lon="6.86384">
        <ele>2476</ele>
        <time>2020-02-17T10:56:08.000Z</time>
      </trkpt>
      <trkpt lat="44.56821" lon="6.86383">
        <ele>2476</ele>
        <time>2020-02-17T10:56:09.000Z</time>
      </trkpt>
      <trkpt lat="44.56822" lon="6.86381">
        <ele>2476</ele>
        <time>2020-02-17T10:56:11.000Z</time>
      </trkpt>
      <trkpt lat="44.56822" lon="6.86379">
        <ele>2476</ele>
        <time>2020-02-17T10:56:13.000Z</time>
      </trkpt>
      <trkpt lat="44.56822" lon="6.86378">
        <ele>2476</ele>
        <time>2020-02-17T10:56:14.000Z</time>
      </trkpt>
      <trkpt lat="44.56822" lon="6.86377">
        <ele>2477</ele>
        <time>2020-02-17T10:56:15.000Z</time>
      </trkpt>
      <trkpt lat="44.56823" lon="6.86374">
        <ele>2477</ele>
        <time>2020-02-17T10:56:19.000Z</time>
      </trkpt>
      <trkpt lat="44.56824" lon="6.86374">
        <ele>2477</ele>
        <time>2020-02-17T10:56:20.000Z</time>
      </trkpt>
      <trkpt lat="44.56827" lon="6.86374">
        <ele>2476</ele>
        <time>2020-02-17T10:56:26.000Z</time>
      </trkpt>
      <trkpt lat="44.56827" lon="6.86372">
        <ele>2476</ele>
        <time>2020-02-17T10:56:27.000Z</time>
      </trkpt>
      <trkpt lat="44.56827" lon="6.8637">
        <ele>2477</ele>
        <time>2020-02-17T10:56:30.000Z</time>
      </trkpt>
      <trkpt lat="44.56827" lon="6.86368">
        <ele>2477</ele>
        <time>2020-02-17T10:56:32.000Z</time>
      </trkpt>
      <trkpt lat="44.56828" lon="6.86366">
        <ele>2477</ele>
        <time>2020-02-17T10:56:40.000Z</time>
      </trkpt>
      <trkpt lat="44.56825" lon="6.86362">
        <ele>2477</ele>
        <time>2020-02-17T10:56:45.000Z</time>
      </trkpt>
      <trkpt lat="44.56823" lon="6.86359">
        <ele>2477</ele>
        <time>2020-02-17T10:56:52.000Z</time>
      </trkpt>
      <trkpt lat="44.56821" lon="6.86356">
        <ele>2477</ele>
        <time>2020-02-17T10:56:57.000Z</time>
      </trkpt>
      <trkpt lat="44.56824" lon="6.86354">
        <ele>2477</ele>
        <time>2020-02-17T10:57:07.000Z</time>
      </trkpt>
      <trkpt lat="44.56821" lon="6.86349">
        <ele>2477</ele>
        <time>2020-02-17T10:57:16.000Z</time>
      </trkpt>
      <trkpt lat="44.56819" lon="6.86347">
        <ele>2477</ele>
        <time>2020-02-17T10:57:18.000Z</time>
      </trkpt>
      <trkpt lat="44.56816" lon="6.86345">
        <ele>2477</ele>
        <time>2020-02-17T10:57:21.000Z</time>
      </trkpt>
      <trkpt lat="44.56815" lon="6.86344">
        <ele>2478</ele>
        <time>2020-02-17T10:57:23.000Z</time>
      </trkpt>
      <trkpt lat="44.56815" lon="6.86343">
        <ele>2478</ele>
        <time>2020-02-17T10:57:24.000Z</time>
      </trkpt>
      <trkpt lat="44.56815" lon="6.86342">
        <ele>2477</ele>
        <time>2020-02-17T10:57:26.000Z</time>
      </trkpt>
      <trkpt lat="44.56815" lon="6.86342">
        <ele>2477</ele>
        <time>2020-02-17T10:57:27.000Z</time>
      </trkpt>
      <trkpt lat="44.56816" lon="6.86342">
        <ele>2477</ele>
        <time>2020-02-17T10:57:29.000Z</time>
      </trkpt>
      <trkpt lat="44.56829" lon="6.86344">
        <ele>2475</ele>
        <time>2020-02-17T10:57:43.000Z</time>
      </trkpt>
      <trkpt lat="44.56826" lon="6.86343">
        <ele>2475</ele>
        <time>2020-02-17T10:57:52.000Z</time>
      </trkpt>
      <trkpt lat="44.56824" lon="6.8634">
        <ele>2475</ele>
        <time>2020-02-17T10:57:56.000Z</time>
      </trkpt>
      <trkpt lat="44.56823" lon="6.86338">
        <ele>2475</ele>
        <time>2020-02-17T10:57:58.000Z</time>
      </trkpt>
      <trkpt lat="44.56821" lon="6.86336">
        <ele>2475</ele>
        <time>2020-02-17T10:58:00.000Z</time>
      </trkpt>
      <trkpt lat="44.56821" lon="6.86335">
        <ele>2476</ele>
        <time>2020-02-17T10:58:01.000Z</time>
      </trkpt>
      <trkpt lat="44.5682" lon="6.86333">
        <ele>2480</ele>
        <time>2020-02-17T10:58:03.000Z</time>
      </trkpt>
      <trkpt lat="44.56821" lon="6.86329">
        <ele>2480</ele>
        <time>2020-02-17T10:58:08.000Z</time>
      </trkpt>
      <trkpt lat="44.56822" lon="6.86328">
        <ele>2480</ele>
        <time>2020-02-17T10:58:10.000Z</time>
      </trkpt>
      <trkpt lat="44.5682" lon="6.86327">
        <ele>2481</ele>
        <time>2020-02-17T10:58:11.000Z</time>
      </trkpt>
      <trkpt lat="44.5682" lon="6.86327">
        <ele>2481</ele>
        <time>2020-02-17T10:58:12.000Z</time>
      </trkpt>
      <trkpt lat="44.5681" lon="6.86324">
        <ele>2485</ele>
        <time>2020-02-17T10:58:18.000Z</time>
      </trkpt>
      <trkpt lat="44.56803" lon="6.86323">
        <ele>2487</ele>
        <time>2020-02-17T10:58:19.000Z</time>
      </trkpt>
      <trkpt lat="44.56798" lon="6.86322">
        <ele>2489</ele>
        <time>2020-02-17T10:58:21.000Z</time>
      </trkpt>
      <trkpt lat="44.56793" lon="6.86321">
        <ele>2490</ele>
        <time>2020-02-17T10:58:23.000Z</time>
      </trkpt>
      <trkpt lat="44.56794" lon="6.86317">
        <ele>2490</ele>
        <time>2020-02-17T10:58:30.000Z</time>
      </trkpt>
      <trkpt lat="44.56794" lon="6.86316">
        <ele>2490</ele>
        <time>2020-02-17T10:58:32.000Z</time>
      </trkpt>
      <trkpt lat="44.56793" lon="6.86315">
        <ele>2490</ele>
        <time>2020-02-17T10:58:34.000Z</time>
      </trkpt>
      <trkpt lat="44.56793" lon="6.86315">
        <ele>2490</ele>
        <time>2020-02-17T10:58:35.000Z</time>
      </trkpt>
      <trkpt lat="44.56791" lon="6.86313">
        <ele>2491</ele>
        <time>2020-02-17T10:58:40.000Z</time>
      </trkpt>
      <trkpt lat="44.5679" lon="6.86305">
        <ele>2491</ele>
        <time>2020-02-17T10:58:47.000Z</time>
      </trkpt>
      <trkpt lat="44.56792" lon="6.86303">
        <ele>2491</ele>
        <time>2020-02-17T10:58:49.000Z</time>
      </trkpt>
      <trkpt lat="44.56796" lon="6.86299">
        <ele>2491</ele>
        <time>2020-02-17T10:58:53.000Z</time>
      </trkpt>
      <trkpt lat="44.56797" lon="6.86298">
        <ele>2491</ele>
        <time>2020-02-17T10:58:54.000Z</time>
      </trkpt>
      <trkpt lat="44.56801" lon="6.86296">
        <ele>2491</ele>
        <time>2020-02-17T10:58:59.000Z</time>
      </trkpt>
      <trkpt lat="44.568" lon="6.86292">
        <ele>2492</ele>
        <time>2020-02-17T10:59:02.000Z</time>
      </trkpt>
      <trkpt lat="44.56798" lon="6.8629">
        <ele>2492</ele>
        <time>2020-02-17T10:59:05.000Z</time>
      </trkpt>
      <trkpt lat="44.56798" lon="6.86289">
        <ele>2492</ele>
        <time>2020-02-17T10:59:06.000Z</time>
      </trkpt>
      <trkpt lat="44.56796" lon="6.86289">
        <ele>2492</ele>
        <time>2020-02-17T10:59:08.000Z</time>
      </trkpt>
      <trkpt lat="44.56796" lon="6.8629">
        <ele>2492</ele>
        <time>2020-02-17T10:59:11.000Z</time>
      </trkpt>
      <trkpt lat="44.56801" lon="6.86293">
        <ele>2491</ele>
        <time>2020-02-17T10:59:25.000Z</time>
      </trkpt>
      <trkpt lat="44.56797" lon="6.8629">
        <ele>2492</ele>
        <time>2020-02-17T10:59:28.000Z</time>
      </trkpt>
      <trkpt lat="44.56796" lon="6.86292">
        <ele>2492</ele>
        <time>2020-02-17T10:59:40.000Z</time>
      </trkpt>
      <trkpt lat="44.56798" lon="6.86288">
        <ele>2492</ele>
        <time>2020-02-17T10:59:47.000Z</time>
      </trkpt>
      <trkpt lat="44.56798" lon="6.86286">
        <ele>2493</ele>
        <time>2020-02-17T10:59:48.000Z</time>
      </trkpt>
      <trkpt lat="44.56799" lon="6.86285">
        <ele>2493</ele>
        <time>2020-02-17T10:59:50.000Z</time>
      </trkpt>
      <trkpt lat="44.56799" lon="6.86282">
        <ele>2493</ele>
        <time>2020-02-17T10:59:54.000Z</time>
      </trkpt>
      <trkpt lat="44.56798" lon="6.86283">
        <ele>2493</ele>
        <time>2020-02-17T10:59:57.000Z</time>
      </trkpt>
      <trkpt lat="44.56794" lon="6.86285">
        <ele>2493</ele>
        <time>2020-02-17T11:00:11.000Z</time>
      </trkpt>
      <trkpt lat="44.56796" lon="6.86284">
        <ele>2493</ele>
        <time>2020-02-17T11:00:15.000Z</time>
      </trkpt>
      <trkpt lat="44.56796" lon="6.86284">
        <ele>2493</ele>
        <time>2020-02-17T11:00:16.000Z</time>
      </trkpt>
      <trkpt lat="44.56794" lon="6.86284">
        <ele>2493</ele>
        <time>2020-02-17T11:00:19.000Z</time>
      </trkpt>
      <trkpt lat="44.56793" lon="6.86283">
        <ele>2493</ele>
        <time>2020-02-17T11:00:22.000Z</time>
      </trkpt>
      <trkpt lat="44.5679" lon="6.8628">
        <ele>2494</ele>
        <time>2020-02-17T11:00:27.000Z</time>
      </trkpt>
      <trkpt lat="44.5679" lon="6.86279">
        <ele>2494</ele>
        <time>2020-02-17T11:00:31.000Z</time>
      </trkpt>
      <trkpt lat="44.56789" lon="6.86277">
        <ele>2494</ele>
        <time>2020-02-17T11:00:37.000Z</time>
      </trkpt>
      <trkpt lat="44.56788" lon="6.86272">
        <ele>2495</ele>
        <time>2020-02-17T11:00:44.000Z</time>
      </trkpt>
      <trkpt lat="44.56784" lon="6.86269">
        <ele>2495</ele>
        <time>2020-02-17T11:00:49.000Z</time>
      </trkpt>
      <trkpt lat="44.56775" lon="6.86265">
        <ele>2496</ele>
        <time>2020-02-17T11:00:54.000Z</time>
      </trkpt>
      <trkpt lat="44.56769" lon="6.86266">
        <ele>2497</ele>
        <time>2020-02-17T11:01:03.000Z</time>
      </trkpt>
      <trkpt lat="44.56765" lon="6.86265">
        <ele>2497</ele>
        <time>2020-02-17T11:01:12.000Z</time>
      </trkpt>
      <trkpt lat="44.56761" lon="6.86259">
        <ele>2499</ele>
        <time>2020-02-17T11:01:19.000Z</time>
      </trkpt>
      <trkpt lat="44.56759" lon="6.86259">
        <ele>2499</ele>
        <time>2020-02-17T11:01:24.000Z</time>
      </trkpt>
      <trkpt lat="44.56758" lon="6.86259">
        <ele>2499</ele>
        <time>2020-02-17T11:01:27.000Z</time>
      </trkpt>
      <trkpt lat="44.56754" lon="6.86259">
        <ele>2500</ele>
        <time>2020-02-17T11:01:33.000Z</time>
      </trkpt>
      <trkpt lat="44.56753" lon="6.86259">
        <ele>2500</ele>
        <time>2020-02-17T11:01:35.000Z</time>
      </trkpt>
      <trkpt lat="44.56752" lon="6.86262">
        <ele>2499</ele>
        <time>2020-02-17T11:01:42.000Z</time>
      </trkpt>
      <trkpt lat="44.56745" lon="6.86267">
        <ele>2506</ele>
        <time>2020-02-17T11:02:02.000Z</time>
      </trkpt>
      <trkpt lat="44.56743" lon="6.86263">
        <ele>2506</ele>
        <time>2020-02-17T11:02:05.000Z</time>
      </trkpt>
      <trkpt lat="44.56743" lon="6.86259">
        <ele>2505</ele>
        <time>2020-02-17T11:02:07.000Z</time>
      </trkpt>
      <trkpt lat="44.56743" lon="6.86256">
        <ele>2505</ele>
        <time>2020-02-17T11:02:09.000Z</time>
      </trkpt>
      <trkpt lat="44.56744" lon="6.86246">
        <ele>2506</ele>
        <time>2020-02-17T11:02:16.000Z</time>
      </trkpt>
      <trkpt lat="44.56742" lon="6.86243">
        <ele>2507</ele>
        <time>2020-02-17T11:02:23.000Z</time>
      </trkpt>
      <trkpt lat="44.56742" lon="6.86239">
        <ele>2508</ele>
        <time>2020-02-17T11:02:25.000Z</time>
      </trkpt>
      <trkpt lat="44.56741" lon="6.86234">
        <ele>2509</ele>
        <time>2020-02-17T11:02:29.000Z</time>
      </trkpt>
      <trkpt lat="44.56741" lon="6.86229">
        <ele>2510</ele>
        <time>2020-02-17T11:02:35.000Z</time>
      </trkpt>
      <trkpt lat="44.56738" lon="6.86229">
        <ele>2510</ele>
        <time>2020-02-17T11:02:41.000Z</time>
      </trkpt>
      <trkpt lat="44.5673" lon="6.86227">
        <ele>2511</ele>
        <time>2020-02-17T11:02:48.000Z</time>
      </trkpt>
      <trkpt lat="44.56724" lon="6.86224">
        <ele>2512</ele>
        <time>2020-02-17T11:02:55.000Z</time>
      </trkpt>
      <trkpt lat="44.56723" lon="6.86223">
        <ele>2512</ele>
        <time>2020-02-17T11:03:01.000Z</time>
      </trkpt>
      <trkpt lat="44.56722" lon="6.86223">
        <ele>2512</ele>
        <time>2020-02-17T11:03:19.000Z</time>
      </trkpt>
      <trkpt lat="44.56719" lon="6.86223">
        <ele>2512</ele>
        <time>2020-02-17T11:03:24.000Z</time>
      </trkpt>
      <trkpt lat="44.56716" lon="6.86223">
        <ele>2513</ele>
        <time>2020-02-17T11:03:26.000Z</time>
      </trkpt>
      <trkpt lat="44.56712" lon="6.86221">
        <ele>2513</ele>
        <time>2020-02-17T11:03:32.000Z</time>
      </trkpt>
      <trkpt lat="44.56707" lon="6.86218">
        <ele>2513</ele>
        <time>2020-02-17T11:03:39.000Z</time>
      </trkpt>
      <trkpt lat="44.56706" lon="6.86217">
        <ele>2513</ele>
        <time>2020-02-17T11:03:42.000Z</time>
      </trkpt>
      <trkpt lat="44.56704" lon="6.86217">
        <ele>2514</ele>
        <time>2020-02-17T11:03:46.000Z</time>
      </trkpt>
      <trkpt lat="44.56702" lon="6.86218">
        <ele>2514</ele>
        <time>2020-02-17T11:03:55.000Z</time>
      </trkpt>
      <trkpt lat="44.56702" lon="6.86218">
        <ele>2514</ele>
        <time>2020-02-17T11:04:00.000Z</time>
      </trkpt>
      <trkpt lat="44.56704" lon="6.86219">
        <ele>2513</ele>
        <time>2020-02-17T11:04:11.000Z</time>
      </trkpt>
      <trkpt lat="44.56705" lon="6.86216">
        <ele>2514</ele>
        <time>2020-02-17T11:04:25.000Z</time>
      </trkpt>
      <trkpt lat="44.56705" lon="6.86215">
        <ele>2514</ele>
        <time>2020-02-17T11:04:29.000Z</time>
      </trkpt>
      <trkpt lat="44.56705" lon="6.86217">
        <ele>2514</ele>
        <time>2020-02-17T11:04:31.000Z</time>
      </trkpt>
      <trkpt lat="44.56705" lon="6.86218">
        <ele>2513</ele>
        <time>2020-02-17T11:04:35.000Z</time>
      </trkpt>
      <trkpt lat="44.56705" lon="6.86218">
        <ele>2514</ele>
        <time>2020-02-17T11:04:40.000Z</time>
      </trkpt>
      <trkpt lat="44.56705" lon="6.86217">
        <ele>2514</ele>
        <time>2020-02-17T11:04:41.000Z</time>
      </trkpt>
      <trkpt lat="44.56706" lon="6.86217">
        <ele>2514</ele>
        <time>2020-02-17T11:04:48.000Z</time>
      </trkpt>
      <trkpt lat="44.56707" lon="6.86216">
        <ele>2513</ele>
        <time>2020-02-17T11:04:57.000Z</time>
      </trkpt>
      <trkpt lat="44.56707" lon="6.86218">
        <ele>2513</ele>
        <time>2020-02-17T11:05:05.000Z</time>
      </trkpt>
      <trkpt lat="44.56706" lon="6.86218">
        <ele>2513</ele>
        <time>2020-02-17T11:05:08.000Z</time>
      </trkpt>
      <trkpt lat="44.56706" lon="6.86219">
        <ele>2513</ele>
        <time>2020-02-17T11:05:12.000Z</time>
      </trkpt>
      <trkpt lat="44.56706" lon="6.86218">
        <ele>2513</ele>
        <time>2020-02-17T11:05:15.000Z</time>
      </trkpt>
      <trkpt lat="44.56706" lon="6.86218">
        <ele>2513</ele>
        <time>2020-02-17T11:05:18.000Z</time>
      </trkpt>
      <trkpt lat="44.56705" lon="6.86219">
        <ele>2513</ele>
        <time>2020-02-17T11:05:22.000Z</time>
      </trkpt>
      <trkpt lat="44.56705" lon="6.86219">
        <ele>2513</ele>
        <time>2020-02-17T11:05:32.000Z</time>
      </trkpt>
      <trkpt lat="44.56707" lon="6.8622">
        <ele>2513</ele>
        <time>2020-02-17T11:05:39.000Z</time>
      </trkpt>
      <trkpt lat="44.56706" lon="6.8622">
        <ele>2513</ele>
        <time>2020-02-17T11:05:42.000Z</time>
      </trkpt>
      <trkpt lat="44.56706" lon="6.8622">
        <ele>2513</ele>
        <time>2020-02-17T11:05:44.000Z</time>
      </trkpt>
      <trkpt lat="44.56706" lon="6.8622">
        <ele>2513</ele>
        <time>2020-02-17T11:05:48.000Z</time>
      </trkpt>
      <trkpt lat="44.56706" lon="6.86221">
        <ele>2513</ele>
        <time>2020-02-17T11:05:52.000Z</time>
      </trkpt>
      <trkpt lat="44.56706" lon="6.8622">
        <ele>2513</ele>
        <time>2020-02-17T11:05:57.000Z</time>
      </trkpt>
      <trkpt lat="44.56706" lon="6.8622">
        <ele>2513</ele>
        <time>2020-02-17T11:05:58.000Z</time>
      </trkpt>
      <trkpt lat="44.56706" lon="6.8622">
        <ele>2513</ele>
        <time>2020-02-17T11:06:00.000Z</time>
      </trkpt>
      <trkpt lat="44.56706" lon="6.86222">
        <ele>2513</ele>
        <time>2020-02-17T11:06:03.000Z</time>
      </trkpt>
      <trkpt lat="44.56706" lon="6.86214">
        <ele>2514</ele>
        <time>2020-02-17T11:06:11.000Z</time>
      </trkpt>
      <trkpt lat="44.56706" lon="6.86214">
        <ele>2514</ele>
        <time>2020-02-17T11:06:13.000Z</time>
      </trkpt>
      <trkpt lat="44.56706" lon="6.86215">
        <ele>2514</ele>
        <time>2020-02-17T11:06:17.000Z</time>
      </trkpt>
      <trkpt lat="44.56704" lon="6.86216">
        <ele>2514</ele>
        <time>2020-02-17T11:06:27.000Z</time>
      </trkpt>
      <trkpt lat="44.56704" lon="6.86217">
        <ele>2514</ele>
        <time>2020-02-17T11:06:29.000Z</time>
      </trkpt>
      <trkpt lat="44.56705" lon="6.86218">
        <ele>2513</ele>
        <time>2020-02-17T11:06:36.000Z</time>
      </trkpt>
      <trkpt lat="44.56705" lon="6.86219">
        <ele>2513</ele>
        <time>2020-02-17T11:06:38.000Z</time>
      </trkpt>
      <trkpt lat="44.56705" lon="6.86219">
        <ele>2513</ele>
        <time>2020-02-17T11:06:40.000Z</time>
      </trkpt>
      <trkpt lat="44.56706" lon="6.86221">
        <ele>2513</ele>
        <time>2020-02-17T11:06:45.000Z</time>
      </trkpt>
      <trkpt lat="44.56705" lon="6.8622">
        <ele>2513</ele>
        <time>2020-02-17T11:06:51.000Z</time>
      </trkpt>
      <trkpt lat="44.56705" lon="6.8622">
        <ele>2513</ele>
        <time>2020-02-17T11:06:54.000Z</time>
      </trkpt>
      <trkpt lat="44.56705" lon="6.8622">
        <ele>2513</ele>
        <time>2020-02-17T11:07:01.000Z</time>
      </trkpt>
      <trkpt lat="44.56706" lon="6.8622">
        <ele>2513</ele>
        <time>2020-02-17T11:07:05.000Z</time>
      </trkpt>
      <trkpt lat="44.56704" lon="6.8622">
        <ele>2513</ele>
        <time>2020-02-17T11:07:10.000Z</time>
      </trkpt>
      <trkpt lat="44.56704" lon="6.8622">
        <ele>2513</ele>
        <time>2020-02-17T11:07:13.000Z</time>
      </trkpt>
      <trkpt lat="44.56704" lon="6.8622">
        <ele>2514</ele>
        <time>2020-02-17T11:07:16.000Z</time>
      </trkpt>
      <trkpt lat="44.56704" lon="6.86219">
        <ele>2513</ele>
        <time>2020-02-17T11:07:20.000Z</time>
      </trkpt>
      <trkpt lat="44.56704" lon="6.86219">
        <ele>2514</ele>
        <time>2020-02-17T11:07:23.000Z</time>
      </trkpt>
      <trkpt lat="44.56707" lon="6.86218">
        <ele>2513</ele>
        <time>2020-02-17T11:07:28.000Z</time>
      </trkpt>
      <trkpt lat="44.56707" lon="6.86217">
        <ele>2513</ele>
        <time>2020-02-17T11:07:38.000Z</time>
      </trkpt>
      <trkpt lat="44.56704" lon="6.86216">
        <ele>2514</ele>
        <time>2020-02-17T11:07:50.000Z</time>
      </trkpt>
      <trkpt lat="44.56704" lon="6.86215">
        <ele>2514</ele>
        <time>2020-02-17T11:07:56.000Z</time>
      </trkpt>
      <trkpt lat="44.56704" lon="6.86216">
        <ele>2514</ele>
        <time>2020-02-17T11:07:57.000Z</time>
      </trkpt>
      <trkpt lat="44.56704" lon="6.86216">
        <ele>2514</ele>
        <time>2020-02-17T11:07:59.000Z</time>
      </trkpt>
      <trkpt lat="44.56704" lon="6.86217">
        <ele>2514</ele>
        <time>2020-02-17T11:08:01.000Z</time>
      </trkpt>
      <trkpt lat="44.56704" lon="6.86219">
        <ele>2514</ele>
        <time>2020-02-17T11:08:19.000Z</time>
      </trkpt>
      <trkpt lat="44.56705" lon="6.86219">
        <ele>2513</ele>
        <time>2020-02-17T11:08:21.000Z</time>
      </trkpt>
      <trkpt lat="44.56706" lon="6.86218">
        <ele>2513</ele>
        <time>2020-02-17T11:08:34.000Z</time>
      </trkpt>
      <trkpt lat="44.56705" lon="6.86219">
        <ele>2513</ele>
        <time>2020-02-17T11:08:38.000Z</time>
      </trkpt>
      <trkpt lat="44.56704" lon="6.86219">
        <ele>2514</ele>
        <time>2020-02-17T11:08:45.000Z</time>
      </trkpt>
      <trkpt lat="44.56704" lon="6.86219">
        <ele>2514</ele>
        <time>2020-02-17T11:08:49.000Z</time>
      </trkpt>
      <trkpt lat="44.56705" lon="6.86217">
        <ele>2514</ele>
        <time>2020-02-17T11:08:56.000Z</time>
      </trkpt>
      <trkpt lat="44.56704" lon="6.86216">
        <ele>2514</ele>
        <time>2020-02-17T11:09:04.000Z</time>
      </trkpt>
      <trkpt lat="44.56702" lon="6.86218">
        <ele>2514</ele>
        <time>2020-02-17T11:09:14.000Z</time>
      </trkpt>
      <trkpt lat="44.56701" lon="6.86218">
        <ele>2514</ele>
        <time>2020-02-17T11:09:18.000Z</time>
      </trkpt>
      <trkpt lat="44.56702" lon="6.86218">
        <ele>2514</ele>
        <time>2020-02-17T11:09:27.000Z</time>
      </trkpt>
      <trkpt lat="44.56701" lon="6.8622">
        <ele>2514</ele>
        <time>2020-02-17T11:09:33.000Z</time>
      </trkpt>
      <trkpt lat="44.56703" lon="6.86222">
        <ele>2513</ele>
        <time>2020-02-17T11:09:46.000Z</time>
      </trkpt>
      <trkpt lat="44.56704" lon="6.86223">
        <ele>2513</ele>
        <time>2020-02-17T11:09:49.000Z</time>
      </trkpt>
      <trkpt lat="44.56704" lon="6.86223">
        <ele>2513</ele>
        <time>2020-02-17T11:10:07.000Z</time>
      </trkpt>
      <trkpt lat="44.56704" lon="6.86223">
        <ele>2513</ele>
        <time>2020-02-17T11:10:08.000Z</time>
      </trkpt>
      <trkpt lat="44.56704" lon="6.86223">
        <ele>2513</ele>
        <time>2020-02-17T11:10:09.000Z</time>
      </trkpt>
      <trkpt lat="44.56704" lon="6.86226">
        <ele>2513</ele>
        <time>2020-02-17T11:10:12.000Z</time>
      </trkpt>
      <trkpt lat="44.56704" lon="6.86226">
        <ele>2513</ele>
        <time>2020-02-17T11:10:14.000Z</time>
      </trkpt>
      <trkpt lat="44.56703" lon="6.86227">
        <ele>2513</ele>
        <time>2020-02-17T11:10:15.000Z</time>
      </trkpt>
      <trkpt lat="44.56703" lon="6.86227">
        <ele>2513</ele>
        <time>2020-02-17T11:10:16.000Z</time>
      </trkpt>
      <trkpt lat="44.56703" lon="6.86227">
        <ele>2513</ele>
        <time>2020-02-17T11:10:17.000Z</time>
      </trkpt>
      <trkpt lat="44.56705" lon="6.86227">
        <ele>2513</ele>
        <time>2020-02-17T11:10:20.000Z</time>
      </trkpt>
      <trkpt lat="44.56706" lon="6.86225">
        <ele>2513</ele>
        <time>2020-02-17T11:10:22.000Z</time>
      </trkpt>
      <trkpt lat="44.56706" lon="6.86222">
        <ele>2513</ele>
        <time>2020-02-17T11:10:25.000Z</time>
      </trkpt>
      <trkpt lat="44.56706" lon="6.86219">
        <ele>2513</ele>
        <time>2020-02-17T11:10:29.000Z</time>
      </trkpt>
      <trkpt lat="44.56706" lon="6.86218">
        <ele>2513</ele>
        <time>2020-02-17T11:10:32.000Z</time>
      </trkpt>
      <trkpt lat="44.56705" lon="6.86218">
        <ele>2513</ele>
        <time>2020-02-17T11:10:36.000Z</time>
      </trkpt>
      <trkpt lat="44.56707" lon="6.86217">
        <ele>2513</ele>
        <time>2020-02-17T11:10:53.000Z</time>
      </trkpt>
      <trkpt lat="44.56705" lon="6.86216">
        <ele>2514</ele>
        <time>2020-02-17T11:10:57.000Z</time>
      </trkpt>
      <trkpt lat="44.56703" lon="6.86218">
        <ele>2514</ele>
        <time>2020-02-17T11:11:11.000Z</time>
      </trkpt>
      <trkpt lat="44.56703" lon="6.86218">
        <ele>2514</ele>
        <time>2020-02-17T11:11:13.000Z</time>
      </trkpt>
      <trkpt lat="44.56702" lon="6.86218">
        <ele>2514</ele>
        <time>2020-02-17T11:11:16.000Z</time>
      </trkpt>
      <trkpt lat="44.56701" lon="6.86219">
        <ele>2514</ele>
        <time>2020-02-17T11:11:20.000Z</time>
      </trkpt>
      <trkpt lat="44.56701" lon="6.86219">
        <ele>2514</ele>
        <time>2020-02-17T11:11:23.000Z</time>
      </trkpt>
      <trkpt lat="44.56703" lon="6.86214">
        <ele>2514</ele>
        <time>2020-02-17T11:11:37.000Z</time>
      </trkpt>
      <trkpt lat="44.56704" lon="6.86215">
        <ele>2514</ele>
        <time>2020-02-17T11:11:41.000Z</time>
      </trkpt>
      <trkpt lat="44.56705" lon="6.86217">
        <ele>2514</ele>
        <time>2020-02-17T11:11:46.000Z</time>
      </trkpt>
      <trkpt lat="44.56705" lon="6.86218">
        <ele>2514</ele>
        <time>2020-02-17T11:11:54.000Z</time>
      </trkpt>
      <trkpt lat="44.56705" lon="6.86218">
        <ele>2514</ele>
        <time>2020-02-17T11:11:56.000Z</time>
      </trkpt>
      <trkpt lat="44.56705" lon="6.86218">
        <ele>2514</ele>
        <time>2020-02-17T11:11:59.000Z</time>
      </trkpt>
      <trkpt lat="44.56703" lon="6.86221">
        <ele>2513</ele>
        <time>2020-02-17T11:12:11.000Z</time>
      </trkpt>
      <trkpt lat="44.56704" lon="6.86221">
        <ele>2513</ele>
        <time>2020-02-17T11:12:13.000Z</time>
      </trkpt>
      <trkpt lat="44.56704" lon="6.86221">
        <ele>2513</ele>
        <time>2020-02-17T11:12:17.000Z</time>
      </trkpt>
      <trkpt lat="44.56703" lon="6.86221">
        <ele>2513</ele>
        <time>2020-02-17T11:12:21.000Z</time>
      </trkpt>
      <trkpt lat="44.56703" lon="6.86221">
        <ele>2514</ele>
        <time>2020-02-17T11:12:23.000Z</time>
      </trkpt>
      <trkpt lat="44.56702" lon="6.86218">
        <ele>2514</ele>
        <time>2020-02-17T11:12:31.000Z</time>
      </trkpt>
      <trkpt lat="44.56702" lon="6.86218">
        <ele>2514</ele>
        <time>2020-02-17T11:12:32.000Z</time>
      </trkpt>
      <trkpt lat="44.56702" lon="6.86218">
        <ele>2514</ele>
        <time>2020-02-17T11:12:33.000Z</time>
      </trkpt>
      <trkpt lat="44.56702" lon="6.86218">
        <ele>2514</ele>
        <time>2020-02-17T11:12:34.000Z</time>
      </trkpt>
      <trkpt lat="44.56702" lon="6.86218">
        <ele>2514</ele>
        <time>2020-02-17T11:12:35.000Z</time>
      </trkpt>
      <trkpt lat="44.56702" lon="6.86218">
        <ele>2514</ele>
        <time>2020-02-17T11:12:36.000Z</time>
      </trkpt>
      <trkpt lat="44.56703" lon="6.86218">
        <ele>2514</ele>
        <time>2020-02-17T11:12:38.000Z</time>
      </trkpt>
      <trkpt lat="44.56703" lon="6.86218">
        <ele>2514</ele>
        <time>2020-02-17T11:12:41.000Z</time>
      </trkpt>
      <trkpt lat="44.56703" lon="6.86219">
        <ele>2514</ele>
        <time>2020-02-17T11:12:48.000Z</time>
      </trkpt>
      <trkpt lat="44.56702" lon="6.86218">
        <ele>2514</ele>
        <time>2020-02-17T11:12:56.000Z</time>
      </trkpt>
      <trkpt lat="44.567" lon="6.86217">
        <ele>2514</ele>
        <time>2020-02-17T11:12:58.000Z</time>
      </trkpt>
      <trkpt lat="44.56699" lon="6.86217">
        <ele>2514</ele>
        <time>2020-02-17T11:13:00.000Z</time>
      </trkpt>
      <trkpt lat="44.56702" lon="6.86217">
        <ele>2514</ele>
        <time>2020-02-17T11:13:10.000Z</time>
      </trkpt>
      <trkpt lat="44.56705" lon="6.86216">
        <ele>2514</ele>
        <time>2020-02-17T11:13:19.000Z</time>
      </trkpt>
      <trkpt lat="44.56705" lon="6.86219">
        <ele>2513</ele>
        <time>2020-02-17T11:13:37.000Z</time>
      </trkpt>
      <trkpt lat="44.56705" lon="6.86218">
        <ele>2514</ele>
        <time>2020-02-17T11:13:38.000Z</time>
      </trkpt>
      <trkpt lat="44.56704" lon="6.86217">
        <ele>2514</ele>
        <time>2020-02-17T11:14:00.000Z</time>
      </trkpt>
      <trkpt lat="44.567" lon="6.86216">
        <ele>2514</ele>
        <time>2020-02-17T11:14:06.000Z</time>
      </trkpt>
      <trkpt lat="44.567" lon="6.86216">
        <ele>2514</ele>
        <time>2020-02-17T11:14:09.000Z</time>
      </trkpt>
      <trkpt lat="44.567" lon="6.86214">
        <ele>2514</ele>
        <time>2020-02-17T11:14:11.000Z</time>
      </trkpt>
      <trkpt lat="44.56698" lon="6.86215">
        <ele>2514</ele>
        <time>2020-02-17T11:14:38.000Z</time>
      </trkpt>
      <trkpt lat="44.56697" lon="6.86213">
        <ele>2514</ele>
        <time>2020-02-17T11:14:41.000Z</time>
      </trkpt>
      <trkpt lat="44.56697" lon="6.86213">
        <ele>2514</ele>
        <time>2020-02-17T11:14:48.000Z</time>
      </trkpt>
      <trkpt lat="44.56697" lon="6.86213">
        <ele>2514</ele>
        <time>2020-02-17T11:14:49.000Z</time>
      </trkpt>
      <trkpt lat="44.56697" lon="6.86212">
        <ele>2514</ele>
        <time>2020-02-17T11:14:55.000Z</time>
      </trkpt>
      <trkpt lat="44.56698" lon="6.86211">
        <ele>2514</ele>
        <time>2020-02-17T11:15:01.000Z</time>
      </trkpt>
      <trkpt lat="44.56698" lon="6.86215">
        <ele>2514</ele>
        <time>2020-02-17T11:15:23.000Z</time>
      </trkpt>
      <trkpt lat="44.56693" lon="6.86212">
        <ele>2514</ele>
        <time>2020-02-17T11:15:33.000Z</time>
      </trkpt>
      <trkpt lat="44.56694" lon="6.86214">
        <ele>2514</ele>
        <time>2020-02-17T11:15:37.000Z</time>
      </trkpt>
      <trkpt lat="44.56694" lon="6.86215">
        <ele>2514</ele>
        <time>2020-02-17T11:15:39.000Z</time>
      </trkpt>
      <trkpt lat="44.56695" lon="6.86217">
        <ele>2514</ele>
        <time>2020-02-17T11:15:43.000Z</time>
      </trkpt>
      <trkpt lat="44.56696" lon="6.86217">
        <ele>2514</ele>
        <time>2020-02-17T11:15:44.000Z</time>
      </trkpt>
      <trkpt lat="44.567" lon="6.86218">
        <ele>2514</ele>
        <time>2020-02-17T11:15:55.000Z</time>
      </trkpt>
      <trkpt lat="44.56698" lon="6.86218">
        <ele>2514</ele>
        <time>2020-02-17T11:15:59.000Z</time>
      </trkpt>
      <trkpt lat="44.56696" lon="6.86217">
        <ele>2514</ele>
        <time>2020-02-17T11:16:02.000Z</time>
      </trkpt>
      <trkpt lat="44.56695" lon="6.86216">
        <ele>2514</ele>
        <time>2020-02-17T11:16:04.000Z</time>
      </trkpt>
      <trkpt lat="44.56697" lon="6.86216">
        <ele>2514</ele>
        <time>2020-02-17T11:16:07.000Z</time>
      </trkpt>
      <trkpt lat="44.56699" lon="6.86216">
        <ele>2514</ele>
        <time>2020-02-17T11:16:08.000Z</time>
      </trkpt>
      <trkpt lat="44.56702" lon="6.86217">
        <ele>2514</ele>
        <time>2020-02-17T11:16:12.000Z</time>
      </trkpt>
      <trkpt lat="44.567" lon="6.86216">
        <ele>2514</ele>
        <time>2020-02-17T11:16:15.000Z</time>
      </trkpt>
      <trkpt lat="44.56688" lon="6.86216">
        <ele>2514</ele>
        <time>2020-02-17T11:16:34.000Z</time>
      </trkpt>
      <trkpt lat="44.56685" lon="6.86216">
        <ele>2514</ele>
        <time>2020-02-17T11:16:38.000Z</time>
      </trkpt>
      <trkpt lat="44.56684" lon="6.86216">
        <ele>2514</ele>
        <time>2020-02-17T11:16:40.000Z</time>
      </trkpt>
      <trkpt lat="44.56681" lon="6.86217">
        <ele>2515</ele>
        <time>2020-02-17T11:16:43.000Z</time>
      </trkpt>
      <trkpt lat="44.5668" lon="6.86217">
        <ele>2515</ele>
        <time>2020-02-17T11:16:45.000Z</time>
      </trkpt>
      <trkpt lat="44.56678" lon="6.86217">
        <ele>2515</ele>
        <time>2020-02-17T11:16:48.000Z</time>
      </trkpt>
      <trkpt lat="44.5667" lon="6.86216">
        <ele>2515</ele>
        <time>2020-02-17T11:16:57.000Z</time>
      </trkpt>
      <trkpt lat="44.5667" lon="6.86216">
        <ele>2515</ele>
        <time>2020-02-17T11:16:58.000Z</time>
      </trkpt>
      <trkpt lat="44.56662" lon="6.86215">
        <ele>2520</ele>
        <time>2020-02-17T11:17:08.000Z</time>
      </trkpt>
      <trkpt lat="44.56662" lon="6.86215">
        <ele>2520</ele>
        <time>2020-02-17T11:17:10.000Z</time>
      </trkpt>
      <trkpt lat="44.56659" lon="6.86216">
        <ele>2520</ele>
        <time>2020-02-17T11:17:17.000Z</time>
      </trkpt>
      <trkpt lat="44.56655" lon="6.86216">
        <ele>2521</ele>
        <time>2020-02-17T11:17:23.000Z</time>
      </trkpt>
      <trkpt lat="44.5665" lon="6.86214">
        <ele>2521</ele>
        <time>2020-02-17T11:17:32.000Z</time>
      </trkpt>
      <trkpt lat="44.56647" lon="6.86214">
        <ele>2521</ele>
        <time>2020-02-17T11:17:35.000Z</time>
      </trkpt>
      <trkpt lat="44.56633" lon="6.86213">
        <ele>2522</ele>
        <time>2020-02-17T11:17:53.000Z</time>
      </trkpt>
      <trkpt lat="44.56628" lon="6.86214">
        <ele>2522</ele>
        <time>2020-02-17T11:18:00.000Z</time>
      </trkpt>
      <trkpt lat="44.56624" lon="6.86215">
        <ele>2523</ele>
        <time>2020-02-17T11:18:06.000Z</time>
      </trkpt>
      <trkpt lat="44.5662" lon="6.86215">
        <ele>2523</ele>
        <time>2020-02-17T11:18:11.000Z</time>
      </trkpt>
      <trkpt lat="44.56618" lon="6.86215">
        <ele>2523</ele>
        <time>2020-02-17T11:18:14.000Z</time>
      </trkpt>
      <trkpt lat="44.56617" lon="6.86215">
        <ele>2523</ele>
        <time>2020-02-17T11:18:17.000Z</time>
      </trkpt>
      <trkpt lat="44.56614" lon="6.86215">
        <ele>2523</ele>
        <time>2020-02-17T11:18:19.000Z</time>
      </trkpt>
      <trkpt lat="44.56612" lon="6.86215">
        <ele>2523</ele>
        <time>2020-02-17T11:18:21.000Z</time>
      </trkpt>
      <trkpt lat="44.56609" lon="6.86215">
        <ele>2524</ele>
        <time>2020-02-17T11:18:24.000Z</time>
      </trkpt>
      <trkpt lat="44.56608" lon="6.86215">
        <ele>2524</ele>
        <time>2020-02-17T11:18:26.000Z</time>
      </trkpt>
      <trkpt lat="44.56589" lon="6.86221">
        <ele>2525</ele>
        <time>2020-02-17T11:18:52.000Z</time>
      </trkpt>
      <trkpt lat="44.56588" lon="6.86222">
        <ele>2525</ele>
        <time>2020-02-17T11:18:54.000Z</time>
      </trkpt>
      <trkpt lat="44.56578" lon="6.86223">
        <ele>2532</ele>
        <time>2020-02-17T11:19:06.000Z</time>
      </trkpt>
      <trkpt lat="44.56572" lon="6.86222">
        <ele>2533</ele>
        <time>2020-02-17T11:19:17.000Z</time>
      </trkpt>
      <trkpt lat="44.56568" lon="6.86221">
        <ele>2533</ele>
        <time>2020-02-17T11:19:21.000Z</time>
      </trkpt>
      <trkpt lat="44.56567" lon="6.86222">
        <ele>2533</ele>
        <time>2020-02-17T11:19:24.000Z</time>
      </trkpt>
      <trkpt lat="44.56567" lon="6.86223">
        <ele>2533</ele>
        <time>2020-02-17T11:19:26.000Z</time>
      </trkpt>
      <trkpt lat="44.56567" lon="6.86223">
        <ele>2533</ele>
        <time>2020-02-17T11:19:32.000Z</time>
      </trkpt>
      <trkpt lat="44.56567" lon="6.86223">
        <ele>2533</ele>
        <time>2020-02-17T11:19:36.000Z</time>
      </trkpt>
      <trkpt lat="44.56563" lon="6.86221">
        <ele>2533</ele>
        <time>2020-02-17T11:19:40.000Z</time>
      </trkpt>
      <trkpt lat="44.56562" lon="6.8622">
        <ele>2533</ele>
        <time>2020-02-17T11:19:41.000Z</time>
      </trkpt>
      <trkpt lat="44.56562" lon="6.86219">
        <ele>2533</ele>
        <time>2020-02-17T11:19:43.000Z</time>
      </trkpt>
      <trkpt lat="44.56564" lon="6.86219">
        <ele>2533</ele>
        <time>2020-02-17T11:19:48.000Z</time>
      </trkpt>
      <trkpt lat="44.56564" lon="6.86219">
        <ele>2533</ele>
        <time>2020-02-17T11:19:50.000Z</time>
      </trkpt>
      <trkpt lat="44.56562" lon="6.86218">
        <ele>2534</ele>
        <time>2020-02-17T11:19:55.000Z</time>
      </trkpt>
      <trkpt lat="44.56561" lon="6.86217">
        <ele>2534</ele>
        <time>2020-02-17T11:19:58.000Z</time>
      </trkpt>
      <trkpt lat="44.56559" lon="6.86217">
        <ele>2534</ele>
        <time>2020-02-17T11:20:00.000Z</time>
      </trkpt>
      <trkpt lat="44.56549" lon="6.8622">
        <ele>2534</ele>
        <time>2020-02-17T11:20:17.000Z</time>
      </trkpt>
      <trkpt lat="44.56539" lon="6.86224">
        <ele>2535</ele>
        <time>2020-02-17T11:20:38.000Z</time>
      </trkpt>
      <trkpt lat="44.56535" lon="6.86222">
        <ele>2535</ele>
        <time>2020-02-17T11:20:44.000Z</time>
      </trkpt>
      <trkpt lat="44.56533" lon="6.86222">
        <ele>2535</ele>
        <time>2020-02-17T11:20:45.000Z</time>
      </trkpt>
      <trkpt lat="44.56528" lon="6.86218">
        <ele>2536</ele>
        <time>2020-02-17T11:20:55.000Z</time>
      </trkpt>
      <trkpt lat="44.56526" lon="6.86215">
        <ele>2536</ele>
        <time>2020-02-17T11:20:57.000Z</time>
      </trkpt>
      <trkpt lat="44.56525" lon="6.86215">
        <ele>2536</ele>
        <time>2020-02-17T11:21:02.000Z</time>
      </trkpt>
      <trkpt lat="44.56529" lon="6.8621">
        <ele>2536</ele>
        <time>2020-02-17T11:21:26.000Z</time>
      </trkpt>
      <trkpt lat="44.56531" lon="6.86206">
        <ele>2537</ele>
        <time>2020-02-17T11:21:32.000Z</time>
      </trkpt>
      <trkpt lat="44.56533" lon="6.86204">
        <ele>2537</ele>
        <time>2020-02-17T11:21:38.000Z</time>
      </trkpt>
      <trkpt lat="44.56533" lon="6.86205">
        <ele>2536</ele>
        <time>2020-02-17T11:21:39.000Z</time>
      </trkpt>
      <trkpt lat="44.56534" lon="6.86228">
        <ele>2535</ele>
        <time>2020-02-17T11:21:52.000Z</time>
      </trkpt>
      <trkpt lat="44.56527" lon="6.86228">
        <ele>2535</ele>
        <time>2020-02-17T11:22:10.000Z</time>
      </trkpt>
      <trkpt lat="44.56527" lon="6.86224">
        <ele>2536</ele>
        <time>2020-02-17T11:22:17.000Z</time>
      </trkpt>
      <trkpt lat="44.56526" lon="6.86219">
        <ele>2536</ele>
        <time>2020-02-17T11:22:23.000Z</time>
      </trkpt>
      <trkpt lat="44.56526" lon="6.86217">
        <ele>2536</ele>
        <time>2020-02-17T11:22:25.000Z</time>
      </trkpt>
      <trkpt lat="44.56526" lon="6.86215">
        <ele>2536</ele>
        <time>2020-02-17T11:22:28.000Z</time>
      </trkpt>
      <trkpt lat="44.56526" lon="6.86214">
        <ele>2536</ele>
        <time>2020-02-17T11:22:30.000Z</time>
      </trkpt>
      <trkpt lat="44.56527" lon="6.86213">
        <ele>2536</ele>
        <time>2020-02-17T11:22:31.000Z</time>
      </trkpt>
      <trkpt lat="44.56527" lon="6.86212">
        <ele>2536</ele>
        <time>2020-02-17T11:22:36.000Z</time>
      </trkpt>
      <trkpt lat="44.56527" lon="6.86211">
        <ele>2536</ele>
        <time>2020-02-17T11:22:39.000Z</time>
      </trkpt>
      <trkpt lat="44.56525" lon="6.8621">
        <ele>2537</ele>
        <time>2020-02-17T11:22:45.000Z</time>
      </trkpt>
      <trkpt lat="44.56523" lon="6.86212">
        <ele>2537</ele>
        <time>2020-02-17T11:22:48.000Z</time>
      </trkpt>
      <trkpt lat="44.56521" lon="6.86214">
        <ele>2537</ele>
        <time>2020-02-17T11:22:50.000Z</time>
      </trkpt>
      <trkpt lat="44.56521" lon="6.86215">
        <ele>2537</ele>
        <time>2020-02-17T11:22:51.000Z</time>
      </trkpt>
      <trkpt lat="44.56521" lon="6.86215">
        <ele>2537</ele>
        <time>2020-02-17T11:22:52.000Z</time>
      </trkpt>
      <trkpt lat="44.56522" lon="6.86216">
        <ele>2536</ele>
        <time>2020-02-17T11:22:56.000Z</time>
      </trkpt>
      <trkpt lat="44.56522" lon="6.86216">
        <ele>2536</ele>
        <time>2020-02-17T11:22:57.000Z</time>
      </trkpt>
      <trkpt lat="44.5652" lon="6.86214">
        <ele>2537</ele>
        <time>2020-02-17T11:22:59.000Z</time>
      </trkpt>
      <trkpt lat="44.56518" lon="6.86214">
        <ele>2537</ele>
        <time>2020-02-17T11:23:01.000Z</time>
      </trkpt>
      <trkpt lat="44.56519" lon="6.8621">
        <ele>2537</ele>
        <time>2020-02-17T11:23:07.000Z</time>
      </trkpt>
      <trkpt lat="44.5652" lon="6.86206">
        <ele>2537</ele>
        <time>2020-02-17T11:23:13.000Z</time>
      </trkpt>
      <trkpt lat="44.56518" lon="6.86208">
        <ele>2537</ele>
        <time>2020-02-17T11:23:17.000Z</time>
      </trkpt>
      <trkpt lat="44.56517" lon="6.86209">
        <ele>2537</ele>
        <time>2020-02-17T11:23:19.000Z</time>
      </trkpt>
      <trkpt lat="44.56514" lon="6.86214">
        <ele>2537</ele>
        <time>2020-02-17T11:23:23.000Z</time>
      </trkpt>
      <trkpt lat="44.56512" lon="6.86214">
        <ele>2537</ele>
        <time>2020-02-17T11:23:27.000Z</time>
      </trkpt>
      <trkpt lat="44.56507" lon="6.86219">
        <ele>2537</ele>
        <time>2020-02-17T11:23:35.000Z</time>
      </trkpt>
      <trkpt lat="44.56503" lon="6.86224">
        <ele>2537</ele>
        <time>2020-02-17T11:23:39.000Z</time>
      </trkpt>
      <trkpt lat="44.56501" lon="6.86222">
        <ele>2537</ele>
        <time>2020-02-17T11:23:42.000Z</time>
      </trkpt>
      <trkpt lat="44.56492" lon="6.86219">
        <ele>2542</ele>
        <time>2020-02-17T11:23:56.000Z</time>
      </trkpt>
      <trkpt lat="44.56486" lon="6.86217">
        <ele>2543</ele>
        <time>2020-02-17T11:24:05.000Z</time>
      </trkpt>
      <trkpt lat="44.56484" lon="6.86216">
        <ele>2543</ele>
        <time>2020-02-17T11:24:08.000Z</time>
      </trkpt>
      <trkpt lat="44.56481" lon="6.86216">
        <ele>2543</ele>
        <time>2020-02-17T11:24:15.000Z</time>
      </trkpt>
      <trkpt lat="44.56478" lon="6.86215">
        <ele>2543</ele>
        <time>2020-02-17T11:24:20.000Z</time>
      </trkpt>
      <trkpt lat="44.56469" lon="6.86218">
        <ele>2543</ele>
        <time>2020-02-17T11:24:30.000Z</time>
      </trkpt>
      <trkpt lat="44.56465" lon="6.86216">
        <ele>2544</ele>
        <time>2020-02-17T11:24:35.000Z</time>
      </trkpt>
      <trkpt lat="44.56461" lon="6.86212">
        <ele>2544</ele>
        <time>2020-02-17T11:24:44.000Z</time>
      </trkpt>
      <trkpt lat="44.56457" lon="6.86209">
        <ele>2544</ele>
        <time>2020-02-17T11:24:53.000Z</time>
      </trkpt>
      <trkpt lat="44.56455" lon="6.86207">
        <ele>2545</ele>
        <time>2020-02-17T11:25:04.000Z</time>
      </trkpt>
      <trkpt lat="44.5645" lon="6.86206">
        <ele>2545</ele>
        <time>2020-02-17T11:25:11.000Z</time>
      </trkpt>
      <trkpt lat="44.56445" lon="6.86206">
        <ele>2545</ele>
        <time>2020-02-17T11:25:17.000Z</time>
      </trkpt>
      <trkpt lat="44.56444" lon="6.86206">
        <ele>2545</ele>
        <time>2020-02-17T11:25:19.000Z</time>
      </trkpt>
      <trkpt lat="44.56444" lon="6.86206">
        <ele>2545</ele>
        <time>2020-02-17T11:25:20.000Z</time>
      </trkpt>
      <trkpt lat="44.56443" lon="6.86205">
        <ele>2545</ele>
        <time>2020-02-17T11:25:21.000Z</time>
      </trkpt>
      <trkpt lat="44.56443" lon="6.86205">
        <ele>2545</ele>
        <time>2020-02-17T11:25:22.000Z</time>
      </trkpt>
      <trkpt lat="44.56439" lon="6.86204">
        <ele>2545</ele>
        <time>2020-02-17T11:25:28.000Z</time>
      </trkpt>
      <trkpt lat="44.56436" lon="6.86202">
        <ele>2546</ele>
        <time>2020-02-17T11:25:36.000Z</time>
      </trkpt>
      <trkpt lat="44.56434" lon="6.86202">
        <ele>2546</ele>
        <time>2020-02-17T11:25:41.000Z</time>
      </trkpt>
      <trkpt lat="44.56433" lon="6.86201">
        <ele>2546</ele>
        <time>2020-02-17T11:25:44.000Z</time>
      </trkpt>
      <trkpt lat="44.5643" lon="6.862">
        <ele>2546</ele>
        <time>2020-02-17T11:25:57.000Z</time>
      </trkpt>
      <trkpt lat="44.56422" lon="6.86195">
        <ele>2547</ele>
        <time>2020-02-17T11:26:22.000Z</time>
      </trkpt>
      <trkpt lat="44.56422" lon="6.86195">
        <ele>2547</ele>
        <time>2020-02-17T11:26:28.000Z</time>
      </trkpt>
      <trkpt lat="44.56422" lon="6.86195">
        <ele>2547</ele>
        <time>2020-02-17T11:26:30.000Z</time>
      </trkpt>
      <trkpt lat="44.56421" lon="6.86195">
        <ele>2547</ele>
        <time>2020-02-17T11:26:31.000Z</time>
      </trkpt>
      <trkpt lat="44.56419" lon="6.86194">
        <ele>2547</ele>
        <time>2020-02-17T11:26:34.000Z</time>
      </trkpt>
      <trkpt lat="44.56418" lon="6.86194">
        <ele>2547</ele>
        <time>2020-02-17T11:26:36.000Z</time>
      </trkpt>
      <trkpt lat="44.56417" lon="6.86193">
        <ele>2548</ele>
        <time>2020-02-17T11:26:38.000Z</time>
      </trkpt>
      <trkpt lat="44.56416" lon="6.86193">
        <ele>2549</ele>
        <time>2020-02-17T11:26:40.000Z</time>
      </trkpt>
      <trkpt lat="44.56415" lon="6.86192">
        <ele>2549</ele>
        <time>2020-02-17T11:26:42.000Z</time>
      </trkpt>
      <trkpt lat="44.56408" lon="6.86188">
        <ele>2549</ele>
        <time>2020-02-17T11:26:54.000Z</time>
      </trkpt>
      <trkpt lat="44.56402" lon="6.86186">
        <ele>2549</ele>
        <time>2020-02-17T11:27:02.000Z</time>
      </trkpt>
      <trkpt lat="44.56397" lon="6.86186">
        <ele>2549</ele>
        <time>2020-02-17T11:27:11.000Z</time>
      </trkpt>
      <trkpt lat="44.56396" lon="6.86186">
        <ele>2549</ele>
        <time>2020-02-17T11:27:12.000Z</time>
      </trkpt>
      <trkpt lat="44.56389" lon="6.86185">
        <ele>2548</ele>
        <time>2020-02-17T11:27:23.000Z</time>
      </trkpt>
      <trkpt lat="44.56388" lon="6.86184">
        <ele>2549</ele>
        <time>2020-02-17T11:27:31.000Z</time>
      </trkpt>
      <trkpt lat="44.56382" lon="6.86183">
        <ele>2548</ele>
        <time>2020-02-17T11:27:44.000Z</time>
      </trkpt>
      <trkpt lat="44.56376" lon="6.86179">
        <ele>2548</ele>
        <time>2020-02-17T11:27:52.000Z</time>
      </trkpt>
      <trkpt lat="44.56375" lon="6.86179">
        <ele>2549</ele>
        <time>2020-02-17T11:27:54.000Z</time>
      </trkpt>
      <trkpt lat="44.5637" lon="6.86177">
        <ele>2549</ele>
        <time>2020-02-17T11:28:04.000Z</time>
      </trkpt>
      <trkpt lat="44.56362" lon="6.8617">
        <ele>2549</ele>
        <time>2020-02-17T11:28:15.000Z</time>
      </trkpt>
      <trkpt lat="44.56353" lon="6.86164">
        <ele>2553</ele>
        <time>2020-02-17T11:28:31.000Z</time>
      </trkpt>
      <trkpt lat="44.56349" lon="6.86162">
        <ele>2553</ele>
        <time>2020-02-17T11:28:41.000Z</time>
      </trkpt>
      <trkpt lat="44.56337" lon="6.86157">
        <ele>2553</ele>
        <time>2020-02-17T11:28:51.000Z</time>
      </trkpt>
      <trkpt lat="44.56335" lon="6.86156">
        <ele>2553</ele>
        <time>2020-02-17T11:28:53.000Z</time>
      </trkpt>
      <trkpt lat="44.56331" lon="6.86151">
        <ele>2552</ele>
        <time>2020-02-17T11:29:00.000Z</time>
      </trkpt>
      <trkpt lat="44.56329" lon="6.86149">
        <ele>2552</ele>
        <time>2020-02-17T11:29:05.000Z</time>
      </trkpt>
      <trkpt lat="44.5633" lon="6.86149">
        <ele>2552</ele>
        <time>2020-02-17T11:29:12.000Z</time>
      </trkpt>
      <trkpt lat="44.56336" lon="6.8615">
        <ele>2553</ele>
        <time>2020-02-17T11:29:25.000Z</time>
      </trkpt>
      <trkpt lat="44.56338" lon="6.8615">
        <ele>2553</ele>
        <time>2020-02-17T11:29:30.000Z</time>
      </trkpt>
      <trkpt lat="44.56338" lon="6.8615">
        <ele>2553</ele>
        <time>2020-02-17T11:29:33.000Z</time>
      </trkpt>
      <trkpt lat="44.56337" lon="6.8615">
        <ele>2553</ele>
        <time>2020-02-17T11:29:36.000Z</time>
      </trkpt>
      <trkpt lat="44.56336" lon="6.86149">
        <ele>2553</ele>
        <time>2020-02-17T11:29:46.000Z</time>
      </trkpt>
      <trkpt lat="44.56333" lon="6.86146">
        <ele>2552</ele>
        <time>2020-02-17T11:29:52.000Z</time>
      </trkpt>
      <trkpt lat="44.56326" lon="6.86137">
        <ele>2551</ele>
        <time>2020-02-17T11:30:03.000Z</time>
      </trkpt>
      <trkpt lat="44.56326" lon="6.86137">
        <ele>2551</ele>
        <time>2020-02-17T11:30:04.000Z</time>
      </trkpt>
      <trkpt lat="44.56326" lon="6.86136">
        <ele>2551</ele>
        <time>2020-02-17T11:30:05.000Z</time>
      </trkpt>
      <trkpt lat="44.56326" lon="6.86136">
        <ele>2551</ele>
        <time>2020-02-17T11:30:06.000Z</time>
      </trkpt>
      <trkpt lat="44.56325" lon="6.86133">
        <ele>2551</ele>
        <time>2020-02-17T11:30:09.000Z</time>
      </trkpt>
      <trkpt lat="44.56325" lon="6.86133">
        <ele>2551</ele>
        <time>2020-02-17T11:30:10.000Z</time>
      </trkpt>
      <trkpt lat="44.56331" lon="6.86133">
        <ele>2551</ele>
        <time>2020-02-17T11:30:17.000Z</time>
      </trkpt>
      <trkpt lat="44.56336" lon="6.86131">
        <ele>2553</ele>
        <time>2020-02-17T11:30:22.000Z</time>
      </trkpt>
      <trkpt lat="44.56337" lon="6.86131">
        <ele>2553</ele>
        <time>2020-02-17T11:30:23.000Z</time>
      </trkpt>
      <trkpt lat="44.56337" lon="6.8613">
        <ele>2553</ele>
        <time>2020-02-17T11:30:24.000Z</time>
      </trkpt>
      <trkpt lat="44.56338" lon="6.86128">
        <ele>2553</ele>
        <time>2020-02-17T11:30:29.000Z</time>
      </trkpt>
      <trkpt lat="44.5634" lon="6.86125">
        <ele>2553</ele>
        <time>2020-02-17T11:30:34.000Z</time>
      </trkpt>
      <trkpt lat="44.56342" lon="6.86123">
        <ele>2553</ele>
        <time>2020-02-17T11:30:41.000Z</time>
      </trkpt>
      <trkpt lat="44.56344" lon="6.86124">
        <ele>2553</ele>
        <time>2020-02-17T11:30:48.000Z</time>
      </trkpt>
      <trkpt lat="44.56348" lon="6.86125">
        <ele>2553</ele>
        <time>2020-02-17T11:31:00.000Z</time>
      </trkpt>
      <trkpt lat="44.56349" lon="6.86123">
        <ele>2553</ele>
        <time>2020-02-17T11:31:06.000Z</time>
      </trkpt>
      <trkpt lat="44.56349" lon="6.86122">
        <ele>2553</ele>
        <time>2020-02-17T11:31:07.000Z</time>
      </trkpt>
      <trkpt lat="44.56348" lon="6.86121">
        <ele>2553</ele>
        <time>2020-02-17T11:31:09.000Z</time>
      </trkpt>
      <trkpt lat="44.56346" lon="6.86117">
        <ele>2553</ele>
        <time>2020-02-17T11:31:13.000Z</time>
      </trkpt>
      <trkpt lat="44.56343" lon="6.86115">
        <ele>2553</ele>
        <time>2020-02-17T11:31:16.000Z</time>
      </trkpt>
      <trkpt lat="44.56342" lon="6.86113">
        <ele>2553</ele>
        <time>2020-02-17T11:31:19.000Z</time>
      </trkpt>
      <trkpt lat="44.5634" lon="6.86108">
        <ele>2553</ele>
        <time>2020-02-17T11:31:24.000Z</time>
      </trkpt>
      <trkpt lat="44.56344" lon="6.86106">
        <ele>2553</ele>
        <time>2020-02-17T11:31:44.000Z</time>
      </trkpt>
      <trkpt lat="44.56349" lon="6.86105">
        <ele>2553</ele>
        <time>2020-02-17T11:31:56.000Z</time>
      </trkpt>
      <trkpt lat="44.56351" lon="6.86105">
        <ele>2553</ele>
        <time>2020-02-17T11:32:05.000Z</time>
      </trkpt>
      <trkpt lat="44.56355" lon="6.86105">
        <ele>2553</ele>
        <time>2020-02-17T11:32:13.000Z</time>
      </trkpt>
      <trkpt lat="44.56356" lon="6.86104">
        <ele>2553</ele>
        <time>2020-02-17T11:32:17.000Z</time>
      </trkpt>
      <trkpt lat="44.56356" lon="6.86104">
        <ele>2553</ele>
        <time>2020-02-17T11:32:20.000Z</time>
      </trkpt>
      <trkpt lat="44.56357" lon="6.86104">
        <ele>2553</ele>
        <time>2020-02-17T11:32:23.000Z</time>
      </trkpt>
      <trkpt lat="44.56355" lon="6.86098">
        <ele>2553</ele>
        <time>2020-02-17T11:32:32.000Z</time>
      </trkpt>
      <trkpt lat="44.56354" lon="6.86093">
        <ele>2553</ele>
        <time>2020-02-17T11:32:36.000Z</time>
      </trkpt>
      <trkpt lat="44.56358" lon="6.86087">
        <ele>2553</ele>
        <time>2020-02-17T11:32:44.000Z</time>
      </trkpt>
      <trkpt lat="44.56359" lon="6.86087">
        <ele>2553</ele>
        <time>2020-02-17T11:32:45.000Z</time>
      </trkpt>
      <trkpt lat="44.56359" lon="6.86083">
        <ele>2634.1999511719</ele>
        <time>2020-02-17T11:32:50.000Z</time>
      </trkpt>
      <trkpt lat="44.56353" lon="6.86075">
        <ele>2635.3999023438</ele>
        <time>2020-02-17T11:32:58.000Z</time>
      </trkpt>
      <trkpt lat="44.56351" lon="6.86073">
        <ele>2635.6000976562</ele>
        <time>2020-02-17T11:33:00.000Z</time>
      </trkpt>
      <trkpt lat="44.56347" lon="6.86071">
        <ele>2636.3999023438</ele>
        <time>2020-02-17T11:33:04.000Z</time>
      </trkpt>
      <trkpt lat="44.56343" lon="6.8607">
        <ele>2637.3999023438</ele>
        <time>2020-02-17T11:33:09.000Z</time>
      </trkpt>
      <trkpt lat="44.56342" lon="6.8607">
        <ele>2637.6000976562</ele>
        <time>2020-02-17T11:33:10.000Z</time>
      </trkpt>
      <trkpt lat="44.56337" lon="6.86069">
        <ele>2638.6000976562</ele>
        <time>2020-02-17T11:33:15.000Z</time>
      </trkpt>
      <trkpt lat="44.56328" lon="6.86067">
        <ele>2639.8000488281</ele>
        <time>2020-02-17T11:33:21.000Z</time>
      </trkpt>
      <trkpt lat="44.56324" lon="6.86066">
        <ele>2640.8000488281</ele>
        <time>2020-02-17T11:33:28.000Z</time>
      </trkpt>
      <trkpt lat="44.56325" lon="6.86065">
        <ele>2641.8000488281</ele>
        <time>2020-02-17T11:33:37.000Z</time>
      </trkpt>
      <trkpt lat="44.56325" lon="6.86062">
        <ele>2643</ele>
        <time>2020-02-17T11:33:45.000Z</time>
      </trkpt>
      <trkpt lat="44.56319" lon="6.86059">
        <ele>2644</ele>
        <time>2020-02-17T11:33:52.000Z</time>
      </trkpt>
      <trkpt lat="44.56318" lon="6.8605">
        <ele>2645</ele>
        <time>2020-02-17T11:34:01.000Z</time>
      </trkpt>
      <trkpt lat="44.56319" lon="6.86046">
        <ele>2646</ele>
        <time>2020-02-17T11:34:10.000Z</time>
      </trkpt>
      <trkpt lat="44.56322" lon="6.86042">
        <ele>2647.1999511719</ele>
        <time>2020-02-17T11:34:19.000Z</time>
      </trkpt>
      <trkpt lat="44.56323" lon="6.86037">
        <ele>2648</ele>
        <time>2020-02-17T11:34:26.000Z</time>
      </trkpt>
      <trkpt lat="44.56322" lon="6.86036">
        <ele>2648.1999511719</ele>
        <time>2020-02-17T11:34:27.000Z</time>
      </trkpt>
      <trkpt lat="44.56323" lon="6.86031">
        <ele>2649.1999511719</ele>
        <time>2020-02-17T11:34:36.000Z</time>
      </trkpt>
      <trkpt lat="44.56328" lon="6.86028">
        <ele>2650.1999511719</ele>
        <time>2020-02-17T11:34:50.000Z</time>
      </trkpt>
      <trkpt lat="44.56324" lon="6.86026">
        <ele>2651</ele>
        <time>2020-02-17T11:34:56.000Z</time>
      </trkpt>
      <trkpt lat="44.56323" lon="6.86026">
        <ele>2651.3999023438</ele>
        <time>2020-02-17T11:34:58.000Z</time>
      </trkpt>
      <trkpt lat="44.56321" lon="6.86024">
        <ele>2651.6000976562</ele>
        <time>2020-02-17T11:35:11.000Z</time>
      </trkpt>
      <trkpt lat="44.56322" lon="6.86024">
        <ele>2651.6000976562</ele>
        <time>2020-02-17T11:35:13.000Z</time>
      </trkpt>
      <trkpt lat="44.56315" lon="6.86024">
        <ele>2652.1999511719</ele>
        <time>2020-02-17T11:35:28.000Z</time>
      </trkpt>
      <trkpt lat="44.56315" lon="6.86024">
        <ele>2652.3999023438</ele>
        <time>2020-02-17T11:35:30.000Z</time>
      </trkpt>
      <trkpt lat="44.56309" lon="6.86023">
        <ele>2652.3999023438</ele>
        <time>2020-02-17T11:35:45.000Z</time>
      </trkpt>
      <trkpt lat="44.5631" lon="6.86023">
        <ele>2652.3999023438</ele>
        <time>2020-02-17T11:35:47.000Z</time>
      </trkpt>
      <trkpt lat="44.56312" lon="6.86023">
        <ele>2652.6000976562</ele>
        <time>2020-02-17T11:35:49.000Z</time>
      </trkpt>
      <trkpt lat="44.56308" lon="6.86022">
        <ele>2652.6000976562</ele>
        <time>2020-02-17T11:35:54.000Z</time>
      </trkpt>
      <trkpt lat="44.56306" lon="6.86021">
        <ele>2652.6000976562</ele>
        <time>2020-02-17T11:35:59.000Z</time>
      </trkpt>
      <trkpt lat="44.56296" lon="6.86018">
        <ele>2652.3999023438</ele>
        <time>2020-02-17T11:36:02.000Z</time>
      </trkpt>
      <trkpt lat="44.56296" lon="6.86018">
        <ele>2652.3999023438</ele>
        <time>2020-02-17T11:36:03.000Z</time>
      </trkpt>
      <trkpt lat="44.56296" lon="6.86018">
        <ele>2652.6000976562</ele>
        <time>2020-02-17T11:36:04.000Z</time>
      </trkpt>
      <trkpt lat="44.56301" lon="6.86021">
        <ele>2652.8000488281</ele>
        <time>2020-02-17T11:36:11.000Z</time>
      </trkpt>
      <trkpt lat="44.56301" lon="6.86019">
        <ele>2653.3999023438</ele>
        <time>2020-02-17T11:36:17.000Z</time>
      </trkpt>
      <trkpt lat="44.56305" lon="6.86019">
        <ele>2653.8000488281</ele>
        <time>2020-02-17T11:36:23.000Z</time>
      </trkpt>
      <trkpt lat="44.56306" lon="6.86019">
        <ele>2654</ele>
        <time>2020-02-17T11:36:26.000Z</time>
      </trkpt>
      <trkpt lat="44.5631" lon="6.86021">
        <ele>2654.1999511719</ele>
        <time>2020-02-17T11:36:33.000Z</time>
      </trkpt>
      <trkpt lat="44.56314" lon="6.8602">
        <ele>2654.1999511719</ele>
        <time>2020-02-17T11:36:38.000Z</time>
      </trkpt>
      <trkpt lat="44.56315" lon="6.8602">
        <ele>2654.3999023438</ele>
        <time>2020-02-17T11:36:39.000Z</time>
      </trkpt>
      <trkpt lat="44.56316" lon="6.8602">
        <ele>2654.6000976562</ele>
        <time>2020-02-17T11:36:40.000Z</time>
      </trkpt>
      <trkpt lat="44.56321" lon="6.86017">
        <ele>2655.6000976562</ele>
        <time>2020-02-17T11:36:46.000Z</time>
      </trkpt>
      <trkpt lat="44.56322" lon="6.86017">
        <ele>2655.6000976562</ele>
        <time>2020-02-17T11:36:47.000Z</time>
      </trkpt>
      <trkpt lat="44.56324" lon="6.86016">
        <ele>2656.1999511719</ele>
        <time>2020-02-17T11:36:51.000Z</time>
      </trkpt>
      <trkpt lat="44.56325" lon="6.86015">
        <ele>2656.6000976562</ele>
        <time>2020-02-17T11:36:54.000Z</time>
      </trkpt>
      <trkpt lat="44.56325" lon="6.86014">
        <ele>2656.6000976562</ele>
        <time>2020-02-17T11:36:55.000Z</time>
      </trkpt>
      <trkpt lat="44.56325" lon="6.86014">
        <ele>2657</ele>
        <time>2020-02-17T11:36:57.000Z</time>
      </trkpt>
      <trkpt lat="44.56326" lon="6.86013">
        <ele>2657.1999511719</ele>
        <time>2020-02-17T11:37:00.000Z</time>
      </trkpt>
      <trkpt lat="44.56326" lon="6.86013">
        <ele>2657.1999511719</ele>
        <time>2020-02-17T11:37:02.000Z</time>
      </trkpt>
      <trkpt lat="44.56327" lon="6.86012">
        <ele>2657.6000976562</ele>
        <time>2020-02-17T11:37:06.000Z</time>
      </trkpt>
      <trkpt lat="44.56328" lon="6.86012">
        <ele>2657.6000976562</ele>
        <time>2020-02-17T11:37:07.000Z</time>
      </trkpt>
      <trkpt lat="44.56336" lon="6.86009">
        <ele>2658.3999023438</ele>
        <time>2020-02-17T11:37:17.000Z</time>
      </trkpt>
      <trkpt lat="44.56338" lon="6.86008">
        <ele>2658.6000976562</ele>
        <time>2020-02-17T11:37:19.000Z</time>
      </trkpt>
      <trkpt lat="44.5634" lon="6.86007">
        <ele>2659</ele>
        <time>2020-02-17T11:37:21.000Z</time>
      </trkpt>
      <trkpt lat="44.56347" lon="6.86004">
        <ele>2659.8000488281</ele>
        <time>2020-02-17T11:37:28.000Z</time>
      </trkpt>
      <trkpt lat="44.56348" lon="6.86004">
        <ele>2660.3999023438</ele>
        <time>2020-02-17T11:37:30.000Z</time>
      </trkpt>
      <trkpt lat="44.56351" lon="6.86003">
        <ele>2660.8000488281</ele>
        <time>2020-02-17T11:37:33.000Z</time>
      </trkpt>
      <trkpt lat="44.56352" lon="6.86003">
        <ele>2660.8000488281</ele>
        <time>2020-02-17T11:37:35.000Z</time>
      </trkpt>
      <trkpt lat="44.56357" lon="6.86001">
        <ele>2661.6000976562</ele>
        <time>2020-02-17T11:37:43.000Z</time>
      </trkpt>
      <trkpt lat="44.56359" lon="6.86001">
        <ele>2661.8000488281</ele>
        <time>2020-02-17T11:37:45.000Z</time>
      </trkpt>
      <trkpt lat="44.56361" lon="6.86">
        <ele>2662.6000976562</ele>
        <time>2020-02-17T11:37:48.000Z</time>
      </trkpt>
      <trkpt lat="44.56362" lon="6.86">
        <ele>2663</ele>
        <time>2020-02-17T11:37:50.000Z</time>
      </trkpt>
      <trkpt lat="44.56362" lon="6.85999">
        <ele>2663.1999511719</ele>
        <time>2020-02-17T11:37:51.000Z</time>
      </trkpt>
      <trkpt lat="44.56366" lon="6.85999">
        <ele>2664</ele>
        <time>2020-02-17T11:38:00.000Z</time>
      </trkpt>
      <trkpt lat="44.56368" lon="6.85998">
        <ele>2664.6000976562</ele>
        <time>2020-02-17T11:38:11.000Z</time>
      </trkpt>
      <trkpt lat="44.56376" lon="6.85996">
        <ele>2664.8000488281</ele>
        <time>2020-02-17T11:38:25.000Z</time>
      </trkpt>
      <trkpt lat="44.56377" lon="6.85996">
        <ele>2664.8000488281</ele>
        <time>2020-02-17T11:38:27.000Z</time>
      </trkpt>
      <trkpt lat="44.56383" lon="6.85994">
        <ele>2665</ele>
        <time>2020-02-17T11:38:34.000Z</time>
      </trkpt>
      <trkpt lat="44.56383" lon="6.85994">
        <ele>2665</ele>
        <time>2020-02-17T11:38:35.000Z</time>
      </trkpt>
      <trkpt lat="44.56383" lon="6.85994">
        <ele>2665.1999511719</ele>
        <time>2020-02-17T11:38:36.000Z</time>
      </trkpt>
      <trkpt lat="44.56382" lon="6.85994">
        <ele>2665.6000976562</ele>
        <time>2020-02-17T11:38:48.000Z</time>
      </trkpt>
      <trkpt lat="44.56379" lon="6.85993">
        <ele>2665.6000976562</ele>
        <time>2020-02-17T11:38:56.000Z</time>
      </trkpt>
      <trkpt lat="44.5638" lon="6.85992">
        <ele>2665.6000976562</ele>
        <time>2020-02-17T11:38:59.000Z</time>
      </trkpt>
      <trkpt lat="44.56379" lon="6.85992">
        <ele>2665.6000976562</ele>
        <time>2020-02-17T11:39:02.000Z</time>
      </trkpt>
      <trkpt lat="44.5638" lon="6.85992">
        <ele>2665.8000488281</ele>
        <time>2020-02-17T11:39:05.000Z</time>
      </trkpt>
      <trkpt lat="44.56385" lon="6.85992">
        <ele>2665.8000488281</ele>
        <time>2020-02-17T11:39:08.000Z</time>
      </trkpt>
      <trkpt lat="44.56384" lon="6.85994">
        <ele>2665.8000488281</ele>
        <time>2020-02-17T11:39:18.000Z</time>
      </trkpt>
      <trkpt lat="44.56383" lon="6.85995">
        <ele>2665.6000976562</ele>
        <time>2020-02-17T11:39:23.000Z</time>
      </trkpt>
      <trkpt lat="44.56383" lon="6.85995">
        <ele>2665.6000976562</ele>
        <time>2020-02-17T11:39:24.000Z</time>
      </trkpt>
      <trkpt lat="44.56383" lon="6.85995">
        <ele>2665.6000976562</ele>
        <time>2020-02-17T11:39:25.000Z</time>
      </trkpt>
      <trkpt lat="44.56382" lon="6.85995">
        <ele>2665.8000488281</ele>
        <time>2020-02-17T11:39:28.000Z</time>
      </trkpt>
      <trkpt lat="44.56383" lon="6.85995">
        <ele>2665.8000488281</ele>
        <time>2020-02-17T11:39:34.000Z</time>
      </trkpt>
      <trkpt lat="44.56383" lon="6.85995">
        <ele>2666</ele>
        <time>2020-02-17T11:39:39.000Z</time>
      </trkpt>
      <trkpt lat="44.56382" lon="6.85995">
        <ele>2666.1999511719</ele>
        <time>2020-02-17T11:39:40.000Z</time>
      </trkpt>
      <trkpt lat="44.56381" lon="6.85996">
        <ele>2666.8000488281</ele>
        <time>2020-02-17T11:39:48.000Z</time>
      </trkpt>
      <trkpt lat="44.56382" lon="6.85994">
        <ele>2666.1999511719</ele>
        <time>2020-02-17T11:39:52.000Z</time>
      </trkpt>
      <trkpt lat="44.56383" lon="6.85994">
        <ele>2666.1999511719</ele>
        <time>2020-02-17T11:39:55.000Z</time>
      </trkpt>
      <trkpt lat="44.56383" lon="6.85994">
        <ele>2666.1999511719</ele>
        <time>2020-02-17T11:39:56.000Z</time>
      </trkpt>
      <trkpt lat="44.56383" lon="6.85994">
        <ele>2666.1999511719</ele>
        <time>2020-02-17T11:39:57.000Z</time>
      </trkpt>
      <trkpt lat="44.56383" lon="6.85994">
        <ele>2666.1999511719</ele>
        <time>2020-02-17T11:39:58.000Z</time>
      </trkpt>
      <trkpt lat="44.56383" lon="6.85994">
        <ele>2666.1999511719</ele>
        <time>2020-02-17T11:40:00.000Z</time>
      </trkpt>
      <trkpt lat="44.56383" lon="6.85993">
        <ele>2666.1999511719</ele>
        <time>2020-02-17T11:40:04.000Z</time>
      </trkpt>
      <trkpt lat="44.56384" lon="6.85993">
        <ele>2666.1999511719</ele>
        <time>2020-02-17T11:40:05.000Z</time>
      </trkpt>
      <trkpt lat="44.56384" lon="6.85992">
        <ele>2666.1999511719</ele>
        <time>2020-02-17T11:40:06.000Z</time>
      </trkpt>
      <trkpt lat="44.56384" lon="6.85992">
        <ele>2666.1999511719</ele>
        <time>2020-02-17T11:40:08.000Z</time>
      </trkpt>
      <trkpt lat="44.56384" lon="6.85991">
        <ele>2666.1999511719</ele>
        <time>2020-02-17T11:40:11.000Z</time>
      </trkpt>
      <trkpt lat="44.56383" lon="6.85992">
        <ele>2666.1999511719</ele>
        <time>2020-02-17T11:40:13.000Z</time>
      </trkpt>
      <trkpt lat="44.56383" lon="6.85991">
        <ele>2666.1999511719</ele>
        <time>2020-02-17T11:40:14.000Z</time>
      </trkpt>
      <trkpt lat="44.56382" lon="6.85991">
        <ele>2666.1999511719</ele>
        <time>2020-02-17T11:40:16.000Z</time>
      </trkpt>
      <trkpt lat="44.56381" lon="6.8599">
        <ele>2666.1999511719</ele>
        <time>2020-02-17T11:40:18.000Z</time>
      </trkpt>
      <trkpt lat="44.5638" lon="6.8599">
        <ele>2666.1999511719</ele>
        <time>2020-02-17T11:40:20.000Z</time>
      </trkpt>
      <trkpt lat="44.5638" lon="6.85989">
        <ele>2666.1999511719</ele>
        <time>2020-02-17T11:40:21.000Z</time>
      </trkpt>
      <trkpt lat="44.56381" lon="6.8599">
        <ele>2666.1999511719</ele>
        <time>2020-02-17T11:40:25.000Z</time>
      </trkpt>
      <trkpt lat="44.56383" lon="6.85992">
        <ele>2666.1999511719</ele>
        <time>2020-02-17T11:40:27.000Z</time>
      </trkpt>
      <trkpt lat="44.56385" lon="6.85993">
        <ele>2666.1999511719</ele>
        <time>2020-02-17T11:40:29.000Z</time>
      </trkpt>
      <trkpt lat="44.56389" lon="6.85992">
        <ele>2666.6000976562</ele>
        <time>2020-02-17T11:40:32.000Z</time>
      </trkpt>
      <trkpt lat="44.5639" lon="6.85992">
        <ele>2666.6000976562</ele>
        <time>2020-02-17T11:40:33.000Z</time>
      </trkpt>
      <trkpt lat="44.56391" lon="6.8599">
        <ele>2666.6000976562</ele>
        <time>2020-02-17T11:40:35.000Z</time>
      </trkpt>
      <trkpt lat="44.56393" lon="6.85989">
        <ele>2666.8000488281</ele>
        <time>2020-02-17T11:40:37.000Z</time>
      </trkpt>
      <trkpt lat="44.56394" lon="6.85987">
        <ele>2666.8000488281</ele>
        <time>2020-02-17T11:40:39.000Z</time>
      </trkpt>
      <trkpt lat="44.564" lon="6.85983">
        <ele>2667.1999511719</ele>
        <time>2020-02-17T11:40:45.000Z</time>
      </trkpt>
      <trkpt lat="44.56403" lon="6.85979">
        <ele>2667.6000976562</ele>
        <time>2020-02-17T11:40:53.000Z</time>
      </trkpt>
      <trkpt lat="44.56404" lon="6.85979">
        <ele>2667.8000488281</ele>
        <time>2020-02-17T11:40:54.000Z</time>
      </trkpt>
      <trkpt lat="44.56406" lon="6.85976">
        <ele>2668</ele>
        <time>2020-02-17T11:40:59.000Z</time>
      </trkpt>
      <trkpt lat="44.56409" lon="6.85974">
        <ele>2668</ele>
        <time>2020-02-17T11:41:03.000Z</time>
      </trkpt>
      <trkpt lat="44.5641" lon="6.85973">
        <ele>2668</ele>
        <time>2020-02-17T11:41:06.000Z</time>
      </trkpt>
      <trkpt lat="44.56411" lon="6.85972">
        <ele>2668.1999511719</ele>
        <time>2020-02-17T11:41:08.000Z</time>
      </trkpt>
      <trkpt lat="44.56414" lon="6.85968">
        <ele>2668.1999511719</ele>
        <time>2020-02-17T11:41:15.000Z</time>
      </trkpt>
      <trkpt lat="44.56415" lon="6.85968">
        <ele>2668.1999511719</ele>
        <time>2020-02-17T11:41:17.000Z</time>
      </trkpt>
      <trkpt lat="44.56415" lon="6.85964">
        <ele>2668.1999511719</ele>
        <time>2020-02-17T11:41:32.000Z</time>
      </trkpt>
      <trkpt lat="44.56414" lon="6.85966">
        <ele>2668.1999511719</ele>
        <time>2020-02-17T11:41:35.000Z</time>
      </trkpt>
      <trkpt lat="44.56416" lon="6.85966">
        <ele>2668.3999023438</ele>
        <time>2020-02-17T11:41:42.000Z</time>
      </trkpt>
      <trkpt lat="44.56416" lon="6.85966">
        <ele>2668.6000976562</ele>
        <time>2020-02-17T11:41:43.000Z</time>
      </trkpt>
      <trkpt lat="44.56417" lon="6.85966">
        <ele>2668.6000976562</ele>
        <time>2020-02-17T11:41:44.000Z</time>
      </trkpt>
      <trkpt lat="44.56418" lon="6.85966">
        <ele>2668.6000976562</ele>
        <time>2020-02-17T11:41:46.000Z</time>
      </trkpt>
      <trkpt lat="44.56421" lon="6.85965">
        <ele>2668.3999023438</ele>
        <time>2020-02-17T11:41:51.000Z</time>
      </trkpt>
      <trkpt lat="44.56421" lon="6.85965">
        <ele>2668.8000488281</ele>
        <time>2020-02-17T11:41:58.000Z</time>
      </trkpt>
      <trkpt lat="44.56421" lon="6.85965">
        <ele>2669</ele>
        <time>2020-02-17T11:42:06.000Z</time>
      </trkpt>
      <trkpt lat="44.56423" lon="6.85964">
        <ele>2668.8000488281</ele>
        <time>2020-02-17T11:42:08.000Z</time>
      </trkpt>
      <trkpt lat="44.56424" lon="6.85964">
        <ele>2669</ele>
        <time>2020-02-17T11:42:10.000Z</time>
      </trkpt>
      <trkpt lat="44.56425" lon="6.85964">
        <ele>2669.1999511719</ele>
        <time>2020-02-17T11:42:13.000Z</time>
      </trkpt>
      <trkpt lat="44.56426" lon="6.85965">
        <ele>2669.3999023438</ele>
        <time>2020-02-17T11:42:17.000Z</time>
      </trkpt>
      <trkpt lat="44.56427" lon="6.85965">
        <ele>2669.3999023438</ele>
        <time>2020-02-17T11:42:20.000Z</time>
      </trkpt>
      <trkpt lat="44.56431" lon="6.85965">
        <ele>2669.8000488281</ele>
        <time>2020-02-17T11:42:24.000Z</time>
      </trkpt>
      <trkpt lat="44.56431" lon="6.85965">
        <ele>2670</ele>
        <time>2020-02-17T11:42:25.000Z</time>
      </trkpt>
      <trkpt lat="44.56432" lon="6.85964">
        <ele>2670.1999511719</ele>
        <time>2020-02-17T11:42:28.000Z</time>
      </trkpt>
      <trkpt lat="44.56435" lon="6.85964">
        <ele>2670.8000488281</ele>
        <time>2020-02-17T11:42:32.000Z</time>
      </trkpt>
      <trkpt lat="44.56439" lon="6.85964">
        <ele>2671</ele>
        <time>2020-02-17T11:42:36.000Z</time>
      </trkpt>
      <trkpt lat="44.56441" lon="6.85965">
        <ele>2671.3999023438</ele>
        <time>2020-02-17T11:42:38.000Z</time>
      </trkpt>
      <trkpt lat="44.56444" lon="6.85966">
        <ele>2671.8000488281</ele>
        <time>2020-02-17T11:42:41.000Z</time>
      </trkpt>
      <trkpt lat="44.56446" lon="6.85967">
        <ele>2671.8000488281</ele>
        <time>2020-02-17T11:42:45.000Z</time>
      </trkpt>
      <trkpt lat="44.56449" lon="6.85968">
        <ele>2671.8000488281</ele>
        <time>2020-02-17T11:42:50.000Z</time>
      </trkpt>
      <trkpt lat="44.56453" lon="6.8597">
        <ele>2671.8000488281</ele>
        <time>2020-02-17T11:42:56.000Z</time>
      </trkpt>
      <trkpt lat="44.56455" lon="6.85971">
        <ele>2672</ele>
        <time>2020-02-17T11:42:58.000Z</time>
      </trkpt>
      <trkpt lat="44.56456" lon="6.85972">
        <ele>2672.3999023438</ele>
        <time>2020-02-17T11:43:01.000Z</time>
      </trkpt>
      <trkpt lat="44.56457" lon="6.85973">
        <ele>2672.3999023438</ele>
        <time>2020-02-17T11:43:03.000Z</time>
      </trkpt>
      <trkpt lat="44.5646" lon="6.85977">
        <ele>2672.6000976562</ele>
        <time>2020-02-17T11:43:12.000Z</time>
      </trkpt>
      <trkpt lat="44.5646" lon="6.85976">
        <ele>2672.6000976562</ele>
        <time>2020-02-17T11:43:15.000Z</time>
      </trkpt>
      <trkpt lat="44.56464" lon="6.85975">
        <ele>2672.6000976562</ele>
        <time>2020-02-17T11:43:22.000Z</time>
      </trkpt>
      <trkpt lat="44.56465" lon="6.85975">
        <ele>2672.6000976562</ele>
        <time>2020-02-17T11:43:26.000Z</time>
      </trkpt>
      <trkpt lat="44.56472" lon="6.85976">
        <ele>2673.3999023438</ele>
        <time>2020-02-17T11:43:36.000Z</time>
      </trkpt>
      <trkpt lat="44.56479" lon="6.85976">
        <ele>2674.3999023438</ele>
        <time>2020-02-17T11:43:47.000Z</time>
      </trkpt>
      <trkpt lat="44.56479" lon="6.85975">
        <ele>2675</ele>
        <time>2020-02-17T11:43:53.000Z</time>
      </trkpt>
      <trkpt lat="44.5648" lon="6.85977">
        <ele>2675.3999023438</ele>
        <time>2020-02-17T11:44:14.000Z</time>
      </trkpt>
      <trkpt lat="44.56481" lon="6.85977">
        <ele>2675.3999023438</ele>
        <time>2020-02-17T11:44:15.000Z</time>
      </trkpt>
      <trkpt lat="44.5648" lon="6.85978">
        <ele>2676</ele>
        <time>2020-02-17T11:44:19.000Z</time>
      </trkpt>
      <trkpt lat="44.5648" lon="6.85978">
        <ele>2676.3999023438</ele>
        <time>2020-02-17T11:44:21.000Z</time>
      </trkpt>
      <trkpt lat="44.56481" lon="6.85978">
        <ele>2676.3999023438</ele>
        <time>2020-02-17T11:44:22.000Z</time>
      </trkpt>
      <trkpt lat="44.56484" lon="6.85978">
        <ele>2677.3999023438</ele>
        <time>2020-02-17T11:44:31.000Z</time>
      </trkpt>
      <trkpt lat="44.56485" lon="6.85977">
        <ele>2677.6000976562</ele>
        <time>2020-02-17T11:44:32.000Z</time>
      </trkpt>
      <trkpt lat="44.56488" lon="6.85976">
        <ele>2678</ele>
        <time>2020-02-17T11:44:38.000Z</time>
      </trkpt>
      <trkpt lat="44.56489" lon="6.85974">
        <ele>2678.6000976562</ele>
        <time>2020-02-17T11:44:43.000Z</time>
      </trkpt>
      <trkpt lat="44.56491" lon="6.85973">
        <ele>2679.6000976562</ele>
        <time>2020-02-17T11:44:50.000Z</time>
      </trkpt>
      <trkpt lat="44.56495" lon="6.85971">
        <ele>2680.6000976562</ele>
        <time>2020-02-17T11:44:55.000Z</time>
      </trkpt>
      <trkpt lat="44.56495" lon="6.8597">
        <ele>2680.6000976562</ele>
        <time>2020-02-17T11:44:56.000Z</time>
      </trkpt>
      <trkpt lat="44.56496" lon="6.85969">
        <ele>2681</ele>
        <time>2020-02-17T11:44:58.000Z</time>
      </trkpt>
      <trkpt lat="44.565" lon="6.85967">
        <ele>2681.6000976562</ele>
        <time>2020-02-17T11:45:04.000Z</time>
      </trkpt>
      <trkpt lat="44.565" lon="6.85966">
        <ele>2681.8000488281</ele>
        <time>2020-02-17T11:45:05.000Z</time>
      </trkpt>
      <trkpt lat="44.56503" lon="6.85966">
        <ele>2683</ele>
        <time>2020-02-17T11:45:14.000Z</time>
      </trkpt>
      <trkpt lat="44.56507" lon="6.85963">
        <ele>2684.1999511719</ele>
        <time>2020-02-17T11:45:21.000Z</time>
      </trkpt>
      <trkpt lat="44.56512" lon="6.85961">
        <ele>2685.1999511719</ele>
        <time>2020-02-17T11:45:29.000Z</time>
      </trkpt>
      <trkpt lat="44.56518" lon="6.85958">
        <ele>2686.3999023438</ele>
        <time>2020-02-17T11:45:38.000Z</time>
      </trkpt>
      <trkpt lat="44.56523" lon="6.85957">
        <ele>2687.3999023438</ele>
        <time>2020-02-17T11:45:49.000Z</time>
      </trkpt>
      <trkpt lat="44.56527" lon="6.85956">
        <ele>2688.6000976562</ele>
        <time>2020-02-17T11:45:59.000Z</time>
      </trkpt>
      <trkpt lat="44.56532" lon="6.85952">
        <ele>2689.6000976562</ele>
        <time>2020-02-17T11:46:09.000Z</time>
      </trkpt>
      <trkpt lat="44.56537" lon="6.85947">
        <ele>2690.6000976562</ele>
        <time>2020-02-17T11:46:22.000Z</time>
      </trkpt>
      <trkpt lat="44.56538" lon="6.85945">
        <ele>2691.6000976562</ele>
        <time>2020-02-17T11:46:27.000Z</time>
      </trkpt>
      <trkpt lat="44.56538" lon="6.85945">
        <ele>2691.8000488281</ele>
        <time>2020-02-17T11:46:29.000Z</time>
      </trkpt>
      <trkpt lat="44.56537" lon="6.85948">
        <ele>2692.3999023438</ele>
        <time>2020-02-17T11:46:38.000Z</time>
      </trkpt>
      <trkpt lat="44.56542" lon="6.85943">
        <ele>2692.8000488281</ele>
        <time>2020-02-17T11:46:46.000Z</time>
      </trkpt>
      <trkpt lat="44.56545" lon="6.85938">
        <ele>2693.8000488281</ele>
        <time>2020-02-17T11:46:54.000Z</time>
      </trkpt>
      <trkpt lat="44.56552" lon="6.85931">
        <ele>2695</ele>
        <time>2020-02-17T11:47:06.000Z</time>
      </trkpt>
      <trkpt lat="44.56554" lon="6.85928">
        <ele>2696</ele>
        <time>2020-02-17T11:47:11.000Z</time>
      </trkpt>
      <trkpt lat="44.56556" lon="6.85925">
        <ele>2697</ele>
        <time>2020-02-17T11:47:18.000Z</time>
      </trkpt>
      <trkpt lat="44.56559" lon="6.85921">
        <ele>2698.3999023438</ele>
        <time>2020-02-17T11:47:24.000Z</time>
      </trkpt>
      <trkpt lat="44.5656" lon="6.85919">
        <ele>2699.3999023438</ele>
        <time>2020-02-17T11:47:31.000Z</time>
      </trkpt>
      <trkpt lat="44.56563" lon="6.85916">
        <ele>2700</ele>
        <time>2020-02-17T11:47:39.000Z</time>
      </trkpt>
      <trkpt lat="44.56563" lon="6.85917">
        <ele>2700</ele>
        <time>2020-02-17T11:47:48.000Z</time>
      </trkpt>
      <trkpt lat="44.56566" lon="6.85913">
        <ele>2700.1999511719</ele>
        <time>2020-02-17T11:48:03.000Z</time>
      </trkpt>
      <trkpt lat="44.56567" lon="6.85912">
        <ele>2700.3999023438</ele>
        <time>2020-02-17T11:48:04.000Z</time>
      </trkpt>
      <trkpt lat="44.56569" lon="6.85911">
        <ele>2700.6000976562</ele>
        <time>2020-02-17T11:48:05.000Z</time>
      </trkpt>
      <trkpt lat="44.5657" lon="6.85909">
        <ele>2700.8000488281</ele>
        <time>2020-02-17T11:48:07.000Z</time>
      </trkpt>
      <trkpt lat="44.56572" lon="6.85906">
        <ele>2701</ele>
        <time>2020-02-17T11:48:09.000Z</time>
      </trkpt>
      <trkpt lat="44.56576" lon="6.85897">
        <ele>2701.3999023438</ele>
        <time>2020-02-17T11:48:17.000Z</time>
      </trkpt>
      <trkpt lat="44.5658" lon="6.8589">
        <ele>2702.3999023438</ele>
        <time>2020-02-17T11:48:24.000Z</time>
      </trkpt>
      <trkpt lat="44.56581" lon="6.85889">
        <ele>2702.6000976562</ele>
        <time>2020-02-17T11:48:25.000Z</time>
      </trkpt>
      <trkpt lat="44.56582" lon="6.85887">
        <ele>2703.1999511719</ele>
        <time>2020-02-17T11:48:28.000Z</time>
      </trkpt>
      <trkpt lat="44.56584" lon="6.85882">
        <ele>2703.8000488281</ele>
        <time>2020-02-17T11:48:32.000Z</time>
      </trkpt>
      <trkpt lat="44.56585" lon="6.8588">
        <ele>2704.3999023438</ele>
        <time>2020-02-17T11:48:35.000Z</time>
      </trkpt>
      <trkpt lat="44.56587" lon="6.85877">
        <ele>2704.8000488281</ele>
        <time>2020-02-17T11:48:38.000Z</time>
      </trkpt>
      <trkpt lat="44.56588" lon="6.85875">
        <ele>2705.3999023438</ele>
        <time>2020-02-17T11:48:40.000Z</time>
      </trkpt>
      <trkpt lat="44.56589" lon="6.85874">
        <ele>2705.8000488281</ele>
        <time>2020-02-17T11:48:42.000Z</time>
      </trkpt>
      <trkpt lat="44.56591" lon="6.85866">
        <ele>2706.6000976562</ele>
        <time>2020-02-17T11:48:49.000Z</time>
      </trkpt>
      <trkpt lat="44.56591" lon="6.85866">
        <ele>2707</ele>
        <time>2020-02-17T11:48:51.000Z</time>
      </trkpt>
      <trkpt lat="44.56593" lon="6.85859">
        <ele>2708</ele>
        <time>2020-02-17T11:49:10.000Z</time>
      </trkpt>
      <trkpt lat="44.56594" lon="6.85859">
        <ele>2708.3999023438</ele>
        <time>2020-02-17T11:49:12.000Z</time>
      </trkpt>
      <trkpt lat="44.56596" lon="6.85857">
        <ele>2709.1999511719</ele>
        <time>2020-02-17T11:49:17.000Z</time>
      </trkpt>
      <trkpt lat="44.56598" lon="6.85854">
        <ele>2710.1999511719</ele>
        <time>2020-02-17T11:49:23.000Z</time>
      </trkpt>
      <trkpt lat="44.56599" lon="6.85846">
        <ele>2711.3999023438</ele>
        <time>2020-02-17T11:49:32.000Z</time>
      </trkpt>
      <trkpt lat="44.56602" lon="6.8584">
        <ele>2712.3999023438</ele>
        <time>2020-02-17T11:49:41.000Z</time>
      </trkpt>
      <trkpt lat="44.56603" lon="6.85835">
        <ele>2713.6000976562</ele>
        <time>2020-02-17T11:49:48.000Z</time>
      </trkpt>
      <trkpt lat="44.56605" lon="6.85829">
        <ele>2714.6000976562</ele>
        <time>2020-02-17T11:49:55.000Z</time>
      </trkpt>
      <trkpt lat="44.56608" lon="6.85825">
        <ele>2715.8000488281</ele>
        <time>2020-02-17T11:50:05.000Z</time>
      </trkpt>
      <trkpt lat="44.5661" lon="6.85823">
        <ele>2716.6000976562</ele>
        <time>2020-02-17T11:50:10.000Z</time>
      </trkpt>
      <trkpt lat="44.56611" lon="6.85822">
        <ele>2716.8000488281</ele>
        <time>2020-02-17T11:50:12.000Z</time>
      </trkpt>
      <trkpt lat="44.56616" lon="6.85817">
        <ele>2717.8000488281</ele>
        <time>2020-02-17T11:50:23.000Z</time>
      </trkpt>
      <trkpt lat="44.56618" lon="6.85813">
        <ele>2718.8000488281</ele>
        <time>2020-02-17T11:50:31.000Z</time>
      </trkpt>
      <trkpt lat="44.5662" lon="6.85806">
        <ele>2719.8000488281</ele>
        <time>2020-02-17T11:50:44.000Z</time>
      </trkpt>
      <trkpt lat="44.56621" lon="6.85804">
        <ele>2721</ele>
        <time>2020-02-17T11:50:50.000Z</time>
      </trkpt>
      <trkpt lat="44.56626" lon="6.85798">
        <ele>2722</ele>
        <time>2020-02-17T11:51:02.000Z</time>
      </trkpt>
      <trkpt lat="44.56629" lon="6.85794">
        <ele>2723.1999511719</ele>
        <time>2020-02-17T11:51:11.000Z</time>
      </trkpt>
      <trkpt lat="44.56632" lon="6.85789">
        <ele>2724.1999511719</ele>
        <time>2020-02-17T11:51:20.000Z</time>
      </trkpt>
      <trkpt lat="44.56636" lon="6.85783">
        <ele>2725.1999511719</ele>
        <time>2020-02-17T11:51:34.000Z</time>
      </trkpt>
      <trkpt lat="44.56637" lon="6.8578">
        <ele>2726.3999023438</ele>
        <time>2020-02-17T11:51:41.000Z</time>
      </trkpt>
      <trkpt lat="44.56638" lon="6.85778">
        <ele>2727.3999023438</ele>
        <time>2020-02-17T11:51:45.000Z</time>
      </trkpt>
      <trkpt lat="44.56639" lon="6.85774">
        <ele>2728.3999023438</ele>
        <time>2020-02-17T11:51:53.000Z</time>
      </trkpt>
      <trkpt lat="44.56642" lon="6.85769">
        <ele>2729.6000976562</ele>
        <time>2020-02-17T11:52:02.000Z</time>
      </trkpt>
      <trkpt lat="44.56644" lon="6.85764">
        <ele>2730.6000976562</ele>
        <time>2020-02-17T11:52:11.000Z</time>
      </trkpt>
      <trkpt lat="44.56646" lon="6.8576">
        <ele>2731.6000976562</ele>
        <time>2020-02-17T11:52:19.000Z</time>
      </trkpt>
      <trkpt lat="44.56649" lon="6.85756">
        <ele>2732.6000976562</ele>
        <time>2020-02-17T11:52:27.000Z</time>
      </trkpt>
      <trkpt lat="44.56651" lon="6.85753">
        <ele>2733.8000488281</ele>
        <time>2020-02-17T11:52:34.000Z</time>
      </trkpt>
      <trkpt lat="44.56653" lon="6.85748">
        <ele>2734.8000488281</ele>
        <time>2020-02-17T11:52:41.000Z</time>
      </trkpt>
      <trkpt lat="44.56656" lon="6.85744">
        <ele>2735.8000488281</ele>
        <time>2020-02-17T11:52:50.000Z</time>
      </trkpt>
      <trkpt lat="44.56657" lon="6.85739">
        <ele>2737</ele>
        <time>2020-02-17T11:52:56.000Z</time>
      </trkpt>
      <trkpt lat="44.56658" lon="6.85736">
        <ele>2738.1999511719</ele>
        <time>2020-02-17T11:53:02.000Z</time>
      </trkpt>
      <trkpt lat="44.56662" lon="6.8573">
        <ele>2738.3999023438</ele>
        <time>2020-02-17T11:53:12.000Z</time>
      </trkpt>
      <trkpt lat="44.56663" lon="6.8573">
        <ele>2738.8000488281</ele>
        <time>2020-02-17T11:53:16.000Z</time>
      </trkpt>
      <trkpt lat="44.56664" lon="6.85729">
        <ele>2739.1999511719</ele>
        <time>2020-02-17T11:53:20.000Z</time>
      </trkpt>
      <trkpt lat="44.56667" lon="6.85726">
        <ele>2740.1999511719</ele>
        <time>2020-02-17T11:53:28.000Z</time>
      </trkpt>
      <trkpt lat="44.56669" lon="6.85721">
        <ele>2741.1999511719</ele>
        <time>2020-02-17T11:53:36.000Z</time>
      </trkpt>
      <trkpt lat="44.56671" lon="6.85719">
        <ele>2742.3999023438</ele>
        <time>2020-02-17T11:53:44.000Z</time>
      </trkpt>
      <trkpt lat="44.56674" lon="6.85713">
        <ele>2743.3999023438</ele>
        <time>2020-02-17T11:53:54.000Z</time>
      </trkpt>
      <trkpt lat="44.56677" lon="6.85708">
        <ele>2744.3999023438</ele>
        <time>2020-02-17T11:54:02.000Z</time>
      </trkpt>
      <trkpt lat="44.56678" lon="6.85702">
        <ele>2745.3999023438</ele>
        <time>2020-02-17T11:54:09.000Z</time>
      </trkpt>
      <trkpt lat="44.56679" lon="6.85692">
        <ele>2746.6000976562</ele>
        <time>2020-02-17T11:54:21.000Z</time>
      </trkpt>
      <trkpt lat="44.56678" lon="6.85686">
        <ele>2747.8000488281</ele>
        <time>2020-02-17T11:54:28.000Z</time>
      </trkpt>
      <trkpt lat="44.56678" lon="6.85676">
        <ele>2748.8000488281</ele>
        <time>2020-02-17T11:54:43.000Z</time>
      </trkpt>
      <trkpt lat="44.5668" lon="6.85676">
        <ele>2749</ele>
        <time>2020-02-17T11:54:45.000Z</time>
      </trkpt>
      <trkpt lat="44.56681" lon="6.85675">
        <ele>2749.6000976562</ele>
        <time>2020-02-17T11:54:48.000Z</time>
      </trkpt>
      <trkpt lat="44.56683" lon="6.85675">
        <ele>2749.8000488281</ele>
        <time>2020-02-17T11:54:51.000Z</time>
      </trkpt>
      <trkpt lat="44.56685" lon="6.85676">
        <ele>2750.3999023438</ele>
        <time>2020-02-17T11:54:56.000Z</time>
      </trkpt>
      <trkpt lat="44.56687" lon="6.85676">
        <ele>2751</ele>
        <time>2020-02-17T11:54:59.000Z</time>
      </trkpt>
      <trkpt lat="44.56688" lon="6.85676">
        <ele>2751</ele>
        <time>2020-02-17T11:55:00.000Z</time>
      </trkpt>
      <trkpt lat="44.5669" lon="6.85677">
        <ele>2751.1999511719</ele>
        <time>2020-02-17T11:55:05.000Z</time>
      </trkpt>
      <trkpt lat="44.5669" lon="6.85679">
        <ele>2751.3999023438</ele>
        <time>2020-02-17T11:55:16.000Z</time>
      </trkpt>
      <trkpt lat="44.56694" lon="6.85681">
        <ele>2752</ele>
        <time>2020-02-17T11:55:28.000Z</time>
      </trkpt>
      <trkpt lat="44.56698" lon="6.85683">
        <ele>2753</ele>
        <time>2020-02-17T11:55:33.000Z</time>
      </trkpt>
      <trkpt lat="44.56703" lon="6.85685">
        <ele>2753.8000488281</ele>
        <time>2020-02-17T11:55:45.000Z</time>
      </trkpt>
      <trkpt lat="44.56703" lon="6.85684">
        <ele>2754</ele>
        <time>2020-02-17T11:55:46.000Z</time>
      </trkpt>
      <trkpt lat="44.56704" lon="6.85682">
        <ele>2755.1999511719</ele>
        <time>2020-02-17T11:55:49.000Z</time>
      </trkpt>
      <trkpt lat="44.56704" lon="6.85679">
        <ele>2756.3999023438</ele>
        <time>2020-02-17T11:55:52.000Z</time>
      </trkpt>
      <trkpt lat="44.56704" lon="6.85675">
        <ele>2757.3999023438</ele>
        <time>2020-02-17T11:55:57.000Z</time>
      </trkpt>
      <trkpt lat="44.56705" lon="6.85669">
        <ele>2757.8000488281</ele>
        <time>2020-02-17T11:56:03.000Z</time>
      </trkpt>
      <trkpt lat="44.56706" lon="6.85662">
        <ele>2758</ele>
        <time>2020-02-17T11:56:12.000Z</time>
      </trkpt>
      <trkpt lat="44.56706" lon="6.85656">
        <ele>2758.6000976562</ele>
        <time>2020-02-17T11:56:18.000Z</time>
      </trkpt>
      <trkpt lat="44.56704" lon="6.85651">
        <ele>2759.6000976562</ele>
        <time>2020-02-17T11:56:23.000Z</time>
      </trkpt>
      <trkpt lat="44.56704" lon="6.85649">
        <ele>2759.6000976562</ele>
        <time>2020-02-17T11:56:24.000Z</time>
      </trkpt>
      <trkpt lat="44.56703" lon="6.85639">
        <ele>2760.6000976562</ele>
        <time>2020-02-17T11:56:35.000Z</time>
      </trkpt>
      <trkpt lat="44.56704" lon="6.85635">
        <ele>2761.6000976562</ele>
        <time>2020-02-17T11:56:42.000Z</time>
      </trkpt>
      <trkpt lat="44.56701" lon="6.85628">
        <ele>2762.6000976562</ele>
        <time>2020-02-17T11:56:55.000Z</time>
      </trkpt>
      <trkpt lat="44.56699" lon="6.85622">
        <ele>2763.8000488281</ele>
        <time>2020-02-17T11:57:02.000Z</time>
      </trkpt>
      <trkpt lat="44.56698" lon="6.85614">
        <ele>2764.8000488281</ele>
        <time>2020-02-17T11:57:14.000Z</time>
      </trkpt>
      <trkpt lat="44.56702" lon="6.85613">
        <ele>2765.8000488281</ele>
        <time>2020-02-17T11:57:20.000Z</time>
      </trkpt>
      <trkpt lat="44.56711" lon="6.85614">
        <ele>2767</ele>
        <time>2020-02-17T11:57:32.000Z</time>
      </trkpt>
      <trkpt lat="44.56715" lon="6.85614">
        <ele>2768.1999511719</ele>
        <time>2020-02-17T11:57:37.000Z</time>
      </trkpt>
      <trkpt lat="44.56718" lon="6.85614">
        <ele>2768.3999023438</ele>
        <time>2020-02-17T11:57:41.000Z</time>
      </trkpt>
      <trkpt lat="44.56721" lon="6.85616">
        <ele>2769.1999511719</ele>
        <time>2020-02-17T11:57:46.000Z</time>
      </trkpt>
      <trkpt lat="44.56723" lon="6.85617">
        <ele>2769.6000976562</ele>
        <time>2020-02-17T11:57:48.000Z</time>
      </trkpt>
      <trkpt lat="44.56724" lon="6.85617">
        <ele>2770</ele>
        <time>2020-02-17T11:57:50.000Z</time>
      </trkpt>
      <trkpt lat="44.56726" lon="6.85618">
        <ele>2770.3999023438</ele>
        <time>2020-02-17T11:57:53.000Z</time>
      </trkpt>
      <trkpt lat="44.56727" lon="6.85619">
        <ele>2770.6000976562</ele>
        <time>2020-02-17T11:57:54.000Z</time>
      </trkpt>
      <trkpt lat="44.56729" lon="6.85619">
        <ele>2771.3999023438</ele>
        <time>2020-02-17T11:57:56.000Z</time>
      </trkpt>
      <trkpt lat="44.5673" lon="6.8562">
        <ele>2772</ele>
        <time>2020-02-17T11:57:59.000Z</time>
      </trkpt>
      <trkpt lat="44.56731" lon="6.85621">
        <ele>2772.6000976562</ele>
        <time>2020-02-17T11:58:01.000Z</time>
      </trkpt>
      <trkpt lat="44.56733" lon="6.85623">
        <ele>2773</ele>
        <time>2020-02-17T11:58:04.000Z</time>
      </trkpt>
      <trkpt lat="44.56741" lon="6.85626">
        <ele>2773.6000976562</ele>
        <time>2020-02-17T11:58:13.000Z</time>
      </trkpt>
      <trkpt lat="44.56743" lon="6.85626">
        <ele>2774.6000976562</ele>
        <time>2020-02-17T11:58:16.000Z</time>
      </trkpt>
      <trkpt lat="44.56746" lon="6.85629">
        <ele>2775.1999511719</ele>
        <time>2020-02-17T11:58:21.000Z</time>
      </trkpt>
      <trkpt lat="44.56749" lon="6.85629">
        <ele>2776</ele>
        <time>2020-02-17T11:58:26.000Z</time>
      </trkpt>
      <trkpt lat="44.56754" lon="6.85633">
        <ele>2777</ele>
        <time>2020-02-17T11:58:35.000Z</time>
      </trkpt>
      <trkpt lat="44.56757" lon="6.85637">
        <ele>2778</ele>
        <time>2020-02-17T11:58:44.000Z</time>
      </trkpt>
      <trkpt lat="44.5676" lon="6.85642">
        <ele>2778.6000976562</ele>
        <time>2020-02-17T11:58:55.000Z</time>
      </trkpt>
      <trkpt lat="44.56759" lon="6.85644">
        <ele>2779</ele>
        <time>2020-02-17T11:59:07.000Z</time>
      </trkpt>
      <trkpt lat="44.56759" lon="6.85644">
        <ele>2779.3999023438</ele>
        <time>2020-02-17T11:59:11.000Z</time>
      </trkpt>
      <trkpt lat="44.56761" lon="6.85637">
        <ele>2780.1999511719</ele>
        <time>2020-02-17T11:59:17.000Z</time>
      </trkpt>
      <trkpt lat="44.56762" lon="6.85631">
        <ele>2781.1999511719</ele>
        <time>2020-02-17T11:59:23.000Z</time>
      </trkpt>
      <trkpt lat="44.56763" lon="6.85624">
        <ele>2782.3999023438</ele>
        <time>2020-02-17T11:59:30.000Z</time>
      </trkpt>
      <trkpt lat="44.56765" lon="6.8562">
        <ele>2783.3999023438</ele>
        <time>2020-02-17T11:59:34.000Z</time>
      </trkpt>
      <trkpt lat="44.56766" lon="6.85616">
        <ele>2784</ele>
        <time>2020-02-17T11:59:38.000Z</time>
      </trkpt>
      <trkpt lat="44.56766" lon="6.85613">
        <ele>2784.6000976562</ele>
        <time>2020-02-17T11:59:41.000Z</time>
      </trkpt>
      <trkpt lat="44.56767" lon="6.85606">
        <ele>2785.8000488281</ele>
        <time>2020-02-17T11:59:47.000Z</time>
      </trkpt>
      <trkpt lat="44.56768" lon="6.85602">
        <ele>2786.6000976562</ele>
        <time>2020-02-17T11:59:51.000Z</time>
      </trkpt>
      <trkpt lat="44.56769" lon="6.856">
        <ele>2786.8000488281</ele>
        <time>2020-02-17T11:59:54.000Z</time>
      </trkpt>
      <trkpt lat="44.5677" lon="6.85593">
        <ele>2787.8000488281</ele>
        <time>2020-02-17T12:00:00.000Z</time>
      </trkpt>
      <trkpt lat="44.56772" lon="6.85586">
        <ele>2789</ele>
        <time>2020-02-17T12:00:06.000Z</time>
      </trkpt>
      <trkpt lat="44.56774" lon="6.85582">
        <ele>2790</ele>
        <time>2020-02-17T12:00:12.000Z</time>
      </trkpt>
      <trkpt lat="44.56775" lon="6.85576">
        <ele>2791</ele>
        <time>2020-02-17T12:00:17.000Z</time>
      </trkpt>
      <trkpt lat="44.56777" lon="6.8557">
        <ele>2792.1999511719</ele>
        <time>2020-02-17T12:00:25.000Z</time>
      </trkpt>
      <trkpt lat="44.56777" lon="6.85565">
        <ele>2793.3999023438</ele>
        <time>2020-02-17T12:00:35.000Z</time>
      </trkpt>
      <trkpt lat="44.56779" lon="6.85561">
        <ele>2794</ele>
        <time>2020-02-17T12:00:50.000Z</time>
      </trkpt>
      <trkpt lat="44.56782" lon="6.85562">
        <ele>2794.3999023438</ele>
        <time>2020-02-17T12:00:54.000Z</time>
      </trkpt>
      <trkpt lat="44.56784" lon="6.85562">
        <ele>2795</ele>
        <time>2020-02-17T12:00:56.000Z</time>
      </trkpt>
      <trkpt lat="44.56785" lon="6.85563">
        <ele>2795.1999511719</ele>
        <time>2020-02-17T12:00:57.000Z</time>
      </trkpt>
      <trkpt lat="44.56786" lon="6.85563">
        <ele>2795.3999023438</ele>
        <time>2020-02-17T12:00:58.000Z</time>
      </trkpt>
      <trkpt lat="44.56786" lon="6.85563">
        <ele>2795.6000976562</ele>
        <time>2020-02-17T12:00:59.000Z</time>
      </trkpt>
      <trkpt lat="44.56789" lon="6.85566">
        <ele>2796.6000976562</ele>
        <time>2020-02-17T12:01:04.000Z</time>
      </trkpt>
      <trkpt lat="44.56794" lon="6.85571">
        <ele>2797.8000488281</ele>
        <time>2020-02-17T12:01:12.000Z</time>
      </trkpt>
      <trkpt lat="44.56797" lon="6.85573">
        <ele>2798.8000488281</ele>
        <time>2020-02-17T12:01:16.000Z</time>
      </trkpt>
      <trkpt lat="44.568" lon="6.85575">
        <ele>2800</ele>
        <time>2020-02-17T12:01:20.000Z</time>
      </trkpt>
      <trkpt lat="44.56807" lon="6.8558">
        <ele>2801</ele>
        <time>2020-02-17T12:01:29.000Z</time>
      </trkpt>
      <trkpt lat="44.56811" lon="6.85585">
        <ele>2802.1999511719</ele>
        <time>2020-02-17T12:01:38.000Z</time>
      </trkpt>
      <trkpt lat="44.56812" lon="6.85587">
        <ele>2802.8000488281</ele>
        <time>2020-02-17T12:01:40.000Z</time>
      </trkpt>
      <trkpt lat="44.56813" lon="6.85589">
        <ele>2803.3999023438</ele>
        <time>2020-02-17T12:01:43.000Z</time>
      </trkpt>
      <trkpt lat="44.56814" lon="6.85589">
        <ele>2803.6000976562</ele>
        <time>2020-02-17T12:01:45.000Z</time>
      </trkpt>
      <trkpt lat="44.56818" lon="6.85593">
        <ele>2804.3999023438</ele>
        <time>2020-02-17T12:01:53.000Z</time>
      </trkpt>
      <trkpt lat="44.5682" lon="6.85595">
        <ele>2805.1999511719</ele>
        <time>2020-02-17T12:01:56.000Z</time>
      </trkpt>
      <trkpt lat="44.56821" lon="6.85597">
        <ele>2805.6000976562</ele>
        <time>2020-02-17T12:01:59.000Z</time>
      </trkpt>
      <trkpt lat="44.56825" lon="6.856">
        <ele>2806.8000488281</ele>
        <time>2020-02-17T12:02:07.000Z</time>
      </trkpt>
      <trkpt lat="44.56826" lon="6.85598">
        <ele>2807.8000488281</ele>
        <time>2020-02-17T12:02:12.000Z</time>
      </trkpt>
      <trkpt lat="44.56828" lon="6.85593">
        <ele>2809</ele>
        <time>2020-02-17T12:02:18.000Z</time>
      </trkpt>
      <trkpt lat="44.5683" lon="6.85584">
        <ele>2810.1999511719</ele>
        <time>2020-02-17T12:02:25.000Z</time>
      </trkpt>
      <trkpt lat="44.5683" lon="6.85583">
        <ele>2810.6000976562</ele>
        <time>2020-02-17T12:02:28.000Z</time>
      </trkpt>
      <trkpt lat="44.56829" lon="6.85582">
        <ele>2811</ele>
        <time>2020-02-17T12:02:32.000Z</time>
      </trkpt>
      <trkpt lat="44.5683" lon="6.85579">
        <ele>2811.1999511719</ele>
        <time>2020-02-17T12:02:38.000Z</time>
      </trkpt>
      <trkpt lat="44.5683" lon="6.85578">
        <ele>2811.3999023438</ele>
        <time>2020-02-17T12:02:43.000Z</time>
      </trkpt>
      <trkpt lat="44.56833" lon="6.8557">
        <ele>2812.3999023438</ele>
        <time>2020-02-17T12:02:51.000Z</time>
      </trkpt>
      <trkpt lat="44.56835" lon="6.85565">
        <ele>2813.6000976562</ele>
        <time>2020-02-17T12:02:57.000Z</time>
      </trkpt>
      <trkpt lat="44.56837" lon="6.8556">
        <ele>2814.6000976562</ele>
        <time>2020-02-17T12:03:02.000Z</time>
      </trkpt>
      <trkpt lat="44.56839" lon="6.85552">
        <ele>2815</ele>
        <time>2020-02-17T12:03:09.000Z</time>
      </trkpt>
      <trkpt lat="44.5684" lon="6.85549">
        <ele>2815.6000976562</ele>
        <time>2020-02-17T12:03:12.000Z</time>
      </trkpt>
      <trkpt lat="44.56842" lon="6.85542">
        <ele>2816.6000976562</ele>
        <time>2020-02-17T12:03:18.000Z</time>
      </trkpt>
      <trkpt lat="44.56842" lon="6.8554">
        <ele>2816.8000488281</ele>
        <time>2020-02-17T12:03:19.000Z</time>
      </trkpt>
      <trkpt lat="44.56844" lon="6.85536">
        <ele>2817.3999023438</ele>
        <time>2020-02-17T12:03:24.000Z</time>
      </trkpt>
      <trkpt lat="44.56846" lon="6.85529">
        <ele>2817.8000488281</ele>
        <time>2020-02-17T12:03:31.000Z</time>
      </trkpt>
      <trkpt lat="44.56846" lon="6.85525">
        <ele>2818</ele>
        <time>2020-02-17T12:03:35.000Z</time>
      </trkpt>
      <trkpt lat="44.56847" lon="6.85522">
        <ele>2818</ele>
        <time>2020-02-17T12:03:38.000Z</time>
      </trkpt>
      <trkpt lat="44.56848" lon="6.85515">
        <ele>2819</ele>
        <time>2020-02-17T12:03:44.000Z</time>
      </trkpt>
      <trkpt lat="44.56849" lon="6.85508">
        <ele>2819.1999511719</ele>
        <time>2020-02-17T12:03:50.000Z</time>
      </trkpt>
      <trkpt lat="44.56848" lon="6.85495">
        <ele>2819.3999023438</ele>
        <time>2020-02-17T12:04:00.000Z</time>
      </trkpt>
      <trkpt lat="44.56848" lon="6.85493">
        <ele>2819.6000976562</ele>
        <time>2020-02-17T12:04:02.000Z</time>
      </trkpt>
      <trkpt lat="44.56848" lon="6.85491">
        <ele>2819.1999511719</ele>
        <time>2020-02-17T12:04:13.000Z</time>
      </trkpt>
      <trkpt lat="44.56848" lon="6.85491">
        <ele>2818.8000488281</ele>
        <time>2020-02-17T12:04:18.000Z</time>
      </trkpt>
      <trkpt lat="44.56847" lon="6.85491">
        <ele>2818.3999023438</ele>
        <time>2020-02-17T12:04:22.000Z</time>
      </trkpt>
      <trkpt lat="44.56848" lon="6.85494">
        <ele>2818.3999023438</ele>
        <time>2020-02-17T12:04:32.000Z</time>
      </trkpt>
      <trkpt lat="44.56848" lon="6.85495">
        <ele>2818.1999511719</ele>
        <time>2020-02-17T12:04:39.000Z</time>
      </trkpt>
      <trkpt lat="44.56848" lon="6.85493">
        <ele>2818</ele>
        <time>2020-02-17T12:04:46.000Z</time>
      </trkpt>
      <trkpt lat="44.56848" lon="6.85493">
        <ele>2817.8000488281</ele>
        <time>2020-02-17T12:04:47.000Z</time>
      </trkpt>
      <trkpt lat="44.56848" lon="6.85492">
        <ele>2818.6000976562</ele>
        <time>2020-02-17T12:04:54.000Z</time>
      </trkpt>
      <trkpt lat="44.56847" lon="6.85493">
        <ele>2819</ele>
        <time>2020-02-17T12:04:58.000Z</time>
      </trkpt>
      <trkpt lat="44.56847" lon="6.8549">
        <ele>2818.8000488281</ele>
        <time>2020-02-17T12:05:14.000Z</time>
      </trkpt>
      <trkpt lat="44.56847" lon="6.8549">
        <ele>2819</ele>
        <time>2020-02-17T12:05:17.000Z</time>
      </trkpt>
      <trkpt lat="44.56847" lon="6.8549">
        <ele>2819</ele>
        <time>2020-02-17T12:05:21.000Z</time>
      </trkpt>
      <trkpt lat="44.56847" lon="6.8549">
        <ele>2819</ele>
        <time>2020-02-17T12:05:34.000Z</time>
      </trkpt>
      <trkpt lat="44.56849" lon="6.85495">
        <ele>2819</ele>
        <time>2020-02-17T12:06:02.000Z</time>
      </trkpt>
      <trkpt lat="44.56848" lon="6.85493">
        <ele>2819</ele>
        <time>2020-02-17T12:06:16.000Z</time>
      </trkpt>
      <trkpt lat="44.56848" lon="6.85493">
        <ele>2819</ele>
        <time>2020-02-17T12:06:17.000Z</time>
      </trkpt>
      <trkpt lat="44.56848" lon="6.85492">
        <ele>2819</ele>
        <time>2020-02-17T12:06:19.000Z</time>
      </trkpt>
      <trkpt lat="44.56847" lon="6.85492">
        <ele>2819</ele>
        <time>2020-02-17T12:06:27.000Z</time>
      </trkpt>
      <trkpt lat="44.56847" lon="6.85492">
        <ele>2819</ele>
        <time>2020-02-17T12:06:53.000Z</time>
      </trkpt>
      <trkpt lat="44.56847" lon="6.85493">
        <ele>2819</ele>
        <time>2020-02-17T12:06:58.000Z</time>
      </trkpt>
      <trkpt lat="44.56848" lon="6.85493">
        <ele>2819</ele>
        <time>2020-02-17T12:07:00.000Z</time>
      </trkpt>
      <trkpt lat="44.56847" lon="6.85493">
        <ele>2819</ele>
        <time>2020-02-17T12:07:16.000Z</time>
      </trkpt>
      <trkpt lat="44.56847" lon="6.85493">
        <ele>2819</ele>
        <time>2020-02-17T12:07:25.000Z</time>
      </trkpt>
      <trkpt lat="44.56847" lon="6.85493">
        <ele>2819</ele>
        <time>2020-02-17T12:07:27.000Z</time>
      </trkpt>
      <trkpt lat="44.56848" lon="6.85493">
        <ele>2819</ele>
        <time>2020-02-17T12:07:31.000Z</time>
      </trkpt>
      <trkpt lat="44.56848" lon="6.85493">
        <ele>2819</ele>
        <time>2020-02-17T12:07:32.000Z</time>
      </trkpt>
      <trkpt lat="44.56848" lon="6.85493">
        <ele>2819</ele>
        <time>2020-02-17T12:07:33.000Z</time>
      </trkpt>
      <trkpt lat="44.56848" lon="6.85493">
        <ele>2819</ele>
        <time>2020-02-17T12:07:37.000Z</time>
      </trkpt>
      <trkpt lat="44.56848" lon="6.85493">
        <ele>2819</ele>
        <time>2020-02-17T12:07:38.000Z</time>
      </trkpt>
      <trkpt lat="44.56848" lon="6.85493">
        <ele>2819</ele>
        <time>2020-02-17T12:07:39.000Z</time>
      </trkpt>
      <trkpt lat="44.56848" lon="6.85494">
        <ele>2819</ele>
        <time>2020-02-17T12:07:41.000Z</time>
      </trkpt>
      <trkpt lat="44.56848" lon="6.85494">
        <ele>2819</ele>
        <time>2020-02-17T12:07:43.000Z</time>
      </trkpt>
      <trkpt lat="44.56849" lon="6.85494">
        <ele>2819</ele>
        <time>2020-02-17T12:07:48.000Z</time>
      </trkpt>
      <trkpt lat="44.5685" lon="6.85494">
        <ele>2819</ele>
        <time>2020-02-17T12:07:51.000Z</time>
      </trkpt>
      <trkpt lat="44.5685" lon="6.85494">
        <ele>2819</ele>
        <time>2020-02-17T12:07:56.000Z</time>
      </trkpt>
      <trkpt lat="44.56849" lon="6.85494">
        <ele>2819</ele>
        <time>2020-02-17T12:08:04.000Z</time>
      </trkpt>
      <trkpt lat="44.56848" lon="6.85492">
        <ele>2819</ele>
        <time>2020-02-17T12:08:10.000Z</time>
      </trkpt>
      <trkpt lat="44.56848" lon="6.85492">
        <ele>2819</ele>
        <time>2020-02-17T12:08:11.000Z</time>
      </trkpt>
      <trkpt lat="44.56848" lon="6.85493">
        <ele>2819</ele>
        <time>2020-02-17T12:08:18.000Z</time>
      </trkpt>
      <trkpt lat="44.56848" lon="6.85493">
        <ele>2819</ele>
        <time>2020-02-17T12:08:21.000Z</time>
      </trkpt>
      <trkpt lat="44.56847" lon="6.85493">
        <ele>2819</ele>
        <time>2020-02-17T12:08:26.000Z</time>
      </trkpt>
      <trkpt lat="44.56847" lon="6.85494">
        <ele>2819</ele>
        <time>2020-02-17T12:08:37.000Z</time>
      </trkpt>
      <trkpt lat="44.56848" lon="6.85493">
        <ele>2819</ele>
        <time>2020-02-17T12:08:42.000Z</time>
      </trkpt>
      <trkpt lat="44.56847" lon="6.85493">
        <ele>2819</ele>
        <time>2020-02-17T12:09:02.000Z</time>
      </trkpt>
      <trkpt lat="44.56847" lon="6.85493">
        <ele>2819</ele>
        <time>2020-02-17T12:09:16.000Z</time>
      </trkpt>
      <trkpt lat="44.56847" lon="6.85493">
        <ele>2819</ele>
        <time>2020-02-17T12:09:18.000Z</time>
      </trkpt>
      <trkpt lat="44.56848" lon="6.85493">
        <ele>2819</ele>
        <time>2020-02-17T12:09:26.000Z</time>
      </trkpt>
      <trkpt lat="44.56847" lon="6.85493">
        <ele>2819</ele>
        <time>2020-02-17T12:09:43.000Z</time>
      </trkpt>
      <trkpt lat="44.56847" lon="6.85493">
        <ele>2819</ele>
        <time>2020-02-17T12:09:45.000Z</time>
      </trkpt>
      <trkpt lat="44.56848" lon="6.85491">
        <ele>2819</ele>
        <time>2020-02-17T12:10:02.000Z</time>
      </trkpt>
      <trkpt lat="44.56848" lon="6.8549">
        <ele>2819</ele>
        <time>2020-02-17T12:10:11.000Z</time>
      </trkpt>
      <trkpt lat="44.56849" lon="6.8549">
        <ele>2819</ele>
        <time>2020-02-17T12:10:20.000Z</time>
      </trkpt>
      <trkpt lat="44.56849" lon="6.8549">
        <ele>2819</ele>
        <time>2020-02-17T12:10:22.000Z</time>
      </trkpt>
      <trkpt lat="44.56848" lon="6.8549">
        <ele>2819</ele>
        <time>2020-02-17T12:10:25.000Z</time>
      </trkpt>
      <trkpt lat="44.56848" lon="6.85488">
        <ele>2819</ele>
        <time>2020-02-17T12:10:34.000Z</time>
      </trkpt>
      <trkpt lat="44.56848" lon="6.85489">
        <ele>2819</ele>
        <time>2020-02-17T12:10:41.000Z</time>
      </trkpt>
      <trkpt lat="44.56847" lon="6.8549">
        <ele>2819</ele>
        <time>2020-02-17T12:11:10.000Z</time>
      </trkpt>
      <trkpt lat="44.56848" lon="6.8549">
        <ele>2819</ele>
        <time>2020-02-17T12:11:15.000Z</time>
      </trkpt>
      <trkpt lat="44.56848" lon="6.8549">
        <ele>2819</ele>
        <time>2020-02-17T12:11:18.000Z</time>
      </trkpt>
      <trkpt lat="44.56848" lon="6.8549">
        <ele>2819</ele>
        <time>2020-02-17T12:11:24.000Z</time>
      </trkpt>
      <trkpt lat="44.56849" lon="6.85492">
        <ele>2819</ele>
        <time>2020-02-17T12:11:53.000Z</time>
      </trkpt>
      <trkpt lat="44.5685" lon="6.85496">
        <ele>2819</ele>
        <time>2020-02-17T12:12:10.000Z</time>
      </trkpt>
      <trkpt lat="44.56851" lon="6.85495">
        <ele>2819</ele>
        <time>2020-02-17T12:12:12.000Z</time>
      </trkpt>
      <trkpt lat="44.56851" lon="6.85494">
        <ele>2819</ele>
        <time>2020-02-17T12:12:30.000Z</time>
      </trkpt>
      <trkpt lat="44.56851" lon="6.85494">
        <ele>2819</ele>
        <time>2020-02-17T12:12:33.000Z</time>
      </trkpt>
      <trkpt lat="44.5685" lon="6.85492">
        <ele>2819</ele>
        <time>2020-02-17T12:12:40.000Z</time>
      </trkpt>
      <trkpt lat="44.56849" lon="6.85492">
        <ele>2819</ele>
        <time>2020-02-17T12:12:47.000Z</time>
      </trkpt>
      <trkpt lat="44.56849" lon="6.85493">
        <ele>2819</ele>
        <time>2020-02-17T12:12:51.000Z</time>
      </trkpt>
      <trkpt lat="44.56847" lon="6.85493">
        <ele>2819</ele>
        <time>2020-02-17T12:12:56.000Z</time>
      </trkpt>
      <trkpt lat="44.56847" lon="6.85493">
        <ele>2819</ele>
        <time>2020-02-17T12:12:59.000Z</time>
      </trkpt>
      <trkpt lat="44.56847" lon="6.85493">
        <ele>2819</ele>
        <time>2020-02-17T12:13:00.000Z</time>
      </trkpt>
      <trkpt lat="44.56848" lon="6.85496">
        <ele>2819</ele>
        <time>2020-02-17T12:13:08.000Z</time>
      </trkpt>
      <trkpt lat="44.56847" lon="6.85494">
        <ele>2819</ele>
        <time>2020-02-17T12:13:22.000Z</time>
      </trkpt>
      <trkpt lat="44.56847" lon="6.85494">
        <ele>2819</ele>
        <time>2020-02-17T12:13:27.000Z</time>
      </trkpt>
      <trkpt lat="44.56848" lon="6.85495">
        <ele>2819</ele>
        <time>2020-02-17T12:13:42.000Z</time>
      </trkpt>
      <trkpt lat="44.56849" lon="6.85494">
        <ele>2819</ele>
        <time>2020-02-17T12:13:45.000Z</time>
      </trkpt>
      <trkpt lat="44.56849" lon="6.85494">
        <ele>2819</ele>
        <time>2020-02-17T12:13:48.000Z</time>
      </trkpt>
      <trkpt lat="44.56848" lon="6.85492">
        <ele>2819</ele>
        <time>2020-02-17T12:13:56.000Z</time>
      </trkpt>
      <trkpt lat="44.56849" lon="6.85494">
        <ele>2819</ele>
        <time>2020-02-17T12:14:01.000Z</time>
      </trkpt>
      <trkpt lat="44.5685" lon="6.85494">
        <ele>2819</ele>
        <time>2020-02-17T12:14:03.000Z</time>
      </trkpt>
      <trkpt lat="44.56849" lon="6.85494">
        <ele>2819</ele>
        <time>2020-02-17T12:14:17.000Z</time>
      </trkpt>
      <trkpt lat="44.56848" lon="6.85489">
        <ele>2819</ele>
        <time>2020-02-17T12:14:32.000Z</time>
      </trkpt>
      <trkpt lat="44.56848" lon="6.85489">
        <ele>2819</ele>
        <time>2020-02-17T12:14:34.000Z</time>
      </trkpt>
      <trkpt lat="44.56848" lon="6.85491">
        <ele>2819</ele>
        <time>2020-02-17T12:14:41.000Z</time>
      </trkpt>
      <trkpt lat="44.5685" lon="6.85493">
        <ele>2819</ele>
        <time>2020-02-17T12:14:51.000Z</time>
      </trkpt>
      <trkpt lat="44.56849" lon="6.85493">
        <ele>2819</ele>
        <time>2020-02-17T12:14:54.000Z</time>
      </trkpt>
      <trkpt lat="44.56847" lon="6.85495">
        <ele>2819</ele>
        <time>2020-02-17T12:15:02.000Z</time>
      </trkpt>
      <trkpt lat="44.56847" lon="6.85496">
        <ele>2819</ele>
        <time>2020-02-17T12:15:06.000Z</time>
      </trkpt>
      <trkpt lat="44.56846" lon="6.85495">
        <ele>2819</ele>
        <time>2020-02-17T12:15:10.000Z</time>
      </trkpt>
      <trkpt lat="44.56848" lon="6.85494">
        <ele>2819</ele>
        <time>2020-02-17T12:15:16.000Z</time>
      </trkpt>
      <trkpt lat="44.56848" lon="6.85494">
        <ele>2819</ele>
        <time>2020-02-17T12:15:24.000Z</time>
      </trkpt>
      <trkpt lat="44.56848" lon="6.85495">
        <ele>2819</ele>
        <time>2020-02-17T12:15:28.000Z</time>
      </trkpt>
      <trkpt lat="44.56848" lon="6.85495">
        <ele>2819</ele>
        <time>2020-02-17T12:15:31.000Z</time>
      </trkpt>
      <trkpt lat="44.5685" lon="6.85495">
        <ele>2819</ele>
        <time>2020-02-17T12:15:38.000Z</time>
      </trkpt>
      <trkpt lat="44.56849" lon="6.85495">
        <ele>2819</ele>
        <time>2020-02-17T12:15:43.000Z</time>
      </trkpt>
      <trkpt lat="44.56849" lon="6.85495">
        <ele>2819</ele>
        <time>2020-02-17T12:15:45.000Z</time>
      </trkpt>
      <trkpt lat="44.56849" lon="6.85495">
        <ele>2819</ele>
        <time>2020-02-17T12:15:47.000Z</time>
      </trkpt>
      <trkpt lat="44.56851" lon="6.85496">
        <ele>2819</ele>
        <time>2020-02-17T12:15:59.000Z</time>
      </trkpt>
      <trkpt lat="44.56852" lon="6.85495">
        <ele>2819</ele>
        <time>2020-02-17T12:16:16.000Z</time>
      </trkpt>
      <trkpt lat="44.56852" lon="6.85495">
        <ele>2819</ele>
        <time>2020-02-17T12:16:18.000Z</time>
      </trkpt>
      <trkpt lat="44.56852" lon="6.85495">
        <ele>2819</ele>
        <time>2020-02-17T12:16:20.000Z</time>
      </trkpt>
      <trkpt lat="44.56852" lon="6.85495">
        <ele>2819</ele>
        <time>2020-02-17T12:16:25.000Z</time>
      </trkpt>
      <trkpt lat="44.56852" lon="6.85495">
        <ele>2819</ele>
        <time>2020-02-17T12:16:30.000Z</time>
      </trkpt>
      <trkpt lat="44.56852" lon="6.85495">
        <ele>2819</ele>
        <time>2020-02-17T12:16:31.000Z</time>
      </trkpt>
      <trkpt lat="44.56852" lon="6.85495">
        <ele>2819</ele>
        <time>2020-02-17T12:16:32.000Z</time>
      </trkpt>
      <trkpt lat="44.56852" lon="6.85495">
        <ele>2819</ele>
        <time>2020-02-17T12:16:34.000Z</time>
      </trkpt>
      <trkpt lat="44.56852" lon="6.85495">
        <ele>2819</ele>
        <time>2020-02-17T12:16:35.000Z</time>
      </trkpt>
      <trkpt lat="44.56852" lon="6.85494">
        <ele>2819</ele>
        <time>2020-02-17T12:16:37.000Z</time>
      </trkpt>
      <trkpt lat="44.56852" lon="6.85494">
        <ele>2819</ele>
        <time>2020-02-17T12:16:39.000Z</time>
      </trkpt>
      <trkpt lat="44.56852" lon="6.85493">
        <ele>2819</ele>
        <time>2020-02-17T12:16:45.000Z</time>
      </trkpt>
      <trkpt lat="44.56852" lon="6.85493">
        <ele>2819</ele>
        <time>2020-02-17T12:16:48.000Z</time>
      </trkpt>
      <trkpt lat="44.56852" lon="6.85493">
        <ele>2819</ele>
        <time>2020-02-17T12:16:58.000Z</time>
      </trkpt>
      <trkpt lat="44.56852" lon="6.85493">
        <ele>2819</ele>
        <time>2020-02-17T12:17:01.000Z</time>
      </trkpt>
      <trkpt lat="44.56852" lon="6.85493">
        <ele>2819</ele>
        <time>2020-02-17T12:17:02.000Z</time>
      </trkpt>
      <trkpt lat="44.56852" lon="6.85493">
        <ele>2819</ele>
        <time>2020-02-17T12:17:03.000Z</time>
      </trkpt>
      <trkpt lat="44.56852" lon="6.85493">
        <ele>2819</ele>
        <time>2020-02-17T12:17:04.000Z</time>
      </trkpt>
      <trkpt lat="44.56852" lon="6.85493">
        <ele>2819</ele>
        <time>2020-02-17T12:17:07.000Z</time>
      </trkpt>
      <trkpt lat="44.56852" lon="6.85494">
        <ele>2819</ele>
        <time>2020-02-17T12:17:08.000Z</time>
      </trkpt>
      <trkpt lat="44.56852" lon="6.85494">
        <ele>2819</ele>
        <time>2020-02-17T12:17:09.000Z</time>
      </trkpt>
      <trkpt lat="44.56852" lon="6.85494">
        <ele>2819</ele>
        <time>2020-02-17T12:17:11.000Z</time>
      </trkpt>
      <trkpt lat="44.56849" lon="6.85494">
        <ele>2819</ele>
        <time>2020-02-17T12:17:29.000Z</time>
      </trkpt>
      <trkpt lat="44.56848" lon="6.85494">
        <ele>2819</ele>
        <time>2020-02-17T12:17:30.000Z</time>
      </trkpt>
      <trkpt lat="44.56848" lon="6.85494">
        <ele>2819</ele>
        <time>2020-02-17T12:17:32.000Z</time>
      </trkpt>
      <trkpt lat="44.56846" lon="6.85496">
        <ele>2819</ele>
        <time>2020-02-17T12:17:40.000Z</time>
      </trkpt>
      <trkpt lat="44.56846" lon="6.85496">
        <ele>2819</ele>
        <time>2020-02-17T12:17:42.000Z</time>
      </trkpt>
      <trkpt lat="44.56847" lon="6.85496">
        <ele>2819</ele>
        <time>2020-02-17T12:17:51.000Z</time>
      </trkpt>
      <trkpt lat="44.56847" lon="6.85496">
        <ele>2819</ele>
        <time>2020-02-17T12:17:56.000Z</time>
      </trkpt>
      <trkpt lat="44.56847" lon="6.85495">
        <ele>2819</ele>
        <time>2020-02-17T12:18:00.000Z</time>
      </trkpt>
      <trkpt lat="44.56848" lon="6.85495">
        <ele>2819</ele>
        <time>2020-02-17T12:18:03.000Z</time>
      </trkpt>
      <trkpt lat="44.56849" lon="6.85495">
        <ele>2819</ele>
        <time>2020-02-17T12:18:07.000Z</time>
      </trkpt>
      <trkpt lat="44.56849" lon="6.85495">
        <ele>2819</ele>
        <time>2020-02-17T12:18:10.000Z</time>
      </trkpt>
      <trkpt lat="44.56848" lon="6.85496">
        <ele>2819</ele>
        <time>2020-02-17T12:18:18.000Z</time>
      </trkpt>
      <trkpt lat="44.56848" lon="6.85496">
        <ele>2819</ele>
        <time>2020-02-17T12:18:25.000Z</time>
      </trkpt>
      <trkpt lat="44.56848" lon="6.85497">
        <ele>2819</ele>
        <time>2020-02-17T12:18:27.000Z</time>
      </trkpt>
      <trkpt lat="44.56848" lon="6.85497">
        <ele>2819</ele>
        <time>2020-02-17T12:18:28.000Z</time>
      </trkpt>
      <trkpt lat="44.56848" lon="6.85496">
        <ele>2819</ele>
        <time>2020-02-17T12:18:33.000Z</time>
      </trkpt>
      <trkpt lat="44.56848" lon="6.85498">
        <ele>2819</ele>
        <time>2020-02-17T12:18:40.000Z</time>
      </trkpt>
      <trkpt lat="44.56849" lon="6.85498">
        <ele>2819</ele>
        <time>2020-02-17T12:18:41.000Z</time>
      </trkpt>
      <trkpt lat="44.56849" lon="6.85499">
        <ele>2819</ele>
        <time>2020-02-17T12:18:42.000Z</time>
      </trkpt>
      <trkpt lat="44.56849" lon="6.85499">
        <ele>2819</ele>
        <time>2020-02-17T12:18:43.000Z</time>
      </trkpt>
      <trkpt lat="44.5685" lon="6.85497">
        <ele>2819</ele>
        <time>2020-02-17T12:18:50.000Z</time>
      </trkpt>
      <trkpt lat="44.5685" lon="6.85495">
        <ele>2819</ele>
        <time>2020-02-17T12:18:54.000Z</time>
      </trkpt>
      <trkpt lat="44.5685" lon="6.85495">
        <ele>2819</ele>
        <time>2020-02-17T12:18:56.000Z</time>
      </trkpt>
      <trkpt lat="44.5685" lon="6.85495">
        <ele>2819</ele>
        <time>2020-02-17T12:18:58.000Z</time>
      </trkpt>
      <trkpt lat="44.5685" lon="6.85495">
        <ele>2819</ele>
        <time>2020-02-17T12:19:07.000Z</time>
      </trkpt>
      <trkpt lat="44.5685" lon="6.85496">
        <ele>2819</ele>
        <time>2020-02-17T12:19:20.000Z</time>
      </trkpt>
      <trkpt lat="44.5685" lon="6.85501">
        <ele>2819</ele>
        <time>2020-02-17T12:19:27.000Z</time>
      </trkpt>
      <trkpt lat="44.56849" lon="6.85502">
        <ele>2819</ele>
        <time>2020-02-17T12:19:36.000Z</time>
      </trkpt>
      <trkpt lat="44.5685" lon="6.85501">
        <ele>2819</ele>
        <time>2020-02-17T12:19:43.000Z</time>
      </trkpt>
      <trkpt lat="44.5685" lon="6.85499">
        <ele>2819</ele>
        <time>2020-02-17T12:19:58.000Z</time>
      </trkpt>
      <trkpt lat="44.5685" lon="6.85499">
        <ele>2819</ele>
        <time>2020-02-17T12:19:59.000Z</time>
      </trkpt>
      <trkpt lat="44.5685" lon="6.85499">
        <ele>2819</ele>
        <time>2020-02-17T12:20:00.000Z</time>
      </trkpt>
      <trkpt lat="44.5685" lon="6.85499">
        <ele>2819</ele>
        <time>2020-02-17T12:20:05.000Z</time>
      </trkpt>
      <trkpt lat="44.5685" lon="6.85499">
        <ele>2819</ele>
        <time>2020-02-17T12:20:07.000Z</time>
      </trkpt>
      <trkpt lat="44.5685" lon="6.85498">
        <ele>2819</ele>
        <time>2020-02-17T12:20:14.000Z</time>
      </trkpt>
      <trkpt lat="44.5685" lon="6.85498">
        <ele>2819</ele>
        <time>2020-02-17T12:20:15.000Z</time>
      </trkpt>
      <trkpt lat="44.5685" lon="6.85499">
        <ele>2819</ele>
        <time>2020-02-17T12:20:23.000Z</time>
      </trkpt>
      <trkpt lat="44.5685" lon="6.85499">
        <ele>2819</ele>
        <time>2020-02-17T12:20:28.000Z</time>
      </trkpt>
      <trkpt lat="44.5685" lon="6.85499">
        <ele>2819</ele>
        <time>2020-02-17T12:20:31.000Z</time>
      </trkpt>
      <trkpt lat="44.5685" lon="6.85499">
        <ele>2819</ele>
        <time>2020-02-17T12:20:32.000Z</time>
      </trkpt>
      <trkpt lat="44.5685" lon="6.85499">
        <ele>2819</ele>
        <time>2020-02-17T12:20:33.000Z</time>
      </trkpt>
      <trkpt lat="44.5685" lon="6.85499">
        <ele>2819</ele>
        <time>2020-02-17T12:20:35.000Z</time>
      </trkpt>
      <trkpt lat="44.5685" lon="6.85499">
        <ele>2819</ele>
        <time>2020-02-17T12:20:36.000Z</time>
      </trkpt>
      <trkpt lat="44.5685" lon="6.85499">
        <ele>2819</ele>
        <time>2020-02-17T12:20:39.000Z</time>
      </trkpt>
      <trkpt lat="44.5685" lon="6.85499">
        <ele>2819</ele>
        <time>2020-02-17T12:20:44.000Z</time>
      </trkpt>
      <trkpt lat="44.5685" lon="6.85499">
        <ele>2819</ele>
        <time>2020-02-17T12:20:47.000Z</time>
      </trkpt>
      <trkpt lat="44.5685" lon="6.85499">
        <ele>2819</ele>
        <time>2020-02-17T12:20:50.000Z</time>
      </trkpt>
      <trkpt lat="44.5685" lon="6.85499">
        <ele>2819</ele>
        <time>2020-02-17T12:20:52.000Z</time>
      </trkpt>
      <trkpt lat="44.56851" lon="6.855">
        <ele>2819</ele>
        <time>2020-02-17T12:21:02.000Z</time>
      </trkpt>
      <trkpt lat="44.5685" lon="6.855">
        <ele>2819</ele>
        <time>2020-02-17T12:21:03.000Z</time>
      </trkpt>
      <trkpt lat="44.5685" lon="6.855">
        <ele>2819</ele>
        <time>2020-02-17T12:21:06.000Z</time>
      </trkpt>
      <trkpt lat="44.5685" lon="6.855">
        <ele>2819</ele>
        <time>2020-02-17T12:21:15.000Z</time>
      </trkpt>
      <trkpt lat="44.5685" lon="6.855">
        <ele>2819</ele>
        <time>2020-02-17T12:21:16.000Z</time>
      </trkpt>
      <trkpt lat="44.5685" lon="6.855">
        <ele>2819</ele>
        <time>2020-02-17T12:21:19.000Z</time>
      </trkpt>
      <trkpt lat="44.5685" lon="6.855">
        <ele>2819</ele>
        <time>2020-02-17T12:21:21.000Z</time>
      </trkpt>
      <trkpt lat="44.56849" lon="6.855">
        <ele>2819</ele>
        <time>2020-02-17T12:21:25.000Z</time>
      </trkpt>
      <trkpt lat="44.5685" lon="6.855">
        <ele>2819</ele>
        <time>2020-02-17T12:21:29.000Z</time>
      </trkpt>
      <trkpt lat="44.5685" lon="6.855">
        <ele>2819</ele>
        <time>2020-02-17T12:21:31.000Z</time>
      </trkpt>
      <trkpt lat="44.5685" lon="6.855">
        <ele>2819</ele>
        <time>2020-02-17T12:21:33.000Z</time>
      </trkpt>
      <trkpt lat="44.56851" lon="6.855">
        <ele>2819</ele>
        <time>2020-02-17T12:21:41.000Z</time>
      </trkpt>
      <trkpt lat="44.56851" lon="6.85499">
        <ele>2819</ele>
        <time>2020-02-17T12:21:51.000Z</time>
      </trkpt>
      <trkpt lat="44.56851" lon="6.85499">
        <ele>2819</ele>
        <time>2020-02-17T12:21:52.000Z</time>
      </trkpt>
      <trkpt lat="44.56851" lon="6.85499">
        <ele>2819</ele>
        <time>2020-02-17T12:21:53.000Z</time>
      </trkpt>
      <trkpt lat="44.56851" lon="6.85499">
        <ele>2819</ele>
        <time>2020-02-17T12:21:54.000Z</time>
      </trkpt>
      <trkpt lat="44.56851" lon="6.85499">
        <ele>2819</ele>
        <time>2020-02-17T12:21:55.000Z</time>
      </trkpt>
      <trkpt lat="44.5685" lon="6.85499">
        <ele>2819</ele>
        <time>2020-02-17T12:21:59.000Z</time>
      </trkpt>
      <trkpt lat="44.5685" lon="6.85499">
        <ele>2819</ele>
        <time>2020-02-17T12:22:01.000Z</time>
      </trkpt>
      <trkpt lat="44.56851" lon="6.85499">
        <ele>2819</ele>
        <time>2020-02-17T12:22:03.000Z</time>
      </trkpt>
      <trkpt lat="44.5685" lon="6.85499">
        <ele>2819</ele>
        <time>2020-02-17T12:22:05.000Z</time>
      </trkpt>
      <trkpt lat="44.56851" lon="6.85499">
        <ele>2819</ele>
        <time>2020-02-17T12:22:08.000Z</time>
      </trkpt>
      <trkpt lat="44.56851" lon="6.85499">
        <ele>2819</ele>
        <time>2020-02-17T12:22:13.000Z</time>
      </trkpt>
      <trkpt lat="44.56851" lon="6.85498">
        <ele>2819</ele>
        <time>2020-02-17T12:22:18.000Z</time>
      </trkpt>
      <trkpt lat="44.56851" lon="6.85498">
        <ele>2819</ele>
        <time>2020-02-17T12:22:20.000Z</time>
      </trkpt>
      <trkpt lat="44.56851" lon="6.85498">
        <ele>2819</ele>
        <time>2020-02-17T12:22:24.000Z</time>
      </trkpt>
      <trkpt lat="44.56851" lon="6.85498">
        <ele>2819</ele>
        <time>2020-02-17T12:22:26.000Z</time>
      </trkpt>
      <trkpt lat="44.56851" lon="6.85499">
        <ele>2819</ele>
        <time>2020-02-17T12:22:29.000Z</time>
      </trkpt>
      <trkpt lat="44.56851" lon="6.85499">
        <ele>2819</ele>
        <time>2020-02-17T12:22:31.000Z</time>
      </trkpt>
      <trkpt lat="44.5685" lon="6.85499">
        <ele>2819</ele>
        <time>2020-02-17T12:22:37.000Z</time>
      </trkpt>
      <trkpt lat="44.5685" lon="6.85498">
        <ele>2819</ele>
        <time>2020-02-17T12:22:40.000Z</time>
      </trkpt>
      <trkpt lat="44.5685" lon="6.85498">
        <ele>2819</ele>
        <time>2020-02-17T12:22:42.000Z</time>
      </trkpt>
      <trkpt lat="44.5685" lon="6.85498">
        <ele>2819</ele>
        <time>2020-02-17T12:22:45.000Z</time>
      </trkpt>
      <trkpt lat="44.5685" lon="6.85498">
        <ele>2819</ele>
        <time>2020-02-17T12:22:49.000Z</time>
      </trkpt>
      <trkpt lat="44.5685" lon="6.85498">
        <ele>2819</ele>
        <time>2020-02-17T12:22:55.000Z</time>
      </trkpt>
      <trkpt lat="44.5685" lon="6.85498">
        <ele>2819</ele>
        <time>2020-02-17T12:23:01.000Z</time>
      </trkpt>
      <trkpt lat="44.5685" lon="6.85499">
        <ele>2819</ele>
        <time>2020-02-17T12:23:04.000Z</time>
      </trkpt>
      <trkpt lat="44.5685" lon="6.85499">
        <ele>2819</ele>
        <time>2020-02-17T12:23:05.000Z</time>
      </trkpt>
      <trkpt lat="44.56851" lon="6.85498">
        <ele>2819</ele>
        <time>2020-02-17T12:23:07.000Z</time>
      </trkpt>
      <trkpt lat="44.56852" lon="6.85494">
        <ele>2819</ele>
        <time>2020-02-17T12:23:12.000Z</time>
      </trkpt>
      <trkpt lat="44.56852" lon="6.85494">
        <ele>2819</ele>
        <time>2020-02-17T12:23:13.000Z</time>
      </trkpt>
      <trkpt lat="44.56852" lon="6.85494">
        <ele>2819</ele>
        <time>2020-02-17T12:23:14.000Z</time>
      </trkpt>
      <trkpt lat="44.56852" lon="6.85494">
        <ele>2819</ele>
        <time>2020-02-17T12:23:15.000Z</time>
      </trkpt>
      <trkpt lat="44.56852" lon="6.85494">
        <ele>2819</ele>
        <time>2020-02-17T12:23:19.000Z</time>
      </trkpt>
      <trkpt lat="44.56852" lon="6.85494">
        <ele>2819</ele>
        <time>2020-02-17T12:23:21.000Z</time>
      </trkpt>
      <trkpt lat="44.56852" lon="6.85494">
        <ele>2819</ele>
        <time>2020-02-17T12:23:23.000Z</time>
      </trkpt>
      <trkpt lat="44.56852" lon="6.85494">
        <ele>2819</ele>
        <time>2020-02-17T12:23:25.000Z</time>
      </trkpt>
      <trkpt lat="44.56852" lon="6.85494">
        <ele>2819</ele>
        <time>2020-02-17T12:23:27.000Z</time>
      </trkpt>
      <trkpt lat="44.56852" lon="6.85494">
        <ele>2819</ele>
        <time>2020-02-17T12:23:31.000Z</time>
      </trkpt>
      <trkpt lat="44.56852" lon="6.85494">
        <ele>2819</ele>
        <time>2020-02-17T12:23:34.000Z</time>
      </trkpt>
      <trkpt lat="44.56852" lon="6.85494">
        <ele>2819</ele>
        <time>2020-02-17T12:23:45.000Z</time>
      </trkpt>
      <trkpt lat="44.56852" lon="6.85494">
        <ele>2819</ele>
        <time>2020-02-17T12:23:46.000Z</time>
      </trkpt>
      <trkpt lat="44.56852" lon="6.85494">
        <ele>2819</ele>
        <time>2020-02-17T12:23:47.000Z</time>
      </trkpt>
      <trkpt lat="44.56852" lon="6.85494">
        <ele>2819</ele>
        <time>2020-02-17T12:23:49.000Z</time>
      </trkpt>
      <trkpt lat="44.56852" lon="6.85494">
        <ele>2819</ele>
        <time>2020-02-17T12:23:54.000Z</time>
      </trkpt>
      <trkpt lat="44.56852" lon="6.85494">
        <ele>2819</ele>
        <time>2020-02-17T12:23:58.000Z</time>
      </trkpt>
      <trkpt lat="44.56852" lon="6.85494">
        <ele>2819</ele>
        <time>2020-02-17T12:24:18.000Z</time>
      </trkpt>
      <trkpt lat="44.56852" lon="6.85494">
        <ele>2819</ele>
        <time>2020-02-17T12:24:19.000Z</time>
      </trkpt>
      <trkpt lat="44.56852" lon="6.85494">
        <ele>2819</ele>
        <time>2020-02-17T12:24:20.000Z</time>
      </trkpt>
      <trkpt lat="44.56852" lon="6.85494">
        <ele>2819</ele>
        <time>2020-02-17T12:24:21.000Z</time>
      </trkpt>
      <trkpt lat="44.56852" lon="6.85494">
        <ele>2819</ele>
        <time>2020-02-17T12:24:22.000Z</time>
      </trkpt>
      <trkpt lat="44.56852" lon="6.85494">
        <ele>2819</ele>
        <time>2020-02-17T12:24:23.000Z</time>
      </trkpt>
      <trkpt lat="44.56852" lon="6.85494">
        <ele>2819</ele>
        <time>2020-02-17T12:24:24.000Z</time>
      </trkpt>
      <trkpt lat="44.56852" lon="6.85494">
        <ele>2819</ele>
        <time>2020-02-17T12:24:25.000Z</time>
      </trkpt>
      <trkpt lat="44.56852" lon="6.85494">
        <ele>2819</ele>
        <time>2020-02-17T12:24:28.000Z</time>
      </trkpt>
      <trkpt lat="44.56852" lon="6.85494">
        <ele>2819</ele>
        <time>2020-02-17T12:24:34.000Z</time>
      </trkpt>
      <trkpt lat="44.56852" lon="6.85494">
        <ele>2819</ele>
        <time>2020-02-17T12:24:40.000Z</time>
      </trkpt>
      <trkpt lat="44.56852" lon="6.85493">
        <ele>2819</ele>
        <time>2020-02-17T12:24:47.000Z</time>
      </trkpt>
      <trkpt lat="44.56854" lon="6.85491">
        <ele>2819</ele>
        <time>2020-02-17T12:25:02.000Z</time>
      </trkpt>
      <trkpt lat="44.56865" lon="6.8549">
        <ele>2819</ele>
        <time>2020-02-17T12:25:08.000Z</time>
      </trkpt>
      <trkpt lat="44.56869" lon="6.85491">
        <ele>2816.3999023438</ele>
        <time>2020-02-17T12:25:09.000Z</time>
      </trkpt>
      <trkpt lat="44.56875" lon="6.85488">
        <ele>2815.6000976562</ele>
        <time>2020-02-17T12:25:11.000Z</time>
      </trkpt>
      <trkpt lat="44.56875" lon="6.85484">
        <ele>2814.3999023438</ele>
        <time>2020-02-17T12:25:12.000Z</time>
      </trkpt>
      <trkpt lat="44.56873" lon="6.85479">
        <ele>2813.3999023438</ele>
        <time>2020-02-17T12:25:13.000Z</time>
      </trkpt>
      <trkpt lat="44.56872" lon="6.85475">
        <ele>2812</ele>
        <time>2020-02-17T12:25:14.000Z</time>
      </trkpt>
      <trkpt lat="44.56873" lon="6.85471">
        <ele>2812.6000976562</ele>
        <time>2020-02-17T12:25:15.000Z</time>
      </trkpt>
      <trkpt lat="44.56881" lon="6.85467">
        <ele>2810.3999023438</ele>
        <time>2020-02-17T12:25:18.000Z</time>
      </trkpt>
      <trkpt lat="44.56882" lon="6.85464">
        <ele>2809.3999023438</ele>
        <time>2020-02-17T12:25:19.000Z</time>
      </trkpt>
      <trkpt lat="44.5688" lon="6.8546">
        <ele>2808.6000976562</ele>
        <time>2020-02-17T12:25:20.000Z</time>
      </trkpt>
      <trkpt lat="44.56877" lon="6.85453">
        <ele>2807.6000976562</ele>
        <time>2020-02-17T12:25:22.000Z</time>
      </trkpt>
      <trkpt lat="44.56875" lon="6.85442">
        <ele>2806.3999023438</ele>
        <time>2020-02-17T12:25:24.000Z</time>
      </trkpt>
      <trkpt lat="44.56872" lon="6.85434">
        <ele>2805.3999023438</ele>
        <time>2020-02-17T12:25:26.000Z</time>
      </trkpt>
      <trkpt lat="44.56872" lon="6.85422">
        <ele>2804.1999511719</ele>
        <time>2020-02-17T12:25:28.000Z</time>
      </trkpt>
      <trkpt lat="44.56871" lon="6.85416">
        <ele>2804</ele>
        <time>2020-02-17T12:25:29.000Z</time>
      </trkpt>
      <trkpt lat="44.56875" lon="6.8541">
        <ele>2803</ele>
        <time>2020-02-17T12:25:31.000Z</time>
      </trkpt>
      <trkpt lat="44.56881" lon="6.85405">
        <ele>2801.3999023438</ele>
        <time>2020-02-17T12:25:33.000Z</time>
      </trkpt>
      <trkpt lat="44.56882" lon="6.85401">
        <ele>2800.3999023438</ele>
        <time>2020-02-17T12:25:34.000Z</time>
      </trkpt>
      <trkpt lat="44.56883" lon="6.85397">
        <ele>2799.6000976562</ele>
        <time>2020-02-17T12:25:35.000Z</time>
      </trkpt>
      <trkpt lat="44.56885" lon="6.85394">
        <ele>2798.6000976562</ele>
        <time>2020-02-17T12:25:36.000Z</time>
      </trkpt>
      <trkpt lat="44.56888" lon="6.85393">
        <ele>2797.6000976562</ele>
        <time>2020-02-17T12:25:37.000Z</time>
      </trkpt>
      <trkpt lat="44.56891" lon="6.85389">
        <ele>2796.6000976562</ele>
        <time>2020-02-17T12:25:38.000Z</time>
      </trkpt>
      <trkpt lat="44.56892" lon="6.85384">
        <ele>2795.6000976562</ele>
        <time>2020-02-17T12:25:39.000Z</time>
      </trkpt>
      <trkpt lat="44.56892" lon="6.85378">
        <ele>2794.6000976562</ele>
        <time>2020-02-17T12:25:40.000Z</time>
      </trkpt>
      <trkpt lat="44.56891" lon="6.85371">
        <ele>2793.3999023438</ele>
        <time>2020-02-17T12:25:41.000Z</time>
      </trkpt>
      <trkpt lat="44.56892" lon="6.85366">
        <ele>2792.3999023438</ele>
        <time>2020-02-17T12:25:42.000Z</time>
      </trkpt>
      <trkpt lat="44.56899" lon="6.85361">
        <ele>2790.3999023438</ele>
        <time>2020-02-17T12:25:44.000Z</time>
      </trkpt>
      <trkpt lat="44.56901" lon="6.85358">
        <ele>2789.1999511719</ele>
        <time>2020-02-17T12:25:45.000Z</time>
      </trkpt>
      <trkpt lat="44.56902" lon="6.85354">
        <ele>2787.8000488281</ele>
        <time>2020-02-17T12:25:46.000Z</time>
      </trkpt>
      <trkpt lat="44.56903" lon="6.85347">
        <ele>2786.6000976562</ele>
        <time>2020-02-17T12:25:47.000Z</time>
      </trkpt>
      <trkpt lat="44.56903" lon="6.85339">
        <ele>2785.6000976562</ele>
        <time>2020-02-17T12:25:48.000Z</time>
      </trkpt>
      <trkpt lat="44.56904" lon="6.85331">
        <ele>2784.3999023438</ele>
        <time>2020-02-17T12:25:49.000Z</time>
      </trkpt>
      <trkpt lat="44.56904" lon="6.85324">
        <ele>2783.3999023438</ele>
        <time>2020-02-17T12:25:50.000Z</time>
      </trkpt>
      <trkpt lat="44.56903" lon="6.85318">
        <ele>2782.3999023438</ele>
        <time>2020-02-17T12:25:51.000Z</time>
      </trkpt>
      <trkpt lat="44.56904" lon="6.85312">
        <ele>2781.6000976562</ele>
        <time>2020-02-17T12:25:52.000Z</time>
      </trkpt>
      <trkpt lat="44.56905" lon="6.85308">
        <ele>2780.8000488281</ele>
        <time>2020-02-17T12:25:53.000Z</time>
      </trkpt>
      <trkpt lat="44.56908" lon="6.85306">
        <ele>2780.1999511719</ele>
        <time>2020-02-17T12:25:54.000Z</time>
      </trkpt>
      <trkpt lat="44.56909" lon="6.85306">
        <ele>2779.6000976562</ele>
        <time>2020-02-17T12:25:55.000Z</time>
      </trkpt>
      <trkpt lat="44.5691" lon="6.85306">
        <ele>2779</ele>
        <time>2020-02-17T12:25:56.000Z</time>
      </trkpt>
      <trkpt lat="44.5691" lon="6.85307">
        <ele>2778.3999023438</ele>
        <time>2020-02-17T12:25:57.000Z</time>
      </trkpt>
      <trkpt lat="44.5691" lon="6.85308">
        <ele>2777.3999023438</ele>
        <time>2020-02-17T12:26:01.000Z</time>
      </trkpt>
      <trkpt lat="44.56913" lon="6.85313">
        <ele>2777.3999023438</ele>
        <time>2020-02-17T12:26:21.000Z</time>
      </trkpt>
      <trkpt lat="44.5692" lon="6.85316">
        <ele>2777.1999511719</ele>
        <time>2020-02-17T12:26:26.000Z</time>
      </trkpt>
      <trkpt lat="44.56926" lon="6.85312">
        <ele>2776.8000488281</ele>
        <time>2020-02-17T12:26:28.000Z</time>
      </trkpt>
      <trkpt lat="44.56933" lon="6.85306">
        <ele>2776.1999511719</ele>
        <time>2020-02-17T12:26:30.000Z</time>
      </trkpt>
      <trkpt lat="44.5694" lon="6.85301">
        <ele>2774.6000976562</ele>
        <time>2020-02-17T12:26:32.000Z</time>
      </trkpt>
      <trkpt lat="44.56942" lon="6.85295">
        <ele>2773</ele>
        <time>2020-02-17T12:26:34.000Z</time>
      </trkpt>
      <trkpt lat="44.56942" lon="6.85288">
        <ele>2772</ele>
        <time>2020-02-17T12:26:36.000Z</time>
      </trkpt>
      <trkpt lat="44.56945" lon="6.85282">
        <ele>2771</ele>
        <time>2020-02-17T12:26:38.000Z</time>
      </trkpt>
      <trkpt lat="44.56946" lon="6.85282">
        <ele>2770.6000976562</ele>
        <time>2020-02-17T12:26:39.000Z</time>
      </trkpt>
      <trkpt lat="44.56947" lon="6.85282">
        <ele>2769.3999023438</ele>
        <time>2020-02-17T12:26:41.000Z</time>
      </trkpt>
      <trkpt lat="44.56949" lon="6.85283">
        <ele>2768.3999023438</ele>
        <time>2020-02-17T12:26:51.000Z</time>
      </trkpt>
      <trkpt lat="44.56956" lon="6.85279">
        <ele>2768.1999511719</ele>
        <time>2020-02-17T12:26:54.000Z</time>
      </trkpt>
      <trkpt lat="44.56959" lon="6.85277">
        <ele>2768.1999511719</ele>
        <time>2020-02-17T12:26:55.000Z</time>
      </trkpt>
      <trkpt lat="44.56967" lon="6.85275">
        <ele>2767.6000976562</ele>
        <time>2020-02-17T12:26:57.000Z</time>
      </trkpt>
      <trkpt lat="44.5697" lon="6.85275">
        <ele>2767</ele>
        <time>2020-02-17T12:26:58.000Z</time>
      </trkpt>
      <trkpt lat="44.56973" lon="6.85277">
        <ele>2765.8000488281</ele>
        <time>2020-02-17T12:27:00.000Z</time>
      </trkpt>
      <trkpt lat="44.56973" lon="6.85279">
        <ele>2764.8000488281</ele>
        <time>2020-02-17T12:27:06.000Z</time>
      </trkpt>
      <trkpt lat="44.56973" lon="6.85279">
        <ele>2764.6000976562</ele>
        <time>2020-02-17T12:27:08.000Z</time>
      </trkpt>
      <trkpt lat="44.56973" lon="6.85281">
        <ele>2764.6000976562</ele>
        <time>2020-02-17T12:27:17.000Z</time>
      </trkpt>
      <trkpt lat="44.56973" lon="6.85279">
        <ele>2765</ele>
        <time>2020-02-17T12:27:30.000Z</time>
      </trkpt>
      <trkpt lat="44.56972" lon="6.85279">
        <ele>2765</ele>
        <time>2020-02-17T12:27:36.000Z</time>
      </trkpt>
      <trkpt lat="44.56972" lon="6.85279">
        <ele>2765</ele>
        <time>2020-02-17T12:27:37.000Z</time>
      </trkpt>
      <trkpt lat="44.56972" lon="6.8528">
        <ele>2765.3999023438</ele>
        <time>2020-02-17T12:27:41.000Z</time>
      </trkpt>
      <trkpt lat="44.56971" lon="6.85278">
        <ele>2764.8000488281</ele>
        <time>2020-02-17T12:27:52.000Z</time>
      </trkpt>
      <trkpt lat="44.56971" lon="6.85278">
        <ele>2764.8000488281</ele>
        <time>2020-02-17T12:27:53.000Z</time>
      </trkpt>
      <trkpt lat="44.56971" lon="6.85278">
        <ele>2764.8000488281</ele>
        <time>2020-02-17T12:27:54.000Z</time>
      </trkpt>
      <trkpt lat="44.56971" lon="6.85278">
        <ele>2764.8000488281</ele>
        <time>2020-02-17T12:27:56.000Z</time>
      </trkpt>
      <trkpt lat="44.56972" lon="6.85281">
        <ele>2765</ele>
        <time>2020-02-17T12:28:06.000Z</time>
      </trkpt>
      <trkpt lat="44.56973" lon="6.85281">
        <ele>2765.1999511719</ele>
        <time>2020-02-17T12:28:15.000Z</time>
      </trkpt>
      <trkpt lat="44.56973" lon="6.85281">
        <ele>2765.1999511719</ele>
        <time>2020-02-17T12:28:19.000Z</time>
      </trkpt>
      <trkpt lat="44.56973" lon="6.8528">
        <ele>2765.1999511719</ele>
        <time>2020-02-17T12:28:24.000Z</time>
      </trkpt>
      <trkpt lat="44.56973" lon="6.85279">
        <ele>2765.1999511719</ele>
        <time>2020-02-17T12:28:28.000Z</time>
      </trkpt>
      <trkpt lat="44.56973" lon="6.85279">
        <ele>2765.3999023438</ele>
        <time>2020-02-17T12:28:32.000Z</time>
      </trkpt>
      <trkpt lat="44.56973" lon="6.85279">
        <ele>2765.3999023438</ele>
        <time>2020-02-17T12:28:33.000Z</time>
      </trkpt>
      <trkpt lat="44.56973" lon="6.85279">
        <ele>2765.3999023438</ele>
        <time>2020-02-17T12:28:38.000Z</time>
      </trkpt>
      <trkpt lat="44.56973" lon="6.85278">
        <ele>2765.6000976562</ele>
        <time>2020-02-17T12:28:45.000Z</time>
      </trkpt>
      <trkpt lat="44.56973" lon="6.85278">
        <ele>2765.8000488281</ele>
        <time>2020-02-17T12:28:48.000Z</time>
      </trkpt>
      <trkpt lat="44.56973" lon="6.85278">
        <ele>2765.8000488281</ele>
        <time>2020-02-17T12:28:49.000Z</time>
      </trkpt>
      <trkpt lat="44.56973" lon="6.85279">
        <ele>2765.3999023438</ele>
        <time>2020-02-17T12:28:53.000Z</time>
      </trkpt>
      <trkpt lat="44.56972" lon="6.85278">
        <ele>2765.8000488281</ele>
        <time>2020-02-17T12:29:12.000Z</time>
      </trkpt>
      <trkpt lat="44.56972" lon="6.85278">
        <ele>2765.6000976562</ele>
        <time>2020-02-17T12:29:20.000Z</time>
      </trkpt>
      <trkpt lat="44.56971" lon="6.85279">
        <ele>2765.6000976562</ele>
        <time>2020-02-17T12:29:24.000Z</time>
      </trkpt>
      <trkpt lat="44.56971" lon="6.85279">
        <ele>2765.6000976562</ele>
        <time>2020-02-17T12:29:26.000Z</time>
      </trkpt>
      <trkpt lat="44.56971" lon="6.85279">
        <ele>2765.3999023438</ele>
        <time>2020-02-17T12:29:29.000Z</time>
      </trkpt>
      <trkpt lat="44.56971" lon="6.85279">
        <ele>2765.3999023438</ele>
        <time>2020-02-17T12:29:31.000Z</time>
      </trkpt>
      <trkpt lat="44.56971" lon="6.85279">
        <ele>2765.3999023438</ele>
        <time>2020-02-17T12:29:33.000Z</time>
      </trkpt>
      <trkpt lat="44.56971" lon="6.85279">
        <ele>2765.3999023438</ele>
        <time>2020-02-17T12:29:34.000Z</time>
      </trkpt>
      <trkpt lat="44.56971" lon="6.85279">
        <ele>2765.3999023438</ele>
        <time>2020-02-17T12:29:35.000Z</time>
      </trkpt>
      <trkpt lat="44.56971" lon="6.85279">
        <ele>2765.3999023438</ele>
        <time>2020-02-17T12:29:36.000Z</time>
      </trkpt>
      <trkpt lat="44.56971" lon="6.85279">
        <ele>2765.6000976562</ele>
        <time>2020-02-17T12:29:37.000Z</time>
      </trkpt>
      <trkpt lat="44.56972" lon="6.85279">
        <ele>2765.6000976562</ele>
        <time>2020-02-17T12:29:38.000Z</time>
      </trkpt>
      <trkpt lat="44.56972" lon="6.85279">
        <ele>2765.8000488281</ele>
        <time>2020-02-17T12:29:40.000Z</time>
      </trkpt>
      <trkpt lat="44.56971" lon="6.8528">
        <ele>2766</ele>
        <time>2020-02-17T12:29:42.000Z</time>
      </trkpt>
      <trkpt lat="44.56971" lon="6.8528">
        <ele>2766</ele>
        <time>2020-02-17T12:29:43.000Z</time>
      </trkpt>
      <trkpt lat="44.56971" lon="6.85279">
        <ele>2765.8000488281</ele>
        <time>2020-02-17T12:29:44.000Z</time>
      </trkpt>
      <trkpt lat="44.56972" lon="6.85278">
        <ele>2765.1999511719</ele>
        <time>2020-02-17T12:29:50.000Z</time>
      </trkpt>
      <trkpt lat="44.56972" lon="6.85278">
        <ele>2765.3999023438</ele>
        <time>2020-02-17T12:29:52.000Z</time>
      </trkpt>
      <trkpt lat="44.56972" lon="6.85278">
        <ele>2765.3999023438</ele>
        <time>2020-02-17T12:29:56.000Z</time>
      </trkpt>
      <trkpt lat="44.56971" lon="6.85277">
        <ele>2765.6000976562</ele>
        <time>2020-02-17T12:30:00.000Z</time>
      </trkpt>
      <trkpt lat="44.56971" lon="6.85278">
        <ele>2765.8000488281</ele>
        <time>2020-02-17T12:30:03.000Z</time>
      </trkpt>
      <trkpt lat="44.56971" lon="6.85278">
        <ele>2765.8000488281</ele>
        <time>2020-02-17T12:30:05.000Z</time>
      </trkpt>
      <trkpt lat="44.5697" lon="6.85279">
        <ele>2766</ele>
        <time>2020-02-17T12:30:11.000Z</time>
      </trkpt>
      <trkpt lat="44.56969" lon="6.85277">
        <ele>2765.6000976562</ele>
        <time>2020-02-17T12:30:41.000Z</time>
      </trkpt>
      <trkpt lat="44.5697" lon="6.85278">
        <ele>2765.6000976562</ele>
        <time>2020-02-17T12:30:45.000Z</time>
      </trkpt>
      <trkpt lat="44.5697" lon="6.85277">
        <ele>2765.6000976562</ele>
        <time>2020-02-17T12:30:48.000Z</time>
      </trkpt>
      <trkpt lat="44.5697" lon="6.85277">
        <ele>2765.6000976562</ele>
        <time>2020-02-17T12:30:51.000Z</time>
      </trkpt>
      <trkpt lat="44.5697" lon="6.85277">
        <ele>2765.6000976562</ele>
        <time>2020-02-17T12:30:57.000Z</time>
      </trkpt>
      <trkpt lat="44.5697" lon="6.85277">
        <ele>2765.6000976562</ele>
        <time>2020-02-17T12:30:58.000Z</time>
      </trkpt>
      <trkpt lat="44.5697" lon="6.85277">
        <ele>2765.6000976562</ele>
        <time>2020-02-17T12:30:59.000Z</time>
      </trkpt>
      <trkpt lat="44.5697" lon="6.85278">
        <ele>2765.6000976562</ele>
        <time>2020-02-17T12:31:01.000Z</time>
      </trkpt>
      <trkpt lat="44.5697" lon="6.85278">
        <ele>2765.6000976562</ele>
        <time>2020-02-17T12:31:02.000Z</time>
      </trkpt>
      <trkpt lat="44.5697" lon="6.85278">
        <ele>2765.6000976562</ele>
        <time>2020-02-17T12:31:04.000Z</time>
      </trkpt>
      <trkpt lat="44.56971" lon="6.85278">
        <ele>2765.6000976562</ele>
        <time>2020-02-17T12:31:07.000Z</time>
      </trkpt>
      <trkpt lat="44.56973" lon="6.85259">
        <ele>2765.6000976562</ele>
        <time>2020-02-17T12:31:26.000Z</time>
      </trkpt>
      <trkpt lat="44.5697" lon="6.85243">
        <ele>2764.3999023438</ele>
        <time>2020-02-17T12:31:29.000Z</time>
      </trkpt>
      <trkpt lat="44.56968" lon="6.85237">
        <ele>2763</ele>
        <time>2020-02-17T12:31:30.000Z</time>
      </trkpt>
      <trkpt lat="44.56965" lon="6.85225">
        <ele>2761.3999023438</ele>
        <time>2020-02-17T12:31:32.000Z</time>
      </trkpt>
      <trkpt lat="44.56968" lon="6.852">
        <ele>2760.3999023438</ele>
        <time>2020-02-17T12:31:36.000Z</time>
      </trkpt>
      <trkpt lat="44.5697" lon="6.85195">
        <ele>2760</ele>
        <time>2020-02-17T12:31:37.000Z</time>
      </trkpt>
      <trkpt lat="44.56972" lon="6.85191">
        <ele>2759.8000488281</ele>
        <time>2020-02-17T12:31:38.000Z</time>
      </trkpt>
      <trkpt lat="44.56975" lon="6.85188">
        <ele>2759.6000976562</ele>
        <time>2020-02-17T12:31:39.000Z</time>
      </trkpt>
      <trkpt lat="44.56981" lon="6.85183">
        <ele>2758.8000488281</ele>
        <time>2020-02-17T12:31:41.000Z</time>
      </trkpt>
      <trkpt lat="44.56986" lon="6.85178">
        <ele>2757.3999023438</ele>
        <time>2020-02-17T12:31:43.000Z</time>
      </trkpt>
      <trkpt lat="44.56987" lon="6.85176">
        <ele>2756.3999023438</ele>
        <time>2020-02-17T12:31:45.000Z</time>
      </trkpt>
      <trkpt lat="44.56987" lon="6.85176">
        <ele>2755.1999511719</ele>
        <time>2020-02-17T12:31:48.000Z</time>
      </trkpt>
      <trkpt lat="44.56989" lon="6.85174">
        <ele>2754</ele>
        <time>2020-02-17T12:32:09.000Z</time>
      </trkpt>
      <trkpt lat="44.56989" lon="6.85173">
        <ele>2753.8000488281</ele>
        <time>2020-02-17T12:32:13.000Z</time>
      </trkpt>
      <trkpt lat="44.56995" lon="6.85164">
        <ele>2753.8000488281</ele>
        <time>2020-02-17T12:32:19.000Z</time>
      </trkpt>
      <trkpt lat="44.56996" lon="6.85161">
        <ele>2753.6000976562</ele>
        <time>2020-02-17T12:32:21.000Z</time>
      </trkpt>
      <trkpt lat="44.56996" lon="6.85162">
        <ele>2753.3999023438</ele>
        <time>2020-02-17T12:32:30.000Z</time>
      </trkpt>
      <trkpt lat="44.56996" lon="6.85163">
        <ele>2753.3999023438</ele>
        <time>2020-02-17T12:32:33.000Z</time>
      </trkpt>
      <trkpt lat="44.56996" lon="6.85163">
        <ele>2753.1999511719</ele>
        <time>2020-02-17T12:32:40.000Z</time>
      </trkpt>
      <trkpt lat="44.56996" lon="6.85162">
        <ele>2753.1999511719</ele>
        <time>2020-02-17T12:32:42.000Z</time>
      </trkpt>
      <trkpt lat="44.56997" lon="6.85164">
        <ele>2753.3999023438</ele>
        <time>2020-02-17T12:32:46.000Z</time>
      </trkpt>
      <trkpt lat="44.56997" lon="6.85164">
        <ele>2753.6000976562</ele>
        <time>2020-02-17T12:32:50.000Z</time>
      </trkpt>
      <trkpt lat="44.56997" lon="6.85164">
        <ele>2753.6000976562</ele>
        <time>2020-02-17T12:32:54.000Z</time>
      </trkpt>
      <trkpt lat="44.56997" lon="6.85165">
        <ele>2753.6000976562</ele>
        <time>2020-02-17T12:32:57.000Z</time>
      </trkpt>
      <trkpt lat="44.56997" lon="6.85165">
        <ele>2753.3999023438</ele>
        <time>2020-02-17T12:33:01.000Z</time>
      </trkpt>
      <trkpt lat="44.56997" lon="6.85165">
        <ele>2753.1999511719</ele>
        <time>2020-02-17T12:33:03.000Z</time>
      </trkpt>
      <trkpt lat="44.56997" lon="6.85165">
        <ele>2753</ele>
        <time>2020-02-17T12:33:05.000Z</time>
      </trkpt>
      <trkpt lat="44.56997" lon="6.85165">
        <ele>2753.1999511719</ele>
        <time>2020-02-17T12:33:10.000Z</time>
      </trkpt>
      <trkpt lat="44.56997" lon="6.85166">
        <ele>2753.1999511719</ele>
        <time>2020-02-17T12:33:11.000Z</time>
      </trkpt>
      <trkpt lat="44.56996" lon="6.85164">
        <ele>2752.8000488281</ele>
        <time>2020-02-17T12:33:20.000Z</time>
      </trkpt>
      <trkpt lat="44.56996" lon="6.85164">
        <ele>2752.6000976562</ele>
        <time>2020-02-17T12:33:21.000Z</time>
      </trkpt>
      <trkpt lat="44.56996" lon="6.85164">
        <ele>2752.6000976562</ele>
        <time>2020-02-17T12:33:22.000Z</time>
      </trkpt>
      <trkpt lat="44.56996" lon="6.85164">
        <ele>2752.6000976562</ele>
        <time>2020-02-17T12:33:24.000Z</time>
      </trkpt>
      <trkpt lat="44.56996" lon="6.85164">
        <ele>2752.6000976562</ele>
        <time>2020-02-17T12:33:25.000Z</time>
      </trkpt>
      <trkpt lat="44.56996" lon="6.85162">
        <ele>2752.3999023438</ele>
        <time>2020-02-17T12:33:33.000Z</time>
      </trkpt>
      <trkpt lat="44.56996" lon="6.85163">
        <ele>2752.1999511719</ele>
        <time>2020-02-17T12:33:35.000Z</time>
      </trkpt>
      <trkpt lat="44.56999" lon="6.85159">
        <ele>2752.1999511719</ele>
        <time>2020-02-17T12:33:39.000Z</time>
      </trkpt>
      <trkpt lat="44.57004" lon="6.85154">
        <ele>2752</ele>
        <time>2020-02-17T12:33:41.000Z</time>
      </trkpt>
      <trkpt lat="44.57006" lon="6.85151">
        <ele>2752</ele>
        <time>2020-02-17T12:33:42.000Z</time>
      </trkpt>
      <trkpt lat="44.57017" lon="6.8513">
        <ele>2751</ele>
        <time>2020-02-17T12:33:47.000Z</time>
      </trkpt>
      <trkpt lat="44.5702" lon="6.85125">
        <ele>2750.3999023438</ele>
        <time>2020-02-17T12:33:48.000Z</time>
      </trkpt>
      <trkpt lat="44.57026" lon="6.85116">
        <ele>2749.3999023438</ele>
        <time>2020-02-17T12:33:50.000Z</time>
      </trkpt>
      <trkpt lat="44.57036" lon="6.851">
        <ele>2748</ele>
        <time>2020-02-17T12:33:53.000Z</time>
      </trkpt>
      <trkpt lat="44.57049" lon="6.85086">
        <ele>2746.8000488281</ele>
        <time>2020-02-17T12:33:56.000Z</time>
      </trkpt>
      <trkpt lat="44.57058" lon="6.85078">
        <ele>2745.6000976562</ele>
        <time>2020-02-17T12:33:58.000Z</time>
      </trkpt>
      <trkpt lat="44.57064" lon="6.85071">
        <ele>2744.3999023438</ele>
        <time>2020-02-17T12:34:00.000Z</time>
      </trkpt>
      <trkpt lat="44.57072" lon="6.85068">
        <ele>2743.3999023438</ele>
        <time>2020-02-17T12:34:02.000Z</time>
      </trkpt>
      <trkpt lat="44.57079" lon="6.85065">
        <ele>2742.8000488281</ele>
        <time>2020-02-17T12:34:04.000Z</time>
      </trkpt>
      <trkpt lat="44.57085" lon="6.85063">
        <ele>2741.8000488281</ele>
        <time>2020-02-17T12:34:06.000Z</time>
      </trkpt>
      <trkpt lat="44.57088" lon="6.85061">
        <ele>2740.8000488281</ele>
        <time>2020-02-17T12:34:08.000Z</time>
      </trkpt>
      <trkpt lat="44.5709" lon="6.8506">
        <ele>2740.1999511719</ele>
        <time>2020-02-17T12:34:10.000Z</time>
      </trkpt>
      <trkpt lat="44.57089" lon="6.85061">
        <ele>2739.6000976562</ele>
        <time>2020-02-17T12:34:16.000Z</time>
      </trkpt>
      <trkpt lat="44.57089" lon="6.85061">
        <ele>2739.6000976562</ele>
        <time>2020-02-17T12:34:21.000Z</time>
      </trkpt>
      <trkpt lat="44.57091" lon="6.85061">
        <ele>2739.8000488281</ele>
        <time>2020-02-17T12:34:29.000Z</time>
      </trkpt>
      <trkpt lat="44.57096" lon="6.8506">
        <ele>2739.6000976562</ele>
        <time>2020-02-17T12:34:32.000Z</time>
      </trkpt>
      <trkpt lat="44.57101" lon="6.85059">
        <ele>2739.3999023438</ele>
        <time>2020-02-17T12:34:34.000Z</time>
      </trkpt>
      <trkpt lat="44.57108" lon="6.85057">
        <ele>2738.3999023438</ele>
        <time>2020-02-17T12:34:37.000Z</time>
      </trkpt>
      <trkpt lat="44.57117" lon="6.85059">
        <ele>2737.1999511719</ele>
        <time>2020-02-17T12:34:40.000Z</time>
      </trkpt>
      <trkpt lat="44.57132" lon="6.85063">
        <ele>2736.1999511719</ele>
        <time>2020-02-17T12:34:44.000Z</time>
      </trkpt>
      <trkpt lat="44.57148" lon="6.85072">
        <ele>2735.6000976562</ele>
        <time>2020-02-17T12:34:49.000Z</time>
      </trkpt>
      <trkpt lat="44.57155" lon="6.85079">
        <ele>2735</ele>
        <time>2020-02-17T12:34:51.000Z</time>
      </trkpt>
      <trkpt lat="44.57168" lon="6.85092">
        <ele>2733.6000976562</ele>
        <time>2020-02-17T12:34:54.000Z</time>
      </trkpt>
      <trkpt lat="44.57177" lon="6.85101">
        <ele>2732.6000976562</ele>
        <time>2020-02-17T12:34:56.000Z</time>
      </trkpt>
      <trkpt lat="44.57181" lon="6.85105">
        <ele>2732</ele>
        <time>2020-02-17T12:34:57.000Z</time>
      </trkpt>
      <trkpt lat="44.5719" lon="6.85113">
        <ele>2731.3999023438</ele>
        <time>2020-02-17T12:34:59.000Z</time>
      </trkpt>
      <trkpt lat="44.57202" lon="6.85127">
        <ele>2730.1999511719</ele>
        <time>2020-02-17T12:35:02.000Z</time>
      </trkpt>
      <trkpt lat="44.57213" lon="6.85141">
        <ele>2729</ele>
        <time>2020-02-17T12:35:05.000Z</time>
      </trkpt>
      <trkpt lat="44.57223" lon="6.85154">
        <ele>2727.8000488281</ele>
        <time>2020-02-17T12:35:08.000Z</time>
      </trkpt>
      <trkpt lat="44.57232" lon="6.85167">
        <ele>2726.8000488281</ele>
        <time>2020-02-17T12:35:12.000Z</time>
      </trkpt>
      <trkpt lat="44.57234" lon="6.85172">
        <ele>2726.3999023438</ele>
        <time>2020-02-17T12:35:15.000Z</time>
      </trkpt>
      <trkpt lat="44.57238" lon="6.85179">
        <ele>2726.1999511719</ele>
        <time>2020-02-17T12:35:21.000Z</time>
      </trkpt>
      <trkpt lat="44.57238" lon="6.85177">
        <ele>2726.1999511719</ele>
        <time>2020-02-17T12:35:40.000Z</time>
      </trkpt>
      <trkpt lat="44.57237" lon="6.85178">
        <ele>2726</ele>
        <time>2020-02-17T12:35:47.000Z</time>
      </trkpt>
      <trkpt lat="44.57242" lon="6.8519">
        <ele>2725.6000976562</ele>
        <time>2020-02-17T12:35:55.000Z</time>
      </trkpt>
      <trkpt lat="44.5725" lon="6.85196">
        <ele>2724.3999023438</ele>
        <time>2020-02-17T12:35:58.000Z</time>
      </trkpt>
      <trkpt lat="44.57257" lon="6.852">
        <ele>2723.3999023438</ele>
        <time>2020-02-17T12:36:00.000Z</time>
      </trkpt>
      <trkpt lat="44.57257" lon="6.85202">
        <ele>2723</ele>
        <time>2020-02-17T12:36:01.000Z</time>
      </trkpt>
      <trkpt lat="44.57256" lon="6.85209">
        <ele>2722</ele>
        <time>2020-02-17T12:36:03.000Z</time>
      </trkpt>
      <trkpt lat="44.5726" lon="6.8522">
        <ele>2720.3999023438</ele>
        <time>2020-02-17T12:36:05.000Z</time>
      </trkpt>
      <trkpt lat="44.57263" lon="6.85222">
        <ele>2719</ele>
        <time>2020-02-17T12:36:06.000Z</time>
      </trkpt>
      <trkpt lat="44.57265" lon="6.85223">
        <ele>2717.8000488281</ele>
        <time>2020-02-17T12:36:07.000Z</time>
      </trkpt>
      <trkpt lat="44.57265" lon="6.85223">
        <ele>2717</ele>
        <time>2020-02-17T12:36:08.000Z</time>
      </trkpt>
      <trkpt lat="44.57266" lon="6.85223">
        <ele>2716.1999511719</ele>
        <time>2020-02-17T12:36:09.000Z</time>
      </trkpt>
      <trkpt lat="44.57268" lon="6.85229">
        <ele>2715.1999511719</ele>
        <time>2020-02-17T12:36:11.000Z</time>
      </trkpt>
      <trkpt lat="44.5727" lon="6.85232">
        <ele>2714.3999023438</ele>
        <time>2020-02-17T12:36:12.000Z</time>
      </trkpt>
      <trkpt lat="44.57273" lon="6.85236">
        <ele>2713.8000488281</ele>
        <time>2020-02-17T12:36:13.000Z</time>
      </trkpt>
      <trkpt lat="44.5728" lon="6.85245">
        <ele>2712.8000488281</ele>
        <time>2020-02-17T12:36:15.000Z</time>
      </trkpt>
      <trkpt lat="44.57288" lon="6.85256">
        <ele>2710.8000488281</ele>
        <time>2020-02-17T12:36:17.000Z</time>
      </trkpt>
      <trkpt lat="44.57293" lon="6.85262">
        <ele>2709.3999023438</ele>
        <time>2020-02-17T12:36:18.000Z</time>
      </trkpt>
      <trkpt lat="44.57298" lon="6.85268">
        <ele>2708</ele>
        <time>2020-02-17T12:36:19.000Z</time>
      </trkpt>
      <trkpt lat="44.57304" lon="6.85277">
        <ele>2706.6000976562</ele>
        <time>2020-02-17T12:36:20.000Z</time>
      </trkpt>
      <trkpt lat="44.5731" lon="6.85287">
        <ele>2705.1999511719</ele>
        <time>2020-02-17T12:36:21.000Z</time>
      </trkpt>
      <trkpt lat="44.57318" lon="6.85295">
        <ele>2703.8000488281</ele>
        <time>2020-02-17T12:36:22.000Z</time>
      </trkpt>
      <trkpt lat="44.57326" lon="6.85304">
        <ele>2702.1999511719</ele>
        <time>2020-02-17T12:36:24.000Z</time>
      </trkpt>
      <trkpt lat="44.57328" lon="6.85305">
        <ele>2701.8000488281</ele>
        <time>2020-02-17T12:36:26.000Z</time>
      </trkpt>
      <trkpt lat="44.5733" lon="6.85306">
        <ele>2702.1999511719</ele>
        <time>2020-02-17T12:36:28.000Z</time>
      </trkpt>
      <trkpt lat="44.57331" lon="6.85307">
        <ele>2702.8000488281</ele>
        <time>2020-02-17T12:36:32.000Z</time>
      </trkpt>
      <trkpt lat="44.57334" lon="6.85308">
        <ele>2702.8000488281</ele>
        <time>2020-02-17T12:36:55.000Z</time>
      </trkpt>
      <trkpt lat="44.57335" lon="6.85309">
        <ele>2702.6000976562</ele>
        <time>2020-02-17T12:36:58.000Z</time>
      </trkpt>
      <trkpt lat="44.57335" lon="6.85309">
        <ele>2702.3999023438</ele>
        <time>2020-02-17T12:37:00.000Z</time>
      </trkpt>
      <trkpt lat="44.5734" lon="6.85308">
        <ele>2702.3999023438</ele>
        <time>2020-02-17T12:37:15.000Z</time>
      </trkpt>
      <trkpt lat="44.5734" lon="6.85309">
        <ele>2702.3999023438</ele>
        <time>2020-02-17T12:37:16.000Z</time>
      </trkpt>
      <trkpt lat="44.57342" lon="6.8531">
        <ele>2702.3999023438</ele>
        <time>2020-02-17T12:37:19.000Z</time>
      </trkpt>
      <trkpt lat="44.5734" lon="6.85312">
        <ele>2701.8000488281</ele>
        <time>2020-02-17T12:37:23.000Z</time>
      </trkpt>
      <trkpt lat="44.57341" lon="6.85314">
        <ele>2701.6000976562</ele>
        <time>2020-02-17T12:37:26.000Z</time>
      </trkpt>
      <trkpt lat="44.57339" lon="6.85317">
        <ele>2701</ele>
        <time>2020-02-17T12:37:30.000Z</time>
      </trkpt>
      <trkpt lat="44.57339" lon="6.85324">
        <ele>2700.3999023438</ele>
        <time>2020-02-17T12:37:34.000Z</time>
      </trkpt>
      <trkpt lat="44.57333" lon="6.85327">
        <ele>2700</ele>
        <time>2020-02-17T12:37:36.000Z</time>
      </trkpt>
      <trkpt lat="44.57329" lon="6.85327">
        <ele>2698.8000488281</ele>
        <time>2020-02-17T12:37:38.000Z</time>
      </trkpt>
      <trkpt lat="44.57328" lon="6.85328">
        <ele>2698</ele>
        <time>2020-02-17T12:37:39.000Z</time>
      </trkpt>
      <trkpt lat="44.57328" lon="6.85328">
        <ele>2697.1999511719</ele>
        <time>2020-02-17T12:37:40.000Z</time>
      </trkpt>
      <trkpt lat="44.57329" lon="6.85331">
        <ele>2695.8000488281</ele>
        <time>2020-02-17T12:37:42.000Z</time>
      </trkpt>
      <trkpt lat="44.57331" lon="6.85335">
        <ele>2694.3999023438</ele>
        <time>2020-02-17T12:37:44.000Z</time>
      </trkpt>
      <trkpt lat="44.57331" lon="6.85337">
        <ele>2693.3999023438</ele>
        <time>2020-02-17T12:37:46.000Z</time>
      </trkpt>
      <trkpt lat="44.57332" lon="6.85338">
        <ele>2693.1999511719</ele>
        <time>2020-02-17T12:37:47.000Z</time>
      </trkpt>
      <trkpt lat="44.57334" lon="6.85341">
        <ele>2693.1999511719</ele>
        <time>2020-02-17T12:37:48.000Z</time>
      </trkpt>
      <trkpt lat="44.5733" lon="6.8535">
        <ele>2692</ele>
        <time>2020-02-17T12:37:51.000Z</time>
      </trkpt>
      <trkpt lat="44.57334" lon="6.85357">
        <ele>2690.1999511719</ele>
        <time>2020-02-17T12:37:53.000Z</time>
      </trkpt>
      <trkpt lat="44.57338" lon="6.85359">
        <ele>2689</ele>
        <time>2020-02-17T12:37:54.000Z</time>
      </trkpt>
      <trkpt lat="44.57341" lon="6.85362">
        <ele>2687.6000976562</ele>
        <time>2020-02-17T12:37:55.000Z</time>
      </trkpt>
      <trkpt lat="44.57346" lon="6.85363">
        <ele>2686.3999023438</ele>
        <time>2020-02-17T12:37:56.000Z</time>
      </trkpt>
      <trkpt lat="44.5735" lon="6.85367">
        <ele>2685</ele>
        <time>2020-02-17T12:37:57.000Z</time>
      </trkpt>
      <trkpt lat="44.57354" lon="6.85373">
        <ele>2683.6000976562</ele>
        <time>2020-02-17T12:37:58.000Z</time>
      </trkpt>
      <trkpt lat="44.57357" lon="6.85377">
        <ele>2682.3999023438</ele>
        <time>2020-02-17T12:37:59.000Z</time>
      </trkpt>
      <trkpt lat="44.57359" lon="6.8538">
        <ele>2681.3999023438</ele>
        <time>2020-02-17T12:38:00.000Z</time>
      </trkpt>
      <trkpt lat="44.57363" lon="6.85384">
        <ele>2680</ele>
        <time>2020-02-17T12:38:02.000Z</time>
      </trkpt>
      <trkpt lat="44.57368" lon="6.85392">
        <ele>2679</ele>
        <time>2020-02-17T12:38:06.000Z</time>
      </trkpt>
      <trkpt lat="44.57374" lon="6.85398">
        <ele>2677.8000488281</ele>
        <time>2020-02-17T12:38:09.000Z</time>
      </trkpt>
      <trkpt lat="44.5738" lon="6.85403">
        <ele>2676.8000488281</ele>
        <time>2020-02-17T12:38:11.000Z</time>
      </trkpt>
      <trkpt lat="44.57385" lon="6.85406">
        <ele>2676.1999511719</ele>
        <time>2020-02-17T12:38:12.000Z</time>
      </trkpt>
      <trkpt lat="44.57389" lon="6.85408">
        <ele>2675.1999511719</ele>
        <time>2020-02-17T12:38:13.000Z</time>
      </trkpt>
      <trkpt lat="44.57392" lon="6.8541">
        <ele>2674</ele>
        <time>2020-02-17T12:38:14.000Z</time>
      </trkpt>
      <trkpt lat="44.57395" lon="6.8541">
        <ele>2672.8000488281</ele>
        <time>2020-02-17T12:38:15.000Z</time>
      </trkpt>
      <trkpt lat="44.57397" lon="6.85409">
        <ele>2671.8000488281</ele>
        <time>2020-02-17T12:38:16.000Z</time>
      </trkpt>
      <trkpt lat="44.57398" lon="6.85409">
        <ele>2670.6000976562</ele>
        <time>2020-02-17T12:38:18.000Z</time>
      </trkpt>
      <trkpt lat="44.57397" lon="6.85405">
        <ele>2669.3999023438</ele>
        <time>2020-02-17T12:38:24.000Z</time>
      </trkpt>
      <trkpt lat="44.57398" lon="6.85411">
        <ele>2669</ele>
        <time>2020-02-17T12:38:30.000Z</time>
      </trkpt>
      <trkpt lat="44.57402" lon="6.85414">
        <ele>2668.8000488281</ele>
        <time>2020-02-17T12:38:32.000Z</time>
      </trkpt>
      <trkpt lat="44.57408" lon="6.8542">
        <ele>2668.3999023438</ele>
        <time>2020-02-17T12:38:35.000Z</time>
      </trkpt>
      <trkpt lat="44.5742" lon="6.85429">
        <ele>2666.8000488281</ele>
        <time>2020-02-17T12:38:38.000Z</time>
      </trkpt>
      <trkpt lat="44.57428" lon="6.85432">
        <ele>2665.8000488281</ele>
        <time>2020-02-17T12:38:39.000Z</time>
      </trkpt>
      <trkpt lat="44.57434" lon="6.85432">
        <ele>2664.8000488281</ele>
        <time>2020-02-17T12:38:40.000Z</time>
      </trkpt>
      <trkpt lat="44.57437" lon="6.85425">
        <ele>2664.1999511719</ele>
        <time>2020-02-17T12:38:41.000Z</time>
      </trkpt>
      <trkpt lat="44.5744" lon="6.85426">
        <ele>2663.8000488281</ele>
        <time>2020-02-17T12:38:42.000Z</time>
      </trkpt>
      <trkpt lat="44.57445" lon="6.85428">
        <ele>2664.1999511719</ele>
        <time>2020-02-17T12:38:47.000Z</time>
      </trkpt>
      <trkpt lat="44.57448" lon="6.85427">
        <ele>2664.8000488281</ele>
        <time>2020-02-17T12:38:50.000Z</time>
      </trkpt>
      <trkpt lat="44.57456" lon="6.85425">
        <ele>2665.1999511719</ele>
        <time>2020-02-17T12:38:57.000Z</time>
      </trkpt>
      <trkpt lat="44.57458" lon="6.85425">
        <ele>2665.6000976562</ele>
        <time>2020-02-17T12:39:02.000Z</time>
      </trkpt>
      <trkpt lat="44.57459" lon="6.85426">
        <ele>2665.6000976562</ele>
        <time>2020-02-17T12:39:05.000Z</time>
      </trkpt>
      <trkpt lat="44.57456" lon="6.85425">
        <ele>2665.8000488281</ele>
        <time>2020-02-17T12:39:51.000Z</time>
      </trkpt>
      <trkpt lat="44.57455" lon="6.85424">
        <ele>2665.8000488281</ele>
        <time>2020-02-17T12:39:57.000Z</time>
      </trkpt>
      <trkpt lat="44.57455" lon="6.85424">
        <ele>2665.8000488281</ele>
        <time>2020-02-17T12:40:03.000Z</time>
      </trkpt>
      <trkpt lat="44.57455" lon="6.85425">
        <ele>2665.6000976562</ele>
        <time>2020-02-17T12:40:10.000Z</time>
      </trkpt>
      <trkpt lat="44.57455" lon="6.85425">
        <ele>2665.6000976562</ele>
        <time>2020-02-17T12:40:11.000Z</time>
      </trkpt>
      <trkpt lat="44.57455" lon="6.85424">
        <ele>2665.6000976562</ele>
        <time>2020-02-17T12:40:20.000Z</time>
      </trkpt>
      <trkpt lat="44.57455" lon="6.85424">
        <ele>2665.6000976562</ele>
        <time>2020-02-17T12:40:23.000Z</time>
      </trkpt>
      <trkpt lat="44.57456" lon="6.85424">
        <ele>2665.6000976562</ele>
        <time>2020-02-17T12:40:27.000Z</time>
      </trkpt>
      <trkpt lat="44.57456" lon="6.85425">
        <ele>2665.6000976562</ele>
        <time>2020-02-17T12:40:31.000Z</time>
      </trkpt>
      <trkpt lat="44.57455" lon="6.85425">
        <ele>2665.6000976562</ele>
        <time>2020-02-17T12:40:33.000Z</time>
      </trkpt>
      <trkpt lat="44.57456" lon="6.85425">
        <ele>2665.6000976562</ele>
        <time>2020-02-17T12:40:36.000Z</time>
      </trkpt>
      <trkpt lat="44.57456" lon="6.85426">
        <ele>2665.6000976562</ele>
        <time>2020-02-17T12:40:37.000Z</time>
      </trkpt>
      <trkpt lat="44.57456" lon="6.85426">
        <ele>2665.6000976562</ele>
        <time>2020-02-17T12:40:39.000Z</time>
      </trkpt>
      <trkpt lat="44.57456" lon="6.85426">
        <ele>2665.6000976562</ele>
        <time>2020-02-17T12:40:40.000Z</time>
      </trkpt>
      <trkpt lat="44.57456" lon="6.85426">
        <ele>2665.6000976562</ele>
        <time>2020-02-17T12:40:41.000Z</time>
      </trkpt>
      <trkpt lat="44.57456" lon="6.85426">
        <ele>2665.6000976562</ele>
        <time>2020-02-17T12:40:43.000Z</time>
      </trkpt>
      <trkpt lat="44.57456" lon="6.85426">
        <ele>2665.6000976562</ele>
        <time>2020-02-17T12:40:48.000Z</time>
      </trkpt>
      <trkpt lat="44.57456" lon="6.85425">
        <ele>2665.6000976562</ele>
        <time>2020-02-17T12:40:50.000Z</time>
      </trkpt>
      <trkpt lat="44.57457" lon="6.85426">
        <ele>2665.6000976562</ele>
        <time>2020-02-17T12:40:54.000Z</time>
      </trkpt>
      <trkpt lat="44.57457" lon="6.85425">
        <ele>2665.6000976562</ele>
        <time>2020-02-17T12:41:00.000Z</time>
      </trkpt>
      <trkpt lat="44.57457" lon="6.85425">
        <ele>2665.6000976562</ele>
        <time>2020-02-17T12:41:04.000Z</time>
      </trkpt>
      <trkpt lat="44.57457" lon="6.85425">
        <ele>2665.6000976562</ele>
        <time>2020-02-17T12:41:05.000Z</time>
      </trkpt>
      <trkpt lat="44.57457" lon="6.85425">
        <ele>2665.6000976562</ele>
        <time>2020-02-17T12:41:09.000Z</time>
      </trkpt>
      <trkpt lat="44.57457" lon="6.85425">
        <ele>2665.6000976562</ele>
        <time>2020-02-17T12:41:12.000Z</time>
      </trkpt>
      <trkpt lat="44.57457" lon="6.85426">
        <ele>2665.6000976562</ele>
        <time>2020-02-17T12:41:21.000Z</time>
      </trkpt>
      <trkpt lat="44.57456" lon="6.85426">
        <ele>2665.6000976562</ele>
        <time>2020-02-17T12:41:26.000Z</time>
      </trkpt>
      <trkpt lat="44.57457" lon="6.85426">
        <ele>2665.6000976562</ele>
        <time>2020-02-17T12:41:30.000Z</time>
      </trkpt>
      <trkpt lat="44.57456" lon="6.85426">
        <ele>2665.6000976562</ele>
        <time>2020-02-17T12:41:37.000Z</time>
      </trkpt>
      <trkpt lat="44.57456" lon="6.85424">
        <ele>2665.6000976562</ele>
        <time>2020-02-17T12:41:43.000Z</time>
      </trkpt>
      <trkpt lat="44.57457" lon="6.85419">
        <ele>2665.6000976562</ele>
        <time>2020-02-17T12:41:56.000Z</time>
      </trkpt>
      <trkpt lat="44.57456" lon="6.85419">
        <ele>2665.6000976562</ele>
        <time>2020-02-17T12:42:04.000Z</time>
      </trkpt>
      <trkpt lat="44.57454" lon="6.85422">
        <ele>2665.6000976562</ele>
        <time>2020-02-17T12:42:15.000Z</time>
      </trkpt>
      <trkpt lat="44.57455" lon="6.85423">
        <ele>2665.6000976562</ele>
        <time>2020-02-17T12:42:18.000Z</time>
      </trkpt>
      <trkpt lat="44.57455" lon="6.85421">
        <ele>2665.6000976562</ele>
        <time>2020-02-17T12:42:28.000Z</time>
      </trkpt>
      <trkpt lat="44.57455" lon="6.85421">
        <ele>2665.6000976562</ele>
        <time>2020-02-17T12:42:33.000Z</time>
      </trkpt>
      <trkpt lat="44.57455" lon="6.85421">
        <ele>2665.6000976562</ele>
        <time>2020-02-17T12:42:34.000Z</time>
      </trkpt>
      <trkpt lat="44.57455" lon="6.85421">
        <ele>2665.6000976562</ele>
        <time>2020-02-17T12:42:38.000Z</time>
      </trkpt>
      <trkpt lat="44.57454" lon="6.85422">
        <ele>2665.6000976562</ele>
        <time>2020-02-17T12:42:42.000Z</time>
      </trkpt>
      <trkpt lat="44.57454" lon="6.85422">
        <ele>2665.6000976562</ele>
        <time>2020-02-17T12:42:45.000Z</time>
      </trkpt>
      <trkpt lat="44.57454" lon="6.85421">
        <ele>2665.6000976562</ele>
        <time>2020-02-17T12:42:47.000Z</time>
      </trkpt>
      <trkpt lat="44.57455" lon="6.85421">
        <ele>2665.6000976562</ele>
        <time>2020-02-17T12:42:51.000Z</time>
      </trkpt>
      <trkpt lat="44.57456" lon="6.85424">
        <ele>2665.6000976562</ele>
        <time>2020-02-17T12:43:13.000Z</time>
      </trkpt>
      <trkpt lat="44.57457" lon="6.85423">
        <ele>2665.6000976562</ele>
        <time>2020-02-17T12:43:15.000Z</time>
      </trkpt>
      <trkpt lat="44.57459" lon="6.85423">
        <ele>2665.6000976562</ele>
        <time>2020-02-17T12:43:23.000Z</time>
      </trkpt>
      <trkpt lat="44.5746" lon="6.85423">
        <ele>2665.6000976562</ele>
        <time>2020-02-17T12:43:25.000Z</time>
      </trkpt>
      <trkpt lat="44.57461" lon="6.85423">
        <ele>2665.6000976562</ele>
        <time>2020-02-17T12:43:29.000Z</time>
      </trkpt>
      <trkpt lat="44.57459" lon="6.85424">
        <ele>2665.6000976562</ele>
        <time>2020-02-17T12:43:46.000Z</time>
      </trkpt>
      <trkpt lat="44.57459" lon="6.85424">
        <ele>2665.6000976562</ele>
        <time>2020-02-17T12:43:51.000Z</time>
      </trkpt>
      <trkpt lat="44.57459" lon="6.85423">
        <ele>2665.6000976562</ele>
        <time>2020-02-17T12:43:57.000Z</time>
      </trkpt>
      <trkpt lat="44.57458" lon="6.85427">
        <ele>2665.6000976562</ele>
        <time>2020-02-17T12:44:07.000Z</time>
      </trkpt>
      <trkpt lat="44.57459" lon="6.85427">
        <ele>2665.6000976562</ele>
        <time>2020-02-17T12:44:11.000Z</time>
      </trkpt>
      <trkpt lat="44.57459" lon="6.85427">
        <ele>2668.8000488281</ele>
        <time>2020-02-17T12:44:13.000Z</time>
      </trkpt>
      <trkpt lat="44.57459" lon="6.85427">
        <ele>2668.8000488281</ele>
        <time>2020-02-17T12:44:16.000Z</time>
      </trkpt>
      <trkpt lat="44.57458" lon="6.85426">
        <ele>2670</ele>
        <time>2020-02-17T12:44:26.000Z</time>
      </trkpt>
      <trkpt lat="44.57458" lon="6.85425">
        <ele>2669.8000488281</ele>
        <time>2020-02-17T12:44:34.000Z</time>
      </trkpt>
      <trkpt lat="44.57457" lon="6.85425">
        <ele>2670</ele>
        <time>2020-02-17T12:44:40.000Z</time>
      </trkpt>
      <trkpt lat="44.57458" lon="6.85425">
        <ele>2670.1999511719</ele>
        <time>2020-02-17T12:44:44.000Z</time>
      </trkpt>
      <trkpt lat="44.5746" lon="6.85425">
        <ele>2670.1999511719</ele>
        <time>2020-02-17T12:44:46.000Z</time>
      </trkpt>
      <trkpt lat="44.5746" lon="6.85426">
        <ele>2669.6000976562</ele>
        <time>2020-02-17T12:44:51.000Z</time>
      </trkpt>
      <trkpt lat="44.5746" lon="6.85425">
        <ele>2669.3999023438</ele>
        <time>2020-02-17T12:44:52.000Z</time>
      </trkpt>
      <trkpt lat="44.57459" lon="6.85425">
        <ele>2668.8000488281</ele>
        <time>2020-02-17T12:44:55.000Z</time>
      </trkpt>
      <trkpt lat="44.57459" lon="6.85425">
        <ele>2668.3999023438</ele>
        <time>2020-02-17T12:44:59.000Z</time>
      </trkpt>
      <trkpt lat="44.57459" lon="6.85425">
        <ele>2667.8000488281</ele>
        <time>2020-02-17T12:45:06.000Z</time>
      </trkpt>
      <trkpt lat="44.57459" lon="6.85425">
        <ele>2667.6000976562</ele>
        <time>2020-02-17T12:45:10.000Z</time>
      </trkpt>
      <trkpt lat="44.5746" lon="6.85425">
        <ele>2667.1999511719</ele>
        <time>2020-02-17T12:45:19.000Z</time>
      </trkpt>
      <trkpt lat="44.57459" lon="6.85425">
        <ele>2667</ele>
        <time>2020-02-17T12:45:29.000Z</time>
      </trkpt>
      <trkpt lat="44.57459" lon="6.85425">
        <ele>2667</ele>
        <time>2020-02-17T12:45:31.000Z</time>
      </trkpt>
      <trkpt lat="44.57459" lon="6.85425">
        <ele>2667</ele>
        <time>2020-02-17T12:45:35.000Z</time>
      </trkpt>
      <trkpt lat="44.57459" lon="6.85425">
        <ele>2666.8000488281</ele>
        <time>2020-02-17T12:45:37.000Z</time>
      </trkpt>
      <trkpt lat="44.5746" lon="6.85424">
        <ele>2666.8000488281</ele>
        <time>2020-02-17T12:45:38.000Z</time>
      </trkpt>
      <trkpt lat="44.57459" lon="6.85424">
        <ele>2666.8000488281</ele>
        <time>2020-02-17T12:45:41.000Z</time>
      </trkpt>
      <trkpt lat="44.57459" lon="6.85424">
        <ele>2666.8000488281</ele>
        <time>2020-02-17T12:45:47.000Z</time>
      </trkpt>
      <trkpt lat="44.57459" lon="6.85424">
        <ele>2667</ele>
        <time>2020-02-17T12:45:50.000Z</time>
      </trkpt>
      <trkpt lat="44.57459" lon="6.85424">
        <ele>2667</ele>
        <time>2020-02-17T12:45:52.000Z</time>
      </trkpt>
      <trkpt lat="44.57459" lon="6.85425">
        <ele>2666.8000488281</ele>
        <time>2020-02-17T12:46:10.000Z</time>
      </trkpt>
      <trkpt lat="44.57459" lon="6.85425">
        <ele>2666.8000488281</ele>
        <time>2020-02-17T12:46:14.000Z</time>
      </trkpt>
      <trkpt lat="44.57459" lon="6.85425">
        <ele>2666.6000976562</ele>
        <time>2020-02-17T12:46:16.000Z</time>
      </trkpt>
      <trkpt lat="44.57459" lon="6.85425">
        <ele>2666.6000976562</ele>
        <time>2020-02-17T12:46:18.000Z</time>
      </trkpt>
      <trkpt lat="44.57458" lon="6.85426">
        <ele>2666.6000976562</ele>
        <time>2020-02-17T12:46:27.000Z</time>
      </trkpt>
      <trkpt lat="44.57458" lon="6.85425">
        <ele>2666.6000976562</ele>
        <time>2020-02-17T12:46:28.000Z</time>
      </trkpt>
      <trkpt lat="44.57458" lon="6.85426">
        <ele>2666.6000976562</ele>
        <time>2020-02-17T12:46:32.000Z</time>
      </trkpt>
      <trkpt lat="44.57458" lon="6.85426">
        <ele>2666.6000976562</ele>
        <time>2020-02-17T12:46:42.000Z</time>
      </trkpt>
      <trkpt lat="44.57458" lon="6.85426">
        <ele>2666.6000976562</ele>
        <time>2020-02-17T12:46:46.000Z</time>
      </trkpt>
      <trkpt lat="44.57458" lon="6.85425">
        <ele>2666.6000976562</ele>
        <time>2020-02-17T12:46:48.000Z</time>
      </trkpt>
      <trkpt lat="44.57457" lon="6.85425">
        <ele>2666.6000976562</ele>
        <time>2020-02-17T12:46:55.000Z</time>
      </trkpt>
      <trkpt lat="44.57457" lon="6.85425">
        <ele>2666.6000976562</ele>
        <time>2020-02-17T12:47:01.000Z</time>
      </trkpt>
      <trkpt lat="44.57457" lon="6.85425">
        <ele>2666.6000976562</ele>
        <time>2020-02-17T12:47:05.000Z</time>
      </trkpt>
      <trkpt lat="44.57456" lon="6.85425">
        <ele>2666.6000976562</ele>
        <time>2020-02-17T12:47:08.000Z</time>
      </trkpt>
      <trkpt lat="44.57456" lon="6.85425">
        <ele>2666.6000976562</ele>
        <time>2020-02-17T12:47:15.000Z</time>
      </trkpt>
      <trkpt lat="44.57456" lon="6.85425">
        <ele>2666.6000976562</ele>
        <time>2020-02-17T12:47:16.000Z</time>
      </trkpt>
      <trkpt lat="44.57456" lon="6.85425">
        <ele>2666.6000976562</ele>
        <time>2020-02-17T12:47:18.000Z</time>
      </trkpt>
      <trkpt lat="44.57456" lon="6.85425">
        <ele>2666.6000976562</ele>
        <time>2020-02-17T12:47:24.000Z</time>
      </trkpt>
      <trkpt lat="44.57457" lon="6.85425">
        <ele>2666.6000976562</ele>
        <time>2020-02-17T12:47:29.000Z</time>
      </trkpt>
      <trkpt lat="44.57457" lon="6.85425">
        <ele>2666.6000976562</ele>
        <time>2020-02-17T12:47:36.000Z</time>
      </trkpt>
      <trkpt lat="44.57457" lon="6.85425">
        <ele>2666.6000976562</ele>
        <time>2020-02-17T12:47:41.000Z</time>
      </trkpt>
      <trkpt lat="44.57456" lon="6.85425">
        <ele>2666.6000976562</ele>
        <time>2020-02-17T12:47:44.000Z</time>
      </trkpt>
      <trkpt lat="44.57456" lon="6.85424">
        <ele>2666.6000976562</ele>
        <time>2020-02-17T12:47:46.000Z</time>
      </trkpt>
      <trkpt lat="44.57456" lon="6.85425">
        <ele>2666.6000976562</ele>
        <time>2020-02-17T12:47:47.000Z</time>
      </trkpt>
      <trkpt lat="44.57456" lon="6.85424">
        <ele>2666.6000976562</ele>
        <time>2020-02-17T12:47:50.000Z</time>
      </trkpt>
      <trkpt lat="44.57456" lon="6.85424">
        <ele>2666.6000976562</ele>
        <time>2020-02-17T12:48:06.000Z</time>
      </trkpt>
      <trkpt lat="44.57456" lon="6.85424">
        <ele>2666.6000976562</ele>
        <time>2020-02-17T12:48:11.000Z</time>
      </trkpt>
      <trkpt lat="44.57455" lon="6.85424">
        <ele>2666.6000976562</ele>
        <time>2020-02-17T12:48:13.000Z</time>
      </trkpt>
      <trkpt lat="44.57455" lon="6.85424">
        <ele>2666.6000976562</ele>
        <time>2020-02-17T12:48:15.000Z</time>
      </trkpt>
      <trkpt lat="44.57455" lon="6.85424">
        <ele>2666.6000976562</ele>
        <time>2020-02-17T12:48:18.000Z</time>
      </trkpt>
      <trkpt lat="44.57455" lon="6.85425">
        <ele>2666.6000976562</ele>
        <time>2020-02-17T12:48:25.000Z</time>
      </trkpt>
      <trkpt lat="44.57454" lon="6.85425">
        <ele>2666.6000976562</ele>
        <time>2020-02-17T12:48:27.000Z</time>
      </trkpt>
      <trkpt lat="44.57454" lon="6.85425">
        <ele>2666.6000976562</ele>
        <time>2020-02-17T12:48:29.000Z</time>
      </trkpt>
      <trkpt lat="44.57454" lon="6.85424">
        <ele>2666.6000976562</ele>
        <time>2020-02-17T12:48:32.000Z</time>
      </trkpt>
      <trkpt lat="44.57454" lon="6.85424">
        <ele>2666.6000976562</ele>
        <time>2020-02-17T12:48:33.000Z</time>
      </trkpt>
      <trkpt lat="44.57455" lon="6.85424">
        <ele>2666.6000976562</ele>
        <time>2020-02-17T12:48:37.000Z</time>
      </trkpt>
      <trkpt lat="44.57455" lon="6.85423">
        <ele>2666.6000976562</ele>
        <time>2020-02-17T12:48:48.000Z</time>
      </trkpt>
      <trkpt lat="44.57456" lon="6.85423">
        <ele>2666.6000976562</ele>
        <time>2020-02-17T12:48:51.000Z</time>
      </trkpt>
      <trkpt lat="44.57456" lon="6.85424">
        <ele>2666.6000976562</ele>
        <time>2020-02-17T12:48:54.000Z</time>
      </trkpt>
      <trkpt lat="44.57457" lon="6.85424">
        <ele>2666.6000976562</ele>
        <time>2020-02-17T12:48:58.000Z</time>
      </trkpt>
      <trkpt lat="44.57457" lon="6.85425">
        <ele>2666.6000976562</ele>
        <time>2020-02-17T12:49:06.000Z</time>
      </trkpt>
      <trkpt lat="44.57457" lon="6.85425">
        <ele>2666.6000976562</ele>
        <time>2020-02-17T12:49:09.000Z</time>
      </trkpt>
      <trkpt lat="44.57457" lon="6.85425">
        <ele>2666.6000976562</ele>
        <time>2020-02-17T12:49:13.000Z</time>
      </trkpt>
      <trkpt lat="44.57457" lon="6.85424">
        <ele>2666.6000976562</ele>
        <time>2020-02-17T12:49:16.000Z</time>
      </trkpt>
      <trkpt lat="44.57457" lon="6.85424">
        <ele>2666.6000976562</ele>
        <time>2020-02-17T12:49:19.000Z</time>
      </trkpt>
      <trkpt lat="44.57457" lon="6.85424">
        <ele>2666.6000976562</ele>
        <time>2020-02-17T12:49:21.000Z</time>
      </trkpt>
      <trkpt lat="44.57457" lon="6.85424">
        <ele>2666.6000976562</ele>
        <time>2020-02-17T12:49:25.000Z</time>
      </trkpt>
      <trkpt lat="44.5746" lon="6.85424">
        <ele>2666.6000976562</ele>
        <time>2020-02-17T12:49:37.000Z</time>
      </trkpt>
      <trkpt lat="44.57461" lon="6.85425">
        <ele>2666.6000976562</ele>
        <time>2020-02-17T12:49:42.000Z</time>
      </trkpt>
      <trkpt lat="44.5746" lon="6.85424">
        <ele>2666.6000976562</ele>
        <time>2020-02-17T12:49:46.000Z</time>
      </trkpt>
      <trkpt lat="44.57459" lon="6.85423">
        <ele>2666.6000976562</ele>
        <time>2020-02-17T12:49:48.000Z</time>
      </trkpt>
      <trkpt lat="44.57459" lon="6.85423">
        <ele>2666.6000976562</ele>
        <time>2020-02-17T12:49:50.000Z</time>
      </trkpt>
      <trkpt lat="44.5746" lon="6.85423">
        <ele>2666.6000976562</ele>
        <time>2020-02-17T12:50:01.000Z</time>
      </trkpt>
      <trkpt lat="44.5746" lon="6.85423">
        <ele>2666.6000976562</ele>
        <time>2020-02-17T12:50:02.000Z</time>
      </trkpt>
      <trkpt lat="44.5746" lon="6.85423">
        <ele>2666.6000976562</ele>
        <time>2020-02-17T12:50:05.000Z</time>
      </trkpt>
      <trkpt lat="44.5746" lon="6.85423">
        <ele>2666.6000976562</ele>
        <time>2020-02-17T12:50:08.000Z</time>
      </trkpt>
      <trkpt lat="44.5746" lon="6.85423">
        <ele>2666.6000976562</ele>
        <time>2020-02-17T12:50:11.000Z</time>
      </trkpt>
      <trkpt lat="44.5746" lon="6.85424">
        <ele>2666.6000976562</ele>
        <time>2020-02-17T12:50:13.000Z</time>
      </trkpt>
      <trkpt lat="44.5746" lon="6.85424">
        <ele>2666.6000976562</ele>
        <time>2020-02-17T12:50:15.000Z</time>
      </trkpt>
      <trkpt lat="44.5746" lon="6.85424">
        <ele>2666.6000976562</ele>
        <time>2020-02-17T12:50:18.000Z</time>
      </trkpt>
      <trkpt lat="44.5746" lon="6.85423">
        <ele>2666.6000976562</ele>
        <time>2020-02-17T12:50:20.000Z</time>
      </trkpt>
      <trkpt lat="44.5746" lon="6.85423">
        <ele>2666.6000976562</ele>
        <time>2020-02-17T12:50:21.000Z</time>
      </trkpt>
      <trkpt lat="44.57458" lon="6.85424">
        <ele>2666.6000976562</ele>
        <time>2020-02-17T12:50:30.000Z</time>
      </trkpt>
      <trkpt lat="44.57457" lon="6.85426">
        <ele>2666.6000976562</ele>
        <time>2020-02-17T12:50:36.000Z</time>
      </trkpt>
      <trkpt lat="44.57458" lon="6.85425">
        <ele>2666.6000976562</ele>
        <time>2020-02-17T12:50:40.000Z</time>
      </trkpt>
      <trkpt lat="44.57458" lon="6.85425">
        <ele>2666.6000976562</ele>
        <time>2020-02-17T12:50:43.000Z</time>
      </trkpt>
      <trkpt lat="44.5746" lon="6.85423">
        <ele>2666.6000976562</ele>
        <time>2020-02-17T12:50:48.000Z</time>
      </trkpt>
      <trkpt lat="44.5746" lon="6.85423">
        <ele>2666.6000976562</ele>
        <time>2020-02-17T12:50:49.000Z</time>
      </trkpt>
      <trkpt lat="44.57459" lon="6.85422">
        <ele>2666.6000976562</ele>
        <time>2020-02-17T12:50:51.000Z</time>
      </trkpt>
      <trkpt lat="44.57458" lon="6.85422">
        <ele>2666.6000976562</ele>
        <time>2020-02-17T12:50:52.000Z</time>
      </trkpt>
      <trkpt lat="44.57457" lon="6.85421">
        <ele>2666.6000976562</ele>
        <time>2020-02-17T12:50:56.000Z</time>
      </trkpt>
      <trkpt lat="44.57456" lon="6.85418">
        <ele>2666.6000976562</ele>
        <time>2020-02-17T12:51:01.000Z</time>
      </trkpt>
      <trkpt lat="44.57456" lon="6.85418">
        <ele>2666.6000976562</ele>
        <time>2020-02-17T12:51:03.000Z</time>
      </trkpt>
      <trkpt lat="44.57455" lon="6.85417">
        <ele>2666.6000976562</ele>
        <time>2020-02-17T12:51:08.000Z</time>
      </trkpt>
      <trkpt lat="44.57454" lon="6.85416">
        <ele>2666.6000976562</ele>
        <time>2020-02-17T12:51:12.000Z</time>
      </trkpt>
      <trkpt lat="44.57455" lon="6.85417">
        <ele>2666.6000976562</ele>
        <time>2020-02-17T12:51:15.000Z</time>
      </trkpt>
      <trkpt lat="44.57454" lon="6.85417">
        <ele>2666.6000976562</ele>
        <time>2020-02-17T12:51:17.000Z</time>
      </trkpt>
      <trkpt lat="44.57455" lon="6.85418">
        <ele>2666.6000976562</ele>
        <time>2020-02-17T12:51:20.000Z</time>
      </trkpt>
      <trkpt lat="44.57457" lon="6.85421">
        <ele>2666.6000976562</ele>
        <time>2020-02-17T12:51:26.000Z</time>
      </trkpt>
      <trkpt lat="44.57457" lon="6.85421">
        <ele>2666.6000976562</ele>
        <time>2020-02-17T12:51:28.000Z</time>
      </trkpt>
      <trkpt lat="44.57459" lon="6.85422">
        <ele>2666.6000976562</ele>
        <time>2020-02-17T12:51:31.000Z</time>
      </trkpt>
      <trkpt lat="44.57459" lon="6.85423">
        <ele>2666.6000976562</ele>
        <time>2020-02-17T12:51:33.000Z</time>
      </trkpt>
      <trkpt lat="44.57459" lon="6.85423">
        <ele>2666.6000976562</ele>
        <time>2020-02-17T12:51:35.000Z</time>
      </trkpt>
      <trkpt lat="44.57459" lon="6.85424">
        <ele>2666.6000976562</ele>
        <time>2020-02-17T12:51:37.000Z</time>
      </trkpt>
      <trkpt lat="44.57459" lon="6.85424">
        <ele>2666.6000976562</ele>
        <time>2020-02-17T12:51:39.000Z</time>
      </trkpt>
      <trkpt lat="44.57459" lon="6.85424">
        <ele>2666.6000976562</ele>
        <time>2020-02-17T12:51:40.000Z</time>
      </trkpt>
      <trkpt lat="44.57459" lon="6.85424">
        <ele>2666.6000976562</ele>
        <time>2020-02-17T12:51:41.000Z</time>
      </trkpt>
      <trkpt lat="44.57459" lon="6.85424">
        <ele>2666.6000976562</ele>
        <time>2020-02-17T12:51:44.000Z</time>
      </trkpt>
      <trkpt lat="44.57459" lon="6.85424">
        <ele>2666.6000976562</ele>
        <time>2020-02-17T12:51:46.000Z</time>
      </trkpt>
      <trkpt lat="44.5746" lon="6.85424">
        <ele>2666.6000976562</ele>
        <time>2020-02-17T12:51:48.000Z</time>
      </trkpt>
      <trkpt lat="44.5746" lon="6.85424">
        <ele>2666.6000976562</ele>
        <time>2020-02-17T12:51:52.000Z</time>
      </trkpt>
      <trkpt lat="44.5746" lon="6.85424">
        <ele>2666.6000976562</ele>
        <time>2020-02-17T12:51:57.000Z</time>
      </trkpt>
      <trkpt lat="44.5746" lon="6.85424">
        <ele>2666.6000976562</ele>
        <time>2020-02-17T12:51:58.000Z</time>
      </trkpt>
      <trkpt lat="44.57459" lon="6.85424">
        <ele>2666.6000976562</ele>
        <time>2020-02-17T12:52:01.000Z</time>
      </trkpt>
      <trkpt lat="44.57459" lon="6.85424">
        <ele>2666.6000976562</ele>
        <time>2020-02-17T12:52:03.000Z</time>
      </trkpt>
      <trkpt lat="44.57459" lon="6.85423">
        <ele>2666.6000976562</ele>
        <time>2020-02-17T12:52:05.000Z</time>
      </trkpt>
      <trkpt lat="44.57459" lon="6.85423">
        <ele>2666.6000976562</ele>
        <time>2020-02-17T12:52:13.000Z</time>
      </trkpt>
      <trkpt lat="44.57458" lon="6.85423">
        <ele>2666.6000976562</ele>
        <time>2020-02-17T12:52:15.000Z</time>
      </trkpt>
      <trkpt lat="44.57458" lon="6.85423">
        <ele>2666.6000976562</ele>
        <time>2020-02-17T12:52:18.000Z</time>
      </trkpt>
      <trkpt lat="44.57459" lon="6.85423">
        <ele>2666.6000976562</ele>
        <time>2020-02-17T12:52:19.000Z</time>
      </trkpt>
      <trkpt lat="44.57458" lon="6.85423">
        <ele>2666.6000976562</ele>
        <time>2020-02-17T12:52:22.000Z</time>
      </trkpt>
      <trkpt lat="44.57458" lon="6.85423">
        <ele>2666.6000976562</ele>
        <time>2020-02-17T12:52:24.000Z</time>
      </trkpt>
      <trkpt lat="44.57458" lon="6.85423">
        <ele>2666.6000976562</ele>
        <time>2020-02-17T12:52:26.000Z</time>
      </trkpt>
      <trkpt lat="44.57458" lon="6.85423">
        <ele>2666.6000976562</ele>
        <time>2020-02-17T12:52:29.000Z</time>
      </trkpt>
      <trkpt lat="44.57458" lon="6.85423">
        <ele>2666.6000976562</ele>
        <time>2020-02-17T12:52:30.000Z</time>
      </trkpt>
      <trkpt lat="44.57458" lon="6.85423">
        <ele>2666.6000976562</ele>
        <time>2020-02-17T12:52:32.000Z</time>
      </trkpt>
      <trkpt lat="44.57458" lon="6.85423">
        <ele>2666.6000976562</ele>
        <time>2020-02-17T12:52:33.000Z</time>
      </trkpt>
      <trkpt lat="44.57458" lon="6.85423">
        <ele>2666.6000976562</ele>
        <time>2020-02-17T12:52:36.000Z</time>
      </trkpt>
      <trkpt lat="44.57458" lon="6.85424">
        <ele>2666.6000976562</ele>
        <time>2020-02-17T12:52:37.000Z</time>
      </trkpt>
      <trkpt lat="44.57458" lon="6.85424">
        <ele>2666.6000976562</ele>
        <time>2020-02-17T12:52:38.000Z</time>
      </trkpt>
      <trkpt lat="44.57457" lon="6.85424">
        <ele>2666.6000976562</ele>
        <time>2020-02-17T12:52:40.000Z</time>
      </trkpt>
      <trkpt lat="44.57457" lon="6.85424">
        <ele>2666.6000976562</ele>
        <time>2020-02-17T12:52:41.000Z</time>
      </trkpt>
      <trkpt lat="44.57458" lon="6.85424">
        <ele>2666.6000976562</ele>
        <time>2020-02-17T12:52:48.000Z</time>
      </trkpt>
      <trkpt lat="44.57457" lon="6.85424">
        <ele>2666.6000976562</ele>
        <time>2020-02-17T12:52:53.000Z</time>
      </trkpt>
      <trkpt lat="44.57457" lon="6.85424">
        <ele>2666.6000976562</ele>
        <time>2020-02-17T12:52:54.000Z</time>
      </trkpt>
      <trkpt lat="44.57457" lon="6.85424">
        <ele>2666.6000976562</ele>
        <time>2020-02-17T12:52:55.000Z</time>
      </trkpt>
      <trkpt lat="44.57457" lon="6.85424">
        <ele>2666.6000976562</ele>
        <time>2020-02-17T12:52:57.000Z</time>
      </trkpt>
      <trkpt lat="44.57457" lon="6.85424">
        <ele>2666.6000976562</ele>
        <time>2020-02-17T12:52:59.000Z</time>
      </trkpt>
      <trkpt lat="44.57456" lon="6.85425">
        <ele>2666.6000976562</ele>
        <time>2020-02-17T12:53:05.000Z</time>
      </trkpt>
      <trkpt lat="44.57457" lon="6.85425">
        <ele>2666.6000976562</ele>
        <time>2020-02-17T12:53:09.000Z</time>
      </trkpt>
      <trkpt lat="44.57457" lon="6.85425">
        <ele>2666.6000976562</ele>
        <time>2020-02-17T12:53:10.000Z</time>
      </trkpt>
      <trkpt lat="44.57457" lon="6.85425">
        <ele>2666.6000976562</ele>
        <time>2020-02-17T12:53:12.000Z</time>
      </trkpt>
      <trkpt lat="44.57457" lon="6.85425">
        <ele>2666.6000976562</ele>
        <time>2020-02-17T12:53:14.000Z</time>
      </trkpt>
      <trkpt lat="44.57457" lon="6.85425">
        <ele>2666.6000976562</ele>
        <time>2020-02-17T12:53:17.000Z</time>
      </trkpt>
      <trkpt lat="44.57457" lon="6.85425">
        <ele>2666.6000976562</ele>
        <time>2020-02-17T12:53:20.000Z</time>
      </trkpt>
      <trkpt lat="44.57457" lon="6.85423">
        <ele>2666.6000976562</ele>
        <time>2020-02-17T12:53:25.000Z</time>
      </trkpt>
      <trkpt lat="44.57456" lon="6.85423">
        <ele>2666.6000976562</ele>
        <time>2020-02-17T12:53:29.000Z</time>
      </trkpt>
      <trkpt lat="44.57455" lon="6.85422">
        <ele>2666.6000976562</ele>
        <time>2020-02-17T12:53:31.000Z</time>
      </trkpt>
      <trkpt lat="44.57455" lon="6.85419">
        <ele>2666.6000976562</ele>
        <time>2020-02-17T12:53:35.000Z</time>
      </trkpt>
      <trkpt lat="44.57457" lon="6.85423">
        <ele>2666.6000976562</ele>
        <time>2020-02-17T12:53:44.000Z</time>
      </trkpt>
      <trkpt lat="44.57458" lon="6.85424">
        <ele>2666.6000976562</ele>
        <time>2020-02-17T12:53:46.000Z</time>
      </trkpt>
      <trkpt lat="44.57461" lon="6.85425">
        <ele>2666.6000976562</ele>
        <time>2020-02-17T12:53:57.000Z</time>
      </trkpt>
      <trkpt lat="44.5746" lon="6.85425">
        <ele>2666.6000976562</ele>
        <time>2020-02-17T12:54:00.000Z</time>
      </trkpt>
      <trkpt lat="44.5746" lon="6.85424">
        <ele>2666.6000976562</ele>
        <time>2020-02-17T12:54:01.000Z</time>
      </trkpt>
      <trkpt lat="44.57459" lon="6.85425">
        <ele>2666.6000976562</ele>
        <time>2020-02-17T12:54:05.000Z</time>
      </trkpt>
      <trkpt lat="44.57458" lon="6.85424">
        <ele>2666.6000976562</ele>
        <time>2020-02-17T12:54:12.000Z</time>
      </trkpt>
      <trkpt lat="44.57458" lon="6.85424">
        <ele>2666.6000976562</ele>
        <time>2020-02-17T12:54:14.000Z</time>
      </trkpt>
      <trkpt lat="44.57458" lon="6.85424">
        <ele>2666.6000976562</ele>
        <time>2020-02-17T12:54:17.000Z</time>
      </trkpt>
      <trkpt lat="44.57457" lon="6.85424">
        <ele>2666.6000976562</ele>
        <time>2020-02-17T12:54:19.000Z</time>
      </trkpt>
      <trkpt lat="44.57457" lon="6.85424">
        <ele>2666.6000976562</ele>
        <time>2020-02-17T12:54:21.000Z</time>
      </trkpt>
      <trkpt lat="44.57458" lon="6.85423">
        <ele>2666.6000976562</ele>
        <time>2020-02-17T12:54:24.000Z</time>
      </trkpt>
      <trkpt lat="44.57458" lon="6.85424">
        <ele>2666.6000976562</ele>
        <time>2020-02-17T12:54:25.000Z</time>
      </trkpt>
      <trkpt lat="44.57458" lon="6.85424">
        <ele>2666.6000976562</ele>
        <time>2020-02-17T12:54:26.000Z</time>
      </trkpt>
      <trkpt lat="44.57459" lon="6.85424">
        <ele>2666.6000976562</ele>
        <time>2020-02-17T12:54:36.000Z</time>
      </trkpt>
      <trkpt lat="44.57458" lon="6.85424">
        <ele>2666.6000976562</ele>
        <time>2020-02-17T12:54:46.000Z</time>
      </trkpt>
      <trkpt lat="44.57458" lon="6.85424">
        <ele>2666.6000976562</ele>
        <time>2020-02-17T12:54:50.000Z</time>
      </trkpt>
      <trkpt lat="44.57458" lon="6.85425">
        <ele>2666.6000976562</ele>
        <time>2020-02-17T12:54:52.000Z</time>
      </trkpt>
      <trkpt lat="44.57458" lon="6.85425">
        <ele>2666.6000976562</ele>
        <time>2020-02-17T12:54:54.000Z</time>
      </trkpt>
      <trkpt lat="44.57458" lon="6.85425">
        <ele>2666.6000976562</ele>
        <time>2020-02-17T12:54:57.000Z</time>
      </trkpt>
      <trkpt lat="44.57458" lon="6.85425">
        <ele>2666.6000976562</ele>
        <time>2020-02-17T12:54:58.000Z</time>
      </trkpt>
      <trkpt lat="44.57457" lon="6.85425">
        <ele>2666.6000976562</ele>
        <time>2020-02-17T12:55:00.000Z</time>
      </trkpt>
      <trkpt lat="44.57458" lon="6.85424">
        <ele>2666.6000976562</ele>
        <time>2020-02-17T12:55:02.000Z</time>
      </trkpt>
      <trkpt lat="44.57459" lon="6.85424">
        <ele>2666.6000976562</ele>
        <time>2020-02-17T12:55:05.000Z</time>
      </trkpt>
      <trkpt lat="44.5746" lon="6.85423">
        <ele>2666.6000976562</ele>
        <time>2020-02-17T12:55:08.000Z</time>
      </trkpt>
      <trkpt lat="44.57457" lon="6.85425">
        <ele>2666.6000976562</ele>
        <time>2020-02-17T12:55:20.000Z</time>
      </trkpt>
      <trkpt lat="44.57456" lon="6.85425">
        <ele>2666.6000976562</ele>
        <time>2020-02-17T12:55:25.000Z</time>
      </trkpt>
      <trkpt lat="44.57456" lon="6.85425">
        <ele>2666.6000976562</ele>
        <time>2020-02-17T12:55:29.000Z</time>
      </trkpt>
      <trkpt lat="44.57456" lon="6.85426">
        <ele>2666.6000976562</ele>
        <time>2020-02-17T12:55:36.000Z</time>
      </trkpt>
      <trkpt lat="44.57456" lon="6.85426">
        <ele>2666.6000976562</ele>
        <time>2020-02-17T12:55:39.000Z</time>
      </trkpt>
      <trkpt lat="44.57456" lon="6.85426">
        <ele>2666.6000976562</ele>
        <time>2020-02-17T12:55:40.000Z</time>
      </trkpt>
      <trkpt lat="44.57456" lon="6.85426">
        <ele>2666.6000976562</ele>
        <time>2020-02-17T12:55:42.000Z</time>
      </trkpt>
      <trkpt lat="44.57456" lon="6.85426">
        <ele>2666.6000976562</ele>
        <time>2020-02-17T12:55:44.000Z</time>
      </trkpt>
      <trkpt lat="44.57456" lon="6.85426">
        <ele>2666.6000976562</ele>
        <time>2020-02-17T12:55:46.000Z</time>
      </trkpt>
      <trkpt lat="44.57456" lon="6.85426">
        <ele>2666.6000976562</ele>
        <time>2020-02-17T12:55:48.000Z</time>
      </trkpt>
      <trkpt lat="44.57456" lon="6.85425">
        <ele>2666.6000976562</ele>
        <time>2020-02-17T12:55:54.000Z</time>
      </trkpt>
      <trkpt lat="44.57456" lon="6.85426">
        <ele>2666.6000976562</ele>
        <time>2020-02-17T12:55:56.000Z</time>
      </trkpt>
      <trkpt lat="44.57457" lon="6.85426">
        <ele>2666.6000976562</ele>
        <time>2020-02-17T12:56:00.000Z</time>
      </trkpt>
      <trkpt lat="44.57454" lon="6.85426">
        <ele>2666.6000976562</ele>
        <time>2020-02-17T12:56:12.000Z</time>
      </trkpt>
      <trkpt lat="44.57454" lon="6.85425">
        <ele>2666.6000976562</ele>
        <time>2020-02-17T12:56:17.000Z</time>
      </trkpt>
      <trkpt lat="44.57454" lon="6.85425">
        <ele>2666.6000976562</ele>
        <time>2020-02-17T12:56:18.000Z</time>
      </trkpt>
      <trkpt lat="44.57454" lon="6.85425">
        <ele>2666.6000976562</ele>
        <time>2020-02-17T12:56:20.000Z</time>
      </trkpt>
      <trkpt lat="44.57454" lon="6.85426">
        <ele>2666.6000976562</ele>
        <time>2020-02-17T12:56:26.000Z</time>
      </trkpt>
      <trkpt lat="44.57455" lon="6.85427">
        <ele>2666.6000976562</ele>
        <time>2020-02-17T12:56:29.000Z</time>
      </trkpt>
      <trkpt lat="44.57456" lon="6.85427">
        <ele>2666.6000976562</ele>
        <time>2020-02-17T12:56:33.000Z</time>
      </trkpt>
      <trkpt lat="44.57456" lon="6.85426">
        <ele>2666.6000976562</ele>
        <time>2020-02-17T12:56:38.000Z</time>
      </trkpt>
      <trkpt lat="44.57458" lon="6.85426">
        <ele>2666.6000976562</ele>
        <time>2020-02-17T12:56:44.000Z</time>
      </trkpt>
      <trkpt lat="44.57457" lon="6.85426">
        <ele>2666.6000976562</ele>
        <time>2020-02-17T12:56:46.000Z</time>
      </trkpt>
      <trkpt lat="44.57458" lon="6.85426">
        <ele>2666.6000976562</ele>
        <time>2020-02-17T12:56:48.000Z</time>
      </trkpt>
      <trkpt lat="44.57458" lon="6.85426">
        <ele>2666.6000976562</ele>
        <time>2020-02-17T12:56:50.000Z</time>
      </trkpt>
      <trkpt lat="44.57457" lon="6.85426">
        <ele>2666.6000976562</ele>
        <time>2020-02-17T12:56:52.000Z</time>
      </trkpt>
      <trkpt lat="44.57457" lon="6.85425">
        <ele>2666.6000976562</ele>
        <time>2020-02-17T12:56:59.000Z</time>
      </trkpt>
      <trkpt lat="44.57457" lon="6.85425">
        <ele>2666.6000976562</ele>
        <time>2020-02-17T12:57:04.000Z</time>
      </trkpt>
      <trkpt lat="44.57457" lon="6.85425">
        <ele>2666.6000976562</ele>
        <time>2020-02-17T12:57:05.000Z</time>
      </trkpt>
      <trkpt lat="44.57457" lon="6.85425">
        <ele>2666.6000976562</ele>
        <time>2020-02-17T12:57:07.000Z</time>
      </trkpt>
      <trkpt lat="44.57457" lon="6.85425">
        <ele>2666.6000976562</ele>
        <time>2020-02-17T12:57:08.000Z</time>
      </trkpt>
      <trkpt lat="44.57456" lon="6.85425">
        <ele>2666.6000976562</ele>
        <time>2020-02-17T12:57:10.000Z</time>
      </trkpt>
      <trkpt lat="44.57456" lon="6.85425">
        <ele>2666.6000976562</ele>
        <time>2020-02-17T12:57:12.000Z</time>
      </trkpt>
      <trkpt lat="44.57457" lon="6.85424">
        <ele>2666.6000976562</ele>
        <time>2020-02-17T12:57:18.000Z</time>
      </trkpt>
      <trkpt lat="44.5746" lon="6.85424">
        <ele>2666.6000976562</ele>
        <time>2020-02-17T12:57:29.000Z</time>
      </trkpt>
      <trkpt lat="44.57458" lon="6.85423">
        <ele>2666.6000976562</ele>
        <time>2020-02-17T12:57:33.000Z</time>
      </trkpt>
      <trkpt lat="44.57458" lon="6.85424">
        <ele>2666.6000976562</ele>
        <time>2020-02-17T12:57:35.000Z</time>
      </trkpt>
      <trkpt lat="44.57457" lon="6.85424">
        <ele>2666.6000976562</ele>
        <time>2020-02-17T12:57:47.000Z</time>
      </trkpt>
      <trkpt lat="44.57457" lon="6.85424">
        <ele>2666.6000976562</ele>
        <time>2020-02-17T12:57:50.000Z</time>
      </trkpt>
      <trkpt lat="44.57457" lon="6.85424">
        <ele>2666.6000976562</ele>
        <time>2020-02-17T12:57:55.000Z</time>
      </trkpt>
      <trkpt lat="44.57456" lon="6.85425">
        <ele>2666.6000976562</ele>
        <time>2020-02-17T12:57:57.000Z</time>
      </trkpt>
      <trkpt lat="44.57455" lon="6.85424">
        <ele>2666.6000976562</ele>
        <time>2020-02-17T12:58:13.000Z</time>
      </trkpt>
      <trkpt lat="44.57454" lon="6.85428">
        <ele>2666.6000976562</ele>
        <time>2020-02-17T12:58:34.000Z</time>
      </trkpt>
      <trkpt lat="44.57456" lon="6.85428">
        <ele>2666.6000976562</ele>
        <time>2020-02-17T12:58:39.000Z</time>
      </trkpt>
      <trkpt lat="44.57457" lon="6.85428">
        <ele>2666.6000976562</ele>
        <time>2020-02-17T12:58:43.000Z</time>
      </trkpt>
      <trkpt lat="44.57457" lon="6.85427">
        <ele>2666.6000976562</ele>
        <time>2020-02-17T12:58:44.000Z</time>
      </trkpt>
      <trkpt lat="44.57457" lon="6.85426">
        <ele>2666.6000976562</ele>
        <time>2020-02-17T12:58:45.000Z</time>
      </trkpt>
      <trkpt lat="44.57457" lon="6.85425">
        <ele>2666.6000976562</ele>
        <time>2020-02-17T12:58:47.000Z</time>
      </trkpt>
      <trkpt lat="44.57457" lon="6.85424">
        <ele>2666.6000976562</ele>
        <time>2020-02-17T12:58:51.000Z</time>
      </trkpt>
      <trkpt lat="44.57457" lon="6.85424">
        <ele>2666.6000976562</ele>
        <time>2020-02-17T12:59:06.000Z</time>
      </trkpt>
      <trkpt lat="44.57457" lon="6.85424">
        <ele>2666.6000976562</ele>
        <time>2020-02-17T12:59:14.000Z</time>
      </trkpt>
      <trkpt lat="44.57457" lon="6.85424">
        <ele>2666.6000976562</ele>
        <time>2020-02-17T12:59:17.000Z</time>
      </trkpt>
      <trkpt lat="44.57457" lon="6.85425">
        <ele>2666.6000976562</ele>
        <time>2020-02-17T12:59:18.000Z</time>
      </trkpt>
      <trkpt lat="44.57458" lon="6.85425">
        <ele>2666.6000976562</ele>
        <time>2020-02-17T12:59:20.000Z</time>
      </trkpt>
      <trkpt lat="44.57458" lon="6.85422">
        <ele>2666.6000976562</ele>
        <time>2020-02-17T13:00:05.000Z</time>
      </trkpt>
      <trkpt lat="44.57458" lon="6.85422">
        <ele>2666.6000976562</ele>
        <time>2020-02-17T13:00:18.000Z</time>
      </trkpt>
      <trkpt lat="44.57458" lon="6.85423">
        <ele>2666.6000976562</ele>
        <time>2020-02-17T13:00:19.000Z</time>
      </trkpt>
      <trkpt lat="44.57458" lon="6.85423">
        <ele>2666.6000976562</ele>
        <time>2020-02-17T13:00:23.000Z</time>
      </trkpt>
      <trkpt lat="44.57458" lon="6.85423">
        <ele>2666.6000976562</ele>
        <time>2020-02-17T13:00:27.000Z</time>
      </trkpt>
      <trkpt lat="44.57458" lon="6.85423">
        <ele>2666.6000976562</ele>
        <time>2020-02-17T13:00:30.000Z</time>
      </trkpt>
      <trkpt lat="44.57458" lon="6.85423">
        <ele>2666.6000976562</ele>
        <time>2020-02-17T13:00:32.000Z</time>
      </trkpt>
      <trkpt lat="44.57457" lon="6.85424">
        <ele>2666.6000976562</ele>
        <time>2020-02-17T13:00:36.000Z</time>
      </trkpt>
      <trkpt lat="44.57456" lon="6.85425">
        <ele>2666.6000976562</ele>
        <time>2020-02-17T13:00:38.000Z</time>
      </trkpt>
      <trkpt lat="44.57457" lon="6.85425">
        <ele>2666.6000976562</ele>
        <time>2020-02-17T13:00:42.000Z</time>
      </trkpt>
      <trkpt lat="44.57457" lon="6.85425">
        <ele>2666.6000976562</ele>
        <time>2020-02-17T13:00:43.000Z</time>
      </trkpt>
      <trkpt lat="44.57457" lon="6.85424">
        <ele>2666.6000976562</ele>
        <time>2020-02-17T13:00:46.000Z</time>
      </trkpt>
      <trkpt lat="44.57457" lon="6.85427">
        <ele>2666.6000976562</ele>
        <time>2020-02-17T13:00:53.000Z</time>
      </trkpt>
      <trkpt lat="44.57455" lon="6.85427">
        <ele>2666.6000976562</ele>
        <time>2020-02-17T13:01:08.000Z</time>
      </trkpt>
      <trkpt lat="44.57458" lon="6.85424">
        <ele>2666.6000976562</ele>
        <time>2020-02-17T13:01:23.000Z</time>
      </trkpt>
      <trkpt lat="44.57455" lon="6.85425">
        <ele>2666.6000976562</ele>
        <time>2020-02-17T13:01:28.000Z</time>
      </trkpt>
      <trkpt lat="44.57454" lon="6.85424">
        <ele>2666.6000976562</ele>
        <time>2020-02-17T13:01:44.000Z</time>
      </trkpt>
      <trkpt lat="44.57454" lon="6.85424">
        <ele>2666.6000976562</ele>
        <time>2020-02-17T13:01:45.000Z</time>
      </trkpt>
      <trkpt lat="44.57454" lon="6.85424">
        <ele>2666.6000976562</ele>
        <time>2020-02-17T13:01:48.000Z</time>
      </trkpt>
      <trkpt lat="44.57454" lon="6.85423">
        <ele>2666.6000976562</ele>
        <time>2020-02-17T13:01:50.000Z</time>
      </trkpt>
      <trkpt lat="44.57455" lon="6.85423">
        <ele>2666.6000976562</ele>
        <time>2020-02-17T13:01:51.000Z</time>
      </trkpt>
      <trkpt lat="44.57455" lon="6.85423">
        <ele>2666.6000976562</ele>
        <time>2020-02-17T13:01:59.000Z</time>
      </trkpt>
      <trkpt lat="44.57455" lon="6.85423">
        <ele>2666.6000976562</ele>
        <time>2020-02-17T13:02:01.000Z</time>
      </trkpt>
      <trkpt lat="44.57455" lon="6.85422">
        <ele>2666.6000976562</ele>
        <time>2020-02-17T13:02:03.000Z</time>
      </trkpt>
      <trkpt lat="44.57455" lon="6.85422">
        <ele>2666.6000976562</ele>
        <time>2020-02-17T13:02:04.000Z</time>
      </trkpt>
      <trkpt lat="44.57455" lon="6.85423">
        <ele>2666.6000976562</ele>
        <time>2020-02-17T13:02:05.000Z</time>
      </trkpt>
      <trkpt lat="44.57454" lon="6.85423">
        <ele>2666.6000976562</ele>
        <time>2020-02-17T13:02:07.000Z</time>
      </trkpt>
      <trkpt lat="44.57455" lon="6.85423">
        <ele>2666.6000976562</ele>
        <time>2020-02-17T13:02:08.000Z</time>
      </trkpt>
      <trkpt lat="44.57457" lon="6.85423">
        <ele>2666.6000976562</ele>
        <time>2020-02-17T13:02:14.000Z</time>
      </trkpt>
      <trkpt lat="44.57457" lon="6.85422">
        <ele>2666.6000976562</ele>
        <time>2020-02-17T13:02:18.000Z</time>
      </trkpt>
      <trkpt lat="44.57457" lon="6.85423">
        <ele>2666.6000976562</ele>
        <time>2020-02-17T13:02:19.000Z</time>
      </trkpt>
      <trkpt lat="44.57456" lon="6.85423">
        <ele>2666.6000976562</ele>
        <time>2020-02-17T13:02:20.000Z</time>
      </trkpt>
      <trkpt lat="44.57456" lon="6.85424">
        <ele>2666.6000976562</ele>
        <time>2020-02-17T13:02:21.000Z</time>
      </trkpt>
      <trkpt lat="44.57456" lon="6.85425">
        <ele>2666.6000976562</ele>
        <time>2020-02-17T13:02:22.000Z</time>
      </trkpt>
      <trkpt lat="44.57456" lon="6.85425">
        <ele>2666.6000976562</ele>
        <time>2020-02-17T13:02:23.000Z</time>
      </trkpt>
      <trkpt lat="44.57457" lon="6.85423">
        <ele>2666.6000976562</ele>
        <time>2020-02-17T13:02:24.000Z</time>
      </trkpt>
      <trkpt lat="44.57458" lon="6.85421">
        <ele>2666.6000976562</ele>
        <time>2020-02-17T13:02:26.000Z</time>
      </trkpt>
      <trkpt lat="44.57459" lon="6.8542">
        <ele>2666.6000976562</ele>
        <time>2020-02-17T13:02:28.000Z</time>
      </trkpt>
      <trkpt lat="44.57459" lon="6.8542">
        <ele>2666.6000976562</ele>
        <time>2020-02-17T13:02:29.000Z</time>
      </trkpt>
      <trkpt lat="44.57459" lon="6.85419">
        <ele>2666.6000976562</ele>
        <time>2020-02-17T13:02:30.000Z</time>
      </trkpt>
      <trkpt lat="44.57459" lon="6.85419">
        <ele>2666.6000976562</ele>
        <time>2020-02-17T13:02:34.000Z</time>
      </trkpt>
      <trkpt lat="44.57457" lon="6.85418">
        <ele>2666.6000976562</ele>
        <time>2020-02-17T13:02:37.000Z</time>
      </trkpt>
      <trkpt lat="44.57457" lon="6.85418">
        <ele>2666.6000976562</ele>
        <time>2020-02-17T13:02:40.000Z</time>
      </trkpt>
      <trkpt lat="44.57458" lon="6.85419">
        <ele>2666.6000976562</ele>
        <time>2020-02-17T13:02:44.000Z</time>
      </trkpt>
      <trkpt lat="44.57458" lon="6.85418">
        <ele>2666.6000976562</ele>
        <time>2020-02-17T13:02:45.000Z</time>
      </trkpt>
      <trkpt lat="44.57459" lon="6.85418">
        <ele>2666.6000976562</ele>
        <time>2020-02-17T13:02:46.000Z</time>
      </trkpt>
      <trkpt lat="44.57459" lon="6.85418">
        <ele>2666.6000976562</ele>
        <time>2020-02-17T13:02:50.000Z</time>
      </trkpt>
      <trkpt lat="44.5746" lon="6.85415">
        <ele>2666.6000976562</ele>
        <time>2020-02-17T13:03:00.000Z</time>
      </trkpt>
      <trkpt lat="44.57461" lon="6.85412">
        <ele>2666.6000976562</ele>
        <time>2020-02-17T13:03:03.000Z</time>
      </trkpt>
      <trkpt lat="44.5746" lon="6.85413">
        <ele>2666.6000976562</ele>
        <time>2020-02-17T13:03:05.000Z</time>
      </trkpt>
      <trkpt lat="44.57458" lon="6.85421">
        <ele>2666.6000976562</ele>
        <time>2020-02-17T13:03:13.000Z</time>
      </trkpt>
      <trkpt lat="44.57459" lon="6.85422">
        <ele>2666.6000976562</ele>
        <time>2020-02-17T13:03:19.000Z</time>
      </trkpt>
      <trkpt lat="44.57458" lon="6.85421">
        <ele>2666.6000976562</ele>
        <time>2020-02-17T13:03:25.000Z</time>
      </trkpt>
      <trkpt lat="44.57457" lon="6.85425">
        <ele>2666.6000976562</ele>
        <time>2020-02-17T13:03:30.000Z</time>
      </trkpt>
      <trkpt lat="44.57457" lon="6.85426">
        <ele>2666.6000976562</ele>
        <time>2020-02-17T13:03:33.000Z</time>
      </trkpt>
      <trkpt lat="44.57456" lon="6.85428">
        <ele>2666.6000976562</ele>
        <time>2020-02-17T13:03:36.000Z</time>
      </trkpt>
      <trkpt lat="44.57456" lon="6.85426">
        <ele>2666.6000976562</ele>
        <time>2020-02-17T13:03:42.000Z</time>
      </trkpt>
      <trkpt lat="44.57455" lon="6.85428">
        <ele>2666.6000976562</ele>
        <time>2020-02-17T13:03:46.000Z</time>
      </trkpt>
      <trkpt lat="44.57455" lon="6.85425">
        <ele>2666.6000976562</ele>
        <time>2020-02-17T13:03:50.000Z</time>
      </trkpt>
      <trkpt lat="44.57455" lon="6.85426">
        <ele>2666.6000976562</ele>
        <time>2020-02-17T13:03:54.000Z</time>
      </trkpt>
      <trkpt lat="44.57458" lon="6.85426">
        <ele>2666.6000976562</ele>
        <time>2020-02-17T13:04:02.000Z</time>
      </trkpt>
      <trkpt lat="44.57457" lon="6.85426">
        <ele>2666.6000976562</ele>
        <time>2020-02-17T13:04:05.000Z</time>
      </trkpt>
      <trkpt lat="44.57458" lon="6.85424">
        <ele>2666.6000976562</ele>
        <time>2020-02-17T13:04:11.000Z</time>
      </trkpt>
      <trkpt lat="44.57457" lon="6.85427">
        <ele>2666.6000976562</ele>
        <time>2020-02-17T13:04:20.000Z</time>
      </trkpt>
      <trkpt lat="44.57457" lon="6.8543">
        <ele>2666.6000976562</ele>
        <time>2020-02-17T13:04:24.000Z</time>
      </trkpt>
      <trkpt lat="44.57458" lon="6.85428">
        <ele>2666.6000976562</ele>
        <time>2020-02-17T13:04:33.000Z</time>
      </trkpt>
      <trkpt lat="44.57458" lon="6.85429">
        <ele>2666.6000976562</ele>
        <time>2020-02-17T13:04:41.000Z</time>
      </trkpt>
      <trkpt lat="44.57458" lon="6.85427">
        <ele>2666.6000976562</ele>
        <time>2020-02-17T13:04:47.000Z</time>
      </trkpt>
      <trkpt lat="44.57457" lon="6.85425">
        <ele>2666.6000976562</ele>
        <time>2020-02-17T13:04:49.000Z</time>
      </trkpt>
      <trkpt lat="44.57456" lon="6.85423">
        <ele>2666.6000976562</ele>
        <time>2020-02-17T13:05:01.000Z</time>
      </trkpt>
      <trkpt lat="44.57456" lon="6.85425">
        <ele>2666.6000976562</ele>
        <time>2020-02-17T13:05:05.000Z</time>
      </trkpt>
      <trkpt lat="44.57456" lon="6.85424">
        <ele>2666.6000976562</ele>
        <time>2020-02-17T13:05:08.000Z</time>
      </trkpt>
      <trkpt lat="44.57455" lon="6.85425">
        <ele>2666.6000976562</ele>
        <time>2020-02-17T13:05:09.000Z</time>
      </trkpt>
      <trkpt lat="44.57456" lon="6.85425">
        <ele>2666.6000976562</ele>
        <time>2020-02-17T13:05:15.000Z</time>
      </trkpt>
      <trkpt lat="44.57456" lon="6.85425">
        <ele>2666.6000976562</ele>
        <time>2020-02-17T13:05:19.000Z</time>
      </trkpt>
      <trkpt lat="44.57457" lon="6.85425">
        <ele>2666.6000976562</ele>
        <time>2020-02-17T13:05:26.000Z</time>
      </trkpt>
      <trkpt lat="44.57458" lon="6.85427">
        <ele>2672.8000488281</ele>
        <time>2020-02-17T13:05:34.000Z</time>
      </trkpt>
      <trkpt lat="44.57458" lon="6.85428">
        <ele>2670.6000976562</ele>
        <time>2020-02-17T13:05:35.000Z</time>
      </trkpt>
      <trkpt lat="44.57457" lon="6.85429">
        <ele>2669.6000976562</ele>
        <time>2020-02-17T13:05:36.000Z</time>
      </trkpt>
      <trkpt lat="44.57456" lon="6.85431">
        <ele>2668.8000488281</ele>
        <time>2020-02-17T13:05:38.000Z</time>
      </trkpt>
      <trkpt lat="44.57456" lon="6.85431">
        <ele>2669.6000976562</ele>
        <time>2020-02-17T13:05:39.000Z</time>
      </trkpt>
      <trkpt lat="44.57456" lon="6.85431">
        <ele>2669.1999511719</ele>
        <time>2020-02-17T13:05:42.000Z</time>
      </trkpt>
      <trkpt lat="44.57456" lon="6.85429">
        <ele>2669.3999023438</ele>
        <time>2020-02-17T13:05:43.000Z</time>
      </trkpt>
      <trkpt lat="44.57455" lon="6.85429">
        <ele>2669.3999023438</ele>
        <time>2020-02-17T13:05:44.000Z</time>
      </trkpt>
      <trkpt lat="44.57456" lon="6.85428">
        <ele>2669.1999511719</ele>
        <time>2020-02-17T13:05:49.000Z</time>
      </trkpt>
      <trkpt lat="44.57456" lon="6.85429">
        <ele>2668.8000488281</ele>
        <time>2020-02-17T13:05:54.000Z</time>
      </trkpt>
      <trkpt lat="44.57456" lon="6.85431">
        <ele>2668.8000488281</ele>
        <time>2020-02-17T13:06:00.000Z</time>
      </trkpt>
      <trkpt lat="44.57455" lon="6.85436">
        <ele>2668.8000488281</ele>
        <time>2020-02-17T13:06:03.000Z</time>
      </trkpt>
      <trkpt lat="44.57455" lon="6.85434">
        <ele>2668.6000976562</ele>
        <time>2020-02-17T13:06:07.000Z</time>
      </trkpt>
      <trkpt lat="44.57454" lon="6.85434">
        <ele>2668.6000976562</ele>
        <time>2020-02-17T13:06:10.000Z</time>
      </trkpt>
      <trkpt lat="44.57456" lon="6.85426">
        <ele>2668</ele>
        <time>2020-02-17T13:06:16.000Z</time>
      </trkpt>
      <trkpt lat="44.57458" lon="6.85423">
        <ele>2668</ele>
        <time>2020-02-17T13:06:20.000Z</time>
      </trkpt>
      <trkpt lat="44.57458" lon="6.85423">
        <ele>2667.6000976562</ele>
        <time>2020-02-17T13:06:24.000Z</time>
      </trkpt>
      <trkpt lat="44.57458" lon="6.85422">
        <ele>2667.6000976562</ele>
        <time>2020-02-17T13:06:27.000Z</time>
      </trkpt>
      <trkpt lat="44.57458" lon="6.85422">
        <ele>2667.8000488281</ele>
        <time>2020-02-17T13:06:29.000Z</time>
      </trkpt>
      <trkpt lat="44.57458" lon="6.85421">
        <ele>2667.8000488281</ele>
        <time>2020-02-17T13:06:33.000Z</time>
      </trkpt>
      <trkpt lat="44.57457" lon="6.85419">
        <ele>2667.8000488281</ele>
        <time>2020-02-17T13:06:34.000Z</time>
      </trkpt>
      <trkpt lat="44.57458" lon="6.85416">
        <ele>2667.6000976562</ele>
        <time>2020-02-17T13:06:38.000Z</time>
      </trkpt>
      <trkpt lat="44.57458" lon="6.85416">
        <ele>2667.3999023438</ele>
        <time>2020-02-17T13:06:39.000Z</time>
      </trkpt>
      <trkpt lat="44.57457" lon="6.85419">
        <ele>2667.8000488281</ele>
        <time>2020-02-17T13:06:53.000Z</time>
      </trkpt>
      <trkpt lat="44.57457" lon="6.8542">
        <ele>2667.6000976562</ele>
        <time>2020-02-17T13:06:58.000Z</time>
      </trkpt>
      <trkpt lat="44.57458" lon="6.85423">
        <ele>2667.6000976562</ele>
        <time>2020-02-17T13:07:02.000Z</time>
      </trkpt>
      <trkpt lat="44.57457" lon="6.85425">
        <ele>2667.8000488281</ele>
        <time>2020-02-17T13:07:05.000Z</time>
      </trkpt>
      <trkpt lat="44.57456" lon="6.85427">
        <ele>2667.6000976562</ele>
        <time>2020-02-17T13:07:08.000Z</time>
      </trkpt>
      <trkpt lat="44.57456" lon="6.85428">
        <ele>2667.6000976562</ele>
        <time>2020-02-17T13:07:13.000Z</time>
      </trkpt>
      <trkpt lat="44.57456" lon="6.85429">
        <ele>2667.6000976562</ele>
        <time>2020-02-17T13:07:23.000Z</time>
      </trkpt>
      <trkpt lat="44.57456" lon="6.85429">
        <ele>2667.8000488281</ele>
        <time>2020-02-17T13:07:26.000Z</time>
      </trkpt>
      <trkpt lat="44.57456" lon="6.85428">
        <ele>2667.8000488281</ele>
        <time>2020-02-17T13:07:28.000Z</time>
      </trkpt>
      <trkpt lat="44.57458" lon="6.85426">
        <ele>2668.8000488281</ele>
        <time>2020-02-17T13:07:32.000Z</time>
      </trkpt>
      <trkpt lat="44.57458" lon="6.85425">
        <ele>2668.8000488281</ele>
        <time>2020-02-17T13:07:34.000Z</time>
      </trkpt>
      <trkpt lat="44.57457" lon="6.85425">
        <ele>2669</ele>
        <time>2020-02-17T13:07:38.000Z</time>
      </trkpt>
      <trkpt lat="44.57458" lon="6.85424">
        <ele>2669</ele>
        <time>2020-02-17T13:07:43.000Z</time>
      </trkpt>
      <trkpt lat="44.57458" lon="6.85424">
        <ele>2669</ele>
        <time>2020-02-17T13:07:46.000Z</time>
      </trkpt>
      <trkpt lat="44.5746" lon="6.85425">
        <ele>2668.8000488281</ele>
        <time>2020-02-17T13:07:53.000Z</time>
      </trkpt>
      <trkpt lat="44.5746" lon="6.85426">
        <ele>2668.8000488281</ele>
        <time>2020-02-17T13:07:55.000Z</time>
      </trkpt>
      <trkpt lat="44.57459" lon="6.85423">
        <ele>2669</ele>
        <time>2020-02-17T13:08:09.000Z</time>
      </trkpt>
      <trkpt lat="44.57459" lon="6.85424">
        <ele>2669</ele>
        <time>2020-02-17T13:08:14.000Z</time>
      </trkpt>
      <trkpt lat="44.57459" lon="6.85425">
        <ele>2668.8000488281</ele>
        <time>2020-02-17T13:08:16.000Z</time>
      </trkpt>
      <trkpt lat="44.57459" lon="6.85425">
        <ele>2668.8000488281</ele>
        <time>2020-02-17T13:08:19.000Z</time>
      </trkpt>
      <trkpt lat="44.57462" lon="6.85422">
        <ele>2669</ele>
        <time>2020-02-17T13:08:33.000Z</time>
      </trkpt>
      <trkpt lat="44.57462" lon="6.85422">
        <ele>2669</ele>
        <time>2020-02-17T13:08:34.000Z</time>
      </trkpt>
      <trkpt lat="44.57459" lon="6.85425">
        <ele>2669.1999511719</ele>
        <time>2020-02-17T13:08:39.000Z</time>
      </trkpt>
      <trkpt lat="44.57457" lon="6.85426">
        <ele>2668.8000488281</ele>
        <time>2020-02-17T13:08:50.000Z</time>
      </trkpt>
      <trkpt lat="44.57461" lon="6.85419">
        <ele>2668.8000488281</ele>
        <time>2020-02-17T13:09:03.000Z</time>
      </trkpt>
      <trkpt lat="44.5746" lon="6.8542">
        <ele>2668.8000488281</ele>
        <time>2020-02-17T13:09:06.000Z</time>
      </trkpt>
      <trkpt lat="44.5746" lon="6.85421">
        <ele>2668.8000488281</ele>
        <time>2020-02-17T13:09:07.000Z</time>
      </trkpt>
      <trkpt lat="44.57461" lon="6.8542">
        <ele>2668.8000488281</ele>
        <time>2020-02-17T13:09:11.000Z</time>
      </trkpt>
      <trkpt lat="44.57461" lon="6.8542">
        <ele>2668.8000488281</ele>
        <time>2020-02-17T13:09:13.000Z</time>
      </trkpt>
      <trkpt lat="44.57457" lon="6.85428">
        <ele>2668.8000488281</ele>
        <time>2020-02-17T13:09:32.000Z</time>
      </trkpt>
      <trkpt lat="44.57458" lon="6.85428">
        <ele>2668.8000488281</ele>
        <time>2020-02-17T13:09:34.000Z</time>
      </trkpt>
      <trkpt lat="44.57457" lon="6.85427">
        <ele>2668.8000488281</ele>
        <time>2020-02-17T13:09:40.000Z</time>
      </trkpt>
      <trkpt lat="44.57459" lon="6.85426">
        <ele>2668.8000488281</ele>
        <time>2020-02-17T13:09:42.000Z</time>
      </trkpt>
      <trkpt lat="44.57458" lon="6.85425">
        <ele>2668.8000488281</ele>
        <time>2020-02-17T13:09:46.000Z</time>
      </trkpt>
      <trkpt lat="44.57458" lon="6.85421">
        <ele>2668.8000488281</ele>
        <time>2020-02-17T13:10:05.000Z</time>
      </trkpt>
      <trkpt lat="44.57458" lon="6.85421">
        <ele>2668.8000488281</ele>
        <time>2020-02-17T13:10:06.000Z</time>
      </trkpt>
      <trkpt lat="44.57458" lon="6.85421">
        <ele>2668.8000488281</ele>
        <time>2020-02-17T13:10:07.000Z</time>
      </trkpt>
      <trkpt lat="44.57458" lon="6.85421">
        <ele>2668.8000488281</ele>
        <time>2020-02-17T13:10:09.000Z</time>
      </trkpt>
      <trkpt lat="44.57457" lon="6.8542">
        <ele>2668.8000488281</ele>
        <time>2020-02-17T13:10:20.000Z</time>
      </trkpt>
      <trkpt lat="44.57457" lon="6.8542">
        <ele>2668.8000488281</ele>
        <time>2020-02-17T13:10:28.000Z</time>
      </trkpt>
      <trkpt lat="44.57457" lon="6.8542">
        <ele>2668.8000488281</ele>
        <time>2020-02-17T13:10:31.000Z</time>
      </trkpt>
      <trkpt lat="44.57457" lon="6.8542">
        <ele>2668.8000488281</ele>
        <time>2020-02-17T13:10:34.000Z</time>
      </trkpt>
      <trkpt lat="44.57457" lon="6.8542">
        <ele>2668.8000488281</ele>
        <time>2020-02-17T13:10:38.000Z</time>
      </trkpt>
      <trkpt lat="44.57455" lon="6.85419">
        <ele>2668.8000488281</ele>
        <time>2020-02-17T13:10:45.000Z</time>
      </trkpt>
      <trkpt lat="44.57454" lon="6.85419">
        <ele>2668.8000488281</ele>
        <time>2020-02-17T13:10:50.000Z</time>
      </trkpt>
      <trkpt lat="44.57454" lon="6.85419">
        <ele>2668.8000488281</ele>
        <time>2020-02-17T13:10:51.000Z</time>
      </trkpt>
      <trkpt lat="44.57454" lon="6.85419">
        <ele>2668.8000488281</ele>
        <time>2020-02-17T13:10:52.000Z</time>
      </trkpt>
      <trkpt lat="44.57454" lon="6.85419">
        <ele>2668.8000488281</ele>
        <time>2020-02-17T13:10:53.000Z</time>
      </trkpt>
      <trkpt lat="44.57454" lon="6.85418">
        <ele>2668.8000488281</ele>
        <time>2020-02-17T13:10:55.000Z</time>
      </trkpt>
      <trkpt lat="44.57453" lon="6.85418">
        <ele>2668.8000488281</ele>
        <time>2020-02-17T13:11:06.000Z</time>
      </trkpt>
      <trkpt lat="44.57454" lon="6.85417">
        <ele>2668.8000488281</ele>
        <time>2020-02-17T13:11:12.000Z</time>
      </trkpt>
      <trkpt lat="44.57454" lon="6.85417">
        <ele>2668.8000488281</ele>
        <time>2020-02-17T13:11:18.000Z</time>
      </trkpt>
      <trkpt lat="44.57454" lon="6.85419">
        <ele>2668.8000488281</ele>
        <time>2020-02-17T13:11:30.000Z</time>
      </trkpt>
      <trkpt lat="44.57453" lon="6.85418">
        <ele>2668.8000488281</ele>
        <time>2020-02-17T13:11:36.000Z</time>
      </trkpt>
      <trkpt lat="44.57453" lon="6.85416">
        <ele>2668.8000488281</ele>
        <time>2020-02-17T13:11:42.000Z</time>
      </trkpt>
      <trkpt lat="44.57453" lon="6.85415">
        <ele>2668.8000488281</ele>
        <time>2020-02-17T13:11:43.000Z</time>
      </trkpt>
      <trkpt lat="44.57453" lon="6.85415">
        <ele>2668.8000488281</ele>
        <time>2020-02-17T13:11:44.000Z</time>
      </trkpt>
      <trkpt lat="44.57454" lon="6.85415">
        <ele>2668.8000488281</ele>
        <time>2020-02-17T13:11:45.000Z</time>
      </trkpt>
      <trkpt lat="44.57454" lon="6.85415">
        <ele>2668.8000488281</ele>
        <time>2020-02-17T13:11:46.000Z</time>
      </trkpt>
      <trkpt lat="44.57455" lon="6.85415">
        <ele>2668.8000488281</ele>
        <time>2020-02-17T13:11:49.000Z</time>
      </trkpt>
      <trkpt lat="44.57454" lon="6.85414">
        <ele>2668.8000488281</ele>
        <time>2020-02-17T13:11:50.000Z</time>
      </trkpt>
      <trkpt lat="44.57453" lon="6.85413">
        <ele>2668.8000488281</ele>
        <time>2020-02-17T13:11:54.000Z</time>
      </trkpt>
      <trkpt lat="44.57453" lon="6.85412">
        <ele>2668.8000488281</ele>
        <time>2020-02-17T13:11:55.000Z</time>
      </trkpt>
      <trkpt lat="44.57453" lon="6.85411">
        <ele>2668.8000488281</ele>
        <time>2020-02-17T13:11:56.000Z</time>
      </trkpt>
      <trkpt lat="44.57452" lon="6.85411">
        <ele>2668.8000488281</ele>
        <time>2020-02-17T13:11:57.000Z</time>
      </trkpt>
      <trkpt lat="44.57452" lon="6.85408">
        <ele>2668.8000488281</ele>
        <time>2020-02-17T13:11:59.000Z</time>
      </trkpt>
      <trkpt lat="44.57453" lon="6.85406">
        <ele>2669</ele>
        <time>2020-02-17T13:12:02.000Z</time>
      </trkpt>
      <trkpt lat="44.57453" lon="6.85405">
        <ele>2669</ele>
        <time>2020-02-17T13:12:04.000Z</time>
      </trkpt>
      <trkpt lat="44.57457" lon="6.85395">
        <ele>2668.8000488281</ele>
        <time>2020-02-17T13:12:17.000Z</time>
      </trkpt>
      <trkpt lat="44.57462" lon="6.85387">
        <ele>2668.1999511719</ele>
        <time>2020-02-17T13:12:30.000Z</time>
      </trkpt>
      <trkpt lat="44.57463" lon="6.85385">
        <ele>2668.1999511719</ele>
        <time>2020-02-17T13:12:33.000Z</time>
      </trkpt>
      <trkpt lat="44.57463" lon="6.85385">
        <ele>2668</ele>
        <time>2020-02-17T13:12:34.000Z</time>
      </trkpt>
      <trkpt lat="44.57464" lon="6.85382">
        <ele>2667.8000488281</ele>
        <time>2020-02-17T13:12:38.000Z</time>
      </trkpt>
      <trkpt lat="44.57464" lon="6.85382">
        <ele>2667.8000488281</ele>
        <time>2020-02-17T13:12:39.000Z</time>
      </trkpt>
      <trkpt lat="44.57464" lon="6.8538">
        <ele>2667.8000488281</ele>
        <time>2020-02-17T13:12:42.000Z</time>
      </trkpt>
      <trkpt lat="44.57464" lon="6.85375">
        <ele>2667.6000976562</ele>
        <time>2020-02-17T13:12:48.000Z</time>
      </trkpt>
      <trkpt lat="44.57464" lon="6.85374">
        <ele>2667.3999023438</ele>
        <time>2020-02-17T13:12:49.000Z</time>
      </trkpt>
      <trkpt lat="44.57465" lon="6.8537">
        <ele>2667.1999511719</ele>
        <time>2020-02-17T13:12:52.000Z</time>
      </trkpt>
      <trkpt lat="44.57466" lon="6.85365">
        <ele>2667.1999511719</ele>
        <time>2020-02-17T13:12:55.000Z</time>
      </trkpt>
      <trkpt lat="44.57469" lon="6.85356">
        <ele>2667.1999511719</ele>
        <time>2020-02-17T13:13:02.000Z</time>
      </trkpt>
      <trkpt lat="44.57469" lon="6.85355">
        <ele>2667.1999511719</ele>
        <time>2020-02-17T13:13:03.000Z</time>
      </trkpt>
      <trkpt lat="44.57468" lon="6.85338">
        <ele>2666.8000488281</ele>
        <time>2020-02-17T13:13:16.000Z</time>
      </trkpt>
      <trkpt lat="44.57467" lon="6.85336">
        <ele>2666.8000488281</ele>
        <time>2020-02-17T13:13:17.000Z</time>
      </trkpt>
      <trkpt lat="44.57466" lon="6.85331">
        <ele>2666.3999023438</ele>
        <time>2020-02-17T13:13:20.000Z</time>
      </trkpt>
      <trkpt lat="44.5745" lon="6.85341">
        <ele>2666.1999511719</ele>
        <time>2020-02-17T13:13:24.000Z</time>
      </trkpt>
      <trkpt lat="44.57443" lon="6.85341">
        <ele>2666.1999511719</ele>
        <time>2020-02-17T13:13:28.000Z</time>
      </trkpt>
      <trkpt lat="44.57433" lon="6.85341">
        <ele>2666.3999023438</ele>
        <time>2020-02-17T13:13:34.000Z</time>
      </trkpt>
      <trkpt lat="44.57431" lon="6.85342">
        <ele>2666.3999023438</ele>
        <time>2020-02-17T13:13:35.000Z</time>
      </trkpt>
      <trkpt lat="44.57432" lon="6.85339">
        <ele>2666.3999023438</ele>
        <time>2020-02-17T13:13:36.000Z</time>
      </trkpt>
      <trkpt lat="44.5743" lon="6.85337">
        <ele>2666.6000976562</ele>
        <time>2020-02-17T13:13:38.000Z</time>
      </trkpt>
      <trkpt lat="44.57427" lon="6.85334">
        <ele>2666.6000976562</ele>
        <time>2020-02-17T13:13:40.000Z</time>
      </trkpt>
      <trkpt lat="44.57424" lon="6.85334">
        <ele>2666.6000976562</ele>
        <time>2020-02-17T13:13:44.000Z</time>
      </trkpt>
      <trkpt lat="44.57424" lon="6.85332">
        <ele>2666.6000976562</ele>
        <time>2020-02-17T13:13:47.000Z</time>
      </trkpt>
      <trkpt lat="44.5743" lon="6.85323">
        <ele>2666.6000976562</ele>
        <time>2020-02-17T13:13:52.000Z</time>
      </trkpt>
      <trkpt lat="44.57432" lon="6.85316">
        <ele>2666.6000976562</ele>
        <time>2020-02-17T13:14:04.000Z</time>
      </trkpt>
      <trkpt lat="44.57438" lon="6.85312">
        <ele>2666.6000976562</ele>
        <time>2020-02-17T13:14:05.000Z</time>
      </trkpt>
      <trkpt lat="44.57439" lon="6.85308">
        <ele>2666.8000488281</ele>
        <time>2020-02-17T13:14:09.000Z</time>
      </trkpt>
      <trkpt lat="44.5744" lon="6.85305">
        <ele>2666.8000488281</ele>
        <time>2020-02-17T13:14:11.000Z</time>
      </trkpt>
      <trkpt lat="44.5744" lon="6.85304">
        <ele>2666.8000488281</ele>
        <time>2020-02-17T13:14:13.000Z</time>
      </trkpt>
      <trkpt lat="44.57438" lon="6.85295">
        <ele>2665.6000976562</ele>
        <time>2020-02-17T13:14:24.000Z</time>
      </trkpt>
      <trkpt lat="44.57438" lon="6.85294">
        <ele>2665.3999023438</ele>
        <time>2020-02-17T13:14:25.000Z</time>
      </trkpt>
      <trkpt lat="44.57437" lon="6.85294">
        <ele>2665</ele>
        <time>2020-02-17T13:14:27.000Z</time>
      </trkpt>
      <trkpt lat="44.57438" lon="6.85292">
        <ele>2664.6000976562</ele>
        <time>2020-02-17T13:14:29.000Z</time>
      </trkpt>
      <trkpt lat="44.57443" lon="6.85287">
        <ele>2664</ele>
        <time>2020-02-17T13:14:31.000Z</time>
      </trkpt>
      <trkpt lat="44.57446" lon="6.85282">
        <ele>2663.3999023438</ele>
        <time>2020-02-17T13:14:33.000Z</time>
      </trkpt>
      <trkpt lat="44.57446" lon="6.85282">
        <ele>2663</ele>
        <time>2020-02-17T13:14:34.000Z</time>
      </trkpt>
      <trkpt lat="44.5745" lon="6.85277">
        <ele>2662.3999023438</ele>
        <time>2020-02-17T13:14:37.000Z</time>
      </trkpt>
      <trkpt lat="44.57452" lon="6.85275">
        <ele>2662.1999511719</ele>
        <time>2020-02-17T13:14:39.000Z</time>
      </trkpt>
      <trkpt lat="44.57452" lon="6.85274">
        <ele>2662.1999511719</ele>
        <time>2020-02-17T13:14:40.000Z</time>
      </trkpt>
      <trkpt lat="44.57469" lon="6.85258">
        <ele>2662</ele>
        <time>2020-02-17T13:14:52.000Z</time>
      </trkpt>
      <trkpt lat="44.57487" lon="6.85244">
        <ele>2662.3999023438</ele>
        <time>2020-02-17T13:15:01.000Z</time>
      </trkpt>
      <trkpt lat="44.57494" lon="6.85243">
        <ele>2663</ele>
        <time>2020-02-17T13:15:06.000Z</time>
      </trkpt>
      <trkpt lat="44.57495" lon="6.85242">
        <ele>2663.3999023438</ele>
        <time>2020-02-17T13:15:08.000Z</time>
      </trkpt>
      <trkpt lat="44.57496" lon="6.85242">
        <ele>2663.6000976562</ele>
        <time>2020-02-17T13:15:09.000Z</time>
      </trkpt>
      <trkpt lat="44.57497" lon="6.85242">
        <ele>2664</ele>
        <time>2020-02-17T13:15:12.000Z</time>
      </trkpt>
      <trkpt lat="44.57499" lon="6.85242">
        <ele>2664.3999023438</ele>
        <time>2020-02-17T13:15:16.000Z</time>
      </trkpt>
      <trkpt lat="44.57496" lon="6.85245">
        <ele>2664.6000976562</ele>
        <time>2020-02-17T13:15:18.000Z</time>
      </trkpt>
      <trkpt lat="44.57496" lon="6.85246">
        <ele>2665</ele>
        <time>2020-02-17T13:15:20.000Z</time>
      </trkpt>
      <trkpt lat="44.57495" lon="6.85248">
        <ele>2665.3999023438</ele>
        <time>2020-02-17T13:15:24.000Z</time>
      </trkpt>
      <trkpt lat="44.57499" lon="6.85245">
        <ele>2666.6000976562</ele>
        <time>2020-02-17T13:15:30.000Z</time>
      </trkpt>
      <trkpt lat="44.57501" lon="6.85244">
        <ele>2666.6000976562</ele>
        <time>2020-02-17T13:15:31.000Z</time>
      </trkpt>
      <trkpt lat="44.57502" lon="6.85242">
        <ele>2666.8000488281</ele>
        <time>2020-02-17T13:15:33.000Z</time>
      </trkpt>
      <trkpt lat="44.57505" lon="6.85241">
        <ele>2667.6000976562</ele>
        <time>2020-02-17T13:15:40.000Z</time>
      </trkpt>
      <trkpt lat="44.57512" lon="6.85231">
        <ele>2668.6000976562</ele>
        <time>2020-02-17T13:15:52.000Z</time>
      </trkpt>
      <trkpt lat="44.57528" lon="6.85218">
        <ele>2669.6000976562</ele>
        <time>2020-02-17T13:16:03.000Z</time>
      </trkpt>
      <trkpt lat="44.5753" lon="6.85217">
        <ele>2670.8000488281</ele>
        <time>2020-02-17T13:16:13.000Z</time>
      </trkpt>
      <trkpt lat="44.57526" lon="6.85219">
        <ele>2671.8000488281</ele>
        <time>2020-02-17T13:16:20.000Z</time>
      </trkpt>
      <trkpt lat="44.57527" lon="6.85217">
        <ele>2672</ele>
        <time>2020-02-17T13:16:22.000Z</time>
      </trkpt>
      <trkpt lat="44.57529" lon="6.85213">
        <ele>2672.6000976562</ele>
        <time>2020-02-17T13:16:32.000Z</time>
      </trkpt>
      <trkpt lat="44.57533" lon="6.85209">
        <ele>2672.8000488281</ele>
        <time>2020-02-17T13:16:35.000Z</time>
      </trkpt>
      <trkpt lat="44.57548" lon="6.85188">
        <ele>2673.8000488281</ele>
        <time>2020-02-17T13:16:53.000Z</time>
      </trkpt>
      <trkpt lat="44.57549" lon="6.85186">
        <ele>2674</ele>
        <time>2020-02-17T13:16:56.000Z</time>
      </trkpt>
      <trkpt lat="44.57549" lon="6.85186">
        <ele>2674</ele>
        <time>2020-02-17T13:16:58.000Z</time>
      </trkpt>
      <trkpt lat="44.57555" lon="6.85179">
        <ele>2674.8000488281</ele>
        <time>2020-02-17T13:17:14.000Z</time>
      </trkpt>
      <trkpt lat="44.57559" lon="6.85176">
        <ele>2675.3999023438</ele>
        <time>2020-02-17T13:17:20.000Z</time>
      </trkpt>
      <trkpt lat="44.57563" lon="6.85175">
        <ele>2675.8000488281</ele>
        <time>2020-02-17T13:17:28.000Z</time>
      </trkpt>
      <trkpt lat="44.57564" lon="6.85173">
        <ele>2676</ele>
        <time>2020-02-17T13:17:30.000Z</time>
      </trkpt>
      <trkpt lat="44.57568" lon="6.85168">
        <ele>2677</ele>
        <time>2020-02-17T13:17:39.000Z</time>
      </trkpt>
      <trkpt lat="44.57575" lon="6.85163">
        <ele>2678</ele>
        <time>2020-02-17T13:17:46.000Z</time>
      </trkpt>
      <trkpt lat="44.57579" lon="6.85159">
        <ele>2679</ele>
        <time>2020-02-17T13:17:54.000Z</time>
      </trkpt>
      <trkpt lat="44.57583" lon="6.85156">
        <ele>2680</ele>
        <time>2020-02-17T13:18:04.000Z</time>
      </trkpt>
      <trkpt lat="44.5759" lon="6.85159">
        <ele>2681</ele>
        <time>2020-02-17T13:18:15.000Z</time>
      </trkpt>
      <trkpt lat="44.57596" lon="6.85157">
        <ele>2682</ele>
        <time>2020-02-17T13:18:29.000Z</time>
      </trkpt>
      <trkpt lat="44.57597" lon="6.8516">
        <ele>2683.1999511719</ele>
        <time>2020-02-17T13:18:38.000Z</time>
      </trkpt>
      <trkpt lat="44.57601" lon="6.85159">
        <ele>2684.1999511719</ele>
        <time>2020-02-17T13:18:46.000Z</time>
      </trkpt>
      <trkpt lat="44.57605" lon="6.85158">
        <ele>2685.1999511719</ele>
        <time>2020-02-17T13:18:53.000Z</time>
      </trkpt>
      <trkpt lat="44.57608" lon="6.85154">
        <ele>2686.3999023438</ele>
        <time>2020-02-17T13:19:02.000Z</time>
      </trkpt>
      <trkpt lat="44.5761" lon="6.85148">
        <ele>2687.3999023438</ele>
        <time>2020-02-17T13:19:09.000Z</time>
      </trkpt>
      <trkpt lat="44.5761" lon="6.85145">
        <ele>2688.6000976562</ele>
        <time>2020-02-17T13:19:16.000Z</time>
      </trkpt>
      <trkpt lat="44.5761" lon="6.85143">
        <ele>2688.8000488281</ele>
        <time>2020-02-17T13:19:19.000Z</time>
      </trkpt>
      <trkpt lat="44.57607" lon="6.85137">
        <ele>2689.6000976562</ele>
        <time>2020-02-17T13:19:26.000Z</time>
      </trkpt>
      <trkpt lat="44.57603" lon="6.85138">
        <ele>2690.6000976562</ele>
        <time>2020-02-17T13:19:32.000Z</time>
      </trkpt>
      <trkpt lat="44.57601" lon="6.85133">
        <ele>2691.6000976562</ele>
        <time>2020-02-17T13:19:41.000Z</time>
      </trkpt>
      <trkpt lat="44.57597" lon="6.8513">
        <ele>2692.8000488281</ele>
        <time>2020-02-17T13:19:51.000Z</time>
      </trkpt>
      <trkpt lat="44.57592" lon="6.85131">
        <ele>2693.8000488281</ele>
        <time>2020-02-17T13:20:08.000Z</time>
      </trkpt>
      <trkpt lat="44.5759" lon="6.85134">
        <ele>2694.3999023438</ele>
        <time>2020-02-17T13:20:20.000Z</time>
      </trkpt>
      <trkpt lat="44.5759" lon="6.85132">
        <ele>2694.6000976562</ele>
        <time>2020-02-17T13:20:23.000Z</time>
      </trkpt>
      <trkpt lat="44.5759" lon="6.85132">
        <ele>2694.6000976562</ele>
        <time>2020-02-17T13:20:24.000Z</time>
      </trkpt>
      <trkpt lat="44.57592" lon="6.85129">
        <ele>2694.8000488281</ele>
        <time>2020-02-17T13:20:26.000Z</time>
      </trkpt>
      <trkpt lat="44.57593" lon="6.85127">
        <ele>2694.8000488281</ele>
        <time>2020-02-17T13:20:27.000Z</time>
      </trkpt>
      <trkpt lat="44.57595" lon="6.85124">
        <ele>2695</ele>
        <time>2020-02-17T13:20:30.000Z</time>
      </trkpt>
      <trkpt lat="44.57601" lon="6.8512">
        <ele>2695</ele>
        <time>2020-02-17T13:20:41.000Z</time>
      </trkpt>
      <trkpt lat="44.57605" lon="6.85122">
        <ele>2695.8000488281</ele>
        <time>2020-02-17T13:20:49.000Z</time>
      </trkpt>
      <trkpt lat="44.57608" lon="6.85124">
        <ele>2696.8000488281</ele>
        <time>2020-02-17T13:20:57.000Z</time>
      </trkpt>
      <trkpt lat="44.57607" lon="6.85128">
        <ele>2697</ele>
        <time>2020-02-17T13:21:15.000Z</time>
      </trkpt>
      <trkpt lat="44.57609" lon="6.85127">
        <ele>2697</ele>
        <time>2020-02-17T13:21:19.000Z</time>
      </trkpt>
      <trkpt lat="44.57609" lon="6.85126">
        <ele>2697</ele>
        <time>2020-02-17T13:21:21.000Z</time>
      </trkpt>
      <trkpt lat="44.5761" lon="6.85125">
        <ele>2696.8000488281</ele>
        <time>2020-02-17T13:21:25.000Z</time>
      </trkpt>
      <trkpt lat="44.57608" lon="6.85125">
        <ele>2696.8000488281</ele>
        <time>2020-02-17T13:21:28.000Z</time>
      </trkpt>
      <trkpt lat="44.57607" lon="6.85127">
        <ele>2696.6000976562</ele>
        <time>2020-02-17T13:21:34.000Z</time>
      </trkpt>
      <trkpt lat="44.57607" lon="6.85126">
        <ele>2696.6000976562</ele>
        <time>2020-02-17T13:21:37.000Z</time>
      </trkpt>
      <trkpt lat="44.57607" lon="6.85125">
        <ele>2696.6000976562</ele>
        <time>2020-02-17T13:21:39.000Z</time>
      </trkpt>
      <trkpt lat="44.57608" lon="6.85124">
        <ele>2696.6000976562</ele>
        <time>2020-02-17T13:21:42.000Z</time>
      </trkpt>
      <trkpt lat="44.57607" lon="6.85124">
        <ele>2696.6000976562</ele>
        <time>2020-02-17T13:21:43.000Z</time>
      </trkpt>
      <trkpt lat="44.57609" lon="6.85121">
        <ele>2696.6000976562</ele>
        <time>2020-02-17T13:21:48.000Z</time>
      </trkpt>
      <trkpt lat="44.57612" lon="6.85118">
        <ele>2696.6000976562</ele>
        <time>2020-02-17T13:21:51.000Z</time>
      </trkpt>
      <trkpt lat="44.57613" lon="6.85118">
        <ele>2696.6000976562</ele>
        <time>2020-02-17T13:21:55.000Z</time>
      </trkpt>
      <trkpt lat="44.57613" lon="6.85119">
        <ele>2696.6000976562</ele>
        <time>2020-02-17T13:21:58.000Z</time>
      </trkpt>
      <trkpt lat="44.57614" lon="6.85115">
        <ele>2696.3999023438</ele>
        <time>2020-02-17T13:22:09.000Z</time>
      </trkpt>
      <trkpt lat="44.5761" lon="6.85116">
        <ele>2696.3999023438</ele>
        <time>2020-02-17T13:22:18.000Z</time>
      </trkpt>
      <trkpt lat="44.57612" lon="6.8512">
        <ele>2697</ele>
        <time>2020-02-17T13:22:24.000Z</time>
      </trkpt>
      <trkpt lat="44.57615" lon="6.85122">
        <ele>2697.1999511719</ele>
        <time>2020-02-17T13:22:28.000Z</time>
      </trkpt>
      <trkpt lat="44.57617" lon="6.85123">
        <ele>2697.8000488281</ele>
        <time>2020-02-17T13:22:31.000Z</time>
      </trkpt>
      <trkpt lat="44.57618" lon="6.85123">
        <ele>2698</ele>
        <time>2020-02-17T13:22:32.000Z</time>
      </trkpt>
      <trkpt lat="44.57621" lon="6.85125">
        <ele>2699</ele>
        <time>2020-02-17T13:22:37.000Z</time>
      </trkpt>
      <trkpt lat="44.57626" lon="6.85127">
        <ele>2699.8000488281</ele>
        <time>2020-02-17T13:22:42.000Z</time>
      </trkpt>
      <trkpt lat="44.57627" lon="6.85127">
        <ele>2700</ele>
        <time>2020-02-17T13:22:43.000Z</time>
      </trkpt>
      <trkpt lat="44.57627" lon="6.85128">
        <ele>2700.1999511719</ele>
        <time>2020-02-17T13:22:44.000Z</time>
      </trkpt>
      <trkpt lat="44.57628" lon="6.85129">
        <ele>2700.6000976562</ele>
        <time>2020-02-17T13:22:46.000Z</time>
      </trkpt>
      <trkpt lat="44.57631" lon="6.8513">
        <ele>2701.1999511719</ele>
        <time>2020-02-17T13:22:50.000Z</time>
      </trkpt>
      <trkpt lat="44.57634" lon="6.85129">
        <ele>2701.3999023438</ele>
        <time>2020-02-17T13:22:53.000Z</time>
      </trkpt>
      <trkpt lat="44.57636" lon="6.85128">
        <ele>2701.6000976562</ele>
        <time>2020-02-17T13:22:55.000Z</time>
      </trkpt>
      <trkpt lat="44.57639" lon="6.85128">
        <ele>2702.1999511719</ele>
        <time>2020-02-17T13:22:58.000Z</time>
      </trkpt>
      <trkpt lat="44.57644" lon="6.85131">
        <ele>2703.1999511719</ele>
        <time>2020-02-17T13:23:04.000Z</time>
      </trkpt>
      <trkpt lat="44.57645" lon="6.85132">
        <ele>2703.6000976562</ele>
        <time>2020-02-17T13:23:06.000Z</time>
      </trkpt>
      <trkpt lat="44.57646" lon="6.85133">
        <ele>2704.3999023438</ele>
        <time>2020-02-17T13:23:10.000Z</time>
      </trkpt>
      <trkpt lat="44.57649" lon="6.85137">
        <ele>2705.6000976562</ele>
        <time>2020-02-17T13:23:18.000Z</time>
      </trkpt>
      <trkpt lat="44.57649" lon="6.85139">
        <ele>2705.8000488281</ele>
        <time>2020-02-17T13:23:20.000Z</time>
      </trkpt>
      <trkpt lat="44.57649" lon="6.85139">
        <ele>2706</ele>
        <time>2020-02-17T13:23:22.000Z</time>
      </trkpt>
      <trkpt lat="44.5765" lon="6.8514">
        <ele>2706.1999511719</ele>
        <time>2020-02-17T13:23:24.000Z</time>
      </trkpt>
      <trkpt lat="44.57652" lon="6.85142">
        <ele>2706.3999023438</ele>
        <time>2020-02-17T13:23:28.000Z</time>
      </trkpt>
      <trkpt lat="44.57654" lon="6.85142">
        <ele>2706.8000488281</ele>
        <time>2020-02-17T13:23:30.000Z</time>
      </trkpt>
      <trkpt lat="44.57652" lon="6.85142">
        <ele>2707.1999511719</ele>
        <time>2020-02-17T13:23:47.000Z</time>
      </trkpt>
      <trkpt lat="44.5765" lon="6.85147">
        <ele>2707.1999511719</ele>
        <time>2020-02-17T13:23:55.000Z</time>
      </trkpt>
      <trkpt lat="44.57651" lon="6.85146">
        <ele>2707.1999511719</ele>
        <time>2020-02-17T13:24:01.000Z</time>
      </trkpt>
      <trkpt lat="44.57655" lon="6.85147">
        <ele>2707.6000976562</ele>
        <time>2020-02-17T13:24:05.000Z</time>
      </trkpt>
      <trkpt lat="44.57656" lon="6.85148">
        <ele>2707.8000488281</ele>
        <time>2020-02-17T13:24:07.000Z</time>
      </trkpt>
      <trkpt lat="44.57659" lon="6.85151">
        <ele>2708.3999023438</ele>
        <time>2020-02-17T13:24:10.000Z</time>
      </trkpt>
      <trkpt lat="44.57661" lon="6.85152">
        <ele>2708.6000976562</ele>
        <time>2020-02-17T13:24:12.000Z</time>
      </trkpt>
      <trkpt lat="44.57661" lon="6.85152">
        <ele>2708.8000488281</ele>
        <time>2020-02-17T13:24:13.000Z</time>
      </trkpt>
      <trkpt lat="44.57662" lon="6.85153">
        <ele>2708.8000488281</ele>
        <time>2020-02-17T13:24:14.000Z</time>
      </trkpt>
      <trkpt lat="44.57662" lon="6.85154">
        <ele>2709</ele>
        <time>2020-02-17T13:24:15.000Z</time>
      </trkpt>
      <trkpt lat="44.57664" lon="6.85156">
        <ele>2709.6000976562</ele>
        <time>2020-02-17T13:24:18.000Z</time>
      </trkpt>
      <trkpt lat="44.57666" lon="6.85158">
        <ele>2710.1999511719</ele>
        <time>2020-02-17T13:24:21.000Z</time>
      </trkpt>
      <trkpt lat="44.57669" lon="6.85161">
        <ele>2711</ele>
        <time>2020-02-17T13:24:26.000Z</time>
      </trkpt>
      <trkpt lat="44.5767" lon="6.85163">
        <ele>2711.1999511719</ele>
        <time>2020-02-17T13:24:27.000Z</time>
      </trkpt>
      <trkpt lat="44.5767" lon="6.85163">
        <ele>2711.6000976562</ele>
        <time>2020-02-17T13:24:28.000Z</time>
      </trkpt>
      <trkpt lat="44.57672" lon="6.85164">
        <ele>2712</ele>
        <time>2020-02-17T13:24:31.000Z</time>
      </trkpt>
      <trkpt lat="44.57672" lon="6.85165">
        <ele>2712.1999511719</ele>
        <time>2020-02-17T13:24:37.000Z</time>
      </trkpt>
      <trkpt lat="44.57673" lon="6.8517">
        <ele>2712.8000488281</ele>
        <time>2020-02-17T13:24:44.000Z</time>
      </trkpt>
      <trkpt lat="44.57674" lon="6.85174">
        <ele>2713.3999023438</ele>
        <time>2020-02-17T13:24:49.000Z</time>
      </trkpt>
      <trkpt lat="44.57674" lon="6.85175">
        <ele>2713.8000488281</ele>
        <time>2020-02-17T13:24:51.000Z</time>
      </trkpt>
      <trkpt lat="44.57675" lon="6.85178">
        <ele>2714.3999023438</ele>
        <time>2020-02-17T13:25:05.000Z</time>
      </trkpt>
      <trkpt lat="44.57675" lon="6.85179">
        <ele>2714.3999023438</ele>
        <time>2020-02-17T13:25:06.000Z</time>
      </trkpt>
      <trkpt lat="44.57676" lon="6.85181">
        <ele>2714.8000488281</ele>
        <time>2020-02-17T13:25:08.000Z</time>
      </trkpt>
      <trkpt lat="44.57676" lon="6.85182">
        <ele>2715</ele>
        <time>2020-02-17T13:25:09.000Z</time>
      </trkpt>
      <trkpt lat="44.57677" lon="6.85185">
        <ele>2715.6000976562</ele>
        <time>2020-02-17T13:25:14.000Z</time>
      </trkpt>
      <trkpt lat="44.57678" lon="6.8519">
        <ele>2716.6000976562</ele>
        <time>2020-02-17T13:25:21.000Z</time>
      </trkpt>
      <trkpt lat="44.57678" lon="6.85189">
        <ele>2717</ele>
        <time>2020-02-17T13:25:24.000Z</time>
      </trkpt>
      <trkpt lat="44.5768" lon="6.85187">
        <ele>2717.6000976562</ele>
        <time>2020-02-17T13:25:34.000Z</time>
      </trkpt>
      <trkpt lat="44.57679" lon="6.85184">
        <ele>2718.1999511719</ele>
        <time>2020-02-17T13:25:46.000Z</time>
      </trkpt>
      <trkpt lat="44.57671" lon="6.85186">
        <ele>2718.1999511719</ele>
        <time>2020-02-17T13:25:57.000Z</time>
      </trkpt>
      <trkpt lat="44.5767" lon="6.85189">
        <ele>2718.1999511719</ele>
        <time>2020-02-17T13:26:00.000Z</time>
      </trkpt>
      <trkpt lat="44.57679" lon="6.85186">
        <ele>2718.1999511719</ele>
        <time>2020-02-17T13:26:12.000Z</time>
      </trkpt>
      <trkpt lat="44.57681" lon="6.85182">
        <ele>2718.8000488281</ele>
        <time>2020-02-17T13:26:16.000Z</time>
      </trkpt>
      <trkpt lat="44.57683" lon="6.85176">
        <ele>2719.8000488281</ele>
        <time>2020-02-17T13:26:20.000Z</time>
      </trkpt>
      <trkpt lat="44.57684" lon="6.85175">
        <ele>2719.8000488281</ele>
        <time>2020-02-17T13:26:21.000Z</time>
      </trkpt>
      <trkpt lat="44.57687" lon="6.85173">
        <ele>2720.1999511719</ele>
        <time>2020-02-17T13:26:23.000Z</time>
      </trkpt>
      <trkpt lat="44.57688" lon="6.85172">
        <ele>2720.3999023438</ele>
        <time>2020-02-17T13:26:24.000Z</time>
      </trkpt>
      <trkpt lat="44.57688" lon="6.85171">
        <ele>2720.6000976562</ele>
        <time>2020-02-17T13:26:25.000Z</time>
      </trkpt>
      <trkpt lat="44.57689" lon="6.8517">
        <ele>2721</ele>
        <time>2020-02-17T13:26:27.000Z</time>
      </trkpt>
      <trkpt lat="44.5769" lon="6.8517">
        <ele>2721</ele>
        <time>2020-02-17T13:26:28.000Z</time>
      </trkpt>
      <trkpt lat="44.5769" lon="6.85169">
        <ele>2721.1999511719</ele>
        <time>2020-02-17T13:26:29.000Z</time>
      </trkpt>
      <trkpt lat="44.57691" lon="6.85169">
        <ele>2721.3999023438</ele>
        <time>2020-02-17T13:26:30.000Z</time>
      </trkpt>
      <trkpt lat="44.57691" lon="6.85168">
        <ele>2722</ele>
        <time>2020-02-17T13:26:33.000Z</time>
      </trkpt>
      <trkpt lat="44.5769" lon="6.85168">
        <ele>2722</ele>
        <time>2020-02-17T13:26:39.000Z</time>
      </trkpt>
      <trkpt lat="44.57691" lon="6.85176">
        <ele>2722.3999023438</ele>
        <time>2020-02-17T13:26:48.000Z</time>
      </trkpt>
      <trkpt lat="44.57691" lon="6.8518">
        <ele>2723.1999511719</ele>
        <time>2020-02-17T13:26:52.000Z</time>
      </trkpt>
      <trkpt lat="44.57692" lon="6.85182">
        <ele>2723.8000488281</ele>
        <time>2020-02-17T13:26:55.000Z</time>
      </trkpt>
      <trkpt lat="44.57692" lon="6.85186">
        <ele>2724.1999511719</ele>
        <time>2020-02-17T13:26:58.000Z</time>
      </trkpt>
      <trkpt lat="44.57693" lon="6.8519">
        <ele>2725.1999511719</ele>
        <time>2020-02-17T13:27:02.000Z</time>
      </trkpt>
      <trkpt lat="44.57693" lon="6.85191">
        <ele>2725.6000976562</ele>
        <time>2020-02-17T13:27:04.000Z</time>
      </trkpt>
      <trkpt lat="44.57693" lon="6.85193">
        <ele>2726.1999511719</ele>
        <time>2020-02-17T13:27:07.000Z</time>
      </trkpt>
      <trkpt lat="44.57693" lon="6.85193">
        <ele>2726.3999023438</ele>
        <time>2020-02-17T13:27:08.000Z</time>
      </trkpt>
      <trkpt lat="44.57693" lon="6.85191">
        <ele>2726.8000488281</ele>
        <time>2020-02-17T13:27:15.000Z</time>
      </trkpt>
      <trkpt lat="44.57698" lon="6.85184">
        <ele>2727.1999511719</ele>
        <time>2020-02-17T13:27:30.000Z</time>
      </trkpt>
      <trkpt lat="44.57698" lon="6.85183">
        <ele>2727.3999023438</ele>
        <time>2020-02-17T13:27:31.000Z</time>
      </trkpt>
      <trkpt lat="44.57701" lon="6.85179">
        <ele>2728.3999023438</ele>
        <time>2020-02-17T13:27:37.000Z</time>
      </trkpt>
      <trkpt lat="44.57704" lon="6.85174">
        <ele>2729.6000976562</ele>
        <time>2020-02-17T13:27:42.000Z</time>
      </trkpt>
      <trkpt lat="44.57708" lon="6.85172">
        <ele>2730.6000976562</ele>
        <time>2020-02-17T13:27:47.000Z</time>
      </trkpt>
      <trkpt lat="44.57709" lon="6.85171">
        <ele>2730.8000488281</ele>
        <time>2020-02-17T13:27:49.000Z</time>
      </trkpt>
      <trkpt lat="44.5771" lon="6.85171">
        <ele>2731.1999511719</ele>
        <time>2020-02-17T13:27:52.000Z</time>
      </trkpt>
      <trkpt lat="44.57711" lon="6.85171">
        <ele>2731.6000976562</ele>
        <time>2020-02-17T13:27:54.000Z</time>
      </trkpt>
      <trkpt lat="44.57712" lon="6.85173">
        <ele>2731.8000488281</ele>
        <time>2020-02-17T13:28:17.000Z</time>
      </trkpt>
      <trkpt lat="44.57712" lon="6.85171">
        <ele>2732.1999511719</ele>
        <time>2020-02-17T13:28:26.000Z</time>
      </trkpt>
      <trkpt lat="44.57712" lon="6.85171">
        <ele>2732.1999511719</ele>
        <time>2020-02-17T13:28:29.000Z</time>
      </trkpt>
      <trkpt lat="44.57712" lon="6.85171">
        <ele>2732.1999511719</ele>
        <time>2020-02-17T13:28:31.000Z</time>
      </trkpt>
      <trkpt lat="44.57711" lon="6.85171">
        <ele>2732.1999511719</ele>
        <time>2020-02-17T13:28:35.000Z</time>
      </trkpt>
      <trkpt lat="44.57711" lon="6.85171">
        <ele>2732</ele>
        <time>2020-02-17T13:28:37.000Z</time>
      </trkpt>
      <trkpt lat="44.57711" lon="6.85172">
        <ele>2732</ele>
        <time>2020-02-17T13:28:40.000Z</time>
      </trkpt>
      <trkpt lat="44.57712" lon="6.85172">
        <ele>2732</ele>
        <time>2020-02-17T13:28:42.000Z</time>
      </trkpt>
      <trkpt lat="44.57712" lon="6.85172">
        <ele>2732.1999511719</ele>
        <time>2020-02-17T13:28:46.000Z</time>
      </trkpt>
      <trkpt lat="44.57712" lon="6.85172">
        <ele>2732.3999023438</ele>
        <time>2020-02-17T13:28:50.000Z</time>
      </trkpt>
      <trkpt lat="44.57712" lon="6.85172">
        <ele>2732.3999023438</ele>
        <time>2020-02-17T13:28:51.000Z</time>
      </trkpt>
      <trkpt lat="44.57712" lon="6.85173">
        <ele>2732.3999023438</ele>
        <time>2020-02-17T13:28:53.000Z</time>
      </trkpt>
      <trkpt lat="44.57712" lon="6.85173">
        <ele>2732.3999023438</ele>
        <time>2020-02-17T13:28:55.000Z</time>
      </trkpt>
      <trkpt lat="44.57712" lon="6.85173">
        <ele>2732.1999511719</ele>
        <time>2020-02-17T13:28:56.000Z</time>
      </trkpt>
      <trkpt lat="44.57711" lon="6.85173">
        <ele>2732.3999023438</ele>
        <time>2020-02-17T13:29:00.000Z</time>
      </trkpt>
      <trkpt lat="44.57711" lon="6.85173">
        <ele>2732.3999023438</ele>
        <time>2020-02-17T13:29:01.000Z</time>
      </trkpt>
      <trkpt lat="44.57711" lon="6.85173">
        <ele>2732.3999023438</ele>
        <time>2020-02-17T13:29:04.000Z</time>
      </trkpt>
      <trkpt lat="44.57711" lon="6.85173">
        <ele>2732.3999023438</ele>
        <time>2020-02-17T13:29:05.000Z</time>
      </trkpt>
      <trkpt lat="44.57711" lon="6.85173">
        <ele>2732.3999023438</ele>
        <time>2020-02-17T13:29:07.000Z</time>
      </trkpt>
      <trkpt lat="44.57712" lon="6.85173">
        <ele>2732.3999023438</ele>
        <time>2020-02-17T13:29:09.000Z</time>
      </trkpt>
      <trkpt lat="44.57712" lon="6.85172">
        <ele>2732.3999023438</ele>
        <time>2020-02-17T13:29:12.000Z</time>
      </trkpt>
      <trkpt lat="44.57712" lon="6.85172">
        <ele>2732.3999023438</ele>
        <time>2020-02-17T13:29:21.000Z</time>
      </trkpt>
      <trkpt lat="44.57711" lon="6.85172">
        <ele>2732.1999511719</ele>
        <time>2020-02-17T13:29:27.000Z</time>
      </trkpt>
      <trkpt lat="44.57712" lon="6.85173">
        <ele>2732.1999511719</ele>
        <time>2020-02-17T13:29:34.000Z</time>
      </trkpt>
      <trkpt lat="44.57713" lon="6.85173">
        <ele>2732.1999511719</ele>
        <time>2020-02-17T13:29:48.000Z</time>
      </trkpt>
      <trkpt lat="44.57712" lon="6.85172">
        <ele>2732.1999511719</ele>
        <time>2020-02-17T13:29:54.000Z</time>
      </trkpt>
      <trkpt lat="44.57713" lon="6.85172">
        <ele>2732.1999511719</ele>
        <time>2020-02-17T13:30:02.000Z</time>
      </trkpt>
      <trkpt lat="44.57713" lon="6.85172">
        <ele>2732.1999511719</ele>
        <time>2020-02-17T13:30:08.000Z</time>
      </trkpt>
      <trkpt lat="44.57713" lon="6.85172">
        <ele>2732.1999511719</ele>
        <time>2020-02-17T13:30:15.000Z</time>
      </trkpt>
      <trkpt lat="44.57713" lon="6.85172">
        <ele>2732.1999511719</ele>
        <time>2020-02-17T13:30:17.000Z</time>
      </trkpt>
      <trkpt lat="44.57713" lon="6.85172">
        <ele>2732.1999511719</ele>
        <time>2020-02-17T13:30:19.000Z</time>
      </trkpt>
      <trkpt lat="44.57713" lon="6.85172">
        <ele>2732.1999511719</ele>
        <time>2020-02-17T13:30:21.000Z</time>
      </trkpt>
      <trkpt lat="44.57713" lon="6.85172">
        <ele>2732.1999511719</ele>
        <time>2020-02-17T13:30:27.000Z</time>
      </trkpt>
      <trkpt lat="44.57713" lon="6.85172">
        <ele>2732.1999511719</ele>
        <time>2020-02-17T13:30:29.000Z</time>
      </trkpt>
      <trkpt lat="44.57713" lon="6.85172">
        <ele>2732.1999511719</ele>
        <time>2020-02-17T13:30:31.000Z</time>
      </trkpt>
      <trkpt lat="44.57713" lon="6.85173">
        <ele>2732.1999511719</ele>
        <time>2020-02-17T13:30:37.000Z</time>
      </trkpt>
      <trkpt lat="44.57714" lon="6.85173">
        <ele>2732.1999511719</ele>
        <time>2020-02-17T13:30:39.000Z</time>
      </trkpt>
      <trkpt lat="44.57714" lon="6.85173">
        <ele>2732.1999511719</ele>
        <time>2020-02-17T13:30:42.000Z</time>
      </trkpt>
      <trkpt lat="44.57714" lon="6.85173">
        <ele>2732.1999511719</ele>
        <time>2020-02-17T13:30:44.000Z</time>
      </trkpt>
      <trkpt lat="44.57714" lon="6.85173">
        <ele>2732.1999511719</ele>
        <time>2020-02-17T13:30:45.000Z</time>
      </trkpt>
      <trkpt lat="44.57714" lon="6.85172">
        <ele>2732.1999511719</ele>
        <time>2020-02-17T13:30:48.000Z</time>
      </trkpt>
      <trkpt lat="44.57715" lon="6.85171">
        <ele>2732.1999511719</ele>
        <time>2020-02-17T13:30:49.000Z</time>
      </trkpt>
      <trkpt lat="44.57716" lon="6.85171">
        <ele>2732.1999511719</ele>
        <time>2020-02-17T13:30:57.000Z</time>
      </trkpt>
      <trkpt lat="44.57716" lon="6.8517">
        <ele>2732.1999511719</ele>
        <time>2020-02-17T13:31:01.000Z</time>
      </trkpt>
      <trkpt lat="44.57715" lon="6.85171">
        <ele>2732.1999511719</ele>
        <time>2020-02-17T13:31:07.000Z</time>
      </trkpt>
      <trkpt lat="44.57716" lon="6.85172">
        <ele>2732.1999511719</ele>
        <time>2020-02-17T13:31:12.000Z</time>
      </trkpt>
      <trkpt lat="44.57716" lon="6.85172">
        <ele>2732.1999511719</ele>
        <time>2020-02-17T13:31:14.000Z</time>
      </trkpt>
      <trkpt lat="44.57716" lon="6.85172">
        <ele>2732.1999511719</ele>
        <time>2020-02-17T13:31:15.000Z</time>
      </trkpt>
      <trkpt lat="44.57716" lon="6.85173">
        <ele>2732.1999511719</ele>
        <time>2020-02-17T13:31:19.000Z</time>
      </trkpt>
      <trkpt lat="44.57716" lon="6.85173">
        <ele>2732.1999511719</ele>
        <time>2020-02-17T13:31:28.000Z</time>
      </trkpt>
      <trkpt lat="44.57716" lon="6.85173">
        <ele>2732.1999511719</ele>
        <time>2020-02-17T13:31:31.000Z</time>
      </trkpt>
      <trkpt lat="44.57716" lon="6.85173">
        <ele>2732.1999511719</ele>
        <time>2020-02-17T13:31:36.000Z</time>
      </trkpt>
      <trkpt lat="44.57715" lon="6.85173">
        <ele>2732.1999511719</ele>
        <time>2020-02-17T13:31:38.000Z</time>
      </trkpt>
      <trkpt lat="44.57715" lon="6.85173">
        <ele>2732.1999511719</ele>
        <time>2020-02-17T13:31:42.000Z</time>
      </trkpt>
      <trkpt lat="44.57714" lon="6.85172">
        <ele>2732.1999511719</ele>
        <time>2020-02-17T13:31:51.000Z</time>
      </trkpt>
      <trkpt lat="44.57714" lon="6.85172">
        <ele>2732.1999511719</ele>
        <time>2020-02-17T13:31:55.000Z</time>
      </trkpt>
      <trkpt lat="44.57714" lon="6.85172">
        <ele>2732.1999511719</ele>
        <time>2020-02-17T13:31:56.000Z</time>
      </trkpt>
      <trkpt lat="44.57713" lon="6.85172">
        <ele>2732.1999511719</ele>
        <time>2020-02-17T13:31:57.000Z</time>
      </trkpt>
      <trkpt lat="44.57713" lon="6.85171">
        <ele>2732.1999511719</ele>
        <time>2020-02-17T13:31:58.000Z</time>
      </trkpt>
      <trkpt lat="44.57713" lon="6.85171">
        <ele>2732.1999511719</ele>
        <time>2020-02-17T13:32:04.000Z</time>
      </trkpt>
      <trkpt lat="44.57713" lon="6.85172">
        <ele>2732.1999511719</ele>
        <time>2020-02-17T13:32:13.000Z</time>
      </trkpt>
      <trkpt lat="44.57713" lon="6.85172">
        <ele>2732.1999511719</ele>
        <time>2020-02-17T13:32:15.000Z</time>
      </trkpt>
      <trkpt lat="44.57713" lon="6.85172">
        <ele>2732.1999511719</ele>
        <time>2020-02-17T13:32:16.000Z</time>
      </trkpt>
      <trkpt lat="44.57713" lon="6.85172">
        <ele>2732.1999511719</ele>
        <time>2020-02-17T13:32:17.000Z</time>
      </trkpt>
      <trkpt lat="44.57713" lon="6.85172">
        <ele>2732.1999511719</ele>
        <time>2020-02-17T13:32:18.000Z</time>
      </trkpt>
      <trkpt lat="44.57713" lon="6.85172">
        <ele>2732.1999511719</ele>
        <time>2020-02-17T13:32:30.000Z</time>
      </trkpt>
      <trkpt lat="44.57713" lon="6.85173">
        <ele>2732.1999511719</ele>
        <time>2020-02-17T13:32:31.000Z</time>
      </trkpt>
      <trkpt lat="44.57713" lon="6.85173">
        <ele>2732.1999511719</ele>
        <time>2020-02-17T13:32:33.000Z</time>
      </trkpt>
      <trkpt lat="44.57713" lon="6.85173">
        <ele>2732.1999511719</ele>
        <time>2020-02-17T13:32:40.000Z</time>
      </trkpt>
      <trkpt lat="44.57713" lon="6.85173">
        <ele>2732.1999511719</ele>
        <time>2020-02-17T13:32:42.000Z</time>
      </trkpt>
      <trkpt lat="44.57713" lon="6.85173">
        <ele>2732.1999511719</ele>
        <time>2020-02-17T13:32:43.000Z</time>
      </trkpt>
      <trkpt lat="44.57713" lon="6.85173">
        <ele>2732.1999511719</ele>
        <time>2020-02-17T13:32:46.000Z</time>
      </trkpt>
      <trkpt lat="44.57712" lon="6.85173">
        <ele>2732.1999511719</ele>
        <time>2020-02-17T13:32:53.000Z</time>
      </trkpt>
      <trkpt lat="44.57713" lon="6.85172">
        <ele>2732.1999511719</ele>
        <time>2020-02-17T13:33:01.000Z</time>
      </trkpt>
      <trkpt lat="44.57713" lon="6.85172">
        <ele>2732.1999511719</ele>
        <time>2020-02-17T13:33:03.000Z</time>
      </trkpt>
      <trkpt lat="44.57714" lon="6.85172">
        <ele>2732.1999511719</ele>
        <time>2020-02-17T13:33:06.000Z</time>
      </trkpt>
      <trkpt lat="44.57714" lon="6.85172">
        <ele>2732.1999511719</ele>
        <time>2020-02-17T13:33:11.000Z</time>
      </trkpt>
      <trkpt lat="44.57716" lon="6.85172">
        <ele>2732.1999511719</ele>
        <time>2020-02-17T13:33:16.000Z</time>
      </trkpt>
      <trkpt lat="44.57713" lon="6.85173">
        <ele>2732.1999511719</ele>
        <time>2020-02-17T13:33:27.000Z</time>
      </trkpt>
      <trkpt lat="44.57713" lon="6.85173">
        <ele>2732.1999511719</ele>
        <time>2020-02-17T13:33:31.000Z</time>
      </trkpt>
      <trkpt lat="44.57713" lon="6.85173">
        <ele>2732.1999511719</ele>
        <time>2020-02-17T13:33:34.000Z</time>
      </trkpt>
      <trkpt lat="44.57712" lon="6.85173">
        <ele>2732.1999511719</ele>
        <time>2020-02-17T13:33:39.000Z</time>
      </trkpt>
      <trkpt lat="44.57712" lon="6.85173">
        <ele>2732.1999511719</ele>
        <time>2020-02-17T13:33:40.000Z</time>
      </trkpt>
      <trkpt lat="44.57711" lon="6.85173">
        <ele>2732.1999511719</ele>
        <time>2020-02-17T13:33:43.000Z</time>
      </trkpt>
      <trkpt lat="44.5771" lon="6.85174">
        <ele>2732.1999511719</ele>
        <time>2020-02-17T13:33:46.000Z</time>
      </trkpt>
      <trkpt lat="44.57712" lon="6.85175">
        <ele>2732.1999511719</ele>
        <time>2020-02-17T13:33:59.000Z</time>
      </trkpt>
      <trkpt lat="44.57713" lon="6.85174">
        <ele>2732.1999511719</ele>
        <time>2020-02-17T13:34:20.000Z</time>
      </trkpt>
      <trkpt lat="44.57712" lon="6.85173">
        <ele>2732.1999511719</ele>
        <time>2020-02-17T13:34:33.000Z</time>
      </trkpt>
      <trkpt lat="44.57711" lon="6.85174">
        <ele>2732.1999511719</ele>
        <time>2020-02-17T13:34:36.000Z</time>
      </trkpt>
      <trkpt lat="44.57711" lon="6.85174">
        <ele>2732.1999511719</ele>
        <time>2020-02-17T13:34:41.000Z</time>
      </trkpt>
      <trkpt lat="44.57712" lon="6.85174">
        <ele>2732.1999511719</ele>
        <time>2020-02-17T13:34:44.000Z</time>
      </trkpt>
      <trkpt lat="44.57712" lon="6.85174">
        <ele>2732.1999511719</ele>
        <time>2020-02-17T13:34:46.000Z</time>
      </trkpt>
      <trkpt lat="44.57712" lon="6.85174">
        <ele>2732.1999511719</ele>
        <time>2020-02-17T13:34:47.000Z</time>
      </trkpt>
      <trkpt lat="44.57712" lon="6.85174">
        <ele>2732.1999511719</ele>
        <time>2020-02-17T13:34:49.000Z</time>
      </trkpt>
      <trkpt lat="44.57713" lon="6.85172">
        <ele>2732.1999511719</ele>
        <time>2020-02-17T13:35:04.000Z</time>
      </trkpt>
      <trkpt lat="44.57711" lon="6.85172">
        <ele>2732.1999511719</ele>
        <time>2020-02-17T13:35:19.000Z</time>
      </trkpt>
      <trkpt lat="44.57711" lon="6.85173">
        <ele>2732.1999511719</ele>
        <time>2020-02-17T13:35:25.000Z</time>
      </trkpt>
      <trkpt lat="44.57713" lon="6.85173">
        <ele>2732.1999511719</ele>
        <time>2020-02-17T13:35:32.000Z</time>
      </trkpt>
      <trkpt lat="44.57716" lon="6.85173">
        <ele>2732.1999511719</ele>
        <time>2020-02-17T13:35:42.000Z</time>
      </trkpt>
      <trkpt lat="44.57716" lon="6.85173">
        <ele>2732.1999511719</ele>
        <time>2020-02-17T13:35:46.000Z</time>
      </trkpt>
      <trkpt lat="44.57716" lon="6.85173">
        <ele>2732.1999511719</ele>
        <time>2020-02-17T13:35:48.000Z</time>
      </trkpt>
      <trkpt lat="44.57716" lon="6.85173">
        <ele>2732.1999511719</ele>
        <time>2020-02-17T13:35:50.000Z</time>
      </trkpt>
      <trkpt lat="44.57716" lon="6.85172">
        <ele>2732.1999511719</ele>
        <time>2020-02-17T13:35:53.000Z</time>
      </trkpt>
      <trkpt lat="44.57715" lon="6.85172">
        <ele>2732.1999511719</ele>
        <time>2020-02-17T13:35:57.000Z</time>
      </trkpt>
      <trkpt lat="44.57713" lon="6.85171">
        <ele>2732.1999511719</ele>
        <time>2020-02-17T13:36:18.000Z</time>
      </trkpt>
      <trkpt lat="44.57712" lon="6.85172">
        <ele>2732.1999511719</ele>
        <time>2020-02-17T13:36:36.000Z</time>
      </trkpt>
      <trkpt lat="44.57712" lon="6.85172">
        <ele>2732.1999511719</ele>
        <time>2020-02-17T13:36:37.000Z</time>
      </trkpt>
      <trkpt lat="44.57712" lon="6.85173">
        <ele>2732.1999511719</ele>
        <time>2020-02-17T13:36:38.000Z</time>
      </trkpt>
      <trkpt lat="44.57712" lon="6.85173">
        <ele>2732.1999511719</ele>
        <time>2020-02-17T13:36:40.000Z</time>
      </trkpt>
      <trkpt lat="44.57712" lon="6.85172">
        <ele>2732.1999511719</ele>
        <time>2020-02-17T13:36:43.000Z</time>
      </trkpt>
      <trkpt lat="44.57712" lon="6.85172">
        <ele>2732.1999511719</ele>
        <time>2020-02-17T13:36:44.000Z</time>
      </trkpt>
      <trkpt lat="44.57712" lon="6.85172">
        <ele>2732.1999511719</ele>
        <time>2020-02-17T13:36:48.000Z</time>
      </trkpt>
      <trkpt lat="44.57712" lon="6.85172">
        <ele>2732.1999511719</ele>
        <time>2020-02-17T13:36:52.000Z</time>
      </trkpt>
      <trkpt lat="44.57713" lon="6.85173">
        <ele>2732.1999511719</ele>
        <time>2020-02-17T13:36:56.000Z</time>
      </trkpt>
      <trkpt lat="44.57713" lon="6.85173">
        <ele>2732.1999511719</ele>
        <time>2020-02-17T13:36:59.000Z</time>
      </trkpt>
      <trkpt lat="44.57713" lon="6.85173">
        <ele>2732.1999511719</ele>
        <time>2020-02-17T13:37:01.000Z</time>
      </trkpt>
      <trkpt lat="44.57713" lon="6.85173">
        <ele>2732.1999511719</ele>
        <time>2020-02-17T13:37:05.000Z</time>
      </trkpt>
      <trkpt lat="44.57713" lon="6.85172">
        <ele>2732.1999511719</ele>
        <time>2020-02-17T13:37:15.000Z</time>
      </trkpt>
      <trkpt lat="44.57713" lon="6.85173">
        <ele>2732.1999511719</ele>
        <time>2020-02-17T13:37:26.000Z</time>
      </trkpt>
      <trkpt lat="44.57713" lon="6.85173">
        <ele>2732.1999511719</ele>
        <time>2020-02-17T13:37:36.000Z</time>
      </trkpt>
      <trkpt lat="44.57713" lon="6.85173">
        <ele>2732.1999511719</ele>
        <time>2020-02-17T13:37:44.000Z</time>
      </trkpt>
      <trkpt lat="44.57712" lon="6.85174">
        <ele>2732.1999511719</ele>
        <time>2020-02-17T13:38:02.000Z</time>
      </trkpt>
      <trkpt lat="44.57712" lon="6.85174">
        <ele>2732.1999511719</ele>
        <time>2020-02-17T13:38:06.000Z</time>
      </trkpt>
      <trkpt lat="44.57712" lon="6.85173">
        <ele>2732.1999511719</ele>
        <time>2020-02-17T13:38:20.000Z</time>
      </trkpt>
      <trkpt lat="44.57712" lon="6.85173">
        <ele>2732.1999511719</ele>
        <time>2020-02-17T13:38:23.000Z</time>
      </trkpt>
      <trkpt lat="44.57712" lon="6.85173">
        <ele>2732.1999511719</ele>
        <time>2020-02-17T13:38:24.000Z</time>
      </trkpt>
      <trkpt lat="44.57712" lon="6.85174">
        <ele>2732.1999511719</ele>
        <time>2020-02-17T13:38:25.000Z</time>
      </trkpt>
      <trkpt lat="44.57714" lon="6.85173">
        <ele>2732.1999511719</ele>
        <time>2020-02-17T13:38:27.000Z</time>
      </trkpt>
      <trkpt lat="44.57715" lon="6.85172">
        <ele>2732.1999511719</ele>
        <time>2020-02-17T13:38:29.000Z</time>
      </trkpt>
      <trkpt lat="44.57715" lon="6.85172">
        <ele>2732.1999511719</ele>
        <time>2020-02-17T13:38:31.000Z</time>
      </trkpt>
      <trkpt lat="44.57713" lon="6.85171">
        <ele>2732.1999511719</ele>
        <time>2020-02-17T13:38:46.000Z</time>
      </trkpt>
      <trkpt lat="44.57713" lon="6.85171">
        <ele>2732.1999511719</ele>
        <time>2020-02-17T13:38:49.000Z</time>
      </trkpt>
      <trkpt lat="44.57712" lon="6.85171">
        <ele>2732.1999511719</ele>
        <time>2020-02-17T13:38:52.000Z</time>
      </trkpt>
      <trkpt lat="44.57712" lon="6.85172">
        <ele>2732.1999511719</ele>
        <time>2020-02-17T13:38:56.000Z</time>
      </trkpt>
      <trkpt lat="44.57713" lon="6.85172">
        <ele>2732.1999511719</ele>
        <time>2020-02-17T13:39:10.000Z</time>
      </trkpt>
      <trkpt lat="44.57713" lon="6.85172">
        <ele>2732.1999511719</ele>
        <time>2020-02-17T13:39:29.000Z</time>
      </trkpt>
      <trkpt lat="44.57712" lon="6.85172">
        <ele>2732.1999511719</ele>
        <time>2020-02-17T13:39:32.000Z</time>
      </trkpt>
      <trkpt lat="44.57713" lon="6.85172">
        <ele>2732.1999511719</ele>
        <time>2020-02-17T13:39:44.000Z</time>
      </trkpt>
      <trkpt lat="44.57713" lon="6.85172">
        <ele>2732.1999511719</ele>
        <time>2020-02-17T13:39:50.000Z</time>
      </trkpt>
      <trkpt lat="44.57713" lon="6.85171">
        <ele>2732.1999511719</ele>
        <time>2020-02-17T13:39:52.000Z</time>
      </trkpt>
      <trkpt lat="44.57713" lon="6.85172">
        <ele>2732.1999511719</ele>
        <time>2020-02-17T13:39:56.000Z</time>
      </trkpt>
      <trkpt lat="44.57712" lon="6.85172">
        <ele>2732.1999511719</ele>
        <time>2020-02-17T13:40:03.000Z</time>
      </trkpt>
      <trkpt lat="44.57712" lon="6.85172">
        <ele>2732.1999511719</ele>
        <time>2020-02-17T13:40:19.000Z</time>
      </trkpt>
      <trkpt lat="44.57712" lon="6.85172">
        <ele>2732.1999511719</ele>
        <time>2020-02-17T13:40:24.000Z</time>
      </trkpt>
      <trkpt lat="44.57712" lon="6.85173">
        <ele>2732.1999511719</ele>
        <time>2020-02-17T13:40:40.000Z</time>
      </trkpt>
      <trkpt lat="44.57711" lon="6.85173">
        <ele>2732.1999511719</ele>
        <time>2020-02-17T13:40:46.000Z</time>
      </trkpt>
      <trkpt lat="44.57712" lon="6.85171">
        <ele>2732.1999511719</ele>
        <time>2020-02-17T13:40:55.000Z</time>
      </trkpt>
      <trkpt lat="44.57712" lon="6.85172">
        <ele>2732.1999511719</ele>
        <time>2020-02-17T13:41:32.000Z</time>
      </trkpt>
      <trkpt lat="44.57713" lon="6.85172">
        <ele>2732.1999511719</ele>
        <time>2020-02-17T13:41:47.000Z</time>
      </trkpt>
      <trkpt lat="44.57714" lon="6.85172">
        <ele>2732.1999511719</ele>
        <time>2020-02-17T13:41:55.000Z</time>
      </trkpt>
      <trkpt lat="44.57714" lon="6.85172">
        <ele>2732.1999511719</ele>
        <time>2020-02-17T13:41:56.000Z</time>
      </trkpt>
      <trkpt lat="44.57714" lon="6.85172">
        <ele>2732.1999511719</ele>
        <time>2020-02-17T13:41:57.000Z</time>
      </trkpt>
      <trkpt lat="44.57714" lon="6.85171">
        <ele>2732.1999511719</ele>
        <time>2020-02-17T13:42:00.000Z</time>
      </trkpt>
      <trkpt lat="44.57713" lon="6.85171">
        <ele>2732.1999511719</ele>
        <time>2020-02-17T13:42:04.000Z</time>
      </trkpt>
      <trkpt lat="44.57713" lon="6.85171">
        <ele>2732.1999511719</ele>
        <time>2020-02-17T13:42:05.000Z</time>
      </trkpt>
      <trkpt lat="44.57713" lon="6.85171">
        <ele>2732.1999511719</ele>
        <time>2020-02-17T13:42:06.000Z</time>
      </trkpt>
      <trkpt lat="44.57713" lon="6.85171">
        <ele>2732.1999511719</ele>
        <time>2020-02-17T13:42:07.000Z</time>
      </trkpt>
      <trkpt lat="44.57713" lon="6.85171">
        <ele>2732.1999511719</ele>
        <time>2020-02-17T13:42:08.000Z</time>
      </trkpt>
      <trkpt lat="44.57713" lon="6.85171">
        <ele>2732.1999511719</ele>
        <time>2020-02-17T13:42:10.000Z</time>
      </trkpt>
      <trkpt lat="44.57713" lon="6.85171">
        <ele>2732.1999511719</ele>
        <time>2020-02-17T13:42:13.000Z</time>
      </trkpt>
      <trkpt lat="44.57713" lon="6.85172">
        <ele>2732.1999511719</ele>
        <time>2020-02-17T13:42:15.000Z</time>
      </trkpt>
      <trkpt lat="44.57713" lon="6.85172">
        <ele>2732.1999511719</ele>
        <time>2020-02-17T13:42:27.000Z</time>
      </trkpt>
      <trkpt lat="44.57713" lon="6.85172">
        <ele>2732.1999511719</ele>
        <time>2020-02-17T13:42:28.000Z</time>
      </trkpt>
      <trkpt lat="44.57713" lon="6.85172">
        <ele>2732.1999511719</ele>
        <time>2020-02-17T13:42:40.000Z</time>
      </trkpt>
      <trkpt lat="44.57712" lon="6.85172">
        <ele>2732.1999511719</ele>
        <time>2020-02-17T13:42:43.000Z</time>
      </trkpt>
      <trkpt lat="44.57712" lon="6.85172">
        <ele>2732.1999511719</ele>
        <time>2020-02-17T13:42:44.000Z</time>
      </trkpt>
      <trkpt lat="44.57712" lon="6.85173">
        <ele>2732.1999511719</ele>
        <time>2020-02-17T13:42:49.000Z</time>
      </trkpt>
      <trkpt lat="44.57713" lon="6.85173">
        <ele>2732.1999511719</ele>
        <time>2020-02-17T13:42:58.000Z</time>
      </trkpt>
      <trkpt lat="44.57713" lon="6.85173">
        <ele>2732.1999511719</ele>
        <time>2020-02-17T13:42:59.000Z</time>
      </trkpt>
      <trkpt lat="44.57712" lon="6.85172">
        <ele>2732.1999511719</ele>
        <time>2020-02-17T13:43:06.000Z</time>
      </trkpt>
      <trkpt lat="44.57712" lon="6.85172">
        <ele>2732.1999511719</ele>
        <time>2020-02-17T13:43:08.000Z</time>
      </trkpt>
      <trkpt lat="44.57711" lon="6.8517">
        <ele>2732.1999511719</ele>
        <time>2020-02-17T13:43:13.000Z</time>
      </trkpt>
      <trkpt lat="44.57711" lon="6.8517">
        <ele>2732.1999511719</ele>
        <time>2020-02-17T13:43:15.000Z</time>
      </trkpt>
      <trkpt lat="44.57711" lon="6.8517">
        <ele>2732.1999511719</ele>
        <time>2020-02-17T13:43:17.000Z</time>
      </trkpt>
      <trkpt lat="44.57711" lon="6.8517">
        <ele>2732.1999511719</ele>
        <time>2020-02-17T13:43:18.000Z</time>
      </trkpt>
      <trkpt lat="44.57711" lon="6.85169">
        <ele>2732.1999511719</ele>
        <time>2020-02-17T13:43:20.000Z</time>
      </trkpt>
      <trkpt lat="44.57712" lon="6.8517">
        <ele>2732.1999511719</ele>
        <time>2020-02-17T13:43:24.000Z</time>
      </trkpt>
      <trkpt lat="44.57713" lon="6.8517">
        <ele>2732.1999511719</ele>
        <time>2020-02-17T13:43:39.000Z</time>
      </trkpt>
      <trkpt lat="44.57715" lon="6.85169">
        <ele>2732.1999511719</ele>
        <time>2020-02-17T13:43:43.000Z</time>
      </trkpt>
      <trkpt lat="44.57717" lon="6.85169">
        <ele>2732.1999511719</ele>
        <time>2020-02-17T13:43:55.000Z</time>
      </trkpt>
      <trkpt lat="44.57717" lon="6.85169">
        <ele>2732.1999511719</ele>
        <time>2020-02-17T13:44:05.000Z</time>
      </trkpt>
      <trkpt lat="44.57716" lon="6.85168">
        <ele>2732.1999511719</ele>
        <time>2020-02-17T13:44:11.000Z</time>
      </trkpt>
      <trkpt lat="44.57717" lon="6.85168">
        <ele>2732.1999511719</ele>
        <time>2020-02-17T13:44:20.000Z</time>
      </trkpt>
      <trkpt lat="44.57717" lon="6.85168">
        <ele>2732.1999511719</ele>
        <time>2020-02-17T13:44:22.000Z</time>
      </trkpt>
      <trkpt lat="44.57717" lon="6.85169">
        <ele>2732.1999511719</ele>
        <time>2020-02-17T13:44:54.000Z</time>
      </trkpt>
      <trkpt lat="44.57716" lon="6.85171">
        <ele>2732.1999511719</ele>
        <time>2020-02-17T13:45:18.000Z</time>
      </trkpt>
      <trkpt lat="44.57717" lon="6.85171">
        <ele>2732.1999511719</ele>
        <time>2020-02-17T13:45:47.000Z</time>
      </trkpt>
      <trkpt lat="44.57716" lon="6.85171">
        <ele>2732.1999511719</ele>
        <time>2020-02-17T13:46:02.000Z</time>
      </trkpt>
      <trkpt lat="44.57716" lon="6.85171">
        <ele>2732.1999511719</ele>
        <time>2020-02-17T13:46:04.000Z</time>
      </trkpt>
      <trkpt lat="44.57716" lon="6.85171">
        <ele>2732.1999511719</ele>
        <time>2020-02-17T13:46:06.000Z</time>
      </trkpt>
      <trkpt lat="44.57718" lon="6.85164">
        <ele>2732.1999511719</ele>
        <time>2020-02-17T13:46:19.000Z</time>
      </trkpt>
      <trkpt lat="44.57719" lon="6.85162">
        <ele>2732.1999511719</ele>
        <time>2020-02-17T13:46:20.000Z</time>
      </trkpt>
      <trkpt lat="44.57723" lon="6.85156">
        <ele>2729.8000488281</ele>
        <time>2020-02-17T13:46:24.000Z</time>
      </trkpt>
      <trkpt lat="44.57726" lon="6.85153">
        <ele>2728.6000976562</ele>
        <time>2020-02-17T13:46:26.000Z</time>
      </trkpt>
      <trkpt lat="44.57726" lon="6.8515">
        <ele>2728.3999023438</ele>
        <time>2020-02-17T13:46:29.000Z</time>
      </trkpt>
      <trkpt lat="44.57724" lon="6.85148">
        <ele>2727.6000976562</ele>
        <time>2020-02-17T13:46:31.000Z</time>
      </trkpt>
      <trkpt lat="44.57722" lon="6.85146">
        <ele>2726.6000976562</ele>
        <time>2020-02-17T13:46:34.000Z</time>
      </trkpt>
      <trkpt lat="44.57722" lon="6.85146">
        <ele>2726.3999023438</ele>
        <time>2020-02-17T13:46:35.000Z</time>
      </trkpt>
      <trkpt lat="44.57719" lon="6.85143">
        <ele>2725.6000976562</ele>
        <time>2020-02-17T13:46:41.000Z</time>
      </trkpt>
      <trkpt lat="44.57719" lon="6.85138">
        <ele>2725.1999511719</ele>
        <time>2020-02-17T13:46:43.000Z</time>
      </trkpt>
      <trkpt lat="44.57719" lon="6.85136">
        <ele>2724.3999023438</ele>
        <time>2020-02-17T13:46:44.000Z</time>
      </trkpt>
      <trkpt lat="44.57718" lon="6.85135">
        <ele>2723.6000976562</ele>
        <time>2020-02-17T13:46:45.000Z</time>
      </trkpt>
      <trkpt lat="44.57717" lon="6.85135">
        <ele>2723</ele>
        <time>2020-02-17T13:46:46.000Z</time>
      </trkpt>
      <trkpt lat="44.57717" lon="6.85135">
        <ele>2722.3999023438</ele>
        <time>2020-02-17T13:46:47.000Z</time>
      </trkpt>
      <trkpt lat="44.57717" lon="6.85135">
        <ele>2722</ele>
        <time>2020-02-17T13:46:48.000Z</time>
      </trkpt>
      <trkpt lat="44.57715" lon="6.85132">
        <ele>2721.1999511719</ele>
        <time>2020-02-17T13:46:50.000Z</time>
      </trkpt>
      <trkpt lat="44.57713" lon="6.85129">
        <ele>2720.8000488281</ele>
        <time>2020-02-17T13:46:52.000Z</time>
      </trkpt>
      <trkpt lat="44.5771" lon="6.85127">
        <ele>2720.1999511719</ele>
        <time>2020-02-17T13:46:54.000Z</time>
      </trkpt>
      <trkpt lat="44.57709" lon="6.85125">
        <ele>2720</ele>
        <time>2020-02-17T13:46:55.000Z</time>
      </trkpt>
      <trkpt lat="44.57711" lon="6.85121">
        <ele>2719.1999511719</ele>
        <time>2020-02-17T13:46:57.000Z</time>
      </trkpt>
      <trkpt lat="44.57711" lon="6.8512">
        <ele>2717.6000976562</ele>
        <time>2020-02-17T13:46:59.000Z</time>
      </trkpt>
      <trkpt lat="44.57711" lon="6.8512">
        <ele>2716.6000976562</ele>
        <time>2020-02-17T13:47:00.000Z</time>
      </trkpt>
      <trkpt lat="44.57711" lon="6.8512">
        <ele>2716.1999511719</ele>
        <time>2020-02-17T13:47:01.000Z</time>
      </trkpt>
      <trkpt lat="44.57712" lon="6.85119">
        <ele>2715.6000976562</ele>
        <time>2020-02-17T13:47:05.000Z</time>
      </trkpt>
      <trkpt lat="44.57711" lon="6.8511">
        <ele>2715</ele>
        <time>2020-02-17T13:47:10.000Z</time>
      </trkpt>
      <trkpt lat="44.57709" lon="6.85109">
        <ele>2713.8000488281</ele>
        <time>2020-02-17T13:47:12.000Z</time>
      </trkpt>
      <trkpt lat="44.57706" lon="6.85106">
        <ele>2712.6000976562</ele>
        <time>2020-02-17T13:47:14.000Z</time>
      </trkpt>
      <trkpt lat="44.57705" lon="6.85105">
        <ele>2712.1999511719</ele>
        <time>2020-02-17T13:47:15.000Z</time>
      </trkpt>
      <trkpt lat="44.57703" lon="6.85102">
        <ele>2711.1999511719</ele>
        <time>2020-02-17T13:47:17.000Z</time>
      </trkpt>
      <trkpt lat="44.57699" lon="6.85098">
        <ele>2709.8000488281</ele>
        <time>2020-02-17T13:47:20.000Z</time>
      </trkpt>
      <trkpt lat="44.57698" lon="6.85098">
        <ele>2709.3999023438</ele>
        <time>2020-02-17T13:47:21.000Z</time>
      </trkpt>
      <trkpt lat="44.57698" lon="6.85098">
        <ele>2708.3999023438</ele>
        <time>2020-02-17T13:47:23.000Z</time>
      </trkpt>
      <trkpt lat="44.57698" lon="6.85096">
        <ele>2708</ele>
        <time>2020-02-17T13:47:24.000Z</time>
      </trkpt>
      <trkpt lat="44.57697" lon="6.85094">
        <ele>2707.1999511719</ele>
        <time>2020-02-17T13:47:28.000Z</time>
      </trkpt>
      <trkpt lat="44.57697" lon="6.85094">
        <ele>2706.8000488281</ele>
        <time>2020-02-17T13:47:29.000Z</time>
      </trkpt>
      <trkpt lat="44.57696" lon="6.8509">
        <ele>2706.6000976562</ele>
        <time>2020-02-17T13:47:31.000Z</time>
      </trkpt>
      <trkpt lat="44.57696" lon="6.85088">
        <ele>2706</ele>
        <time>2020-02-17T13:47:33.000Z</time>
      </trkpt>
      <trkpt lat="44.57695" lon="6.85084">
        <ele>2705.3999023438</ele>
        <time>2020-02-17T13:47:35.000Z</time>
      </trkpt>
      <trkpt lat="44.57695" lon="6.85084">
        <ele>2704.8000488281</ele>
        <time>2020-02-17T13:47:36.000Z</time>
      </trkpt>
      <trkpt lat="44.57696" lon="6.85082">
        <ele>2703.8000488281</ele>
        <time>2020-02-17T13:47:39.000Z</time>
      </trkpt>
      <trkpt lat="44.57696" lon="6.85073">
        <ele>2702.8000488281</ele>
        <time>2020-02-17T13:47:46.000Z</time>
      </trkpt>
      <trkpt lat="44.57697" lon="6.85071">
        <ele>2702.3999023438</ele>
        <time>2020-02-17T13:47:48.000Z</time>
      </trkpt>
      <trkpt lat="44.57697" lon="6.85071">
        <ele>2701.6000976562</ele>
        <time>2020-02-17T13:47:52.000Z</time>
      </trkpt>
      <trkpt lat="44.57704" lon="6.85067">
        <ele>2700.6000976562</ele>
        <time>2020-02-17T13:48:00.000Z</time>
      </trkpt>
      <trkpt lat="44.57709" lon="6.85068">
        <ele>2699</ele>
        <time>2020-02-17T13:48:02.000Z</time>
      </trkpt>
      <trkpt lat="44.5771" lon="6.85068">
        <ele>2698</ele>
        <time>2020-02-17T13:48:03.000Z</time>
      </trkpt>
      <trkpt lat="44.5771" lon="6.85068">
        <ele>2697.1999511719</ele>
        <time>2020-02-17T13:48:04.000Z</time>
      </trkpt>
      <trkpt lat="44.57709" lon="6.85069">
        <ele>2696.6000976562</ele>
        <time>2020-02-17T13:48:05.000Z</time>
      </trkpt>
      <trkpt lat="44.5771" lon="6.85066">
        <ele>2695.3999023438</ele>
        <time>2020-02-17T13:48:08.000Z</time>
      </trkpt>
      <trkpt lat="44.57712" lon="6.85063">
        <ele>2695.1999511719</ele>
        <time>2020-02-17T13:48:10.000Z</time>
      </trkpt>
      <trkpt lat="44.57713" lon="6.85054">
        <ele>2694.1999511719</ele>
        <time>2020-02-17T13:48:14.000Z</time>
      </trkpt>
      <trkpt lat="44.5771" lon="6.85049">
        <ele>2692.8000488281</ele>
        <time>2020-02-17T13:48:16.000Z</time>
      </trkpt>
      <trkpt lat="44.57713" lon="6.85046">
        <ele>2691.1999511719</ele>
        <time>2020-02-17T13:48:18.000Z</time>
      </trkpt>
      <trkpt lat="44.57716" lon="6.85047">
        <ele>2689.8000488281</ele>
        <time>2020-02-17T13:48:20.000Z</time>
      </trkpt>
      <trkpt lat="44.57717" lon="6.85047">
        <ele>2688.6000976562</ele>
        <time>2020-02-17T13:48:21.000Z</time>
      </trkpt>
      <trkpt lat="44.57717" lon="6.85046">
        <ele>2687.1999511719</ele>
        <time>2020-02-17T13:48:23.000Z</time>
      </trkpt>
      <trkpt lat="44.57715" lon="6.85036">
        <ele>2685.8000488281</ele>
        <time>2020-02-17T13:48:27.000Z</time>
      </trkpt>
      <trkpt lat="44.57714" lon="6.8503">
        <ele>2684.1999511719</ele>
        <time>2020-02-17T13:48:29.000Z</time>
      </trkpt>
      <trkpt lat="44.57713" lon="6.85028">
        <ele>2683.1999511719</ele>
        <time>2020-02-17T13:48:30.000Z</time>
      </trkpt>
      <trkpt lat="44.57711" lon="6.85026">
        <ele>2682.3999023438</ele>
        <time>2020-02-17T13:48:31.000Z</time>
      </trkpt>
      <trkpt lat="44.57712" lon="6.85024">
        <ele>2680.8000488281</ele>
        <time>2020-02-17T13:48:33.000Z</time>
      </trkpt>
      <trkpt lat="44.57712" lon="6.85024">
        <ele>2679.8000488281</ele>
        <time>2020-02-17T13:48:35.000Z</time>
      </trkpt>
      <trkpt lat="44.57712" lon="6.85023">
        <ele>2678.8000488281</ele>
        <time>2020-02-17T13:48:40.000Z</time>
      </trkpt>
      <trkpt lat="44.57713" lon="6.85023">
        <ele>2678.6000976562</ele>
        <time>2020-02-17T13:48:42.000Z</time>
      </trkpt>
      <trkpt lat="44.57712" lon="6.85022">
        <ele>2678.6000976562</ele>
        <time>2020-02-17T13:48:45.000Z</time>
      </trkpt>
      <trkpt lat="44.57712" lon="6.85023">
        <ele>2679</ele>
        <time>2020-02-17T13:48:53.000Z</time>
      </trkpt>
      <trkpt lat="44.57712" lon="6.85023">
        <ele>2677.6000976562</ele>
        <time>2020-02-17T13:49:09.000Z</time>
      </trkpt>
      <trkpt lat="44.57713" lon="6.85022">
        <ele>2677.6000976562</ele>
        <time>2020-02-17T13:49:29.000Z</time>
      </trkpt>
      <trkpt lat="44.57712" lon="6.85023">
        <ele>2677.8000488281</ele>
        <time>2020-02-17T13:49:34.000Z</time>
      </trkpt>
      <trkpt lat="44.57709" lon="6.85024">
        <ele>2677.8000488281</ele>
        <time>2020-02-17T13:49:43.000Z</time>
      </trkpt>
      <trkpt lat="44.57709" lon="6.85024">
        <ele>2677.8000488281</ele>
        <time>2020-02-17T13:49:45.000Z</time>
      </trkpt>
      <trkpt lat="44.5771" lon="6.85024">
        <ele>2678</ele>
        <time>2020-02-17T13:49:48.000Z</time>
      </trkpt>
      <trkpt lat="44.57712" lon="6.85023">
        <ele>2678</ele>
        <time>2020-02-17T13:49:54.000Z</time>
      </trkpt>
      <trkpt lat="44.57713" lon="6.8502">
        <ele>2678</ele>
        <time>2020-02-17T13:50:10.000Z</time>
      </trkpt>
      <trkpt lat="44.57714" lon="6.85009">
        <ele>2678.1999511719</ele>
        <time>2020-02-17T13:50:25.000Z</time>
      </trkpt>
      <trkpt lat="44.5771" lon="6.85022">
        <ele>2677.8000488281</ele>
        <time>2020-02-17T13:50:57.000Z</time>
      </trkpt>
      <trkpt lat="44.5771" lon="6.85022">
        <ele>2677.8000488281</ele>
        <time>2020-02-17T13:51:00.000Z</time>
      </trkpt>
      <trkpt lat="44.57714" lon="6.8502">
        <ele>2677.8000488281</ele>
        <time>2020-02-17T13:51:07.000Z</time>
      </trkpt>
      <trkpt lat="44.57714" lon="6.85008">
        <ele>2677.8000488281</ele>
        <time>2020-02-17T13:51:14.000Z</time>
      </trkpt>
      <trkpt lat="44.57717" lon="6.85008">
        <ele>2677.8000488281</ele>
        <time>2020-02-17T13:51:16.000Z</time>
      </trkpt>
      <trkpt lat="44.5772" lon="6.85008">
        <ele>2675.3999023438</ele>
        <time>2020-02-17T13:51:17.000Z</time>
      </trkpt>
      <trkpt lat="44.57722" lon="6.85006">
        <ele>2673.6000976562</ele>
        <time>2020-02-17T13:51:18.000Z</time>
      </trkpt>
      <trkpt lat="44.57723" lon="6.85003">
        <ele>2671</ele>
        <time>2020-02-17T13:51:19.000Z</time>
      </trkpt>
      <trkpt lat="44.57722" lon="6.85">
        <ele>2670.8000488281</ele>
        <time>2020-02-17T13:51:20.000Z</time>
      </trkpt>
      <trkpt lat="44.57719" lon="6.84993">
        <ele>2669.1999511719</ele>
        <time>2020-02-17T13:51:22.000Z</time>
      </trkpt>
      <trkpt lat="44.57719" lon="6.84986">
        <ele>2667.8000488281</ele>
        <time>2020-02-17T13:51:26.000Z</time>
      </trkpt>
      <trkpt lat="44.57726" lon="6.84984">
        <ele>2665.6000976562</ele>
        <time>2020-02-17T13:51:28.000Z</time>
      </trkpt>
      <trkpt lat="44.57731" lon="6.84981">
        <ele>2664.1999511719</ele>
        <time>2020-02-17T13:51:30.000Z</time>
      </trkpt>
      <trkpt lat="44.57731" lon="6.84974">
        <ele>2662.8000488281</ele>
        <time>2020-02-17T13:51:32.000Z</time>
      </trkpt>
      <trkpt lat="44.5773" lon="6.84968">
        <ele>2662.1999511719</ele>
        <time>2020-02-17T13:51:33.000Z</time>
      </trkpt>
      <trkpt lat="44.57731" lon="6.84965">
        <ele>2661.3999023438</ele>
        <time>2020-02-17T13:51:34.000Z</time>
      </trkpt>
      <trkpt lat="44.57735" lon="6.84963">
        <ele>2659.3999023438</ele>
        <time>2020-02-17T13:51:36.000Z</time>
      </trkpt>
      <trkpt lat="44.57738" lon="6.84961">
        <ele>2658.1999511719</ele>
        <time>2020-02-17T13:51:37.000Z</time>
      </trkpt>
      <trkpt lat="44.57739" lon="6.84953">
        <ele>2656.8000488281</ele>
        <time>2020-02-17T13:51:39.000Z</time>
      </trkpt>
      <trkpt lat="44.57735" lon="6.84945">
        <ele>2655.3999023438</ele>
        <time>2020-02-17T13:51:41.000Z</time>
      </trkpt>
      <trkpt lat="44.57733" lon="6.8494">
        <ele>2653.8000488281</ele>
        <time>2020-02-17T13:51:43.000Z</time>
      </trkpt>
      <trkpt lat="44.57728" lon="6.84936">
        <ele>2652.3999023438</ele>
        <time>2020-02-17T13:51:45.000Z</time>
      </trkpt>
      <trkpt lat="44.57731" lon="6.84934">
        <ele>2651.6000976562</ele>
        <time>2020-02-17T13:51:47.000Z</time>
      </trkpt>
      <trkpt lat="44.57734" lon="6.84935">
        <ele>2651</ele>
        <time>2020-02-17T13:51:48.000Z</time>
      </trkpt>
      <trkpt lat="44.57736" lon="6.84937">
        <ele>2649.1999511719</ele>
        <time>2020-02-17T13:51:50.000Z</time>
      </trkpt>
      <trkpt lat="44.57737" lon="6.84936">
        <ele>2648.3999023438</ele>
        <time>2020-02-17T13:51:51.000Z</time>
      </trkpt>
      <trkpt lat="44.57739" lon="6.84935">
        <ele>2647.8000488281</ele>
        <time>2020-02-17T13:51:52.000Z</time>
      </trkpt>
      <trkpt lat="44.57741" lon="6.84931">
        <ele>2647.1999511719</ele>
        <time>2020-02-17T13:51:54.000Z</time>
      </trkpt>
      <trkpt lat="44.5774" lon="6.84924">
        <ele>2646.3999023438</ele>
        <time>2020-02-17T13:51:56.000Z</time>
      </trkpt>
      <trkpt lat="44.5774" lon="6.84917">
        <ele>2644.8000488281</ele>
        <time>2020-02-17T13:51:58.000Z</time>
      </trkpt>
      <trkpt lat="44.57739" lon="6.84909">
        <ele>2550</ele>
        <time>2020-02-17T13:52:00.000Z</time>
      </trkpt>
      <trkpt lat="44.57738" lon="6.84903">
        <ele>2550</ele>
        <time>2020-02-17T13:52:01.000Z</time>
      </trkpt>
      <trkpt lat="44.57739" lon="6.84901">
        <ele>2550</ele>
        <time>2020-02-17T13:52:02.000Z</time>
      </trkpt>
      <trkpt lat="44.5774" lon="6.849">
        <ele>2550</ele>
        <time>2020-02-17T13:52:04.000Z</time>
      </trkpt>
      <trkpt lat="44.57739" lon="6.84901">
        <ele>2550</ele>
        <time>2020-02-17T13:52:05.000Z</time>
      </trkpt>
      <trkpt lat="44.57738" lon="6.84902">
        <ele>2550</ele>
        <time>2020-02-17T13:52:06.000Z</time>
      </trkpt>
      <trkpt lat="44.57738" lon="6.84903">
        <ele>2550</ele>
        <time>2020-02-17T13:52:08.000Z</time>
      </trkpt>
      <trkpt lat="44.57736" lon="6.84908">
        <ele>2550</ele>
        <time>2020-02-17T13:52:19.000Z</time>
      </trkpt>
      <trkpt lat="44.57734" lon="6.8491">
        <ele>2550</ele>
        <time>2020-02-17T13:52:24.000Z</time>
      </trkpt>
      <trkpt lat="44.57734" lon="6.84909">
        <ele>2550</ele>
        <time>2020-02-17T13:52:31.000Z</time>
      </trkpt>
      <trkpt lat="44.57745" lon="6.84902">
        <ele>2550</ele>
        <time>2020-02-17T13:52:42.000Z</time>
      </trkpt>
      <trkpt lat="44.57749" lon="6.84901">
        <ele>2550</ele>
        <time>2020-02-17T13:52:47.000Z</time>
      </trkpt>
      <trkpt lat="44.5775" lon="6.84901">
        <ele>2545</ele>
        <time>2020-02-17T13:52:54.000Z</time>
      </trkpt>
      <trkpt lat="44.57754" lon="6.849">
        <ele>2545</ele>
        <time>2020-02-17T13:52:59.000Z</time>
      </trkpt>
      <trkpt lat="44.57757" lon="6.849">
        <ele>2545</ele>
        <time>2020-02-17T13:53:01.000Z</time>
      </trkpt>
      <trkpt lat="44.57761" lon="6.84901">
        <ele>2545</ele>
        <time>2020-02-17T13:53:04.000Z</time>
      </trkpt>
      <trkpt lat="44.57762" lon="6.84901">
        <ele>2545</ele>
        <time>2020-02-17T13:53:06.000Z</time>
      </trkpt>
      <trkpt lat="44.57764" lon="6.84902">
        <ele>2545</ele>
        <time>2020-02-17T13:53:09.000Z</time>
      </trkpt>
      <trkpt lat="44.57765" lon="6.84899">
        <ele>2545</ele>
        <time>2020-02-17T13:53:10.000Z</time>
      </trkpt>
      <trkpt lat="44.57763" lon="6.84896">
        <ele>2545</ele>
        <time>2020-02-17T13:53:11.000Z</time>
      </trkpt>
      <trkpt lat="44.57763" lon="6.84892">
        <ele>2544</ele>
        <time>2020-02-17T13:53:12.000Z</time>
      </trkpt>
      <trkpt lat="44.57766" lon="6.84891">
        <ele>2544</ele>
        <time>2020-02-17T13:53:14.000Z</time>
      </trkpt>
      <trkpt lat="44.57767" lon="6.84892">
        <ele>2544</ele>
        <time>2020-02-17T13:53:16.000Z</time>
      </trkpt>
      <trkpt lat="44.57768" lon="6.84892">
        <ele>2544</ele>
        <time>2020-02-17T13:53:17.000Z</time>
      </trkpt>
      <trkpt lat="44.5777" lon="6.84891">
        <ele>2544</ele>
        <time>2020-02-17T13:53:19.000Z</time>
      </trkpt>
      <trkpt lat="44.57773" lon="6.84891">
        <ele>2544</ele>
        <time>2020-02-17T13:53:21.000Z</time>
      </trkpt>
      <trkpt lat="44.57776" lon="6.8489">
        <ele>2544</ele>
        <time>2020-02-17T13:53:23.000Z</time>
      </trkpt>
      <trkpt lat="44.57778" lon="6.84891">
        <ele>2544</ele>
        <time>2020-02-17T13:53:25.000Z</time>
      </trkpt>
      <trkpt lat="44.57785" lon="6.84887">
        <ele>2544</ele>
        <time>2020-02-17T13:53:28.000Z</time>
      </trkpt>
      <trkpt lat="44.57788" lon="6.84886">
        <ele>2544</ele>
        <time>2020-02-17T13:53:31.000Z</time>
      </trkpt>
      <trkpt lat="44.57791" lon="6.84885">
        <ele>2544</ele>
        <time>2020-02-17T13:53:34.000Z</time>
      </trkpt>
      <trkpt lat="44.57795" lon="6.84884">
        <ele>2543</ele>
        <time>2020-02-17T13:53:36.000Z</time>
      </trkpt>
      <trkpt lat="44.57802" lon="6.84883">
        <ele>2543</ele>
        <time>2020-02-17T13:53:40.000Z</time>
      </trkpt>
      <trkpt lat="44.57805" lon="6.84884">
        <ele>2543</ele>
        <time>2020-02-17T13:53:42.000Z</time>
      </trkpt>
      <trkpt lat="44.57803" lon="6.84886">
        <ele>2544</ele>
        <time>2020-02-17T13:53:43.000Z</time>
      </trkpt>
      <trkpt lat="44.57802" lon="6.84886">
        <ele>2544</ele>
        <time>2020-02-17T13:53:44.000Z</time>
      </trkpt>
      <trkpt lat="44.57801" lon="6.84885">
        <ele>2544</ele>
        <time>2020-02-17T13:53:55.000Z</time>
      </trkpt>
      <trkpt lat="44.57798" lon="6.84878">
        <ele>2543</ele>
        <time>2020-02-17T13:54:03.000Z</time>
      </trkpt>
      <trkpt lat="44.57796" lon="6.84879">
        <ele>2543</ele>
        <time>2020-02-17T13:54:07.000Z</time>
      </trkpt>
      <trkpt lat="44.57794" lon="6.8487">
        <ele>2542</ele>
        <time>2020-02-17T13:54:13.000Z</time>
      </trkpt>
      <trkpt lat="44.57794" lon="6.84866">
        <ele>2542</ele>
        <time>2020-02-17T13:54:16.000Z</time>
      </trkpt>
      <trkpt lat="44.57795" lon="6.84858">
        <ele>2541</ele>
        <time>2020-02-17T13:54:20.000Z</time>
      </trkpt>
      <trkpt lat="44.57799" lon="6.8485">
        <ele>2539</ele>
        <time>2020-02-17T13:54:23.000Z</time>
      </trkpt>
      <trkpt lat="44.57801" lon="6.84851">
        <ele>2539</ele>
        <time>2020-02-17T13:54:24.000Z</time>
      </trkpt>
      <trkpt lat="44.57804" lon="6.84852">
        <ele>2538</ele>
        <time>2020-02-17T13:54:25.000Z</time>
      </trkpt>
      <trkpt lat="44.57807" lon="6.84853">
        <ele>2538</ele>
        <time>2020-02-17T13:54:26.000Z</time>
      </trkpt>
      <trkpt lat="44.57809" lon="6.84853">
        <ele>2537</ele>
        <time>2020-02-17T13:54:27.000Z</time>
      </trkpt>
      <trkpt lat="44.5781" lon="6.84848">
        <ele>2536</ele>
        <time>2020-02-17T13:54:29.000Z</time>
      </trkpt>
      <trkpt lat="44.57809" lon="6.8484">
        <ele>2535</ele>
        <time>2020-02-17T13:54:31.000Z</time>
      </trkpt>
      <trkpt lat="44.57811" lon="6.84839">
        <ele>2535</ele>
        <time>2020-02-17T13:54:33.000Z</time>
      </trkpt>
      <trkpt lat="44.57809" lon="6.84839">
        <ele>2535</ele>
        <time>2020-02-17T13:54:34.000Z</time>
      </trkpt>
      <trkpt lat="44.57809" lon="6.84839">
        <ele>2535</ele>
        <time>2020-02-17T13:54:35.000Z</time>
      </trkpt>
      <trkpt lat="44.57808" lon="6.8484">
        <ele>2536</ele>
        <time>2020-02-17T13:54:37.000Z</time>
      </trkpt>
      <trkpt lat="44.57812" lon="6.84839">
        <ele>2534</ele>
        <time>2020-02-17T13:54:41.000Z</time>
      </trkpt>
      <trkpt lat="44.57813" lon="6.84834">
        <ele>2533</ele>
        <time>2020-02-17T13:54:43.000Z</time>
      </trkpt>
      <trkpt lat="44.57816" lon="6.84826">
        <ele>2525</ele>
        <time>2020-02-17T13:54:45.000Z</time>
      </trkpt>
      <trkpt lat="44.57822" lon="6.84824">
        <ele>2524</ele>
        <time>2020-02-17T13:54:47.000Z</time>
      </trkpt>
      <trkpt lat="44.57824" lon="6.84824">
        <ele>2524</ele>
        <time>2020-02-17T13:54:48.000Z</time>
      </trkpt>
      <trkpt lat="44.57825" lon="6.84824">
        <ele>2524</ele>
        <time>2020-02-17T13:54:50.000Z</time>
      </trkpt>
      <trkpt lat="44.5783" lon="6.84823">
        <ele>2524</ele>
        <time>2020-02-17T13:54:52.000Z</time>
      </trkpt>
      <trkpt lat="44.57835" lon="6.84818">
        <ele>2521</ele>
        <time>2020-02-17T13:54:55.000Z</time>
      </trkpt>
      <trkpt lat="44.57834" lon="6.84811">
        <ele>2519</ele>
        <time>2020-02-17T13:54:57.000Z</time>
      </trkpt>
      <trkpt lat="44.57833" lon="6.84811">
        <ele>2523</ele>
        <time>2020-02-17T13:54:59.000Z</time>
      </trkpt>
      <trkpt lat="44.57836" lon="6.84807">
        <ele>2519</ele>
        <time>2020-02-17T13:55:01.000Z</time>
      </trkpt>
      <trkpt lat="44.57842" lon="6.84806">
        <ele>2519</ele>
        <time>2020-02-17T13:55:03.000Z</time>
      </trkpt>
      <trkpt lat="44.57844" lon="6.84805">
        <ele>2519</ele>
        <time>2020-02-17T13:55:04.000Z</time>
      </trkpt>
      <trkpt lat="44.57846" lon="6.84804">
        <ele>2518</ele>
        <time>2020-02-17T13:55:05.000Z</time>
      </trkpt>
      <trkpt lat="44.57847" lon="6.84801">
        <ele>2518</ele>
        <time>2020-02-17T13:55:06.000Z</time>
      </trkpt>
      <trkpt lat="44.57847" lon="6.84799">
        <ele>2517</ele>
        <time>2020-02-17T13:55:07.000Z</time>
      </trkpt>
      <trkpt lat="44.57846" lon="6.84795">
        <ele>2517</ele>
        <time>2020-02-17T13:55:08.000Z</time>
      </trkpt>
      <trkpt lat="44.57846" lon="6.8479">
        <ele>2516</ele>
        <time>2020-02-17T13:55:09.000Z</time>
      </trkpt>
      <trkpt lat="44.57847" lon="6.84787">
        <ele>2515</ele>
        <time>2020-02-17T13:55:10.000Z</time>
      </trkpt>
      <trkpt lat="44.57848" lon="6.84786">
        <ele>2515</ele>
        <time>2020-02-17T13:55:11.000Z</time>
      </trkpt>
      <trkpt lat="44.57848" lon="6.84786">
        <ele>2515</ele>
        <time>2020-02-17T13:55:12.000Z</time>
      </trkpt>
      <trkpt lat="44.57847" lon="6.84787">
        <ele>2515</ele>
        <time>2020-02-17T13:55:14.000Z</time>
      </trkpt>
      <trkpt lat="44.57846" lon="6.84786">
        <ele>2515</ele>
        <time>2020-02-17T13:55:19.000Z</time>
      </trkpt>
      <trkpt lat="44.57845" lon="6.84786">
        <ele>2515</ele>
        <time>2020-02-17T13:55:23.000Z</time>
      </trkpt>
      <trkpt lat="44.57846" lon="6.84787">
        <ele>2515</ele>
        <time>2020-02-17T13:55:32.000Z</time>
      </trkpt>
      <trkpt lat="44.57846" lon="6.84787">
        <ele>2515</ele>
        <time>2020-02-17T13:55:35.000Z</time>
      </trkpt>
      <trkpt lat="44.57846" lon="6.84787">
        <ele>2515</ele>
        <time>2020-02-17T13:55:40.000Z</time>
      </trkpt>
      <trkpt lat="44.57846" lon="6.84783">
        <ele>2514</ele>
        <time>2020-02-17T13:55:55.000Z</time>
      </trkpt>
      <trkpt lat="44.57847" lon="6.84773">
        <ele>2511</ele>
        <time>2020-02-17T13:56:01.000Z</time>
      </trkpt>
      <trkpt lat="44.57849" lon="6.84763">
        <ele>2509</ele>
        <time>2020-02-17T13:56:03.000Z</time>
      </trkpt>
      <trkpt lat="44.57853" lon="6.84755">
        <ele>2509</ele>
        <time>2020-02-17T13:56:05.000Z</time>
      </trkpt>
      <trkpt lat="44.57852" lon="6.84751">
        <ele>2508</ele>
        <time>2020-02-17T13:56:06.000Z</time>
      </trkpt>
      <trkpt lat="44.57852" lon="6.84746">
        <ele>2496</ele>
        <time>2020-02-17T13:56:07.000Z</time>
      </trkpt>
      <trkpt lat="44.57856" lon="6.84738">
        <ele>2495</ele>
        <time>2020-02-17T13:56:09.000Z</time>
      </trkpt>
      <trkpt lat="44.57856" lon="6.84734">
        <ele>2495</ele>
        <time>2020-02-17T13:56:10.000Z</time>
      </trkpt>
      <trkpt lat="44.57853" lon="6.84731">
        <ele>2495</ele>
        <time>2020-02-17T13:56:11.000Z</time>
      </trkpt>
      <trkpt lat="44.57852" lon="6.84727">
        <ele>2494</ele>
        <time>2020-02-17T13:56:12.000Z</time>
      </trkpt>
      <trkpt lat="44.57854" lon="6.84722">
        <ele>2494</ele>
        <time>2020-02-17T13:56:13.000Z</time>
      </trkpt>
      <trkpt lat="44.57855" lon="6.84713">
        <ele>2492</ele>
        <time>2020-02-17T13:56:15.000Z</time>
      </trkpt>
      <trkpt lat="44.57854" lon="6.84708">
        <ele>2492</ele>
        <time>2020-02-17T13:56:16.000Z</time>
      </trkpt>
      <trkpt lat="44.57849" lon="6.84704">
        <ele>2491</ele>
        <time>2020-02-17T13:56:17.000Z</time>
      </trkpt>
      <trkpt lat="44.57847" lon="6.84699">
        <ele>2490</ele>
        <time>2020-02-17T13:56:18.000Z</time>
      </trkpt>
      <trkpt lat="44.57853" lon="6.84691">
        <ele>2489</ele>
        <time>2020-02-17T13:56:20.000Z</time>
      </trkpt>
      <trkpt lat="44.57856" lon="6.84687">
        <ele>2489</ele>
        <time>2020-02-17T13:56:21.000Z</time>
      </trkpt>
      <trkpt lat="44.57857" lon="6.84682">
        <ele>2488</ele>
        <time>2020-02-17T13:56:22.000Z</time>
      </trkpt>
      <trkpt lat="44.57857" lon="6.84677">
        <ele>2487</ele>
        <time>2020-02-17T13:56:23.000Z</time>
      </trkpt>
      <trkpt lat="44.57855" lon="6.84673">
        <ele>2487</ele>
        <time>2020-02-17T13:56:24.000Z</time>
      </trkpt>
      <trkpt lat="44.57854" lon="6.84668">
        <ele>2486</ele>
        <time>2020-02-17T13:56:25.000Z</time>
      </trkpt>
      <trkpt lat="44.57854" lon="6.84664">
        <ele>2476</ele>
        <time>2020-02-17T13:56:26.000Z</time>
      </trkpt>
      <trkpt lat="44.57857" lon="6.84662">
        <ele>2476</ele>
        <time>2020-02-17T13:56:28.000Z</time>
      </trkpt>
      <trkpt lat="44.57862" lon="6.84663">
        <ele>2476</ele>
        <time>2020-02-17T13:56:30.000Z</time>
      </trkpt>
      <trkpt lat="44.57862" lon="6.84664">
        <ele>2476</ele>
        <time>2020-02-17T13:56:32.000Z</time>
      </trkpt>
      <trkpt lat="44.57864" lon="6.84664">
        <ele>2476</ele>
        <time>2020-02-17T13:56:36.000Z</time>
      </trkpt>
      <trkpt lat="44.5787" lon="6.8466">
        <ele>2475</ele>
        <time>2020-02-17T13:56:39.000Z</time>
      </trkpt>
      <trkpt lat="44.57874" lon="6.84647">
        <ele>2475</ele>
        <time>2020-02-17T13:56:42.000Z</time>
      </trkpt>
      <trkpt lat="44.57873" lon="6.84645">
        <ele>2474</ele>
        <time>2020-02-17T13:56:43.000Z</time>
      </trkpt>
      <trkpt lat="44.5787" lon="6.84641">
        <ele>2474</ele>
        <time>2020-02-17T13:56:45.000Z</time>
      </trkpt>
      <trkpt lat="44.57866" lon="6.84638">
        <ele>2474</ele>
        <time>2020-02-17T13:56:47.000Z</time>
      </trkpt>
      <trkpt lat="44.57864" lon="6.84632">
        <ele>2473</ele>
        <time>2020-02-17T13:56:49.000Z</time>
      </trkpt>
      <trkpt lat="44.57868" lon="6.84627">
        <ele>2473</ele>
        <time>2020-02-17T13:56:51.000Z</time>
      </trkpt>
      <trkpt lat="44.57875" lon="6.84621">
        <ele>2472</ele>
        <time>2020-02-17T13:56:53.000Z</time>
      </trkpt>
      <trkpt lat="44.57879" lon="6.84617">
        <ele>2471</ele>
        <time>2020-02-17T13:56:55.000Z</time>
      </trkpt>
      <trkpt lat="44.57879" lon="6.84611">
        <ele>2471</ele>
        <time>2020-02-17T13:56:57.000Z</time>
      </trkpt>
      <trkpt lat="44.57876" lon="6.84603">
        <ele>2470</ele>
        <time>2020-02-17T13:56:59.000Z</time>
      </trkpt>
      <trkpt lat="44.57875" lon="6.84589">
        <ele>2469</ele>
        <time>2020-02-17T13:57:01.000Z</time>
      </trkpt>
      <trkpt lat="44.57873" lon="6.84579">
        <ele>2458</ele>
        <time>2020-02-17T13:57:03.000Z</time>
      </trkpt>
      <trkpt lat="44.57872" lon="6.84571">
        <ele>2458</ele>
        <time>2020-02-17T13:57:05.000Z</time>
      </trkpt>
      <trkpt lat="44.57869" lon="6.84566">
        <ele>2458</ele>
        <time>2020-02-17T13:57:07.000Z</time>
      </trkpt>
      <trkpt lat="44.57871" lon="6.8456">
        <ele>2457</ele>
        <time>2020-02-17T13:57:09.000Z</time>
      </trkpt>
      <trkpt lat="44.57871" lon="6.8456">
        <ele>2457</ele>
        <time>2020-02-17T13:57:10.000Z</time>
      </trkpt>
      <trkpt lat="44.57871" lon="6.84563">
        <ele>2458</ele>
        <time>2020-02-17T13:57:11.000Z</time>
      </trkpt>
      <trkpt lat="44.57876" lon="6.84563">
        <ele>2457</ele>
        <time>2020-02-17T13:57:13.000Z</time>
      </trkpt>
      <trkpt lat="44.5788" lon="6.84561">
        <ele>2457</ele>
        <time>2020-02-17T13:57:15.000Z</time>
      </trkpt>
      <trkpt lat="44.57881" lon="6.84561">
        <ele>2456</ele>
        <time>2020-02-17T13:57:16.000Z</time>
      </trkpt>
      <trkpt lat="44.57883" lon="6.84559">
        <ele>2456</ele>
        <time>2020-02-17T13:57:20.000Z</time>
      </trkpt>
      <trkpt lat="44.57883" lon="6.84557">
        <ele>2456</ele>
        <time>2020-02-17T13:57:31.000Z</time>
      </trkpt>
      <trkpt lat="44.57886" lon="6.84548">
        <ele>2455</ele>
        <time>2020-02-17T13:57:49.000Z</time>
      </trkpt>
      <trkpt lat="44.57889" lon="6.84546">
        <ele>2454</ele>
        <time>2020-02-17T13:57:50.000Z</time>
      </trkpt>
      <trkpt lat="44.57891" lon="6.84541">
        <ele>2453</ele>
        <time>2020-02-17T13:57:52.000Z</time>
      </trkpt>
      <trkpt lat="44.57891" lon="6.8454">
        <ele>2453</ele>
        <time>2020-02-17T13:57:53.000Z</time>
      </trkpt>
      <trkpt lat="44.5789" lon="6.84541">
        <ele>2453</ele>
        <time>2020-02-17T13:57:54.000Z</time>
      </trkpt>
      <trkpt lat="44.57883" lon="6.84535">
        <ele>2453</ele>
        <time>2020-02-17T13:58:01.000Z</time>
      </trkpt>
      <trkpt lat="44.57878" lon="6.84533">
        <ele>2454</ele>
        <time>2020-02-17T13:58:05.000Z</time>
      </trkpt>
      <trkpt lat="44.57876" lon="6.8453">
        <ele>2454</ele>
        <time>2020-02-17T13:58:08.000Z</time>
      </trkpt>
      <trkpt lat="44.57876" lon="6.84525">
        <ele>2453</ele>
        <time>2020-02-17T13:58:11.000Z</time>
      </trkpt>
      <trkpt lat="44.57876" lon="6.84516">
        <ele>2452</ele>
        <time>2020-02-17T13:58:29.000Z</time>
      </trkpt>
      <trkpt lat="44.57871" lon="6.84508">
        <ele>2453</ele>
        <time>2020-02-17T13:58:31.000Z</time>
      </trkpt>
      <trkpt lat="44.57867" lon="6.84498">
        <ele>2445</ele>
        <time>2020-02-17T13:58:33.000Z</time>
      </trkpt>
      <trkpt lat="44.57865" lon="6.84485">
        <ele>2445</ele>
        <time>2020-02-17T13:58:35.000Z</time>
      </trkpt>
      <trkpt lat="44.57864" lon="6.84478">
        <ele>2444</ele>
        <time>2020-02-17T13:58:36.000Z</time>
      </trkpt>
      <trkpt lat="44.57863" lon="6.84472">
        <ele>2444</ele>
        <time>2020-02-17T13:58:37.000Z</time>
      </trkpt>
      <trkpt lat="44.57862" lon="6.84466">
        <ele>2444</ele>
        <time>2020-02-17T13:58:38.000Z</time>
      </trkpt>
      <trkpt lat="44.57862" lon="6.84461">
        <ele>2443</ele>
        <time>2020-02-17T13:58:39.000Z</time>
      </trkpt>
      <trkpt lat="44.57861" lon="6.84455">
        <ele>2443</ele>
        <time>2020-02-17T13:58:40.000Z</time>
      </trkpt>
      <trkpt lat="44.57861" lon="6.8445">
        <ele>2443</ele>
        <time>2020-02-17T13:58:41.000Z</time>
      </trkpt>
      <trkpt lat="44.57861" lon="6.84442">
        <ele>2443</ele>
        <time>2020-02-17T13:58:42.000Z</time>
      </trkpt>
      <trkpt lat="44.57862" lon="6.84431">
        <ele>2443</ele>
        <time>2020-02-17T13:58:44.000Z</time>
      </trkpt>
      <trkpt lat="44.57863" lon="6.84423">
        <ele>2442</ele>
        <time>2020-02-17T13:58:46.000Z</time>
      </trkpt>
      <trkpt lat="44.57862" lon="6.84419">
        <ele>2443</ele>
        <time>2020-02-17T13:58:49.000Z</time>
      </trkpt>
      <trkpt lat="44.57864" lon="6.84408">
        <ele>2439</ele>
        <time>2020-02-17T13:58:54.000Z</time>
      </trkpt>
      <trkpt lat="44.57871" lon="6.84386">
        <ele>2437</ele>
        <time>2020-02-17T13:58:59.000Z</time>
      </trkpt>
      <trkpt lat="44.57879" lon="6.84363">
        <ele>2435</ele>
        <time>2020-02-17T13:59:05.000Z</time>
      </trkpt>
      <trkpt lat="44.57885" lon="6.84348">
        <ele>2433</ele>
        <time>2020-02-17T13:59:10.000Z</time>
      </trkpt>
      <trkpt lat="44.57887" lon="6.84342">
        <ele>2431</ele>
        <time>2020-02-17T13:59:12.000Z</time>
      </trkpt>
      <trkpt lat="44.57893" lon="6.84328">
        <ele>2431</ele>
        <time>2020-02-17T13:59:16.000Z</time>
      </trkpt>
      <trkpt lat="44.57899" lon="6.84308">
        <ele>2432</ele>
        <time>2020-02-17T13:59:20.000Z</time>
      </trkpt>
      <trkpt lat="44.57903" lon="6.84291">
        <ele>2433</ele>
        <time>2020-02-17T13:59:24.000Z</time>
      </trkpt>
      <trkpt lat="44.5791" lon="6.84267">
        <ele>2429</ele>
        <time>2020-02-17T13:59:29.000Z</time>
      </trkpt>
      <trkpt lat="44.57913" lon="6.84255">
        <ele>2423</ele>
        <time>2020-02-17T13:59:33.000Z</time>
      </trkpt>
      <trkpt lat="44.57914" lon="6.84238">
        <ele>2427</ele>
        <time>2020-02-17T13:59:40.000Z</time>
      </trkpt>
      <trkpt lat="44.57915" lon="6.84228">
        <ele>2431</ele>
        <time>2020-02-17T13:59:43.000Z</time>
      </trkpt>
      <trkpt lat="44.57915" lon="6.84226">
        <ele>2432</ele>
        <time>2020-02-17T13:59:44.000Z</time>
      </trkpt>
      <trkpt lat="44.57915" lon="6.84224">
        <ele>2432</ele>
        <time>2020-02-17T13:59:45.000Z</time>
      </trkpt>
      <trkpt lat="44.57914" lon="6.84216">
        <ele>2434</ele>
        <time>2020-02-17T13:59:52.000Z</time>
      </trkpt>
      <trkpt lat="44.57913" lon="6.84215">
        <ele>2434</ele>
        <time>2020-02-17T13:59:53.000Z</time>
      </trkpt>
      <trkpt lat="44.57913" lon="6.84203">
        <ele>2434</ele>
        <time>2020-02-17T13:59:57.000Z</time>
      </trkpt>
      <trkpt lat="44.57916" lon="6.84188">
        <ele>2430</ele>
        <time>2020-02-17T14:00:01.000Z</time>
      </trkpt>
      <trkpt lat="44.57918" lon="6.84187">
        <ele>2409</ele>
        <time>2020-02-17T14:00:02.000Z</time>
      </trkpt>
      <trkpt lat="44.57924" lon="6.84188">
        <ele>2408</ele>
        <time>2020-02-17T14:00:04.000Z</time>
      </trkpt>
      <trkpt lat="44.57929" lon="6.84186">
        <ele>2408</ele>
        <time>2020-02-17T14:00:06.000Z</time>
      </trkpt>
      <trkpt lat="44.57931" lon="6.84181">
        <ele>2408</ele>
        <time>2020-02-17T14:00:07.000Z</time>
      </trkpt>
      <trkpt lat="44.57934" lon="6.84176">
        <ele>2408</ele>
        <time>2020-02-17T14:00:08.000Z</time>
      </trkpt>
      <trkpt lat="44.57938" lon="6.84175">
        <ele>2407</ele>
        <time>2020-02-17T14:00:09.000Z</time>
      </trkpt>
      <trkpt lat="44.5794" lon="6.84177">
        <ele>2406</ele>
        <time>2020-02-17T14:00:10.000Z</time>
      </trkpt>
      <trkpt lat="44.5794" lon="6.84182">
        <ele>2406</ele>
        <time>2020-02-17T14:00:11.000Z</time>
      </trkpt>
      <trkpt lat="44.57943" lon="6.84184">
        <ele>2406</ele>
        <time>2020-02-17T14:00:12.000Z</time>
      </trkpt>
      <trkpt lat="44.57946" lon="6.84183">
        <ele>2405</ele>
        <time>2020-02-17T14:00:13.000Z</time>
      </trkpt>
      <trkpt lat="44.57949" lon="6.84179">
        <ele>2404</ele>
        <time>2020-02-17T14:00:14.000Z</time>
      </trkpt>
      <trkpt lat="44.57951" lon="6.84174">
        <ele>2404</ele>
        <time>2020-02-17T14:00:15.000Z</time>
      </trkpt>
      <trkpt lat="44.57953" lon="6.8417">
        <ele>2403</ele>
        <time>2020-02-17T14:00:16.000Z</time>
      </trkpt>
      <trkpt lat="44.57954" lon="6.84166">
        <ele>2399</ele>
        <time>2020-02-17T14:00:17.000Z</time>
      </trkpt>
      <trkpt lat="44.57956" lon="6.84161">
        <ele>2398</ele>
        <time>2020-02-17T14:00:18.000Z</time>
      </trkpt>
      <trkpt lat="44.57958" lon="6.84157">
        <ele>2398</ele>
        <time>2020-02-17T14:00:19.000Z</time>
      </trkpt>
      <trkpt lat="44.57959" lon="6.84155">
        <ele>2397</ele>
        <time>2020-02-17T14:00:20.000Z</time>
      </trkpt>
      <trkpt lat="44.57959" lon="6.84155">
        <ele>2398</ele>
        <time>2020-02-17T14:00:21.000Z</time>
      </trkpt>
      <trkpt lat="44.57959" lon="6.84155">
        <ele>2398</ele>
        <time>2020-02-17T14:00:22.000Z</time>
      </trkpt>
      <trkpt lat="44.57958" lon="6.84156">
        <ele>2398</ele>
        <time>2020-02-17T14:00:23.000Z</time>
      </trkpt>
      <trkpt lat="44.57958" lon="6.84156">
        <ele>2398</ele>
        <time>2020-02-17T14:00:24.000Z</time>
      </trkpt>
      <trkpt lat="44.5796" lon="6.84154">
        <ele>2397</ele>
        <time>2020-02-17T14:00:29.000Z</time>
      </trkpt>
      <trkpt lat="44.57963" lon="6.8415">
        <ele>2396</ele>
        <time>2020-02-17T14:00:41.000Z</time>
      </trkpt>
      <trkpt lat="44.57963" lon="6.8415">
        <ele>2396</ele>
        <time>2020-02-17T14:00:42.000Z</time>
      </trkpt>
      <trkpt lat="44.57963" lon="6.84148">
        <ele>2396</ele>
        <time>2020-02-17T14:00:53.000Z</time>
      </trkpt>
      <trkpt lat="44.57963" lon="6.84147">
        <ele>2396</ele>
        <time>2020-02-17T14:01:02.000Z</time>
      </trkpt>
      <trkpt lat="44.57959" lon="6.84149">
        <ele>2397</ele>
        <time>2020-02-17T14:01:18.000Z</time>
      </trkpt>
      <trkpt lat="44.57952" lon="6.84156">
        <ele>2399</ele>
        <time>2020-02-17T14:01:35.000Z</time>
      </trkpt>
      <trkpt lat="44.57963" lon="6.84152">
        <ele>2396</ele>
        <time>2020-02-17T14:01:38.000Z</time>
      </trkpt>
      <trkpt lat="44.57965" lon="6.84155">
        <ele>2396</ele>
        <time>2020-02-17T14:01:41.000Z</time>
      </trkpt>
      <trkpt lat="44.57963" lon="6.84152">
        <ele>2396</ele>
        <time>2020-02-17T14:01:44.000Z</time>
      </trkpt>
      <trkpt lat="44.57958" lon="6.84152">
        <ele>2398</ele>
        <time>2020-02-17T14:01:50.000Z</time>
      </trkpt>
      <trkpt lat="44.57956" lon="6.84153">
        <ele>2398</ele>
        <time>2020-02-17T14:01:52.000Z</time>
      </trkpt>
      <trkpt lat="44.57956" lon="6.84154">
        <ele>2398</ele>
        <time>2020-02-17T14:01:57.000Z</time>
      </trkpt>
      <trkpt lat="44.57963" lon="6.84141">
        <ele>2396</ele>
        <time>2020-02-17T14:02:22.000Z</time>
      </trkpt>
      <trkpt lat="44.57967" lon="6.84111">
        <ele>2394</ele>
        <time>2020-02-17T14:02:33.000Z</time>
      </trkpt>
      <trkpt lat="44.57968" lon="6.84103">
        <ele>2393</ele>
        <time>2020-02-17T14:02:35.000Z</time>
      </trkpt>
      <trkpt lat="44.57968" lon="6.84086">
        <ele>2392</ele>
        <time>2020-02-17T14:02:41.000Z</time>
      </trkpt>
      <trkpt lat="44.57968" lon="6.84059">
        <ele>2390</ele>
        <time>2020-02-17T14:02:48.000Z</time>
      </trkpt>
      <trkpt lat="44.57967" lon="6.84043">
        <ele>2390</ele>
        <time>2020-02-17T14:02:51.000Z</time>
      </trkpt>
      <trkpt lat="44.57966" lon="6.8403">
        <ele>2390</ele>
        <time>2020-02-17T14:02:54.000Z</time>
      </trkpt>
      <trkpt lat="44.57964" lon="6.84018">
        <ele>2390</ele>
        <time>2020-02-17T14:02:57.000Z</time>
      </trkpt>
      <trkpt lat="44.57965" lon="6.84006">
        <ele>2389</ele>
        <time>2020-02-17T14:03:00.000Z</time>
      </trkpt>
      <trkpt lat="44.57966" lon="6.83995">
        <ele>2385</ele>
        <time>2020-02-17T14:03:03.000Z</time>
      </trkpt>
      <trkpt lat="44.57966" lon="6.83987">
        <ele>2386</ele>
        <time>2020-02-17T14:03:07.000Z</time>
      </trkpt>
      <trkpt lat="44.57965" lon="6.83976">
        <ele>2386</ele>
        <time>2020-02-17T14:03:11.000Z</time>
      </trkpt>
      <trkpt lat="44.57966" lon="6.83972">
        <ele>2386</ele>
        <time>2020-02-17T14:03:13.000Z</time>
      </trkpt>
      <trkpt lat="44.57963" lon="6.83968">
        <ele>2387</ele>
        <time>2020-02-17T14:03:25.000Z</time>
      </trkpt>
      <trkpt lat="44.57965" lon="6.8396">
        <ele>2387</ele>
        <time>2020-02-17T14:03:34.000Z</time>
      </trkpt>
      <trkpt lat="44.57965" lon="6.83956">
        <ele>2386</ele>
        <time>2020-02-17T14:03:36.000Z</time>
      </trkpt>
      <trkpt lat="44.57964" lon="6.83949">
        <ele>2386</ele>
        <time>2020-02-17T14:03:43.000Z</time>
      </trkpt>
      <trkpt lat="44.57963" lon="6.83948">
        <ele>2387</ele>
        <time>2020-02-17T14:04:02.000Z</time>
      </trkpt>
      <trkpt lat="44.57959" lon="6.83947">
        <ele>2388</ele>
        <time>2020-02-17T14:04:15.000Z</time>
      </trkpt>
      <trkpt lat="44.57956" lon="6.83954">
        <ele>2390</ele>
        <time>2020-02-17T14:04:32.000Z</time>
      </trkpt>
      <trkpt lat="44.57957" lon="6.83951">
        <ele>2390</ele>
        <time>2020-02-17T14:04:36.000Z</time>
      </trkpt>
      <trkpt lat="44.5796" lon="6.83942">
        <ele>2388</ele>
        <time>2020-02-17T14:04:44.000Z</time>
      </trkpt>
      <trkpt lat="44.57961" lon="6.83945">
        <ele>2388</ele>
        <time>2020-02-17T14:05:01.000Z</time>
      </trkpt>
      <trkpt lat="44.57959" lon="6.8394">
        <ele>2388</ele>
        <time>2020-02-17T14:05:08.000Z</time>
      </trkpt>
      <trkpt lat="44.57958" lon="6.83935">
        <ele>2389</ele>
        <time>2020-02-17T14:05:12.000Z</time>
      </trkpt>
      <trkpt lat="44.57956" lon="6.83921">
        <ele>2390</ele>
        <time>2020-02-17T14:05:15.000Z</time>
      </trkpt>
      <trkpt lat="44.57954" lon="6.83914">
        <ele>2392</ele>
        <time>2020-02-17T14:05:16.000Z</time>
      </trkpt>
      <trkpt lat="44.57954" lon="6.83905">
        <ele>2393</ele>
        <time>2020-02-17T14:05:17.000Z</time>
      </trkpt>
      <trkpt lat="44.57955" lon="6.83896">
        <ele>2392</ele>
        <time>2020-02-17T14:05:18.000Z</time>
      </trkpt>
      <trkpt lat="44.57957" lon="6.83886">
        <ele>2391</ele>
        <time>2020-02-17T14:05:19.000Z</time>
      </trkpt>
      <trkpt lat="44.57968" lon="6.83862">
        <ele>2387</ele>
        <time>2020-02-17T14:05:23.000Z</time>
      </trkpt>
      <trkpt lat="44.57978" lon="6.83848">
        <ele>2380</ele>
        <time>2020-02-17T14:05:26.000Z</time>
      </trkpt>
      <trkpt lat="44.57984" lon="6.83837">
        <ele>2373</ele>
        <time>2020-02-17T14:05:28.000Z</time>
      </trkpt>
      <trkpt lat="44.5799" lon="6.83827">
        <ele>2373</ele>
        <time>2020-02-17T14:05:30.000Z</time>
      </trkpt>
      <trkpt lat="44.57998" lon="6.83813">
        <ele>2380</ele>
        <time>2020-02-17T14:05:33.000Z</time>
      </trkpt>
      <trkpt lat="44.58005" lon="6.83797">
        <ele>2345</ele>
        <time>2020-02-17T14:05:40.000Z</time>
      </trkpt>
      <trkpt lat="44.58007" lon="6.83789">
        <ele>2344</ele>
        <time>2020-02-17T14:05:45.000Z</time>
      </trkpt>
      <trkpt lat="44.58008" lon="6.83781">
        <ele>2344</ele>
        <time>2020-02-17T14:05:49.000Z</time>
      </trkpt>
      <trkpt lat="44.58009" lon="6.83778">
        <ele>2345</ele>
        <time>2020-02-17T14:05:52.000Z</time>
      </trkpt>
      <trkpt lat="44.5801" lon="6.83778">
        <ele>2344</ele>
        <time>2020-02-17T14:05:55.000Z</time>
      </trkpt>
      <trkpt lat="44.5801" lon="6.83778">
        <ele>2344</ele>
        <time>2020-02-17T14:06:02.000Z</time>
      </trkpt>
      <trkpt lat="44.58012" lon="6.83777">
        <ele>2344</ele>
        <time>2020-02-17T14:06:14.000Z</time>
      </trkpt>
      <trkpt lat="44.58012" lon="6.83775">
        <ele>2344</ele>
        <time>2020-02-17T14:06:21.000Z</time>
      </trkpt>
      <trkpt lat="44.58012" lon="6.83775">
        <ele>2344</ele>
        <time>2020-02-17T14:06:28.000Z</time>
      </trkpt>
      <trkpt lat="44.58013" lon="6.83772">
        <ele>2345</ele>
        <time>2020-02-17T14:06:38.000Z</time>
      </trkpt>
      <trkpt lat="44.58013" lon="6.83767">
        <ele>2345</ele>
        <time>2020-02-17T14:06:41.000Z</time>
      </trkpt>
      <trkpt lat="44.58013" lon="6.83765">
        <ele>2345</ele>
        <time>2020-02-17T14:06:42.000Z</time>
      </trkpt>
      <trkpt lat="44.58013" lon="6.83761">
        <ele>2346</ele>
        <time>2020-02-17T14:06:44.000Z</time>
      </trkpt>
      <trkpt lat="44.58015" lon="6.83757">
        <ele>2346</ele>
        <time>2020-02-17T14:06:47.000Z</time>
      </trkpt>
      <trkpt lat="44.58015" lon="6.83756">
        <ele>2346</ele>
        <time>2020-02-17T14:06:49.000Z</time>
      </trkpt>
      <trkpt lat="44.58015" lon="6.83751">
        <ele>2346</ele>
        <time>2020-02-17T14:06:53.000Z</time>
      </trkpt>
      <trkpt lat="44.58015" lon="6.8375">
        <ele>2342</ele>
        <time>2020-02-17T14:06:54.000Z</time>
      </trkpt>
      <trkpt lat="44.58015" lon="6.83749">
        <ele>2341</ele>
        <time>2020-02-17T14:06:56.000Z</time>
      </trkpt>
      <trkpt lat="44.58015" lon="6.83749">
        <ele>2341</ele>
        <time>2020-02-17T14:06:57.000Z</time>
      </trkpt>
      <trkpt lat="44.58009" lon="6.83752">
        <ele>2348</ele>
        <time>2020-02-17T14:07:03.000Z</time>
      </trkpt>
      <trkpt lat="44.5801" lon="6.83749">
        <ele>2344</ele>
        <time>2020-02-17T14:07:05.000Z</time>
      </trkpt>
      <trkpt lat="44.58011" lon="6.83746">
        <ele>2343</ele>
        <time>2020-02-17T14:07:07.000Z</time>
      </trkpt>
      <trkpt lat="44.58011" lon="6.83741">
        <ele>2342</ele>
        <time>2020-02-17T14:07:09.000Z</time>
      </trkpt>
      <trkpt lat="44.58011" lon="6.83738">
        <ele>2341</ele>
        <time>2020-02-17T14:07:10.000Z</time>
      </trkpt>
      <trkpt lat="44.58011" lon="6.83723">
        <ele>2336</ele>
        <time>2020-02-17T14:07:15.000Z</time>
      </trkpt>
      <trkpt lat="44.5801" lon="6.83715">
        <ele>2334</ele>
        <time>2020-02-17T14:07:19.000Z</time>
      </trkpt>
      <trkpt lat="44.58007" lon="6.83705">
        <ele>2333</ele>
        <time>2020-02-17T14:07:24.000Z</time>
      </trkpt>
      <trkpt lat="44.58006" lon="6.83703">
        <ele>2333</ele>
        <time>2020-02-17T14:07:26.000Z</time>
      </trkpt>
      <trkpt lat="44.58005" lon="6.83697">
        <ele>2333</ele>
        <time>2020-02-17T14:07:29.000Z</time>
      </trkpt>
      <trkpt lat="44.58006" lon="6.83693">
        <ele>2332</ele>
        <time>2020-02-17T14:07:31.000Z</time>
      </trkpt>
      <trkpt lat="44.58009" lon="6.83695">
        <ele>2332</ele>
        <time>2020-02-17T14:07:33.000Z</time>
      </trkpt>
      <trkpt lat="44.58008" lon="6.83696">
        <ele>2332</ele>
        <time>2020-02-17T14:07:35.000Z</time>
      </trkpt>
      <trkpt lat="44.5801" lon="6.83696">
        <ele>2332</ele>
        <time>2020-02-17T14:07:37.000Z</time>
      </trkpt>
      <trkpt lat="44.58012" lon="6.83696">
        <ele>2332</ele>
        <time>2020-02-17T14:07:38.000Z</time>
      </trkpt>
      <trkpt lat="44.58013" lon="6.83696">
        <ele>2332</ele>
        <time>2020-02-17T14:07:39.000Z</time>
      </trkpt>
      <trkpt lat="44.58014" lon="6.83695">
        <ele>2332</ele>
        <time>2020-02-17T14:07:41.000Z</time>
      </trkpt>
      <trkpt lat="44.58018" lon="6.83691">
        <ele>2331</ele>
        <time>2020-02-17T14:07:45.000Z</time>
      </trkpt>
      <trkpt lat="44.5802" lon="6.83691">
        <ele>2331</ele>
        <time>2020-02-17T14:07:46.000Z</time>
      </trkpt>
      <trkpt lat="44.58022" lon="6.83694">
        <ele>2331</ele>
        <time>2020-02-17T14:07:47.000Z</time>
      </trkpt>
      <trkpt lat="44.58022" lon="6.83695">
        <ele>2331</ele>
        <time>2020-02-17T14:07:48.000Z</time>
      </trkpt>
      <trkpt lat="44.58023" lon="6.83695">
        <ele>2331</ele>
        <time>2020-02-17T14:07:49.000Z</time>
      </trkpt>
      <trkpt lat="44.58024" lon="6.83696">
        <ele>2330</ele>
        <time>2020-02-17T14:07:50.000Z</time>
      </trkpt>
      <trkpt lat="44.58026" lon="6.83697">
        <ele>2330</ele>
        <time>2020-02-17T14:07:52.000Z</time>
      </trkpt>
      <trkpt lat="44.58028" lon="6.83691">
        <ele>2329</ele>
        <time>2020-02-17T14:07:56.000Z</time>
      </trkpt>
      <trkpt lat="44.5803" lon="6.83689">
        <ele>2329</ele>
        <time>2020-02-17T14:07:57.000Z</time>
      </trkpt>
      <trkpt lat="44.58033" lon="6.83689">
        <ele>2329</ele>
        <time>2020-02-17T14:07:58.000Z</time>
      </trkpt>
      <trkpt lat="44.58035" lon="6.83693">
        <ele>2328</ele>
        <time>2020-02-17T14:08:00.000Z</time>
      </trkpt>
      <trkpt lat="44.58035" lon="6.83693">
        <ele>2329</ele>
        <time>2020-02-17T14:08:01.000Z</time>
      </trkpt>
      <trkpt lat="44.58034" lon="6.83694">
        <ele>2329</ele>
        <time>2020-02-17T14:08:02.000Z</time>
      </trkpt>
      <trkpt lat="44.58032" lon="6.83695">
        <ele>2329</ele>
        <time>2020-02-17T14:08:04.000Z</time>
      </trkpt>
      <trkpt lat="44.5803" lon="6.83696">
        <ele>2330</ele>
        <time>2020-02-17T14:08:06.000Z</time>
      </trkpt>
      <trkpt lat="44.58026" lon="6.83699">
        <ele>2330</ele>
        <time>2020-02-17T14:08:10.000Z</time>
      </trkpt>
      <trkpt lat="44.58027" lon="6.83698">
        <ele>2330</ele>
        <time>2020-02-17T14:08:12.000Z</time>
      </trkpt>
      <trkpt lat="44.58034" lon="6.83697">
        <ele>2329</ele>
        <time>2020-02-17T14:08:14.000Z</time>
      </trkpt>
      <trkpt lat="44.58036" lon="6.83694">
        <ele>2328</ele>
        <time>2020-02-17T14:08:15.000Z</time>
      </trkpt>
      <trkpt lat="44.58046" lon="6.83691">
        <ele>2326</ele>
        <time>2020-02-17T14:08:18.000Z</time>
      </trkpt>
      <trkpt lat="44.58047" lon="6.83689">
        <ele>2326</ele>
        <time>2020-02-17T14:08:19.000Z</time>
      </trkpt>
      <trkpt lat="44.58047" lon="6.83687">
        <ele>2326</ele>
        <time>2020-02-17T14:08:20.000Z</time>
      </trkpt>
      <trkpt lat="44.58048" lon="6.83686">
        <ele>2325</ele>
        <time>2020-02-17T14:08:21.000Z</time>
      </trkpt>
      <trkpt lat="44.58049" lon="6.83681">
        <ele>2325</ele>
        <time>2020-02-17T14:08:23.000Z</time>
      </trkpt>
      <trkpt lat="44.58052" lon="6.83677">
        <ele>2324</ele>
        <time>2020-02-17T14:08:24.000Z</time>
      </trkpt>
      <trkpt lat="44.58055" lon="6.83677">
        <ele>2323</ele>
        <time>2020-02-17T14:08:25.000Z</time>
      </trkpt>
      <trkpt lat="44.58062" lon="6.83678">
        <ele>2321</ele>
        <time>2020-02-17T14:08:27.000Z</time>
      </trkpt>
      <trkpt lat="44.58063" lon="6.83675">
        <ele>2320</ele>
        <time>2020-02-17T14:08:28.000Z</time>
      </trkpt>
      <trkpt lat="44.58066" lon="6.83671">
        <ele>2318</ele>
        <time>2020-02-17T14:08:29.000Z</time>
      </trkpt>
      <trkpt lat="44.5807" lon="6.83669">
        <ele>2316</ele>
        <time>2020-02-17T14:08:30.000Z</time>
      </trkpt>
      <trkpt lat="44.58074" lon="6.83668">
        <ele>2314</ele>
        <time>2020-02-17T14:08:31.000Z</time>
      </trkpt>
      <trkpt lat="44.58076" lon="6.83665">
        <ele>2311</ele>
        <time>2020-02-17T14:08:32.000Z</time>
      </trkpt>
      <trkpt lat="44.58078" lon="6.83662">
        <ele>2311</ele>
        <time>2020-02-17T14:08:33.000Z</time>
      </trkpt>
      <trkpt lat="44.58078" lon="6.83661">
        <ele>2311</ele>
        <time>2020-02-17T14:08:34.000Z</time>
      </trkpt>
      <trkpt lat="44.58078" lon="6.8366">
        <ele>2311</ele>
        <time>2020-02-17T14:08:35.000Z</time>
      </trkpt>
      <trkpt lat="44.58077" lon="6.83659">
        <ele>2312</ele>
        <time>2020-02-17T14:08:37.000Z</time>
      </trkpt>
      <trkpt lat="44.58077" lon="6.83656">
        <ele>2313</ele>
        <time>2020-02-17T14:08:45.000Z</time>
      </trkpt>
      <trkpt lat="44.5808" lon="6.83649">
        <ele>2314</ele>
        <time>2020-02-17T14:08:51.000Z</time>
      </trkpt>
      <trkpt lat="44.58081" lon="6.83647">
        <ele>2314</ele>
        <time>2020-02-17T14:09:00.000Z</time>
      </trkpt>
      <trkpt lat="44.58081" lon="6.83647">
        <ele>2314</ele>
        <time>2020-02-17T14:09:04.000Z</time>
      </trkpt>
      <trkpt lat="44.58079" lon="6.83647">
        <ele>2314</ele>
        <time>2020-02-17T14:09:09.000Z</time>
      </trkpt>
      <trkpt lat="44.58083" lon="6.83645">
        <ele>2298</ele>
        <time>2020-02-17T14:09:29.000Z</time>
      </trkpt>
      <trkpt lat="44.58086" lon="6.83641">
        <ele>2297</ele>
        <time>2020-02-17T14:09:33.000Z</time>
      </trkpt>
      <trkpt lat="44.58088" lon="6.83639">
        <ele>2296</ele>
        <time>2020-02-17T14:09:41.000Z</time>
      </trkpt>
      <trkpt lat="44.58089" lon="6.83639">
        <ele>2296</ele>
        <time>2020-02-17T14:09:42.000Z</time>
      </trkpt>
      <trkpt lat="44.58087" lon="6.83639">
        <ele>2297</ele>
        <time>2020-02-17T14:09:51.000Z</time>
      </trkpt>
      <trkpt lat="44.58087" lon="6.83639">
        <ele>2297</ele>
        <time>2020-02-17T14:09:52.000Z</time>
      </trkpt>
      <trkpt lat="44.58086" lon="6.8364">
        <ele>2297</ele>
        <time>2020-02-17T14:09:57.000Z</time>
      </trkpt>
      <trkpt lat="44.58085" lon="6.8364">
        <ele>2297</ele>
        <time>2020-02-17T14:10:06.000Z</time>
      </trkpt>
      <trkpt lat="44.58085" lon="6.8364">
        <ele>2297</ele>
        <time>2020-02-17T14:10:09.000Z</time>
      </trkpt>
      <trkpt lat="44.58085" lon="6.83641">
        <ele>2297</ele>
        <time>2020-02-17T14:10:13.000Z</time>
      </trkpt>
      <trkpt lat="44.58085" lon="6.83642">
        <ele>2297</ele>
        <time>2020-02-17T14:10:15.000Z</time>
      </trkpt>
      <trkpt lat="44.58085" lon="6.83642">
        <ele>2297</ele>
        <time>2020-02-17T14:10:18.000Z</time>
      </trkpt>
      <trkpt lat="44.58084" lon="6.83643">
        <ele>2297</ele>
        <time>2020-02-17T14:10:26.000Z</time>
      </trkpt>
      <trkpt lat="44.58085" lon="6.83639">
        <ele>2297</ele>
        <time>2020-02-17T14:10:28.000Z</time>
      </trkpt>
      <trkpt lat="44.58086" lon="6.83636">
        <ele>2296</ele>
        <time>2020-02-17T14:10:29.000Z</time>
      </trkpt>
      <trkpt lat="44.5809" lon="6.83624">
        <ele>2294</ele>
        <time>2020-02-17T14:10:32.000Z</time>
      </trkpt>
      <trkpt lat="44.58092" lon="6.83623">
        <ele>2294</ele>
        <time>2020-02-17T14:10:33.000Z</time>
      </trkpt>
      <trkpt lat="44.58097" lon="6.83619">
        <ele>2293</ele>
        <time>2020-02-17T14:10:35.000Z</time>
      </trkpt>
      <trkpt lat="44.581" lon="6.83614">
        <ele>2293</ele>
        <time>2020-02-17T14:10:37.000Z</time>
      </trkpt>
      <trkpt lat="44.58098" lon="6.8361">
        <ele>2293</ele>
        <time>2020-02-17T14:10:39.000Z</time>
      </trkpt>
      <trkpt lat="44.58096" lon="6.83608">
        <ele>2293</ele>
        <time>2020-02-17T14:10:42.000Z</time>
      </trkpt>
      <trkpt lat="44.58095" lon="6.83608">
        <ele>2294</ele>
        <time>2020-02-17T14:10:45.000Z</time>
      </trkpt>
      <trkpt lat="44.58089" lon="6.83602">
        <ele>2295</ele>
        <time>2020-02-17T14:11:08.000Z</time>
      </trkpt>
      <trkpt lat="44.58087" lon="6.83599">
        <ele>2295</ele>
        <time>2020-02-17T14:11:17.000Z</time>
      </trkpt>
      <trkpt lat="44.58085" lon="6.83594">
        <ele>2296</ele>
        <time>2020-02-17T14:11:20.000Z</time>
      </trkpt>
      <trkpt lat="44.58083" lon="6.83581">
        <ele>2301</ele>
        <time>2020-02-17T14:11:24.000Z</time>
      </trkpt>
      <trkpt lat="44.58088" lon="6.83578">
        <ele>2293</ele>
        <time>2020-02-17T14:11:26.000Z</time>
      </trkpt>
      <trkpt lat="44.5809" lon="6.83576">
        <ele>2291</ele>
        <time>2020-02-17T14:11:27.000Z</time>
      </trkpt>
      <trkpt lat="44.58092" lon="6.8357">
        <ele>2287</ele>
        <time>2020-02-17T14:11:29.000Z</time>
      </trkpt>
      <trkpt lat="44.58094" lon="6.83569">
        <ele>2286</ele>
        <time>2020-02-17T14:11:30.000Z</time>
      </trkpt>
      <trkpt lat="44.58096" lon="6.83566">
        <ele>2285</ele>
        <time>2020-02-17T14:11:31.000Z</time>
      </trkpt>
      <trkpt lat="44.58096" lon="6.83563">
        <ele>2284</ele>
        <time>2020-02-17T14:11:32.000Z</time>
      </trkpt>
      <trkpt lat="44.58095" lon="6.83561">
        <ele>2283</ele>
        <time>2020-02-17T14:11:33.000Z</time>
      </trkpt>
      <trkpt lat="44.58093" lon="6.83558">
        <ele>2283</ele>
        <time>2020-02-17T14:11:34.000Z</time>
      </trkpt>
      <trkpt lat="44.58093" lon="6.83556">
        <ele>2282</ele>
        <time>2020-02-17T14:11:35.000Z</time>
      </trkpt>
      <trkpt lat="44.58099" lon="6.83556">
        <ele>2281</ele>
        <time>2020-02-17T14:11:37.000Z</time>
      </trkpt>
      <trkpt lat="44.58101" lon="6.83555">
        <ele>2280</ele>
        <time>2020-02-17T14:11:38.000Z</time>
      </trkpt>
      <trkpt lat="44.58104" lon="6.83553">
        <ele>2279</ele>
        <time>2020-02-17T14:11:39.000Z</time>
      </trkpt>
      <trkpt lat="44.58104" lon="6.83549">
        <ele>2279</ele>
        <time>2020-02-17T14:11:40.000Z</time>
      </trkpt>
      <trkpt lat="44.58106" lon="6.83545">
        <ele>2278</ele>
        <time>2020-02-17T14:11:41.000Z</time>
      </trkpt>
      <trkpt lat="44.5811" lon="6.83543">
        <ele>2277</ele>
        <time>2020-02-17T14:11:42.000Z</time>
      </trkpt>
      <trkpt lat="44.58112" lon="6.83543">
        <ele>2276</ele>
        <time>2020-02-17T14:11:43.000Z</time>
      </trkpt>
      <trkpt lat="44.58114" lon="6.83543">
        <ele>2276</ele>
        <time>2020-02-17T14:11:44.000Z</time>
      </trkpt>
      <trkpt lat="44.58115" lon="6.83543">
        <ele>2275</ele>
        <time>2020-02-17T14:11:45.000Z</time>
      </trkpt>
      <trkpt lat="44.58116" lon="6.83541">
        <ele>2275</ele>
        <time>2020-02-17T14:11:46.000Z</time>
      </trkpt>
      <trkpt lat="44.58119" lon="6.83535">
        <ele>2274</ele>
        <time>2020-02-17T14:11:48.000Z</time>
      </trkpt>
      <trkpt lat="44.58124" lon="6.83535">
        <ele>2272</ele>
        <time>2020-02-17T14:11:50.000Z</time>
      </trkpt>
      <trkpt lat="44.58126" lon="6.83533">
        <ele>2272</ele>
        <time>2020-02-17T14:11:51.000Z</time>
      </trkpt>
      <trkpt lat="44.58127" lon="6.83531">
        <ele>2271</ele>
        <time>2020-02-17T14:11:52.000Z</time>
      </trkpt>
      <trkpt lat="44.58126" lon="6.83528">
        <ele>2271</ele>
        <time>2020-02-17T14:11:54.000Z</time>
      </trkpt>
      <trkpt lat="44.58126" lon="6.83527">
        <ele>2271</ele>
        <time>2020-02-17T14:11:56.000Z</time>
      </trkpt>
      <trkpt lat="44.58124" lon="6.83526">
        <ele>2271</ele>
        <time>2020-02-17T14:12:02.000Z</time>
      </trkpt>
      <trkpt lat="44.58131" lon="6.83515">
        <ele>2268</ele>
        <time>2020-02-17T14:12:29.000Z</time>
      </trkpt>
      <trkpt lat="44.58131" lon="6.83516">
        <ele>2268</ele>
        <time>2020-02-17T14:12:32.000Z</time>
      </trkpt>
      <trkpt lat="44.58129" lon="6.83516">
        <ele>2269</ele>
        <time>2020-02-17T14:12:35.000Z</time>
      </trkpt>
      <trkpt lat="44.58127" lon="6.83511">
        <ele>2269</ele>
        <time>2020-02-17T14:12:41.000Z</time>
      </trkpt>
      <trkpt lat="44.58129" lon="6.83506">
        <ele>2268</ele>
        <time>2020-02-17T14:12:46.000Z</time>
      </trkpt>
      <trkpt lat="44.58129" lon="6.83506">
        <ele>2268</ele>
        <time>2020-02-17T14:12:48.000Z</time>
      </trkpt>
      <trkpt lat="44.58126" lon="6.83506">
        <ele>2269</ele>
        <time>2020-02-17T14:12:56.000Z</time>
      </trkpt>
      <trkpt lat="44.58132" lon="6.83508">
        <ele>2266</ele>
        <time>2020-02-17T14:13:07.000Z</time>
      </trkpt>
      <trkpt lat="44.58129" lon="6.83505">
        <ele>2268</ele>
        <time>2020-02-17T14:13:15.000Z</time>
      </trkpt>
      <trkpt lat="44.58127" lon="6.83502">
        <ele>2268</ele>
        <time>2020-02-17T14:13:17.000Z</time>
      </trkpt>
      <trkpt lat="44.58127" lon="6.83502">
        <ele>2268</ele>
        <time>2020-02-17T14:13:19.000Z</time>
      </trkpt>
      <trkpt lat="44.58126" lon="6.83502">
        <ele>2269</ele>
        <time>2020-02-17T14:13:21.000Z</time>
      </trkpt>
      <trkpt lat="44.58128" lon="6.83493">
        <ele>2255</ele>
        <time>2020-02-17T14:13:37.000Z</time>
      </trkpt>
      <trkpt lat="44.58123" lon="6.83491">
        <ele>2257</ele>
        <time>2020-02-17T14:13:43.000Z</time>
      </trkpt>
      <trkpt lat="44.58118" lon="6.83485">
        <ele>2258</ele>
        <time>2020-02-17T14:13:47.000Z</time>
      </trkpt>
      <trkpt lat="44.58117" lon="6.83484">
        <ele>2259</ele>
        <time>2020-02-17T14:13:49.000Z</time>
      </trkpt>
      <trkpt lat="44.58117" lon="6.83484">
        <ele>2259</ele>
        <time>2020-02-17T14:13:51.000Z</time>
      </trkpt>
      <trkpt lat="44.58117" lon="6.83484">
        <ele>2258</ele>
        <time>2020-02-17T14:13:53.000Z</time>
      </trkpt>
      <trkpt lat="44.58119" lon="6.83481">
        <ele>2257</ele>
        <time>2020-02-17T14:13:56.000Z</time>
      </trkpt>
      <trkpt lat="44.58122" lon="6.83482">
        <ele>2256</ele>
        <time>2020-02-17T14:13:59.000Z</time>
      </trkpt>
      <trkpt lat="44.58123" lon="6.83482">
        <ele>2256</ele>
        <time>2020-02-17T14:14:00.000Z</time>
      </trkpt>
      <trkpt lat="44.58125" lon="6.83482">
        <ele>2255</ele>
        <time>2020-02-17T14:14:01.000Z</time>
      </trkpt>
      <trkpt lat="44.58127" lon="6.83476">
        <ele>2254</ele>
        <time>2020-02-17T14:14:04.000Z</time>
      </trkpt>
      <trkpt lat="44.58129" lon="6.83474">
        <ele>2253</ele>
        <time>2020-02-17T14:14:05.000Z</time>
      </trkpt>
      <trkpt lat="44.58131" lon="6.83473">
        <ele>2252</ele>
        <time>2020-02-17T14:14:06.000Z</time>
      </trkpt>
      <trkpt lat="44.58132" lon="6.83473">
        <ele>2252</ele>
        <time>2020-02-17T14:14:07.000Z</time>
      </trkpt>
      <trkpt lat="44.58132" lon="6.83472">
        <ele>2252</ele>
        <time>2020-02-17T14:14:08.000Z</time>
      </trkpt>
      <trkpt lat="44.58133" lon="6.83472">
        <ele>2252</ele>
        <time>2020-02-17T14:14:09.000Z</time>
      </trkpt>
      <trkpt lat="44.58134" lon="6.83472">
        <ele>2251</ele>
        <time>2020-02-17T14:14:11.000Z</time>
      </trkpt>
      <trkpt lat="44.58134" lon="6.83472">
        <ele>2251</ele>
        <time>2020-02-17T14:14:14.000Z</time>
      </trkpt>
      <trkpt lat="44.58137" lon="6.83469">
        <ele>2250</ele>
        <time>2020-02-17T14:14:17.000Z</time>
      </trkpt>
      <trkpt lat="44.58137" lon="6.83467">
        <ele>2250</ele>
        <time>2020-02-17T14:14:18.000Z</time>
      </trkpt>
      <trkpt lat="44.58139" lon="6.83464">
        <ele>2249</ele>
        <time>2020-02-17T14:14:21.000Z</time>
      </trkpt>
      <trkpt lat="44.58142" lon="6.83465">
        <ele>2248</ele>
        <time>2020-02-17T14:14:23.000Z</time>
      </trkpt>
      <trkpt lat="44.58143" lon="6.83467">
        <ele>2248</ele>
        <time>2020-02-17T14:14:24.000Z</time>
      </trkpt>
      <trkpt lat="44.58144" lon="6.83467">
        <ele>2248</ele>
        <time>2020-02-17T14:14:25.000Z</time>
      </trkpt>
      <trkpt lat="44.58144" lon="6.83467">
        <ele>2248</ele>
        <time>2020-02-17T14:14:26.000Z</time>
      </trkpt>
      <trkpt lat="44.58145" lon="6.83468">
        <ele>2248</ele>
        <time>2020-02-17T14:14:27.000Z</time>
      </trkpt>
      <trkpt lat="44.58145" lon="6.83467">
        <ele>2248</ele>
        <time>2020-02-17T14:14:28.000Z</time>
      </trkpt>
      <trkpt lat="44.58149" lon="6.83466">
        <ele>2247</ele>
        <time>2020-02-17T14:14:29.000Z</time>
      </trkpt>
      <trkpt lat="44.58151" lon="6.83458">
        <ele>2245</ele>
        <time>2020-02-17T14:14:32.000Z</time>
      </trkpt>
      <trkpt lat="44.58151" lon="6.83455">
        <ele>2244</ele>
        <time>2020-02-17T14:14:33.000Z</time>
      </trkpt>
      <trkpt lat="44.58152" lon="6.83455">
        <ele>2244</ele>
        <time>2020-02-17T14:14:34.000Z</time>
      </trkpt>
      <trkpt lat="44.58154" lon="6.83455">
        <ele>2244</ele>
        <time>2020-02-17T14:14:36.000Z</time>
      </trkpt>
      <trkpt lat="44.58157" lon="6.83452">
        <ele>2242</ele>
        <time>2020-02-17T14:14:38.000Z</time>
      </trkpt>
      <trkpt lat="44.58157" lon="6.83445">
        <ele>2240</ele>
        <time>2020-02-17T14:14:40.000Z</time>
      </trkpt>
      <trkpt lat="44.5816" lon="6.83441">
        <ele>2238</ele>
        <time>2020-02-17T14:14:42.000Z</time>
      </trkpt>
      <trkpt lat="44.58162" lon="6.83442">
        <ele>2237</ele>
        <time>2020-02-17T14:14:43.000Z</time>
      </trkpt>
      <trkpt lat="44.58163" lon="6.83443">
        <ele>2238</ele>
        <time>2020-02-17T14:14:44.000Z</time>
      </trkpt>
      <trkpt lat="44.58162" lon="6.83443">
        <ele>2238</ele>
        <time>2020-02-17T14:14:45.000Z</time>
      </trkpt>
      <trkpt lat="44.58162" lon="6.83443">
        <ele>2238</ele>
        <time>2020-02-17T14:14:46.000Z</time>
      </trkpt>
      <trkpt lat="44.58164" lon="6.83441">
        <ele>2237</ele>
        <time>2020-02-17T14:14:49.000Z</time>
      </trkpt>
      <trkpt lat="44.58163" lon="6.83434">
        <ele>2232</ele>
        <time>2020-02-17T14:14:52.000Z</time>
      </trkpt>
      <trkpt lat="44.58164" lon="6.83433">
        <ele>2231</ele>
        <time>2020-02-17T14:14:53.000Z</time>
      </trkpt>
      <trkpt lat="44.58165" lon="6.83432">
        <ele>2231</ele>
        <time>2020-02-17T14:14:54.000Z</time>
      </trkpt>
      <trkpt lat="44.58165" lon="6.83431">
        <ele>2230</ele>
        <time>2020-02-17T14:14:56.000Z</time>
      </trkpt>
      <trkpt lat="44.58166" lon="6.83428">
        <ele>2228</ele>
        <time>2020-02-17T14:14:59.000Z</time>
      </trkpt>
      <trkpt lat="44.58166" lon="6.83429">
        <ele>2228</ele>
        <time>2020-02-17T14:15:04.000Z</time>
      </trkpt>
      <trkpt lat="44.58172" lon="6.83431">
        <ele>2212</ele>
        <time>2020-02-17T14:15:32.000Z</time>
      </trkpt>
      <trkpt lat="44.58172" lon="6.83431">
        <ele>2212</ele>
        <time>2020-02-17T14:15:37.000Z</time>
      </trkpt>
      <trkpt lat="44.58176" lon="6.83429">
        <ele>2212</ele>
        <time>2020-02-17T14:15:46.000Z</time>
      </trkpt>
      <trkpt lat="44.58179" lon="6.83424">
        <ele>2211</ele>
        <time>2020-02-17T14:15:48.000Z</time>
      </trkpt>
      <trkpt lat="44.58181" lon="6.83423">
        <ele>2211</ele>
        <time>2020-02-17T14:15:50.000Z</time>
      </trkpt>
      <trkpt lat="44.58184" lon="6.83422">
        <ele>2210</ele>
        <time>2020-02-17T14:15:52.000Z</time>
      </trkpt>
      <trkpt lat="44.58185" lon="6.8342">
        <ele>2210</ele>
        <time>2020-02-17T14:15:53.000Z</time>
      </trkpt>
      <trkpt lat="44.58184" lon="6.83417">
        <ele>2210</ele>
        <time>2020-02-17T14:15:54.000Z</time>
      </trkpt>
      <trkpt lat="44.58187" lon="6.83415">
        <ele>2197</ele>
        <time>2020-02-17T14:15:56.000Z</time>
      </trkpt>
      <trkpt lat="44.58192" lon="6.83415">
        <ele>2194</ele>
        <time>2020-02-17T14:15:57.000Z</time>
      </trkpt>
      <trkpt lat="44.58195" lon="6.83415">
        <ele>2193</ele>
        <time>2020-02-17T14:15:58.000Z</time>
      </trkpt>
      <trkpt lat="44.58197" lon="6.83413">
        <ele>2192</ele>
        <time>2020-02-17T14:15:59.000Z</time>
      </trkpt>
      <trkpt lat="44.58202" lon="6.83411">
        <ele>2190</ele>
        <time>2020-02-17T14:16:01.000Z</time>
      </trkpt>
      <trkpt lat="44.58205" lon="6.83414">
        <ele>2189</ele>
        <time>2020-02-17T14:16:03.000Z</time>
      </trkpt>
      <trkpt lat="44.58208" lon="6.83417">
        <ele>2189</ele>
        <time>2020-02-17T14:16:04.000Z</time>
      </trkpt>
      <trkpt lat="44.5821" lon="6.83421">
        <ele>2204</ele>
        <time>2020-02-17T14:16:05.000Z</time>
      </trkpt>
      <trkpt lat="44.58212" lon="6.83425">
        <ele>2204</ele>
        <time>2020-02-17T14:16:06.000Z</time>
      </trkpt>
      <trkpt lat="44.58215" lon="6.83427">
        <ele>2203</ele>
        <time>2020-02-17T14:16:07.000Z</time>
      </trkpt>
      <trkpt lat="44.58217" lon="6.83428">
        <ele>2203</ele>
        <time>2020-02-17T14:16:08.000Z</time>
      </trkpt>
      <trkpt lat="44.58218" lon="6.83425">
        <ele>2202</ele>
        <time>2020-02-17T14:16:09.000Z</time>
      </trkpt>
      <trkpt lat="44.58215" lon="6.83416">
        <ele>2187</ele>
        <time>2020-02-17T14:16:11.000Z</time>
      </trkpt>
      <trkpt lat="44.58222" lon="6.83412">
        <ele>2185</ele>
        <time>2020-02-17T14:16:13.000Z</time>
      </trkpt>
      <trkpt lat="44.58226" lon="6.83415">
        <ele>2185</ele>
        <time>2020-02-17T14:16:14.000Z</time>
      </trkpt>
      <trkpt lat="44.5823" lon="6.83418">
        <ele>2197</ele>
        <time>2020-02-17T14:16:15.000Z</time>
      </trkpt>
      <trkpt lat="44.58231" lon="6.8342">
        <ele>2196</ele>
        <time>2020-02-17T14:16:16.000Z</time>
      </trkpt>
      <trkpt lat="44.58231" lon="6.8342">
        <ele>2196</ele>
        <time>2020-02-17T14:16:18.000Z</time>
      </trkpt>
      <trkpt lat="44.58236" lon="6.83419">
        <ele>2194</ele>
        <time>2020-02-17T14:16:21.000Z</time>
      </trkpt>
      <trkpt lat="44.58241" lon="6.83421">
        <ele>2191</ele>
        <time>2020-02-17T14:16:42.000Z</time>
      </trkpt>
      <trkpt lat="44.58244" lon="6.8342">
        <ele>2189</ele>
        <time>2020-02-17T14:16:47.000Z</time>
      </trkpt>
      <trkpt lat="44.58247" lon="6.83414">
        <ele>2182</ele>
        <time>2020-02-17T14:16:56.000Z</time>
      </trkpt>
      <trkpt lat="44.58243" lon="6.83411">
        <ele>2182</ele>
        <time>2020-02-17T14:16:58.000Z</time>
      </trkpt>
      <trkpt lat="44.58242" lon="6.83411">
        <ele>2182</ele>
        <time>2020-02-17T14:17:00.000Z</time>
      </trkpt>
      <trkpt lat="44.58239" lon="6.83405">
        <ele>2182</ele>
        <time>2020-02-17T14:17:03.000Z</time>
      </trkpt>
      <trkpt lat="44.58236" lon="6.83401">
        <ele>2182</ele>
        <time>2020-02-17T14:17:04.000Z</time>
      </trkpt>
      <trkpt lat="44.58234" lon="6.83398">
        <ele>2182</ele>
        <time>2020-02-17T14:17:05.000Z</time>
      </trkpt>
      <trkpt lat="44.58234" lon="6.83394">
        <ele>2182</ele>
        <time>2020-02-17T14:17:06.000Z</time>
      </trkpt>
      <trkpt lat="44.58235" lon="6.83392">
        <ele>2182</ele>
        <time>2020-02-17T14:17:07.000Z</time>
      </trkpt>
      <trkpt lat="44.58237" lon="6.83392">
        <ele>2181</ele>
        <time>2020-02-17T14:17:08.000Z</time>
      </trkpt>
      <trkpt lat="44.58237" lon="6.83391">
        <ele>2181</ele>
        <time>2020-02-17T14:17:09.000Z</time>
      </trkpt>
      <trkpt lat="44.58237" lon="6.8339">
        <ele>2181</ele>
        <time>2020-02-17T14:17:11.000Z</time>
      </trkpt>
      <trkpt lat="44.58238" lon="6.83386">
        <ele>2180</ele>
        <time>2020-02-17T14:17:15.000Z</time>
      </trkpt>
      <trkpt lat="44.58235" lon="6.83384">
        <ele>2180</ele>
        <time>2020-02-17T14:17:20.000Z</time>
      </trkpt>
      <trkpt lat="44.58236" lon="6.83384">
        <ele>2180</ele>
        <time>2020-02-17T14:17:22.000Z</time>
      </trkpt>
      <trkpt lat="44.58239" lon="6.83383">
        <ele>2180</ele>
        <time>2020-02-17T14:17:32.000Z</time>
      </trkpt>
      <trkpt lat="44.58243" lon="6.83385">
        <ele>2180</ele>
        <time>2020-02-17T14:17:37.000Z</time>
      </trkpt>
      <trkpt lat="44.5826" lon="6.83385">
        <ele>2154</ele>
        <time>2020-02-17T14:17:42.000Z</time>
      </trkpt>
      <trkpt lat="44.58263" lon="6.83386">
        <ele>2154</ele>
        <time>2020-02-17T14:17:44.000Z</time>
      </trkpt>
      <trkpt lat="44.58265" lon="6.83387">
        <ele>2154</ele>
        <time>2020-02-17T14:17:48.000Z</time>
      </trkpt>
      <trkpt lat="44.58269" lon="6.83387">
        <ele>2152</ele>
        <time>2020-02-17T14:17:54.000Z</time>
      </trkpt>
      <trkpt lat="44.58272" lon="6.83386">
        <ele>2151</ele>
        <time>2020-02-17T14:17:56.000Z</time>
      </trkpt>
      <trkpt lat="44.58274" lon="6.83379">
        <ele>2149</ele>
        <time>2020-02-17T14:18:16.000Z</time>
      </trkpt>
      <trkpt lat="44.58257" lon="6.83383">
        <ele>2154</ele>
        <time>2020-02-17T14:18:28.000Z</time>
      </trkpt>
      <trkpt lat="44.58247" lon="6.83383">
        <ele>2179</ele>
        <time>2020-02-17T14:18:49.000Z</time>
      </trkpt>
      <trkpt lat="44.58251" lon="6.83384">
        <ele>2155</ele>
        <time>2020-02-17T14:18:55.000Z</time>
      </trkpt>
      <trkpt lat="44.58253" lon="6.83384">
        <ele>2155</ele>
        <time>2020-02-17T14:19:01.000Z</time>
      </trkpt>
      <trkpt lat="44.58254" lon="6.83384">
        <ele>2155</ele>
        <time>2020-02-17T14:19:10.000Z</time>
      </trkpt>
      <trkpt lat="44.5825" lon="6.83394">
        <ele>2181</ele>
        <time>2020-02-17T14:19:25.000Z</time>
      </trkpt>
      <trkpt lat="44.58257" lon="6.83387">
        <ele>2155</ele>
        <time>2020-02-17T14:19:32.000Z</time>
      </trkpt>
      <trkpt lat="44.58236" lon="6.83411">
        <ele>2183</ele>
        <time>2020-02-17T14:19:41.000Z</time>
      </trkpt>
      <trkpt lat="44.58245" lon="6.834">
        <ele>2182</ele>
        <time>2020-02-17T14:19:54.000Z</time>
      </trkpt>
      <trkpt lat="44.58233" lon="6.83408">
        <ele>2183</ele>
        <time>2020-02-17T14:19:58.000Z</time>
      </trkpt>
      <trkpt lat="44.58195" lon="6.83443">
        <ele>2210</ele>
        <time>2020-02-17T14:20:00.000Z</time>
      </trkpt>
      <trkpt lat="44.5815" lon="6.8348">
        <ele>2247</ele>
        <time>2020-02-17T14:20:05.000Z</time>
      </trkpt>
      <trkpt lat="44.58157" lon="6.83459">
        <ele>2244</ele>
        <time>2020-02-17T14:20:11.000Z</time>
      </trkpt>
      <trkpt lat="44.58201" lon="6.83423">
        <ele>2207</ele>
        <time>2020-02-17T14:20:13.000Z</time>
      </trkpt>
      <trkpt lat="44.58244" lon="6.83389">
        <ele>2180</ele>
        <time>2020-02-17T14:20:17.000Z</time>
      </trkpt>
      <trkpt lat="44.58244" lon="6.83388">
        <ele>2180</ele>
        <time>2020-02-17T14:20:19.000Z</time>
      </trkpt>
      <trkpt lat="44.58246" lon="6.83389">
        <ele>2180</ele>
        <time>2020-02-17T14:20:23.000Z</time>
      </trkpt>
      <trkpt lat="44.58261" lon="6.83392">
        <ele>2157</ele>
        <time>2020-02-17T14:20:33.000Z</time>
      </trkpt>
      <trkpt lat="44.58264" lon="6.83388">
        <ele>2154</ele>
        <time>2020-02-17T14:20:39.000Z</time>
      </trkpt>
      <trkpt lat="44.58243" lon="6.83386">
        <ele>2180</ele>
        <time>2020-02-17T14:20:46.000Z</time>
      </trkpt>
      <trkpt lat="44.58245" lon="6.83385">
        <ele>2179</ele>
        <time>2020-02-17T14:20:48.000Z</time>
      </trkpt>
      <trkpt lat="44.58247" lon="6.83385">
        <ele>2179</ele>
        <time>2020-02-17T14:20:59.000Z</time>
      </trkpt>
      <trkpt lat="44.58248" lon="6.83386">
        <ele>2179</ele>
        <time>2020-02-17T14:21:00.000Z</time>
      </trkpt>
      <trkpt lat="44.58251" lon="6.83386">
        <ele>2156</ele>
        <time>2020-02-17T14:21:02.000Z</time>
      </trkpt>
      <trkpt lat="44.58255" lon="6.83387">
        <ele>2156</ele>
        <time>2020-02-17T14:21:04.000Z</time>
      </trkpt>
      <trkpt lat="44.58271" lon="6.8339">
        <ele>2153</ele>
        <time>2020-02-17T14:21:31.000Z</time>
      </trkpt>
      <trkpt lat="44.58275" lon="6.83387">
        <ele>2151</ele>
        <time>2020-02-17T14:21:34.000Z</time>
      </trkpt>
      <trkpt lat="44.58275" lon="6.83383">
        <ele>2149</ele>
        <time>2020-02-17T14:21:40.000Z</time>
      </trkpt>
      <trkpt lat="44.58272" lon="6.83383">
        <ele>2150</ele>
        <time>2020-02-17T14:21:46.000Z</time>
      </trkpt>
      <trkpt lat="44.58267" lon="6.83382">
        <ele>2151</ele>
        <time>2020-02-17T14:21:54.000Z</time>
      </trkpt>
      <trkpt lat="44.58257" lon="6.83384">
        <ele>2154</ele>
        <time>2020-02-17T14:22:09.000Z</time>
      </trkpt>
      <trkpt lat="44.58257" lon="6.83384">
        <ele>2154</ele>
        <time>2020-02-17T14:22:13.000Z</time>
      </trkpt>
      <trkpt lat="44.5826" lon="6.83384">
        <ele>2154</ele>
        <time>2020-02-17T14:22:19.000Z</time>
      </trkpt>
      <trkpt lat="44.5826" lon="6.83383">
        <ele>2153</ele>
        <time>2020-02-17T14:22:24.000Z</time>
      </trkpt>
      <trkpt lat="44.58256" lon="6.83383">
        <ele>2154</ele>
        <time>2020-02-17T14:22:29.000Z</time>
      </trkpt>
      <trkpt lat="44.58256" lon="6.83383">
        <ele>2154</ele>
        <time>2020-02-17T14:22:30.000Z</time>
      </trkpt>
      <trkpt lat="44.58255" lon="6.83383">
        <ele>2154</ele>
        <time>2020-02-17T14:22:31.000Z</time>
      </trkpt>
      <trkpt lat="44.58256" lon="6.83382">
        <ele>2154</ele>
        <time>2020-02-17T14:22:32.000Z</time>
      </trkpt>
      <trkpt lat="44.58256" lon="6.83382">
        <ele>2154</ele>
        <time>2020-02-17T14:22:34.000Z</time>
      </trkpt>
      <trkpt lat="44.58263" lon="6.83382">
        <ele>2153</ele>
        <time>2020-02-17T14:22:40.000Z</time>
      </trkpt>
      <trkpt lat="44.58269" lon="6.83379">
        <ele>2150</ele>
        <time>2020-02-17T14:22:48.000Z</time>
      </trkpt>
      <trkpt lat="44.58275" lon="6.834">
        <ele>2154</ele>
        <time>2020-02-17T14:23:13.000Z</time>
      </trkpt>
      <trkpt lat="44.58276" lon="6.83401">
        <ele>2154</ele>
        <time>2020-02-17T14:23:15.000Z</time>
      </trkpt>
      <trkpt lat="44.58275" lon="6.83401">
        <ele>2155</ele>
        <time>2020-02-17T14:23:17.000Z</time>
      </trkpt>
      <trkpt lat="44.58277" lon="6.83401">
        <ele>2154</ele>
        <time>2020-02-17T14:23:18.000Z</time>
      </trkpt>
      <trkpt lat="44.58279" lon="6.834">
        <ele>2153</ele>
        <time>2020-02-17T14:23:21.000Z</time>
      </trkpt>
      <trkpt lat="44.58265" lon="6.83399">
        <ele>2158</ele>
        <time>2020-02-17T14:23:27.000Z</time>
      </trkpt>
      <trkpt lat="44.58267" lon="6.8341">
        <ele>2162</ele>
        <time>2020-02-17T14:23:31.000Z</time>
      </trkpt>
      <trkpt lat="44.58293" lon="6.8341">
        <ele>2148</ele>
        <time>2020-02-17T14:23:40.000Z</time>
      </trkpt>
      <trkpt lat="44.58294" lon="6.83412">
        <ele>2148</ele>
        <time>2020-02-17T14:23:49.000Z</time>
      </trkpt>
      <trkpt lat="44.58296" lon="6.83412">
        <ele>2147</ele>
        <time>2020-02-17T14:23:54.000Z</time>
      </trkpt>
      <trkpt lat="44.58302" lon="6.83412">
        <ele>2144</ele>
        <time>2020-02-17T14:24:10.000Z</time>
      </trkpt>
      <trkpt lat="44.58305" lon="6.83417">
        <ele>2158</ele>
        <time>2020-02-17T14:24:17.000Z</time>
      </trkpt>
      <trkpt lat="44.58307" lon="6.83419">
        <ele>2156</ele>
        <time>2020-02-17T14:24:21.000Z</time>
      </trkpt>
      <trkpt lat="44.58308" lon="6.83419">
        <ele>2156</ele>
        <time>2020-02-17T14:24:24.000Z</time>
      </trkpt>
      <trkpt lat="44.58308" lon="6.83422">
        <ele>2156</ele>
        <time>2020-02-17T14:24:33.000Z</time>
      </trkpt>
      <trkpt lat="44.58309" lon="6.83431">
        <ele>2157</ele>
        <time>2020-02-17T14:24:38.000Z</time>
      </trkpt>
      <trkpt lat="44.58311" lon="6.83436">
        <ele>2157</ele>
        <time>2020-02-17T14:24:41.000Z</time>
      </trkpt>
      <trkpt lat="44.58312" lon="6.83438">
        <ele>2158</ele>
        <time>2020-02-17T14:24:43.000Z</time>
      </trkpt>
      <trkpt lat="44.58313" lon="6.83439">
        <ele>2157</ele>
        <time>2020-02-17T14:24:44.000Z</time>
      </trkpt>
      <trkpt lat="44.58317" lon="6.8344">
        <ele>2157</ele>
        <time>2020-02-17T14:24:47.000Z</time>
      </trkpt>
      <trkpt lat="44.58322" lon="6.83441">
        <ele>2155</ele>
        <time>2020-02-17T14:24:55.000Z</time>
      </trkpt>
      <trkpt lat="44.58312" lon="6.83438">
        <ele>2158</ele>
        <time>2020-02-17T14:25:02.000Z</time>
      </trkpt>
      <trkpt lat="44.58303" lon="6.83439">
        <ele>2161</ele>
        <time>2020-02-17T14:25:07.000Z</time>
      </trkpt>
      <trkpt lat="44.583" lon="6.83437">
        <ele>2162</ele>
        <time>2020-02-17T14:25:10.000Z</time>
      </trkpt>
      <trkpt lat="44.58303" lon="6.83437">
        <ele>2161</ele>
        <time>2020-02-17T14:25:17.000Z</time>
      </trkpt>
      <trkpt lat="44.58302" lon="6.83439">
        <ele>2162</ele>
        <time>2020-02-17T14:25:18.000Z</time>
      </trkpt>
      <trkpt lat="44.58309" lon="6.83442">
        <ele>2160</ele>
        <time>2020-02-17T14:25:25.000Z</time>
      </trkpt>
      <trkpt lat="44.58309" lon="6.83443">
        <ele>2160</ele>
        <time>2020-02-17T14:25:26.000Z</time>
      </trkpt>
      <trkpt lat="44.58307" lon="6.83448">
        <ele>2162</ele>
        <time>2020-02-17T14:25:31.000Z</time>
      </trkpt>
      <trkpt lat="44.58317" lon="6.83446">
        <ele>2158</ele>
        <time>2020-02-17T14:25:37.000Z</time>
      </trkpt>
      <trkpt lat="44.58338" lon="6.83439">
        <ele>2124</ele>
        <time>2020-02-17T14:25:39.000Z</time>
      </trkpt>
      <trkpt lat="44.58352" lon="6.83441">
        <ele>2120</ele>
        <time>2020-02-17T14:25:47.000Z</time>
      </trkpt>
      <trkpt lat="44.5835" lon="6.83443">
        <ele>2121</ele>
        <time>2020-02-17T14:25:50.000Z</time>
      </trkpt>
      <trkpt lat="44.5835" lon="6.83444">
        <ele>2121</ele>
        <time>2020-02-17T14:25:51.000Z</time>
      </trkpt>
      <trkpt lat="44.58348" lon="6.83445">
        <ele>2121</ele>
        <time>2020-02-17T14:25:54.000Z</time>
      </trkpt>
      <trkpt lat="44.58348" lon="6.83448">
        <ele>2121</ele>
        <time>2020-02-17T14:25:59.000Z</time>
      </trkpt>
      <trkpt lat="44.58344" lon="6.83451">
        <ele>2122</ele>
        <time>2020-02-17T14:26:02.000Z</time>
      </trkpt>
      <trkpt lat="44.5832" lon="6.83466">
        <ele>2161</ele>
        <time>2020-02-17T14:26:11.000Z</time>
      </trkpt>
      <trkpt lat="44.58315" lon="6.83462">
        <ele>2162</ele>
        <time>2020-02-17T14:26:15.000Z</time>
      </trkpt>
      <trkpt lat="44.58316" lon="6.83458">
        <ele>2161</ele>
        <time>2020-02-17T14:26:19.000Z</time>
      </trkpt>
      <trkpt lat="44.58318" lon="6.83456">
        <ele>2160</ele>
        <time>2020-02-17T14:26:23.000Z</time>
      </trkpt>
      <trkpt lat="44.58324" lon="6.83452">
        <ele>2158</ele>
        <time>2020-02-17T14:26:27.000Z</time>
      </trkpt>
      <trkpt lat="44.58329" lon="6.8345">
        <ele>2157</ele>
        <time>2020-02-17T14:26:29.000Z</time>
      </trkpt>
      <trkpt lat="44.58329" lon="6.83449">
        <ele>2157</ele>
        <time>2020-02-17T14:26:37.000Z</time>
      </trkpt>
      <trkpt lat="44.58325" lon="6.83448">
        <ele>2157</ele>
        <time>2020-02-17T14:26:41.000Z</time>
      </trkpt>
      <trkpt lat="44.58322" lon="6.83444">
        <ele>2156</ele>
        <time>2020-02-17T14:26:55.000Z</time>
      </trkpt>
      <trkpt lat="44.58323" lon="6.83445">
        <ele>2156</ele>
        <time>2020-02-17T14:27:02.000Z</time>
      </trkpt>
      <trkpt lat="44.58327" lon="6.83446">
        <ele>2156</ele>
        <time>2020-02-17T14:27:18.000Z</time>
      </trkpt>
      <trkpt lat="44.58326" lon="6.83445">
        <ele>2156</ele>
        <time>2020-02-17T14:27:24.000Z</time>
      </trkpt>
      <trkpt lat="44.58326" lon="6.83445">
        <ele>2156</ele>
        <time>2020-02-17T14:27:25.000Z</time>
      </trkpt>
      <trkpt lat="44.58326" lon="6.83444">
        <ele>2156</ele>
        <time>2020-02-17T14:27:26.000Z</time>
      </trkpt>
      <trkpt lat="44.58326" lon="6.83444">
        <ele>2155</ele>
        <time>2020-02-17T14:27:27.000Z</time>
      </trkpt>
      <trkpt lat="44.58326" lon="6.83442">
        <ele>2155</ele>
        <time>2020-02-17T14:27:42.000Z</time>
      </trkpt>
      <trkpt lat="44.58325" lon="6.83441">
        <ele>2154</ele>
        <time>2020-02-17T14:27:49.000Z</time>
      </trkpt>
      <trkpt lat="44.58324" lon="6.83437">
        <ele>2153</ele>
        <time>2020-02-17T14:27:52.000Z</time>
      </trkpt>
      <trkpt lat="44.58324" lon="6.83435">
        <ele>2152</ele>
        <time>2020-02-17T14:27:53.000Z</time>
      </trkpt>
      <trkpt lat="44.58325" lon="6.83435">
        <ele>2152</ele>
        <time>2020-02-17T14:27:58.000Z</time>
      </trkpt>
      <trkpt lat="44.58324" lon="6.83431">
        <ele>2150</ele>
        <time>2020-02-17T14:28:12.000Z</time>
      </trkpt>
      <trkpt lat="44.58331" lon="6.83427">
        <ele>2145</ele>
        <time>2020-02-17T14:28:21.000Z</time>
      </trkpt>
      <trkpt lat="44.58327" lon="6.83428">
        <ele>2147</ele>
        <time>2020-02-17T14:28:26.000Z</time>
      </trkpt>
      <trkpt lat="44.58326" lon="6.83426">
        <ele>2146</ele>
        <time>2020-02-17T14:28:28.000Z</time>
      </trkpt>
      <trkpt lat="44.58326" lon="6.83428">
        <ele>2147</ele>
        <time>2020-02-17T14:28:32.000Z</time>
      </trkpt>
      <trkpt lat="44.58322" lon="6.83427">
        <ele>2149</ele>
        <time>2020-02-17T14:28:38.000Z</time>
      </trkpt>
      <trkpt lat="44.58322" lon="6.83427">
        <ele>2149</ele>
        <time>2020-02-17T14:28:39.000Z</time>
      </trkpt>
      <trkpt lat="44.58319" lon="6.83415">
        <ele>2138</ele>
        <time>2020-02-17T14:29:01.000Z</time>
      </trkpt>
      <trkpt lat="44.58323" lon="6.83411">
        <ele>2137</ele>
        <time>2020-02-17T14:29:04.000Z</time>
      </trkpt>
      <trkpt lat="44.58323" lon="6.8341">
        <ele>2137</ele>
        <time>2020-02-17T14:29:05.000Z</time>
      </trkpt>
      <trkpt lat="44.58324" lon="6.8341">
        <ele>2137</ele>
        <time>2020-02-17T14:29:07.000Z</time>
      </trkpt>
      <trkpt lat="44.58331" lon="6.83393">
        <ele>2137</ele>
        <time>2020-02-17T14:29:21.000Z</time>
      </trkpt>
      <trkpt lat="44.58332" lon="6.83393">
        <ele>2137</ele>
        <time>2020-02-17T14:29:25.000Z</time>
      </trkpt>
      <trkpt lat="44.58324" lon="6.83394">
        <ele>2138</ele>
        <time>2020-02-17T14:29:28.000Z</time>
      </trkpt>
      <trkpt lat="44.5832" lon="6.83398">
        <ele>2139</ele>
        <time>2020-02-17T14:29:30.000Z</time>
      </trkpt>
      <trkpt lat="44.58322" lon="6.83403">
        <ele>2138</ele>
        <time>2020-02-17T14:29:32.000Z</time>
      </trkpt>
      <trkpt lat="44.58322" lon="6.83405">
        <ele>2138</ele>
        <time>2020-02-17T14:29:34.000Z</time>
      </trkpt>
      <trkpt lat="44.58322" lon="6.83407">
        <ele>2138</ele>
        <time>2020-02-17T14:29:37.000Z</time>
      </trkpt>
      <trkpt lat="44.58325" lon="6.83412">
        <ele>2137</ele>
        <time>2020-02-17T14:29:42.000Z</time>
      </trkpt>
      <trkpt lat="44.58327" lon="6.83413">
        <ele>2136</ele>
        <time>2020-02-17T14:29:45.000Z</time>
      </trkpt>
      <trkpt lat="44.58328" lon="6.83415">
        <ele>2135</ele>
        <time>2020-02-17T14:29:46.000Z</time>
      </trkpt>
      <trkpt lat="44.5833" lon="6.83417">
        <ele>2138</ele>
        <time>2020-02-17T14:29:47.000Z</time>
      </trkpt>
      <trkpt lat="44.58334" lon="6.8342">
        <ele>2130</ele>
        <time>2020-02-17T14:29:49.000Z</time>
      </trkpt>
      <trkpt lat="44.58335" lon="6.83421">
        <ele>2130</ele>
        <time>2020-02-17T14:29:50.000Z</time>
      </trkpt>
      <trkpt lat="44.58338" lon="6.83423">
        <ele>2128</ele>
        <time>2020-02-17T14:29:52.000Z</time>
      </trkpt>
      <trkpt lat="44.58339" lon="6.83424">
        <ele>2127</ele>
        <time>2020-02-17T14:29:54.000Z</time>
      </trkpt>
      <trkpt lat="44.58338" lon="6.83422">
        <ele>2128</ele>
        <time>2020-02-17T14:29:57.000Z</time>
      </trkpt>
      <trkpt lat="44.58341" lon="6.83422">
        <ele>2127</ele>
        <time>2020-02-17T14:30:02.000Z</time>
      </trkpt>
      <trkpt lat="44.58344" lon="6.83423">
        <ele>2126</ele>
        <time>2020-02-17T14:30:04.000Z</time>
      </trkpt>
      <trkpt lat="44.58345" lon="6.83424">
        <ele>2124</ele>
        <time>2020-02-17T14:30:07.000Z</time>
      </trkpt>
      <trkpt lat="44.58343" lon="6.83422">
        <ele>2126</ele>
        <time>2020-02-17T14:30:18.000Z</time>
      </trkpt>
      <trkpt lat="44.58343" lon="6.83423">
        <ele>2126</ele>
        <time>2020-02-17T14:30:30.000Z</time>
      </trkpt>
      <trkpt lat="44.58342" lon="6.83422">
        <ele>2126</ele>
        <time>2020-02-17T14:30:35.000Z</time>
      </trkpt>
      <trkpt lat="44.58339" lon="6.83413">
        <ele>2124</ele>
        <time>2020-02-17T14:30:43.000Z</time>
      </trkpt>
      <trkpt lat="44.58339" lon="6.83413">
        <ele>2124</ele>
        <time>2020-02-17T14:30:50.000Z</time>
      </trkpt>
      <trkpt lat="44.58339" lon="6.83413">
        <ele>2124</ele>
        <time>2020-02-17T14:30:51.000Z</time>
      </trkpt>
      <trkpt lat="44.58339" lon="6.83405">
        <ele>2118</ele>
        <time>2020-02-17T14:31:00.000Z</time>
      </trkpt>
      <trkpt lat="44.5834" lon="6.83401">
        <ele>2115</ele>
        <time>2020-02-17T14:31:04.000Z</time>
      </trkpt>
      <trkpt lat="44.58339" lon="6.83396">
        <ele>2112</ele>
        <time>2020-02-17T14:31:11.000Z</time>
      </trkpt>
      <trkpt lat="44.58342" lon="6.83392">
        <ele>2109</ele>
        <time>2020-02-17T14:31:18.000Z</time>
      </trkpt>
      <trkpt lat="44.5834" lon="6.83391">
        <ele>2109</ele>
        <time>2020-02-17T14:31:34.000Z</time>
      </trkpt>
      <trkpt lat="44.58336" lon="6.83393">
        <ele>2111</ele>
        <time>2020-02-17T14:31:37.000Z</time>
      </trkpt>
      <trkpt lat="44.58332" lon="6.83394">
        <ele>2137</ele>
        <time>2020-02-17T14:31:44.000Z</time>
      </trkpt>
      <trkpt lat="44.58335" lon="6.83396">
        <ele>2113</ele>
        <time>2020-02-17T14:31:52.000Z</time>
      </trkpt>
      <trkpt lat="44.58337" lon="6.83395">
        <ele>2112</ele>
        <time>2020-02-17T14:32:06.000Z</time>
      </trkpt>
      <trkpt lat="44.58338" lon="6.83395">
        <ele>2111</ele>
        <time>2020-02-17T14:32:07.000Z</time>
      </trkpt>
      <trkpt lat="44.58338" lon="6.83393">
        <ele>2111</ele>
        <time>2020-02-17T14:32:20.000Z</time>
      </trkpt>
      <trkpt lat="44.5834" lon="6.83394">
        <ele>2111</ele>
        <time>2020-02-17T14:32:26.000Z</time>
      </trkpt>
      <trkpt lat="44.5834" lon="6.83393">
        <ele>2110</ele>
        <time>2020-02-17T14:32:30.000Z</time>
      </trkpt>
      <trkpt lat="44.58347" lon="6.83392">
        <ele>2108</ele>
        <time>2020-02-17T14:32:38.000Z</time>
      </trkpt>
      <trkpt lat="44.58347" lon="6.83392">
        <ele>2108</ele>
        <time>2020-02-17T14:32:39.000Z</time>
      </trkpt>
      <trkpt lat="44.58347" lon="6.83392">
        <ele>2108</ele>
        <time>2020-02-17T14:32:40.000Z</time>
      </trkpt>
      <trkpt lat="44.58347" lon="6.83392">
        <ele>2108</ele>
        <time>2020-02-17T14:32:41.000Z</time>
      </trkpt>
      <trkpt lat="44.5834" lon="6.83391">
        <ele>2109</ele>
        <time>2020-02-17T14:33:11.000Z</time>
      </trkpt>
      <trkpt lat="44.58341" lon="6.83391">
        <ele>2109</ele>
        <time>2020-02-17T14:33:15.000Z</time>
      </trkpt>
      <trkpt lat="44.58341" lon="6.83391">
        <ele>2109</ele>
        <time>2020-02-17T14:33:16.000Z</time>
      </trkpt>
      <trkpt lat="44.58342" lon="6.8339">
        <ele>2109</ele>
        <time>2020-02-17T14:33:18.000Z</time>
      </trkpt>
      <trkpt lat="44.58342" lon="6.83382">
        <ele>2106</ele>
        <time>2020-02-17T14:33:22.000Z</time>
      </trkpt>
      <trkpt lat="44.58341" lon="6.83379">
        <ele>2105</ele>
        <time>2020-02-17T14:33:24.000Z</time>
      </trkpt>
      <trkpt lat="44.5834" lon="6.83377">
        <ele>2105</ele>
        <time>2020-02-17T14:33:25.000Z</time>
      </trkpt>
      <trkpt lat="44.58339" lon="6.83375">
        <ele>2104</ele>
        <time>2020-02-17T14:33:27.000Z</time>
      </trkpt>
      <trkpt lat="44.58339" lon="6.83373">
        <ele>2104</ele>
        <time>2020-02-17T14:33:28.000Z</time>
      </trkpt>
      <trkpt lat="44.58337" lon="6.83372">
        <ele>2104</ele>
        <time>2020-02-17T14:33:30.000Z</time>
      </trkpt>
      <trkpt lat="44.58337" lon="6.83372">
        <ele>2104</ele>
        <time>2020-02-17T14:33:32.000Z</time>
      </trkpt>
      <trkpt lat="44.58337" lon="6.83371">
        <ele>2104</ele>
        <time>2020-02-17T14:33:34.000Z</time>
      </trkpt>
      <trkpt lat="44.58338" lon="6.83364">
        <ele>2103</ele>
        <time>2020-02-17T14:33:39.000Z</time>
      </trkpt>
      <trkpt lat="44.58338" lon="6.83363">
        <ele>2103</ele>
        <time>2020-02-17T14:33:43.000Z</time>
      </trkpt>
      <trkpt lat="44.58337" lon="6.8336">
        <ele>2103</ele>
        <time>2020-02-17T14:33:53.000Z</time>
      </trkpt>
      <trkpt lat="44.58335" lon="6.83355">
        <ele>2103</ele>
        <time>2020-02-17T14:34:01.000Z</time>
      </trkpt>
      <trkpt lat="44.58338" lon="6.83345">
        <ele>2104</ele>
        <time>2020-02-17T14:34:21.000Z</time>
      </trkpt>
      <trkpt lat="44.58337" lon="6.83345">
        <ele>2104</ele>
        <time>2020-02-17T14:34:22.000Z</time>
      </trkpt>
      <trkpt lat="44.58335" lon="6.83344">
        <ele>2105</ele>
        <time>2020-02-17T14:34:23.000Z</time>
      </trkpt>
      <trkpt lat="44.58332" lon="6.83345">
        <ele>2121</ele>
        <time>2020-02-17T14:34:26.000Z</time>
      </trkpt>
      <trkpt lat="44.58332" lon="6.83345">
        <ele>2122</ele>
        <time>2020-02-17T14:34:32.000Z</time>
      </trkpt>
      <trkpt lat="44.58345" lon="6.83345">
        <ele>2102</ele>
        <time>2020-02-17T14:35:24.000Z</time>
      </trkpt>
      <trkpt lat="44.58349" lon="6.83349">
        <ele>2101</ele>
        <time>2020-02-17T14:35:27.000Z</time>
      </trkpt>
      <trkpt lat="44.5835" lon="6.83349">
        <ele>2101</ele>
        <time>2020-02-17T14:35:28.000Z</time>
      </trkpt>
      <trkpt lat="44.58353" lon="6.83352">
        <ele>2100</ele>
        <time>2020-02-17T14:35:33.000Z</time>
      </trkpt>
      <trkpt lat="44.58354" lon="6.83353">
        <ele>2099</ele>
        <time>2020-02-17T14:35:34.000Z</time>
      </trkpt>
      <trkpt lat="44.58356" lon="6.83354">
        <ele>2099</ele>
        <time>2020-02-17T14:35:36.000Z</time>
      </trkpt>
      <trkpt lat="44.58357" lon="6.83355">
        <ele>2099</ele>
        <time>2020-02-17T14:35:39.000Z</time>
      </trkpt>
      <trkpt lat="44.58357" lon="6.83358">
        <ele>2099</ele>
        <time>2020-02-17T14:35:42.000Z</time>
      </trkpt>
      <trkpt lat="44.58353" lon="6.8336">
        <ele>2100</ele>
        <time>2020-02-17T14:35:45.000Z</time>
      </trkpt>
      <trkpt lat="44.58354" lon="6.83361">
        <ele>2100</ele>
        <time>2020-02-17T14:35:46.000Z</time>
      </trkpt>
      <trkpt lat="44.58355" lon="6.83361">
        <ele>2099</ele>
        <time>2020-02-17T14:35:50.000Z</time>
      </trkpt>
      <trkpt lat="44.5836" lon="6.83366">
        <ele>2099</ele>
        <time>2020-02-17T14:35:58.000Z</time>
      </trkpt>
      <trkpt lat="44.58362" lon="6.83368">
        <ele>2098</ele>
        <time>2020-02-17T14:36:00.000Z</time>
      </trkpt>
      <trkpt lat="44.58365" lon="6.8337">
        <ele>2098</ele>
        <time>2020-02-17T14:36:02.000Z</time>
      </trkpt>
      <trkpt lat="44.58365" lon="6.83372">
        <ele>2098</ele>
        <time>2020-02-17T14:36:04.000Z</time>
      </trkpt>
      <trkpt lat="44.58372" lon="6.83372">
        <ele>2096</ele>
        <time>2020-02-17T14:36:08.000Z</time>
      </trkpt>
      <trkpt lat="44.58374" lon="6.83372">
        <ele>2095</ele>
        <time>2020-02-17T14:36:09.000Z</time>
      </trkpt>
      <trkpt lat="44.58376" lon="6.83373">
        <ele>2095</ele>
        <time>2020-02-17T14:36:11.000Z</time>
      </trkpt>
      <trkpt lat="44.58376" lon="6.83373">
        <ele>2095</ele>
        <time>2020-02-17T14:36:12.000Z</time>
      </trkpt>
      <trkpt lat="44.5838" lon="6.83372">
        <ele>2093</ele>
        <time>2020-02-17T14:36:15.000Z</time>
      </trkpt>
      <trkpt lat="44.58383" lon="6.83373">
        <ele>2093</ele>
        <time>2020-02-17T14:36:18.000Z</time>
      </trkpt>
      <trkpt lat="44.58387" lon="6.83378">
        <ele>2092</ele>
        <time>2020-02-17T14:36:21.000Z</time>
      </trkpt>
      <trkpt lat="44.58387" lon="6.83378">
        <ele>2092</ele>
        <time>2020-02-17T14:36:22.000Z</time>
      </trkpt>
      <trkpt lat="44.58387" lon="6.83378">
        <ele>2092</ele>
        <time>2020-02-17T14:36:24.000Z</time>
      </trkpt>
      <trkpt lat="44.5839" lon="6.83384">
        <ele>2092</ele>
        <time>2020-02-17T14:36:31.000Z</time>
      </trkpt>
      <trkpt lat="44.58389" lon="6.83383">
        <ele>2092</ele>
        <time>2020-02-17T14:36:36.000Z</time>
      </trkpt>
      <trkpt lat="44.58388" lon="6.83381">
        <ele>2092</ele>
        <time>2020-02-17T14:36:38.000Z</time>
      </trkpt>
      <trkpt lat="44.58392" lon="6.83381">
        <ele>2091</ele>
        <time>2020-02-17T14:36:40.000Z</time>
      </trkpt>
      <trkpt lat="44.58393" lon="6.83383">
        <ele>2091</ele>
        <time>2020-02-17T14:36:41.000Z</time>
      </trkpt>
      <trkpt lat="44.58393" lon="6.83385">
        <ele>2091</ele>
        <time>2020-02-17T14:36:43.000Z</time>
      </trkpt>
      <trkpt lat="44.58394" lon="6.83384">
        <ele>2091</ele>
        <time>2020-02-17T14:36:45.000Z</time>
      </trkpt>
      <trkpt lat="44.58398" lon="6.83385">
        <ele>2090</ele>
        <time>2020-02-17T14:36:47.000Z</time>
      </trkpt>
      <trkpt lat="44.58399" lon="6.83386">
        <ele>2089</ele>
        <time>2020-02-17T14:36:49.000Z</time>
      </trkpt>
      <trkpt lat="44.58404" lon="6.83382">
        <ele>2088</ele>
        <time>2020-02-17T14:36:52.000Z</time>
      </trkpt>
      <trkpt lat="44.58403" lon="6.83378">
        <ele>2088</ele>
        <time>2020-02-17T14:36:54.000Z</time>
      </trkpt>
      <trkpt lat="44.58403" lon="6.83378">
        <ele>2088</ele>
        <time>2020-02-17T14:36:56.000Z</time>
      </trkpt>
      <trkpt lat="44.58401" lon="6.83379">
        <ele>2088</ele>
        <time>2020-02-17T14:36:59.000Z</time>
      </trkpt>
      <trkpt lat="44.58408" lon="6.83376">
        <ele>2087</ele>
        <time>2020-02-17T14:37:07.000Z</time>
      </trkpt>
      <trkpt lat="44.58409" lon="6.83379">
        <ele>2087</ele>
        <time>2020-02-17T14:37:09.000Z</time>
      </trkpt>
      <trkpt lat="44.58409" lon="6.83379">
        <ele>2087</ele>
        <time>2020-02-17T14:37:10.000Z</time>
      </trkpt>
      <trkpt lat="44.58409" lon="6.83379">
        <ele>2087</ele>
        <time>2020-02-17T14:37:11.000Z</time>
      </trkpt>
      <trkpt lat="44.58409" lon="6.83379">
        <ele>2087</ele>
        <time>2020-02-17T14:37:12.000Z</time>
      </trkpt>
      <trkpt lat="44.58413" lon="6.83382">
        <ele>2087</ele>
        <time>2020-02-17T14:37:16.000Z</time>
      </trkpt>
      <trkpt lat="44.58415" lon="6.83384">
        <ele>2087</ele>
        <time>2020-02-17T14:37:17.000Z</time>
      </trkpt>
      <trkpt lat="44.58417" lon="6.83383">
        <ele>2055</ele>
        <time>2020-02-17T14:37:19.000Z</time>
      </trkpt>
      <trkpt lat="44.58417" lon="6.8338">
        <ele>2054</ele>
        <time>2020-02-17T14:37:22.000Z</time>
      </trkpt>
      <trkpt lat="44.58418" lon="6.83378">
        <ele>2054</ele>
        <time>2020-02-17T14:37:23.000Z</time>
      </trkpt>
      <trkpt lat="44.58418" lon="6.83373">
        <ele>2053</ele>
        <time>2020-02-17T14:37:26.000Z</time>
      </trkpt>
      <trkpt lat="44.58418" lon="6.83373">
        <ele>2053</ele>
        <time>2020-02-17T14:37:28.000Z</time>
      </trkpt>
      <trkpt lat="44.58416" lon="6.83364">
        <ele>2083</ele>
        <time>2020-02-17T14:37:50.000Z</time>
      </trkpt>
      <trkpt lat="44.58416" lon="6.83362">
        <ele>2082</ele>
        <time>2020-02-17T14:37:57.000Z</time>
      </trkpt>
      <trkpt lat="44.58417" lon="6.8336">
        <ele>2052</ele>
        <time>2020-02-17T14:38:02.000Z</time>
      </trkpt>
      <trkpt lat="44.58417" lon="6.8336">
        <ele>2052</ele>
        <time>2020-02-17T14:38:05.000Z</time>
      </trkpt>
      <trkpt lat="44.58416" lon="6.83358">
        <ele>2080</ele>
        <time>2020-02-17T14:38:11.000Z</time>
      </trkpt>
      <trkpt lat="44.58416" lon="6.83353">
        <ele>2078</ele>
        <time>2020-02-17T14:38:15.000Z</time>
      </trkpt>
      <trkpt lat="44.58414" lon="6.83347">
        <ele>2075</ele>
        <time>2020-02-17T14:38:19.000Z</time>
      </trkpt>
      <trkpt lat="44.58414" lon="6.83344">
        <ele>2072</ele>
        <time>2020-02-17T14:38:21.000Z</time>
      </trkpt>
      <trkpt lat="44.58415" lon="6.83344">
        <ele>2071</ele>
        <time>2020-02-17T14:38:23.000Z</time>
      </trkpt>
      <trkpt lat="44.58415" lon="6.83343">
        <ele>2071</ele>
        <time>2020-02-17T14:38:24.000Z</time>
      </trkpt>
      <trkpt lat="44.58414" lon="6.83343">
        <ele>2071</ele>
        <time>2020-02-17T14:38:26.000Z</time>
      </trkpt>
      <trkpt lat="44.58414" lon="6.83341">
        <ele>2070</ele>
        <time>2020-02-17T14:38:28.000Z</time>
      </trkpt>
      <trkpt lat="44.58413" lon="6.83341">
        <ele>2069</ele>
        <time>2020-02-17T14:38:29.000Z</time>
      </trkpt>
      <trkpt lat="44.58413" lon="6.8334">
        <ele>2069</ele>
        <time>2020-02-17T14:38:30.000Z</time>
      </trkpt>
      <trkpt lat="44.58409" lon="6.83328">
        <ele>2063</ele>
        <time>2020-02-17T14:38:34.000Z</time>
      </trkpt>
      <trkpt lat="44.58404" lon="6.83323">
        <ele>2065</ele>
        <time>2020-02-17T14:38:36.000Z</time>
      </trkpt>
      <trkpt lat="44.58403" lon="6.8332">
        <ele>2065</ele>
        <time>2020-02-17T14:38:38.000Z</time>
      </trkpt>
      <trkpt lat="44.584" lon="6.83317">
        <ele>2066</ele>
        <time>2020-02-17T14:38:42.000Z</time>
      </trkpt>
      <trkpt lat="44.58402" lon="6.83313">
        <ele>2066</ele>
        <time>2020-02-17T14:38:53.000Z</time>
      </trkpt>
      <trkpt lat="44.58405" lon="6.83312">
        <ele>2065</ele>
        <time>2020-02-17T14:38:57.000Z</time>
      </trkpt>
      <trkpt lat="44.58407" lon="6.83314">
        <ele>2065</ele>
        <time>2020-02-17T14:39:03.000Z</time>
      </trkpt>
      <trkpt lat="44.58404" lon="6.83311">
        <ele>2065</ele>
        <time>2020-02-17T14:39:11.000Z</time>
      </trkpt>
      <trkpt lat="44.58402" lon="6.8331">
        <ele>2065</ele>
        <time>2020-02-17T14:39:13.000Z</time>
      </trkpt>
      <trkpt lat="44.58398" lon="6.83307">
        <ele>2066</ele>
        <time>2020-02-17T14:39:18.000Z</time>
      </trkpt>
      <trkpt lat="44.58398" lon="6.83307">
        <ele>2066</ele>
        <time>2020-02-17T14:39:23.000Z</time>
      </trkpt>
      <trkpt lat="44.58403" lon="6.8331">
        <ele>2065</ele>
        <time>2020-02-17T14:39:27.000Z</time>
      </trkpt>
      <trkpt lat="44.58403" lon="6.83311">
        <ele>2065</ele>
        <time>2020-02-17T14:39:39.000Z</time>
      </trkpt>
      <trkpt lat="44.58398" lon="6.8331">
        <ele>2066</ele>
        <time>2020-02-17T14:39:50.000Z</time>
      </trkpt>
      <trkpt lat="44.58396" lon="6.8331">
        <ele>2067</ele>
        <time>2020-02-17T14:39:53.000Z</time>
      </trkpt>
      <trkpt lat="44.58397" lon="6.83307">
        <ele>2066</ele>
        <time>2020-02-17T14:40:05.000Z</time>
      </trkpt>
      <trkpt lat="44.58398" lon="6.83305">
        <ele>2066</ele>
        <time>2020-02-17T14:40:07.000Z</time>
      </trkpt>
      <trkpt lat="44.58397" lon="6.83302">
        <ele>2066</ele>
        <time>2020-02-17T14:40:10.000Z</time>
      </trkpt>
      <trkpt lat="44.58402" lon="6.833">
        <ele>2065</ele>
        <time>2020-02-17T14:40:13.000Z</time>
      </trkpt>
      <trkpt lat="44.58404" lon="6.833">
        <ele>2064</ele>
        <time>2020-02-17T14:40:15.000Z</time>
      </trkpt>
      <trkpt lat="44.58402" lon="6.83298">
        <ele>2064</ele>
        <time>2020-02-17T14:40:17.000Z</time>
      </trkpt>
      <trkpt lat="44.58403" lon="6.83297">
        <ele>2064</ele>
        <time>2020-02-17T14:40:22.000Z</time>
      </trkpt>
      <trkpt lat="44.58401" lon="6.83293">
        <ele>2063</ele>
        <time>2020-02-17T14:40:28.000Z</time>
      </trkpt>
      <trkpt lat="44.58402" lon="6.83291">
        <ele>2063</ele>
        <time>2020-02-17T14:40:31.000Z</time>
      </trkpt>
      <trkpt lat="44.58401" lon="6.83291">
        <ele>2063</ele>
        <time>2020-02-17T14:40:33.000Z</time>
      </trkpt>
      <trkpt lat="44.58403" lon="6.83291">
        <ele>2063</ele>
        <time>2020-02-17T14:40:35.000Z</time>
      </trkpt>
      <trkpt lat="44.58402" lon="6.83292">
        <ele>2063</ele>
        <time>2020-02-17T14:40:37.000Z</time>
      </trkpt>
      <trkpt lat="44.58397" lon="6.83291">
        <ele>2064</ele>
        <time>2020-02-17T14:40:40.000Z</time>
      </trkpt>
      <trkpt lat="44.58396" lon="6.83288">
        <ele>2063</ele>
        <time>2020-02-17T14:40:41.000Z</time>
      </trkpt>
      <trkpt lat="44.58398" lon="6.83288">
        <ele>2063</ele>
        <time>2020-02-17T14:40:45.000Z</time>
      </trkpt>
      <trkpt lat="44.58399" lon="6.83288">
        <ele>2063</ele>
        <time>2020-02-17T14:40:47.000Z</time>
      </trkpt>
      <trkpt lat="44.58399" lon="6.83287">
        <ele>2063</ele>
        <time>2020-02-17T14:40:50.000Z</time>
      </trkpt>
      <trkpt lat="44.58398" lon="6.83285">
        <ele>2062</ele>
        <time>2020-02-17T14:40:55.000Z</time>
      </trkpt>
      <trkpt lat="44.58398" lon="6.83284">
        <ele>2062</ele>
        <time>2020-02-17T14:40:57.000Z</time>
      </trkpt>
      <trkpt lat="44.58399" lon="6.83279">
        <ele>2061</ele>
        <time>2020-02-17T14:41:05.000Z</time>
      </trkpt>
      <trkpt lat="44.58399" lon="6.83275">
        <ele>2059</ele>
        <time>2020-02-17T14:41:09.000Z</time>
      </trkpt>
      <trkpt lat="44.58398" lon="6.83273">
        <ele>2059</ele>
        <time>2020-02-17T14:41:14.000Z</time>
      </trkpt>
      <trkpt lat="44.58398" lon="6.83272">
        <ele>2058</ele>
        <time>2020-02-17T14:41:16.000Z</time>
      </trkpt>
      <trkpt lat="44.58394" lon="6.83266">
        <ele>2058</ele>
        <time>2020-02-17T14:41:34.000Z</time>
      </trkpt>
      <trkpt lat="44.58403" lon="6.83269">
        <ele>2056</ele>
        <time>2020-02-17T14:41:44.000Z</time>
      </trkpt>
      <trkpt lat="44.58405" lon="6.8327">
        <ele>2055</ele>
        <time>2020-02-17T14:41:48.000Z</time>
      </trkpt>
      <trkpt lat="44.58405" lon="6.83268">
        <ele>2054</ele>
        <time>2020-02-17T14:41:51.000Z</time>
      </trkpt>
      <trkpt lat="44.58403" lon="6.83268">
        <ele>2055</ele>
        <time>2020-02-17T14:41:54.000Z</time>
      </trkpt>
      <trkpt lat="44.58397" lon="6.8327">
        <ele>2058</ele>
        <time>2020-02-17T14:41:59.000Z</time>
      </trkpt>
      <trkpt lat="44.58392" lon="6.83267">
        <ele>2059</ele>
        <time>2020-02-17T14:42:09.000Z</time>
      </trkpt>
      <trkpt lat="44.58395" lon="6.83272">
        <ele>2060</ele>
        <time>2020-02-17T14:42:17.000Z</time>
      </trkpt>
      <trkpt lat="44.58396" lon="6.83271">
        <ele>2059</ele>
        <time>2020-02-17T14:42:23.000Z</time>
      </trkpt>
      <trkpt lat="44.58399" lon="6.8327">
        <ele>2058</ele>
        <time>2020-02-17T14:42:36.000Z</time>
      </trkpt>
      <trkpt lat="44.584" lon="6.83268">
        <ele>2057</ele>
        <time>2020-02-17T14:42:39.000Z</time>
      </trkpt>
      <trkpt lat="44.58405" lon="6.83266">
        <ele>2054</ele>
        <time>2020-02-17T14:42:43.000Z</time>
      </trkpt>
      <trkpt lat="44.58406" lon="6.83267">
        <ele>2054</ele>
        <time>2020-02-17T14:42:44.000Z</time>
      </trkpt>
      <trkpt lat="44.58407" lon="6.83267">
        <ele>2054</ele>
        <time>2020-02-17T14:42:45.000Z</time>
      </trkpt>
      <trkpt lat="44.58407" lon="6.83265">
        <ele>2052</ele>
        <time>2020-02-17T14:42:47.000Z</time>
      </trkpt>
      <trkpt lat="44.5841" lon="6.83264">
        <ele>2051</ele>
        <time>2020-02-17T14:42:50.000Z</time>
      </trkpt>
      <trkpt lat="44.58411" lon="6.83265">
        <ele>2051</ele>
        <time>2020-02-17T14:42:52.000Z</time>
      </trkpt>
      <trkpt lat="44.58413" lon="6.83264">
        <ele>2050</ele>
        <time>2020-02-17T14:42:55.000Z</time>
      </trkpt>
      <trkpt lat="44.5842" lon="6.83262">
        <ele>2032</ele>
        <time>2020-02-17T14:43:07.000Z</time>
      </trkpt>
      <trkpt lat="44.58421" lon="6.83262">
        <ele>2031</ele>
        <time>2020-02-17T14:43:10.000Z</time>
      </trkpt>
      <trkpt lat="44.58422" lon="6.83261">
        <ele>2031</ele>
        <time>2020-02-17T14:43:13.000Z</time>
      </trkpt>
      <trkpt lat="44.58424" lon="6.8326">
        <ele>2031</ele>
        <time>2020-02-17T14:43:17.000Z</time>
      </trkpt>
      <trkpt lat="44.58423" lon="6.83262">
        <ele>2031</ele>
        <time>2020-02-17T14:43:20.000Z</time>
      </trkpt>
      <trkpt lat="44.58431" lon="6.83258">
        <ele>2030</ele>
        <time>2020-02-17T14:43:22.000Z</time>
      </trkpt>
      <trkpt lat="44.58436" lon="6.83257">
        <ele>2028</ele>
        <time>2020-02-17T14:43:24.000Z</time>
      </trkpt>
      <trkpt lat="44.58436" lon="6.83255">
        <ele>2028</ele>
        <time>2020-02-17T14:43:29.000Z</time>
      </trkpt>
      <trkpt lat="44.58436" lon="6.83255">
        <ele>2028</ele>
        <time>2020-02-17T14:43:36.000Z</time>
      </trkpt>
      <trkpt lat="44.58439" lon="6.83253">
        <ele>2027</ele>
        <time>2020-02-17T14:43:42.000Z</time>
      </trkpt>
      <trkpt lat="44.58438" lon="6.83252">
        <ele>2027</ele>
        <time>2020-02-17T14:43:44.000Z</time>
      </trkpt>
      <trkpt lat="44.58436" lon="6.8325">
        <ele>2017</ele>
        <time>2020-02-17T14:43:48.000Z</time>
      </trkpt>
      <trkpt lat="44.58428" lon="6.83245">
        <ele>2021</ele>
        <time>2020-02-17T14:44:01.000Z</time>
      </trkpt>
      <trkpt lat="44.58428" lon="6.83245">
        <ele>2021</ele>
        <time>2020-02-17T14:44:07.000Z</time>
      </trkpt>
      <trkpt lat="44.58429" lon="6.83245">
        <ele>2021</ele>
        <time>2020-02-17T14:44:13.000Z</time>
      </trkpt>
      <trkpt lat="44.58426" lon="6.83246">
        <ele>2023</ele>
        <time>2020-02-17T14:44:21.000Z</time>
      </trkpt>
      <trkpt lat="44.58421" lon="6.83239">
        <ele>2022</ele>
        <time>2020-02-17T14:44:24.000Z</time>
      </trkpt>
      <trkpt lat="44.5842" lon="6.83237">
        <ele>2021</ele>
        <time>2020-02-17T14:44:25.000Z</time>
      </trkpt>
      <trkpt lat="44.58417" lon="6.83235">
        <ele>2020</ele>
        <time>2020-02-17T14:44:28.000Z</time>
      </trkpt>
      <trkpt lat="44.58418" lon="6.83234">
        <ele>2019</ele>
        <time>2020-02-17T14:44:30.000Z</time>
      </trkpt>
      <trkpt lat="44.58418" lon="6.83233">
        <ele>2018</ele>
        <time>2020-02-17T14:44:31.000Z</time>
      </trkpt>
      <trkpt lat="44.5842" lon="6.83233">
        <ele>2018</ele>
        <time>2020-02-17T14:44:32.000Z</time>
      </trkpt>
      <trkpt lat="44.58424" lon="6.83234">
        <ele>2018</ele>
        <time>2020-02-17T14:44:34.000Z</time>
      </trkpt>
      <trkpt lat="44.58425" lon="6.83233">
        <ele>2017</ele>
        <time>2020-02-17T14:44:35.000Z</time>
      </trkpt>
      <trkpt lat="44.58427" lon="6.83233">
        <ele>2016</ele>
        <time>2020-02-17T14:44:36.000Z</time>
      </trkpt>
      <trkpt lat="44.5843" lon="6.83234">
        <ele>2015</ele>
        <time>2020-02-17T14:44:38.000Z</time>
      </trkpt>
      <trkpt lat="44.58431" lon="6.83233">
        <ele>2014</ele>
        <time>2020-02-17T14:44:40.000Z</time>
      </trkpt>
      <trkpt lat="44.58432" lon="6.83234">
        <ele>2014</ele>
        <time>2020-02-17T14:44:41.000Z</time>
      </trkpt>
      <trkpt lat="44.58432" lon="6.83233">
        <ele>2014</ele>
        <time>2020-02-17T14:44:43.000Z</time>
      </trkpt>
      <trkpt lat="44.58434" lon="6.83232">
        <ele>2013</ele>
        <time>2020-02-17T14:44:44.000Z</time>
      </trkpt>
      <trkpt lat="44.58433" lon="6.83229">
        <ele>2012</ele>
        <time>2020-02-17T14:44:46.000Z</time>
      </trkpt>
      <trkpt lat="44.58434" lon="6.83224">
        <ele>2010</ele>
        <time>2020-02-17T14:44:48.000Z</time>
      </trkpt>
      <trkpt lat="44.58434" lon="6.83223">
        <ele>2009</ele>
        <time>2020-02-17T14:44:50.000Z</time>
      </trkpt>
      <trkpt lat="44.58433" lon="6.8322">
        <ele>2009</ele>
        <time>2020-02-17T14:44:52.000Z</time>
      </trkpt>
      <trkpt lat="44.58433" lon="6.83219">
        <ele>2009</ele>
        <time>2020-02-17T14:44:53.000Z</time>
      </trkpt>
      <trkpt lat="44.58433" lon="6.83218">
        <ele>2008</ele>
        <time>2020-02-17T14:44:54.000Z</time>
      </trkpt>
      <trkpt lat="44.58434" lon="6.83217">
        <ele>2008</ele>
        <time>2020-02-17T14:44:55.000Z</time>
      </trkpt>
      <trkpt lat="44.58434" lon="6.83216">
        <ele>2007</ele>
        <time>2020-02-17T14:44:56.000Z</time>
      </trkpt>
      <trkpt lat="44.58435" lon="6.83214">
        <ele>2007</ele>
        <time>2020-02-17T14:44:58.000Z</time>
      </trkpt>
      <trkpt lat="44.58436" lon="6.83215">
        <ele>2007</ele>
        <time>2020-02-17T14:45:00.000Z</time>
      </trkpt>
      <trkpt lat="44.58436" lon="6.83214">
        <ele>2007</ele>
        <time>2020-02-17T14:45:02.000Z</time>
      </trkpt>
      <trkpt lat="44.58436" lon="6.83213">
        <ele>2006</ele>
        <time>2020-02-17T14:45:04.000Z</time>
      </trkpt>
      <trkpt lat="44.58435" lon="6.83206">
        <ele>2005</ele>
        <time>2020-02-17T14:45:09.000Z</time>
      </trkpt>
      <trkpt lat="44.58437" lon="6.83205">
        <ele>2004</ele>
        <time>2020-02-17T14:45:12.000Z</time>
      </trkpt>
      <trkpt lat="44.58438" lon="6.83205">
        <ele>2004</ele>
        <time>2020-02-17T14:45:13.000Z</time>
      </trkpt>
      <trkpt lat="44.58437" lon="6.83201">
        <ele>2003</ele>
        <time>2020-02-17T14:45:17.000Z</time>
      </trkpt>
      <trkpt lat="44.58437" lon="6.83201">
        <ele>2003</ele>
        <time>2020-02-17T14:45:21.000Z</time>
      </trkpt>
      <trkpt lat="44.58432" lon="6.83194">
        <ele>2003</ele>
        <time>2020-02-17T14:45:28.000Z</time>
      </trkpt>
      <trkpt lat="44.5843" lon="6.83195">
        <ele>2003</ele>
        <time>2020-02-17T14:45:36.000Z</time>
      </trkpt>
      <trkpt lat="44.5843" lon="6.83194">
        <ele>2003</ele>
        <time>2020-02-17T14:45:38.000Z</time>
      </trkpt>
      <trkpt lat="44.58427" lon="6.8319">
        <ele>2003</ele>
        <time>2020-02-17T14:45:43.000Z</time>
      </trkpt>
      <trkpt lat="44.58426" lon="6.83185">
        <ele>2003</ele>
        <time>2020-02-17T14:45:46.000Z</time>
      </trkpt>
      <trkpt lat="44.58425" lon="6.83183">
        <ele>2003</ele>
        <time>2020-02-17T14:45:48.000Z</time>
      </trkpt>
      <trkpt lat="44.58423" lon="6.83181">
        <ele>2003</ele>
        <time>2020-02-17T14:45:50.000Z</time>
      </trkpt>
      <trkpt lat="44.58422" lon="6.8318">
        <ele>2003</ele>
        <time>2020-02-17T14:45:51.000Z</time>
      </trkpt>
      <trkpt lat="44.58422" lon="6.83177">
        <ele>2003</ele>
        <time>2020-02-17T14:45:52.000Z</time>
      </trkpt>
      <trkpt lat="44.5842" lon="6.83174">
        <ele>2003</ele>
        <time>2020-02-17T14:45:55.000Z</time>
      </trkpt>
      <trkpt lat="44.58421" lon="6.83173">
        <ele>2003</ele>
        <time>2020-02-17T14:45:56.000Z</time>
      </trkpt>
      <trkpt lat="44.58422" lon="6.83172">
        <ele>2003</ele>
        <time>2020-02-17T14:45:57.000Z</time>
      </trkpt>
      <trkpt lat="44.58422" lon="6.83171">
        <ele>2003</ele>
        <time>2020-02-17T14:45:58.000Z</time>
      </trkpt>
      <trkpt lat="44.58421" lon="6.83167">
        <ele>2003</ele>
        <time>2020-02-17T14:46:00.000Z</time>
      </trkpt>
      <trkpt lat="44.58421" lon="6.83164">
        <ele>1998</ele>
        <time>2020-02-17T14:46:01.000Z</time>
      </trkpt>
      <trkpt lat="44.5842" lon="6.83162">
        <ele>1997</ele>
        <time>2020-02-17T14:46:03.000Z</time>
      </trkpt>
      <trkpt lat="44.5842" lon="6.83162">
        <ele>1997</ele>
        <time>2020-02-17T14:46:04.000Z</time>
      </trkpt>
      <trkpt lat="44.5842" lon="6.83161">
        <ele>1996</ele>
        <time>2020-02-17T14:46:06.000Z</time>
      </trkpt>
      <trkpt lat="44.58427" lon="6.83158">
        <ele>1990</ele>
        <time>2020-02-17T14:46:15.000Z</time>
      </trkpt>
      <trkpt lat="44.58427" lon="6.83157">
        <ele>1990</ele>
        <time>2020-02-17T14:46:17.000Z</time>
      </trkpt>
      <trkpt lat="44.58429" lon="6.83154">
        <ele>1988</ele>
        <time>2020-02-17T14:46:20.000Z</time>
      </trkpt>
      <trkpt lat="44.58431" lon="6.83156">
        <ele>1988</ele>
        <time>2020-02-17T14:46:22.000Z</time>
      </trkpt>
      <trkpt lat="44.58433" lon="6.83157">
        <ele>1987</ele>
        <time>2020-02-17T14:46:24.000Z</time>
      </trkpt>
      <trkpt lat="44.58437" lon="6.83159">
        <ele>1986</ele>
        <time>2020-02-17T14:46:27.000Z</time>
      </trkpt>
      <trkpt lat="44.58437" lon="6.83161">
        <ele>1986</ele>
        <time>2020-02-17T14:46:28.000Z</time>
      </trkpt>
      <trkpt lat="44.58437" lon="6.83163">
        <ele>1986</ele>
        <time>2020-02-17T14:46:30.000Z</time>
      </trkpt>
      <trkpt lat="44.58437" lon="6.83163">
        <ele>1987</ele>
        <time>2020-02-17T14:46:31.000Z</time>
      </trkpt>
      <trkpt lat="44.58442" lon="6.83165">
        <ele>1984</ele>
        <time>2020-02-17T14:46:36.000Z</time>
      </trkpt>
      <trkpt lat="44.58449" lon="6.83174">
        <ele>1998</ele>
        <time>2020-02-17T14:46:42.000Z</time>
      </trkpt>
      <trkpt lat="44.58451" lon="6.83173">
        <ele>1997</ele>
        <time>2020-02-17T14:46:45.000Z</time>
      </trkpt>
      <trkpt lat="44.58459" lon="6.83167">
        <ele>1995</ele>
        <time>2020-02-17T14:46:49.000Z</time>
      </trkpt>
      <trkpt lat="44.58464" lon="6.83163">
        <ele>1976</ele>
        <time>2020-02-17T14:46:52.000Z</time>
      </trkpt>
      <trkpt lat="44.58464" lon="6.83163">
        <ele>1976</ele>
        <time>2020-02-17T14:46:53.000Z</time>
      </trkpt>
      <trkpt lat="44.58464" lon="6.83163">
        <ele>1976</ele>
        <time>2020-02-17T14:46:54.000Z</time>
      </trkpt>
      <trkpt lat="44.58463" lon="6.83163">
        <ele>1976</ele>
        <time>2020-02-17T14:46:55.000Z</time>
      </trkpt>
      <trkpt lat="44.58464" lon="6.83165">
        <ele>1976</ele>
        <time>2020-02-17T14:46:58.000Z</time>
      </trkpt>
      <trkpt lat="44.5846" lon="6.83175">
        <ele>1995</ele>
        <time>2020-02-17T14:47:14.000Z</time>
      </trkpt>
      <trkpt lat="44.58454" lon="6.83183">
        <ele>1998</ele>
        <time>2020-02-17T14:47:23.000Z</time>
      </trkpt>
      <trkpt lat="44.58468" lon="6.83148">
        <ele>1973</ele>
        <time>2020-02-17T14:47:33.000Z</time>
      </trkpt>
      <trkpt lat="44.58457" lon="6.8316">
        <ele>1978</ele>
        <time>2020-02-17T14:47:40.000Z</time>
      </trkpt>
      <trkpt lat="44.58453" lon="6.83164">
        <ele>1979</ele>
        <time>2020-02-17T14:47:47.000Z</time>
      </trkpt>
      <trkpt lat="44.58453" lon="6.83167">
        <ele>1997</ele>
        <time>2020-02-17T14:47:52.000Z</time>
      </trkpt>
      <trkpt lat="44.58457" lon="6.83169">
        <ele>1996</ele>
        <time>2020-02-17T14:47:55.000Z</time>
      </trkpt>
      <trkpt lat="44.58457" lon="6.83169">
        <ele>1996</ele>
        <time>2020-02-17T14:47:57.000Z</time>
      </trkpt>
      <trkpt lat="44.58459" lon="6.83165">
        <ele>1977</ele>
        <time>2020-02-17T14:47:59.000Z</time>
      </trkpt>
      <trkpt lat="44.5846" lon="6.83161">
        <ele>1977</ele>
        <time>2020-02-17T14:48:02.000Z</time>
      </trkpt>
      <trkpt lat="44.58461" lon="6.83159">
        <ele>1976</ele>
        <time>2020-02-17T14:48:04.000Z</time>
      </trkpt>
      <trkpt lat="44.58461" lon="6.83157">
        <ele>1976</ele>
        <time>2020-02-17T14:48:06.000Z</time>
      </trkpt>
      <trkpt lat="44.5846" lon="6.83155">
        <ele>1976</ele>
        <time>2020-02-17T14:48:08.000Z</time>
      </trkpt>
      <trkpt lat="44.5846" lon="6.83154">
        <ele>1976</ele>
        <time>2020-02-17T14:48:09.000Z</time>
      </trkpt>
      <trkpt lat="44.5846" lon="6.83149">
        <ele>1976</ele>
        <time>2020-02-17T14:48:12.000Z</time>
      </trkpt>
      <trkpt lat="44.58459" lon="6.83147">
        <ele>1976</ele>
        <time>2020-02-17T14:48:14.000Z</time>
      </trkpt>
      <trkpt lat="44.5846" lon="6.83146">
        <ele>1975</ele>
        <time>2020-02-17T14:48:16.000Z</time>
      </trkpt>
      <trkpt lat="44.5846" lon="6.83142">
        <ele>1975</ele>
        <time>2020-02-17T14:48:18.000Z</time>
      </trkpt>
      <trkpt lat="44.58461" lon="6.83136">
        <ele>1974</ele>
        <time>2020-02-17T14:48:20.000Z</time>
      </trkpt>
      <trkpt lat="44.5846" lon="6.8313">
        <ele>1973</ele>
        <time>2020-02-17T14:48:22.000Z</time>
      </trkpt>
      <trkpt lat="44.58459" lon="6.83127">
        <ele>1972</ele>
        <time>2020-02-17T14:48:23.000Z</time>
      </trkpt>
      <trkpt lat="44.58456" lon="6.83121">
        <ele>1972</ele>
        <time>2020-02-17T14:48:25.000Z</time>
      </trkpt>
      <trkpt lat="44.58456" lon="6.83118">
        <ele>1971</ele>
        <time>2020-02-17T14:48:27.000Z</time>
      </trkpt>
      <trkpt lat="44.58454" lon="6.83112">
        <ele>1971</ele>
        <time>2020-02-17T14:48:30.000Z</time>
      </trkpt>
      <trkpt lat="44.58453" lon="6.83106">
        <ele>1970</ele>
        <time>2020-02-17T14:48:34.000Z</time>
      </trkpt>
      <trkpt lat="44.58452" lon="6.83104">
        <ele>1970</ele>
        <time>2020-02-17T14:48:35.000Z</time>
      </trkpt>
      <trkpt lat="44.58452" lon="6.83104">
        <ele>1970</ele>
        <time>2020-02-17T14:48:36.000Z</time>
      </trkpt>
      <trkpt lat="44.58452" lon="6.83102">
        <ele>1970</ele>
        <time>2020-02-17T14:48:37.000Z</time>
      </trkpt>
      <trkpt lat="44.58452" lon="6.831">
        <ele>1970</ele>
        <time>2020-02-17T14:48:38.000Z</time>
      </trkpt>
      <trkpt lat="44.58452" lon="6.83097">
        <ele>1970</ele>
        <time>2020-02-17T14:48:41.000Z</time>
      </trkpt>
      <trkpt lat="44.58452" lon="6.83094">
        <ele>1969</ele>
        <time>2020-02-17T14:48:42.000Z</time>
      </trkpt>
      <trkpt lat="44.58457" lon="6.83092">
        <ele>1968</ele>
        <time>2020-02-17T14:48:46.000Z</time>
      </trkpt>
      <trkpt lat="44.58459" lon="6.8309">
        <ele>1967</ele>
        <time>2020-02-17T14:48:48.000Z</time>
      </trkpt>
      <trkpt lat="44.5846" lon="6.8309">
        <ele>1967</ele>
        <time>2020-02-17T14:48:49.000Z</time>
      </trkpt>
      <trkpt lat="44.58459" lon="6.8309">
        <ele>1967</ele>
        <time>2020-02-17T14:48:50.000Z</time>
      </trkpt>
      <trkpt lat="44.58459" lon="6.83092">
        <ele>1967</ele>
        <time>2020-02-17T14:48:52.000Z</time>
      </trkpt>
      <trkpt lat="44.58461" lon="6.83087">
        <ele>1966</ele>
        <time>2020-02-17T14:48:55.000Z</time>
      </trkpt>
      <trkpt lat="44.58463" lon="6.83088">
        <ele>1966</ele>
        <time>2020-02-17T14:48:56.000Z</time>
      </trkpt>
      <trkpt lat="44.58468" lon="6.83092">
        <ele>1964</ele>
        <time>2020-02-17T14:48:58.000Z</time>
      </trkpt>
      <trkpt lat="44.58469" lon="6.83096">
        <ele>1964</ele>
        <time>2020-02-17T14:49:00.000Z</time>
      </trkpt>
      <trkpt lat="44.58473" lon="6.83098">
        <ele>1964</ele>
        <time>2020-02-17T14:49:03.000Z</time>
      </trkpt>
      <trkpt lat="44.58474" lon="6.83099">
        <ele>1963</ele>
        <time>2020-02-17T14:49:05.000Z</time>
      </trkpt>
      <trkpt lat="44.58474" lon="6.83099">
        <ele>1963</ele>
        <time>2020-02-17T14:49:08.000Z</time>
      </trkpt>
      <trkpt lat="44.58474" lon="6.83102">
        <ele>1964</ele>
        <time>2020-02-17T14:49:11.000Z</time>
      </trkpt>
      <trkpt lat="44.58476" lon="6.83102">
        <ele>1964</ele>
        <time>2020-02-17T14:49:12.000Z</time>
      </trkpt>
      <trkpt lat="44.58479" lon="6.83104">
        <ele>1963</ele>
        <time>2020-02-17T14:49:17.000Z</time>
      </trkpt>
      <trkpt lat="44.58483" lon="6.83104">
        <ele>1961</ele>
        <time>2020-02-17T14:49:27.000Z</time>
      </trkpt>
      <trkpt lat="44.58493" lon="6.83093">
        <ele>1953</ele>
        <time>2020-02-17T14:49:38.000Z</time>
      </trkpt>
      <trkpt lat="44.58502" lon="6.83101">
        <ele>1943</ele>
        <time>2020-02-17T14:49:45.000Z</time>
      </trkpt>
      <trkpt lat="44.5851" lon="6.83099">
        <ele>1943</ele>
        <time>2020-02-17T14:49:49.000Z</time>
      </trkpt>
      <trkpt lat="44.58501" lon="6.83101">
        <ele>1943</ele>
        <time>2020-02-17T14:49:52.000Z</time>
      </trkpt>
      <trkpt lat="44.58499" lon="6.83102">
        <ele>1957</ele>
        <time>2020-02-17T14:49:56.000Z</time>
      </trkpt>
      <trkpt lat="44.58496" lon="6.83105">
        <ele>1959</ele>
        <time>2020-02-17T14:49:57.000Z</time>
      </trkpt>
      <trkpt lat="44.58494" lon="6.83108">
        <ele>1961</ele>
        <time>2020-02-17T14:50:01.000Z</time>
      </trkpt>
      <trkpt lat="44.58502" lon="6.83109">
        <ele>1945</ele>
        <time>2020-02-17T14:50:10.000Z</time>
      </trkpt>
      <trkpt lat="44.58506" lon="6.83103">
        <ele>1944</ele>
        <time>2020-02-17T14:50:14.000Z</time>
      </trkpt>
      <trkpt lat="44.58504" lon="6.83098">
        <ele>1943</ele>
        <time>2020-02-17T14:50:20.000Z</time>
      </trkpt>
      <trkpt lat="44.58505" lon="6.83093">
        <ele>1942</ele>
        <time>2020-02-17T14:50:25.000Z</time>
      </trkpt>
      <trkpt lat="44.58497" lon="6.83093">
        <ele>1951</ele>
        <time>2020-02-17T14:50:29.000Z</time>
      </trkpt>
      <trkpt lat="44.58495" lon="6.83094">
        <ele>1952</ele>
        <time>2020-02-17T14:50:32.000Z</time>
      </trkpt>
      <trkpt lat="44.58493" lon="6.83093">
        <ele>1953</ele>
        <time>2020-02-17T14:50:34.000Z</time>
      </trkpt>
      <trkpt lat="44.58492" lon="6.83092">
        <ele>1953</ele>
        <time>2020-02-17T14:50:36.000Z</time>
      </trkpt>
      <trkpt lat="44.58492" lon="6.83091">
        <ele>1952</ele>
        <time>2020-02-17T14:50:38.000Z</time>
      </trkpt>
      <trkpt lat="44.58492" lon="6.83091">
        <ele>1952</ele>
        <time>2020-02-17T14:50:39.000Z</time>
      </trkpt>
      <trkpt lat="44.58491" lon="6.83089">
        <ele>1952</ele>
        <time>2020-02-17T14:50:41.000Z</time>
      </trkpt>
      <trkpt lat="44.58491" lon="6.83086">
        <ele>1951</ele>
        <time>2020-02-17T14:50:43.000Z</time>
      </trkpt>
      <trkpt lat="44.58489" lon="6.83085">
        <ele>1952</ele>
        <time>2020-02-17T14:50:44.000Z</time>
      </trkpt>
      <trkpt lat="44.58488" lon="6.83084">
        <ele>1953</ele>
        <time>2020-02-17T14:50:45.000Z</time>
      </trkpt>
      <trkpt lat="44.58488" lon="6.83083">
        <ele>1943</ele>
        <time>2020-02-17T14:50:46.000Z</time>
      </trkpt>
      <trkpt lat="44.58487" lon="6.83083">
        <ele>1953</ele>
        <time>2020-02-17T14:50:47.000Z</time>
      </trkpt>
      <trkpt lat="44.58487" lon="6.83083">
        <ele>1954</ele>
        <time>2020-02-17T14:50:48.000Z</time>
      </trkpt>
      <trkpt lat="44.58486" lon="6.83081">
        <ele>1944</ele>
        <time>2020-02-17T14:50:50.000Z</time>
      </trkpt>
      <trkpt lat="44.58487" lon="6.83081">
        <ele>1944</ele>
        <time>2020-02-17T14:50:54.000Z</time>
      </trkpt>
      <trkpt lat="44.58488" lon="6.83081">
        <ele>1943</ele>
        <time>2020-02-17T14:50:55.000Z</time>
      </trkpt>
      <trkpt lat="44.58488" lon="6.8308">
        <ele>1943</ele>
        <time>2020-02-17T14:50:56.000Z</time>
      </trkpt>
      <trkpt lat="44.58488" lon="6.83077">
        <ele>1943</ele>
        <time>2020-02-17T14:50:58.000Z</time>
      </trkpt>
      <trkpt lat="44.58489" lon="6.83071">
        <ele>1943</ele>
        <time>2020-02-17T14:51:00.000Z</time>
      </trkpt>
      <trkpt lat="44.5849" lon="6.8307">
        <ele>1943</ele>
        <time>2020-02-17T14:51:01.000Z</time>
      </trkpt>
      <trkpt lat="44.58491" lon="6.83067">
        <ele>1943</ele>
        <time>2020-02-17T14:51:02.000Z</time>
      </trkpt>
      <trkpt lat="44.58491" lon="6.83066">
        <ele>1943</ele>
        <time>2020-02-17T14:51:03.000Z</time>
      </trkpt>
      <trkpt lat="44.58491" lon="6.83063">
        <ele>1943</ele>
        <time>2020-02-17T14:51:04.000Z</time>
      </trkpt>
      <trkpt lat="44.58493" lon="6.83058">
        <ele>1943</ele>
        <time>2020-02-17T14:51:07.000Z</time>
      </trkpt>
      <trkpt lat="44.58494" lon="6.83056">
        <ele>1942</ele>
        <time>2020-02-17T14:51:08.000Z</time>
      </trkpt>
      <trkpt lat="44.58494" lon="6.83052">
        <ele>1942</ele>
        <time>2020-02-17T14:51:10.000Z</time>
      </trkpt>
      <trkpt lat="44.58494" lon="6.83049">
        <ele>1942</ele>
        <time>2020-02-17T14:51:11.000Z</time>
      </trkpt>
      <trkpt lat="44.58493" lon="6.8304">
        <ele>1940</ele>
        <time>2020-02-17T14:51:13.000Z</time>
      </trkpt>
      <trkpt lat="44.58491" lon="6.83034">
        <ele>1939</ele>
        <time>2020-02-17T14:51:15.000Z</time>
      </trkpt>
      <trkpt lat="44.58492" lon="6.83026">
        <ele>1937</ele>
        <time>2020-02-17T14:51:18.000Z</time>
      </trkpt>
      <trkpt lat="44.58492" lon="6.83021">
        <ele>1935</ele>
        <time>2020-02-17T14:51:19.000Z</time>
      </trkpt>
      <trkpt lat="44.58495" lon="6.8302">
        <ele>1934</ele>
        <time>2020-02-17T14:51:20.000Z</time>
      </trkpt>
      <trkpt lat="44.58497" lon="6.83019">
        <ele>1933</ele>
        <time>2020-02-17T14:51:21.000Z</time>
      </trkpt>
      <trkpt lat="44.585" lon="6.8302">
        <ele>1922</ele>
        <time>2020-02-17T14:51:22.000Z</time>
      </trkpt>
      <trkpt lat="44.58503" lon="6.8302">
        <ele>1922</ele>
        <time>2020-02-17T14:51:23.000Z</time>
      </trkpt>
      <trkpt lat="44.58504" lon="6.83019">
        <ele>1922</ele>
        <time>2020-02-17T14:51:24.000Z</time>
      </trkpt>
      <trkpt lat="44.58504" lon="6.83018">
        <ele>1922</ele>
        <time>2020-02-17T14:51:25.000Z</time>
      </trkpt>
      <trkpt lat="44.58505" lon="6.83018">
        <ele>1922</ele>
        <time>2020-02-17T14:51:27.000Z</time>
      </trkpt>
      <trkpt lat="44.58504" lon="6.8301">
        <ele>1921</ele>
        <time>2020-02-17T14:51:35.000Z</time>
      </trkpt>
      <trkpt lat="44.58506" lon="6.8301">
        <ele>1921</ele>
        <time>2020-02-17T14:51:37.000Z</time>
      </trkpt>
      <trkpt lat="44.5851" lon="6.83005">
        <ele>1921</ele>
        <time>2020-02-17T14:51:40.000Z</time>
      </trkpt>
      <trkpt lat="44.58511" lon="6.83003">
        <ele>1920</ele>
        <time>2020-02-17T14:51:42.000Z</time>
      </trkpt>
      <trkpt lat="44.5851" lon="6.83002">
        <ele>1920</ele>
        <time>2020-02-17T14:51:43.000Z</time>
      </trkpt>
      <trkpt lat="44.58504" lon="6.8299">
        <ele>1915</ele>
        <time>2020-02-17T14:52:04.000Z</time>
      </trkpt>
      <trkpt lat="44.58506" lon="6.8299">
        <ele>1914</ele>
        <time>2020-02-17T14:52:07.000Z</time>
      </trkpt>
      <trkpt lat="44.58508" lon="6.82991">
        <ele>1914</ele>
        <time>2020-02-17T14:52:12.000Z</time>
      </trkpt>
      <trkpt lat="44.58509" lon="6.82992">
        <ele>1914</ele>
        <time>2020-02-17T14:52:14.000Z</time>
      </trkpt>
      <trkpt lat="44.58509" lon="6.82988">
        <ele>1913</ele>
        <time>2020-02-17T14:52:18.000Z</time>
      </trkpt>
      <trkpt lat="44.58508" lon="6.82988">
        <ele>1913</ele>
        <time>2020-02-17T14:52:19.000Z</time>
      </trkpt>
      <trkpt lat="44.58507" lon="6.82993">
        <ele>1915</ele>
        <time>2020-02-17T14:52:23.000Z</time>
      </trkpt>
      <trkpt lat="44.58517" lon="6.82996">
        <ele>1912</ele>
        <time>2020-02-17T14:52:34.000Z</time>
      </trkpt>
      <trkpt lat="44.58518" lon="6.82995">
        <ele>1912</ele>
        <time>2020-02-17T14:52:36.000Z</time>
      </trkpt>
      <trkpt lat="44.58517" lon="6.82996">
        <ele>1912</ele>
        <time>2020-02-17T14:52:43.000Z</time>
      </trkpt>
      <trkpt lat="44.58517" lon="6.82995">
        <ele>1913</ele>
        <time>2020-02-17T14:52:45.000Z</time>
      </trkpt>
      <trkpt lat="44.58515" lon="6.82994">
        <ele>1913</ele>
        <time>2020-02-17T14:52:47.000Z</time>
      </trkpt>
      <trkpt lat="44.58513" lon="6.82995">
        <ele>1914</ele>
        <time>2020-02-17T14:52:51.000Z</time>
      </trkpt>
      <trkpt lat="44.5851" lon="6.82995">
        <ele>1915</ele>
        <time>2020-02-17T14:52:54.000Z</time>
      </trkpt>
      <trkpt lat="44.58507" lon="6.82994">
        <ele>1915</ele>
        <time>2020-02-17T14:52:56.000Z</time>
      </trkpt>
      <trkpt lat="44.58507" lon="6.82994">
        <ele>1915</ele>
        <time>2020-02-17T14:52:57.000Z</time>
      </trkpt>
      <trkpt lat="44.58507" lon="6.82994">
        <ele>1916</ele>
        <time>2020-02-17T14:52:58.000Z</time>
      </trkpt>
      <trkpt lat="44.58504" lon="6.82993">
        <ele>1916</ele>
        <time>2020-02-17T14:53:01.000Z</time>
      </trkpt>
      <trkpt lat="44.58503" lon="6.82993">
        <ele>1916</ele>
        <time>2020-02-17T14:53:02.000Z</time>
      </trkpt>
      <trkpt lat="44.58502" lon="6.82992">
        <ele>1916</ele>
        <time>2020-02-17T14:53:03.000Z</time>
      </trkpt>
      <trkpt lat="44.58498" lon="6.82991">
        <ele>1921</ele>
        <time>2020-02-17T14:53:07.000Z</time>
      </trkpt>
      <trkpt lat="44.58498" lon="6.82991">
        <ele>1921</ele>
        <time>2020-02-17T14:53:10.000Z</time>
      </trkpt>
      <trkpt lat="44.58496" lon="6.82991">
        <ele>1922</ele>
        <time>2020-02-17T14:53:12.000Z</time>
      </trkpt>
      <trkpt lat="44.58496" lon="6.82992">
        <ele>1921</ele>
        <time>2020-02-17T14:53:13.000Z</time>
      </trkpt>
      <trkpt lat="44.58492" lon="6.82995">
        <ele>1922</ele>
        <time>2020-02-17T14:53:25.000Z</time>
      </trkpt>
      <trkpt lat="44.58493" lon="6.82996">
        <ele>1922</ele>
        <time>2020-02-17T14:53:26.000Z</time>
      </trkpt>
      <trkpt lat="44.585" lon="6.82986">
        <ele>1914</ele>
        <time>2020-02-17T14:53:36.000Z</time>
      </trkpt>
      <trkpt lat="44.58502" lon="6.82987">
        <ele>1914</ele>
        <time>2020-02-17T14:53:39.000Z</time>
      </trkpt>
      <trkpt lat="44.58503" lon="6.82987">
        <ele>1914</ele>
        <time>2020-02-17T14:53:40.000Z</time>
      </trkpt>
      <trkpt lat="44.58504" lon="6.82988">
        <ele>1914</ele>
        <time>2020-02-17T14:53:41.000Z</time>
      </trkpt>
      <trkpt lat="44.58504" lon="6.82989">
        <ele>1914</ele>
        <time>2020-02-17T14:53:42.000Z</time>
      </trkpt>
      <trkpt lat="44.58505" lon="6.82989">
        <ele>1914</ele>
        <time>2020-02-17T14:53:43.000Z</time>
      </trkpt>
      <trkpt lat="44.58504" lon="6.82995">
        <ele>1916</ele>
        <time>2020-02-17T14:53:44.000Z</time>
      </trkpt>
      <trkpt lat="44.58506" lon="6.82995">
        <ele>1916</ele>
        <time>2020-02-17T14:53:47.000Z</time>
      </trkpt>
      <trkpt lat="44.58503" lon="6.8299">
        <ele>1915</ele>
        <time>2020-02-17T14:53:49.000Z</time>
      </trkpt>
      <trkpt lat="44.58502" lon="6.82981">
        <ele>1912</ele>
        <time>2020-02-17T14:53:53.000Z</time>
      </trkpt>
      <trkpt lat="44.58502" lon="6.8298">
        <ele>1912</ele>
        <time>2020-02-17T14:53:54.000Z</time>
      </trkpt>
      <trkpt lat="44.58501" lon="6.82978">
        <ele>1912</ele>
        <time>2020-02-17T14:53:58.000Z</time>
      </trkpt>
      <trkpt lat="44.58499" lon="6.82975">
        <ele>1922</ele>
        <time>2020-02-17T14:54:07.000Z</time>
      </trkpt>
      <trkpt lat="44.585" lon="6.82974">
        <ele>1911</ele>
        <time>2020-02-17T14:54:10.000Z</time>
      </trkpt>
      <trkpt lat="44.58506" lon="6.82975">
        <ele>1910</ele>
        <time>2020-02-17T14:54:15.000Z</time>
      </trkpt>
      <trkpt lat="44.58513" lon="6.82975">
        <ele>1910</ele>
        <time>2020-02-17T14:54:21.000Z</time>
      </trkpt>
      <trkpt lat="44.58512" lon="6.82974">
        <ele>1910</ele>
        <time>2020-02-17T14:54:28.000Z</time>
      </trkpt>
      <trkpt lat="44.58517" lon="6.82969">
        <ele>1908</ele>
        <time>2020-02-17T14:54:32.000Z</time>
      </trkpt>
      <trkpt lat="44.58518" lon="6.82966">
        <ele>1908</ele>
        <time>2020-02-17T14:54:33.000Z</time>
      </trkpt>
      <trkpt lat="44.58524" lon="6.82962">
        <ele>1907</ele>
        <time>2020-02-17T14:54:36.000Z</time>
      </trkpt>
      <trkpt lat="44.58526" lon="6.82961">
        <ele>1907</ele>
        <time>2020-02-17T14:54:38.000Z</time>
      </trkpt>
      <trkpt lat="44.58531" lon="6.82956">
        <ele>1906</ele>
        <time>2020-02-17T14:54:40.000Z</time>
      </trkpt>
      <trkpt lat="44.58535" lon="6.82955">
        <ele>1905</ele>
        <time>2020-02-17T14:54:41.000Z</time>
      </trkpt>
      <trkpt lat="44.58536" lon="6.82954">
        <ele>1905</ele>
        <time>2020-02-17T14:54:42.000Z</time>
      </trkpt>
      <trkpt lat="44.58538" lon="6.82953">
        <ele>1905</ele>
        <time>2020-02-17T14:54:43.000Z</time>
      </trkpt>
      <trkpt lat="44.5854" lon="6.82953">
        <ele>1905</ele>
        <time>2020-02-17T14:54:44.000Z</time>
      </trkpt>
      <trkpt lat="44.58546" lon="6.82953">
        <ele>1904</ele>
        <time>2020-02-17T14:54:46.000Z</time>
      </trkpt>
      <trkpt lat="44.58551" lon="6.82952">
        <ele>1904</ele>
        <time>2020-02-17T14:54:48.000Z</time>
      </trkpt>
      <trkpt lat="44.58552" lon="6.82951">
        <ele>1903</ele>
        <time>2020-02-17T14:54:50.000Z</time>
      </trkpt>
      <trkpt lat="44.58553" lon="6.82949">
        <ele>1903</ele>
        <time>2020-02-17T14:54:52.000Z</time>
      </trkpt>
      <trkpt lat="44.58558" lon="6.82945">
        <ele>1902</ele>
        <time>2020-02-17T14:54:57.000Z</time>
      </trkpt>
      <trkpt lat="44.58565" lon="6.82943">
        <ele>1901</ele>
        <time>2020-02-17T14:54:59.000Z</time>
      </trkpt>
      <trkpt lat="44.58573" lon="6.82937">
        <ele>1899</ele>
        <time>2020-02-17T14:55:01.000Z</time>
      </trkpt>
      <trkpt lat="44.58582" lon="6.82929">
        <ele>1896</ele>
        <time>2020-02-17T14:55:03.000Z</time>
      </trkpt>
      <trkpt lat="44.58594" lon="6.82924">
        <ele>1891</ele>
        <time>2020-02-17T14:55:05.000Z</time>
      </trkpt>
      <trkpt lat="44.58606" lon="6.82919">
        <ele>1891</ele>
        <time>2020-02-17T14:55:07.000Z</time>
      </trkpt>
      <trkpt lat="44.58615" lon="6.8291">
        <ele>1882</ele>
        <time>2020-02-17T14:55:09.000Z</time>
      </trkpt>
      <trkpt lat="44.58621" lon="6.82908">
        <ele>1881</ele>
        <time>2020-02-17T14:55:10.000Z</time>
      </trkpt>
      <trkpt lat="44.58626" lon="6.82907">
        <ele>1881</ele>
        <time>2020-02-17T14:55:11.000Z</time>
      </trkpt>
      <trkpt lat="44.58626" lon="6.82901">
        <ele>1881</ele>
        <time>2020-02-17T14:55:12.000Z</time>
      </trkpt>
      <trkpt lat="44.58631" lon="6.82902">
        <ele>1880</ele>
        <time>2020-02-17T14:55:14.000Z</time>
      </trkpt>
      <trkpt lat="44.58636" lon="6.82903">
        <ele>1880</ele>
        <time>2020-02-17T14:55:17.000Z</time>
      </trkpt>
      <trkpt lat="44.58638" lon="6.82903">
        <ele>1880</ele>
        <time>2020-02-17T14:55:20.000Z</time>
      </trkpt>
      <trkpt lat="44.58639" lon="6.82899">
        <ele>1880</ele>
        <time>2020-02-17T14:55:24.000Z</time>
      </trkpt>
      <trkpt lat="44.58642" lon="6.82901">
        <ele>1880</ele>
        <time>2020-02-17T14:55:33.000Z</time>
      </trkpt>
      <trkpt lat="44.58641" lon="6.82896">
        <ele>1880</ele>
        <time>2020-02-17T14:55:41.000Z</time>
      </trkpt>
      <trkpt lat="44.58641" lon="6.82887">
        <ele>1879</ele>
        <time>2020-02-17T14:55:50.000Z</time>
      </trkpt>
      <trkpt lat="44.58644" lon="6.82875">
        <ele>1877</ele>
        <time>2020-02-17T14:56:00.000Z</time>
      </trkpt>
      <trkpt lat="44.58645" lon="6.82874">
        <ele>1877</ele>
        <time>2020-02-17T14:56:03.000Z</time>
      </trkpt>
      <trkpt lat="44.58643" lon="6.82873">
        <ele>1877</ele>
        <time>2020-02-17T14:56:05.000Z</time>
      </trkpt>
      <trkpt lat="44.58641" lon="6.82871">
        <ele>1877</ele>
        <time>2020-02-17T14:56:10.000Z</time>
      </trkpt>
      <trkpt lat="44.58637" lon="6.82869">
        <ele>1877</ele>
        <time>2020-02-17T14:56:14.000Z</time>
      </trkpt>
      <trkpt lat="44.58636" lon="6.82866">
        <ele>1877</ele>
        <time>2020-02-17T14:56:23.000Z</time>
      </trkpt>
      <trkpt lat="44.58628" lon="6.82873">
        <ele>1878</ele>
        <time>2020-02-17T14:56:32.000Z</time>
      </trkpt>
      <trkpt lat="44.58628" lon="6.82874">
        <ele>1878</ele>
        <time>2020-02-17T14:56:33.000Z</time>
      </trkpt>
      <trkpt lat="44.58628" lon="6.82875">
        <ele>1878</ele>
        <time>2020-02-17T14:56:34.000Z</time>
      </trkpt>
      <trkpt lat="44.58628" lon="6.82877">
        <ele>1878</ele>
        <time>2020-02-17T14:56:35.000Z</time>
      </trkpt>
      <trkpt lat="44.5863" lon="6.82881">
        <ele>1879</ele>
        <time>2020-02-17T14:56:38.000Z</time>
      </trkpt>
      <trkpt lat="44.58628" lon="6.82884">
        <ele>1879</ele>
        <time>2020-02-17T14:56:41.000Z</time>
      </trkpt>
      <trkpt lat="44.58626" lon="6.82888">
        <ele>1879</ele>
        <time>2020-02-17T14:56:52.000Z</time>
      </trkpt>
      <trkpt lat="44.58634" lon="6.82884">
        <ele>1879</ele>
        <time>2020-02-17T14:57:01.000Z</time>
      </trkpt>
      <trkpt lat="44.58637" lon="6.82882">
        <ele>1878</ele>
        <time>2020-02-17T14:57:02.000Z</time>
      </trkpt>
      <trkpt lat="44.58648" lon="6.82871">
        <ele>1877</ele>
        <time>2020-02-17T14:57:06.000Z</time>
      </trkpt>
      <trkpt lat="44.58648" lon="6.82868">
        <ele>1876</ele>
        <time>2020-02-17T14:57:08.000Z</time>
      </trkpt>
      <trkpt lat="44.58648" lon="6.82867">
        <ele>1876</ele>
        <time>2020-02-17T14:57:11.000Z</time>
      </trkpt>
      <trkpt lat="44.58646" lon="6.82864">
        <ele>1876</ele>
        <time>2020-02-17T14:57:12.000Z</time>
      </trkpt>
      <trkpt lat="44.58647" lon="6.82863">
        <ele>1876</ele>
        <time>2020-02-17T14:57:14.000Z</time>
      </trkpt>
      <trkpt lat="44.58653" lon="6.82856">
        <ele>1874</ele>
        <time>2020-02-17T14:57:42.000Z</time>
      </trkpt>
      <trkpt lat="44.58655" lon="6.82854">
        <ele>1874</ele>
        <time>2020-02-17T14:57:46.000Z</time>
      </trkpt>
      <trkpt lat="44.58655" lon="6.82852">
        <ele>1874</ele>
        <time>2020-02-17T14:57:48.000Z</time>
      </trkpt>
      <trkpt lat="44.58656" lon="6.82843">
        <ele>1872</ele>
        <time>2020-02-17T14:57:51.000Z</time>
      </trkpt>
      <trkpt lat="44.58657" lon="6.8284">
        <ele>1871</ele>
        <time>2020-02-17T14:57:52.000Z</time>
      </trkpt>
      <trkpt lat="44.58657" lon="6.82837">
        <ele>1871</ele>
        <time>2020-02-17T14:57:53.000Z</time>
      </trkpt>
      <trkpt lat="44.58656" lon="6.8283">
        <ele>1868</ele>
        <time>2020-02-17T14:57:55.000Z</time>
      </trkpt>
      <trkpt lat="44.58653" lon="6.82821">
        <ele>1868</ele>
        <time>2020-02-17T14:57:57.000Z</time>
      </trkpt>
      <trkpt lat="44.5865" lon="6.82811">
        <ele>1869</ele>
        <time>2020-02-17T14:58:02.000Z</time>
      </trkpt>
      <trkpt lat="44.58648" lon="6.82809">
        <ele>1869</ele>
        <time>2020-02-17T14:58:04.000Z</time>
      </trkpt>
      <trkpt lat="44.58639" lon="6.828">
        <ele>1869</ele>
        <time>2020-02-17T14:58:16.000Z</time>
      </trkpt>
      <trkpt lat="44.58635" lon="6.82797">
        <ele>1869</ele>
        <time>2020-02-17T14:58:22.000Z</time>
      </trkpt>
      <trkpt lat="44.58635" lon="6.82797">
        <ele>1869</ele>
        <time>2020-02-17T14:58:24.000Z</time>
      </trkpt>
      <trkpt lat="44.58636" lon="6.82796">
        <ele>1869</ele>
        <time>2020-02-17T14:58:26.000Z</time>
      </trkpt>
      <trkpt lat="44.58635" lon="6.82795">
        <ele>1869</ele>
        <time>2020-02-17T14:58:28.000Z</time>
      </trkpt>
      <trkpt lat="44.58635" lon="6.82791">
        <ele>1869</ele>
        <time>2020-02-17T14:58:41.000Z</time>
      </trkpt>
      <trkpt lat="44.58637" lon="6.82785">
        <ele>1869</ele>
        <time>2020-02-17T14:58:55.000Z</time>
      </trkpt>
      <trkpt lat="44.58639" lon="6.82792">
        <ele>1869</ele>
        <time>2020-02-17T14:59:07.000Z</time>
      </trkpt>
      <trkpt lat="44.58636" lon="6.82793">
        <ele>1869</ele>
        <time>2020-02-17T14:59:16.000Z</time>
      </trkpt>
      <trkpt lat="44.5863" lon="6.8279">
        <ele>1869</ele>
        <time>2020-02-17T14:59:23.000Z</time>
      </trkpt>
      <trkpt lat="44.58628" lon="6.82786">
        <ele>1869</ele>
        <time>2020-02-17T14:59:31.000Z</time>
      </trkpt>
      <trkpt lat="44.58627" lon="6.82784">
        <ele>1869</ele>
        <time>2020-02-17T14:59:36.000Z</time>
      </trkpt>
      <trkpt lat="44.58628" lon="6.82785">
        <ele>1869</ele>
        <time>2020-02-17T14:59:45.000Z</time>
      </trkpt>
      <trkpt lat="44.58629" lon="6.82786">
        <ele>1869</ele>
        <time>2020-02-17T14:59:47.000Z</time>
      </trkpt>
      <trkpt lat="44.58629" lon="6.82788">
        <ele>1869</ele>
        <time>2020-02-17T14:59:50.000Z</time>
      </trkpt>
      <trkpt lat="44.58632" lon="6.8279">
        <ele>1869</ele>
        <time>2020-02-17T14:59:57.000Z</time>
      </trkpt>
      <trkpt lat="44.58622" lon="6.82793">
        <ele>1869</ele>
        <time>2020-02-17T15:00:16.000Z</time>
      </trkpt>
      <trkpt lat="44.58622" lon="6.82794">
        <ele>1869</ele>
        <time>2020-02-17T15:00:19.000Z</time>
      </trkpt>
      <trkpt lat="44.58623" lon="6.82793">
        <ele>1869</ele>
        <time>2020-02-17T15:00:21.000Z</time>
      </trkpt>
      <trkpt lat="44.58623" lon="6.82793">
        <ele>1869</ele>
        <time>2020-02-17T15:00:24.000Z</time>
      </trkpt>
      <trkpt lat="44.58628" lon="6.82783">
        <ele>1869</ele>
        <time>2020-02-17T15:00:33.000Z</time>
      </trkpt>
      <trkpt lat="44.58627" lon="6.82784">
        <ele>1869</ele>
        <time>2020-02-17T15:00:35.000Z</time>
      </trkpt>
      <trkpt lat="44.58628" lon="6.82783">
        <ele>1869</ele>
        <time>2020-02-17T15:00:39.000Z</time>
      </trkpt>
      <trkpt lat="44.58628" lon="6.82782">
        <ele>1869</ele>
        <time>2020-02-17T15:00:40.000Z</time>
      </trkpt>
      <trkpt lat="44.58628" lon="6.82779">
        <ele>1869</ele>
        <time>2020-02-17T15:00:43.000Z</time>
      </trkpt>
      <trkpt lat="44.58629" lon="6.82777">
        <ele>1869</ele>
        <time>2020-02-17T15:00:44.000Z</time>
      </trkpt>
      <trkpt lat="44.58629" lon="6.82774">
        <ele>1869</ele>
        <time>2020-02-17T15:00:45.000Z</time>
      </trkpt>
      <trkpt lat="44.58629" lon="6.82772">
        <ele>1869</ele>
        <time>2020-02-17T15:00:46.000Z</time>
      </trkpt>
      <trkpt lat="44.58629" lon="6.8277">
        <ele>1869</ele>
        <time>2020-02-17T15:00:48.000Z</time>
      </trkpt>
      <trkpt lat="44.5863" lon="6.82768">
        <ele>1869</ele>
        <time>2020-02-17T15:00:49.000Z</time>
      </trkpt>
      <trkpt lat="44.5863" lon="6.82765">
        <ele>1869</ele>
        <time>2020-02-17T15:00:51.000Z</time>
      </trkpt>
      <trkpt lat="44.5863" lon="6.82762">
        <ele>1869</ele>
        <time>2020-02-17T15:00:54.000Z</time>
      </trkpt>
      <trkpt lat="44.58631" lon="6.8276">
        <ele>1869</ele>
        <time>2020-02-17T15:00:57.000Z</time>
      </trkpt>
      <trkpt lat="44.58631" lon="6.82757">
        <ele>1869</ele>
        <time>2020-02-17T15:01:00.000Z</time>
      </trkpt>
      <trkpt lat="44.5863" lon="6.82755">
        <ele>1869</ele>
        <time>2020-02-17T15:01:02.000Z</time>
      </trkpt>
      <trkpt lat="44.5863" lon="6.82755">
        <ele>1869</ele>
        <time>2020-02-17T15:01:03.000Z</time>
      </trkpt>
      <trkpt lat="44.58635" lon="6.82758">
        <ele>1869</ele>
        <time>2020-02-17T15:01:13.000Z</time>
      </trkpt>
      <trkpt lat="44.58636" lon="6.82759">
        <ele>1869</ele>
        <time>2020-02-17T15:01:18.000Z</time>
      </trkpt>
      <trkpt lat="44.58637" lon="6.82759">
        <ele>1869</ele>
        <time>2020-02-17T15:01:35.000Z</time>
      </trkpt>
      <trkpt lat="44.58635" lon="6.82762">
        <ele>1869</ele>
        <time>2020-02-17T15:01:43.000Z</time>
      </trkpt>
      <trkpt lat="44.58636" lon="6.82763">
        <ele>1869</ele>
        <time>2020-02-17T15:01:46.000Z</time>
      </trkpt>
      <trkpt lat="44.58635" lon="6.82761">
        <ele>1869</ele>
        <time>2020-02-17T15:01:56.000Z</time>
      </trkpt>
      <trkpt lat="44.58636" lon="6.8276">
        <ele>1869</ele>
        <time>2020-02-17T15:02:02.000Z</time>
      </trkpt>
      <trkpt lat="44.58637" lon="6.82762">
        <ele>1869</ele>
        <time>2020-02-17T15:02:08.000Z</time>
      </trkpt>
      <trkpt lat="44.58638" lon="6.82762">
        <ele>1869</ele>
        <time>2020-02-17T15:02:14.000Z</time>
      </trkpt>
      <trkpt lat="44.58638" lon="6.82762">
        <ele>1869</ele>
        <time>2020-02-17T15:02:16.000Z</time>
      </trkpt>
      <trkpt lat="44.58637" lon="6.82762">
        <ele>1869</ele>
        <time>2020-02-17T15:02:38.000Z</time>
      </trkpt>
      <trkpt lat="44.58638" lon="6.8276">
        <ele>1869</ele>
        <time>2020-02-17T15:02:48.000Z</time>
      </trkpt>
      <trkpt lat="44.58637" lon="6.82761">
        <ele>1869</ele>
        <time>2020-02-17T15:02:58.000Z</time>
      </trkpt>
      <trkpt lat="44.58637" lon="6.82761">
        <ele>1869</ele>
        <time>2020-02-17T15:03:00.000Z</time>
      </trkpt>
      <trkpt lat="44.58637" lon="6.82762">
        <ele>1869</ele>
        <time>2020-02-17T15:03:07.000Z</time>
      </trkpt>
      <trkpt lat="44.58638" lon="6.82763">
        <ele>1869</ele>
        <time>2020-02-17T15:03:10.000Z</time>
      </trkpt>
      <trkpt lat="44.58636" lon="6.82764">
        <ele>1869</ele>
        <time>2020-02-17T15:03:15.000Z</time>
      </trkpt>
      <trkpt lat="44.58634" lon="6.82761">
        <ele>1869</ele>
        <time>2020-02-17T15:03:24.000Z</time>
      </trkpt>
      <trkpt lat="44.58636" lon="6.82759">
        <ele>1869</ele>
        <time>2020-02-17T15:03:29.000Z</time>
      </trkpt>
      <trkpt lat="44.58637" lon="6.82759">
        <ele>1869</ele>
        <time>2020-02-17T15:03:34.000Z</time>
      </trkpt>
      <trkpt lat="44.58638" lon="6.8276">
        <ele>1869</ele>
        <time>2020-02-17T15:03:37.000Z</time>
      </trkpt>
      <trkpt lat="44.5864" lon="6.82762">
        <ele>1869</ele>
        <time>2020-02-17T15:03:45.000Z</time>
      </trkpt>
      <trkpt lat="44.58641" lon="6.82762">
        <ele>1869</ele>
        <time>2020-02-17T15:03:47.000Z</time>
      </trkpt>
      <trkpt lat="44.58638" lon="6.82765">
        <ele>1869</ele>
        <time>2020-02-17T15:03:55.000Z</time>
      </trkpt>
      <trkpt lat="44.58638" lon="6.8276">
        <ele>1869</ele>
        <time>2020-02-17T15:04:06.000Z</time>
      </trkpt>
      <trkpt lat="44.58638" lon="6.8276">
        <ele>1869</ele>
        <time>2020-02-17T15:04:08.000Z</time>
      </trkpt>
      <trkpt lat="44.58639" lon="6.82762">
        <ele>1869</ele>
        <time>2020-02-17T15:04:13.000Z</time>
      </trkpt>
      <trkpt lat="44.58638" lon="6.82758">
        <ele>1869</ele>
        <time>2020-02-17T15:04:26.000Z</time>
      </trkpt>
      <trkpt lat="44.58637" lon="6.82758">
        <ele>1869</ele>
        <time>2020-02-17T15:04:30.000Z</time>
      </trkpt>
      <trkpt lat="44.58637" lon="6.82758">
        <ele>1869</ele>
        <time>2020-02-17T15:04:31.000Z</time>
      </trkpt>
      <trkpt lat="44.5864" lon="6.82759">
        <ele>1869</ele>
        <time>2020-02-17T15:04:44.000Z</time>
      </trkpt>
      <trkpt lat="44.58641" lon="6.82759">
        <ele>1869</ele>
        <time>2020-02-17T15:04:51.000Z</time>
      </trkpt>
      <trkpt lat="44.58637" lon="6.82758">
        <ele>1869</ele>
        <time>2020-02-17T15:05:02.000Z</time>
      </trkpt>
      <trkpt lat="44.58637" lon="6.82758">
        <ele>1869</ele>
        <time>2020-02-17T15:05:04.000Z</time>
      </trkpt>
      <trkpt lat="44.58638" lon="6.82764">
        <ele>1869</ele>
        <time>2020-02-17T15:05:24.000Z</time>
      </trkpt>
      <trkpt lat="44.58638" lon="6.82763">
        <ele>1869</ele>
        <time>2020-02-17T15:05:26.000Z</time>
      </trkpt>
      <trkpt lat="44.58639" lon="6.82759">
        <ele>1869</ele>
        <time>2020-02-17T15:05:30.000Z</time>
      </trkpt>
      <trkpt lat="44.58639" lon="6.82758">
        <ele>1869</ele>
        <time>2020-02-17T15:05:35.000Z</time>
      </trkpt>
      <trkpt lat="44.58639" lon="6.82759">
        <ele>1869</ele>
        <time>2020-02-17T15:05:46.000Z</time>
      </trkpt>
      <trkpt lat="44.58639" lon="6.82759">
        <ele>1869</ele>
        <time>2020-02-17T15:05:48.000Z</time>
      </trkpt>
      <trkpt lat="44.58639" lon="6.82758">
        <ele>1869</ele>
        <time>2020-02-17T15:05:49.000Z</time>
      </trkpt>
      <trkpt lat="44.58639" lon="6.82759">
        <ele>1869</ele>
        <time>2020-02-17T15:05:51.000Z</time>
      </trkpt>
      <trkpt lat="44.58638" lon="6.82759">
        <ele>1869</ele>
        <time>2020-02-17T15:05:52.000Z</time>
      </trkpt>
      <trkpt lat="44.58639" lon="6.82758">
        <ele>1869</ele>
        <time>2020-02-17T15:05:53.000Z</time>
      </trkpt>
      <trkpt lat="44.5864" lon="6.82759">
        <ele>1869</ele>
        <time>2020-02-17T15:05:55.000Z</time>
      </trkpt>
      <trkpt lat="44.5864" lon="6.8276">
        <ele>1869</ele>
        <time>2020-02-17T15:06:00.000Z</time>
      </trkpt>
      <trkpt lat="44.58641" lon="6.82763">
        <ele>1869</ele>
        <time>2020-02-17T15:06:07.000Z</time>
      </trkpt>
      <trkpt lat="44.58641" lon="6.82763">
        <ele>1869</ele>
        <time>2020-02-17T15:06:09.000Z</time>
      </trkpt>
      <trkpt lat="44.58641" lon="6.82763">
        <ele>1869</ele>
        <time>2020-02-17T15:06:15.000Z</time>
      </trkpt>
      <trkpt lat="44.58641" lon="6.82763">
        <ele>1869</ele>
        <time>2020-02-17T15:06:19.000Z</time>
      </trkpt>
      <trkpt lat="44.58642" lon="6.8276">
        <ele>1869</ele>
        <time>2020-02-17T15:06:31.000Z</time>
      </trkpt>
      <trkpt lat="44.58643" lon="6.82761">
        <ele>1869</ele>
        <time>2020-02-17T15:06:37.000Z</time>
      </trkpt>
      <trkpt lat="44.58646" lon="6.82762">
        <ele>1870</ele>
        <time>2020-02-17T15:06:42.000Z</time>
      </trkpt>
      <trkpt lat="44.58646" lon="6.82762">
        <ele>1870</ele>
        <time>2020-02-17T15:06:44.000Z</time>
      </trkpt>
      <trkpt lat="44.58647" lon="6.82763">
        <ele>1870</ele>
        <time>2020-02-17T15:06:45.000Z</time>
      </trkpt>
      <trkpt lat="44.58646" lon="6.82763">
        <ele>1870</ele>
        <time>2020-02-17T15:06:47.000Z</time>
      </trkpt>
      <trkpt lat="44.58647" lon="6.82763">
        <ele>1870</ele>
        <time>2020-02-17T15:06:51.000Z</time>
      </trkpt>
      <trkpt lat="44.58648" lon="6.82764">
        <ele>1870</ele>
        <time>2020-02-17T15:06:53.000Z</time>
      </trkpt>
      <trkpt lat="44.58647" lon="6.82766">
        <ele>1870</ele>
        <time>2020-02-17T15:06:57.000Z</time>
      </trkpt>
      <trkpt lat="44.58643" lon="6.82766">
        <ele>1869</ele>
        <time>2020-02-17T15:07:02.000Z</time>
      </trkpt>
      <trkpt lat="44.5865" lon="6.82762">
        <ele>1870</ele>
        <time>2020-02-17T15:07:19.000Z</time>
      </trkpt>
      <trkpt lat="44.58653" lon="6.82762">
        <ele>1870</ele>
        <time>2020-02-17T15:07:25.000Z</time>
      </trkpt>
      <trkpt lat="44.58653" lon="6.82761">
        <ele>1870</ele>
        <time>2020-02-17T15:07:26.000Z</time>
      </trkpt>
      <trkpt lat="44.58654" lon="6.8276">
        <ele>1870</ele>
        <time>2020-02-17T15:07:27.000Z</time>
      </trkpt>
      <trkpt lat="44.58654" lon="6.82759">
        <ele>1870</ele>
        <time>2020-02-17T15:07:29.000Z</time>
      </trkpt>
      <trkpt lat="44.58656" lon="6.8276">
        <ele>1870</ele>
        <time>2020-02-17T15:07:31.000Z</time>
      </trkpt>
      <trkpt lat="44.58656" lon="6.8276">
        <ele>1870</ele>
        <time>2020-02-17T15:07:32.000Z</time>
      </trkpt>
      <trkpt lat="44.58658" lon="6.82761">
        <ele>1870</ele>
        <time>2020-02-17T15:07:35.000Z</time>
      </trkpt>
      <trkpt lat="44.58659" lon="6.82762">
        <ele>1870</ele>
        <time>2020-02-17T15:07:36.000Z</time>
      </trkpt>
      <trkpt lat="44.5866" lon="6.82763">
        <ele>1870</ele>
        <time>2020-02-17T15:07:38.000Z</time>
      </trkpt>
      <trkpt lat="44.58661" lon="6.82764">
        <ele>1870</ele>
        <time>2020-02-17T15:07:39.000Z</time>
      </trkpt>
      <trkpt lat="44.58663" lon="6.82764">
        <ele>1870</ele>
        <time>2020-02-17T15:07:40.000Z</time>
      </trkpt>
      <trkpt lat="44.58665" lon="6.82768">
        <ele>1870</ele>
        <time>2020-02-17T15:07:43.000Z</time>
      </trkpt>
      <trkpt lat="44.58669" lon="6.82771">
        <ele>1878</ele>
        <time>2020-02-17T15:07:47.000Z</time>
      </trkpt>
      <trkpt lat="44.58669" lon="6.82772">
        <ele>1878</ele>
        <time>2020-02-17T15:07:48.000Z</time>
      </trkpt>
      <trkpt lat="44.5867" lon="6.82775">
        <ele>1878</ele>
        <time>2020-02-17T15:07:51.000Z</time>
      </trkpt>
      <trkpt lat="44.58677" lon="6.82781">
        <ele>1879</ele>
        <time>2020-02-17T15:07:57.000Z</time>
      </trkpt>
      <trkpt lat="44.58691" lon="6.82793">
        <ele>1881</ele>
        <time>2020-02-17T15:08:10.000Z</time>
      </trkpt>
      <trkpt lat="44.58697" lon="6.828">
        <ele>1881</ele>
        <time>2020-02-17T15:08:17.000Z</time>
      </trkpt>
      <trkpt lat="44.58701" lon="6.82807">
        <ele>1881</ele>
        <time>2020-02-17T15:08:22.000Z</time>
      </trkpt>
      <trkpt lat="44.58706" lon="6.82813">
        <ele>1882</ele>
        <time>2020-02-17T15:08:27.000Z</time>
      </trkpt>
      <trkpt lat="44.5871" lon="6.82818">
        <ele>1882</ele>
        <time>2020-02-17T15:08:31.000Z</time>
      </trkpt>
      <trkpt lat="44.58717" lon="6.82831">
        <ele>1883</ele>
        <time>2020-02-17T15:08:41.000Z</time>
      </trkpt>
      <trkpt lat="44.58718" lon="6.82836">
        <ele>1879</ele>
        <time>2020-02-17T15:08:44.000Z</time>
      </trkpt>
      <trkpt lat="44.58719" lon="6.82839">
        <ele>1879</ele>
        <time>2020-02-17T15:08:46.000Z</time>
      </trkpt>
      <trkpt lat="44.58727" lon="6.8285">
        <ele>1880</ele>
        <time>2020-02-17T15:08:55.000Z</time>
      </trkpt>
      <trkpt lat="44.5873" lon="6.82855">
        <ele>1880</ele>
        <time>2020-02-17T15:08:59.000Z</time>
      </trkpt>
      <trkpt lat="44.5873" lon="6.82856">
        <ele>1880</ele>
        <time>2020-02-17T15:09:00.000Z</time>
      </trkpt>
      <trkpt lat="44.58733" lon="6.82859">
        <ele>1880</ele>
        <time>2020-02-17T15:09:02.000Z</time>
      </trkpt>
      <trkpt lat="44.58735" lon="6.82862">
        <ele>1880</ele>
        <time>2020-02-17T15:09:05.000Z</time>
      </trkpt>
      <trkpt lat="44.58747" lon="6.82882">
        <ele>1879</ele>
        <time>2020-02-17T15:09:20.000Z</time>
      </trkpt>
      <trkpt lat="44.58756" lon="6.82907">
        <ele>1885</ele>
        <time>2020-02-17T15:09:35.000Z</time>
      </trkpt>
      <trkpt lat="44.58759" lon="6.82916">
        <ele>1884</ele>
        <time>2020-02-17T15:09:40.000Z</time>
      </trkpt>
      <trkpt lat="44.5876" lon="6.82918">
        <ele>1880</ele>
        <time>2020-02-17T15:09:41.000Z</time>
      </trkpt>
      <trkpt lat="44.58765" lon="6.8293">
        <ele>1883</ele>
        <time>2020-02-17T15:09:47.000Z</time>
      </trkpt>
      <trkpt lat="44.58767" lon="6.82934">
        <ele>1883</ele>
        <time>2020-02-17T15:09:49.000Z</time>
      </trkpt>
      <trkpt lat="44.58772" lon="6.82954">
        <ele>1885</ele>
        <time>2020-02-17T15:09:57.000Z</time>
      </trkpt>
      <trkpt lat="44.58775" lon="6.82967">
        <ele>1885</ele>
        <time>2020-02-17T15:10:02.000Z</time>
      </trkpt>
      <trkpt lat="44.58777" lon="6.82976">
        <ele>1884</ele>
        <time>2020-02-17T15:10:06.000Z</time>
      </trkpt>
      <trkpt lat="44.5878" lon="6.82987">
        <ele>1884</ele>
        <time>2020-02-17T15:10:12.000Z</time>
      </trkpt>
      <trkpt lat="44.58781" lon="6.82991">
        <ele>1884</ele>
        <time>2020-02-17T15:10:14.000Z</time>
      </trkpt>
      <trkpt lat="44.58782" lon="6.82994">
        <ele>1884</ele>
        <time>2020-02-17T15:10:16.000Z</time>
      </trkpt>
      <trkpt lat="44.58783" lon="6.82995">
        <ele>1884</ele>
        <time>2020-02-17T15:10:17.000Z</time>
      </trkpt>
      <trkpt lat="44.58784" lon="6.82996">
        <ele>1884</ele>
        <time>2020-02-17T15:10:19.000Z</time>
      </trkpt>
      <trkpt lat="44.58784" lon="6.82997">
        <ele>1884</ele>
        <time>2020-02-17T15:10:21.000Z</time>
      </trkpt>
      <trkpt lat="44.58785" lon="6.83">
        <ele>1881</ele>
        <time>2020-02-17T15:10:24.000Z</time>
      </trkpt>
      <trkpt lat="44.58785" lon="6.83001">
        <ele>1881</ele>
        <time>2020-02-17T15:10:25.000Z</time>
      </trkpt>
      <trkpt lat="44.58787" lon="6.83002">
        <ele>1881</ele>
        <time>2020-02-17T15:10:27.000Z</time>
      </trkpt>
      <trkpt lat="44.5879" lon="6.83007">
        <ele>1881</ele>
        <time>2020-02-17T15:10:31.000Z</time>
      </trkpt>
      <trkpt lat="44.58791" lon="6.83008">
        <ele>1881</ele>
        <time>2020-02-17T15:10:32.000Z</time>
      </trkpt>
      <trkpt lat="44.58792" lon="6.83009">
        <ele>1881</ele>
        <time>2020-02-17T15:10:33.000Z</time>
      </trkpt>
      <trkpt lat="44.58796" lon="6.83021">
        <ele>1881</ele>
        <time>2020-02-17T15:10:42.000Z</time>
      </trkpt>
      <trkpt lat="44.58801" lon="6.83029">
        <ele>1881</ele>
        <time>2020-02-17T15:10:49.000Z</time>
      </trkpt>
      <trkpt lat="44.58808" lon="6.8304">
        <ele>1881</ele>
        <time>2020-02-17T15:10:57.000Z</time>
      </trkpt>
      <trkpt lat="44.58823" lon="6.83057">
        <ele>1878</ele>
        <time>2020-02-17T15:11:10.000Z</time>
      </trkpt>
      <trkpt lat="44.58825" lon="6.8306">
        <ele>1878</ele>
        <time>2020-02-17T15:11:12.000Z</time>
      </trkpt>
      <trkpt lat="44.58828" lon="6.83067">
        <ele>1876</ele>
        <time>2020-02-17T15:11:17.000Z</time>
      </trkpt>
      <trkpt lat="44.58829" lon="6.83078">
        <ele>1874</ele>
        <time>2020-02-17T15:11:23.000Z</time>
      </trkpt>
      <trkpt lat="44.58832" lon="6.83084">
        <ele>1872</ele>
        <time>2020-02-17T15:11:27.000Z</time>
      </trkpt>
      <trkpt lat="44.58833" lon="6.8309">
        <ele>1875</ele>
        <time>2020-02-17T15:11:31.000Z</time>
      </trkpt>
      <trkpt lat="44.58834" lon="6.83092">
        <ele>1876</ele>
        <time>2020-02-17T15:11:33.000Z</time>
      </trkpt>
      <trkpt lat="44.58839" lon="6.83102">
        <ele>1879</ele>
        <time>2020-02-17T15:11:39.000Z</time>
      </trkpt>
      <trkpt lat="44.58845" lon="6.83114">
        <ele>1882</ele>
        <time>2020-02-17T15:11:47.000Z</time>
      </trkpt>
      <trkpt lat="44.58846" lon="6.8312">
        <ele>1883</ele>
        <time>2020-02-17T15:11:51.000Z</time>
      </trkpt>
      <trkpt lat="44.58857" lon="6.83131">
        <ele>1884</ele>
        <time>2020-02-17T15:12:02.000Z</time>
      </trkpt>
      <trkpt lat="44.5886" lon="6.83133">
        <ele>1884</ele>
        <time>2020-02-17T15:12:06.000Z</time>
      </trkpt>
      <trkpt lat="44.58864" lon="6.83137">
        <ele>1885</ele>
        <time>2020-02-17T15:12:12.000Z</time>
      </trkpt>
      <trkpt lat="44.58869" lon="6.83143">
        <ele>1885</ele>
        <time>2020-02-17T15:12:17.000Z</time>
      </trkpt>
      <trkpt lat="44.58872" lon="6.83146">
        <ele>1886</ele>
        <time>2020-02-17T15:12:19.000Z</time>
      </trkpt>
      <trkpt lat="44.58881" lon="6.83158">
        <ele>1887</ele>
        <time>2020-02-17T15:12:28.000Z</time>
      </trkpt>
      <trkpt lat="44.58887" lon="6.83166">
        <ele>1888</ele>
        <time>2020-02-17T15:12:34.000Z</time>
      </trkpt>
      <trkpt lat="44.58891" lon="6.83177">
        <ele>1884</ele>
        <time>2020-02-17T15:12:41.000Z</time>
      </trkpt>
      <trkpt lat="44.58895" lon="6.83186">
        <ele>1883</ele>
        <time>2020-02-17T15:12:46.000Z</time>
      </trkpt>
      <trkpt lat="44.58904" lon="6.83218">
        <ele>1881</ele>
        <time>2020-02-17T15:13:05.000Z</time>
      </trkpt>
      <trkpt lat="44.58907" lon="6.83223">
        <ele>1881</ele>
        <time>2020-02-17T15:13:08.000Z</time>
      </trkpt>
      <trkpt lat="44.58911" lon="6.83231">
        <ele>1881</ele>
        <time>2020-02-17T15:13:14.000Z</time>
      </trkpt>
      <trkpt lat="44.5892" lon="6.8325">
        <ele>1883</ele>
        <time>2020-02-17T15:13:25.000Z</time>
      </trkpt>
      <trkpt lat="44.5892" lon="6.83256">
        <ele>1884</ele>
        <time>2020-02-17T15:13:28.000Z</time>
      </trkpt>
      <trkpt lat="44.58921" lon="6.83261">
        <ele>1885</ele>
        <time>2020-02-17T15:13:31.000Z</time>
      </trkpt>
      <trkpt lat="44.58922" lon="6.83268">
        <ele>1887</ele>
        <time>2020-02-17T15:13:36.000Z</time>
      </trkpt>
      <trkpt lat="44.58923" lon="6.83273">
        <ele>1887</ele>
        <time>2020-02-17T15:13:39.000Z</time>
      </trkpt>
      <trkpt lat="44.58931" lon="6.83289">
        <ele>1889</ele>
        <time>2020-02-17T15:13:50.000Z</time>
      </trkpt>
      <trkpt lat="44.5895" lon="6.83346">
        <ele>1883</ele>
        <time>2020-02-17T15:14:26.000Z</time>
      </trkpt>
      <trkpt lat="44.58955" lon="6.83363">
        <ele>1883</ele>
        <time>2020-02-17T15:14:35.000Z</time>
      </trkpt>
      <trkpt lat="44.58955" lon="6.83364">
        <ele>1883</ele>
        <time>2020-02-17T15:14:36.000Z</time>
      </trkpt>
      <trkpt lat="44.58956" lon="6.83366">
        <ele>1883</ele>
        <time>2020-02-17T15:14:37.000Z</time>
      </trkpt>
      <trkpt lat="44.5896" lon="6.83375">
        <ele>1883</ele>
        <time>2020-02-17T15:14:44.000Z</time>
      </trkpt>
      <trkpt lat="44.58962" lon="6.83379">
        <ele>1883</ele>
        <time>2020-02-17T15:14:47.000Z</time>
      </trkpt>
      <trkpt lat="44.58962" lon="6.8338">
        <ele>1883</ele>
        <time>2020-02-17T15:14:48.000Z</time>
      </trkpt>
      <trkpt lat="44.58973" lon="6.83404">
        <ele>1884</ele>
        <time>2020-02-17T15:15:02.000Z</time>
      </trkpt>
      <trkpt lat="44.58981" lon="6.83418">
        <ele>1883</ele>
        <time>2020-02-17T15:15:11.000Z</time>
      </trkpt>
      <trkpt lat="44.58984" lon="6.83431">
        <ele>1882</ele>
        <time>2020-02-17T15:15:17.000Z</time>
      </trkpt>
      <trkpt lat="44.58987" lon="6.83441">
        <ele>1882</ele>
        <time>2020-02-17T15:15:23.000Z</time>
      </trkpt>
      <trkpt lat="44.58991" lon="6.83478">
        <ele>1881</ele>
        <time>2020-02-17T15:15:45.000Z</time>
      </trkpt>
      <trkpt lat="44.58994" lon="6.83504">
        <ele>1881</ele>
        <time>2020-02-17T15:16:02.000Z</time>
      </trkpt>
      <trkpt lat="44.58996" lon="6.83507">
        <ele>1881</ele>
        <time>2020-02-17T15:16:05.000Z</time>
      </trkpt>
      <trkpt lat="44.59004" lon="6.8352">
        <ele>1888</ele>
        <time>2020-02-17T15:16:17.000Z</time>
      </trkpt>
      <trkpt lat="44.59009" lon="6.83534">
        <ele>1889</ele>
        <time>2020-02-17T15:16:28.000Z</time>
      </trkpt>
      <trkpt lat="44.59011" lon="6.83547">
        <ele>1889</ele>
        <time>2020-02-17T15:16:37.000Z</time>
      </trkpt>
      <trkpt lat="44.59014" lon="6.83562">
        <ele>1889</ele>
        <time>2020-02-17T15:16:48.000Z</time>
      </trkpt>
      <trkpt lat="44.59015" lon="6.83572">
        <ele>1888</ele>
        <time>2020-02-17T15:16:54.000Z</time>
      </trkpt>
      <trkpt lat="44.59016" lon="6.83573">
        <ele>1888</ele>
        <time>2020-02-17T15:16:55.000Z</time>
      </trkpt>
      <trkpt lat="44.59016" lon="6.83577">
        <ele>1888</ele>
        <time>2020-02-17T15:16:58.000Z</time>
      </trkpt>
      <trkpt lat="44.59017" lon="6.83577">
        <ele>1888</ele>
        <time>2020-02-17T15:16:59.000Z</time>
      </trkpt>
      <trkpt lat="44.59017" lon="6.8358">
        <ele>1888</ele>
        <time>2020-02-17T15:17:02.000Z</time>
      </trkpt>
      <trkpt lat="44.59019" lon="6.83585">
        <ele>1888</ele>
        <time>2020-02-17T15:17:07.000Z</time>
      </trkpt>
      <trkpt lat="44.59023" lon="6.83592">
        <ele>1888</ele>
        <time>2020-02-17T15:17:13.000Z</time>
      </trkpt>
      <trkpt lat="44.59026" lon="6.83599">
        <ele>1889</ele>
        <time>2020-02-17T15:17:18.000Z</time>
      </trkpt>
      <trkpt lat="44.59027" lon="6.83604">
        <ele>1889</ele>
        <time>2020-02-17T15:17:21.000Z</time>
      </trkpt>
      <trkpt lat="44.59028" lon="6.83605">
        <ele>1889</ele>
        <time>2020-02-17T15:17:22.000Z</time>
      </trkpt>
      <trkpt lat="44.59028" lon="6.83607">
        <ele>1889</ele>
        <time>2020-02-17T15:17:24.000Z</time>
      </trkpt>
      <trkpt lat="44.5903" lon="6.83609">
        <ele>1890</ele>
        <time>2020-02-17T15:17:26.000Z</time>
      </trkpt>
      <trkpt lat="44.59031" lon="6.83612">
        <ele>1890</ele>
        <time>2020-02-17T15:17:29.000Z</time>
      </trkpt>
      <trkpt lat="44.59033" lon="6.83615">
        <ele>1890</ele>
        <time>2020-02-17T15:17:32.000Z</time>
      </trkpt>
      <trkpt lat="44.59033" lon="6.83619">
        <ele>1890</ele>
        <time>2020-02-17T15:17:34.000Z</time>
      </trkpt>
      <trkpt lat="44.59033" lon="6.83624">
        <ele>1890</ele>
        <time>2020-02-17T15:17:37.000Z</time>
      </trkpt>
      <trkpt lat="44.59034" lon="6.83627">
        <ele>1890</ele>
        <time>2020-02-17T15:17:39.000Z</time>
      </trkpt>
      <trkpt lat="44.59036" lon="6.83633">
        <ele>1890</ele>
        <time>2020-02-17T15:17:44.000Z</time>
      </trkpt>
      <trkpt lat="44.59037" lon="6.83643">
        <ele>1890</ele>
        <time>2020-02-17T15:17:51.000Z</time>
      </trkpt>
      <trkpt lat="44.59038" lon="6.83644">
        <ele>1890</ele>
        <time>2020-02-17T15:17:52.000Z</time>
      </trkpt>
      <trkpt lat="44.59043" lon="6.83652">
        <ele>1891</ele>
        <time>2020-02-17T15:17:59.000Z</time>
      </trkpt>
      <trkpt lat="44.59044" lon="6.83653">
        <ele>1891</ele>
        <time>2020-02-17T15:18:00.000Z</time>
      </trkpt>
      <trkpt lat="44.59045" lon="6.83659">
        <ele>1891</ele>
        <time>2020-02-17T15:18:04.000Z</time>
      </trkpt>
      <trkpt lat="44.59048" lon="6.83666">
        <ele>1891</ele>
        <time>2020-02-17T15:18:10.000Z</time>
      </trkpt>
      <trkpt lat="44.59049" lon="6.83666">
        <ele>1891</ele>
        <time>2020-02-17T15:18:12.000Z</time>
      </trkpt>
      <trkpt lat="44.5905" lon="6.83668">
        <ele>1889</ele>
        <time>2020-02-17T15:18:14.000Z</time>
      </trkpt>
      <trkpt lat="44.59053" lon="6.83671">
        <ele>1890</ele>
        <time>2020-02-17T15:18:17.000Z</time>
      </trkpt>
      <trkpt lat="44.59063" lon="6.83692">
        <ele>1890</ele>
        <time>2020-02-17T15:18:31.000Z</time>
      </trkpt>
      <trkpt lat="44.59068" lon="6.83704">
        <ele>1889</ele>
        <time>2020-02-17T15:18:39.000Z</time>
      </trkpt>
      <trkpt lat="44.59078" lon="6.83718">
        <ele>1888</ele>
        <time>2020-02-17T15:18:49.000Z</time>
      </trkpt>
      <trkpt lat="44.59078" lon="6.83719">
        <ele>1888</ele>
        <time>2020-02-17T15:18:50.000Z</time>
      </trkpt>
      <trkpt lat="44.59079" lon="6.83721">
        <ele>1888</ele>
        <time>2020-02-17T15:18:51.000Z</time>
      </trkpt>
      <trkpt lat="44.59081" lon="6.83723">
        <ele>1888</ele>
        <time>2020-02-17T15:18:53.000Z</time>
      </trkpt>
      <trkpt lat="44.59081" lon="6.83726">
        <ele>1888</ele>
        <time>2020-02-17T15:18:54.000Z</time>
      </trkpt>
      <trkpt lat="44.59084" lon="6.83729">
        <ele>1895</ele>
        <time>2020-02-17T15:18:56.000Z</time>
      </trkpt>
      <trkpt lat="44.59085" lon="6.83731">
        <ele>1895</ele>
        <time>2020-02-17T15:18:58.000Z</time>
      </trkpt>
      <trkpt lat="44.59087" lon="6.83736">
        <ele>1893</ele>
        <time>2020-02-17T15:19:01.000Z</time>
      </trkpt>
      <trkpt lat="44.59096" lon="6.83776">
        <ele>1892</ele>
        <time>2020-02-17T15:19:23.000Z</time>
      </trkpt>
      <trkpt lat="44.59096" lon="6.8378">
        <ele>1892</ele>
        <time>2020-02-17T15:19:25.000Z</time>
      </trkpt>
      <trkpt lat="44.59095" lon="6.83805">
        <ele>1892</ele>
        <time>2020-02-17T15:19:38.000Z</time>
      </trkpt>
      <trkpt lat="44.59095" lon="6.83809">
        <ele>1892</ele>
        <time>2020-02-17T15:19:40.000Z</time>
      </trkpt>
      <trkpt lat="44.59098" lon="6.83816">
        <ele>1891</ele>
        <time>2020-02-17T15:19:44.000Z</time>
      </trkpt>
      <trkpt lat="44.59099" lon="6.83819">
        <ele>1891</ele>
        <time>2020-02-17T15:19:46.000Z</time>
      </trkpt>
      <trkpt lat="44.59099" lon="6.8382">
        <ele>1891</ele>
        <time>2020-02-17T15:19:47.000Z</time>
      </trkpt>
      <trkpt lat="44.59102" lon="6.83833">
        <ele>1891</ele>
        <time>2020-02-17T15:19:57.000Z</time>
      </trkpt>
      <trkpt lat="44.59102" lon="6.83833">
        <ele>1891</ele>
        <time>2020-02-17T15:19:58.000Z</time>
      </trkpt>
      <trkpt lat="44.59103" lon="6.83839">
        <ele>1892</ele>
        <time>2020-02-17T15:20:04.000Z</time>
      </trkpt>
      <trkpt lat="44.59103" lon="6.8384">
        <ele>1892</ele>
        <time>2020-02-17T15:20:05.000Z</time>
      </trkpt>
      <trkpt lat="44.59103" lon="6.83841">
        <ele>1892</ele>
        <time>2020-02-17T15:20:06.000Z</time>
      </trkpt>
      <trkpt lat="44.59103" lon="6.83842">
        <ele>1892</ele>
        <time>2020-02-17T15:20:07.000Z</time>
      </trkpt>
      <trkpt lat="44.59104" lon="6.83843">
        <ele>1892</ele>
        <time>2020-02-17T15:20:08.000Z</time>
      </trkpt>
      <trkpt lat="44.59105" lon="6.83848">
        <ele>1893</ele>
        <time>2020-02-17T15:20:12.000Z</time>
      </trkpt>
      <trkpt lat="44.59106" lon="6.83849">
        <ele>1893</ele>
        <time>2020-02-17T15:20:13.000Z</time>
      </trkpt>
      <trkpt lat="44.59106" lon="6.8385">
        <ele>1893</ele>
        <time>2020-02-17T15:20:14.000Z</time>
      </trkpt>
      <trkpt lat="44.59107" lon="6.83852">
        <ele>1893</ele>
        <time>2020-02-17T15:20:16.000Z</time>
      </trkpt>
      <trkpt lat="44.59108" lon="6.83854">
        <ele>1894</ele>
        <time>2020-02-17T15:20:18.000Z</time>
      </trkpt>
      <trkpt lat="44.59109" lon="6.83857">
        <ele>1894</ele>
        <time>2020-02-17T15:20:21.000Z</time>
      </trkpt>
      <trkpt lat="44.59111" lon="6.83859">
        <ele>1894</ele>
        <time>2020-02-17T15:20:23.000Z</time>
      </trkpt>
      <trkpt lat="44.59113" lon="6.83862">
        <ele>1895</ele>
        <time>2020-02-17T15:20:26.000Z</time>
      </trkpt>
      <trkpt lat="44.59114" lon="6.83865">
        <ele>1895</ele>
        <time>2020-02-17T15:20:29.000Z</time>
      </trkpt>
      <trkpt lat="44.59115" lon="6.83867">
        <ele>1895</ele>
        <time>2020-02-17T15:20:31.000Z</time>
      </trkpt>
      <trkpt lat="44.59117" lon="6.8387">
        <ele>1896</ele>
        <time>2020-02-17T15:20:34.000Z</time>
      </trkpt>
      <trkpt lat="44.59118" lon="6.83871">
        <ele>1896</ele>
        <time>2020-02-17T15:20:36.000Z</time>
      </trkpt>
      <trkpt lat="44.59119" lon="6.83872">
        <ele>1896</ele>
        <time>2020-02-17T15:20:37.000Z</time>
      </trkpt>
      <trkpt lat="44.59119" lon="6.83873">
        <ele>1896</ele>
        <time>2020-02-17T15:20:39.000Z</time>
      </trkpt>
      <trkpt lat="44.5912" lon="6.83875">
        <ele>1896</ele>
        <time>2020-02-17T15:20:41.000Z</time>
      </trkpt>
      <trkpt lat="44.59121" lon="6.83877">
        <ele>1896</ele>
        <time>2020-02-17T15:20:43.000Z</time>
      </trkpt>
      <trkpt lat="44.59121" lon="6.83877">
        <ele>1896</ele>
        <time>2020-02-17T15:20:44.000Z</time>
      </trkpt>
      <trkpt lat="44.59126" lon="6.83883">
        <ele>1897</ele>
        <time>2020-02-17T15:20:49.000Z</time>
      </trkpt>
      <trkpt lat="44.59127" lon="6.83883">
        <ele>1897</ele>
        <time>2020-02-17T15:20:50.000Z</time>
      </trkpt>
      <trkpt lat="44.59128" lon="6.83885">
        <ele>1897</ele>
        <time>2020-02-17T15:20:52.000Z</time>
      </trkpt>
      <trkpt lat="44.59131" lon="6.83886">
        <ele>1898</ele>
        <time>2020-02-17T15:20:55.000Z</time>
      </trkpt>
      <trkpt lat="44.59135" lon="6.83889">
        <ele>1898</ele>
        <time>2020-02-17T15:20:59.000Z</time>
      </trkpt>
      <trkpt lat="44.59136" lon="6.83891">
        <ele>1898</ele>
        <time>2020-02-17T15:21:01.000Z</time>
      </trkpt>
      <trkpt lat="44.59136" lon="6.83892">
        <ele>1898</ele>
        <time>2020-02-17T15:21:02.000Z</time>
      </trkpt>
      <trkpt lat="44.59138" lon="6.83894">
        <ele>1899</ele>
        <time>2020-02-17T15:21:04.000Z</time>
      </trkpt>
      <trkpt lat="44.59138" lon="6.83895">
        <ele>1899</ele>
        <time>2020-02-17T15:21:05.000Z</time>
      </trkpt>
      <trkpt lat="44.59139" lon="6.83895">
        <ele>1899</ele>
        <time>2020-02-17T15:21:06.000Z</time>
      </trkpt>
      <trkpt lat="44.59138" lon="6.83897">
        <ele>1899</ele>
        <time>2020-02-17T15:21:08.000Z</time>
      </trkpt>
      <trkpt lat="44.59138" lon="6.83898">
        <ele>1899</ele>
        <time>2020-02-17T15:21:09.000Z</time>
      </trkpt>
      <trkpt lat="44.5914" lon="6.83901">
        <ele>1899</ele>
        <time>2020-02-17T15:21:12.000Z</time>
      </trkpt>
      <trkpt lat="44.59139" lon="6.83901">
        <ele>1899</ele>
        <time>2020-02-17T15:21:33.000Z</time>
      </trkpt>
      <trkpt lat="44.5914" lon="6.83904">
        <ele>1900</ele>
        <time>2020-02-17T15:21:37.000Z</time>
      </trkpt>
      <trkpt lat="44.59139" lon="6.83909">
        <ele>1900</ele>
        <time>2020-02-17T15:21:41.000Z</time>
      </trkpt>
      <trkpt lat="44.59139" lon="6.83912">
        <ele>1900</ele>
        <time>2020-02-17T15:21:43.000Z</time>
      </trkpt>
      <trkpt lat="44.59138" lon="6.83922">
        <ele>1901</ele>
        <time>2020-02-17T15:21:49.000Z</time>
      </trkpt>
      <trkpt lat="44.59139" lon="6.83927">
        <ele>1901</ele>
        <time>2020-02-17T15:21:52.000Z</time>
      </trkpt>
      <trkpt lat="44.59138" lon="6.83936">
        <ele>1901</ele>
        <time>2020-02-17T15:21:55.000Z</time>
      </trkpt>
      <trkpt lat="44.59136" lon="6.83952">
        <ele>1900</ele>
        <time>2020-02-17T15:22:04.000Z</time>
      </trkpt>
      <trkpt lat="44.59139" lon="6.83967">
        <ele>1901</ele>
        <time>2020-02-17T15:22:13.000Z</time>
      </trkpt>
      <trkpt lat="44.59144" lon="6.83996">
        <ele>1902</ele>
        <time>2020-02-17T15:22:28.000Z</time>
      </trkpt>
      <trkpt lat="44.59147" lon="6.8401">
        <ele>1902</ele>
        <time>2020-02-17T15:22:36.000Z</time>
      </trkpt>
      <trkpt lat="44.59157" lon="6.84052">
        <ele>1901</ele>
        <time>2020-02-17T15:23:02.000Z</time>
      </trkpt>
      <trkpt lat="44.59168" lon="6.8408">
        <ele>1906</ele>
        <time>2020-02-17T15:23:21.000Z</time>
      </trkpt>
      <trkpt lat="44.5917" lon="6.84085">
        <ele>1906</ele>
        <time>2020-02-17T15:23:24.000Z</time>
      </trkpt>
      <trkpt lat="44.59182" lon="6.84114">
        <ele>1907</ele>
        <time>2020-02-17T15:23:42.000Z</time>
      </trkpt>
      <trkpt lat="44.59211" lon="6.84153">
        <ele>1907</ele>
        <time>2020-02-17T15:24:13.000Z</time>
      </trkpt>
      <trkpt lat="44.59219" lon="6.84166">
        <ele>1908</ele>
        <time>2020-02-17T15:24:23.000Z</time>
      </trkpt>
      <trkpt lat="44.59234" lon="6.84186">
        <ele>1904</ele>
        <time>2020-02-17T15:24:40.000Z</time>
      </trkpt>
      <trkpt lat="44.59239" lon="6.84197">
        <ele>1904</ele>
        <time>2020-02-17T15:24:47.000Z</time>
      </trkpt>
      <trkpt lat="44.59273" lon="6.8423">
        <ele>1913</ele>
        <time>2020-02-17T15:25:25.000Z</time>
      </trkpt>
      <trkpt lat="44.59273" lon="6.8423">
        <ele>1913</ele>
        <time>2020-02-17T15:25:27.000Z</time>
      </trkpt>
      <trkpt lat="44.59273" lon="6.84231">
        <ele>1913</ele>
        <time>2020-02-17T15:25:28.000Z</time>
      </trkpt>
      <trkpt lat="44.59273" lon="6.84232">
        <ele>1912</ele>
        <time>2020-02-17T15:25:32.000Z</time>
      </trkpt>
    </trkseg>
  </trk>
</gpx>